<?xml version='1.0' encoding='UTF-8'?><gpx version="1.1" creator="JPX - https://github.com/jenetics/jpx" xmlns="http://www.topografix.com/GPX/1/1"><trk><trkseg><trkpt lat="43.3985865" lon="-4.7346562"><ele>49.0</ele><time>2026-05-02T08:19:12.963Z</time></trkpt><trkpt lat="43.3985597" lon="-4.7345242"><ele>49.0</ele><time>2026-05-02T08:19:14.969Z</time></trkpt><trkpt lat="43.3985329" lon="-4.7343722"><ele>49.0</ele><time>2026-05-02T08:19:16.968Z</time></trkpt><trkpt lat="43.3985022" lon="-4.7342807"><ele>49.0</ele><time>2026-05-02T08:19:17.966Z</time></trkpt><trkpt lat="43.3984508" lon="-4.7341739"><ele>49.0</ele><time>2026-05-02T08:19:18.972Z</time></trkpt><trkpt lat="43.3983829" lon="-4.7340524"><ele>49.0</ele><time>2026-05-02T08:19:19.964Z</time></trkpt><trkpt lat="43.398309" lon="-4.7339217"><ele>49.0</ele><time>2026-05-02T08:19:20.967Z</time></trkpt><trkpt lat="43.3982275" lon="-4.7337825"><ele>49.0</ele><time>2026-05-02T08:19:21.964Z</time></trkpt><trkpt lat="43.3981437" lon="-4.7336319"><ele>49.0</ele><time>2026-05-02T08:19:22.964Z</time></trkpt><trkpt lat="43.3980511" lon="-4.7334739"><ele>49.0</ele><time>2026-05-02T08:19:23.964Z</time></trkpt><trkpt lat="43.39795" lon="-4.7333075"><ele>49.0</ele><time>2026-05-02T08:19:24.972Z</time></trkpt><trkpt lat="43.397841" lon="-4.7331241"><ele>49.0</ele><time>2026-05-02T08:19:25.974Z</time></trkpt><trkpt lat="43.3977291" lon="-4.732941"><ele>49.0</ele><time>2026-05-02T08:19:26.986Z</time></trkpt><trkpt lat="43.3976197" lon="-4.7327638"><ele>49.0</ele><time>2026-05-02T08:19:27.968Z</time></trkpt><trkpt lat="43.3975124" lon="-4.7325956"><ele>49.0</ele><time>2026-05-02T08:19:28.966Z</time></trkpt><trkpt lat="43.3974068" lon="-4.73242"><ele>48.666666666666664</ele><time>2026-05-02T08:19:29.972Z</time></trkpt><trkpt lat="43.3972998" lon="-4.7322404"><ele>48.33333333333333</ele><time>2026-05-02T08:19:30.97Z</time></trkpt><trkpt lat="43.397187" lon="-4.732061"><ele>48.0</ele><time>2026-05-02T08:19:31.965Z</time></trkpt><trkpt lat="43.3970747" lon="-4.7318829"><ele>49.33333333333333</ele><time>2026-05-02T08:19:32.962Z</time></trkpt><trkpt lat="43.396961" lon="-4.7316996"><ele>50.666666666666664</ele><time>2026-05-02T08:19:33.967Z</time></trkpt><trkpt lat="43.3968465" lon="-4.7315133"><ele>52.0</ele><time>2026-05-02T08:19:34.96Z</time></trkpt><trkpt lat="43.396733" lon="-4.7313278"><ele>52.0</ele><time>2026-05-02T08:19:35.964Z</time></trkpt><trkpt lat="43.3966209" lon="-4.7311358"><ele>52.0</ele><time>2026-05-02T08:19:36.965Z</time></trkpt><trkpt lat="43.3965043" lon="-4.7309458"><ele>52.0</ele><time>2026-05-02T08:19:37.966Z</time></trkpt><trkpt lat="43.3963894" lon="-4.7307567"><ele>52.0</ele><time>2026-05-02T08:19:38.964Z</time></trkpt><trkpt lat="43.396279" lon="-4.7305712"><ele>52.0</ele><time>2026-05-02T08:19:39.967Z</time></trkpt><trkpt lat="43.3961642" lon="-4.7303833"><ele>52.0</ele><time>2026-05-02T08:19:40.963Z</time></trkpt><trkpt lat="43.3960509" lon="-4.7301953"><ele>53.0</ele><time>2026-05-02T08:19:41.962Z</time></trkpt><trkpt lat="43.395937" lon="-4.7300044"><ele>54.0</ele><time>2026-05-02T08:19:42.96Z</time></trkpt><trkpt lat="43.3958317" lon="-4.7298142"><ele>55.0</ele><time>2026-05-02T08:19:43.967Z</time></trkpt><trkpt lat="43.395728" lon="-4.7296197"><ele>55.0</ele><time>2026-05-02T08:19:44.971Z</time></trkpt><trkpt lat="43.3956304" lon="-4.7294258"><ele>55.0</ele><time>2026-05-02T08:19:45.955Z</time></trkpt><trkpt lat="43.395539" lon="-4.7292237"><ele>55.0</ele><time>2026-05-02T08:19:46.964Z</time></trkpt><trkpt lat="43.3954631" lon="-4.7290234"><ele>54.666666666666664</ele><time>2026-05-02T08:19:47.964Z</time></trkpt><trkpt lat="43.3953987" lon="-4.7288142"><ele>54.33333333333333</ele><time>2026-05-02T08:19:48.957Z</time></trkpt><trkpt lat="43.3953387" lon="-4.7286021"><ele>54.0</ele><time>2026-05-02T08:19:49.952Z</time></trkpt><trkpt lat="43.3952875" lon="-4.7283755"><ele>53.66666666666667</ele><time>2026-05-02T08:19:50.954Z</time></trkpt><trkpt lat="43.395249" lon="-4.7281547"><ele>53.333333333333336</ele><time>2026-05-02T08:19:51.953Z</time></trkpt><trkpt lat="43.3952147" lon="-4.7279293"><ele>53.0</ele><time>2026-05-02T08:19:52.966Z</time></trkpt><trkpt lat="43.3951961" lon="-4.7277051"><ele>52.333333333333336</ele><time>2026-05-02T08:19:53.96Z</time></trkpt><trkpt lat="43.3951852" lon="-4.7274772"><ele>51.66666666666667</ele><time>2026-05-02T08:19:54.96Z</time></trkpt><trkpt lat="43.3951828" lon="-4.7272495"><ele>51.0</ele><time>2026-05-02T08:19:55.959Z</time></trkpt><trkpt lat="43.3951902" lon="-4.7270171"><ele>50.66666666666667</ele><time>2026-05-02T08:19:56.963Z</time></trkpt><trkpt lat="43.3952108" lon="-4.7267841"><ele>50.333333333333336</ele><time>2026-05-02T08:19:57.979Z</time></trkpt><trkpt lat="43.3952449" lon="-4.7265609"><ele>50.0</ele><time>2026-05-02T08:19:58.966Z</time></trkpt><trkpt lat="43.395289" lon="-4.7263371"><ele>50.0</ele><time>2026-05-02T08:19:59.969Z</time></trkpt><trkpt lat="43.3953291" lon="-4.7261117"><ele>50.0</ele><time>2026-05-02T08:20:00.965Z</time></trkpt><trkpt lat="43.3953762" lon="-4.7258873"><ele>50.0</ele><time>2026-05-02T08:20:01.963Z</time></trkpt><trkpt lat="43.3954258" lon="-4.7256587"><ele>50.333333333333336</ele><time>2026-05-02T08:20:02.96Z</time></trkpt><trkpt lat="43.3954719" lon="-4.7254322"><ele>50.66666666666667</ele><time>2026-05-02T08:20:03.958Z</time></trkpt><trkpt lat="43.3955224" lon="-4.725208"><ele>51.0</ele><time>2026-05-02T08:20:04.962Z</time></trkpt><trkpt lat="43.395571" lon="-4.7249795"><ele>49.666666666666664</ele><time>2026-05-02T08:20:05.968Z</time></trkpt><trkpt lat="43.3956163" lon="-4.7247473"><ele>48.33333333333333</ele><time>2026-05-02T08:20:06.969Z</time></trkpt><trkpt lat="43.3956566" lon="-4.7245176"><ele>47.0</ele><time>2026-05-02T08:20:07.962Z</time></trkpt><trkpt lat="43.3956996" lon="-4.7242919"><ele>46.33333333333333</ele><time>2026-05-02T08:20:08.961Z</time></trkpt><trkpt lat="43.3957436" lon="-4.7240565"><ele>45.666666666666664</ele><time>2026-05-02T08:20:09.963Z</time></trkpt><trkpt lat="43.3957875" lon="-4.7238241"><ele>45.0</ele><time>2026-05-02T08:20:10.965Z</time></trkpt><trkpt lat="43.3958328" lon="-4.7235914"><ele>44.666666666666664</ele><time>2026-05-02T08:20:11.967Z</time></trkpt><trkpt lat="43.3958781" lon="-4.7233563"><ele>44.33333333333333</ele><time>2026-05-02T08:20:12.965Z</time></trkpt><trkpt lat="43.3959261" lon="-4.7231243"><ele>44.0</ele><time>2026-05-02T08:20:13.966Z</time></trkpt><trkpt lat="43.3959777" lon="-4.7228866"><ele>43.666666666666664</ele><time>2026-05-02T08:20:14.965Z</time></trkpt><trkpt lat="43.3960188" lon="-4.7226576"><ele>43.333333333333336</ele><time>2026-05-02T08:20:15.962Z</time></trkpt><trkpt lat="43.3960643" lon="-4.7224241"><ele>43.0</ele><time>2026-05-02T08:20:16.961Z</time></trkpt><trkpt lat="43.3961077" lon="-4.722188"><ele>43.0</ele><time>2026-05-02T08:20:17.964Z</time></trkpt><trkpt lat="43.3961516" lon="-4.721952"><ele>43.0</ele><time>2026-05-02T08:20:18.961Z</time></trkpt><trkpt lat="43.3961962" lon="-4.7217148"><ele>43.0</ele><time>2026-05-02T08:20:19.959Z</time></trkpt><trkpt lat="43.3962496" lon="-4.7214815"><ele>43.0</ele><time>2026-05-02T08:20:20.964Z</time></trkpt><trkpt lat="43.3962985" lon="-4.7212452"><ele>43.0</ele><time>2026-05-02T08:20:21.966Z</time></trkpt><trkpt lat="43.3963427" lon="-4.7210087"><ele>43.0</ele><time>2026-05-02T08:20:22.977Z</time></trkpt><trkpt lat="43.3963886" lon="-4.7207705"><ele>42.0</ele><time>2026-05-02T08:20:23.969Z</time></trkpt><trkpt lat="43.3964354" lon="-4.7205317"><ele>41.0</ele><time>2026-05-02T08:20:24.97Z</time></trkpt><trkpt lat="43.3964839" lon="-4.7202867"><ele>40.0</ele><time>2026-05-02T08:20:25.97Z</time></trkpt><trkpt lat="43.3965313" lon="-4.7200471"><ele>40.0</ele><time>2026-05-02T08:20:26.97Z</time></trkpt><trkpt lat="43.3965743" lon="-4.7198045"><ele>40.0</ele><time>2026-05-02T08:20:27.963Z</time></trkpt><trkpt lat="43.3966203" lon="-4.7195647"><ele>40.0</ele><time>2026-05-02T08:20:28.978Z</time></trkpt><trkpt lat="43.396667" lon="-4.7193291"><ele>40.0</ele><time>2026-05-02T08:20:29.963Z</time></trkpt><trkpt lat="43.3967097" lon="-4.7190992"><ele>40.0</ele><time>2026-05-02T08:20:30.956Z</time></trkpt><trkpt lat="43.3967554" lon="-4.7188891"><ele>40.0</ele><time>2026-05-02T08:20:31.951Z</time></trkpt><trkpt lat="43.3968004" lon="-4.7186996"><ele>39.75</ele><time>2026-05-02T08:20:32.953Z</time></trkpt><trkpt lat="43.396843" lon="-4.7185105"><ele>39.5</ele><time>2026-05-02T08:20:33.955Z</time></trkpt><trkpt lat="43.3968808" lon="-4.7183186"><ele>39.25</ele><time>2026-05-02T08:20:34.957Z</time></trkpt><trkpt lat="43.3969245" lon="-4.7181314"><ele>39.0</ele><time>2026-05-02T08:20:35.955Z</time></trkpt><trkpt lat="43.3969573" lon="-4.7179443"><ele>39.0</ele><time>2026-05-02T08:20:36.953Z</time></trkpt><trkpt lat="43.3969872" lon="-4.7177614"><ele>39.0</ele><time>2026-05-02T08:20:37.961Z</time></trkpt><trkpt lat="43.397016" lon="-4.7175823"><ele>39.0</ele><time>2026-05-02T08:20:38.959Z</time></trkpt><trkpt lat="43.3970442" lon="-4.7174206"><ele>39.0</ele><time>2026-05-02T08:20:39.961Z</time></trkpt><trkpt lat="43.3970678" lon="-4.7172697"><ele>39.0</ele><time>2026-05-02T08:20:40.956Z</time></trkpt><trkpt lat="43.3970836" lon="-4.7171303"><ele>39.0</ele><time>2026-05-02T08:20:41.957Z</time></trkpt><trkpt lat="43.3970893" lon="-4.7169916"><ele>39.0</ele><time>2026-05-02T08:20:42.955Z</time></trkpt><trkpt lat="43.397089" lon="-4.7168636"><ele>39.0</ele><time>2026-05-02T08:20:43.96Z</time></trkpt><trkpt lat="43.3970905" lon="-4.7167492"><ele>39.0</ele><time>2026-05-02T08:20:44.953Z</time></trkpt><trkpt lat="43.3970995" lon="-4.7166377"><ele>39.0</ele><time>2026-05-02T08:20:45.955Z</time></trkpt><trkpt lat="43.3971224" lon="-4.7165257"><ele>39.0</ele><time>2026-05-02T08:20:46.959Z</time></trkpt><trkpt lat="43.3971613" lon="-4.7164185"><ele>39.0</ele><time>2026-05-02T08:20:47.959Z</time></trkpt><trkpt lat="43.3972075" lon="-4.7163072"><ele>39.0</ele><time>2026-05-02T08:20:48.966Z</time></trkpt><trkpt lat="43.3972594" lon="-4.7161777"><ele>39.0</ele><time>2026-05-02T08:20:49.972Z</time></trkpt><trkpt lat="43.3973075" lon="-4.71603"><ele>37.75</ele><time>2026-05-02T08:20:50.962Z</time></trkpt><trkpt lat="43.3973494" lon="-4.7158641"><ele>36.5</ele><time>2026-05-02T08:20:51.961Z</time></trkpt><trkpt lat="43.3973832" lon="-4.7156881"><ele>35.25</ele><time>2026-05-02T08:20:52.968Z</time></trkpt><trkpt lat="43.3974169" lon="-4.7155034"><ele>34.0</ele><time>2026-05-02T08:20:53.953Z</time></trkpt><trkpt lat="43.3974514" lon="-4.715306"><ele>34.333333333333336</ele><time>2026-05-02T08:20:54.956Z</time></trkpt><trkpt lat="43.3974842" lon="-4.7150895"><ele>34.666666666666664</ele><time>2026-05-02T08:20:55.952Z</time></trkpt><trkpt lat="43.3975213" lon="-4.7148793"><ele>35.0</ele><time>2026-05-02T08:20:56.957Z</time></trkpt><trkpt lat="43.3975605" lon="-4.7146522"><ele>35.0</ele><time>2026-05-02T08:20:57.956Z</time></trkpt><trkpt lat="43.3975933" lon="-4.7144326"><ele>35.0</ele><time>2026-05-02T08:20:58.952Z</time></trkpt><trkpt lat="43.3976197" lon="-4.7142098"><ele>35.0</ele><time>2026-05-02T08:20:59.973Z</time></trkpt><trkpt lat="43.397652" lon="-4.7139817"><ele>34.666666666666664</ele><time>2026-05-02T08:21:00.953Z</time></trkpt><trkpt lat="43.3976895" lon="-4.713751"><ele>34.333333333333336</ele><time>2026-05-02T08:21:01.95Z</time></trkpt><trkpt lat="43.3977262" lon="-4.7135129"><ele>34.0</ele><time>2026-05-02T08:21:02.955Z</time></trkpt><trkpt lat="43.3977659" lon="-4.7132788"><ele>33.333333333333336</ele><time>2026-05-02T08:21:03.952Z</time></trkpt><trkpt lat="43.3978083" lon="-4.7130454"><ele>32.666666666666664</ele><time>2026-05-02T08:21:04.954Z</time></trkpt><trkpt lat="43.3978434" lon="-4.7128013"><ele>32.0</ele><time>2026-05-02T08:21:05.955Z</time></trkpt><trkpt lat="43.3978707" lon="-4.7125598"><ele>31.0</ele><time>2026-05-02T08:21:06.954Z</time></trkpt><trkpt lat="43.3978998" lon="-4.712313"><ele>30.0</ele><time>2026-05-02T08:21:07.954Z</time></trkpt><trkpt lat="43.3979372" lon="-4.7120622"><ele>29.0</ele><time>2026-05-02T08:21:08.957Z</time></trkpt><trkpt lat="43.3979787" lon="-4.7118201"><ele>28.666666666666664</ele><time>2026-05-02T08:21:09.957Z</time></trkpt><trkpt lat="43.3980227" lon="-4.7115724"><ele>28.333333333333336</ele><time>2026-05-02T08:21:10.958Z</time></trkpt><trkpt lat="43.3980696" lon="-4.7113286"><ele>28.0</ele><time>2026-05-02T08:21:11.96Z</time></trkpt><trkpt lat="43.3981223" lon="-4.7110674"><ele>27.666666666666668</ele><time>2026-05-02T08:21:12.958Z</time></trkpt><trkpt lat="43.3981722" lon="-4.7108218"><ele>27.333333333333336</ele><time>2026-05-02T08:21:13.958Z</time></trkpt><trkpt lat="43.3982292" lon="-4.7105788"><ele>27.0</ele><time>2026-05-02T08:21:14.956Z</time></trkpt><trkpt lat="43.3982871" lon="-4.7103376"><ele>25.666666666666668</ele><time>2026-05-02T08:21:15.956Z</time></trkpt><trkpt lat="43.3983503" lon="-4.7100917"><ele>24.333333333333336</ele><time>2026-05-02T08:21:16.956Z</time></trkpt><trkpt lat="43.3984079" lon="-4.7098604"><ele>23.0</ele><time>2026-05-02T08:21:17.958Z</time></trkpt><trkpt lat="43.3984715" lon="-4.7096284"><ele>22.666666666666668</ele><time>2026-05-02T08:21:18.959Z</time></trkpt><trkpt lat="43.3985397" lon="-4.7093895"><ele>22.333333333333332</ele><time>2026-05-02T08:21:19.961Z</time></trkpt><trkpt lat="43.3986038" lon="-4.7091661"><ele>22.0</ele><time>2026-05-02T08:21:20.96Z</time></trkpt><trkpt lat="43.3986646" lon="-4.7089265"><ele>22.0</ele><time>2026-05-02T08:21:21.965Z</time></trkpt><trkpt lat="43.3987235" lon="-4.70869"><ele>22.0</ele><time>2026-05-02T08:21:22.967Z</time></trkpt><trkpt lat="43.3987879" lon="-4.7084634"><ele>22.0</ele><time>2026-05-02T08:21:23.974Z</time></trkpt><trkpt lat="43.3988457" lon="-4.7082239"><ele>23.333333333333332</ele><time>2026-05-02T08:21:24.965Z</time></trkpt><trkpt lat="43.3989042" lon="-4.7079926"><ele>24.666666666666664</ele><time>2026-05-02T08:21:25.968Z</time></trkpt><trkpt lat="43.3989519" lon="-4.7077663"><ele>26.0</ele><time>2026-05-02T08:21:26.965Z</time></trkpt><trkpt lat="43.3989849" lon="-4.7075371"><ele>26.0</ele><time>2026-05-02T08:21:27.961Z</time></trkpt><trkpt lat="43.3990117" lon="-4.7072989"><ele>26.0</ele><time>2026-05-02T08:21:28.961Z</time></trkpt><trkpt lat="43.3990229" lon="-4.7070589"><ele>26.0</ele><time>2026-05-02T08:21:29.969Z</time></trkpt><trkpt lat="43.3990284" lon="-4.7068153"><ele>24.666666666666664</ele><time>2026-05-02T08:21:30.972Z</time></trkpt><trkpt lat="43.399025" lon="-4.7065761"><ele>23.333333333333332</ele><time>2026-05-02T08:21:31.959Z</time></trkpt><trkpt lat="43.3990195" lon="-4.7063263"><ele>22.0</ele><time>2026-05-02T08:21:32.959Z</time></trkpt><trkpt lat="43.3990159" lon="-4.7060669"><ele>22.0</ele><time>2026-05-02T08:21:33.96Z</time></trkpt><trkpt lat="43.3990081" lon="-4.7058162"><ele>22.0</ele><time>2026-05-02T08:21:34.96Z</time></trkpt><trkpt lat="43.3989957" lon="-4.7055692"><ele>22.0</ele><time>2026-05-02T08:21:35.962Z</time></trkpt><trkpt lat="43.3989814" lon="-4.7053204"><ele>23.666666666666664</ele><time>2026-05-02T08:21:36.961Z</time></trkpt><trkpt lat="43.3989755" lon="-4.7050648"><ele>25.333333333333332</ele><time>2026-05-02T08:21:37.962Z</time></trkpt><trkpt lat="43.3989702" lon="-4.7048224"><ele>27.0</ele><time>2026-05-02T08:21:38.958Z</time></trkpt><trkpt lat="43.3989678" lon="-4.7045747"><ele>28.0</ele><time>2026-05-02T08:21:39.953Z</time></trkpt><trkpt lat="43.3989641" lon="-4.7043179"><ele>29.0</ele><time>2026-05-02T08:21:40.953Z</time></trkpt><trkpt lat="43.3989547" lon="-4.7040909"><ele>30.0</ele><time>2026-05-02T08:21:41.946Z</time></trkpt><trkpt lat="43.3989393" lon="-4.7038587"><ele>30.0</ele><time>2026-05-02T08:21:42.945Z</time></trkpt><trkpt lat="43.398924" lon="-4.7036351"><ele>30.0</ele><time>2026-05-02T08:21:43.947Z</time></trkpt><trkpt lat="43.3989091" lon="-4.7034264"><ele>30.0</ele><time>2026-05-02T08:21:44.951Z</time></trkpt><trkpt lat="43.3988801" lon="-4.7032176"><ele>25.333333333333332</ele><time>2026-05-02T08:21:45.949Z</time></trkpt><trkpt lat="43.3988317" lon="-4.703018"><ele>20.666666666666664</ele><time>2026-05-02T08:21:46.947Z</time></trkpt><trkpt lat="43.398773" lon="-4.7028294"><ele>16.0</ele><time>2026-05-02T08:21:47.948Z</time></trkpt><trkpt lat="43.3987058" lon="-4.7026384"><ele>16.0</ele><time>2026-05-02T08:21:48.952Z</time></trkpt><trkpt lat="43.398639" lon="-4.7024378"><ele>16.0</ele><time>2026-05-02T08:21:49.955Z</time></trkpt><trkpt lat="43.3985811" lon="-4.7022375"><ele>16.0</ele><time>2026-05-02T08:21:50.951Z</time></trkpt><trkpt lat="43.3985176" lon="-4.7020389"><ele>16.333333333333332</ele><time>2026-05-02T08:21:51.948Z</time></trkpt><trkpt lat="43.3984574" lon="-4.7018349"><ele>16.666666666666668</ele><time>2026-05-02T08:21:52.955Z</time></trkpt><trkpt lat="43.3984026" lon="-4.7016309"><ele>17.0</ele><time>2026-05-02T08:21:53.953Z</time></trkpt><trkpt lat="43.398358" lon="-4.7014106"><ele>17.0</ele><time>2026-05-02T08:21:54.96Z</time></trkpt><trkpt lat="43.3983307" lon="-4.7011927"><ele>17.0</ele><time>2026-05-02T08:21:55.958Z</time></trkpt><trkpt lat="43.3983127" lon="-4.7009782"><ele>17.0</ele><time>2026-05-02T08:21:56.96Z</time></trkpt><trkpt lat="43.3983083" lon="-4.7007549"><ele>16.666666666666668</ele><time>2026-05-02T08:21:57.956Z</time></trkpt><trkpt lat="43.3983139" lon="-4.7005254"><ele>16.333333333333332</ele><time>2026-05-02T08:21:58.96Z</time></trkpt><trkpt lat="43.3983398" lon="-4.7002991"><ele>16.0</ele><time>2026-05-02T08:21:59.966Z</time></trkpt><trkpt lat="43.3983771" lon="-4.7000683"><ele>14.333333333333332</ele><time>2026-05-02T08:22:00.957Z</time></trkpt><trkpt lat="43.3984229" lon="-4.6998569"><ele>12.666666666666666</ele><time>2026-05-02T08:22:01.966Z</time></trkpt><trkpt lat="43.3984703" lon="-4.6996469"><ele>11.0</ele><time>2026-05-02T08:22:02.952Z</time></trkpt><trkpt lat="43.398532" lon="-4.6994475"><ele>10.333333333333332</ele><time>2026-05-02T08:22:03.954Z</time></trkpt><trkpt lat="43.3985833" lon="-4.6992467"><ele>9.666666666666666</ele><time>2026-05-02T08:22:04.963Z</time></trkpt><trkpt lat="43.398638" lon="-4.6990382"><ele>9.0</ele><time>2026-05-02T08:22:05.965Z</time></trkpt><trkpt lat="43.3986801" lon="-4.6988382"><ele>9.0</ele><time>2026-05-02T08:22:06.961Z</time></trkpt><trkpt lat="43.3987217" lon="-4.6986407"><ele>9.0</ele><time>2026-05-02T08:22:07.962Z</time></trkpt><trkpt lat="43.398759" lon="-4.6984381"><ele>9.0</ele><time>2026-05-02T08:22:08.959Z</time></trkpt><trkpt lat="43.3987943" lon="-4.6982426"><ele>9.0</ele><time>2026-05-02T08:22:09.96Z</time></trkpt><trkpt lat="43.398816" lon="-4.6980309"><ele>11.0</ele><time>2026-05-02T08:22:10.953Z</time></trkpt><trkpt lat="43.3988279" lon="-4.6978246"><ele>13.0</ele><time>2026-05-02T08:22:11.957Z</time></trkpt><trkpt lat="43.3988363" lon="-4.697625"><ele>15.0</ele><time>2026-05-02T08:22:12.956Z</time></trkpt><trkpt lat="43.3988361" lon="-4.6974194"><ele>17.0</ele><time>2026-05-02T08:22:13.953Z</time></trkpt><trkpt lat="43.3988302" lon="-4.6972151"><ele>19.5</ele><time>2026-05-02T08:22:14.951Z</time></trkpt><trkpt lat="43.3988111" lon="-4.6970012"><ele>22.0</ele><time>2026-05-02T08:22:15.946Z</time></trkpt><trkpt lat="43.3987965" lon="-4.6968091"><ele>24.5</ele><time>2026-05-02T08:22:16.944Z</time></trkpt><trkpt lat="43.3987726" lon="-4.6966187"><ele>27.0</ele><time>2026-05-02T08:22:17.944Z</time></trkpt><trkpt lat="43.398732" lon="-4.6964234"><ele>27.75</ele><time>2026-05-02T08:22:18.948Z</time></trkpt><trkpt lat="43.3986869" lon="-4.6962509"><ele>28.5</ele><time>2026-05-02T08:22:19.943Z</time></trkpt><trkpt lat="43.3986169" lon="-4.6960652"><ele>29.25</ele><time>2026-05-02T08:22:20.943Z</time></trkpt><trkpt lat="43.3985541" lon="-4.6958652"><ele>30.0</ele><time>2026-05-02T08:22:21.942Z</time></trkpt><trkpt lat="43.3984839" lon="-4.6956768"><ele>30.0</ele><time>2026-05-02T08:22:22.947Z</time></trkpt><trkpt lat="43.3984008" lon="-4.6955016"><ele>30.0</ele><time>2026-05-02T08:22:23.941Z</time></trkpt><trkpt lat="43.3983073" lon="-4.6953354"><ele>30.0</ele><time>2026-05-02T08:22:24.945Z</time></trkpt><trkpt lat="43.3982136" lon="-4.6951806"><ele>29.0</ele><time>2026-05-02T08:22:25.946Z</time></trkpt><trkpt lat="43.3981184" lon="-4.6950301"><ele>28.0</ele><time>2026-05-02T08:22:26.937Z</time></trkpt><trkpt lat="43.3980011" lon="-4.6948887"><ele>27.0</ele><time>2026-05-02T08:22:27.942Z</time></trkpt><trkpt lat="43.3978902" lon="-4.6947579"><ele>26.0</ele><time>2026-05-02T08:22:28.947Z</time></trkpt><trkpt lat="43.3977795" lon="-4.6946121"><ele>28.5</ele><time>2026-05-02T08:22:29.957Z</time></trkpt><trkpt lat="43.3976787" lon="-4.6944739"><ele>31.0</ele><time>2026-05-02T08:22:30.946Z</time></trkpt><trkpt lat="43.3975875" lon="-4.6943318"><ele>33.5</ele><time>2026-05-02T08:22:31.951Z</time></trkpt><trkpt lat="43.397492" lon="-4.6941981"><ele>36.0</ele><time>2026-05-02T08:22:32.965Z</time></trkpt><trkpt lat="43.397402" lon="-4.6940584"><ele>36.0</ele><time>2026-05-02T08:22:33.955Z</time></trkpt><trkpt lat="43.397323" lon="-4.693897"><ele>36.0</ele><time>2026-05-02T08:22:34.954Z</time></trkpt><trkpt lat="43.3972408" lon="-4.6937376"><ele>36.0</ele><time>2026-05-02T08:22:35.957Z</time></trkpt><trkpt lat="43.3971609" lon="-4.6935649"><ele>36.0</ele><time>2026-05-02T08:22:36.956Z</time></trkpt><trkpt lat="43.3970888" lon="-4.6933796"><ele>38.25</ele><time>2026-05-02T08:22:37.962Z</time></trkpt><trkpt lat="43.3970262" lon="-4.693207"><ele>40.5</ele><time>2026-05-02T08:22:38.955Z</time></trkpt><trkpt lat="43.3969693" lon="-4.6930253"><ele>42.75</ele><time>2026-05-02T08:22:39.948Z</time></trkpt><trkpt lat="43.3969255" lon="-4.6928343"><ele>45.0</ele><time>2026-05-02T08:22:40.952Z</time></trkpt><trkpt lat="43.3968949" lon="-4.6926533"><ele>45.0</ele><time>2026-05-02T08:22:41.952Z</time></trkpt><trkpt lat="43.3968693" lon="-4.692476"><ele>45.0</ele><time>2026-05-02T08:22:42.952Z</time></trkpt><trkpt lat="43.3968535" lon="-4.6923019"><ele>45.0</ele><time>2026-05-02T08:22:43.951Z</time></trkpt><trkpt lat="43.3968451" lon="-4.6921205"><ele>45.0</ele><time>2026-05-02T08:22:44.94Z</time></trkpt><trkpt lat="43.3968363" lon="-4.6919364"><ele>45.5</ele><time>2026-05-02T08:22:45.959Z</time></trkpt><trkpt lat="43.3968333" lon="-4.691763"><ele>46.0</ele><time>2026-05-02T08:22:46.952Z</time></trkpt><trkpt lat="43.3968381" lon="-4.691575"><ele>46.5</ele><time>2026-05-02T08:22:47.949Z</time></trkpt><trkpt lat="43.3968528" lon="-4.6913957"><ele>47.0</ele><time>2026-05-02T08:22:48.948Z</time></trkpt><trkpt lat="43.3968695" lon="-4.6912102"><ele>46.75</ele><time>2026-05-02T08:22:49.949Z</time></trkpt><trkpt lat="43.3968895" lon="-4.6910264"><ele>46.5</ele><time>2026-05-02T08:22:50.947Z</time></trkpt><trkpt lat="43.3969144" lon="-4.6908546"><ele>46.25</ele><time>2026-05-02T08:22:51.955Z</time></trkpt><trkpt lat="43.3969423" lon="-4.6906826"><ele>46.0</ele><time>2026-05-02T08:22:52.964Z</time></trkpt><trkpt lat="43.3969673" lon="-4.6905097"><ele>46.0</ele><time>2026-05-02T08:22:53.956Z</time></trkpt><trkpt lat="43.3969933" lon="-4.6903396"><ele>46.0</ele><time>2026-05-02T08:22:54.956Z</time></trkpt><trkpt lat="43.3970171" lon="-4.6901661"><ele>46.0</ele><time>2026-05-02T08:22:55.963Z</time></trkpt><trkpt lat="43.3970462" lon="-4.6899934"><ele>46.0</ele><time>2026-05-02T08:22:56.964Z</time></trkpt><trkpt lat="43.3970767" lon="-4.6898216"><ele>46.5</ele><time>2026-05-02T08:22:57.967Z</time></trkpt><trkpt lat="43.3971079" lon="-4.6896479"><ele>47.0</ele><time>2026-05-02T08:22:58.965Z</time></trkpt><trkpt lat="43.3971372" lon="-4.6894683"><ele>47.5</ele><time>2026-05-02T08:22:59.968Z</time></trkpt><trkpt lat="43.3971648" lon="-4.6892829"><ele>48.0</ele><time>2026-05-02T08:23:00.966Z</time></trkpt><trkpt lat="43.3971991" lon="-4.689091"><ele>45.5</ele><time>2026-05-02T08:23:01.965Z</time></trkpt><trkpt lat="43.3972272" lon="-4.6888978"><ele>43.0</ele><time>2026-05-02T08:23:02.957Z</time></trkpt><trkpt lat="43.3972544" lon="-4.6886956"><ele>40.5</ele><time>2026-05-02T08:23:03.984Z</time></trkpt><trkpt lat="43.3972702" lon="-4.6884991"><ele>38.0</ele><time>2026-05-02T08:23:04.96Z</time></trkpt><trkpt lat="43.3972846" lon="-4.688296"><ele>37.75</ele><time>2026-05-02T08:23:05.96Z</time></trkpt><trkpt lat="43.3973005" lon="-4.6881044"><ele>37.5</ele><time>2026-05-02T08:23:06.961Z</time></trkpt><trkpt lat="43.397311" lon="-4.6878962"><ele>37.25</ele><time>2026-05-02T08:23:07.963Z</time></trkpt><trkpt lat="43.3973243" lon="-4.6876891"><ele>37.0</ele><time>2026-05-02T08:23:08.967Z</time></trkpt><trkpt lat="43.3973259" lon="-4.6874742"><ele>38.66666666666667</ele><time>2026-05-02T08:23:09.961Z</time></trkpt><trkpt lat="43.3973311" lon="-4.6872623"><ele>40.333333333333336</ele><time>2026-05-02T08:23:10.96Z</time></trkpt><trkpt lat="43.3973329" lon="-4.6870442"><ele>42.0</ele><time>2026-05-02T08:23:11.963Z</time></trkpt><trkpt lat="43.3973265" lon="-4.6868276"><ele>43.0</ele><time>2026-05-02T08:23:12.965Z</time></trkpt><trkpt lat="43.3973293" lon="-4.6866088"><ele>44.0</ele><time>2026-05-02T08:23:13.968Z</time></trkpt><trkpt lat="43.3973215" lon="-4.686392"><ele>45.0</ele><time>2026-05-02T08:23:14.966Z</time></trkpt><trkpt lat="43.3973119" lon="-4.6861649"><ele>43.333333333333336</ele><time>2026-05-02T08:23:15.967Z</time></trkpt><trkpt lat="43.3972993" lon="-4.6859488"><ele>41.66666666666667</ele><time>2026-05-02T08:23:16.965Z</time></trkpt><trkpt lat="43.3972783" lon="-4.6857316"><ele>40.0</ele><time>2026-05-02T08:23:17.966Z</time></trkpt><trkpt lat="43.3972512" lon="-4.6855119"><ele>40.0</ele><time>2026-05-02T08:23:18.96Z</time></trkpt><trkpt lat="43.3972286" lon="-4.6852928"><ele>40.0</ele><time>2026-05-02T08:23:19.963Z</time></trkpt><trkpt lat="43.3972107" lon="-4.6850734"><ele>40.0</ele><time>2026-05-02T08:23:20.965Z</time></trkpt><trkpt lat="43.397184" lon="-4.6848605"><ele>40.333333333333336</ele><time>2026-05-02T08:23:21.962Z</time></trkpt><trkpt lat="43.3971582" lon="-4.6846451"><ele>40.666666666666664</ele><time>2026-05-02T08:23:22.974Z</time></trkpt><trkpt lat="43.3971286" lon="-4.6844272"><ele>41.0</ele><time>2026-05-02T08:23:23.971Z</time></trkpt><trkpt lat="43.3971032" lon="-4.6842191"><ele>41.33333333333333</ele><time>2026-05-02T08:23:24.973Z</time></trkpt><trkpt lat="43.3970781" lon="-4.6840203"><ele>41.666666666666664</ele><time>2026-05-02T08:23:25.972Z</time></trkpt><trkpt lat="43.3970496" lon="-4.6838059"><ele>42.0</ele><time>2026-05-02T08:23:26.967Z</time></trkpt><trkpt lat="43.3970203" lon="-4.6835893"><ele>42.0</ele><time>2026-05-02T08:23:27.969Z</time></trkpt><trkpt lat="43.3969867" lon="-4.6833763"><ele>42.0</ele><time>2026-05-02T08:23:28.968Z</time></trkpt><trkpt lat="43.3969605" lon="-4.6831693"><ele>42.0</ele><time>2026-05-02T08:23:29.972Z</time></trkpt><trkpt lat="43.3969362" lon="-4.6829615"><ele>41.666666666666664</ele><time>2026-05-02T08:23:30.967Z</time></trkpt><trkpt lat="43.3969125" lon="-4.6827594"><ele>41.33333333333333</ele><time>2026-05-02T08:23:31.964Z</time></trkpt><trkpt lat="43.3968862" lon="-4.6825482"><ele>41.0</ele><time>2026-05-02T08:23:32.965Z</time></trkpt><trkpt lat="43.3968628" lon="-4.6823458"><ele>41.0</ele><time>2026-05-02T08:23:33.978Z</time></trkpt><trkpt lat="43.39684" lon="-4.6821445"><ele>41.0</ele><time>2026-05-02T08:23:34.962Z</time></trkpt><trkpt lat="43.3968137" lon="-4.6819442"><ele>41.0</ele><time>2026-05-02T08:23:35.96Z</time></trkpt><trkpt lat="43.3967844" lon="-4.681736"><ele>40.666666666666664</ele><time>2026-05-02T08:23:36.963Z</time></trkpt><trkpt lat="43.3967567" lon="-4.6815337"><ele>40.333333333333336</ele><time>2026-05-02T08:23:37.974Z</time></trkpt><trkpt lat="43.3967331" lon="-4.6813302"><ele>40.0</ele><time>2026-05-02T08:23:38.967Z</time></trkpt><trkpt lat="43.3967158" lon="-4.681122"><ele>40.0</ele><time>2026-05-02T08:23:39.965Z</time></trkpt><trkpt lat="43.3967045" lon="-4.6809114"><ele>40.0</ele><time>2026-05-02T08:23:40.961Z</time></trkpt><trkpt lat="43.3966892" lon="-4.6806862"><ele>40.0</ele><time>2026-05-02T08:23:41.966Z</time></trkpt><trkpt lat="43.3966756" lon="-4.6804762"><ele>39.333333333333336</ele><time>2026-05-02T08:23:42.963Z</time></trkpt><trkpt lat="43.3966563" lon="-4.680261"><ele>38.666666666666664</ele><time>2026-05-02T08:23:43.96Z</time></trkpt><trkpt lat="43.396627" lon="-4.68006"><ele>38.0</ele><time>2026-05-02T08:23:44.963Z</time></trkpt><trkpt lat="43.3966043" lon="-4.679842"><ele>38.0</ele><time>2026-05-02T08:23:45.96Z</time></trkpt><trkpt lat="43.3965726" lon="-4.6796356"><ele>38.0</ele><time>2026-05-02T08:23:46.955Z</time></trkpt><trkpt lat="43.3965454" lon="-4.6794276"><ele>38.0</ele><time>2026-05-02T08:23:47.961Z</time></trkpt><trkpt lat="43.3965272" lon="-4.6792129"><ele>38.0</ele><time>2026-05-02T08:23:48.962Z</time></trkpt><trkpt lat="43.3965023" lon="-4.6790004"><ele>38.0</ele><time>2026-05-02T08:23:49.965Z</time></trkpt><trkpt lat="43.3964761" lon="-4.6787864"><ele>38.0</ele><time>2026-05-02T08:23:50.966Z</time></trkpt><trkpt lat="43.396446" lon="-4.6785696"><ele>37.33333333333333</ele><time>2026-05-02T08:23:51.965Z</time></trkpt><trkpt lat="43.3964172" lon="-4.6783628"><ele>36.666666666666664</ele><time>2026-05-02T08:23:52.983Z</time></trkpt><trkpt lat="43.3963871" lon="-4.6781545"><ele>36.0</ele><time>2026-05-02T08:23:53.968Z</time></trkpt><trkpt lat="43.3963711" lon="-4.6779471"><ele>35.333333333333336</ele><time>2026-05-02T08:23:54.968Z</time></trkpt><trkpt lat="43.3963482" lon="-4.6777365"><ele>34.66666666666667</ele><time>2026-05-02T08:23:55.967Z</time></trkpt><trkpt lat="43.3963236" lon="-4.6775282"><ele>34.0</ele><time>2026-05-02T08:23:56.969Z</time></trkpt><trkpt lat="43.3962981" lon="-4.677322"><ele>35.5</ele><time>2026-05-02T08:23:57.968Z</time></trkpt><trkpt lat="43.396271" lon="-4.6771193"><ele>37.0</ele><time>2026-05-02T08:23:58.967Z</time></trkpt><trkpt lat="43.3962375" lon="-4.6769194"><ele>38.5</ele><time>2026-05-02T08:23:59.967Z</time></trkpt><trkpt lat="43.3962132" lon="-4.6767217"><ele>40.0</ele><time>2026-05-02T08:24:00.964Z</time></trkpt><trkpt lat="43.3961855" lon="-4.6765262"><ele>40.0</ele><time>2026-05-02T08:24:01.96Z</time></trkpt><trkpt lat="43.3961702" lon="-4.6763316"><ele>40.0</ele><time>2026-05-02T08:24:02.96Z</time></trkpt><trkpt lat="43.3961633" lon="-4.6761372"><ele>40.0</ele><time>2026-05-02T08:24:03.956Z</time></trkpt><trkpt lat="43.3961723" lon="-4.6759443"><ele>40.0</ele><time>2026-05-02T08:24:04.969Z</time></trkpt><trkpt lat="43.3961994" lon="-4.6757474"><ele>40.25</ele><time>2026-05-02T08:24:05.958Z</time></trkpt><trkpt lat="43.396227" lon="-4.6755509"><ele>40.5</ele><time>2026-05-02T08:24:06.956Z</time></trkpt><trkpt lat="43.3962614" lon="-4.6753595"><ele>40.75</ele><time>2026-05-02T08:24:07.956Z</time></trkpt><trkpt lat="43.3962937" lon="-4.6751654"><ele>41.0</ele><time>2026-05-02T08:24:08.961Z</time></trkpt><trkpt lat="43.3963128" lon="-4.6749705"><ele>40.75</ele><time>2026-05-02T08:24:09.96Z</time></trkpt><trkpt lat="43.3963262" lon="-4.6747785"><ele>40.5</ele><time>2026-05-02T08:24:10.96Z</time></trkpt><trkpt lat="43.3963398" lon="-4.6745705"><ele>40.25</ele><time>2026-05-02T08:24:11.96Z</time></trkpt><trkpt lat="43.3963427" lon="-4.6743643"><ele>40.0</ele><time>2026-05-02T08:24:12.959Z</time></trkpt><trkpt lat="43.3963291" lon="-4.6741571"><ele>40.25</ele><time>2026-05-02T08:24:13.957Z</time></trkpt><trkpt lat="43.3963069" lon="-4.6739544"><ele>40.5</ele><time>2026-05-02T08:24:14.958Z</time></trkpt><trkpt lat="43.3962763" lon="-4.673752"><ele>40.75</ele><time>2026-05-02T08:24:15.958Z</time></trkpt><trkpt lat="43.3962485" lon="-4.673549"><ele>41.0</ele><time>2026-05-02T08:24:16.961Z</time></trkpt><trkpt lat="43.3962222" lon="-4.6733613"><ele>41.0</ele><time>2026-05-02T08:24:17.963Z</time></trkpt><trkpt lat="43.3961866" lon="-4.6731763"><ele>41.0</ele><time>2026-05-02T08:24:18.963Z</time></trkpt><trkpt lat="43.3961468" lon="-4.672987"><ele>41.0</ele><time>2026-05-02T08:24:19.96Z</time></trkpt><trkpt lat="43.3961212" lon="-4.6727917"><ele>41.0</ele><time>2026-05-02T08:24:20.968Z</time></trkpt><trkpt lat="43.3961023" lon="-4.6725989"><ele>41.0</ele><time>2026-05-02T08:24:21.966Z</time></trkpt><trkpt lat="43.396092" lon="-4.6724115"><ele>41.0</ele><time>2026-05-02T08:24:22.972Z</time></trkpt><trkpt lat="43.3960898" lon="-4.6722086"><ele>41.0</ele><time>2026-05-02T08:24:23.965Z</time></trkpt><trkpt lat="43.3960947" lon="-4.6720076"><ele>41.0</ele><time>2026-05-02T08:24:24.959Z</time></trkpt><trkpt lat="43.3961119" lon="-4.6718027"><ele>41.0</ele><time>2026-05-02T08:24:25.961Z</time></trkpt><trkpt lat="43.3961443" lon="-4.6716077"><ele>41.0</ele><time>2026-05-02T08:24:26.957Z</time></trkpt><trkpt lat="43.3961804" lon="-4.6714189"><ele>41.0</ele><time>2026-05-02T08:24:27.961Z</time></trkpt><trkpt lat="43.3962095" lon="-4.6712148"><ele>41.0</ele><time>2026-05-02T08:24:28.948Z</time></trkpt><trkpt lat="43.3962367" lon="-4.6710086"><ele>41.75</ele><time>2026-05-02T08:24:29.952Z</time></trkpt><trkpt lat="43.3962551" lon="-4.6708102"><ele>42.5</ele><time>2026-05-02T08:24:30.955Z</time></trkpt><trkpt lat="43.3962815" lon="-4.6706151"><ele>43.25</ele><time>2026-05-02T08:24:31.954Z</time></trkpt><trkpt lat="43.3963053" lon="-4.670419"><ele>44.0</ele><time>2026-05-02T08:24:32.952Z</time></trkpt><trkpt lat="43.3963292" lon="-4.6702327"><ele>42.25</ele><time>2026-05-02T08:24:33.953Z</time></trkpt><trkpt lat="43.3963543" lon="-4.6700403"><ele>40.5</ele><time>2026-05-02T08:24:34.952Z</time></trkpt><trkpt lat="43.3963789" lon="-4.6698448"><ele>38.75</ele><time>2026-05-02T08:24:35.977Z</time></trkpt><trkpt lat="43.3963939" lon="-4.6696512"><ele>37.0</ele><time>2026-05-02T08:24:36.958Z</time></trkpt><trkpt lat="43.3963956" lon="-4.6694562"><ele>37.25</ele><time>2026-05-02T08:24:37.959Z</time></trkpt><trkpt lat="43.3963965" lon="-4.6692651"><ele>37.5</ele><time>2026-05-02T08:24:38.956Z</time></trkpt><trkpt lat="43.3963908" lon="-4.669048"><ele>37.75</ele><time>2026-05-02T08:24:39.958Z</time></trkpt><trkpt lat="43.3963884" lon="-4.6688452"><ele>38.0</ele><time>2026-05-02T08:24:40.95Z</time></trkpt><trkpt lat="43.3963773" lon="-4.6686448"><ele>38.5</ele><time>2026-05-02T08:24:41.958Z</time></trkpt><trkpt lat="43.3963675" lon="-4.668452"><ele>39.0</ele><time>2026-05-02T08:24:42.957Z</time></trkpt><trkpt lat="43.3963554" lon="-4.6682589"><ele>39.5</ele><time>2026-05-02T08:24:43.959Z</time></trkpt><trkpt lat="43.3963393" lon="-4.6680682"><ele>40.0</ele><time>2026-05-02T08:24:44.957Z</time></trkpt><trkpt lat="43.3963319" lon="-4.6678822"><ele>42.25</ele><time>2026-05-02T08:24:45.959Z</time></trkpt><trkpt lat="43.3963162" lon="-4.667699"><ele>44.5</ele><time>2026-05-02T08:24:46.965Z</time></trkpt><trkpt lat="43.3962998" lon="-4.6675223"><ele>46.75</ele><time>2026-05-02T08:24:47.963Z</time></trkpt><trkpt lat="43.3962804" lon="-4.6673318"><ele>49.0</ele><time>2026-05-02T08:24:48.963Z</time></trkpt><trkpt lat="43.3962447" lon="-4.6671478"><ele>49.0</ele><time>2026-05-02T08:24:49.965Z</time></trkpt><trkpt lat="43.3962024" lon="-4.6669664"><ele>49.0</ele><time>2026-05-02T08:24:50.967Z</time></trkpt><trkpt lat="43.3961521" lon="-4.6667896"><ele>49.0</ele><time>2026-05-02T08:24:51.969Z</time></trkpt><trkpt lat="43.3960989" lon="-4.6666209"><ele>49.0</ele><time>2026-05-02T08:24:52.975Z</time></trkpt><trkpt lat="43.3960382" lon="-4.6664591"><ele>49.0</ele><time>2026-05-02T08:24:53.967Z</time></trkpt><trkpt lat="43.3959759" lon="-4.6663094"><ele>49.0</ele><time>2026-05-02T08:24:54.968Z</time></trkpt><trkpt lat="43.3959358" lon="-4.6661632"><ele>49.0</ele><time>2026-05-02T08:24:55.963Z</time></trkpt><trkpt lat="43.395896" lon="-4.6660077"><ele>49.0</ele><time>2026-05-02T08:24:56.964Z</time></trkpt><trkpt lat="43.3958466" lon="-4.6658498"><ele>50.0</ele><time>2026-05-02T08:24:57.959Z</time></trkpt><trkpt lat="43.3957912" lon="-4.6657009"><ele>51.0</ele><time>2026-05-02T08:24:58.962Z</time></trkpt><trkpt lat="43.3957352" lon="-4.6655411"><ele>52.0</ele><time>2026-05-02T08:24:59.967Z</time></trkpt><trkpt lat="43.3956833" lon="-4.6653848"><ele>53.0</ele><time>2026-05-02T08:25:00.964Z</time></trkpt><trkpt lat="43.3956395" lon="-4.6652385"><ele>53.5</ele><time>2026-05-02T08:25:01.958Z</time></trkpt><trkpt lat="43.395597" lon="-4.6650894"><ele>54.0</ele><time>2026-05-02T08:25:02.958Z</time></trkpt><trkpt lat="43.3955567" lon="-4.6649467"><ele>54.5</ele><time>2026-05-02T08:25:03.957Z</time></trkpt><trkpt lat="43.3955193" lon="-4.664794"><ele>55.0</ele><time>2026-05-02T08:25:04.953Z</time></trkpt><trkpt lat="43.3954836" lon="-4.6646522"><ele>57.2</ele><time>2026-05-02T08:25:05.956Z</time></trkpt><trkpt lat="43.3954556" lon="-4.6645065"><ele>59.4</ele><time>2026-05-02T08:25:06.97Z</time></trkpt><trkpt lat="43.3954372" lon="-4.6643522"><ele>61.599999999999994</ele><time>2026-05-02T08:25:07.955Z</time></trkpt><trkpt lat="43.3954256" lon="-4.6641982"><ele>63.8</ele><time>2026-05-02T08:25:08.961Z</time></trkpt><trkpt lat="43.3954187" lon="-4.6640438"><ele>66.0</ele><time>2026-05-02T08:25:09.961Z</time></trkpt><trkpt lat="43.3954143" lon="-4.6638822"><ele>66.25</ele><time>2026-05-02T08:25:10.965Z</time></trkpt><trkpt lat="43.3954138" lon="-4.6637169"><ele>66.5</ele><time>2026-05-02T08:25:11.964Z</time></trkpt><trkpt lat="43.3954143" lon="-4.6635502"><ele>66.75</ele><time>2026-05-02T08:25:12.966Z</time></trkpt><trkpt lat="43.3954069" lon="-4.6633731"><ele>67.0</ele><time>2026-05-02T08:25:13.965Z</time></trkpt><trkpt lat="43.3954065" lon="-4.6631912"><ele>66.25</ele><time>2026-05-02T08:25:14.964Z</time></trkpt><trkpt lat="43.3954045" lon="-4.6630107"><ele>65.5</ele><time>2026-05-02T08:25:15.964Z</time></trkpt><trkpt lat="43.3954066" lon="-4.6628266"><ele>64.75</ele><time>2026-05-02T08:25:16.964Z</time></trkpt><trkpt lat="43.3954109" lon="-4.6626402"><ele>64.0</ele><time>2026-05-02T08:25:17.964Z</time></trkpt><trkpt lat="43.3954137" lon="-4.6624541"><ele>64.0</ele><time>2026-05-02T08:25:18.963Z</time></trkpt><trkpt lat="43.3954115" lon="-4.6622653"><ele>64.0</ele><time>2026-05-02T08:25:19.967Z</time></trkpt><trkpt lat="43.3954128" lon="-4.6620737"><ele>64.0</ele><time>2026-05-02T08:25:20.966Z</time></trkpt><trkpt lat="43.395409" lon="-4.661879"><ele>64.0</ele><time>2026-05-02T08:25:21.964Z</time></trkpt><trkpt lat="43.3954067" lon="-4.6616785"><ele>64.0</ele><time>2026-05-02T08:25:22.97Z</time></trkpt><trkpt lat="43.3954105" lon="-4.6614927"><ele>64.0</ele><time>2026-05-02T08:25:23.963Z</time></trkpt><trkpt lat="43.395417" lon="-4.6612995"><ele>64.0</ele><time>2026-05-02T08:25:24.961Z</time></trkpt><trkpt lat="43.3954236" lon="-4.6611012"><ele>64.0</ele><time>2026-05-02T08:25:25.961Z</time></trkpt><trkpt lat="43.3954343" lon="-4.6609096"><ele>64.0</ele><time>2026-05-02T08:25:26.959Z</time></trkpt><trkpt lat="43.3954345" lon="-4.6607011"><ele>64.0</ele><time>2026-05-02T08:25:27.959Z</time></trkpt><trkpt lat="43.3954263" lon="-4.6604896"><ele>64.0</ele><time>2026-05-02T08:25:28.956Z</time></trkpt><trkpt lat="43.395413" lon="-4.6602819"><ele>63.75</ele><time>2026-05-02T08:25:29.962Z</time></trkpt><trkpt lat="43.3954013" lon="-4.6600885"><ele>63.5</ele><time>2026-05-02T08:25:30.96Z</time></trkpt><trkpt lat="43.3953943" lon="-4.6598781"><ele>63.25</ele><time>2026-05-02T08:25:31.96Z</time></trkpt><trkpt lat="43.3953959" lon="-4.6596723"><ele>63.0</ele><time>2026-05-02T08:25:32.96Z</time></trkpt><trkpt lat="43.3954022" lon="-4.6594603"><ele>61.66666666666667</ele><time>2026-05-02T08:25:33.962Z</time></trkpt><trkpt lat="43.3954047" lon="-4.6592501"><ele>60.333333333333336</ele><time>2026-05-02T08:25:34.964Z</time></trkpt><trkpt lat="43.3954153" lon="-4.6590463"><ele>59.0</ele><time>2026-05-02T08:25:35.962Z</time></trkpt><trkpt lat="43.3954267" lon="-4.6588318"><ele>59.0</ele><time>2026-05-02T08:25:36.961Z</time></trkpt><trkpt lat="43.3954462" lon="-4.6586339"><ele>59.0</ele><time>2026-05-02T08:25:37.975Z</time></trkpt><trkpt lat="43.3954637" lon="-4.6584265"><ele>59.0</ele><time>2026-05-02T08:25:38.961Z</time></trkpt><trkpt lat="43.3954837" lon="-4.6582238"><ele>59.0</ele><time>2026-05-02T08:25:39.962Z</time></trkpt><trkpt lat="43.3955036" lon="-4.6580241"><ele>57.25</ele><time>2026-05-02T08:25:40.962Z</time></trkpt><trkpt lat="43.3955272" lon="-4.6578171"><ele>55.5</ele><time>2026-05-02T08:25:41.957Z</time></trkpt><trkpt lat="43.3955552" lon="-4.6576161"><ele>53.75</ele><time>2026-05-02T08:25:42.956Z</time></trkpt><trkpt lat="43.3955805" lon="-4.657417"><ele>52.0</ele><time>2026-05-02T08:25:43.948Z</time></trkpt><trkpt lat="43.3955946" lon="-4.657228"><ele>52.0</ele><time>2026-05-02T08:25:44.948Z</time></trkpt><trkpt lat="43.3956155" lon="-4.6570759"><ele>52.0</ele><time>2026-05-02T08:25:45.948Z</time></trkpt><trkpt lat="43.3956298" lon="-4.6569421"><ele>52.0</ele><time>2026-05-02T08:25:46.948Z</time></trkpt><trkpt lat="43.3956358" lon="-4.6568126"><ele>52.0</ele><time>2026-05-02T08:25:47.945Z</time></trkpt><trkpt lat="43.3956383" lon="-4.6566873"><ele>52.0</ele><time>2026-05-02T08:25:48.946Z</time></trkpt><trkpt lat="43.3956257" lon="-4.6565567"><ele>52.6</ele><time>2026-05-02T08:25:49.951Z</time></trkpt><trkpt lat="43.3955924" lon="-4.6564264"><ele>53.2</ele><time>2026-05-02T08:25:50.948Z</time></trkpt><trkpt lat="43.3955616" lon="-4.6563078"><ele>53.8</ele><time>2026-05-02T08:25:51.947Z</time></trkpt><trkpt lat="43.3955529" lon="-4.6561991"><ele>54.4</ele><time>2026-05-02T08:25:52.956Z</time></trkpt><trkpt lat="43.3955556" lon="-4.6561"><ele>55.0</ele><time>2026-05-02T08:25:53.948Z</time></trkpt><trkpt lat="43.3955937" lon="-4.6559597"><ele>55.4</ele><time>2026-05-02T08:25:55.951Z</time></trkpt><trkpt lat="43.3956924" lon="-4.6558414"><ele>55.8</ele><time>2026-05-02T08:25:57.945Z</time></trkpt><trkpt lat="43.3957548" lon="-4.6557761"><ele>56.2</ele><time>2026-05-02T08:25:58.959Z</time></trkpt><trkpt lat="43.3958175" lon="-4.6556933"><ele>56.6</ele><time>2026-05-02T08:25:59.957Z</time></trkpt><trkpt lat="43.3958686" lon="-4.6555745"><ele>57.0</ele><time>2026-05-02T08:26:00.954Z</time></trkpt><trkpt lat="43.395909" lon="-4.6554359"><ele>56.5</ele><time>2026-05-02T08:26:01.948Z</time></trkpt><trkpt lat="43.3959432" lon="-4.6552744"><ele>56.0</ele><time>2026-05-02T08:26:02.948Z</time></trkpt><trkpt lat="43.3959722" lon="-4.655104"><ele>55.5</ele><time>2026-05-02T08:26:03.951Z</time></trkpt><trkpt lat="43.3959957" lon="-4.6549251"><ele>55.0</ele><time>2026-05-02T08:26:04.953Z</time></trkpt><trkpt lat="43.3960104" lon="-4.6547386"><ele>55.0</ele><time>2026-05-02T08:26:05.963Z</time></trkpt><trkpt lat="43.3960275" lon="-4.654542"><ele>55.0</ele><time>2026-05-02T08:26:06.96Z</time></trkpt><trkpt lat="43.3960478" lon="-4.6543407"><ele>55.0</ele><time>2026-05-02T08:26:07.963Z</time></trkpt><trkpt lat="43.3960696" lon="-4.65413"><ele>55.0</ele><time>2026-05-02T08:26:08.975Z</time></trkpt><trkpt lat="43.3960943" lon="-4.6539095"><ele>53.33333333333333</ele><time>2026-05-02T08:26:09.954Z</time></trkpt><trkpt lat="43.3961153" lon="-4.6536993"><ele>51.66666666666667</ele><time>2026-05-02T08:26:10.95Z</time></trkpt><trkpt lat="43.3961397" lon="-4.6534847"><ele>50.0</ele><time>2026-05-02T08:26:11.954Z</time></trkpt><trkpt lat="43.3961587" lon="-4.653282"><ele>50.00000000000001</ele><time>2026-05-02T08:26:12.95Z</time></trkpt><trkpt lat="43.3961732" lon="-4.6531174"><ele>50.0</ele><time>2026-05-02T08:26:13.953Z</time></trkpt><trkpt lat="43.3961775" lon="-4.6529923"><ele>50.0</ele><time>2026-05-02T08:26:14.955Z</time></trkpt><trkpt lat="43.396178" lon="-4.6528786"><ele>50.0</ele><time>2026-05-02T08:26:15.953Z</time></trkpt><trkpt lat="43.3961737" lon="-4.6527706"><ele>50.00000000000001</ele><time>2026-05-02T08:26:16.958Z</time></trkpt><trkpt lat="43.3961727" lon="-4.6526832"><ele>50.0</ele><time>2026-05-02T08:26:17.958Z</time></trkpt><trkpt lat="43.3961854" lon="-4.6525964"><ele>49.66666666666667</ele><time>2026-05-02T08:26:18.96Z</time></trkpt><trkpt lat="43.3962134" lon="-4.6525104"><ele>49.333333333333336</ele><time>2026-05-02T08:26:19.96Z</time></trkpt><trkpt lat="43.3962497" lon="-4.6524263"><ele>49.0</ele><time>2026-05-02T08:26:20.966Z</time></trkpt><trkpt lat="43.3962844" lon="-4.6523356"><ele>48.66666666666667</ele><time>2026-05-02T08:26:21.966Z</time></trkpt><trkpt lat="43.3963093" lon="-4.6522349"><ele>48.333333333333336</ele><time>2026-05-02T08:26:22.97Z</time></trkpt><trkpt lat="43.3963191" lon="-4.6521204"><ele>48.0</ele><time>2026-05-02T08:26:23.962Z</time></trkpt><trkpt lat="43.3963083" lon="-4.6519962"><ele>48.4</ele><time>2026-05-02T08:26:24.958Z</time></trkpt><trkpt lat="43.3962807" lon="-4.6518712"><ele>48.8</ele><time>2026-05-02T08:26:25.954Z</time></trkpt><trkpt lat="43.3962349" lon="-4.6517432"><ele>49.2</ele><time>2026-05-02T08:26:26.954Z</time></trkpt><trkpt lat="43.3961782" lon="-4.6516162"><ele>49.6</ele><time>2026-05-02T08:26:27.96Z</time></trkpt><trkpt lat="43.3961126" lon="-4.6514926"><ele>50.0</ele><time>2026-05-02T08:26:28.955Z</time></trkpt><trkpt lat="43.3960387" lon="-4.6513616"><ele>50.0</ele><time>2026-05-02T08:26:29.963Z</time></trkpt><trkpt lat="43.3959662" lon="-4.6512301"><ele>50.0</ele><time>2026-05-02T08:26:30.965Z</time></trkpt><trkpt lat="43.3958907" lon="-4.6510883"><ele>50.0</ele><time>2026-05-02T08:26:31.963Z</time></trkpt><trkpt lat="43.3958142" lon="-4.6509441"><ele>50.0</ele><time>2026-05-02T08:26:32.96Z</time></trkpt><trkpt lat="43.3957373" lon="-4.6507846"><ele>49.0</ele><time>2026-05-02T08:26:33.962Z</time></trkpt><trkpt lat="43.3956595" lon="-4.6506217"><ele>48.0</ele><time>2026-05-02T08:26:34.957Z</time></trkpt><trkpt lat="43.395582" lon="-4.6504543"><ele>47.0</ele><time>2026-05-02T08:26:35.958Z</time></trkpt><trkpt lat="43.3955069" lon="-4.6502791"><ele>46.0</ele><time>2026-05-02T08:26:36.965Z</time></trkpt><trkpt lat="43.3954358" lon="-4.6500964"><ele>46.0</ele><time>2026-05-02T08:26:37.962Z</time></trkpt><trkpt lat="43.3953681" lon="-4.6499241"><ele>46.0</ele><time>2026-05-02T08:26:38.957Z</time></trkpt><trkpt lat="43.3953048" lon="-4.6497511"><ele>46.0</ele><time>2026-05-02T08:26:39.973Z</time></trkpt><trkpt lat="43.3952372" lon="-4.6495767"><ele>46.0</ele><time>2026-05-02T08:26:40.964Z</time></trkpt><trkpt lat="43.3951667" lon="-4.6494067"><ele>46.0</ele><time>2026-05-02T08:26:41.958Z</time></trkpt><trkpt lat="43.3950992" lon="-4.6492244"><ele>46.0</ele><time>2026-05-02T08:26:42.955Z</time></trkpt><trkpt lat="43.3950404" lon="-4.6490551"><ele>46.0</ele><time>2026-05-02T08:26:43.96Z</time></trkpt><trkpt lat="43.3949755" lon="-4.648888"><ele>46.0</ele><time>2026-05-02T08:26:44.961Z</time></trkpt><trkpt lat="43.3949107" lon="-4.6487118"><ele>45.25</ele><time>2026-05-02T08:26:45.959Z</time></trkpt><trkpt lat="43.3948468" lon="-4.6485311"><ele>44.5</ele><time>2026-05-02T08:26:46.961Z</time></trkpt><trkpt lat="43.3947893" lon="-4.6483546"><ele>43.75</ele><time>2026-05-02T08:26:47.955Z</time></trkpt><trkpt lat="43.3947298" lon="-4.6481766"><ele>43.0</ele><time>2026-05-02T08:26:48.952Z</time></trkpt><trkpt lat="43.3946658" lon="-4.6480009"><ele>44.75</ele><time>2026-05-02T08:26:49.955Z</time></trkpt><trkpt lat="43.3946124" lon="-4.6478245"><ele>46.5</ele><time>2026-05-02T08:26:50.954Z</time></trkpt><trkpt lat="43.3945659" lon="-4.647645"><ele>48.25</ele><time>2026-05-02T08:26:51.953Z</time></trkpt><trkpt lat="43.394519" lon="-4.6474594"><ele>50.0</ele><time>2026-05-02T08:26:52.962Z</time></trkpt><trkpt lat="43.3944753" lon="-4.647291"><ele>50.75</ele><time>2026-05-02T08:26:53.958Z</time></trkpt><trkpt lat="43.394433" lon="-4.6471107"><ele>51.5</ele><time>2026-05-02T08:26:54.952Z</time></trkpt><trkpt lat="43.3943951" lon="-4.6469275"><ele>52.25</ele><time>2026-05-02T08:26:55.952Z</time></trkpt><trkpt lat="43.3943659" lon="-4.6467559"><ele>53.0</ele><time>2026-05-02T08:26:56.952Z</time></trkpt><trkpt lat="43.3943243" lon="-4.6465813"><ele>55.0</ele><time>2026-05-02T08:26:57.953Z</time></trkpt><trkpt lat="43.394274" lon="-4.6464106"><ele>57.0</ele><time>2026-05-02T08:26:58.957Z</time></trkpt><trkpt lat="43.3942381" lon="-4.6462408"><ele>59.0</ele><time>2026-05-02T08:26:59.959Z</time></trkpt><trkpt lat="43.3942071" lon="-4.6460647"><ele>61.0</ele><time>2026-05-02T08:27:00.958Z</time></trkpt><trkpt lat="43.394171" lon="-4.6458844"><ele>61.5</ele><time>2026-05-02T08:27:01.958Z</time></trkpt><trkpt lat="43.3941389" lon="-4.6457205"><ele>62.0</ele><time>2026-05-02T08:27:02.957Z</time></trkpt><trkpt lat="43.3941058" lon="-4.6455555"><ele>62.5</ele><time>2026-05-02T08:27:03.956Z</time></trkpt><trkpt lat="43.3940789" lon="-4.6453802"><ele>63.0</ele><time>2026-05-02T08:27:04.954Z</time></trkpt><trkpt lat="43.3940579" lon="-4.6452161"><ele>64.0</ele><time>2026-05-02T08:27:05.952Z</time></trkpt><trkpt lat="43.3940348" lon="-4.6450487"><ele>65.0</ele><time>2026-05-02T08:27:06.955Z</time></trkpt><trkpt lat="43.3940192" lon="-4.6448912"><ele>66.0</ele><time>2026-05-02T08:27:07.954Z</time></trkpt><trkpt lat="43.3940018" lon="-4.6447289"><ele>67.0</ele><time>2026-05-02T08:27:08.954Z</time></trkpt><trkpt lat="43.393977" lon="-4.6445635"><ele>67.5</ele><time>2026-05-02T08:27:09.953Z</time></trkpt><trkpt lat="43.3939526" lon="-4.6443995"><ele>68.0</ele><time>2026-05-02T08:27:10.971Z</time></trkpt><trkpt lat="43.3939322" lon="-4.6442372"><ele>68.5</ele><time>2026-05-02T08:27:11.956Z</time></trkpt><trkpt lat="43.3939142" lon="-4.6440733"><ele>69.0</ele><time>2026-05-02T08:27:12.957Z</time></trkpt><trkpt lat="43.3938997" lon="-4.6439081"><ele>69.0</ele><time>2026-05-02T08:27:13.956Z</time></trkpt><trkpt lat="43.3938837" lon="-4.6437454"><ele>69.0</ele><time>2026-05-02T08:27:14.962Z</time></trkpt><trkpt lat="43.3938719" lon="-4.643581"><ele>69.0</ele><time>2026-05-02T08:27:15.963Z</time></trkpt><trkpt lat="43.3938595" lon="-4.64341"><ele>69.0</ele><time>2026-05-02T08:27:16.963Z</time></trkpt><trkpt lat="43.3938542" lon="-4.6432404"><ele>67.75</ele><time>2026-05-02T08:27:17.96Z</time></trkpt><trkpt lat="43.3938515" lon="-4.6430626"><ele>66.5</ele><time>2026-05-02T08:27:18.957Z</time></trkpt><trkpt lat="43.3938494" lon="-4.6428894"><ele>65.25</ele><time>2026-05-02T08:27:19.963Z</time></trkpt><trkpt lat="43.3938487" lon="-4.6427126"><ele>64.0</ele><time>2026-05-02T08:27:20.963Z</time></trkpt><trkpt lat="43.3938444" lon="-4.6425331"><ele>63.5</ele><time>2026-05-02T08:27:21.961Z</time></trkpt><trkpt lat="43.3938427" lon="-4.6423575"><ele>63.0</ele><time>2026-05-02T08:27:22.974Z</time></trkpt><trkpt lat="43.3938381" lon="-4.6421813"><ele>62.5</ele><time>2026-05-02T08:27:23.966Z</time></trkpt><trkpt lat="43.393831" lon="-4.6420008"><ele>62.0</ele><time>2026-05-02T08:27:24.968Z</time></trkpt><trkpt lat="43.3938235" lon="-4.6418204"><ele>66.0</ele><time>2026-05-02T08:27:25.968Z</time></trkpt><trkpt lat="43.3938184" lon="-4.6416388"><ele>70.0</ele><time>2026-05-02T08:27:26.965Z</time></trkpt><trkpt lat="43.3938124" lon="-4.641449"><ele>74.0</ele><time>2026-05-02T08:27:27.965Z</time></trkpt><trkpt lat="43.3938074" lon="-4.6412604"><ele>78.0</ele><time>2026-05-02T08:27:28.97Z</time></trkpt><trkpt lat="43.3938068" lon="-4.6410724"><ele>78.0</ele><time>2026-05-02T08:27:29.972Z</time></trkpt><trkpt lat="43.3938046" lon="-4.6408775"><ele>78.0</ele><time>2026-05-02T08:27:30.965Z</time></trkpt><trkpt lat="43.3938003" lon="-4.6406865"><ele>78.0</ele><time>2026-05-02T08:27:31.961Z</time></trkpt><trkpt lat="43.3938033" lon="-4.6404973"><ele>78.0</ele><time>2026-05-02T08:27:32.959Z</time></trkpt><trkpt lat="43.3937902" lon="-4.6403071"><ele>79.0</ele><time>2026-05-02T08:27:33.96Z</time></trkpt><trkpt lat="43.3937798" lon="-4.6401202"><ele>80.0</ele><time>2026-05-02T08:27:34.957Z</time></trkpt><trkpt lat="43.3937635" lon="-4.6399315"><ele>81.0</ele><time>2026-05-02T08:27:35.962Z</time></trkpt><trkpt lat="43.3937585" lon="-4.6397471"><ele>82.0</ele><time>2026-05-02T08:27:36.958Z</time></trkpt><trkpt lat="43.3937536" lon="-4.6395548"><ele>81.5</ele><time>2026-05-02T08:27:37.961Z</time></trkpt><trkpt lat="43.3937455" lon="-4.639368"><ele>81.0</ele><time>2026-05-02T08:27:38.962Z</time></trkpt><trkpt lat="43.3937246" lon="-4.639167"><ele>80.5</ele><time>2026-05-02T08:27:39.963Z</time></trkpt><trkpt lat="43.3937192" lon="-4.6389765"><ele>80.0</ele><time>2026-05-02T08:27:40.963Z</time></trkpt><trkpt lat="43.3937166" lon="-4.6387812"><ele>77.75</ele><time>2026-05-02T08:27:41.99Z</time></trkpt><trkpt lat="43.3937045" lon="-4.6385822"><ele>75.5</ele><time>2026-05-02T08:27:42.96Z</time></trkpt><trkpt lat="43.3936929" lon="-4.6383765"><ele>73.25</ele><time>2026-05-02T08:27:43.953Z</time></trkpt><trkpt lat="43.3936902" lon="-4.6381742"><ele>71.0</ele><time>2026-05-02T08:27:44.96Z</time></trkpt><trkpt lat="43.3936984" lon="-4.6379747"><ele>69.75</ele><time>2026-05-02T08:27:45.959Z</time></trkpt><trkpt lat="43.3936978" lon="-4.6377748"><ele>68.5</ele><time>2026-05-02T08:27:46.963Z</time></trkpt><trkpt lat="43.3936963" lon="-4.637575"><ele>67.25</ele><time>2026-05-02T08:27:47.965Z</time></trkpt><trkpt lat="43.3936981" lon="-4.6373728"><ele>66.0</ele><time>2026-05-02T08:27:48.961Z</time></trkpt><trkpt lat="43.3936893" lon="-4.63718"><ele>66.0</ele><time>2026-05-02T08:27:49.958Z</time></trkpt><trkpt lat="43.3936797" lon="-4.6369841"><ele>66.0</ele><time>2026-05-02T08:27:50.961Z</time></trkpt><trkpt lat="43.3936686" lon="-4.6367835"><ele>66.0</ele><time>2026-05-02T08:27:51.957Z</time></trkpt><trkpt lat="43.3936568" lon="-4.6365622"><ele>66.0</ele><time>2026-05-02T08:27:52.958Z</time></trkpt><trkpt lat="43.3936426" lon="-4.6363528"><ele>66.0</ele><time>2026-05-02T08:27:53.951Z</time></trkpt><trkpt lat="43.3936403" lon="-4.6361538"><ele>66.0</ele><time>2026-05-02T08:27:54.952Z</time></trkpt><trkpt lat="43.3936273" lon="-4.6359405"><ele>65.33333333333333</ele><time>2026-05-02T08:27:55.95Z</time></trkpt><trkpt lat="43.3936211" lon="-4.6357319"><ele>64.66666666666666</ele><time>2026-05-02T08:27:56.952Z</time></trkpt><trkpt lat="43.3936077" lon="-4.6355194"><ele>64.0</ele><time>2026-05-02T08:27:57.948Z</time></trkpt><trkpt lat="43.3935836" lon="-4.6353082"><ele>64.33333333333333</ele><time>2026-05-02T08:27:58.955Z</time></trkpt><trkpt lat="43.3935533" lon="-4.6350989"><ele>64.66666666666667</ele><time>2026-05-02T08:27:59.954Z</time></trkpt><trkpt lat="43.3935183" lon="-4.6348828"><ele>65.0</ele><time>2026-05-02T08:28:00.951Z</time></trkpt><trkpt lat="43.3934712" lon="-4.6346708"><ele>62.0</ele><time>2026-05-02T08:28:01.949Z</time></trkpt><trkpt lat="43.39343" lon="-4.6344612"><ele>59.0</ele><time>2026-05-02T08:28:02.951Z</time></trkpt><trkpt lat="43.393372" lon="-4.6342527"><ele>56.0</ele><time>2026-05-02T08:28:03.948Z</time></trkpt><trkpt lat="43.3933209" lon="-4.6340374"><ele>56.0</ele><time>2026-05-02T08:28:04.95Z</time></trkpt><trkpt lat="43.3932753" lon="-4.6338292"><ele>56.0</ele><time>2026-05-02T08:28:05.952Z</time></trkpt><trkpt lat="43.3932074" lon="-4.6336077"><ele>56.0</ele><time>2026-05-02T08:28:06.951Z</time></trkpt><trkpt lat="43.3931514" lon="-4.6334004"><ele>54.66666666666667</ele><time>2026-05-02T08:28:07.95Z</time></trkpt><trkpt lat="43.3930942" lon="-4.6331937"><ele>53.33333333333333</ele><time>2026-05-02T08:28:08.957Z</time></trkpt><trkpt lat="43.3930396" lon="-4.6329823"><ele>52.0</ele><time>2026-05-02T08:28:09.959Z</time></trkpt><trkpt lat="43.3929833" lon="-4.6327672"><ele>61.666666666666664</ele><time>2026-05-02T08:28:10.955Z</time></trkpt><trkpt lat="43.3929296" lon="-4.6325754"><ele>71.33333333333333</ele><time>2026-05-02T08:28:11.974Z</time></trkpt><trkpt lat="43.3928792" lon="-4.6323751"><ele>81.0</ele><time>2026-05-02T08:28:12.958Z</time></trkpt><trkpt lat="43.3928305" lon="-4.6321708"><ele>78.66666666666667</ele><time>2026-05-02T08:28:13.963Z</time></trkpt><trkpt lat="43.3927877" lon="-4.6319623"><ele>76.33333333333334</ele><time>2026-05-02T08:28:14.959Z</time></trkpt><trkpt lat="43.3927443" lon="-4.6317495"><ele>74.0</ele><time>2026-05-02T08:28:15.954Z</time></trkpt><trkpt lat="43.3927006" lon="-4.6315477"><ele>74.0</ele><time>2026-05-02T08:28:16.963Z</time></trkpt><trkpt lat="43.3926583" lon="-4.6313315"><ele>74.0</ele><time>2026-05-02T08:28:17.951Z</time></trkpt><trkpt lat="43.3926068" lon="-4.6310956"><ele>74.0</ele><time>2026-05-02T08:28:18.946Z</time></trkpt><trkpt lat="43.3925791" lon="-4.6308692"><ele>71.33333333333334</ele><time>2026-05-02T08:28:19.943Z</time></trkpt><trkpt lat="43.3925616" lon="-4.6306625"><ele>68.66666666666667</ele><time>2026-05-02T08:28:20.948Z</time></trkpt><trkpt lat="43.3925522" lon="-4.6304524"><ele>66.0</ele><time>2026-05-02T08:28:21.952Z</time></trkpt><trkpt lat="43.3925374" lon="-4.6302383"><ele>62.66666666666667</ele><time>2026-05-02T08:28:22.954Z</time></trkpt><trkpt lat="43.3925157" lon="-4.630021"><ele>59.333333333333336</ele><time>2026-05-02T08:28:23.96Z</time></trkpt><trkpt lat="43.3925062" lon="-4.6298104"><ele>56.0</ele><time>2026-05-02T08:28:24.96Z</time></trkpt><trkpt lat="43.3924857" lon="-4.6295882"><ele>54.0</ele><time>2026-05-02T08:28:25.958Z</time></trkpt><trkpt lat="43.3924468" lon="-4.6293715"><ele>52.0</ele><time>2026-05-02T08:28:26.96Z</time></trkpt><trkpt lat="43.3924198" lon="-4.6291407"><ele>50.0</ele><time>2026-05-02T08:28:27.959Z</time></trkpt><trkpt lat="43.3923987" lon="-4.6289218"><ele>50.0</ele><time>2026-05-02T08:28:28.961Z</time></trkpt><trkpt lat="43.3923747" lon="-4.6286973"><ele>50.0</ele><time>2026-05-02T08:28:29.965Z</time></trkpt><trkpt lat="43.3923461" lon="-4.6284826"><ele>50.0</ele><time>2026-05-02T08:28:30.961Z</time></trkpt><trkpt lat="43.3923217" lon="-4.6282685"><ele>50.0</ele><time>2026-05-02T08:28:31.964Z</time></trkpt><trkpt lat="43.3923018" lon="-4.6280499"><ele>50.0</ele><time>2026-05-02T08:28:32.964Z</time></trkpt><trkpt lat="43.3922746" lon="-4.6278304"><ele>50.0</ele><time>2026-05-02T08:28:33.967Z</time></trkpt><trkpt lat="43.3922502" lon="-4.6276194"><ele>48.0</ele><time>2026-05-02T08:28:34.956Z</time></trkpt><trkpt lat="43.3922265" lon="-4.6274078"><ele>46.0</ele><time>2026-05-02T08:28:35.964Z</time></trkpt><trkpt lat="43.3922025" lon="-4.6271984"><ele>44.0</ele><time>2026-05-02T08:28:36.958Z</time></trkpt><trkpt lat="43.3921911" lon="-4.6269894"><ele>42.666666666666664</ele><time>2026-05-02T08:28:37.951Z</time></trkpt><trkpt lat="43.3921734" lon="-4.6267744"><ele>41.333333333333336</ele><time>2026-05-02T08:28:38.955Z</time></trkpt><trkpt lat="43.3921439" lon="-4.6265669"><ele>40.0</ele><time>2026-05-02T08:28:39.954Z</time></trkpt><trkpt lat="43.3921337" lon="-4.6263519"><ele>49.66666666666667</ele><time>2026-05-02T08:28:40.958Z</time></trkpt><trkpt lat="43.3921248" lon="-4.6261393"><ele>59.333333333333336</ele><time>2026-05-02T08:28:41.956Z</time></trkpt><trkpt lat="43.392117" lon="-4.6259276"><ele>69.0</ele><time>2026-05-02T08:28:42.973Z</time></trkpt><trkpt lat="43.3921042" lon="-4.6257157"><ele>69.0</ele><time>2026-05-02T08:28:43.96Z</time></trkpt><trkpt lat="43.3921001" lon="-4.6255078"><ele>69.0</ele><time>2026-05-02T08:28:44.963Z</time></trkpt><trkpt lat="43.3920965" lon="-4.6253017"><ele>69.0</ele><time>2026-05-02T08:28:45.96Z</time></trkpt><trkpt lat="43.3920953" lon="-4.6250946"><ele>67.66666666666667</ele><time>2026-05-02T08:28:46.965Z</time></trkpt><trkpt lat="43.3920927" lon="-4.6248877"><ele>66.33333333333334</ele><time>2026-05-02T08:28:47.96Z</time></trkpt><trkpt lat="43.3920824" lon="-4.6246678"><ele>65.0</ele><time>2026-05-02T08:28:48.962Z</time></trkpt><trkpt lat="43.3920846" lon="-4.6244547"><ele>64.33333333333334</ele><time>2026-05-02T08:28:49.968Z</time></trkpt><trkpt lat="43.3920856" lon="-4.6242431"><ele>63.66666666666667</ele><time>2026-05-02T08:28:50.962Z</time></trkpt><trkpt lat="43.3920882" lon="-4.6240302"><ele>63.0</ele><time>2026-05-02T08:28:51.963Z</time></trkpt><trkpt lat="43.3920925" lon="-4.6238139"><ele>63.0</ele><time>2026-05-02T08:28:52.973Z</time></trkpt><trkpt lat="43.3920937" lon="-4.6236023"><ele>63.0</ele><time>2026-05-02T08:28:53.967Z</time></trkpt><trkpt lat="43.3920942" lon="-4.6233824"><ele>63.0</ele><time>2026-05-02T08:28:54.961Z</time></trkpt><trkpt lat="43.3921003" lon="-4.6231739"><ele>63.0</ele><time>2026-05-02T08:28:55.965Z</time></trkpt><trkpt lat="43.3921088" lon="-4.6229672"><ele>63.0</ele><time>2026-05-02T08:28:56.958Z</time></trkpt><trkpt lat="43.3921108" lon="-4.6227511"><ele>63.0</ele><time>2026-05-02T08:28:57.96Z</time></trkpt><trkpt lat="43.3921064" lon="-4.6225475"><ele>61.66666666666667</ele><time>2026-05-02T08:28:58.962Z</time></trkpt><trkpt lat="43.3921087" lon="-4.6223321"><ele>60.333333333333336</ele><time>2026-05-02T08:28:59.962Z</time></trkpt><trkpt lat="43.3921124" lon="-4.6221203"><ele>59.0</ele><time>2026-05-02T08:29:00.963Z</time></trkpt><trkpt lat="43.3921251" lon="-4.6219187"><ele>58.333333333333336</ele><time>2026-05-02T08:29:01.958Z</time></trkpt><trkpt lat="43.392123" lon="-4.621703"><ele>57.66666666666667</ele><time>2026-05-02T08:29:02.962Z</time></trkpt><trkpt lat="43.3921195" lon="-4.6214943"><ele>57.0</ele><time>2026-05-02T08:29:03.958Z</time></trkpt><trkpt lat="43.3921134" lon="-4.6212776"><ele>58.66666666666667</ele><time>2026-05-02T08:29:04.961Z</time></trkpt><trkpt lat="43.392113" lon="-4.6210639"><ele>60.333333333333336</ele><time>2026-05-02T08:29:05.962Z</time></trkpt><trkpt lat="43.3921156" lon="-4.6208604"><ele>62.0</ele><time>2026-05-02T08:29:06.967Z</time></trkpt><trkpt lat="43.3921185" lon="-4.6206569"><ele>62.0</ele><time>2026-05-02T08:29:07.964Z</time></trkpt><trkpt lat="43.3921138" lon="-4.6204558"><ele>62.0</ele><time>2026-05-02T08:29:08.961Z</time></trkpt><trkpt lat="43.3921039" lon="-4.6200437"><ele>62.0</ele><time>2026-05-02T08:29:10.962Z</time></trkpt><trkpt lat="43.3921054" lon="-4.6198474"><ele>62.333333333333336</ele><time>2026-05-02T08:29:11.963Z</time></trkpt><trkpt lat="43.3921071" lon="-4.6196532"><ele>62.66666666666667</ele><time>2026-05-02T08:29:12.968Z</time></trkpt><trkpt lat="43.392108" lon="-4.619271"><ele>63.0</ele><time>2026-05-02T08:29:14.964Z</time></trkpt><trkpt lat="43.3921057" lon="-4.6190837"><ele>63.0</ele><time>2026-05-02T08:29:15.966Z</time></trkpt><trkpt lat="43.3921005" lon="-4.6188896"><ele>63.0</ele><time>2026-05-02T08:29:16.97Z</time></trkpt><trkpt lat="43.3920845" lon="-4.6186938"><ele>63.0</ele><time>2026-05-02T08:29:17.963Z</time></trkpt><trkpt lat="43.3920723" lon="-4.618515"><ele>63.0</ele><time>2026-05-02T08:29:18.962Z</time></trkpt><trkpt lat="43.3920575" lon="-4.6183343"><ele>62.5</ele><time>2026-05-02T08:29:19.959Z</time></trkpt><trkpt lat="43.392044" lon="-4.6181722"><ele>62.0</ele><time>2026-05-02T08:29:20.962Z</time></trkpt><trkpt lat="43.392028" lon="-4.6180071"><ele>61.5</ele><time>2026-05-02T08:29:21.959Z</time></trkpt><trkpt lat="43.3920157" lon="-4.6178507"><ele>61.0</ele><time>2026-05-02T08:29:22.967Z</time></trkpt><trkpt lat="43.3920057" lon="-4.6176974"><ele>61.0</ele><time>2026-05-02T08:29:23.955Z</time></trkpt><trkpt lat="43.3920012" lon="-4.617538"><ele>61.0</ele><time>2026-05-02T08:29:24.953Z</time></trkpt><trkpt lat="43.3920097" lon="-4.6173753"><ele>61.0</ele><time>2026-05-02T08:29:25.955Z</time></trkpt><trkpt lat="43.3920252" lon="-4.6172169"><ele>61.0</ele><time>2026-05-02T08:29:26.954Z</time></trkpt><trkpt lat="43.3920442" lon="-4.6170615"><ele>62.25</ele><time>2026-05-02T08:29:27.955Z</time></trkpt><trkpt lat="43.3920675" lon="-4.6169042"><ele>63.5</ele><time>2026-05-02T08:29:28.954Z</time></trkpt><trkpt lat="43.3920917" lon="-4.6167522"><ele>64.75</ele><time>2026-05-02T08:29:29.952Z</time></trkpt><trkpt lat="43.3921197" lon="-4.6166037"><ele>66.0</ele><time>2026-05-02T08:29:30.953Z</time></trkpt><trkpt lat="43.392145" lon="-4.6164508"><ele>66.0</ele><time>2026-05-02T08:29:31.953Z</time></trkpt><trkpt lat="43.3921708" lon="-4.6162976"><ele>66.0</ele><time>2026-05-02T08:29:32.954Z</time></trkpt><trkpt lat="43.392191" lon="-4.6161431"><ele>66.0</ele><time>2026-05-02T08:29:33.953Z</time></trkpt><trkpt lat="43.3922081" lon="-4.6159873"><ele>66.0</ele><time>2026-05-02T08:29:34.951Z</time></trkpt><trkpt lat="43.3922146" lon="-4.6158293"><ele>68.25</ele><time>2026-05-02T08:29:35.953Z</time></trkpt><trkpt lat="43.3922115" lon="-4.6156697"><ele>70.5</ele><time>2026-05-02T08:29:36.953Z</time></trkpt><trkpt lat="43.3922026" lon="-4.6155106"><ele>72.75</ele><time>2026-05-02T08:29:37.96Z</time></trkpt><trkpt lat="43.3921813" lon="-4.6153516"><ele>75.0</ele><time>2026-05-02T08:29:38.954Z</time></trkpt><trkpt lat="43.3921524" lon="-4.6151882"><ele>75.0</ele><time>2026-05-02T08:29:39.956Z</time></trkpt><trkpt lat="43.3921283" lon="-4.6150233"><ele>75.0</ele><time>2026-05-02T08:29:40.952Z</time></trkpt><trkpt lat="43.3921136" lon="-4.6148605"><ele>75.0</ele><time>2026-05-02T08:29:41.959Z</time></trkpt><trkpt lat="43.3921013" lon="-4.6146979"><ele>75.0</ele><time>2026-05-02T08:29:42.96Z</time></trkpt><trkpt lat="43.3920893" lon="-4.6145402"><ele>72.25</ele><time>2026-05-02T08:29:43.953Z</time></trkpt><trkpt lat="43.3920822" lon="-4.6143873"><ele>69.5</ele><time>2026-05-02T08:29:44.97Z</time></trkpt><trkpt lat="43.3920792" lon="-4.614231"><ele>66.75</ele><time>2026-05-02T08:29:45.949Z</time></trkpt><trkpt lat="43.3920824" lon="-4.6140731"><ele>64.0</ele><time>2026-05-02T08:29:46.95Z</time></trkpt><trkpt lat="43.3920904" lon="-4.6139157"><ele>64.0</ele><time>2026-05-02T08:29:47.95Z</time></trkpt><trkpt lat="43.3921017" lon="-4.6137623"><ele>64.0</ele><time>2026-05-02T08:29:48.946Z</time></trkpt><trkpt lat="43.3921131" lon="-4.6136018"><ele>64.0</ele><time>2026-05-02T08:29:49.948Z</time></trkpt><trkpt lat="43.3921302" lon="-4.6134342"><ele>64.0</ele><time>2026-05-02T08:29:50.941Z</time></trkpt><trkpt lat="43.3921454" lon="-4.6132742"><ele>64.4</ele><time>2026-05-02T08:29:51.949Z</time></trkpt><trkpt lat="43.3921636" lon="-4.6131179"><ele>64.80000000000001</ele><time>2026-05-02T08:29:52.961Z</time></trkpt><trkpt lat="43.3921796" lon="-4.6129695"><ele>65.19999999999999</ele><time>2026-05-02T08:29:53.953Z</time></trkpt><trkpt lat="43.3921898" lon="-4.6128155"><ele>65.6</ele><time>2026-05-02T08:29:54.952Z</time></trkpt><trkpt lat="43.3922028" lon="-4.6126681"><ele>66.0</ele><time>2026-05-02T08:29:55.95Z</time></trkpt><trkpt lat="43.3922189" lon="-4.6125299"><ele>60.599999999999994</ele><time>2026-05-02T08:29:56.95Z</time></trkpt><trkpt lat="43.392235" lon="-4.612395"><ele>55.199999999999996</ele><time>2026-05-02T08:29:57.951Z</time></trkpt><trkpt lat="43.3922513" lon="-4.612263"><ele>49.8</ele><time>2026-05-02T08:29:58.958Z</time></trkpt><trkpt lat="43.3922653" lon="-4.6121265"><ele>44.4</ele><time>2026-05-02T08:29:59.962Z</time></trkpt><trkpt lat="43.3922764" lon="-4.6119809"><ele>39.0</ele><time>2026-05-02T08:30:00.958Z</time></trkpt><trkpt lat="43.3922913" lon="-4.611828"><ele>38.75</ele><time>2026-05-02T08:30:01.958Z</time></trkpt><trkpt lat="43.3923101" lon="-4.6116722"><ele>38.5</ele><time>2026-05-02T08:30:02.96Z</time></trkpt><trkpt lat="43.3923308" lon="-4.6115129"><ele>38.25</ele><time>2026-05-02T08:30:03.957Z</time></trkpt><trkpt lat="43.3923497" lon="-4.6113469"><ele>38.0</ele><time>2026-05-02T08:30:04.961Z</time></trkpt><trkpt lat="43.3923664" lon="-4.6111767"><ele>39.0</ele><time>2026-05-02T08:30:05.957Z</time></trkpt><trkpt lat="43.3923883" lon="-4.6110017"><ele>40.0</ele><time>2026-05-02T08:30:06.959Z</time></trkpt><trkpt lat="43.3924059" lon="-4.6108241"><ele>41.0</ele><time>2026-05-02T08:30:07.959Z</time></trkpt><trkpt lat="43.392419" lon="-4.6106404"><ele>42.0</ele><time>2026-05-02T08:30:08.961Z</time></trkpt><trkpt lat="43.392439" lon="-4.6104559"><ele>43.0</ele><time>2026-05-02T08:30:09.955Z</time></trkpt><trkpt lat="43.392465" lon="-4.6102655"><ele>44.0</ele><time>2026-05-02T08:30:10.962Z</time></trkpt><trkpt lat="43.3924909" lon="-4.6100634"><ele>45.0</ele><time>2026-05-02T08:30:11.963Z</time></trkpt><trkpt lat="43.3925224" lon="-4.6098676"><ele>46.0</ele><time>2026-05-02T08:30:12.963Z</time></trkpt><trkpt lat="43.3925616" lon="-4.6096637"><ele>46.66666666666667</ele><time>2026-05-02T08:30:13.961Z</time></trkpt><trkpt lat="43.3926007" lon="-4.6094568"><ele>47.333333333333336</ele><time>2026-05-02T08:30:14.96Z</time></trkpt><trkpt lat="43.3926344" lon="-4.6092512"><ele>48.0</ele><time>2026-05-02T08:30:15.975Z</time></trkpt><trkpt lat="43.3926745" lon="-4.609055"><ele>48.0</ele><time>2026-05-02T08:30:16.962Z</time></trkpt><trkpt lat="43.3927248" lon="-4.6088663"><ele>48.0</ele><time>2026-05-02T08:30:17.959Z</time></trkpt><trkpt lat="43.3927679" lon="-4.608682"><ele>48.0</ele><time>2026-05-02T08:30:18.955Z</time></trkpt><trkpt lat="43.3928155" lon="-4.6085038"><ele>48.0</ele><time>2026-05-02T08:30:19.957Z</time></trkpt><trkpt lat="43.3928637" lon="-4.6083313"><ele>49.4</ele><time>2026-05-02T08:30:20.958Z</time></trkpt><trkpt lat="43.3929156" lon="-4.6081797"><ele>50.8</ele><time>2026-05-02T08:30:21.959Z</time></trkpt><trkpt lat="43.3929566" lon="-4.6080293"><ele>52.2</ele><time>2026-05-02T08:30:22.962Z</time></trkpt><trkpt lat="43.3929849" lon="-4.6078957"><ele>53.6</ele><time>2026-05-02T08:30:23.959Z</time></trkpt><trkpt lat="43.3930181" lon="-4.6077616"><ele>55.0</ele><time>2026-05-02T08:30:24.959Z</time></trkpt><trkpt lat="43.3930457" lon="-4.6076203"><ele>52.2</ele><time>2026-05-02T08:30:25.96Z</time></trkpt><trkpt lat="43.3930735" lon="-4.6074889"><ele>49.4</ele><time>2026-05-02T08:30:26.96Z</time></trkpt><trkpt lat="43.3931024" lon="-4.6073631"><ele>46.599999999999994</ele><time>2026-05-02T08:30:27.959Z</time></trkpt><trkpt lat="43.3931325" lon="-4.6072312"><ele>43.8</ele><time>2026-05-02T08:30:28.964Z</time></trkpt><trkpt lat="43.3931644" lon="-4.6071028"><ele>41.0</ele><time>2026-05-02T08:30:29.963Z</time></trkpt><trkpt lat="43.3931909" lon="-4.6069673"><ele>41.0</ele><time>2026-05-02T08:30:30.953Z</time></trkpt><trkpt lat="43.3932141" lon="-4.6068302"><ele>41.0</ele><time>2026-05-02T08:30:31.958Z</time></trkpt><trkpt lat="43.3932332" lon="-4.6066881"><ele>41.0</ele><time>2026-05-02T08:30:32.959Z</time></trkpt><trkpt lat="43.3932546" lon="-4.6065349"><ele>41.0</ele><time>2026-05-02T08:30:33.956Z</time></trkpt><trkpt lat="43.3932753" lon="-4.6063786"><ele>41.0</ele><time>2026-05-02T08:30:34.956Z</time></trkpt><trkpt lat="43.3932927" lon="-4.606215"><ele>41.25</ele><time>2026-05-02T08:30:35.953Z</time></trkpt><trkpt lat="43.3933041" lon="-4.606047"><ele>41.5</ele><time>2026-05-02T08:30:36.957Z</time></trkpt><trkpt lat="43.3933152" lon="-4.6058742"><ele>41.75</ele><time>2026-05-02T08:30:37.955Z</time></trkpt><trkpt lat="43.3933246" lon="-4.6057013"><ele>42.0</ele><time>2026-05-02T08:30:38.96Z</time></trkpt><trkpt lat="43.3933249" lon="-4.6055337"><ele>42.0</ele><time>2026-05-02T08:30:39.953Z</time></trkpt><trkpt lat="43.3933188" lon="-4.6053718"><ele>42.0</ele><time>2026-05-02T08:30:40.95Z</time></trkpt><trkpt lat="43.3933119" lon="-4.6052212"><ele>42.0</ele><time>2026-05-02T08:30:41.95Z</time></trkpt><trkpt lat="43.3933109" lon="-4.6050745"><ele>42.0</ele><time>2026-05-02T08:30:42.948Z</time></trkpt><trkpt lat="43.3933021" lon="-4.6049314"><ele>42.0</ele><time>2026-05-02T08:30:43.958Z</time></trkpt><trkpt lat="43.3932884" lon="-4.6047922"><ele>42.666666666666664</ele><time>2026-05-02T08:30:44.951Z</time></trkpt><trkpt lat="43.3932738" lon="-4.6046643"><ele>43.333333333333336</ele><time>2026-05-02T08:30:45.953Z</time></trkpt><trkpt lat="43.3932604" lon="-4.6045431"><ele>44.0</ele><time>2026-05-02T08:30:46.969Z</time></trkpt><trkpt lat="43.3932515" lon="-4.604433"><ele>44.66666666666667</ele><time>2026-05-02T08:30:47.948Z</time></trkpt><trkpt lat="43.3932462" lon="-4.6043243"><ele>45.333333333333336</ele><time>2026-05-02T08:30:48.944Z</time></trkpt><trkpt lat="43.3932406" lon="-4.6042257"><ele>46.0</ele><time>2026-05-02T08:30:49.947Z</time></trkpt><trkpt lat="43.3932323" lon="-4.6041304"><ele>46.142857142857146</ele><time>2026-05-02T08:30:50.948Z</time></trkpt><trkpt lat="43.3932327" lon="-4.604037"><ele>46.285714285714285</ele><time>2026-05-02T08:30:51.951Z</time></trkpt><trkpt lat="43.393236" lon="-4.6039488"><ele>46.42857142857143</ele><time>2026-05-02T08:30:52.962Z</time></trkpt><trkpt lat="43.3932376" lon="-4.6038621"><ele>46.57142857142857</ele><time>2026-05-02T08:30:53.961Z</time></trkpt><trkpt lat="43.3932376" lon="-4.6037726"><ele>46.71428571428571</ele><time>2026-05-02T08:30:54.956Z</time></trkpt><trkpt lat="43.3932331" lon="-4.6036821"><ele>46.857142857142854</ele><time>2026-05-02T08:30:55.965Z</time></trkpt><trkpt lat="43.3932291" lon="-4.6035834"><ele>47.0</ele><time>2026-05-02T08:30:56.96Z</time></trkpt><trkpt lat="43.3932266" lon="-4.603474"><ele>47.0</ele><time>2026-05-02T08:30:57.956Z</time></trkpt><trkpt lat="43.3932277" lon="-4.6033528"><ele>47.0</ele><time>2026-05-02T08:30:58.957Z</time></trkpt><trkpt lat="43.3932289" lon="-4.6032208"><ele>47.0</ele><time>2026-05-02T08:30:59.962Z</time></trkpt><trkpt lat="43.3932355" lon="-4.6030798"><ele>47.0</ele><time>2026-05-02T08:31:00.958Z</time></trkpt><trkpt lat="43.3932367" lon="-4.6029243"><ele>47.0</ele><time>2026-05-02T08:31:01.96Z</time></trkpt><trkpt lat="43.3932309" lon="-4.6027596"><ele>47.5</ele><time>2026-05-02T08:31:02.958Z</time></trkpt><trkpt lat="43.3932291" lon="-4.6025817"><ele>48.0</ele><time>2026-05-02T08:31:03.96Z</time></trkpt><trkpt lat="43.3932376" lon="-4.6023947"><ele>48.5</ele><time>2026-05-02T08:31:04.96Z</time></trkpt><trkpt lat="43.3932478" lon="-4.602195"><ele>49.0</ele><time>2026-05-02T08:31:05.963Z</time></trkpt><trkpt lat="43.3932577" lon="-4.6019877"><ele>49.0</ele><time>2026-05-02T08:31:06.957Z</time></trkpt><trkpt lat="43.3932772" lon="-4.601774"><ele>49.0</ele><time>2026-05-02T08:31:07.959Z</time></trkpt><trkpt lat="43.3933015" lon="-4.6015542"><ele>49.0</ele><time>2026-05-02T08:31:08.96Z</time></trkpt><trkpt lat="43.393316" lon="-4.6013322"><ele>49.33333333333333</ele><time>2026-05-02T08:31:09.959Z</time></trkpt><trkpt lat="43.3933331" lon="-4.6011217"><ele>49.66666666666667</ele><time>2026-05-02T08:31:10.958Z</time></trkpt><trkpt lat="43.3933484" lon="-4.6009115"><ele>50.0</ele><time>2026-05-02T08:31:11.959Z</time></trkpt><trkpt lat="43.3933733" lon="-4.6007012"><ele>50.0</ele><time>2026-05-02T08:31:12.961Z</time></trkpt><trkpt lat="43.3933964" lon="-4.6004989"><ele>50.0</ele><time>2026-05-02T08:31:13.961Z</time></trkpt><trkpt lat="43.3934259" lon="-4.6002919"><ele>50.0</ele><time>2026-05-02T08:31:14.961Z</time></trkpt><trkpt lat="43.3934492" lon="-4.6000915"><ele>51.0</ele><time>2026-05-02T08:31:15.962Z</time></trkpt><trkpt lat="43.3934744" lon="-4.5998841"><ele>52.0</ele><time>2026-05-02T08:31:16.963Z</time></trkpt><trkpt lat="43.3934919" lon="-4.5996751"><ele>53.0</ele><time>2026-05-02T08:31:17.977Z</time></trkpt><trkpt lat="43.3935061" lon="-4.599463"><ele>53.66666666666667</ele><time>2026-05-02T08:31:18.962Z</time></trkpt><trkpt lat="43.3935343" lon="-4.599251"><ele>54.33333333333333</ele><time>2026-05-02T08:31:19.963Z</time></trkpt><trkpt lat="43.3935657" lon="-4.5990439"><ele>55.0</ele><time>2026-05-02T08:31:20.965Z</time></trkpt><trkpt lat="43.3935945" lon="-4.5988356"><ele>56.33333333333333</ele><time>2026-05-02T08:31:21.96Z</time></trkpt><trkpt lat="43.3936313" lon="-4.5986226"><ele>57.66666666666667</ele><time>2026-05-02T08:31:22.971Z</time></trkpt><trkpt lat="43.3936671" lon="-4.5984041"><ele>59.0</ele><time>2026-05-02T08:31:23.965Z</time></trkpt><trkpt lat="43.3937088" lon="-4.5981862"><ele>59.0</ele><time>2026-05-02T08:31:24.959Z</time></trkpt><trkpt lat="43.3937529" lon="-4.597977"><ele>59.0</ele><time>2026-05-02T08:31:25.964Z</time></trkpt><trkpt lat="43.3937918" lon="-4.5977615"><ele>59.0</ele><time>2026-05-02T08:31:26.96Z</time></trkpt><trkpt lat="43.3938419" lon="-4.5975611"><ele>55.0</ele><time>2026-05-02T08:31:27.961Z</time></trkpt><trkpt lat="43.3938959" lon="-4.5973679"><ele>51.0</ele><time>2026-05-02T08:31:28.96Z</time></trkpt><trkpt lat="43.3939439" lon="-4.5971623"><ele>47.0</ele><time>2026-05-02T08:31:29.962Z</time></trkpt><trkpt lat="43.3939846" lon="-4.5969723"><ele>47.0</ele><time>2026-05-02T08:31:30.965Z</time></trkpt><trkpt lat="43.3940244" lon="-4.5967939"><ele>47.0</ele><time>2026-05-02T08:31:31.966Z</time></trkpt><trkpt lat="43.3940718" lon="-4.5966116"><ele>47.0</ele><time>2026-05-02T08:31:32.965Z</time></trkpt><trkpt lat="43.3941211" lon="-4.5964299"><ele>47.0</ele><time>2026-05-02T08:31:33.969Z</time></trkpt><trkpt lat="43.3941682" lon="-4.5962579"><ele>48.0</ele><time>2026-05-02T08:31:34.968Z</time></trkpt><trkpt lat="43.3942099" lon="-4.5960944"><ele>49.0</ele><time>2026-05-02T08:31:35.967Z</time></trkpt><trkpt lat="43.3942483" lon="-4.5959419"><ele>50.0</ele><time>2026-05-02T08:31:36.97Z</time></trkpt><trkpt lat="43.3942951" lon="-4.5957923"><ele>51.0</ele><time>2026-05-02T08:31:37.973Z</time></trkpt><trkpt lat="43.3943332" lon="-4.5956494"><ele>51.0</ele><time>2026-05-02T08:31:38.97Z</time></trkpt><trkpt lat="43.3943665" lon="-4.5955149"><ele>51.0</ele><time>2026-05-02T08:31:39.969Z</time></trkpt><trkpt lat="43.3944033" lon="-4.5953782"><ele>51.0</ele><time>2026-05-02T08:31:40.973Z</time></trkpt><trkpt lat="43.3944434" lon="-4.5952344"><ele>51.0</ele><time>2026-05-02T08:31:41.974Z</time></trkpt><trkpt lat="43.3944817" lon="-4.5950831"><ele>51.0</ele><time>2026-05-02T08:31:42.968Z</time></trkpt><trkpt lat="43.3945241" lon="-4.5949307"><ele>53.0</ele><time>2026-05-02T08:31:43.97Z</time></trkpt><trkpt lat="43.3945633" lon="-4.5947751"><ele>55.0</ele><time>2026-05-02T08:31:44.972Z</time></trkpt><trkpt lat="43.3946011" lon="-4.5946145"><ele>57.0</ele><time>2026-05-02T08:31:45.971Z</time></trkpt><trkpt lat="43.3946355" lon="-4.594455"><ele>59.0</ele><time>2026-05-02T08:31:46.973Z</time></trkpt><trkpt lat="43.3946683" lon="-4.5942883"><ele>56.75</ele><time>2026-05-02T08:31:47.973Z</time></trkpt><trkpt lat="43.3947009" lon="-4.5941165"><ele>54.5</ele><time>2026-05-02T08:31:48.987Z</time></trkpt><trkpt lat="43.3947298" lon="-4.5939384"><ele>52.25</ele><time>2026-05-02T08:31:49.966Z</time></trkpt><trkpt lat="43.394759" lon="-4.5937583"><ele>50.0</ele><time>2026-05-02T08:31:50.968Z</time></trkpt><trkpt lat="43.3947889" lon="-4.5935837"><ele>50.0</ele><time>2026-05-02T08:31:51.966Z</time></trkpt><trkpt lat="43.3948192" lon="-4.5934089"><ele>50.0</ele><time>2026-05-02T08:31:52.971Z</time></trkpt><trkpt lat="43.3948496" lon="-4.5932342"><ele>50.0</ele><time>2026-05-02T08:31:53.965Z</time></trkpt><trkpt lat="43.3948818" lon="-4.5930599"><ele>50.0</ele><time>2026-05-02T08:31:54.961Z</time></trkpt><trkpt lat="43.3949137" lon="-4.5928847"><ele>50.25</ele><time>2026-05-02T08:31:55.96Z</time></trkpt><trkpt lat="43.394947" lon="-4.5927139"><ele>50.5</ele><time>2026-05-02T08:31:56.959Z</time></trkpt><trkpt lat="43.3949744" lon="-4.5925403"><ele>50.75</ele><time>2026-05-02T08:31:57.958Z</time></trkpt><trkpt lat="43.3949973" lon="-4.5923602"><ele>51.0</ele><time>2026-05-02T08:31:58.961Z</time></trkpt><trkpt lat="43.3950184" lon="-4.5921847"><ele>51.0</ele><time>2026-05-02T08:31:59.962Z</time></trkpt><trkpt lat="43.3950388" lon="-4.5920069"><ele>51.0</ele><time>2026-05-02T08:32:00.96Z</time></trkpt><trkpt lat="43.3950635" lon="-4.5918209"><ele>51.0</ele><time>2026-05-02T08:32:01.959Z</time></trkpt><trkpt lat="43.3950752" lon="-4.5916253"><ele>51.0</ele><time>2026-05-02T08:32:02.961Z</time></trkpt><trkpt lat="43.3950752" lon="-4.5914281"><ele>51.0</ele><time>2026-05-02T08:32:03.959Z</time></trkpt><trkpt lat="43.3950745" lon="-4.5912254"><ele>51.0</ele><time>2026-05-02T08:32:04.961Z</time></trkpt><trkpt lat="43.3950618" lon="-4.5908007"><ele>51.0</ele><time>2026-05-02T08:32:06.96Z</time></trkpt><trkpt lat="43.3950519" lon="-4.5905804"><ele>51.0</ele><time>2026-05-02T08:32:07.96Z</time></trkpt><trkpt lat="43.3950458" lon="-4.5903572"><ele>51.0</ele><time>2026-05-02T08:32:08.96Z</time></trkpt><trkpt lat="43.3950306" lon="-4.590144"><ele>50.0</ele><time>2026-05-02T08:32:09.951Z</time></trkpt><trkpt lat="43.3950015" lon="-4.5899316"><ele>49.0</ele><time>2026-05-02T08:32:10.96Z</time></trkpt><trkpt lat="43.3949692" lon="-4.5897231"><ele>48.0</ele><time>2026-05-02T08:32:11.963Z</time></trkpt><trkpt lat="43.3949303" lon="-4.5895169"><ele>46.666666666666664</ele><time>2026-05-02T08:32:12.962Z</time></trkpt><trkpt lat="43.3948843" lon="-4.5893174"><ele>45.33333333333333</ele><time>2026-05-02T08:32:13.963Z</time></trkpt><trkpt lat="43.3948355" lon="-4.5891096"><ele>44.0</ele><time>2026-05-02T08:32:14.967Z</time></trkpt><trkpt lat="43.3947903" lon="-4.5889068"><ele>44.0</ele><time>2026-05-02T08:32:15.964Z</time></trkpt><trkpt lat="43.3947364" lon="-4.5886974"><ele>44.0</ele><time>2026-05-02T08:32:16.963Z</time></trkpt><trkpt lat="43.394665" lon="-4.5885013"><ele>44.0</ele><time>2026-05-02T08:32:17.964Z</time></trkpt><trkpt lat="43.3945805" lon="-4.5883037"><ele>45.666666666666664</ele><time>2026-05-02T08:32:18.967Z</time></trkpt><trkpt lat="43.3945075" lon="-4.5881129"><ele>47.33333333333333</ele><time>2026-05-02T08:32:19.995Z</time></trkpt><trkpt lat="43.3944218" lon="-4.5879265"><ele>49.0</ele><time>2026-05-02T08:32:20.968Z</time></trkpt><trkpt lat="43.3943461" lon="-4.5877469"><ele>49.0</ele><time>2026-05-02T08:32:21.965Z</time></trkpt><trkpt lat="43.3942716" lon="-4.5875656"><ele>49.0</ele><time>2026-05-02T08:32:22.972Z</time></trkpt><trkpt lat="43.3941958" lon="-4.5873754"><ele>49.0</ele><time>2026-05-02T08:32:23.976Z</time></trkpt><trkpt lat="43.3941144" lon="-4.5871909"><ele>48.0</ele><time>2026-05-02T08:32:24.97Z</time></trkpt><trkpt lat="43.3940383" lon="-4.5870089"><ele>47.0</ele><time>2026-05-02T08:32:25.963Z</time></trkpt><trkpt lat="43.3939606" lon="-4.5868227"><ele>46.0</ele><time>2026-05-02T08:32:26.971Z</time></trkpt><trkpt lat="43.3938795" lon="-4.5866369"><ele>45.75</ele><time>2026-05-02T08:32:27.97Z</time></trkpt><trkpt lat="43.3937998" lon="-4.5864546"><ele>45.5</ele><time>2026-05-02T08:32:28.972Z</time></trkpt><trkpt lat="43.3937278" lon="-4.5862806"><ele>45.25</ele><time>2026-05-02T08:32:29.975Z</time></trkpt><trkpt lat="43.3936591" lon="-4.5861021"><ele>45.0</ele><time>2026-05-02T08:32:30.962Z</time></trkpt><trkpt lat="43.3935836" lon="-4.5859134"><ele>44.666666666666664</ele><time>2026-05-02T08:32:31.972Z</time></trkpt><trkpt lat="43.3935063" lon="-4.5857204"><ele>44.33333333333333</ele><time>2026-05-02T08:32:32.965Z</time></trkpt><trkpt lat="43.3934332" lon="-4.5855284"><ele>44.0</ele><time>2026-05-02T08:32:33.966Z</time></trkpt><trkpt lat="43.3933603" lon="-4.5853401"><ele>45.33333333333333</ele><time>2026-05-02T08:32:34.967Z</time></trkpt><trkpt lat="43.3932818" lon="-4.5851596"><ele>46.666666666666664</ele><time>2026-05-02T08:32:35.964Z</time></trkpt><trkpt lat="43.3932006" lon="-4.584977"><ele>48.0</ele><time>2026-05-02T08:32:36.96Z</time></trkpt><trkpt lat="43.3931209" lon="-4.5847991"><ele>48.0</ele><time>2026-05-02T08:32:37.963Z</time></trkpt><trkpt lat="43.3930423" lon="-4.584623"><ele>48.0</ele><time>2026-05-02T08:32:38.96Z</time></trkpt><trkpt lat="43.392961" lon="-4.584449"><ele>48.0</ele><time>2026-05-02T08:32:39.959Z</time></trkpt><trkpt lat="43.3928837" lon="-4.5842901"><ele>48.0</ele><time>2026-05-02T08:32:40.952Z</time></trkpt><trkpt lat="43.3928133" lon="-4.584124"><ele>46.5</ele><time>2026-05-02T08:32:41.952Z</time></trkpt><trkpt lat="43.3927398" lon="-4.5839547"><ele>45.0</ele><time>2026-05-02T08:32:42.952Z</time></trkpt><trkpt lat="43.3926757" lon="-4.5837925"><ele>43.5</ele><time>2026-05-02T08:32:43.948Z</time></trkpt><trkpt lat="43.3926051" lon="-4.583626"><ele>42.0</ele><time>2026-05-02T08:32:44.95Z</time></trkpt><trkpt lat="43.3925386" lon="-4.5834649"><ele>42.0</ele><time>2026-05-02T08:32:45.954Z</time></trkpt><trkpt lat="43.3924666" lon="-4.5832888"><ele>42.0</ele><time>2026-05-02T08:32:46.956Z</time></trkpt><trkpt lat="43.3923923" lon="-4.5831216"><ele>42.0</ele><time>2026-05-02T08:32:47.953Z</time></trkpt><trkpt lat="43.3923094" lon="-4.5829446"><ele>42.0</ele><time>2026-05-02T08:32:48.953Z</time></trkpt><trkpt lat="43.3922252" lon="-4.5827664"><ele>39.666666666666664</ele><time>2026-05-02T08:32:49.965Z</time></trkpt><trkpt lat="43.392144" lon="-4.5825878"><ele>37.33333333333333</ele><time>2026-05-02T08:32:50.955Z</time></trkpt><trkpt lat="43.3920581" lon="-4.5824136"><ele>35.0</ele><time>2026-05-02T08:32:51.949Z</time></trkpt><trkpt lat="43.3919614" lon="-4.5822408"><ele>35.0</ele><time>2026-05-02T08:32:52.963Z</time></trkpt><trkpt lat="43.3918716" lon="-4.5820684"><ele>35.0</ele><time>2026-05-02T08:32:53.951Z</time></trkpt><trkpt lat="43.3917849" lon="-4.5819083"><ele>35.0</ele><time>2026-05-02T08:32:54.951Z</time></trkpt><trkpt lat="43.3916973" lon="-4.5817413"><ele>35.0</ele><time>2026-05-02T08:32:55.951Z</time></trkpt><trkpt lat="43.391612" lon="-4.5815724"><ele>33.5</ele><time>2026-05-02T08:32:56.95Z</time></trkpt><trkpt lat="43.3915217" lon="-4.5814108"><ele>32.0</ele><time>2026-05-02T08:32:57.953Z</time></trkpt><trkpt lat="43.3914348" lon="-4.5812477"><ele>30.5</ele><time>2026-05-02T08:32:58.953Z</time></trkpt><trkpt lat="43.3913529" lon="-4.5810887"><ele>29.0</ele><time>2026-05-02T08:32:59.956Z</time></trkpt><trkpt lat="43.3912605" lon="-4.5809335"><ele>23.0</ele><time>2026-05-02T08:33:00.953Z</time></trkpt><trkpt lat="43.391161" lon="-4.5807644"><ele>17.0</ele><time>2026-05-02T08:33:01.958Z</time></trkpt><trkpt lat="43.3910694" lon="-4.5805919"><ele>11.0</ele><time>2026-05-02T08:33:02.956Z</time></trkpt><trkpt lat="43.3909778" lon="-4.5804287"><ele>9.666666666666666</ele><time>2026-05-02T08:33:03.955Z</time></trkpt><trkpt lat="43.3908836" lon="-4.580263"><ele>8.333333333333334</ele><time>2026-05-02T08:33:04.951Z</time></trkpt><trkpt lat="43.3907859" lon="-4.5800979"><ele>7.0</ele><time>2026-05-02T08:33:05.951Z</time></trkpt><trkpt lat="43.3906775" lon="-4.5799348"><ele>7.0</ele><time>2026-05-02T08:33:06.953Z</time></trkpt><trkpt lat="43.3905729" lon="-4.5797693"><ele>7.0</ele><time>2026-05-02T08:33:07.954Z</time></trkpt><trkpt lat="43.3904648" lon="-4.5796102"><ele>7.0</ele><time>2026-05-02T08:33:08.956Z</time></trkpt><trkpt lat="43.3903481" lon="-4.579473"><ele>9.0</ele><time>2026-05-02T08:33:09.952Z</time></trkpt><trkpt lat="43.3902242" lon="-4.5793564"><ele>11.0</ele><time>2026-05-02T08:33:10.949Z</time></trkpt><trkpt lat="43.3900861" lon="-4.5792631"><ele>13.0</ele><time>2026-05-02T08:33:11.951Z</time></trkpt><trkpt lat="43.3899496" lon="-4.5791893"><ele>13.0</ele><time>2026-05-02T08:33:12.951Z</time></trkpt><trkpt lat="43.389808" lon="-4.5791284"><ele>13.0</ele><time>2026-05-02T08:33:13.952Z</time></trkpt><trkpt lat="43.3896648" lon="-4.5790683"><ele>13.0</ele><time>2026-05-02T08:33:14.957Z</time></trkpt><trkpt lat="43.3895173" lon="-4.5790064"><ele>17.333333333333332</ele><time>2026-05-02T08:33:15.948Z</time></trkpt><trkpt lat="43.3893618" lon="-4.5789368"><ele>21.666666666666664</ele><time>2026-05-02T08:33:16.947Z</time></trkpt><trkpt lat="43.389213" lon="-4.5788684"><ele>26.0</ele><time>2026-05-02T08:33:17.945Z</time></trkpt><trkpt lat="43.3890893" lon="-4.5787978"><ele>26.0</ele><time>2026-05-02T08:33:18.953Z</time></trkpt><trkpt lat="43.3889593" lon="-4.5787153"><ele>26.0</ele><time>2026-05-02T08:33:19.943Z</time></trkpt><trkpt lat="43.3888225" lon="-4.5786325"><ele>26.0</ele><time>2026-05-02T08:33:20.957Z</time></trkpt><trkpt lat="43.3886908" lon="-4.5785248"><ele>26.0</ele><time>2026-05-02T08:33:21.931Z</time></trkpt><trkpt lat="43.3885766" lon="-4.5784092"><ele>25.75</ele><time>2026-05-02T08:33:22.947Z</time></trkpt><trkpt lat="43.3884755" lon="-4.5782678"><ele>25.5</ele><time>2026-05-02T08:33:23.936Z</time></trkpt><trkpt lat="43.3883732" lon="-4.5781238"><ele>25.25</ele><time>2026-05-02T08:33:24.942Z</time></trkpt><trkpt lat="43.3882815" lon="-4.5779682"><ele>25.0</ele><time>2026-05-02T08:33:25.955Z</time></trkpt><trkpt lat="43.3881786" lon="-4.5778122"><ele>26.75</ele><time>2026-05-02T08:33:26.954Z</time></trkpt><trkpt lat="43.3880861" lon="-4.5776601"><ele>28.5</ele><time>2026-05-02T08:33:27.953Z</time></trkpt><trkpt lat="43.3879885" lon="-4.577505"><ele>30.25</ele><time>2026-05-02T08:33:28.956Z</time></trkpt><trkpt lat="43.3878916" lon="-4.577352"><ele>32.0</ele><time>2026-05-02T08:33:29.956Z</time></trkpt><trkpt lat="43.3877961" lon="-4.5772055"><ele>32.75</ele><time>2026-05-02T08:33:30.953Z</time></trkpt><trkpt lat="43.3877005" lon="-4.5770594"><ele>33.5</ele><time>2026-05-02T08:33:31.957Z</time></trkpt><trkpt lat="43.3876051" lon="-4.5769212"><ele>34.25</ele><time>2026-05-02T08:33:32.947Z</time></trkpt><trkpt lat="43.3875122" lon="-4.5767844"><ele>35.0</ele><time>2026-05-02T08:33:33.947Z</time></trkpt><trkpt lat="43.3874189" lon="-4.5766445"><ele>35.0</ele><time>2026-05-02T08:33:34.945Z</time></trkpt><trkpt lat="43.3873285" lon="-4.5765061"><ele>35.0</ele><time>2026-05-02T08:33:35.95Z</time></trkpt><trkpt lat="43.3872364" lon="-4.5763698"><ele>35.0</ele><time>2026-05-02T08:33:36.951Z</time></trkpt><trkpt lat="43.3871363" lon="-4.57623"><ele>35.0</ele><time>2026-05-02T08:33:37.953Z</time></trkpt><trkpt lat="43.3870365" lon="-4.5760836"><ele>34.75</ele><time>2026-05-02T08:33:38.954Z</time></trkpt><trkpt lat="43.3869406" lon="-4.5759348"><ele>34.5</ele><time>2026-05-02T08:33:39.946Z</time></trkpt><trkpt lat="43.3868458" lon="-4.5757911"><ele>34.25</ele><time>2026-05-02T08:33:40.955Z</time></trkpt><trkpt lat="43.3867677" lon="-4.5756395"><ele>34.0</ele><time>2026-05-02T08:33:41.954Z</time></trkpt><trkpt lat="43.3866902" lon="-4.5754834"><ele>35.0</ele><time>2026-05-02T08:33:42.951Z</time></trkpt><trkpt lat="43.3866248" lon="-4.5753341"><ele>36.0</ele><time>2026-05-02T08:33:43.955Z</time></trkpt><trkpt lat="43.3865577" lon="-4.5751829"><ele>37.0</ele><time>2026-05-02T08:33:44.957Z</time></trkpt><trkpt lat="43.3864959" lon="-4.5750264"><ele>38.0</ele><time>2026-05-02T08:33:45.955Z</time></trkpt><trkpt lat="43.3864402" lon="-4.5748661"><ele>38.0</ele><time>2026-05-02T08:33:46.954Z</time></trkpt><trkpt lat="43.386387" lon="-4.5747119"><ele>38.0</ele><time>2026-05-02T08:33:47.955Z</time></trkpt><trkpt lat="43.3863332" lon="-4.5745516"><ele>38.0</ele><time>2026-05-02T08:33:48.957Z</time></trkpt><trkpt lat="43.3862765" lon="-4.5743992"><ele>38.0</ele><time>2026-05-02T08:33:49.959Z</time></trkpt><trkpt lat="43.3862189" lon="-4.5742458"><ele>37.75</ele><time>2026-05-02T08:33:50.963Z</time></trkpt><trkpt lat="43.386158" lon="-4.5740944"><ele>37.5</ele><time>2026-05-02T08:33:51.973Z</time></trkpt><trkpt lat="43.3860988" lon="-4.5739366"><ele>37.25</ele><time>2026-05-02T08:33:52.964Z</time></trkpt><trkpt lat="43.3860418" lon="-4.5737779"><ele>37.0</ele><time>2026-05-02T08:33:53.955Z</time></trkpt><trkpt lat="43.3859847" lon="-4.5736185"><ele>37.5</ele><time>2026-05-02T08:33:54.951Z</time></trkpt><trkpt lat="43.3859262" lon="-4.5734574"><ele>38.0</ele><time>2026-05-02T08:33:55.953Z</time></trkpt><trkpt lat="43.385872" lon="-4.5732884"><ele>38.5</ele><time>2026-05-02T08:33:56.959Z</time></trkpt><trkpt lat="43.3858186" lon="-4.5731192"><ele>39.0</ele><time>2026-05-02T08:33:57.963Z</time></trkpt><trkpt lat="43.3857672" lon="-4.5729455"><ele>39.5</ele><time>2026-05-02T08:33:58.963Z</time></trkpt><trkpt lat="43.3857176" lon="-4.5727706"><ele>40.0</ele><time>2026-05-02T08:33:59.961Z</time></trkpt><trkpt lat="43.3856683" lon="-4.5725963"><ele>40.5</ele><time>2026-05-02T08:34:00.96Z</time></trkpt><trkpt lat="43.3856225" lon="-4.5724109"><ele>41.0</ele><time>2026-05-02T08:34:01.962Z</time></trkpt><trkpt lat="43.3855821" lon="-4.5722391"><ele>41.0</ele><time>2026-05-02T08:34:02.961Z</time></trkpt><trkpt lat="43.3855395" lon="-4.5720619"><ele>41.0</ele><time>2026-05-02T08:34:03.959Z</time></trkpt><trkpt lat="43.3854972" lon="-4.5718846"><ele>41.0</ele><time>2026-05-02T08:34:04.961Z</time></trkpt><trkpt lat="43.3854509" lon="-4.5717157"><ele>41.0</ele><time>2026-05-02T08:34:05.957Z</time></trkpt><trkpt lat="43.3854166" lon="-4.571536"><ele>42.75</ele><time>2026-05-02T08:34:06.961Z</time></trkpt><trkpt lat="43.3853712" lon="-4.5713484"><ele>44.5</ele><time>2026-05-02T08:34:07.962Z</time></trkpt><trkpt lat="43.3853287" lon="-4.5711581"><ele>46.25</ele><time>2026-05-02T08:34:08.962Z</time></trkpt><trkpt lat="43.3852823" lon="-4.5709604"><ele>48.0</ele><time>2026-05-02T08:34:09.959Z</time></trkpt><trkpt lat="43.385231" lon="-4.5707598"><ele>48.0</ele><time>2026-05-02T08:34:10.958Z</time></trkpt><trkpt lat="43.3851727" lon="-4.5705432"><ele>48.0</ele><time>2026-05-02T08:34:11.956Z</time></trkpt><trkpt lat="43.3851156" lon="-4.5703469"><ele>48.0</ele><time>2026-05-02T08:34:12.957Z</time></trkpt><trkpt lat="43.3850524" lon="-4.5701468"><ele>47.333333333333336</ele><time>2026-05-02T08:34:13.961Z</time></trkpt><trkpt lat="43.3849869" lon="-4.5699421"><ele>46.66666666666667</ele><time>2026-05-02T08:34:14.96Z</time></trkpt><trkpt lat="43.3849208" lon="-4.5697368"><ele>46.0</ele><time>2026-05-02T08:34:15.961Z</time></trkpt><trkpt lat="43.3848489" lon="-4.5695443"><ele>45.66666666666667</ele><time>2026-05-02T08:34:16.957Z</time></trkpt><trkpt lat="43.3847789" lon="-4.5693618"><ele>45.333333333333336</ele><time>2026-05-02T08:34:17.956Z</time></trkpt><trkpt lat="43.3847088" lon="-4.5691743"><ele>45.0</ele><time>2026-05-02T08:34:18.954Z</time></trkpt><trkpt lat="43.3846395" lon="-4.5689921"><ele>45.0</ele><time>2026-05-02T08:34:19.961Z</time></trkpt><trkpt lat="43.3845757" lon="-4.5688176"><ele>45.0</ele><time>2026-05-02T08:34:20.962Z</time></trkpt><trkpt lat="43.3845206" lon="-4.5686462"><ele>45.0</ele><time>2026-05-02T08:34:21.959Z</time></trkpt><trkpt lat="43.3844609" lon="-4.5684788"><ele>45.0</ele><time>2026-05-02T08:34:22.979Z</time></trkpt><trkpt lat="43.3843942" lon="-4.5683261"><ele>45.0</ele><time>2026-05-02T08:34:23.96Z</time></trkpt><trkpt lat="43.3843252" lon="-4.5681567"><ele>45.0</ele><time>2026-05-02T08:34:24.961Z</time></trkpt><trkpt lat="43.3842602" lon="-4.5679885"><ele>45.0</ele><time>2026-05-02T08:34:25.961Z</time></trkpt><trkpt lat="43.3841984" lon="-4.5678164"><ele>45.0</ele><time>2026-05-02T08:34:26.961Z</time></trkpt><trkpt lat="43.3841422" lon="-4.5676478"><ele>45.5</ele><time>2026-05-02T08:34:27.963Z</time></trkpt><trkpt lat="43.3840926" lon="-4.567474"><ele>46.0</ele><time>2026-05-02T08:34:28.963Z</time></trkpt><trkpt lat="43.3840387" lon="-4.5673044"><ele>46.5</ele><time>2026-05-02T08:34:29.963Z</time></trkpt><trkpt lat="43.3839836" lon="-4.5671389"><ele>47.0</ele><time>2026-05-02T08:34:30.962Z</time></trkpt><trkpt lat="43.3839315" lon="-4.5669827"><ele>47.0</ele><time>2026-05-02T08:34:31.966Z</time></trkpt><trkpt lat="43.3838803" lon="-4.5668394"><ele>47.0</ele><time>2026-05-02T08:34:32.961Z</time></trkpt><trkpt lat="43.3838326" lon="-4.5667027"><ele>47.0</ele><time>2026-05-02T08:34:33.955Z</time></trkpt><trkpt lat="43.3837846" lon="-4.5665781"><ele>47.0</ele><time>2026-05-02T08:34:34.961Z</time></trkpt><trkpt lat="43.3837372" lon="-4.5664782"><ele>47.0</ele><time>2026-05-02T08:34:35.954Z</time></trkpt><trkpt lat="43.3836874" lon="-4.566406"><ele>47.6</ele><time>2026-05-02T08:34:36.966Z</time></trkpt><trkpt lat="43.3835839" lon="-4.5663417"><ele>48.2</ele><time>2026-05-02T08:34:38.963Z</time></trkpt><trkpt lat="43.3834578" lon="-4.5663437"><ele>48.8</ele><time>2026-05-02T08:34:40.967Z</time></trkpt><trkpt lat="43.3833867" lon="-4.5663561"><ele>49.4</ele><time>2026-05-02T08:34:41.959Z</time></trkpt><trkpt lat="43.3833135" lon="-4.5663527"><ele>50.0</ele><time>2026-05-02T08:34:42.956Z</time></trkpt><trkpt lat="43.3832475" lon="-4.5663183"><ele>50.00000000000001</ele><time>2026-05-02T08:34:43.958Z</time></trkpt><trkpt lat="43.3831855" lon="-4.5662511"><ele>50.0</ele><time>2026-05-02T08:34:44.949Z</time></trkpt><trkpt lat="43.3831434" lon="-4.5661785"><ele>50.0</ele><time>2026-05-02T08:34:45.95Z</time></trkpt><trkpt lat="43.3831279" lon="-4.5660301"><ele>50.0</ele><time>2026-05-02T08:34:47.956Z</time></trkpt><trkpt lat="43.3831576" lon="-4.5659535"><ele>50.00000000000001</ele><time>2026-05-02T08:34:48.959Z</time></trkpt><trkpt lat="43.3832022" lon="-4.5658826"><ele>50.0</ele><time>2026-05-02T08:34:49.959Z</time></trkpt><trkpt lat="43.3832593" lon="-4.5658278"><ele>50.714285714285715</ele><time>2026-05-02T08:34:50.96Z</time></trkpt><trkpt lat="43.3833278" lon="-4.5657947"><ele>51.42857142857143</ele><time>2026-05-02T08:34:51.967Z</time></trkpt><trkpt lat="43.3834023" lon="-4.56579"><ele>52.14285714285714</ele><time>2026-05-02T08:34:52.965Z</time></trkpt><trkpt lat="43.3834778" lon="-4.5658061"><ele>52.85714285714286</ele><time>2026-05-02T08:34:53.981Z</time></trkpt><trkpt lat="43.3835459" lon="-4.5658464"><ele>53.57142857142857</ele><time>2026-05-02T08:34:54.958Z</time></trkpt><trkpt lat="43.3836076" lon="-4.5659138"><ele>54.285714285714285</ele><time>2026-05-02T08:34:55.966Z</time></trkpt><trkpt lat="43.3836464" lon="-4.565998"><ele>55.0</ele><time>2026-05-02T08:34:56.959Z</time></trkpt><trkpt lat="43.3836731" lon="-4.5660798"><ele>54.99999999999999</ele><time>2026-05-02T08:34:57.96Z</time></trkpt><trkpt lat="43.3836752" lon="-4.5661711"><ele>55.0</ele><time>2026-05-02T08:34:58.962Z</time></trkpt><trkpt lat="43.3836542" lon="-4.5662635"><ele>55.0</ele><time>2026-05-02T08:34:59.964Z</time></trkpt><trkpt lat="43.3836156" lon="-4.566348"><ele>55.0</ele><time>2026-05-02T08:35:00.956Z</time></trkpt><trkpt lat="43.3835625" lon="-4.566417"><ele>55.0</ele><time>2026-05-02T08:35:01.959Z</time></trkpt><trkpt lat="43.3835" lon="-4.5664673"><ele>54.99999999999999</ele><time>2026-05-02T08:35:02.957Z</time></trkpt><trkpt lat="43.3834342" lon="-4.5664955"><ele>55.0</ele><time>2026-05-02T08:35:03.952Z</time></trkpt><trkpt lat="43.3833658" lon="-4.5664958"><ele>54.99999999999999</ele><time>2026-05-02T08:35:04.962Z</time></trkpt><trkpt lat="43.3832958" lon="-4.5664453"><ele>55.0</ele><time>2026-05-02T08:35:05.962Z</time></trkpt><trkpt lat="43.3832355" lon="-4.5663605"><ele>55.0</ele><time>2026-05-02T08:35:06.956Z</time></trkpt><trkpt lat="43.3831858" lon="-4.566261"><ele>55.0</ele><time>2026-05-02T08:35:07.955Z</time></trkpt><trkpt lat="43.383144" lon="-4.5661551"><ele>54.99999999999999</ele><time>2026-05-02T08:35:08.955Z</time></trkpt><trkpt lat="43.3830993" lon="-4.5660468"><ele>55.0</ele><time>2026-05-02T08:35:09.953Z</time></trkpt><trkpt lat="43.3830474" lon="-4.5659543"><ele>54.33333333333333</ele><time>2026-05-02T08:35:10.949Z</time></trkpt><trkpt lat="43.3829861" lon="-4.5658711"><ele>53.666666666666664</ele><time>2026-05-02T08:35:11.948Z</time></trkpt><trkpt lat="43.3829159" lon="-4.5658126"><ele>53.0</ele><time>2026-05-02T08:35:12.947Z</time></trkpt><trkpt lat="43.3828388" lon="-4.5657593"><ele>52.33333333333333</ele><time>2026-05-02T08:35:13.949Z</time></trkpt><trkpt lat="43.3827581" lon="-4.565716"><ele>51.666666666666664</ele><time>2026-05-02T08:35:14.95Z</time></trkpt><trkpt lat="43.382665" lon="-4.5656549"><ele>51.0</ele><time>2026-05-02T08:35:15.939Z</time></trkpt><trkpt lat="43.3825724" lon="-4.5656181"><ele>51.0</ele><time>2026-05-02T08:35:16.944Z</time></trkpt><trkpt lat="43.3824796" lon="-4.5655901"><ele>51.0</ele><time>2026-05-02T08:35:17.952Z</time></trkpt><trkpt lat="43.3823899" lon="-4.5655684"><ele>51.0</ele><time>2026-05-02T08:35:18.953Z</time></trkpt><trkpt lat="43.3823055" lon="-4.5655609"><ele>51.0</ele><time>2026-05-02T08:35:19.957Z</time></trkpt><trkpt lat="43.3822226" lon="-4.5655715"><ele>51.0</ele><time>2026-05-02T08:35:20.958Z</time></trkpt><trkpt lat="43.3821444" lon="-4.5655994"><ele>51.0</ele><time>2026-05-02T08:35:21.959Z</time></trkpt><trkpt lat="43.3820692" lon="-4.5656383"><ele>51.142857142857146</ele><time>2026-05-02T08:35:22.969Z</time></trkpt><trkpt lat="43.381995" lon="-4.5656681"><ele>51.28571428571429</ele><time>2026-05-02T08:35:23.96Z</time></trkpt><trkpt lat="43.381922" lon="-4.5656747"><ele>51.42857142857143</ele><time>2026-05-02T08:35:24.975Z</time></trkpt><trkpt lat="43.3818594" lon="-4.5656415"><ele>51.57142857142857</ele><time>2026-05-02T08:35:25.959Z</time></trkpt><trkpt lat="43.3818118" lon="-4.565581"><ele>51.714285714285715</ele><time>2026-05-02T08:35:26.957Z</time></trkpt><trkpt lat="43.3817813" lon="-4.5655"><ele>51.857142857142854</ele><time>2026-05-02T08:35:27.96Z</time></trkpt><trkpt lat="43.3817729" lon="-4.5654048"><ele>52.0</ele><time>2026-05-02T08:35:28.964Z</time></trkpt><trkpt lat="43.3817894" lon="-4.5653027"><ele>51.99999999999999</ele><time>2026-05-02T08:35:29.96Z</time></trkpt><trkpt lat="43.3818262" lon="-4.5652082"><ele>52.0</ele><time>2026-05-02T08:35:30.964Z</time></trkpt><trkpt lat="43.3818813" lon="-4.5651221"><ele>52.0</ele><time>2026-05-02T08:35:31.967Z</time></trkpt><trkpt lat="43.3819505" lon="-4.5650573"><ele>52.0</ele><time>2026-05-02T08:35:32.966Z</time></trkpt><trkpt lat="43.3820298" lon="-4.5650224"><ele>51.99999999999999</ele><time>2026-05-02T08:35:33.963Z</time></trkpt><trkpt lat="43.3821107" lon="-4.5649832"><ele>52.0</ele><time>2026-05-02T08:35:34.96Z</time></trkpt><trkpt lat="43.3821849" lon="-4.5649292"><ele>53.0</ele><time>2026-05-02T08:35:35.959Z</time></trkpt><trkpt lat="43.3822449" lon="-4.564847"><ele>54.0</ele><time>2026-05-02T08:35:36.953Z</time></trkpt><trkpt lat="43.382294" lon="-4.5647385"><ele>55.0</ele><time>2026-05-02T08:35:37.956Z</time></trkpt><trkpt lat="43.3823332" lon="-4.5646084"><ele>56.0</ele><time>2026-05-02T08:35:38.955Z</time></trkpt><trkpt lat="43.3823614" lon="-4.5644643"><ele>57.0</ele><time>2026-05-02T08:35:39.959Z</time></trkpt><trkpt lat="43.3823838" lon="-4.5643134"><ele>57.75</ele><time>2026-05-02T08:35:40.959Z</time></trkpt><trkpt lat="43.3824039" lon="-4.5641497"><ele>58.5</ele><time>2026-05-02T08:35:41.959Z</time></trkpt><trkpt lat="43.3824213" lon="-4.5639894"><ele>59.25</ele><time>2026-05-02T08:35:42.959Z</time></trkpt><trkpt lat="43.3824304" lon="-4.563826"><ele>60.0</ele><time>2026-05-02T08:35:43.96Z</time></trkpt><trkpt lat="43.382434" lon="-4.5636622"><ele>60.25</ele><time>2026-05-02T08:35:44.957Z</time></trkpt><trkpt lat="43.3824344" lon="-4.5634968"><ele>60.5</ele><time>2026-05-02T08:35:45.955Z</time></trkpt><trkpt lat="43.3824321" lon="-4.563334"><ele>60.75</ele><time>2026-05-02T08:35:46.958Z</time></trkpt><trkpt lat="43.3824235" lon="-4.5631717"><ele>61.0</ele><time>2026-05-02T08:35:47.957Z</time></trkpt><trkpt lat="43.3824098" lon="-4.5630134"><ele>61.0</ele><time>2026-05-02T08:35:48.955Z</time></trkpt><trkpt lat="43.3823913" lon="-4.5628552"><ele>61.0</ele><time>2026-05-02T08:35:49.952Z</time></trkpt><trkpt lat="43.3823719" lon="-4.5626921"><ele>61.0</ele><time>2026-05-02T08:35:50.961Z</time></trkpt><trkpt lat="43.3823508" lon="-4.5625326"><ele>61.0</ele><time>2026-05-02T08:35:51.965Z</time></trkpt><trkpt lat="43.3823336" lon="-4.5623726"><ele>61.0</ele><time>2026-05-02T08:35:52.969Z</time></trkpt><trkpt lat="43.3823135" lon="-4.5622067"><ele>61.0</ele><time>2026-05-02T08:35:53.963Z</time></trkpt><trkpt lat="43.3822949" lon="-4.562043"><ele>61.0</ele><time>2026-05-02T08:35:54.965Z</time></trkpt><trkpt lat="43.382277" lon="-4.5618751"><ele>61.0</ele><time>2026-05-02T08:35:55.979Z</time></trkpt><trkpt lat="43.3822566" lon="-4.5617097"><ele>61.0</ele><time>2026-05-02T08:35:56.972Z</time></trkpt><trkpt lat="43.3822342" lon="-4.5615427"><ele>61.0</ele><time>2026-05-02T08:35:57.966Z</time></trkpt><trkpt lat="43.3822148" lon="-4.5613764"><ele>61.0</ele><time>2026-05-02T08:35:58.966Z</time></trkpt><trkpt lat="43.3821959" lon="-4.5612059"><ele>61.0</ele><time>2026-05-02T08:35:59.967Z</time></trkpt><trkpt lat="43.3821769" lon="-4.5610387"><ele>62.25</ele><time>2026-05-02T08:36:00.966Z</time></trkpt><trkpt lat="43.3821587" lon="-4.5608682"><ele>63.5</ele><time>2026-05-02T08:36:01.958Z</time></trkpt><trkpt lat="43.3821422" lon="-4.5607003"><ele>64.75</ele><time>2026-05-02T08:36:02.963Z</time></trkpt><trkpt lat="43.3821259" lon="-4.560537"><ele>66.0</ele><time>2026-05-02T08:36:03.96Z</time></trkpt><trkpt lat="43.3821107" lon="-4.5603772"><ele>66.5</ele><time>2026-05-02T08:36:04.96Z</time></trkpt><trkpt lat="43.3820955" lon="-4.5602223"><ele>67.0</ele><time>2026-05-02T08:36:05.962Z</time></trkpt><trkpt lat="43.3820752" lon="-4.5600577"><ele>67.5</ele><time>2026-05-02T08:36:06.962Z</time></trkpt><trkpt lat="43.3820584" lon="-4.5598939"><ele>68.0</ele><time>2026-05-02T08:36:07.962Z</time></trkpt><trkpt lat="43.3820409" lon="-4.55973"><ele>68.0</ele><time>2026-05-02T08:36:08.962Z</time></trkpt><trkpt lat="43.3820239" lon="-4.5595653"><ele>68.0</ele><time>2026-05-02T08:36:09.963Z</time></trkpt><trkpt lat="43.3820078" lon="-4.5594003"><ele>68.0</ele><time>2026-05-02T08:36:10.963Z</time></trkpt><trkpt lat="43.38199" lon="-4.5592338"><ele>68.0</ele><time>2026-05-02T08:36:11.963Z</time></trkpt><trkpt lat="43.3819751" lon="-4.5590679"><ele>68.25</ele><time>2026-05-02T08:36:12.964Z</time></trkpt><trkpt lat="43.3819603" lon="-4.5588992"><ele>68.5</ele><time>2026-05-02T08:36:13.965Z</time></trkpt><trkpt lat="43.3819411" lon="-4.5587296"><ele>68.75</ele><time>2026-05-02T08:36:14.964Z</time></trkpt><trkpt lat="43.3819232" lon="-4.5585636"><ele>69.0</ele><time>2026-05-02T08:36:15.963Z</time></trkpt><trkpt lat="43.3819072" lon="-4.5583974"><ele>69.0</ele><time>2026-05-02T08:36:16.959Z</time></trkpt><trkpt lat="43.3818799" lon="-4.5582193"><ele>69.0</ele><time>2026-05-02T08:36:17.959Z</time></trkpt><trkpt lat="43.3818564" lon="-4.5580459"><ele>69.0</ele><time>2026-05-02T08:36:18.957Z</time></trkpt><trkpt lat="43.3818247" lon="-4.5578765"><ele>69.0</ele><time>2026-05-02T08:36:19.958Z</time></trkpt><trkpt lat="43.381789" lon="-4.5577052"><ele>68.25</ele><time>2026-05-02T08:36:20.955Z</time></trkpt><trkpt lat="43.3817541" lon="-4.5575363"><ele>67.5</ele><time>2026-05-02T08:36:21.958Z</time></trkpt><trkpt lat="43.3817105" lon="-4.5573634"><ele>66.75</ele><time>2026-05-02T08:36:22.96Z</time></trkpt><trkpt lat="43.3816654" lon="-4.5571951"><ele>66.0</ele><time>2026-05-02T08:36:23.963Z</time></trkpt><trkpt lat="43.3816227" lon="-4.5570216"><ele>64.5</ele><time>2026-05-02T08:36:24.963Z</time></trkpt><trkpt lat="43.381577" lon="-4.5568515"><ele>63.0</ele><time>2026-05-02T08:36:25.962Z</time></trkpt><trkpt lat="43.3815255" lon="-4.5566841"><ele>61.5</ele><time>2026-05-02T08:36:26.978Z</time></trkpt><trkpt lat="43.3814687" lon="-4.5565184"><ele>60.0</ele><time>2026-05-02T08:36:27.967Z</time></trkpt><trkpt lat="43.3814122" lon="-4.5563588"><ele>59.75</ele><time>2026-05-02T08:36:28.966Z</time></trkpt><trkpt lat="43.3813599" lon="-4.5561984"><ele>59.5</ele><time>2026-05-02T08:36:29.969Z</time></trkpt><trkpt lat="43.3813094" lon="-4.5560404"><ele>59.25</ele><time>2026-05-02T08:36:30.968Z</time></trkpt><trkpt lat="43.38126" lon="-4.5558826"><ele>59.0</ele><time>2026-05-02T08:36:31.971Z</time></trkpt><trkpt lat="43.3812085" lon="-4.5557336"><ele>59.0</ele><time>2026-05-02T08:36:32.966Z</time></trkpt><trkpt lat="43.3811622" lon="-4.5555914"><ele>59.00000000000001</ele><time>2026-05-02T08:36:33.967Z</time></trkpt><trkpt lat="43.3811117" lon="-4.5554491"><ele>59.00000000000001</ele><time>2026-05-02T08:36:34.967Z</time></trkpt><trkpt lat="43.3810672" lon="-4.5553101"><ele>59.0</ele><time>2026-05-02T08:36:35.968Z</time></trkpt><trkpt lat="43.3810264" lon="-4.5551734"><ele>59.0</ele><time>2026-05-02T08:36:36.968Z</time></trkpt><trkpt lat="43.3809871" lon="-4.5550364"><ele>59.2</ele><time>2026-05-02T08:36:37.971Z</time></trkpt><trkpt lat="43.380949" lon="-4.5548986"><ele>59.400000000000006</ele><time>2026-05-02T08:36:38.977Z</time></trkpt><trkpt lat="43.3809074" lon="-4.5547671"><ele>59.6</ele><time>2026-05-02T08:36:39.969Z</time></trkpt><trkpt lat="43.3808614" lon="-4.5546385"><ele>59.8</ele><time>2026-05-02T08:36:40.971Z</time></trkpt><trkpt lat="43.3808116" lon="-4.554508"><ele>60.0</ele><time>2026-05-02T08:36:41.972Z</time></trkpt><trkpt lat="43.3807645" lon="-4.5543803"><ele>61.4</ele><time>2026-05-02T08:36:42.972Z</time></trkpt><trkpt lat="43.3807243" lon="-4.554253"><ele>62.8</ele><time>2026-05-02T08:36:43.971Z</time></trkpt><trkpt lat="43.3806842" lon="-4.5541209"><ele>64.2</ele><time>2026-05-02T08:36:44.968Z</time></trkpt><trkpt lat="43.380645" lon="-4.5539819"><ele>65.6</ele><time>2026-05-02T08:36:45.969Z</time></trkpt><trkpt lat="43.3805992" lon="-4.553834"><ele>67.0</ele><time>2026-05-02T08:36:46.969Z</time></trkpt><trkpt lat="43.3805526" lon="-4.5536893"><ele>67.0</ele><time>2026-05-02T08:36:47.963Z</time></trkpt><trkpt lat="43.3805058" lon="-4.5535458"><ele>67.0</ele><time>2026-05-02T08:36:48.971Z</time></trkpt><trkpt lat="43.3804628" lon="-4.5534074"><ele>67.0</ele><time>2026-05-02T08:36:49.963Z</time></trkpt><trkpt lat="43.3804209" lon="-4.5532644"><ele>67.0</ele><time>2026-05-02T08:36:50.965Z</time></trkpt><trkpt lat="43.3803766" lon="-4.553115"><ele>67.0</ele><time>2026-05-02T08:36:51.965Z</time></trkpt><trkpt lat="43.3803335" lon="-4.5529564"><ele>67.0</ele><time>2026-05-02T08:36:52.967Z</time></trkpt><trkpt lat="43.3802853" lon="-4.5528003"><ele>67.0</ele><time>2026-05-02T08:36:53.964Z</time></trkpt><trkpt lat="43.3802348" lon="-4.5526354"><ele>67.0</ele><time>2026-05-02T08:36:54.962Z</time></trkpt><trkpt lat="43.3801812" lon="-4.5524757"><ele>68.25</ele><time>2026-05-02T08:36:55.965Z</time></trkpt><trkpt lat="43.3801238" lon="-4.5523124"><ele>69.5</ele><time>2026-05-02T08:36:56.966Z</time></trkpt><trkpt lat="43.3800659" lon="-4.5521425"><ele>70.75</ele><time>2026-05-02T08:36:57.999Z</time></trkpt><trkpt lat="43.3800129" lon="-4.5519737"><ele>72.0</ele><time>2026-05-02T08:36:58.961Z</time></trkpt><trkpt lat="43.3799626" lon="-4.5518062"><ele>72.75</ele><time>2026-05-02T08:36:59.968Z</time></trkpt><trkpt lat="43.3799128" lon="-4.5516401"><ele>73.5</ele><time>2026-05-02T08:37:00.96Z</time></trkpt><trkpt lat="43.3798674" lon="-4.5514721"><ele>74.25</ele><time>2026-05-02T08:37:01.961Z</time></trkpt><trkpt lat="43.3798285" lon="-4.5513017"><ele>75.0</ele><time>2026-05-02T08:37:02.961Z</time></trkpt><trkpt lat="43.3797929" lon="-4.5511286"><ele>75.0</ele><time>2026-05-02T08:37:03.963Z</time></trkpt><trkpt lat="43.3797637" lon="-4.5509542"><ele>75.0</ele><time>2026-05-02T08:37:04.958Z</time></trkpt><trkpt lat="43.3797388" lon="-4.550778"><ele>75.0</ele><time>2026-05-02T08:37:05.963Z</time></trkpt><trkpt lat="43.3797143" lon="-4.5505935"><ele>75.0</ele><time>2026-05-02T08:37:06.96Z</time></trkpt><trkpt lat="43.3796846" lon="-4.5504099"><ele>76.25</ele><time>2026-05-02T08:37:07.961Z</time></trkpt><trkpt lat="43.3796609" lon="-4.5502266"><ele>77.5</ele><time>2026-05-02T08:37:08.959Z</time></trkpt><trkpt lat="43.3796329" lon="-4.5500389"><ele>78.75</ele><time>2026-05-02T08:37:09.959Z</time></trkpt><trkpt lat="43.3796043" lon="-4.5498486"><ele>80.0</ele><time>2026-05-02T08:37:10.956Z</time></trkpt><trkpt lat="43.3795746" lon="-4.5496483"><ele>80.0</ele><time>2026-05-02T08:37:11.958Z</time></trkpt><trkpt lat="43.3795418" lon="-4.5494517"><ele>80.0</ele><time>2026-05-02T08:37:12.955Z</time></trkpt><trkpt lat="43.3795101" lon="-4.5492494"><ele>80.0</ele><time>2026-05-02T08:37:13.955Z</time></trkpt><trkpt lat="43.3794761" lon="-4.5490427"><ele>80.0</ele><time>2026-05-02T08:37:14.951Z</time></trkpt><trkpt lat="43.3794353" lon="-4.5488509"><ele>80.0</ele><time>2026-05-02T08:37:15.955Z</time></trkpt><trkpt lat="43.3793945" lon="-4.5486467"><ele>80.0</ele><time>2026-05-02T08:37:16.955Z</time></trkpt><trkpt lat="43.3793539" lon="-4.5484399"><ele>78.0</ele><time>2026-05-02T08:37:17.955Z</time></trkpt><trkpt lat="43.3793105" lon="-4.5482307"><ele>76.0</ele><time>2026-05-02T08:37:18.956Z</time></trkpt><trkpt lat="43.3792646" lon="-4.5480221"><ele>74.0</ele><time>2026-05-02T08:37:19.955Z</time></trkpt><trkpt lat="43.3792239" lon="-4.5478104"><ele>72.66666666666667</ele><time>2026-05-02T08:37:20.957Z</time></trkpt><trkpt lat="43.379179" lon="-4.5476055"><ele>71.33333333333333</ele><time>2026-05-02T08:37:21.959Z</time></trkpt><trkpt lat="43.3791316" lon="-4.547404"><ele>70.0</ele><time>2026-05-02T08:37:22.957Z</time></trkpt><trkpt lat="43.3790837" lon="-4.547206"><ele>67.33333333333333</ele><time>2026-05-02T08:37:23.955Z</time></trkpt><trkpt lat="43.379042" lon="-4.5470104"><ele>64.66666666666667</ele><time>2026-05-02T08:37:24.951Z</time></trkpt><trkpt lat="43.3789964" lon="-4.5468135"><ele>62.0</ele><time>2026-05-02T08:37:25.955Z</time></trkpt><trkpt lat="43.3789521" lon="-4.5466127"><ele>62.0</ele><time>2026-05-02T08:37:26.955Z</time></trkpt><trkpt lat="43.3789059" lon="-4.5464184"><ele>62.0</ele><time>2026-05-02T08:37:27.968Z</time></trkpt><trkpt lat="43.3788473" lon="-4.5462184"><ele>62.0</ele><time>2026-05-02T08:37:28.957Z</time></trkpt><trkpt lat="43.3787925" lon="-4.546022"><ele>65.25</ele><time>2026-05-02T08:37:29.955Z</time></trkpt><trkpt lat="43.378737" lon="-4.5458227"><ele>68.5</ele><time>2026-05-02T08:37:30.954Z</time></trkpt><trkpt lat="43.3786899" lon="-4.5456374"><ele>71.75</ele><time>2026-05-02T08:37:31.952Z</time></trkpt><trkpt lat="43.378638" lon="-4.545446"><ele>75.0</ele><time>2026-05-02T08:37:32.952Z</time></trkpt><trkpt lat="43.3785802" lon="-4.5452614"><ele>75.0</ele><time>2026-05-02T08:37:33.949Z</time></trkpt><trkpt lat="43.3785243" lon="-4.5450723"><ele>75.0</ele><time>2026-05-02T08:37:34.951Z</time></trkpt><trkpt lat="43.3784721" lon="-4.5448864"><ele>75.0</ele><time>2026-05-02T08:37:35.95Z</time></trkpt><trkpt lat="43.3784163" lon="-4.5447011"><ele>75.0</ele><time>2026-05-02T08:37:36.947Z</time></trkpt><trkpt lat="43.3783668" lon="-4.5445204"><ele>73.75</ele><time>2026-05-02T08:37:37.95Z</time></trkpt><trkpt lat="43.3783261" lon="-4.5443413"><ele>72.5</ele><time>2026-05-02T08:37:38.949Z</time></trkpt><trkpt lat="43.3782875" lon="-4.5441424"><ele>71.25</ele><time>2026-05-02T08:37:39.947Z</time></trkpt><trkpt lat="43.3782524" lon="-4.5439467"><ele>70.0</ele><time>2026-05-02T08:37:40.947Z</time></trkpt><trkpt lat="43.3782293" lon="-4.5437514"><ele>69.0</ele><time>2026-05-02T08:37:41.949Z</time></trkpt><trkpt lat="43.3782079" lon="-4.5435627"><ele>68.0</ele><time>2026-05-02T08:37:42.95Z</time></trkpt><trkpt lat="43.3781988" lon="-4.5433696"><ele>67.0</ele><time>2026-05-02T08:37:43.95Z</time></trkpt><trkpt lat="43.3781843" lon="-4.543168"><ele>66.0</ele><time>2026-05-02T08:37:44.952Z</time></trkpt><trkpt lat="43.3781584" lon="-4.5429621"><ele>65.5</ele><time>2026-05-02T08:37:45.958Z</time></trkpt><trkpt lat="43.3781315" lon="-4.5427715"><ele>65.0</ele><time>2026-05-02T08:37:46.959Z</time></trkpt><trkpt lat="43.3780944" lon="-4.5425713"><ele>64.5</ele><time>2026-05-02T08:37:47.959Z</time></trkpt><trkpt lat="43.3780591" lon="-4.5423772"><ele>64.0</ele><time>2026-05-02T08:37:48.96Z</time></trkpt><trkpt lat="43.3780219" lon="-4.5421852"><ele>71.75</ele><time>2026-05-02T08:37:49.958Z</time></trkpt><trkpt lat="43.377986" lon="-4.5419896"><ele>79.5</ele><time>2026-05-02T08:37:50.958Z</time></trkpt><trkpt lat="43.377942" lon="-4.5417956"><ele>87.25</ele><time>2026-05-02T08:37:51.959Z</time></trkpt><trkpt lat="43.3778959" lon="-4.5416048"><ele>95.0</ele><time>2026-05-02T08:37:52.968Z</time></trkpt><trkpt lat="43.3778532" lon="-4.5414115"><ele>95.0</ele><time>2026-05-02T08:37:53.962Z</time></trkpt><trkpt lat="43.3778191" lon="-4.5412241"><ele>95.0</ele><time>2026-05-02T08:37:54.96Z</time></trkpt><trkpt lat="43.3777796" lon="-4.5410345"><ele>95.0</ele><time>2026-05-02T08:37:55.959Z</time></trkpt><trkpt lat="43.377742" lon="-4.5408373"><ele>95.0</ele><time>2026-05-02T08:37:56.967Z</time></trkpt><trkpt lat="43.377698" lon="-4.5406399"><ele>92.0</ele><time>2026-05-02T08:37:57.963Z</time></trkpt><trkpt lat="43.3776504" lon="-4.540439"><ele>89.0</ele><time>2026-05-02T08:37:58.979Z</time></trkpt><trkpt lat="43.3776067" lon="-4.5402419"><ele>86.0</ele><time>2026-05-02T08:37:59.965Z</time></trkpt><trkpt lat="43.3775522" lon="-4.5400387"><ele>83.0</ele><time>2026-05-02T08:38:00.959Z</time></trkpt><trkpt lat="43.3775068" lon="-4.5398269"><ele>80.0</ele><time>2026-05-02T08:38:01.962Z</time></trkpt><trkpt lat="43.377452" lon="-4.539612"><ele>77.0</ele><time>2026-05-02T08:38:02.962Z</time></trkpt><trkpt lat="43.3773995" lon="-4.5394136"><ele>71.66666666666667</ele><time>2026-05-02T08:38:03.951Z</time></trkpt><trkpt lat="43.3773489" lon="-4.5392061"><ele>66.33333333333333</ele><time>2026-05-02T08:38:04.951Z</time></trkpt><trkpt lat="43.3773025" lon="-4.5389991"><ele>61.0</ele><time>2026-05-02T08:38:05.952Z</time></trkpt><trkpt lat="43.3772562" lon="-4.5387873"><ele>56.33333333333333</ele><time>2026-05-02T08:38:06.952Z</time></trkpt><trkpt lat="43.3772047" lon="-4.5385776"><ele>51.666666666666664</ele><time>2026-05-02T08:38:07.951Z</time></trkpt><trkpt lat="43.3771489" lon="-4.5383666"><ele>47.0</ele><time>2026-05-02T08:38:08.955Z</time></trkpt><trkpt lat="43.3771025" lon="-4.5381609"><ele>57.0</ele><time>2026-05-02T08:38:09.955Z</time></trkpt><trkpt lat="43.3770611" lon="-4.537949"><ele>67.0</ele><time>2026-05-02T08:38:10.954Z</time></trkpt><trkpt lat="43.3770071" lon="-4.5377491"><ele>77.0</ele><time>2026-05-02T08:38:11.957Z</time></trkpt><trkpt lat="43.3769566" lon="-4.5375594"><ele>77.0</ele><time>2026-05-02T08:38:12.951Z</time></trkpt><trkpt lat="43.3769036" lon="-4.5373718"><ele>77.0</ele><time>2026-05-02T08:38:13.952Z</time></trkpt><trkpt lat="43.3768533" lon="-4.5371894"><ele>77.0</ele><time>2026-05-02T08:38:14.955Z</time></trkpt><trkpt lat="43.3768081" lon="-4.537013"><ele>77.0</ele><time>2026-05-02T08:38:15.948Z</time></trkpt><trkpt lat="43.3767621" lon="-4.536838"><ele>73.25</ele><time>2026-05-02T08:38:16.955Z</time></trkpt><trkpt lat="43.376711" lon="-4.5366548"><ele>69.5</ele><time>2026-05-02T08:38:17.948Z</time></trkpt><trkpt lat="43.3766655" lon="-4.5364672"><ele>65.75</ele><time>2026-05-02T08:38:18.954Z</time></trkpt><trkpt lat="43.3766234" lon="-4.5362848"><ele>62.0</ele><time>2026-05-02T08:38:19.958Z</time></trkpt><trkpt lat="43.3765786" lon="-4.5360991"><ele>59.5</ele><time>2026-05-02T08:38:20.954Z</time></trkpt><trkpt lat="43.3765315" lon="-4.5359145"><ele>57.0</ele><time>2026-05-02T08:38:21.956Z</time></trkpt><trkpt lat="43.3764832" lon="-4.535724"><ele>54.5</ele><time>2026-05-02T08:38:22.966Z</time></trkpt><trkpt lat="43.3764372" lon="-4.5355436"><ele>52.0</ele><time>2026-05-02T08:38:23.96Z</time></trkpt><trkpt lat="43.3763971" lon="-4.5353509"><ele>49.25</ele><time>2026-05-02T08:38:24.953Z</time></trkpt><trkpt lat="43.3763607" lon="-4.5351596"><ele>46.5</ele><time>2026-05-02T08:38:25.953Z</time></trkpt><trkpt lat="43.3763217" lon="-4.5349671"><ele>43.75</ele><time>2026-05-02T08:38:26.954Z</time></trkpt><trkpt lat="43.376281" lon="-4.5347733"><ele>41.0</ele><time>2026-05-02T08:38:27.95Z</time></trkpt><trkpt lat="43.3762425" lon="-4.5345818"><ele>51.33333333333333</ele><time>2026-05-02T08:38:28.955Z</time></trkpt><trkpt lat="43.3762059" lon="-4.5343734"><ele>61.666666666666664</ele><time>2026-05-02T08:38:29.97Z</time></trkpt><trkpt lat="43.3761744" lon="-4.5341607"><ele>72.0</ele><time>2026-05-02T08:38:30.955Z</time></trkpt><trkpt lat="43.3761448" lon="-4.5339587"><ele>72.0</ele><time>2026-05-02T08:38:31.954Z</time></trkpt><trkpt lat="43.3761151" lon="-4.5337505"><ele>72.0</ele><time>2026-05-02T08:38:32.954Z</time></trkpt><trkpt lat="43.3760832" lon="-4.5335381"><ele>72.0</ele><time>2026-05-02T08:38:33.953Z</time></trkpt><trkpt lat="43.376052" lon="-4.5333224"><ele>68.33333333333333</ele><time>2026-05-02T08:38:34.953Z</time></trkpt><trkpt lat="43.376026" lon="-4.5331098"><ele>64.66666666666666</ele><time>2026-05-02T08:38:35.954Z</time></trkpt><trkpt lat="43.3759992" lon="-4.53289"><ele>61.0</ele><time>2026-05-02T08:38:36.954Z</time></trkpt><trkpt lat="43.3759769" lon="-4.5326614"><ele>58.0</ele><time>2026-05-02T08:38:37.954Z</time></trkpt><trkpt lat="43.3759519" lon="-4.5324401"><ele>55.0</ele><time>2026-05-02T08:38:38.953Z</time></trkpt><trkpt lat="43.3759319" lon="-4.5322191"><ele>52.0</ele><time>2026-05-02T08:38:39.954Z</time></trkpt><trkpt lat="43.375915" lon="-4.5320021"><ele>50.666666666666664</ele><time>2026-05-02T08:38:40.963Z</time></trkpt><trkpt lat="43.3759106" lon="-4.5317843"><ele>49.33333333333333</ele><time>2026-05-02T08:38:41.954Z</time></trkpt><trkpt lat="43.3759002" lon="-4.5315629"><ele>48.0</ele><time>2026-05-02T08:38:42.954Z</time></trkpt><trkpt lat="43.3758917" lon="-4.5313512"><ele>48.5</ele><time>2026-05-02T08:38:43.959Z</time></trkpt><trkpt lat="43.3758782" lon="-4.5311502"><ele>49.0</ele><time>2026-05-02T08:38:44.96Z</time></trkpt><trkpt lat="43.3758721" lon="-4.5309498"><ele>49.5</ele><time>2026-05-02T08:38:45.955Z</time></trkpt><trkpt lat="43.3758555" lon="-4.5307494"><ele>50.0</ele><time>2026-05-02T08:38:46.954Z</time></trkpt><trkpt lat="43.375849" lon="-4.5305615"><ele>50.25</ele><time>2026-05-02T08:38:47.958Z</time></trkpt><trkpt lat="43.375843" lon="-4.5303665"><ele>50.5</ele><time>2026-05-02T08:38:48.958Z</time></trkpt><trkpt lat="43.3758337" lon="-4.5301709"><ele>50.75</ele><time>2026-05-02T08:38:49.956Z</time></trkpt><trkpt lat="43.3758262" lon="-4.5299668"><ele>51.0</ele><time>2026-05-02T08:38:50.957Z</time></trkpt><trkpt lat="43.3758279" lon="-4.5297695"><ele>51.0</ele><time>2026-05-02T08:38:51.957Z</time></trkpt><trkpt lat="43.3758333" lon="-4.5295685"><ele>51.0</ele><time>2026-05-02T08:38:52.968Z</time></trkpt><trkpt lat="43.3758248" lon="-4.5293679"><ele>51.0</ele><time>2026-05-02T08:38:53.958Z</time></trkpt><trkpt lat="43.3758201" lon="-4.5291589"><ele>51.0</ele><time>2026-05-02T08:38:54.955Z</time></trkpt><trkpt lat="43.3757987" lon="-4.5289456"><ele>50.33333333333333</ele><time>2026-05-02T08:38:55.963Z</time></trkpt><trkpt lat="43.3757735" lon="-4.5287402"><ele>49.666666666666664</ele><time>2026-05-02T08:38:56.957Z</time></trkpt><trkpt lat="43.3757461" lon="-4.5285282"><ele>49.0</ele><time>2026-05-02T08:38:57.957Z</time></trkpt><trkpt lat="43.3757284" lon="-4.5283065"><ele>44.33333333333333</ele><time>2026-05-02T08:38:58.956Z</time></trkpt><trkpt lat="43.3757091" lon="-4.5280814"><ele>39.666666666666664</ele><time>2026-05-02T08:38:59.955Z</time></trkpt><trkpt lat="43.3757081" lon="-4.527857"><ele>35.0</ele><time>2026-05-02T08:39:00.966Z</time></trkpt><trkpt lat="43.3757142" lon="-4.527631"><ele>33.0</ele><time>2026-05-02T08:39:01.953Z</time></trkpt><trkpt lat="43.3757127" lon="-4.5274131"><ele>31.0</ele><time>2026-05-02T08:39:02.948Z</time></trkpt><trkpt lat="43.37574" lon="-4.5272013"><ele>29.0</ele><time>2026-05-02T08:39:03.954Z</time></trkpt><trkpt lat="43.3757691" lon="-4.5269809"><ele>29.0</ele><time>2026-05-02T08:39:04.954Z</time></trkpt><trkpt lat="43.3758093" lon="-4.5267633"><ele>29.0</ele><time>2026-05-02T08:39:05.963Z</time></trkpt><trkpt lat="43.375855" lon="-4.526545"><ele>29.0</ele><time>2026-05-02T08:39:06.951Z</time></trkpt><trkpt lat="43.3759052" lon="-4.5263407"><ele>31.0</ele><time>2026-05-02T08:39:07.953Z</time></trkpt><trkpt lat="43.3759635" lon="-4.5261385"><ele>33.0</ele><time>2026-05-02T08:39:08.952Z</time></trkpt><trkpt lat="43.3760208" lon="-4.5259345"><ele>35.0</ele><time>2026-05-02T08:39:09.953Z</time></trkpt><trkpt lat="43.3760634" lon="-4.525725"><ele>35.0</ele><time>2026-05-02T08:39:10.952Z</time></trkpt><trkpt lat="43.3761011" lon="-4.5255114"><ele>35.0</ele><time>2026-05-02T08:39:11.952Z</time></trkpt><trkpt lat="43.3761262" lon="-4.5253022"><ele>35.0</ele><time>2026-05-02T08:39:12.955Z</time></trkpt><trkpt lat="43.3761478" lon="-4.5250784"><ele>35.33333333333333</ele><time>2026-05-02T08:39:13.959Z</time></trkpt><trkpt lat="43.376171" lon="-4.5248716"><ele>35.666666666666664</ele><time>2026-05-02T08:39:14.956Z</time></trkpt><trkpt lat="43.3761853" lon="-4.5246431"><ele>36.0</ele><time>2026-05-02T08:39:15.955Z</time></trkpt><trkpt lat="43.3761903" lon="-4.5244347"><ele>35.25</ele><time>2026-05-02T08:39:16.959Z</time></trkpt><trkpt lat="43.376196" lon="-4.5242337"><ele>34.5</ele><time>2026-05-02T08:39:17.962Z</time></trkpt><trkpt lat="43.3762011" lon="-4.5240393"><ele>33.75</ele><time>2026-05-02T08:39:18.957Z</time></trkpt><trkpt lat="43.3762147" lon="-4.5238479"><ele>33.0</ele><time>2026-05-02T08:39:19.959Z</time></trkpt><trkpt lat="43.3762354" lon="-4.5236588"><ele>32.0</ele><time>2026-05-02T08:39:20.959Z</time></trkpt><trkpt lat="43.3762669" lon="-4.5234694"><ele>31.0</ele><time>2026-05-02T08:39:21.962Z</time></trkpt><trkpt lat="43.3763118" lon="-4.5232812"><ele>30.0</ele><time>2026-05-02T08:39:22.964Z</time></trkpt><trkpt lat="43.3763686" lon="-4.5230929"><ele>29.0</ele><time>2026-05-02T08:39:23.959Z</time></trkpt><trkpt lat="43.3764362" lon="-4.5228976"><ele>24.0</ele><time>2026-05-02T08:39:24.958Z</time></trkpt><trkpt lat="43.3765014" lon="-4.5227092"><ele>19.0</ele><time>2026-05-02T08:39:25.959Z</time></trkpt><trkpt lat="43.37657" lon="-4.5225208"><ele>14.0</ele><time>2026-05-02T08:39:26.961Z</time></trkpt><trkpt lat="43.3766418" lon="-4.5223387"><ele>14.0</ele><time>2026-05-02T08:39:27.957Z</time></trkpt><trkpt lat="43.3767224" lon="-4.5221633"><ele>14.0</ele><time>2026-05-02T08:39:28.959Z</time></trkpt><trkpt lat="43.3767965" lon="-4.5219928"><ele>14.0</ele><time>2026-05-02T08:39:29.962Z</time></trkpt><trkpt lat="43.3768751" lon="-4.5218214"><ele>14.0</ele><time>2026-05-02T08:39:30.96Z</time></trkpt><trkpt lat="43.3769504" lon="-4.5216419"><ele>15.333333333333334</ele><time>2026-05-02T08:39:31.976Z</time></trkpt><trkpt lat="43.3770284" lon="-4.5214648"><ele>16.666666666666668</ele><time>2026-05-02T08:39:32.963Z</time></trkpt><trkpt lat="43.3770996" lon="-4.5212786"><ele>18.0</ele><time>2026-05-02T08:39:33.962Z</time></trkpt><trkpt lat="43.3771568" lon="-4.5210845"><ele>16.5</ele><time>2026-05-02T08:39:34.959Z</time></trkpt><trkpt lat="43.3772093" lon="-4.5208884"><ele>15.0</ele><time>2026-05-02T08:39:35.956Z</time></trkpt><trkpt lat="43.3772479" lon="-4.5206933"><ele>13.5</ele><time>2026-05-02T08:39:36.956Z</time></trkpt><trkpt lat="43.3772864" lon="-4.5204953"><ele>12.0</ele><time>2026-05-02T08:39:37.956Z</time></trkpt><trkpt lat="43.3773164" lon="-4.5202959"><ele>10.333333333333334</ele><time>2026-05-02T08:39:38.951Z</time></trkpt><trkpt lat="43.3773324" lon="-4.520085"><ele>8.666666666666668</ele><time>2026-05-02T08:39:39.958Z</time></trkpt><trkpt lat="43.3773406" lon="-4.5198659"><ele>7.0</ele><time>2026-05-02T08:39:40.958Z</time></trkpt><trkpt lat="43.3773481" lon="-4.5196494"><ele>6.0</ele><time>2026-05-02T08:39:41.955Z</time></trkpt><trkpt lat="43.3773436" lon="-4.5194444"><ele>5.0</ele><time>2026-05-02T08:39:42.959Z</time></trkpt><trkpt lat="43.3773299" lon="-4.5192352"><ele>4.0</ele><time>2026-05-02T08:39:43.96Z</time></trkpt><trkpt lat="43.3773105" lon="-4.5190203"><ele>4.0</ele><time>2026-05-02T08:39:44.961Z</time></trkpt><trkpt lat="43.3772783" lon="-4.518816"><ele>4.0</ele><time>2026-05-02T08:39:45.956Z</time></trkpt><trkpt lat="43.3772366" lon="-4.5186136"><ele>4.0</ele><time>2026-05-02T08:39:46.966Z</time></trkpt><trkpt lat="43.3771832" lon="-4.5184162"><ele>4.0</ele><time>2026-05-02T08:39:47.957Z</time></trkpt><trkpt lat="43.3771263" lon="-4.5182235"><ele>4.0</ele><time>2026-05-02T08:39:48.96Z</time></trkpt><trkpt lat="43.3770687" lon="-4.5180345"><ele>4.0</ele><time>2026-05-02T08:39:49.957Z</time></trkpt><trkpt lat="43.3770059" lon="-4.5178436"><ele>3.6666666666666665</ele><time>2026-05-02T08:39:50.958Z</time></trkpt><trkpt lat="43.3769385" lon="-4.5176641"><ele>3.333333333333333</ele><time>2026-05-02T08:39:51.958Z</time></trkpt><trkpt lat="43.3768623" lon="-4.5174841"><ele>3.0</ele><time>2026-05-02T08:39:52.959Z</time></trkpt><trkpt lat="43.3767814" lon="-4.5173042"><ele>3.0</ele><time>2026-05-02T08:39:53.963Z</time></trkpt><trkpt lat="43.3767018" lon="-4.517132"><ele>3.0</ele><time>2026-05-02T08:39:54.955Z</time></trkpt><trkpt lat="43.3766182" lon="-4.5169602"><ele>3.0</ele><time>2026-05-02T08:39:55.946Z</time></trkpt><trkpt lat="43.3765325" lon="-4.5167879"><ele>3.0</ele><time>2026-05-02T08:39:56.963Z</time></trkpt><trkpt lat="43.3764503" lon="-4.5166191"><ele>3.0</ele><time>2026-05-02T08:39:57.959Z</time></trkpt><trkpt lat="43.3763697" lon="-4.5164484"><ele>3.0</ele><time>2026-05-02T08:39:58.958Z</time></trkpt><trkpt lat="43.3763021" lon="-4.5162714"><ele>3.0</ele><time>2026-05-02T08:39:59.958Z</time></trkpt><trkpt lat="43.3762252" lon="-4.5161058"><ele>3.0</ele><time>2026-05-02T08:40:00.961Z</time></trkpt><trkpt lat="43.3761522" lon="-4.515927"><ele>3.0</ele><time>2026-05-02T08:40:01.957Z</time></trkpt><trkpt lat="43.3760813" lon="-4.5157512"><ele>3.0</ele><time>2026-05-02T08:40:02.972Z</time></trkpt><trkpt lat="43.3760091" lon="-4.5155709"><ele>3.0</ele><time>2026-05-02T08:40:03.957Z</time></trkpt><trkpt lat="43.3759373" lon="-4.5153921"><ele>3.25</ele><time>2026-05-02T08:40:04.958Z</time></trkpt><trkpt lat="43.3758752" lon="-4.5152125"><ele>3.5</ele><time>2026-05-02T08:40:05.958Z</time></trkpt><trkpt lat="43.3758158" lon="-4.5150262"><ele>3.75</ele><time>2026-05-02T08:40:06.956Z</time></trkpt><trkpt lat="43.3757591" lon="-4.5148378"><ele>4.0</ele><time>2026-05-02T08:40:07.954Z</time></trkpt><trkpt lat="43.3757019" lon="-4.5146642"><ele>3.5</ele><time>2026-05-02T08:40:08.953Z</time></trkpt><trkpt lat="43.3756494" lon="-4.5144797"><ele>3.0</ele><time>2026-05-02T08:40:09.953Z</time></trkpt><trkpt lat="43.3756001" lon="-4.5142807"><ele>2.5</ele><time>2026-05-02T08:40:10.954Z</time></trkpt><trkpt lat="43.3755583" lon="-4.5140874"><ele>2.0</ele><time>2026-05-02T08:40:11.951Z</time></trkpt><trkpt lat="43.3755225" lon="-4.5138956"><ele>2.25</ele><time>2026-05-02T08:40:12.952Z</time></trkpt><trkpt lat="43.3754846" lon="-4.5137097"><ele>2.5</ele><time>2026-05-02T08:40:13.95Z</time></trkpt><trkpt lat="43.3754488" lon="-4.5135188"><ele>2.75</ele><time>2026-05-02T08:40:14.955Z</time></trkpt><trkpt lat="43.375427" lon="-4.5133245"><ele>3.0</ele><time>2026-05-02T08:40:15.954Z</time></trkpt><trkpt lat="43.3754117" lon="-4.5131293"><ele>3.0</ele><time>2026-05-02T08:40:16.958Z</time></trkpt><trkpt lat="43.3753913" lon="-4.5129361"><ele>3.0</ele><time>2026-05-02T08:40:17.954Z</time></trkpt><trkpt lat="43.3753833" lon="-4.5127348"><ele>3.0</ele><time>2026-05-02T08:40:18.956Z</time></trkpt><trkpt lat="43.3753756" lon="-4.5125399"><ele>3.0</ele><time>2026-05-02T08:40:19.958Z</time></trkpt><trkpt lat="43.37537" lon="-4.5123399"><ele>3.0</ele><time>2026-05-02T08:40:20.955Z</time></trkpt><trkpt lat="43.3753752" lon="-4.5121418"><ele>3.0</ele><time>2026-05-02T08:40:21.956Z</time></trkpt><trkpt lat="43.3753841" lon="-4.5119342"><ele>3.0</ele><time>2026-05-02T08:40:22.965Z</time></trkpt><trkpt lat="43.3753875" lon="-4.5117294"><ele>3.0</ele><time>2026-05-02T08:40:23.952Z</time></trkpt><trkpt lat="43.3753965" lon="-4.5115275"><ele>3.0</ele><time>2026-05-02T08:40:24.952Z</time></trkpt><trkpt lat="43.3754163" lon="-4.5113297"><ele>3.0</ele><time>2026-05-02T08:40:25.952Z</time></trkpt><trkpt lat="43.3754345" lon="-4.5111254"><ele>3.0</ele><time>2026-05-02T08:40:26.953Z</time></trkpt><trkpt lat="43.375455" lon="-4.510921"><ele>3.0</ele><time>2026-05-02T08:40:27.946Z</time></trkpt><trkpt lat="43.3754809" lon="-4.51073"><ele>3.0</ele><time>2026-05-02T08:40:28.953Z</time></trkpt><trkpt lat="43.3755133" lon="-4.5105349"><ele>3.0</ele><time>2026-05-02T08:40:29.955Z</time></trkpt><trkpt lat="43.3755472" lon="-4.5103412"><ele>3.0</ele><time>2026-05-02T08:40:30.954Z</time></trkpt><trkpt lat="43.3755773" lon="-4.5101433"><ele>3.0</ele><time>2026-05-02T08:40:31.957Z</time></trkpt><trkpt lat="43.3756079" lon="-4.5099428"><ele>2.5</ele><time>2026-05-02T08:40:32.954Z</time></trkpt><trkpt lat="43.3756461" lon="-4.5097382"><ele>2.0</ele><time>2026-05-02T08:40:33.971Z</time></trkpt><trkpt lat="43.3756734" lon="-4.5095423"><ele>1.5</ele><time>2026-05-02T08:40:34.952Z</time></trkpt><trkpt lat="43.3756965" lon="-4.5093408"><ele>1.0</ele><time>2026-05-02T08:40:35.954Z</time></trkpt><trkpt lat="43.3757318" lon="-4.5091488"><ele>0.6666666666666666</ele><time>2026-05-02T08:40:36.952Z</time></trkpt><trkpt lat="43.3757627" lon="-4.5089407"><ele>0.3333333333333333</ele><time>2026-05-02T08:40:37.951Z</time></trkpt><trkpt lat="43.3757817" lon="-4.5087366"><ele>0.0</ele><time>2026-05-02T08:40:38.953Z</time></trkpt><trkpt lat="43.3758016" lon="-4.5085238"><ele>0.0</ele><time>2026-05-02T08:40:39.953Z</time></trkpt><trkpt lat="43.3758233" lon="-4.5083115"><ele>0.0</ele><time>2026-05-02T08:40:40.952Z</time></trkpt><trkpt lat="43.3758323" lon="-4.5081047"><ele>0.0</ele><time>2026-05-02T08:40:41.954Z</time></trkpt><trkpt lat="43.3758467" lon="-4.5078996"><ele>0.0</ele><time>2026-05-02T08:40:42.953Z</time></trkpt><trkpt lat="43.3758573" lon="-4.507692"><ele>0.0</ele><time>2026-05-02T08:40:43.955Z</time></trkpt><trkpt lat="43.3758646" lon="-4.5074888"><ele>0.0</ele><time>2026-05-02T08:40:44.954Z</time></trkpt><trkpt lat="43.3758711" lon="-4.5072865"><ele>0.0</ele><time>2026-05-02T08:40:45.952Z</time></trkpt><trkpt lat="43.3758808" lon="-4.5070897"><ele>0.0</ele><time>2026-05-02T08:40:46.955Z</time></trkpt><trkpt lat="43.3758771" lon="-4.5068858"><ele>0.0</ele><time>2026-05-02T08:40:47.954Z</time></trkpt><trkpt lat="43.3758755" lon="-4.5066816"><ele>0.0</ele><time>2026-05-02T08:40:48.953Z</time></trkpt><trkpt lat="43.3758669" lon="-4.5064838"><ele>0.0</ele><time>2026-05-02T08:40:49.955Z</time></trkpt><trkpt lat="43.3758625" lon="-4.5062928"><ele>0.25</ele><time>2026-05-02T08:40:50.954Z</time></trkpt><trkpt lat="43.3758579" lon="-4.5061239"><ele>0.5</ele><time>2026-05-02T08:40:51.955Z</time></trkpt><trkpt lat="43.3758425" lon="-4.505957"><ele>0.75</ele><time>2026-05-02T08:40:52.958Z</time></trkpt><trkpt lat="43.3758183" lon="-4.5058036"><ele>1.0</ele><time>2026-05-02T08:40:53.953Z</time></trkpt><trkpt lat="43.3757883" lon="-4.5056549"><ele>1.0</ele><time>2026-05-02T08:40:54.952Z</time></trkpt><trkpt lat="43.3757631" lon="-4.5055169"><ele>1.0</ele><time>2026-05-02T08:40:55.948Z</time></trkpt><trkpt lat="43.3757409" lon="-4.5053804"><ele>1.0</ele><time>2026-05-02T08:40:56.95Z</time></trkpt><trkpt lat="43.3757188" lon="-4.5052491"><ele>1.0</ele><time>2026-05-02T08:40:57.952Z</time></trkpt><trkpt lat="43.3756996" lon="-4.5051236"><ele>1.0</ele><time>2026-05-02T08:40:58.952Z</time></trkpt><trkpt lat="43.3756782" lon="-4.5050095"><ele>1.1666666666666665</ele><time>2026-05-02T08:40:59.951Z</time></trkpt><trkpt lat="43.3756599" lon="-4.5049092"><ele>1.3333333333333333</ele><time>2026-05-02T08:41:00.948Z</time></trkpt><trkpt lat="43.3756391" lon="-4.504818"><ele>1.5</ele><time>2026-05-02T08:41:01.949Z</time></trkpt><trkpt lat="43.3756054" lon="-4.5046835"><ele>1.6666666666666665</ele><time>2026-05-02T08:41:03.95Z</time></trkpt><trkpt lat="43.3755752" lon="-4.5046044"><ele>1.8333333333333333</ele><time>2026-05-02T08:41:05.952Z</time></trkpt><trkpt lat="43.375503" lon="-4.5045896"><ele>2.0</ele><time>2026-05-02T08:41:13.943Z</time></trkpt><trkpt lat="43.3754334" lon="-4.5045214"><ele>2.4000000000000004</ele><time>2026-05-02T08:41:15.944Z</time></trkpt><trkpt lat="43.3753602" lon="-4.5043804"><ele>2.8000000000000003</ele><time>2026-05-02T08:41:17.947Z</time></trkpt><trkpt lat="43.3753408" lon="-4.5042944"><ele>3.2</ele><time>2026-05-02T08:41:18.947Z</time></trkpt><trkpt lat="43.3753415" lon="-4.5041882"><ele>3.6</ele><time>2026-05-02T08:41:19.951Z</time></trkpt><trkpt lat="43.3753591" lon="-4.5040655"><ele>4.0</ele><time>2026-05-02T08:41:20.954Z</time></trkpt><trkpt lat="43.3753827" lon="-4.5039375"><ele>4.0</ele><time>2026-05-02T08:41:21.949Z</time></trkpt><trkpt lat="43.3754034" lon="-4.5038023"><ele>4.0</ele><time>2026-05-02T08:41:22.955Z</time></trkpt><trkpt lat="43.3754155" lon="-4.5036637"><ele>4.0</ele><time>2026-05-02T08:41:23.955Z</time></trkpt><trkpt lat="43.3754314" lon="-4.5035206"><ele>4.0</ele><time>2026-05-02T08:41:24.949Z</time></trkpt><trkpt lat="43.3754414" lon="-4.5033836"><ele>4.0</ele><time>2026-05-02T08:41:25.952Z</time></trkpt><trkpt lat="43.3754509" lon="-4.5032477"><ele>4.0</ele><time>2026-05-02T08:41:26.954Z</time></trkpt><trkpt lat="43.3754584" lon="-4.5031092"><ele>4.0</ele><time>2026-05-02T08:41:27.955Z</time></trkpt><trkpt lat="43.3754699" lon="-4.5029721"><ele>4.0</ele><time>2026-05-02T08:41:28.955Z</time></trkpt><trkpt lat="43.3754717" lon="-4.5028347"><ele>4.0</ele><time>2026-05-02T08:41:29.956Z</time></trkpt><trkpt lat="43.3754719" lon="-4.5026978"><ele>4.0</ele><time>2026-05-02T08:41:30.954Z</time></trkpt><trkpt lat="43.3754661" lon="-4.5025557"><ele>4.0</ele><time>2026-05-02T08:41:31.955Z</time></trkpt><trkpt lat="43.3754587" lon="-4.5024148"><ele>4.0</ele><time>2026-05-02T08:41:32.954Z</time></trkpt><trkpt lat="43.3754412" lon="-4.5022717"><ele>4.0</ele><time>2026-05-02T08:41:33.957Z</time></trkpt><trkpt lat="43.3754225" lon="-4.5021257"><ele>4.0</ele><time>2026-05-02T08:41:34.955Z</time></trkpt><trkpt lat="43.3754012" lon="-4.501976"><ele>4.0</ele><time>2026-05-02T08:41:35.987Z</time></trkpt><trkpt lat="43.3753786" lon="-4.5018216"><ele>4.5</ele><time>2026-05-02T08:41:36.959Z</time></trkpt><trkpt lat="43.3753563" lon="-4.5016601"><ele>5.0</ele><time>2026-05-02T08:41:37.958Z</time></trkpt><trkpt lat="43.3753345" lon="-4.5014968"><ele>5.5</ele><time>2026-05-02T08:41:38.955Z</time></trkpt><trkpt lat="43.3753112" lon="-4.5013292"><ele>6.0</ele><time>2026-05-02T08:41:39.956Z</time></trkpt><trkpt lat="43.375289" lon="-4.5011628"><ele>7.0</ele><time>2026-05-02T08:41:40.958Z</time></trkpt><trkpt lat="43.3752676" lon="-4.5010052"><ele>8.0</ele><time>2026-05-02T08:41:41.958Z</time></trkpt><trkpt lat="43.375242" lon="-4.5008457"><ele>9.0</ele><time>2026-05-02T08:41:42.957Z</time></trkpt><trkpt lat="43.3752201" lon="-4.5006906"><ele>10.0</ele><time>2026-05-02T08:41:43.956Z</time></trkpt><trkpt lat="43.3751993" lon="-4.500538"><ele>10.4</ele><time>2026-05-02T08:41:44.955Z</time></trkpt><trkpt lat="43.3751794" lon="-4.5003918"><ele>10.8</ele><time>2026-05-02T08:41:45.955Z</time></trkpt><trkpt lat="43.3751622" lon="-4.5002489"><ele>11.2</ele><time>2026-05-02T08:41:46.953Z</time></trkpt><trkpt lat="43.3751488" lon="-4.5001122"><ele>11.6</ele><time>2026-05-02T08:41:47.959Z</time></trkpt><trkpt lat="43.3751356" lon="-4.4999792"><ele>12.0</ele><time>2026-05-02T08:41:48.953Z</time></trkpt><trkpt lat="43.3751245" lon="-4.4998433"><ele>12.0</ele><time>2026-05-02T08:41:49.953Z</time></trkpt><trkpt lat="43.3751186" lon="-4.4997097"><ele>12.0</ele><time>2026-05-02T08:41:50.953Z</time></trkpt><trkpt lat="43.3751124" lon="-4.4995673"><ele>12.0</ele><time>2026-05-02T08:41:51.953Z</time></trkpt><trkpt lat="43.3751081" lon="-4.4994205"><ele>12.0</ele><time>2026-05-02T08:41:52.963Z</time></trkpt><trkpt lat="43.3751048" lon="-4.4992704"><ele>12.0</ele><time>2026-05-02T08:41:53.954Z</time></trkpt><trkpt lat="43.3751047" lon="-4.4991158"><ele>12.5</ele><time>2026-05-02T08:41:54.954Z</time></trkpt><trkpt lat="43.3751041" lon="-4.4989601"><ele>13.0</ele><time>2026-05-02T08:41:55.954Z</time></trkpt><trkpt lat="43.3751071" lon="-4.4987972"><ele>13.5</ele><time>2026-05-02T08:41:56.954Z</time></trkpt><trkpt lat="43.3751103" lon="-4.4986296"><ele>14.0</ele><time>2026-05-02T08:41:57.953Z</time></trkpt><trkpt lat="43.3751147" lon="-4.4984637"><ele>14.0</ele><time>2026-05-02T08:41:58.954Z</time></trkpt><trkpt lat="43.3751196" lon="-4.498293"><ele>14.0</ele><time>2026-05-02T08:41:59.954Z</time></trkpt><trkpt lat="43.3751215" lon="-4.4981217"><ele>14.0</ele><time>2026-05-02T08:42:00.952Z</time></trkpt><trkpt lat="43.3751263" lon="-4.4979475"><ele>14.0</ele><time>2026-05-02T08:42:01.952Z</time></trkpt><trkpt lat="43.3751355" lon="-4.4977736"><ele>14.75</ele><time>2026-05-02T08:42:02.952Z</time></trkpt><trkpt lat="43.3751402" lon="-4.4975965"><ele>15.5</ele><time>2026-05-02T08:42:03.953Z</time></trkpt><trkpt lat="43.3751475" lon="-4.497418"><ele>16.25</ele><time>2026-05-02T08:42:04.951Z</time></trkpt><trkpt lat="43.3751566" lon="-4.4972497"><ele>17.0</ele><time>2026-05-02T08:42:05.966Z</time></trkpt><trkpt lat="43.37516" lon="-4.4970769"><ele>18.25</ele><time>2026-05-02T08:42:06.951Z</time></trkpt><trkpt lat="43.3751608" lon="-4.4969125"><ele>19.5</ele><time>2026-05-02T08:42:07.951Z</time></trkpt><trkpt lat="43.3751625" lon="-4.4967445"><ele>20.75</ele><time>2026-05-02T08:42:08.956Z</time></trkpt><trkpt lat="43.3751618" lon="-4.4965718"><ele>22.0</ele><time>2026-05-02T08:42:09.955Z</time></trkpt><trkpt lat="43.3751644" lon="-4.4963986"><ele>22.25</ele><time>2026-05-02T08:42:10.955Z</time></trkpt><trkpt lat="43.3751637" lon="-4.4962255"><ele>22.5</ele><time>2026-05-02T08:42:11.954Z</time></trkpt><trkpt lat="43.3751605" lon="-4.4960535"><ele>22.75</ele><time>2026-05-02T08:42:12.956Z</time></trkpt><trkpt lat="43.3751605" lon="-4.4958854"><ele>23.0</ele><time>2026-05-02T08:42:13.955Z</time></trkpt><trkpt lat="43.3751605" lon="-4.4957234"><ele>23.0</ele><time>2026-05-02T08:42:14.953Z</time></trkpt><trkpt lat="43.3751553" lon="-4.4955652"><ele>23.0</ele><time>2026-05-02T08:42:15.955Z</time></trkpt><trkpt lat="43.3751492" lon="-4.4954101"><ele>23.0</ele><time>2026-05-02T08:42:16.958Z</time></trkpt><trkpt lat="43.3751372" lon="-4.4952551"><ele>23.0</ele><time>2026-05-02T08:42:17.955Z</time></trkpt><trkpt lat="43.3751182" lon="-4.4951014"><ele>23.25</ele><time>2026-05-02T08:42:18.952Z</time></trkpt><trkpt lat="43.3750928" lon="-4.494949"><ele>23.5</ele><time>2026-05-02T08:42:19.954Z</time></trkpt><trkpt lat="43.3750604" lon="-4.4947927"><ele>23.75</ele><time>2026-05-02T08:42:20.954Z</time></trkpt><trkpt lat="43.3750284" lon="-4.4946372"><ele>24.0</ele><time>2026-05-02T08:42:21.956Z</time></trkpt><trkpt lat="43.374989" lon="-4.494481"><ele>24.0</ele><time>2026-05-02T08:42:22.962Z</time></trkpt><trkpt lat="43.3749473" lon="-4.4943244"><ele>24.0</ele><time>2026-05-02T08:42:23.956Z</time></trkpt><trkpt lat="43.3749022" lon="-4.4941617"><ele>24.0</ele><time>2026-05-02T08:42:24.954Z</time></trkpt><trkpt lat="43.3748529" lon="-4.493992"><ele>24.0</ele><time>2026-05-02T08:42:25.952Z</time></trkpt><trkpt lat="43.3748067" lon="-4.4938199"><ele>23.75</ele><time>2026-05-02T08:42:26.951Z</time></trkpt><trkpt lat="43.3747604" lon="-4.4936391"><ele>23.5</ele><time>2026-05-02T08:42:27.951Z</time></trkpt><trkpt lat="43.3747193" lon="-4.4934574"><ele>23.25</ele><time>2026-05-02T08:42:28.953Z</time></trkpt><trkpt lat="43.3746811" lon="-4.4932697"><ele>23.0</ele><time>2026-05-02T08:42:29.953Z</time></trkpt><trkpt lat="43.374661" lon="-4.4930775"><ele>24.75</ele><time>2026-05-02T08:42:30.95Z</time></trkpt><trkpt lat="43.3746506" lon="-4.4928817"><ele>26.5</ele><time>2026-05-02T08:42:31.95Z</time></trkpt><trkpt lat="43.3746454" lon="-4.4926928"><ele>28.25</ele><time>2026-05-02T08:42:32.95Z</time></trkpt><trkpt lat="43.3746518" lon="-4.4924995"><ele>30.0</ele><time>2026-05-02T08:42:33.937Z</time></trkpt><trkpt lat="43.3746628" lon="-4.4923136"><ele>30.25</ele><time>2026-05-02T08:42:34.942Z</time></trkpt><trkpt lat="43.3747173" lon="-4.4921196"><ele>30.5</ele><time>2026-05-02T08:42:35.932Z</time></trkpt><trkpt lat="43.3747844" lon="-4.4919203"><ele>30.75</ele><time>2026-05-02T08:42:36.953Z</time></trkpt><trkpt lat="43.3748309" lon="-4.4917414"><ele>31.0</ele><time>2026-05-02T08:42:37.943Z</time></trkpt><trkpt lat="43.3748837" lon="-4.4915709"><ele>31.0</ele><time>2026-05-02T08:42:38.945Z</time></trkpt><trkpt lat="43.3749289" lon="-4.4914094"><ele>31.0</ele><time>2026-05-02T08:42:39.948Z</time></trkpt><trkpt lat="43.3749726" lon="-4.4912456"><ele>31.0</ele><time>2026-05-02T08:42:40.943Z</time></trkpt><trkpt lat="43.3750148" lon="-4.4910756"><ele>31.0</ele><time>2026-05-02T08:42:41.946Z</time></trkpt><trkpt lat="43.3750633" lon="-4.4909084"><ele>32.0</ele><time>2026-05-02T08:42:42.95Z</time></trkpt><trkpt lat="43.3750981" lon="-4.4907522"><ele>33.0</ele><time>2026-05-02T08:42:43.955Z</time></trkpt><trkpt lat="43.3751341" lon="-4.4905954"><ele>34.0</ele><time>2026-05-02T08:42:44.955Z</time></trkpt><trkpt lat="43.3751633" lon="-4.490436"><ele>35.0</ele><time>2026-05-02T08:42:45.955Z</time></trkpt><trkpt lat="43.3751841" lon="-4.4902721"><ele>36.0</ele><time>2026-05-02T08:42:46.955Z</time></trkpt><trkpt lat="43.3752064" lon="-4.4901104"><ele>37.0</ele><time>2026-05-02T08:42:47.955Z</time></trkpt><trkpt lat="43.3752214" lon="-4.4899512"><ele>38.0</ele><time>2026-05-02T08:42:48.954Z</time></trkpt><trkpt lat="43.3752295" lon="-4.489791"><ele>39.0</ele><time>2026-05-02T08:42:49.955Z</time></trkpt><trkpt lat="43.3752327" lon="-4.4896327"><ele>39.25</ele><time>2026-05-02T08:42:50.952Z</time></trkpt><trkpt lat="43.3752278" lon="-4.4894797"><ele>39.5</ele><time>2026-05-02T08:42:51.952Z</time></trkpt><trkpt lat="43.3752158" lon="-4.4893256"><ele>39.75</ele><time>2026-05-02T08:42:52.964Z</time></trkpt><trkpt lat="43.3751962" lon="-4.4891718"><ele>40.0</ele><time>2026-05-02T08:42:53.958Z</time></trkpt><trkpt lat="43.3751748" lon="-4.489018"><ele>40.0</ele><time>2026-05-02T08:42:54.958Z</time></trkpt><trkpt lat="43.3751492" lon="-4.488862"><ele>40.0</ele><time>2026-05-02T08:42:55.958Z</time></trkpt><trkpt lat="43.3751191" lon="-4.488707"><ele>40.0</ele><time>2026-05-02T08:42:56.957Z</time></trkpt><trkpt lat="43.3750865" lon="-4.4885543"><ele>40.0</ele><time>2026-05-02T08:42:57.962Z</time></trkpt><trkpt lat="43.3750503" lon="-4.4883925"><ele>41.75</ele><time>2026-05-02T08:42:58.961Z</time></trkpt><trkpt lat="43.3750212" lon="-4.4882359"><ele>43.5</ele><time>2026-05-02T08:42:59.964Z</time></trkpt><trkpt lat="43.3749975" lon="-4.4880786"><ele>45.25</ele><time>2026-05-02T08:43:00.96Z</time></trkpt><trkpt lat="43.3749772" lon="-4.4879195"><ele>47.0</ele><time>2026-05-02T08:43:01.965Z</time></trkpt><trkpt lat="43.3749565" lon="-4.4877602"><ele>47.25</ele><time>2026-05-02T08:43:02.966Z</time></trkpt><trkpt lat="43.3749395" lon="-4.4875984"><ele>47.5</ele><time>2026-05-02T08:43:03.965Z</time></trkpt><trkpt lat="43.374946" lon="-4.4874423"><ele>47.75</ele><time>2026-05-02T08:43:04.963Z</time></trkpt><trkpt lat="43.3749646" lon="-4.4872855"><ele>48.0</ele><time>2026-05-02T08:43:05.963Z</time></trkpt><trkpt lat="43.3749926" lon="-4.4871246"><ele>48.25</ele><time>2026-05-02T08:43:06.963Z</time></trkpt><trkpt lat="43.3750262" lon="-4.4869635"><ele>48.5</ele><time>2026-05-02T08:43:07.979Z</time></trkpt><trkpt lat="43.3750714" lon="-4.4868025"><ele>48.75</ele><time>2026-05-02T08:43:08.963Z</time></trkpt><trkpt lat="43.3751201" lon="-4.4866351"><ele>49.0</ele><time>2026-05-02T08:43:09.964Z</time></trkpt><trkpt lat="43.3751646" lon="-4.486464"><ele>49.0</ele><time>2026-05-02T08:43:10.964Z</time></trkpt><trkpt lat="43.3752102" lon="-4.4862928"><ele>49.0</ele><time>2026-05-02T08:43:11.963Z</time></trkpt><trkpt lat="43.3752578" lon="-4.4861217"><ele>49.0</ele><time>2026-05-02T08:43:12.963Z</time></trkpt><trkpt lat="43.3753027" lon="-4.485958"><ele>49.0</ele><time>2026-05-02T08:43:13.964Z</time></trkpt><trkpt lat="43.3753461" lon="-4.4857975"><ele>48.75</ele><time>2026-05-02T08:43:14.963Z</time></trkpt><trkpt lat="43.3753845" lon="-4.4856374"><ele>48.5</ele><time>2026-05-02T08:43:15.958Z</time></trkpt><trkpt lat="43.3754222" lon="-4.485488"><ele>48.25</ele><time>2026-05-02T08:43:16.964Z</time></trkpt><trkpt lat="43.3754557" lon="-4.4853383"><ele>48.0</ele><time>2026-05-02T08:43:17.961Z</time></trkpt><trkpt lat="43.3754882" lon="-4.485195"><ele>47.4</ele><time>2026-05-02T08:43:18.962Z</time></trkpt><trkpt lat="43.3755193" lon="-4.4850563"><ele>46.8</ele><time>2026-05-02T08:43:19.961Z</time></trkpt><trkpt lat="43.3755515" lon="-4.4849249"><ele>46.2</ele><time>2026-05-02T08:43:20.961Z</time></trkpt><trkpt lat="43.3755775" lon="-4.4847917"><ele>45.6</ele><time>2026-05-02T08:43:21.961Z</time></trkpt><trkpt lat="43.3756031" lon="-4.4846607"><ele>45.0</ele><time>2026-05-02T08:43:22.962Z</time></trkpt><trkpt lat="43.3756295" lon="-4.4845302"><ele>44.2</ele><time>2026-05-02T08:43:23.962Z</time></trkpt><trkpt lat="43.3756555" lon="-4.4844023"><ele>43.4</ele><time>2026-05-02T08:43:24.961Z</time></trkpt><trkpt lat="43.3756764" lon="-4.4842705"><ele>42.599999999999994</ele><time>2026-05-02T08:43:25.962Z</time></trkpt><trkpt lat="43.3756999" lon="-4.4841395"><ele>41.8</ele><time>2026-05-02T08:43:26.96Z</time></trkpt><trkpt lat="43.3757248" lon="-4.4840035"><ele>41.0</ele><time>2026-05-02T08:43:27.964Z</time></trkpt><trkpt lat="43.3757506" lon="-4.4838618"><ele>40.599999999999994</ele><time>2026-05-02T08:43:28.96Z</time></trkpt><trkpt lat="43.3757799" lon="-4.4837158"><ele>40.199999999999996</ele><time>2026-05-02T08:43:29.96Z</time></trkpt><trkpt lat="43.3758092" lon="-4.4835734"><ele>39.8</ele><time>2026-05-02T08:43:30.964Z</time></trkpt><trkpt lat="43.3758391" lon="-4.4834308"><ele>39.4</ele><time>2026-05-02T08:43:31.963Z</time></trkpt><trkpt lat="43.3758712" lon="-4.4832894"><ele>39.0</ele><time>2026-05-02T08:43:32.963Z</time></trkpt><trkpt lat="43.3759027" lon="-4.4831479"><ele>39.0</ele><time>2026-05-02T08:43:33.965Z</time></trkpt><trkpt lat="43.3759357" lon="-4.4830065"><ele>39.0</ele><time>2026-05-02T08:43:34.964Z</time></trkpt><trkpt lat="43.3759709" lon="-4.4828684"><ele>39.0</ele><time>2026-05-02T08:43:35.96Z</time></trkpt><trkpt lat="43.3760116" lon="-4.4827368"><ele>39.0</ele><time>2026-05-02T08:43:36.96Z</time></trkpt><trkpt lat="43.3760523" lon="-4.4826092"><ele>39.0</ele><time>2026-05-02T08:43:37.961Z</time></trkpt><trkpt lat="43.3760882" lon="-4.4824779"><ele>39.0</ele><time>2026-05-02T08:43:38.976Z</time></trkpt><trkpt lat="43.3761162" lon="-4.4823449"><ele>39.0</ele><time>2026-05-02T08:43:39.956Z</time></trkpt><trkpt lat="43.3761424" lon="-4.4822098"><ele>39.0</ele><time>2026-05-02T08:43:40.957Z</time></trkpt><trkpt lat="43.3761617" lon="-4.482072"><ele>39.0</ele><time>2026-05-02T08:43:41.956Z</time></trkpt><trkpt lat="43.3761733" lon="-4.4819311"><ele>39.0</ele><time>2026-05-02T08:43:42.955Z</time></trkpt><trkpt lat="43.3761797" lon="-4.4817857"><ele>38.0</ele><time>2026-05-02T08:43:43.955Z</time></trkpt><trkpt lat="43.3761786" lon="-4.4816433"><ele>37.0</ele><time>2026-05-02T08:43:44.958Z</time></trkpt><trkpt lat="43.3761681" lon="-4.4815058"><ele>36.0</ele><time>2026-05-02T08:43:45.955Z</time></trkpt><trkpt lat="43.3761436" lon="-4.4813691"><ele>35.0</ele><time>2026-05-02T08:43:46.96Z</time></trkpt><trkpt lat="43.3761026" lon="-4.4812371"><ele>34.0</ele><time>2026-05-02T08:43:47.955Z</time></trkpt><trkpt lat="43.3760517" lon="-4.4811092"><ele>31.0</ele><time>2026-05-02T08:43:48.948Z</time></trkpt><trkpt lat="43.3759819" lon="-4.4809951"><ele>28.0</ele><time>2026-05-02T08:43:49.947Z</time></trkpt><trkpt lat="43.3758954" lon="-4.4808941"><ele>25.0</ele><time>2026-05-02T08:43:50.951Z</time></trkpt><trkpt lat="43.3757989" lon="-4.4808063"><ele>22.0</ele><time>2026-05-02T08:43:51.951Z</time></trkpt><trkpt lat="43.3756977" lon="-4.4807399"><ele>22.0</ele><time>2026-05-02T08:43:52.952Z</time></trkpt><trkpt lat="43.3755908" lon="-4.4806847"><ele>22.0</ele><time>2026-05-02T08:43:53.948Z</time></trkpt><trkpt lat="43.3754837" lon="-4.4806412"><ele>22.0</ele><time>2026-05-02T08:43:54.947Z</time></trkpt><trkpt lat="43.3753793" lon="-4.4805975"><ele>22.0</ele><time>2026-05-02T08:43:55.95Z</time></trkpt><trkpt lat="43.3752774" lon="-4.4805611"><ele>22.0</ele><time>2026-05-02T08:43:56.948Z</time></trkpt><trkpt lat="43.3751787" lon="-4.4805241"><ele>23.0</ele><time>2026-05-02T08:43:57.953Z</time></trkpt><trkpt lat="43.375076" lon="-4.4804922"><ele>24.0</ele><time>2026-05-02T08:43:58.952Z</time></trkpt><trkpt lat="43.3749784" lon="-4.4804515"><ele>25.000000000000004</ele><time>2026-05-02T08:43:59.955Z</time></trkpt><trkpt lat="43.3748794" lon="-4.4804145"><ele>26.0</ele><time>2026-05-02T08:44:00.949Z</time></trkpt><trkpt lat="43.3747837" lon="-4.4803721"><ele>27.0</ele><time>2026-05-02T08:44:01.948Z</time></trkpt><trkpt lat="43.374689" lon="-4.4803368"><ele>24.6</ele><time>2026-05-02T08:44:02.949Z</time></trkpt><trkpt lat="43.374596" lon="-4.4803071"><ele>22.200000000000003</ele><time>2026-05-02T08:44:03.947Z</time></trkpt><trkpt lat="43.3745052" lon="-4.4802706"><ele>19.8</ele><time>2026-05-02T08:44:04.947Z</time></trkpt><trkpt lat="43.3744151" lon="-4.4802371"><ele>17.4</ele><time>2026-05-02T08:44:05.952Z</time></trkpt><trkpt lat="43.3743257" lon="-4.4802"><ele>15.0</ele><time>2026-05-02T08:44:06.945Z</time></trkpt><trkpt lat="43.3742391" lon="-4.4801618"><ele>15.0</ele><time>2026-05-02T08:44:07.942Z</time></trkpt><trkpt lat="43.374165" lon="-4.4801303"><ele>15.0</ele><time>2026-05-02T08:44:08.944Z</time></trkpt><trkpt lat="43.3740886" lon="-4.4800979"><ele>15.0</ele><time>2026-05-02T08:44:09.957Z</time></trkpt><trkpt lat="43.3740121" lon="-4.4800658"><ele>15.0</ele><time>2026-05-02T08:44:10.943Z</time></trkpt><trkpt lat="43.3739332" lon="-4.4800243"><ele>15.0</ele><time>2026-05-02T08:44:11.941Z</time></trkpt><trkpt lat="43.373855" lon="-4.4799798"><ele>15.0</ele><time>2026-05-02T08:44:12.945Z</time></trkpt><trkpt lat="43.3737763" lon="-4.4799322"><ele>16.0</ele><time>2026-05-02T08:44:13.945Z</time></trkpt><trkpt lat="43.3736911" lon="-4.4798832"><ele>17.0</ele><time>2026-05-02T08:44:14.939Z</time></trkpt><trkpt lat="43.3736075" lon="-4.4798358"><ele>18.0</ele><time>2026-05-02T08:44:15.941Z</time></trkpt><trkpt lat="43.3735273" lon="-4.4797822"><ele>19.0</ele><time>2026-05-02T08:44:16.944Z</time></trkpt><trkpt lat="43.3734503" lon="-4.4797256"><ele>20.0</ele><time>2026-05-02T08:44:17.939Z</time></trkpt><trkpt lat="43.3733762" lon="-4.4796626"><ele>21.0</ele><time>2026-05-02T08:44:18.941Z</time></trkpt><trkpt lat="43.3733018" lon="-4.4795881"><ele>18.400000000000002</ele><time>2026-05-02T08:44:19.951Z</time></trkpt><trkpt lat="43.3732293" lon="-4.4795053"><ele>15.8</ele><time>2026-05-02T08:44:20.947Z</time></trkpt><trkpt lat="43.3731563" lon="-4.4794183"><ele>13.200000000000001</ele><time>2026-05-02T08:44:21.936Z</time></trkpt><trkpt lat="43.3730855" lon="-4.4793352"><ele>10.600000000000001</ele><time>2026-05-02T08:44:22.955Z</time></trkpt><trkpt lat="43.3730128" lon="-4.4792437"><ele>8.0</ele><time>2026-05-02T08:44:23.941Z</time></trkpt><trkpt lat="43.3729466" lon="-4.4791486"><ele>7.6000000000000005</ele><time>2026-05-02T08:44:24.948Z</time></trkpt><trkpt lat="43.3728826" lon="-4.4790453"><ele>7.200000000000001</ele><time>2026-05-02T08:44:25.95Z</time></trkpt><trkpt lat="43.3728213" lon="-4.4789327"><ele>6.8</ele><time>2026-05-02T08:44:26.948Z</time></trkpt><trkpt lat="43.3727568" lon="-4.4788102"><ele>6.4</ele><time>2026-05-02T08:44:27.948Z</time></trkpt><trkpt lat="43.3726914" lon="-4.4786908"><ele>6.0</ele><time>2026-05-02T08:44:28.95Z</time></trkpt><trkpt lat="43.3726284" lon="-4.4785734"><ele>5.0</ele><time>2026-05-02T08:44:29.949Z</time></trkpt><trkpt lat="43.3725623" lon="-4.4784445"><ele>4.0</ele><time>2026-05-02T08:44:30.948Z</time></trkpt><trkpt lat="43.3724974" lon="-4.4783083"><ele>3.0</ele><time>2026-05-02T08:44:31.948Z</time></trkpt><trkpt lat="43.3724338" lon="-4.4781762"><ele>2.0</ele><time>2026-05-02T08:44:32.948Z</time></trkpt><trkpt lat="43.372367" lon="-4.4780429"><ele>2.0</ele><time>2026-05-02T08:44:33.949Z</time></trkpt><trkpt lat="43.3723048" lon="-4.4779157"><ele>2.0</ele><time>2026-05-02T08:44:34.949Z</time></trkpt><trkpt lat="43.3722391" lon="-4.4777905"><ele>2.0</ele><time>2026-05-02T08:44:35.951Z</time></trkpt><trkpt lat="43.3721727" lon="-4.4776624"><ele>2.0</ele><time>2026-05-02T08:44:36.948Z</time></trkpt><trkpt lat="43.3721051" lon="-4.4775328"><ele>2.0</ele><time>2026-05-02T08:44:37.951Z</time></trkpt><trkpt lat="43.3720378" lon="-4.4774059"><ele>2.0</ele><time>2026-05-02T08:44:38.954Z</time></trkpt><trkpt lat="43.371969" lon="-4.4772713"><ele>2.0</ele><time>2026-05-02T08:44:39.952Z</time></trkpt><trkpt lat="43.3719066" lon="-4.4771402"><ele>2.0</ele><time>2026-05-02T08:44:40.967Z</time></trkpt><trkpt lat="43.3718475" lon="-4.4770063"><ele>2.0</ele><time>2026-05-02T08:44:41.951Z</time></trkpt><trkpt lat="43.3717921" lon="-4.476869"><ele>2.0</ele><time>2026-05-02T08:44:42.95Z</time></trkpt><trkpt lat="43.3717393" lon="-4.4767311"><ele>2.0</ele><time>2026-05-02T08:44:43.955Z</time></trkpt><trkpt lat="43.3716886" lon="-4.476589"><ele>2.0</ele><time>2026-05-02T08:44:44.951Z</time></trkpt><trkpt lat="43.3716387" lon="-4.4764327"><ele>2.6666666666666665</ele><time>2026-05-02T08:44:46.086Z</time></trkpt><trkpt lat="43.3715513" lon="-4.4760675"><ele>3.333333333333333</ele><time>2026-05-02T08:44:47.956Z</time></trkpt><trkpt lat="43.3715243" lon="-4.4758509"><ele>4.0</ele><time>2026-05-02T08:44:48.949Z</time></trkpt><trkpt lat="43.3715126" lon="-4.4756278"><ele>5.0</ele><time>2026-05-02T08:44:49.951Z</time></trkpt><trkpt lat="43.3715034" lon="-4.4754064"><ele>6.0</ele><time>2026-05-02T08:44:50.952Z</time></trkpt><trkpt lat="43.3714889" lon="-4.4751722"><ele>7.0</ele><time>2026-05-02T08:44:51.955Z</time></trkpt><trkpt lat="43.3714685" lon="-4.4749454"><ele>7.0</ele><time>2026-05-02T08:44:52.961Z</time></trkpt><trkpt lat="43.3714648" lon="-4.4747042"><ele>7.0</ele><time>2026-05-02T08:44:53.955Z</time></trkpt><trkpt lat="43.3714486" lon="-4.4744558"><ele>7.0</ele><time>2026-05-02T08:44:54.951Z</time></trkpt><trkpt lat="43.3714193" lon="-4.4742098"><ele>6.666666666666667</ele><time>2026-05-02T08:44:55.951Z</time></trkpt><trkpt lat="43.3713973" lon="-4.4739694"><ele>6.333333333333334</ele><time>2026-05-02T08:44:56.951Z</time></trkpt><trkpt lat="43.371376" lon="-4.4737333"><ele>6.0</ele><time>2026-05-02T08:44:57.951Z</time></trkpt><trkpt lat="43.3713681" lon="-4.4734942"><ele>5.333333333333333</ele><time>2026-05-02T08:44:58.952Z</time></trkpt><trkpt lat="43.3713592" lon="-4.4732722"><ele>4.666666666666666</ele><time>2026-05-02T08:44:59.948Z</time></trkpt><trkpt lat="43.3713505" lon="-4.4730581"><ele>4.0</ele><time>2026-05-02T08:45:00.949Z</time></trkpt><trkpt lat="43.3713459" lon="-4.4728386"><ele>4.75</ele><time>2026-05-02T08:45:01.951Z</time></trkpt><trkpt lat="43.3713595" lon="-4.4726282"><ele>5.5</ele><time>2026-05-02T08:45:02.946Z</time></trkpt><trkpt lat="43.3713777" lon="-4.472429"><ele>6.25</ele><time>2026-05-02T08:45:03.952Z</time></trkpt><trkpt lat="43.3714083" lon="-4.472233"><ele>7.0</ele><time>2026-05-02T08:45:04.945Z</time></trkpt><trkpt lat="43.3714595" lon="-4.4720465"><ele>8.0</ele><time>2026-05-02T08:45:05.942Z</time></trkpt><trkpt lat="43.3715148" lon="-4.4718456"><ele>9.0</ele><time>2026-05-02T08:45:06.947Z</time></trkpt><trkpt lat="43.3715777" lon="-4.47165"><ele>10.0</ele><time>2026-05-02T08:45:07.95Z</time></trkpt><trkpt lat="43.3716333" lon="-4.4714509"><ele>10.666666666666668</ele><time>2026-05-02T08:45:08.951Z</time></trkpt><trkpt lat="43.3716939" lon="-4.4712551"><ele>11.333333333333334</ele><time>2026-05-02T08:45:09.951Z</time></trkpt><trkpt lat="43.3717532" lon="-4.4710569"><ele>12.0</ele><time>2026-05-02T08:45:10.95Z</time></trkpt><trkpt lat="43.3718031" lon="-4.4708652"><ele>12.0</ele><time>2026-05-02T08:45:11.971Z</time></trkpt><trkpt lat="43.3718592" lon="-4.4706726"><ele>12.0</ele><time>2026-05-02T08:45:12.956Z</time></trkpt><trkpt lat="43.37191" lon="-4.4704748"><ele>12.0</ele><time>2026-05-02T08:45:13.952Z</time></trkpt><trkpt lat="43.3719519" lon="-4.4702818"><ele>11.666666666666666</ele><time>2026-05-02T08:45:14.954Z</time></trkpt><trkpt lat="43.3719999" lon="-4.4700844"><ele>11.333333333333332</ele><time>2026-05-02T08:45:15.955Z</time></trkpt><trkpt lat="43.3720598" lon="-4.4698903"><ele>11.0</ele><time>2026-05-02T08:45:16.956Z</time></trkpt><trkpt lat="43.3721135" lon="-4.4696959"><ele>11.333333333333332</ele><time>2026-05-02T08:45:17.95Z</time></trkpt><trkpt lat="43.3721659" lon="-4.4694985"><ele>11.666666666666666</ele><time>2026-05-02T08:45:18.952Z</time></trkpt><trkpt lat="43.372217" lon="-4.4693081"><ele>12.0</ele><time>2026-05-02T08:45:19.953Z</time></trkpt><trkpt lat="43.3722729" lon="-4.4691162"><ele>11.5</ele><time>2026-05-02T08:45:20.961Z</time></trkpt><trkpt lat="43.3723281" lon="-4.46892"><ele>11.0</ele><time>2026-05-02T08:45:21.966Z</time></trkpt><trkpt lat="43.372377" lon="-4.4687264"><ele>10.5</ele><time>2026-05-02T08:45:22.96Z</time></trkpt><trkpt lat="43.3724278" lon="-4.4685402"><ele>10.0</ele><time>2026-05-02T08:45:23.958Z</time></trkpt><trkpt lat="43.3724744" lon="-4.4683464"><ele>10.0</ele><time>2026-05-02T08:45:24.962Z</time></trkpt><trkpt lat="43.3725106" lon="-4.4681404"><ele>10.0</ele><time>2026-05-02T08:45:25.964Z</time></trkpt><trkpt lat="43.3725458" lon="-4.4679387"><ele>10.0</ele><time>2026-05-02T08:45:26.965Z</time></trkpt><trkpt lat="43.3725715" lon="-4.4677317"><ele>11.0</ele><time>2026-05-02T08:45:27.967Z</time></trkpt><trkpt lat="43.3725891" lon="-4.4675346"><ele>12.0</ele><time>2026-05-02T08:45:28.966Z</time></trkpt><trkpt lat="43.3726025" lon="-4.4673319"><ele>13.0</ele><time>2026-05-02T08:45:29.968Z</time></trkpt><trkpt lat="43.3726197" lon="-4.467124"><ele>14.0</ele><time>2026-05-02T08:45:30.966Z</time></trkpt><trkpt lat="43.3726423" lon="-4.4669184"><ele>14.0</ele><time>2026-05-02T08:45:31.966Z</time></trkpt><trkpt lat="43.3726628" lon="-4.4667065"><ele>14.0</ele><time>2026-05-02T08:45:32.966Z</time></trkpt><trkpt lat="43.3726889" lon="-4.4664999"><ele>14.0</ele><time>2026-05-02T08:45:33.964Z</time></trkpt><trkpt lat="43.3727113" lon="-4.4662906"><ele>13.75</ele><time>2026-05-02T08:45:34.967Z</time></trkpt><trkpt lat="43.3727327" lon="-4.4660863"><ele>13.5</ele><time>2026-05-02T08:45:35.965Z</time></trkpt><trkpt lat="43.37276" lon="-4.4658909"><ele>13.25</ele><time>2026-05-02T08:45:36.969Z</time></trkpt><trkpt lat="43.3727788" lon="-4.4656877"><ele>13.0</ele><time>2026-05-02T08:45:37.974Z</time></trkpt><trkpt lat="43.3728009" lon="-4.465494"><ele>13.25</ele><time>2026-05-02T08:45:38.969Z</time></trkpt><trkpt lat="43.3728186" lon="-4.465297"><ele>13.5</ele><time>2026-05-02T08:45:39.972Z</time></trkpt><trkpt lat="43.3728374" lon="-4.4651125"><ele>13.75</ele><time>2026-05-02T08:45:40.97Z</time></trkpt><trkpt lat="43.3728525" lon="-4.4649373"><ele>14.0</ele><time>2026-05-02T08:45:41.974Z</time></trkpt><trkpt lat="43.3728742" lon="-4.4647676"><ele>14.0</ele><time>2026-05-02T08:45:42.989Z</time></trkpt><trkpt lat="43.3728893" lon="-4.4646138"><ele>13.999999999999998</ele><time>2026-05-02T08:45:43.981Z</time></trkpt><trkpt lat="43.3728993" lon="-4.464471"><ele>13.999999999999998</ele><time>2026-05-02T08:45:44.973Z</time></trkpt><trkpt lat="43.3728916" lon="-4.4643405"><ele>14.0</ele><time>2026-05-02T08:45:45.969Z</time></trkpt><trkpt lat="43.3728628" lon="-4.4642221"><ele>14.0</ele><time>2026-05-02T08:45:46.982Z</time></trkpt><trkpt lat="43.372831" lon="-4.4641076"><ele>13.833333333333334</ele><time>2026-05-02T08:45:47.974Z</time></trkpt><trkpt lat="43.372794" lon="-4.4639954"><ele>13.666666666666668</ele><time>2026-05-02T08:45:48.976Z</time></trkpt><trkpt lat="43.3727644" lon="-4.4638912"><ele>13.5</ele><time>2026-05-02T08:45:49.977Z</time></trkpt><trkpt lat="43.3727561" lon="-4.4637963"><ele>13.333333333333332</ele><time>2026-05-02T08:45:50.972Z</time></trkpt><trkpt lat="43.372797" lon="-4.463637"><ele>13.166666666666666</ele><time>2026-05-02T08:45:52.972Z</time></trkpt><trkpt lat="43.3728512" lon="-4.4635758"><ele>13.0</ele><time>2026-05-02T08:45:53.978Z</time></trkpt><trkpt lat="43.3729308" lon="-4.4635346"><ele>12.200000000000001</ele><time>2026-05-02T08:45:54.983Z</time></trkpt><trkpt lat="43.3730244" lon="-4.463499"><ele>11.4</ele><time>2026-05-02T08:45:55.97Z</time></trkpt><trkpt lat="43.3731187" lon="-4.4634526"><ele>10.600000000000001</ele><time>2026-05-02T08:45:56.971Z</time></trkpt><trkpt lat="43.3732006" lon="-4.4633761"><ele>9.8</ele><time>2026-05-02T08:45:57.977Z</time></trkpt><trkpt lat="43.3732742" lon="-4.4632621"><ele>9.0</ele><time>2026-05-02T08:45:58.967Z</time></trkpt><trkpt lat="43.373332" lon="-4.4631279"><ele>9.0</ele><time>2026-05-02T08:45:59.966Z</time></trkpt><trkpt lat="43.373382" lon="-4.4629894"><ele>9.0</ele><time>2026-05-02T08:46:00.967Z</time></trkpt><trkpt lat="43.3734243" lon="-4.462857"><ele>9.0</ele><time>2026-05-02T08:46:01.964Z</time></trkpt><trkpt lat="43.3734576" lon="-4.4627434"><ele>9.0</ele><time>2026-05-02T08:46:02.966Z</time></trkpt><trkpt lat="43.3734918" lon="-4.4626373"><ele>9.0</ele><time>2026-05-02T08:46:03.964Z</time></trkpt><trkpt lat="43.3735355" lon="-4.4625234"><ele>9.0</ele><time>2026-05-02T08:46:04.962Z</time></trkpt><trkpt lat="43.3735804" lon="-4.4624018"><ele>9.0</ele><time>2026-05-02T08:46:05.963Z</time></trkpt><trkpt lat="43.373634" lon="-4.4622688"><ele>9.0</ele><time>2026-05-02T08:46:06.97Z</time></trkpt><trkpt lat="43.3736805" lon="-4.4621266"><ele>9.0</ele><time>2026-05-02T08:46:07.963Z</time></trkpt><trkpt lat="43.3737255" lon="-4.4619796"><ele>9.0</ele><time>2026-05-02T08:46:08.964Z</time></trkpt><trkpt lat="43.3737725" lon="-4.4618238"><ele>9.0</ele><time>2026-05-02T08:46:09.961Z</time></trkpt><trkpt lat="43.3738226" lon="-4.4616686"><ele>9.0</ele><time>2026-05-02T08:46:10.964Z</time></trkpt><trkpt lat="43.3738761" lon="-4.4615095"><ele>9.0</ele><time>2026-05-02T08:46:11.967Z</time></trkpt><trkpt lat="43.373933" lon="-4.4613476"><ele>9.0</ele><time>2026-05-02T08:46:12.963Z</time></trkpt><trkpt lat="43.3739917" lon="-4.461186"><ele>9.0</ele><time>2026-05-02T08:46:13.979Z</time></trkpt><trkpt lat="43.374046" lon="-4.4610183"><ele>9.0</ele><time>2026-05-02T08:46:14.972Z</time></trkpt><trkpt lat="43.3740974" lon="-4.4608443"><ele>9.0</ele><time>2026-05-02T08:46:15.971Z</time></trkpt><trkpt lat="43.3741572" lon="-4.460673"><ele>9.0</ele><time>2026-05-02T08:46:16.971Z</time></trkpt><trkpt lat="43.3742159" lon="-4.4605007"><ele>9.75</ele><time>2026-05-02T08:46:17.975Z</time></trkpt><trkpt lat="43.3742717" lon="-4.4603357"><ele>10.5</ele><time>2026-05-02T08:46:18.974Z</time></trkpt><trkpt lat="43.3743249" lon="-4.4601702"><ele>11.25</ele><time>2026-05-02T08:46:19.975Z</time></trkpt><trkpt lat="43.374373" lon="-4.4599982"><ele>12.0</ele><time>2026-05-02T08:46:20.976Z</time></trkpt><trkpt lat="43.374427" lon="-4.4598259"><ele>12.0</ele><time>2026-05-02T08:46:21.981Z</time></trkpt><trkpt lat="43.3744872" lon="-4.4596627"><ele>12.0</ele><time>2026-05-02T08:46:22.978Z</time></trkpt><trkpt lat="43.3745398" lon="-4.4594952"><ele>12.0</ele><time>2026-05-02T08:46:23.975Z</time></trkpt><trkpt lat="43.3746012" lon="-4.4593314"><ele>12.0</ele><time>2026-05-02T08:46:24.976Z</time></trkpt><trkpt lat="43.3746546" lon="-4.4591627"><ele>12.25</ele><time>2026-05-02T08:46:25.971Z</time></trkpt><trkpt lat="43.3747123" lon="-4.4589968"><ele>12.5</ele><time>2026-05-02T08:46:26.967Z</time></trkpt><trkpt lat="43.3747689" lon="-4.4588352"><ele>12.75</ele><time>2026-05-02T08:46:27.965Z</time></trkpt><trkpt lat="43.3748272" lon="-4.4586674"><ele>13.0</ele><time>2026-05-02T08:46:28.966Z</time></trkpt><trkpt lat="43.3748861" lon="-4.4585004"><ele>13.0</ele><time>2026-05-02T08:46:29.966Z</time></trkpt><trkpt lat="43.3749442" lon="-4.4583319"><ele>13.0</ele><time>2026-05-02T08:46:30.967Z</time></trkpt><trkpt lat="43.3750056" lon="-4.4581598"><ele>13.0</ele><time>2026-05-02T08:46:31.968Z</time></trkpt><trkpt lat="43.3750641" lon="-4.4579899"><ele>13.0</ele><time>2026-05-02T08:46:32.967Z</time></trkpt><trkpt lat="43.3751221" lon="-4.4578138"><ele>13.0</ele><time>2026-05-02T08:46:33.969Z</time></trkpt><trkpt lat="43.3751853" lon="-4.4576392"><ele>13.0</ele><time>2026-05-02T08:46:34.967Z</time></trkpt><trkpt lat="43.3752491" lon="-4.4574698"><ele>13.0</ele><time>2026-05-02T08:46:35.967Z</time></trkpt><trkpt lat="43.3753179" lon="-4.4572976"><ele>13.0</ele><time>2026-05-02T08:46:36.968Z</time></trkpt><trkpt lat="43.3753911" lon="-4.4571289"><ele>13.5</ele><time>2026-05-02T08:46:37.967Z</time></trkpt><trkpt lat="43.3754712" lon="-4.4569573"><ele>14.0</ele><time>2026-05-02T08:46:38.968Z</time></trkpt><trkpt lat="43.3755535" lon="-4.4567859"><ele>14.5</ele><time>2026-05-02T08:46:39.965Z</time></trkpt><trkpt lat="43.3756419" lon="-4.4566173"><ele>15.0</ele><time>2026-05-02T08:46:40.967Z</time></trkpt><trkpt lat="43.3757347" lon="-4.4564535"><ele>15.666666666666668</ele><time>2026-05-02T08:46:41.969Z</time></trkpt><trkpt lat="43.3758292" lon="-4.4562963"><ele>16.333333333333336</ele><time>2026-05-02T08:46:42.968Z</time></trkpt><trkpt lat="43.3759254" lon="-4.456137"><ele>17.0</ele><time>2026-05-02T08:46:43.97Z</time></trkpt><trkpt lat="43.376021" lon="-4.4559698"><ele>17.0</ele><time>2026-05-02T08:46:44.983Z</time></trkpt><trkpt lat="43.3761157" lon="-4.4558145"><ele>17.0</ele><time>2026-05-02T08:46:45.97Z</time></trkpt><trkpt lat="43.3762096" lon="-4.4556589"><ele>17.0</ele><time>2026-05-02T08:46:46.974Z</time></trkpt><trkpt lat="43.3762984" lon="-4.4555033"><ele>17.0</ele><time>2026-05-02T08:46:47.967Z</time></trkpt><trkpt lat="43.3763883" lon="-4.4553466"><ele>18.666666666666668</ele><time>2026-05-02T08:46:48.975Z</time></trkpt><trkpt lat="43.3764821" lon="-4.4551816"><ele>20.333333333333332</ele><time>2026-05-02T08:46:49.967Z</time></trkpt><trkpt lat="43.3765694" lon="-4.4550108"><ele>22.0</ele><time>2026-05-02T08:46:50.966Z</time></trkpt><trkpt lat="43.3766535" lon="-4.4548361"><ele>22.0</ele><time>2026-05-02T08:46:51.973Z</time></trkpt><trkpt lat="43.376735" lon="-4.4546625"><ele>22.0</ele><time>2026-05-02T08:46:52.97Z</time></trkpt><trkpt lat="43.3768164" lon="-4.4544997"><ele>22.0</ele><time>2026-05-02T08:46:53.966Z</time></trkpt><trkpt lat="43.3769022" lon="-4.4543366"><ele>22.0</ele><time>2026-05-02T08:46:54.966Z</time></trkpt><trkpt lat="43.3769929" lon="-4.4541784"><ele>22.25</ele><time>2026-05-02T08:46:55.967Z</time></trkpt><trkpt lat="43.377083" lon="-4.4540226"><ele>22.5</ele><time>2026-05-02T08:46:56.965Z</time></trkpt><trkpt lat="43.3771719" lon="-4.4538667"><ele>22.75</ele><time>2026-05-02T08:46:57.971Z</time></trkpt><trkpt lat="43.3772619" lon="-4.4537125"><ele>23.0</ele><time>2026-05-02T08:46:58.966Z</time></trkpt><trkpt lat="43.3773473" lon="-4.4535569"><ele>25.0</ele><time>2026-05-02T08:46:59.968Z</time></trkpt><trkpt lat="43.3774317" lon="-4.4534094"><ele>27.0</ele><time>2026-05-02T08:47:00.966Z</time></trkpt><trkpt lat="43.3775164" lon="-4.4532534"><ele>29.0</ele><time>2026-05-02T08:47:01.965Z</time></trkpt><trkpt lat="43.3776024" lon="-4.4530959"><ele>31.0</ele><time>2026-05-02T08:47:02.972Z</time></trkpt><trkpt lat="43.3776889" lon="-4.4529397"><ele>31.0</ele><time>2026-05-02T08:47:03.966Z</time></trkpt><trkpt lat="43.3777753" lon="-4.452783"><ele>31.0</ele><time>2026-05-02T08:47:04.967Z</time></trkpt><trkpt lat="43.377855" lon="-4.4526185"><ele>31.0</ele><time>2026-05-02T08:47:05.967Z</time></trkpt><trkpt lat="43.3779324" lon="-4.4524535"><ele>31.0</ele><time>2026-05-02T08:47:06.966Z</time></trkpt><trkpt lat="43.3780077" lon="-4.4522889"><ele>33.5</ele><time>2026-05-02T08:47:07.965Z</time></trkpt><trkpt lat="43.3780737" lon="-4.4521151"><ele>36.0</ele><time>2026-05-02T08:47:08.964Z</time></trkpt><trkpt lat="43.3781379" lon="-4.4519442"><ele>38.5</ele><time>2026-05-02T08:47:09.963Z</time></trkpt><trkpt lat="43.3781948" lon="-4.4517661"><ele>41.0</ele><time>2026-05-02T08:47:10.962Z</time></trkpt><trkpt lat="43.3782484" lon="-4.4515834"><ele>41.0</ele><time>2026-05-02T08:47:11.962Z</time></trkpt><trkpt lat="43.3783177" lon="-4.4514134"><ele>41.0</ele><time>2026-05-02T08:47:12.961Z</time></trkpt><trkpt lat="43.37837" lon="-4.4512389"><ele>41.0</ele><time>2026-05-02T08:47:13.964Z</time></trkpt><trkpt lat="43.3784299" lon="-4.4510586"><ele>41.0</ele><time>2026-05-02T08:47:14.964Z</time></trkpt><trkpt lat="43.3784848" lon="-4.450885"><ele>41.25</ele><time>2026-05-02T08:47:15.981Z</time></trkpt><trkpt lat="43.3785478" lon="-4.4507143"><ele>41.5</ele><time>2026-05-02T08:47:16.964Z</time></trkpt><trkpt lat="43.3786038" lon="-4.4505365"><ele>41.75</ele><time>2026-05-02T08:47:17.963Z</time></trkpt><trkpt lat="43.3786642" lon="-4.4503672"><ele>42.0</ele><time>2026-05-02T08:47:18.962Z</time></trkpt><trkpt lat="43.3787251" lon="-4.4501932"><ele>41.5</ele><time>2026-05-02T08:47:19.966Z</time></trkpt><trkpt lat="43.3787831" lon="-4.4500217"><ele>41.0</ele><time>2026-05-02T08:47:20.963Z</time></trkpt><trkpt lat="43.3788389" lon="-4.4498484"><ele>40.5</ele><time>2026-05-02T08:47:21.965Z</time></trkpt><trkpt lat="43.3788924" lon="-4.4496592"><ele>40.0</ele><time>2026-05-02T08:47:22.966Z</time></trkpt><trkpt lat="43.3789342" lon="-4.4494719"><ele>43.25</ele><time>2026-05-02T08:47:23.964Z</time></trkpt><trkpt lat="43.3789711" lon="-4.4492865"><ele>46.5</ele><time>2026-05-02T08:47:24.965Z</time></trkpt><trkpt lat="43.379" lon="-4.4491014"><ele>49.75</ele><time>2026-05-02T08:47:25.96Z</time></trkpt><trkpt lat="43.3790311" lon="-4.4489134"><ele>53.0</ele><time>2026-05-02T08:47:26.962Z</time></trkpt><trkpt lat="43.3790615" lon="-4.4487248"><ele>53.0</ele><time>2026-05-02T08:47:27.965Z</time></trkpt><trkpt lat="43.3790897" lon="-4.4485425"><ele>53.0</ele><time>2026-05-02T08:47:28.962Z</time></trkpt><trkpt lat="43.3791237" lon="-4.4483576"><ele>53.0</ele><time>2026-05-02T08:47:29.964Z</time></trkpt><trkpt lat="43.3791563" lon="-4.448179"><ele>53.0</ele><time>2026-05-02T08:47:30.969Z</time></trkpt><trkpt lat="43.3791952" lon="-4.4480017"><ele>53.0</ele><time>2026-05-02T08:47:31.963Z</time></trkpt><trkpt lat="43.3792372" lon="-4.4478211"><ele>53.0</ele><time>2026-05-02T08:47:32.964Z</time></trkpt><trkpt lat="43.3792714" lon="-4.4476421"><ele>53.0</ele><time>2026-05-02T08:47:33.965Z</time></trkpt><trkpt lat="43.3793134" lon="-4.447469"><ele>53.0</ele><time>2026-05-02T08:47:34.962Z</time></trkpt><trkpt lat="43.3793552" lon="-4.447284"><ele>53.0</ele><time>2026-05-02T08:47:35.962Z</time></trkpt><trkpt lat="43.379392" lon="-4.4470915"><ele>53.0</ele><time>2026-05-02T08:47:36.961Z</time></trkpt><trkpt lat="43.3794215" lon="-4.446909"><ele>53.0</ele><time>2026-05-02T08:47:37.961Z</time></trkpt><trkpt lat="43.3794482" lon="-4.4467188"><ele>53.0</ele><time>2026-05-02T08:47:38.965Z</time></trkpt><trkpt lat="43.3794743" lon="-4.4465324"><ele>53.0</ele><time>2026-05-02T08:47:39.964Z</time></trkpt><trkpt lat="43.3794958" lon="-4.446346"><ele>53.0</ele><time>2026-05-02T08:47:40.964Z</time></trkpt><trkpt lat="43.3795045" lon="-4.4461567"><ele>53.0</ele><time>2026-05-02T08:47:41.964Z</time></trkpt><trkpt lat="43.3795005" lon="-4.4459749"><ele>53.0</ele><time>2026-05-02T08:47:42.964Z</time></trkpt><trkpt lat="43.3794973" lon="-4.4458045"><ele>53.0</ele><time>2026-05-02T08:47:43.967Z</time></trkpt><trkpt lat="43.3794922" lon="-4.4456517"><ele>53.0</ele><time>2026-05-02T08:47:44.967Z</time></trkpt><trkpt lat="43.3794859" lon="-4.4455135"><ele>53.0</ele><time>2026-05-02T08:47:45.966Z</time></trkpt><trkpt lat="43.3794778" lon="-4.4453753"><ele>53.0</ele><time>2026-05-02T08:47:46.982Z</time></trkpt><trkpt lat="43.379475" lon="-4.4452461"><ele>53.0</ele><time>2026-05-02T08:47:47.967Z</time></trkpt><trkpt lat="43.3794792" lon="-4.4451215"><ele>53.333333333333336</ele><time>2026-05-02T08:47:48.967Z</time></trkpt><trkpt lat="43.3794827" lon="-4.4449999"><ele>53.66666666666667</ele><time>2026-05-02T08:47:49.968Z</time></trkpt><trkpt lat="43.3794869" lon="-4.4448816"><ele>54.0</ele><time>2026-05-02T08:47:50.965Z</time></trkpt><trkpt lat="43.3794914" lon="-4.4447673"><ele>54.33333333333333</ele><time>2026-05-02T08:47:51.971Z</time></trkpt><trkpt lat="43.379502" lon="-4.4446577"><ele>54.666666666666664</ele><time>2026-05-02T08:47:52.976Z</time></trkpt><trkpt lat="43.3795214" lon="-4.4445425"><ele>55.0</ele><time>2026-05-02T08:47:53.97Z</time></trkpt><trkpt lat="43.3795389" lon="-4.4444306"><ele>54.99999999999999</ele><time>2026-05-02T08:47:54.971Z</time></trkpt><trkpt lat="43.37956" lon="-4.4443174"><ele>55.0</ele><time>2026-05-02T08:47:55.969Z</time></trkpt><trkpt lat="43.3795837" lon="-4.4442024"><ele>55.0</ele><time>2026-05-02T08:47:56.968Z</time></trkpt><trkpt lat="43.3796049" lon="-4.4440913"><ele>55.0</ele><time>2026-05-02T08:47:57.971Z</time></trkpt><trkpt lat="43.3796302" lon="-4.4439725"><ele>54.99999999999999</ele><time>2026-05-02T08:47:58.968Z</time></trkpt><trkpt lat="43.379654" lon="-4.4438485"><ele>55.0</ele><time>2026-05-02T08:47:59.97Z</time></trkpt><trkpt lat="43.3796823" lon="-4.4437147"><ele>58.75</ele><time>2026-05-02T08:48:00.969Z</time></trkpt><trkpt lat="43.3797132" lon="-4.4435709"><ele>62.5</ele><time>2026-05-02T08:48:01.968Z</time></trkpt><trkpt lat="43.3797428" lon="-4.4434212"><ele>66.25</ele><time>2026-05-02T08:48:02.968Z</time></trkpt><trkpt lat="43.3797759" lon="-4.4432638"><ele>70.0</ele><time>2026-05-02T08:48:03.974Z</time></trkpt><trkpt lat="43.379806" lon="-4.4430975"><ele>70.0</ele><time>2026-05-02T08:48:04.97Z</time></trkpt><trkpt lat="43.379835" lon="-4.4429245"><ele>70.0</ele><time>2026-05-02T08:48:05.977Z</time></trkpt><trkpt lat="43.379862" lon="-4.4427476"><ele>70.0</ele><time>2026-05-02T08:48:06.973Z</time></trkpt><trkpt lat="43.3798762" lon="-4.4425727"><ele>70.0</ele><time>2026-05-02T08:48:07.978Z</time></trkpt><trkpt lat="43.3798816" lon="-4.4423974"><ele>70.0</ele><time>2026-05-02T08:48:08.977Z</time></trkpt><trkpt lat="43.3798788" lon="-4.4422233"><ele>70.0</ele><time>2026-05-02T08:48:09.979Z</time></trkpt><trkpt lat="43.3798716" lon="-4.4420485"><ele>70.0</ele><time>2026-05-02T08:48:10.973Z</time></trkpt><trkpt lat="43.3798553" lon="-4.4418713"><ele>70.0</ele><time>2026-05-02T08:48:11.972Z</time></trkpt><trkpt lat="43.3798369" lon="-4.4416933"><ele>71.0</ele><time>2026-05-02T08:48:12.975Z</time></trkpt><trkpt lat="43.3798125" lon="-4.4415187"><ele>72.0</ele><time>2026-05-02T08:48:13.977Z</time></trkpt><trkpt lat="43.3797877" lon="-4.4413405"><ele>73.0</ele><time>2026-05-02T08:48:14.978Z</time></trkpt><trkpt lat="43.3797691" lon="-4.4411649"><ele>74.0</ele><time>2026-05-02T08:48:15.978Z</time></trkpt><trkpt lat="43.3797489" lon="-4.4409922"><ele>74.75</ele><time>2026-05-02T08:48:16.982Z</time></trkpt><trkpt lat="43.3797325" lon="-4.4408268"><ele>75.5</ele><time>2026-05-02T08:48:17.994Z</time></trkpt><trkpt lat="43.3797105" lon="-4.4406594"><ele>76.25</ele><time>2026-05-02T08:48:18.979Z</time></trkpt><trkpt lat="43.3796973" lon="-4.4404877"><ele>77.0</ele><time>2026-05-02T08:48:19.974Z</time></trkpt><trkpt lat="43.379692" lon="-4.4403172"><ele>78.25</ele><time>2026-05-02T08:48:20.973Z</time></trkpt><trkpt lat="43.379695" lon="-4.4401469"><ele>79.5</ele><time>2026-05-02T08:48:21.975Z</time></trkpt><trkpt lat="43.3797052" lon="-4.4399752"><ele>80.75</ele><time>2026-05-02T08:48:22.98Z</time></trkpt><trkpt lat="43.3797265" lon="-4.4398044"><ele>82.0</ele><time>2026-05-02T08:48:23.977Z</time></trkpt><trkpt lat="43.3797584" lon="-4.4396373"><ele>82.5</ele><time>2026-05-02T08:48:24.976Z</time></trkpt><trkpt lat="43.3797986" lon="-4.4394729"><ele>83.0</ele><time>2026-05-02T08:48:25.981Z</time></trkpt><trkpt lat="43.3798489" lon="-4.439316"><ele>83.5</ele><time>2026-05-02T08:48:26.978Z</time></trkpt><trkpt lat="43.3799027" lon="-4.4391673"><ele>84.0</ele><time>2026-05-02T08:48:27.982Z</time></trkpt><trkpt lat="43.3799611" lon="-4.4390169"><ele>84.0</ele><time>2026-05-02T08:48:28.972Z</time></trkpt><trkpt lat="43.3800194" lon="-4.4388678"><ele>84.0</ele><time>2026-05-02T08:48:29.976Z</time></trkpt><trkpt lat="43.3800888" lon="-4.4387127"><ele>84.0</ele><time>2026-05-02T08:48:30.977Z</time></trkpt><trkpt lat="43.3801587" lon="-4.4385652"><ele>84.0</ele><time>2026-05-02T08:48:31.978Z</time></trkpt><trkpt lat="43.3802231" lon="-4.4384145"><ele>82.5</ele><time>2026-05-02T08:48:32.979Z</time></trkpt><trkpt lat="43.3802864" lon="-4.4382602"><ele>81.0</ele><time>2026-05-02T08:48:33.979Z</time></trkpt><trkpt lat="43.3803448" lon="-4.4381023"><ele>79.5</ele><time>2026-05-02T08:48:34.973Z</time></trkpt><trkpt lat="43.3803966" lon="-4.4379398"><ele>78.0</ele><time>2026-05-02T08:48:35.976Z</time></trkpt><trkpt lat="43.3804413" lon="-4.4377755"><ele>79.0</ele><time>2026-05-02T08:48:36.974Z</time></trkpt><trkpt lat="43.380484" lon="-4.4376071"><ele>80.0</ele><time>2026-05-02T08:48:37.968Z</time></trkpt><trkpt lat="43.380528" lon="-4.4374401"><ele>81.0</ele><time>2026-05-02T08:48:38.971Z</time></trkpt><trkpt lat="43.3805734" lon="-4.4372711"><ele>82.0</ele><time>2026-05-02T08:48:39.973Z</time></trkpt><trkpt lat="43.3806204" lon="-4.4370982"><ele>82.0</ele><time>2026-05-02T08:48:40.972Z</time></trkpt><trkpt lat="43.3806742" lon="-4.4369313"><ele>82.0</ele><time>2026-05-02T08:48:41.971Z</time></trkpt><trkpt lat="43.3807316" lon="-4.4367757"><ele>82.0</ele><time>2026-05-02T08:48:42.97Z</time></trkpt><trkpt lat="43.3807972" lon="-4.436631"><ele>82.0</ele><time>2026-05-02T08:48:43.975Z</time></trkpt><trkpt lat="43.3808667" lon="-4.4365054"><ele>82.0</ele><time>2026-05-02T08:48:44.969Z</time></trkpt><trkpt lat="43.3809405" lon="-4.436393"><ele>82.0</ele><time>2026-05-02T08:48:45.974Z</time></trkpt><trkpt lat="43.3810188" lon="-4.4362946"><ele>82.0</ele><time>2026-05-02T08:48:46.975Z</time></trkpt><trkpt lat="43.3810998" lon="-4.4362013"><ele>82.0</ele><time>2026-05-02T08:48:47.975Z</time></trkpt><trkpt lat="43.3811839" lon="-4.4361108"><ele>82.0</ele><time>2026-05-02T08:48:48.99Z</time></trkpt><trkpt lat="43.3812656" lon="-4.4360141"><ele>82.8</ele><time>2026-05-02T08:48:49.977Z</time></trkpt><trkpt lat="43.3813455" lon="-4.435918"><ele>83.6</ele><time>2026-05-02T08:48:50.976Z</time></trkpt><trkpt lat="43.3814255" lon="-4.4358168"><ele>84.39999999999999</ele><time>2026-05-02T08:48:51.98Z</time></trkpt><trkpt lat="43.3815028" lon="-4.4357135"><ele>85.19999999999999</ele><time>2026-05-02T08:48:52.977Z</time></trkpt><trkpt lat="43.3815787" lon="-4.4356073"><ele>86.0</ele><time>2026-05-02T08:48:53.975Z</time></trkpt><trkpt lat="43.3816518" lon="-4.4354948"><ele>84.5</ele><time>2026-05-02T08:48:54.976Z</time></trkpt><trkpt lat="43.3817165" lon="-4.4353682"><ele>83.0</ele><time>2026-05-02T08:48:55.965Z</time></trkpt><trkpt lat="43.3817666" lon="-4.4352233"><ele>81.5</ele><time>2026-05-02T08:48:56.973Z</time></trkpt><trkpt lat="43.3818065" lon="-4.4350577"><ele>80.0</ele><time>2026-05-02T08:48:57.981Z</time></trkpt><trkpt lat="43.3818297" lon="-4.4348768"><ele>80.0</ele><time>2026-05-02T08:48:58.975Z</time></trkpt><trkpt lat="43.3818373" lon="-4.4346949"><ele>80.0</ele><time>2026-05-02T08:48:59.974Z</time></trkpt><trkpt lat="43.3818485" lon="-4.4345119"><ele>80.0</ele><time>2026-05-02T08:49:00.974Z</time></trkpt><trkpt lat="43.3818677" lon="-4.4343332"><ele>80.0</ele><time>2026-05-02T08:49:01.97Z</time></trkpt><trkpt lat="43.3818866" lon="-4.4341468"><ele>79.25</ele><time>2026-05-02T08:49:02.974Z</time></trkpt><trkpt lat="43.3819019" lon="-4.4339565"><ele>78.5</ele><time>2026-05-02T08:49:03.966Z</time></trkpt><trkpt lat="43.3819173" lon="-4.433761"><ele>77.75</ele><time>2026-05-02T08:49:04.968Z</time></trkpt><trkpt lat="43.3819368" lon="-4.433561"><ele>77.0</ele><time>2026-05-02T08:49:05.962Z</time></trkpt><trkpt lat="43.3819553" lon="-4.4333606"><ele>77.0</ele><time>2026-05-02T08:49:06.97Z</time></trkpt><trkpt lat="43.3819779" lon="-4.4331564"><ele>77.0</ele><time>2026-05-02T08:49:07.976Z</time></trkpt><trkpt lat="43.3820012" lon="-4.432947"><ele>77.0</ele><time>2026-05-02T08:49:08.978Z</time></trkpt><trkpt lat="43.3820197" lon="-4.4327319"><ele>76.33333333333334</ele><time>2026-05-02T08:49:09.98Z</time></trkpt><trkpt lat="43.3820425" lon="-4.432519"><ele>75.66666666666667</ele><time>2026-05-02T08:49:10.978Z</time></trkpt><trkpt lat="43.3820645" lon="-4.4323194"><ele>75.0</ele><time>2026-05-02T08:49:11.976Z</time></trkpt><trkpt lat="43.3820983" lon="-4.4321192"><ele>74.33333333333333</ele><time>2026-05-02T08:49:12.976Z</time></trkpt><trkpt lat="43.3821412" lon="-4.4319157"><ele>73.66666666666666</ele><time>2026-05-02T08:49:13.978Z</time></trkpt><trkpt lat="43.3821984" lon="-4.4317146"><ele>73.0</ele><time>2026-05-02T08:49:14.976Z</time></trkpt><trkpt lat="43.3822679" lon="-4.4315236"><ele>75.0</ele><time>2026-05-02T08:49:15.97Z</time></trkpt><trkpt lat="43.3823423" lon="-4.431341"><ele>77.0</ele><time>2026-05-02T08:49:16.976Z</time></trkpt><trkpt lat="43.3824206" lon="-4.4311722"><ele>79.0</ele><time>2026-05-02T08:49:17.978Z</time></trkpt><trkpt lat="43.3824921" lon="-4.4309966"><ele>81.0</ele><time>2026-05-02T08:49:18.979Z</time></trkpt><trkpt lat="43.3825616" lon="-4.4308229"><ele>81.0</ele><time>2026-05-02T08:49:19.994Z</time></trkpt><trkpt lat="43.3826349" lon="-4.4306426"><ele>81.0</ele><time>2026-05-02T08:49:20.97Z</time></trkpt><trkpt lat="43.3827064" lon="-4.4304626"><ele>81.0</ele><time>2026-05-02T08:49:21.986Z</time></trkpt><trkpt lat="43.3827815" lon="-4.4302935"><ele>81.0</ele><time>2026-05-02T08:49:22.982Z</time></trkpt><trkpt lat="43.3828627" lon="-4.4301299"><ele>80.5</ele><time>2026-05-02T08:49:23.975Z</time></trkpt><trkpt lat="43.3829515" lon="-4.4299681"><ele>80.0</ele><time>2026-05-02T08:49:24.978Z</time></trkpt><trkpt lat="43.3830366" lon="-4.4298169"><ele>79.5</ele><time>2026-05-02T08:49:25.982Z</time></trkpt><trkpt lat="43.3831188" lon="-4.4296667"><ele>79.0</ele><time>2026-05-02T08:49:26.976Z</time></trkpt><trkpt lat="43.3832" lon="-4.4295243"><ele>82.5</ele><time>2026-05-02T08:49:27.98Z</time></trkpt><trkpt lat="43.3832854" lon="-4.4293763"><ele>86.0</ele><time>2026-05-02T08:49:28.977Z</time></trkpt><trkpt lat="43.3833691" lon="-4.4292329"><ele>89.5</ele><time>2026-05-02T08:49:29.976Z</time></trkpt><trkpt lat="43.3834491" lon="-4.4290862"><ele>93.0</ele><time>2026-05-02T08:49:30.976Z</time></trkpt><trkpt lat="43.3835335" lon="-4.4289374"><ele>93.0</ele><time>2026-05-02T08:49:31.978Z</time></trkpt><trkpt lat="43.3836171" lon="-4.4287928"><ele>93.0</ele><time>2026-05-02T08:49:32.978Z</time></trkpt><trkpt lat="43.3837025" lon="-4.4286356"><ele>93.0</ele><time>2026-05-02T08:49:33.979Z</time></trkpt><trkpt lat="43.3837893" lon="-4.4284863"><ele>93.0</ele><time>2026-05-02T08:49:34.976Z</time></trkpt><trkpt lat="43.3838682" lon="-4.4283297"><ele>93.0</ele><time>2026-05-02T08:49:35.979Z</time></trkpt><trkpt lat="43.3839432" lon="-4.4281727"><ele>93.0</ele><time>2026-05-02T08:49:36.979Z</time></trkpt><trkpt lat="43.3840096" lon="-4.428004"><ele>93.0</ele><time>2026-05-02T08:49:37.978Z</time></trkpt><trkpt lat="43.3840735" lon="-4.427834"><ele>93.0</ele><time>2026-05-02T08:49:38.972Z</time></trkpt><trkpt lat="43.3841385" lon="-4.4276512"><ele>93.25</ele><time>2026-05-02T08:49:39.975Z</time></trkpt><trkpt lat="43.3841918" lon="-4.4274686"><ele>93.5</ele><time>2026-05-02T08:49:40.974Z</time></trkpt><trkpt lat="43.3842448" lon="-4.4272837"><ele>93.75</ele><time>2026-05-02T08:49:41.972Z</time></trkpt><trkpt lat="43.3842887" lon="-4.427082"><ele>94.0</ele><time>2026-05-02T08:49:42.97Z</time></trkpt><trkpt lat="43.3843353" lon="-4.4268776"><ele>93.33333333333333</ele><time>2026-05-02T08:49:43.972Z</time></trkpt><trkpt lat="43.384372" lon="-4.4266779"><ele>92.66666666666667</ele><time>2026-05-02T08:49:44.976Z</time></trkpt><trkpt lat="43.3844037" lon="-4.4264618"><ele>92.0</ele><time>2026-05-02T08:49:45.972Z</time></trkpt><trkpt lat="43.3844274" lon="-4.4262647"><ele>90.33333333333334</ele><time>2026-05-02T08:49:46.977Z</time></trkpt><trkpt lat="43.3844363" lon="-4.4260493"><ele>88.66666666666667</ele><time>2026-05-02T08:49:47.975Z</time></trkpt><trkpt lat="43.3844415" lon="-4.4258271"><ele>87.0</ele><time>2026-05-02T08:49:48.977Z</time></trkpt><trkpt lat="43.3844285" lon="-4.4256162"><ele>88.33333333333333</ele><time>2026-05-02T08:49:49.971Z</time></trkpt><trkpt lat="43.3844099" lon="-4.4253906"><ele>89.66666666666666</ele><time>2026-05-02T08:49:50.985Z</time></trkpt><trkpt lat="43.384391" lon="-4.4251677"><ele>91.0</ele><time>2026-05-02T08:49:51.974Z</time></trkpt><trkpt lat="43.3843597" lon="-4.4249522"><ele>91.0</ele><time>2026-05-02T08:49:52.976Z</time></trkpt><trkpt lat="43.3843298" lon="-4.4247296"><ele>91.0</ele><time>2026-05-02T08:49:53.973Z</time></trkpt><trkpt lat="43.3843081" lon="-4.4245052"><ele>91.0</ele><time>2026-05-02T08:49:54.975Z</time></trkpt><trkpt lat="43.3842775" lon="-4.4242895"><ele>92.0</ele><time>2026-05-02T08:49:55.972Z</time></trkpt><trkpt lat="43.3842453" lon="-4.4240776"><ele>93.0</ele><time>2026-05-02T08:49:56.969Z</time></trkpt><trkpt lat="43.3842163" lon="-4.4238696"><ele>94.0</ele><time>2026-05-02T08:49:57.967Z</time></trkpt><trkpt lat="43.384186" lon="-4.4236637"><ele>95.66666666666666</ele><time>2026-05-02T08:49:58.968Z</time></trkpt><trkpt lat="43.3841514" lon="-4.4234465"><ele>97.33333333333333</ele><time>2026-05-02T08:49:59.965Z</time></trkpt><trkpt lat="43.3841153" lon="-4.4232303"><ele>99.0</ele><time>2026-05-02T08:50:00.964Z</time></trkpt><trkpt lat="43.3840864" lon="-4.4230264"><ele>99.33333333333334</ele><time>2026-05-02T08:50:01.966Z</time></trkpt><trkpt lat="43.3840524" lon="-4.4228172"><ele>99.66666666666667</ele><time>2026-05-02T08:50:02.963Z</time></trkpt><trkpt lat="43.3840243" lon="-4.422608"><ele>100.0</ele><time>2026-05-02T08:50:03.965Z</time></trkpt><trkpt lat="43.3839982" lon="-4.4223978"><ele>100.0</ele><time>2026-05-02T08:50:04.964Z</time></trkpt><trkpt lat="43.3839675" lon="-4.4221885"><ele>100.0</ele><time>2026-05-02T08:50:05.967Z</time></trkpt><trkpt lat="43.383941" lon="-4.4219816"><ele>100.0</ele><time>2026-05-02T08:50:06.961Z</time></trkpt><trkpt lat="43.3839152" lon="-4.4217653"><ele>99.66666666666667</ele><time>2026-05-02T08:50:07.963Z</time></trkpt><trkpt lat="43.3838914" lon="-4.4215478"><ele>99.33333333333334</ele><time>2026-05-02T08:50:08.963Z</time></trkpt><trkpt lat="43.3838761" lon="-4.4213304"><ele>99.0</ele><time>2026-05-02T08:50:09.967Z</time></trkpt><trkpt lat="43.3838704" lon="-4.4210991"><ele>99.0</ele><time>2026-05-02T08:50:10.966Z</time></trkpt><trkpt lat="43.3838702" lon="-4.4208668"><ele>99.0</ele><time>2026-05-02T08:50:11.966Z</time></trkpt><trkpt lat="43.3838691" lon="-4.4206543"><ele>99.0</ele><time>2026-05-02T08:50:12.965Z</time></trkpt><trkpt lat="43.3838572" lon="-4.420443"><ele>98.0</ele><time>2026-05-02T08:50:13.966Z</time></trkpt><trkpt lat="43.3838605" lon="-4.4202317"><ele>97.0</ele><time>2026-05-02T08:50:14.963Z</time></trkpt><trkpt lat="43.383866" lon="-4.4200208"><ele>96.0</ele><time>2026-05-02T08:50:15.964Z</time></trkpt><trkpt lat="43.3838612" lon="-4.4197995"><ele>94.66666666666667</ele><time>2026-05-02T08:50:16.966Z</time></trkpt><trkpt lat="43.3838513" lon="-4.4195755"><ele>93.33333333333334</ele><time>2026-05-02T08:50:17.967Z</time></trkpt><trkpt lat="43.3838431" lon="-4.4193544"><ele>92.0</ele><time>2026-05-02T08:50:18.971Z</time></trkpt><trkpt lat="43.3838354" lon="-4.4191418"><ele>83.0</ele><time>2026-05-02T08:50:19.971Z</time></trkpt><trkpt lat="43.3838284" lon="-4.4189342"><ele>74.0</ele><time>2026-05-02T08:50:20.967Z</time></trkpt><trkpt lat="43.3838153" lon="-4.4187149"><ele>65.0</ele><time>2026-05-02T08:50:21.984Z</time></trkpt><trkpt lat="43.3838027" lon="-4.4185073"><ele>65.0</ele><time>2026-05-02T08:50:22.972Z</time></trkpt><trkpt lat="43.3838014" lon="-4.4183099"><ele>65.0</ele><time>2026-05-02T08:50:23.967Z</time></trkpt><trkpt lat="43.3838038" lon="-4.4181297"><ele>65.0</ele><time>2026-05-02T08:50:24.967Z</time></trkpt><trkpt lat="43.3838216" lon="-4.4179545"><ele>65.0</ele><time>2026-05-02T08:50:25.969Z</time></trkpt><trkpt lat="43.383847" lon="-4.4177806"><ele>70.75</ele><time>2026-05-02T08:50:26.966Z</time></trkpt><trkpt lat="43.3838844" lon="-4.4176226"><ele>76.5</ele><time>2026-05-02T08:50:27.969Z</time></trkpt><trkpt lat="43.3839274" lon="-4.4174675"><ele>82.25</ele><time>2026-05-02T08:50:28.971Z</time></trkpt><trkpt lat="43.3839897" lon="-4.4173213"><ele>88.0</ele><time>2026-05-02T08:50:29.971Z</time></trkpt><trkpt lat="43.3840548" lon="-4.4171636"><ele>85.75</ele><time>2026-05-02T08:50:30.969Z</time></trkpt><trkpt lat="43.3841248" lon="-4.4170113"><ele>83.5</ele><time>2026-05-02T08:50:31.968Z</time></trkpt><trkpt lat="43.3841994" lon="-4.4168683"><ele>81.25</ele><time>2026-05-02T08:50:32.97Z</time></trkpt><trkpt lat="43.3842737" lon="-4.4167223"><ele>79.0</ele><time>2026-05-02T08:50:33.971Z</time></trkpt><trkpt lat="43.3843517" lon="-4.4165786"><ele>79.0</ele><time>2026-05-02T08:50:34.97Z</time></trkpt><trkpt lat="43.384428" lon="-4.4164283"><ele>79.0</ele><time>2026-05-02T08:50:35.969Z</time></trkpt><trkpt lat="43.3845087" lon="-4.4162767"><ele>79.0</ele><time>2026-05-02T08:50:36.972Z</time></trkpt><trkpt lat="43.3845829" lon="-4.4161182"><ele>79.0</ele><time>2026-05-02T08:50:37.974Z</time></trkpt><trkpt lat="43.3846559" lon="-4.415962"><ele>79.5</ele><time>2026-05-02T08:50:38.969Z</time></trkpt><trkpt lat="43.3847284" lon="-4.4157991"><ele>80.0</ele><time>2026-05-02T08:50:39.969Z</time></trkpt><trkpt lat="43.3848087" lon="-4.4156249"><ele>80.5</ele><time>2026-05-02T08:50:40.964Z</time></trkpt><trkpt lat="43.3848821" lon="-4.4154465"><ele>81.0</ele><time>2026-05-02T08:50:41.964Z</time></trkpt><trkpt lat="43.3849501" lon="-4.4152705"><ele>78.75</ele><time>2026-05-02T08:50:42.959Z</time></trkpt><trkpt lat="43.3850127" lon="-4.4150861"><ele>76.5</ele><time>2026-05-02T08:50:43.962Z</time></trkpt><trkpt lat="43.3850649" lon="-4.4149216"><ele>74.25</ele><time>2026-05-02T08:50:44.961Z</time></trkpt><trkpt lat="43.3851188" lon="-4.4147485"><ele>72.0</ele><time>2026-05-02T08:50:45.963Z</time></trkpt><trkpt lat="43.3851709" lon="-4.4145869"><ele>70.0</ele><time>2026-05-02T08:50:46.965Z</time></trkpt><trkpt lat="43.3852212" lon="-4.414432"><ele>68.0</ele><time>2026-05-02T08:50:47.962Z</time></trkpt><trkpt lat="43.3852768" lon="-4.4142768"><ele>66.0</ele><time>2026-05-02T08:50:48.965Z</time></trkpt><trkpt lat="43.3853265" lon="-4.4141216"><ele>64.0</ele><time>2026-05-02T08:50:49.964Z</time></trkpt><trkpt lat="43.3853747" lon="-4.4139636"><ele>64.75</ele><time>2026-05-02T08:50:50.965Z</time></trkpt><trkpt lat="43.3854334" lon="-4.4138176"><ele>65.5</ele><time>2026-05-02T08:50:51.968Z</time></trkpt><trkpt lat="43.3854955" lon="-4.4136786"><ele>66.25</ele><time>2026-05-02T08:50:52.997Z</time></trkpt><trkpt lat="43.3855611" lon="-4.4135534"><ele>67.0</ele><time>2026-05-02T08:50:53.963Z</time></trkpt><trkpt lat="43.3856358" lon="-4.4134459"><ele>67.0</ele><time>2026-05-02T08:50:54.961Z</time></trkpt><trkpt lat="43.3857227" lon="-4.4133643"><ele>67.0</ele><time>2026-05-02T08:50:55.964Z</time></trkpt><trkpt lat="43.3858234" lon="-4.4133011"><ele>67.0</ele><time>2026-05-02T08:50:56.957Z</time></trkpt><trkpt lat="43.3859351" lon="-4.4132589"><ele>67.0</ele><time>2026-05-02T08:50:57.965Z</time></trkpt><trkpt lat="43.3860577" lon="-4.4132381"><ele>67.0</ele><time>2026-05-02T08:50:58.962Z</time></trkpt><trkpt lat="43.3861858" lon="-4.4132321"><ele>67.0</ele><time>2026-05-02T08:50:59.967Z</time></trkpt><trkpt lat="43.3863193" lon="-4.4132429"><ele>67.0</ele><time>2026-05-02T08:51:00.972Z</time></trkpt><trkpt lat="43.3864541" lon="-4.4132493"><ele>67.0</ele><time>2026-05-02T08:51:01.971Z</time></trkpt><trkpt lat="43.3865871" lon="-4.4132428"><ele>65.5</ele><time>2026-05-02T08:51:02.971Z</time></trkpt><trkpt lat="43.3867173" lon="-4.4132189"><ele>64.0</ele><time>2026-05-02T08:51:03.967Z</time></trkpt><trkpt lat="43.3868395" lon="-4.4131661"><ele>62.5</ele><time>2026-05-02T08:51:04.966Z</time></trkpt><trkpt lat="43.3869529" lon="-4.4130853"><ele>61.0</ele><time>2026-05-02T08:51:05.974Z</time></trkpt><trkpt lat="43.3870598" lon="-4.4129809"><ele>60.25</ele><time>2026-05-02T08:51:06.974Z</time></trkpt><trkpt lat="43.3871608" lon="-4.4128715"><ele>59.5</ele><time>2026-05-02T08:51:07.973Z</time></trkpt><trkpt lat="43.3872627" lon="-4.4127382"><ele>58.75</ele><time>2026-05-02T08:51:08.971Z</time></trkpt><trkpt lat="43.387357" lon="-4.4125898"><ele>58.0</ele><time>2026-05-02T08:51:09.975Z</time></trkpt><trkpt lat="43.3874385" lon="-4.412431"><ele>58.0</ele><time>2026-05-02T08:51:10.968Z</time></trkpt><trkpt lat="43.3875088" lon="-4.4122644"><ele>58.0</ele><time>2026-05-02T08:51:11.967Z</time></trkpt><trkpt lat="43.3875617" lon="-4.4120814"><ele>58.0</ele><time>2026-05-02T08:51:12.963Z</time></trkpt><trkpt lat="43.3876017" lon="-4.4118853"><ele>58.0</ele><time>2026-05-02T08:51:13.966Z</time></trkpt><trkpt lat="43.3876401" lon="-4.4116946"><ele>56.75</ele><time>2026-05-02T08:51:14.956Z</time></trkpt><trkpt lat="43.3876711" lon="-4.4114967"><ele>55.5</ele><time>2026-05-02T08:51:15.962Z</time></trkpt><trkpt lat="43.3876931" lon="-4.4113014"><ele>54.25</ele><time>2026-05-02T08:51:16.964Z</time></trkpt><trkpt lat="43.3877197" lon="-4.411094"><ele>53.0</ele><time>2026-05-02T08:51:17.962Z</time></trkpt><trkpt lat="43.3877472" lon="-4.4108962"><ele>51.75</ele><time>2026-05-02T08:51:18.958Z</time></trkpt><trkpt lat="43.387775" lon="-4.410703"><ele>50.5</ele><time>2026-05-02T08:51:19.965Z</time></trkpt><trkpt lat="43.3878067" lon="-4.4105154"><ele>49.25</ele><time>2026-05-02T08:51:20.964Z</time></trkpt><trkpt lat="43.3878326" lon="-4.4103331"><ele>48.0</ele><time>2026-05-02T08:51:21.965Z</time></trkpt><trkpt lat="43.3878599" lon="-4.410161"><ele>47.75</ele><time>2026-05-02T08:51:22.98Z</time></trkpt><trkpt lat="43.387912" lon="-4.4099894"><ele>47.5</ele><time>2026-05-02T08:51:23.958Z</time></trkpt><trkpt lat="43.3879706" lon="-4.4098311"><ele>47.25</ele><time>2026-05-02T08:51:24.963Z</time></trkpt><trkpt lat="43.3880454" lon="-4.4096752"><ele>47.0</ele><time>2026-05-02T08:51:25.964Z</time></trkpt><trkpt lat="43.3881263" lon="-4.4095228"><ele>47.0</ele><time>2026-05-02T08:51:26.966Z</time></trkpt><trkpt lat="43.3882047" lon="-4.4093601"><ele>47.0</ele><time>2026-05-02T08:51:27.966Z</time></trkpt><trkpt lat="43.3882775" lon="-4.4091979"><ele>47.0</ele><time>2026-05-02T08:51:28.957Z</time></trkpt><trkpt lat="43.3883424" lon="-4.4090499"><ele>47.0</ele><time>2026-05-02T08:51:29.957Z</time></trkpt><trkpt lat="43.3883956" lon="-4.4088865"><ele>44.75</ele><time>2026-05-02T08:51:30.951Z</time></trkpt><trkpt lat="43.3884315" lon="-4.4087035"><ele>42.5</ele><time>2026-05-02T08:51:31.955Z</time></trkpt><trkpt lat="43.3884501" lon="-4.4085096"><ele>40.25</ele><time>2026-05-02T08:51:32.951Z</time></trkpt><trkpt lat="43.3884366" lon="-4.4083358"><ele>38.0</ele><time>2026-05-02T08:51:33.949Z</time></trkpt><trkpt lat="43.3884181" lon="-4.4081619"><ele>38.0</ele><time>2026-05-02T08:51:34.952Z</time></trkpt><trkpt lat="43.3883864" lon="-4.407996"><ele>38.0</ele><time>2026-05-02T08:51:35.953Z</time></trkpt><trkpt lat="43.3883632" lon="-4.4078267"><ele>38.0</ele><time>2026-05-02T08:51:36.953Z</time></trkpt><trkpt lat="43.3883407" lon="-4.4076574"><ele>38.0</ele><time>2026-05-02T08:51:37.955Z</time></trkpt><trkpt lat="43.3883154" lon="-4.4074828"><ele>38.0</ele><time>2026-05-02T08:51:38.953Z</time></trkpt><trkpt lat="43.3882943" lon="-4.4073064"><ele>38.0</ele><time>2026-05-02T08:51:39.957Z</time></trkpt><trkpt lat="43.3882708" lon="-4.4071287"><ele>38.0</ele><time>2026-05-02T08:51:40.955Z</time></trkpt><trkpt lat="43.3882509" lon="-4.4069471"><ele>38.0</ele><time>2026-05-02T08:51:41.957Z</time></trkpt><trkpt lat="43.3882321" lon="-4.4067721"><ele>38.0</ele><time>2026-05-02T08:51:42.955Z</time></trkpt><trkpt lat="43.3882151" lon="-4.4066031"><ele>38.0</ele><time>2026-05-02T08:51:43.958Z</time></trkpt><trkpt lat="43.3881996" lon="-4.4064271"><ele>38.0</ele><time>2026-05-02T08:51:44.958Z</time></trkpt><trkpt lat="43.3881826" lon="-4.4062579"><ele>38.0</ele><time>2026-05-02T08:51:45.956Z</time></trkpt><trkpt lat="43.3881651" lon="-4.406088"><ele>37.0</ele><time>2026-05-02T08:51:46.962Z</time></trkpt><trkpt lat="43.3881537" lon="-4.4059224"><ele>36.0</ele><time>2026-05-02T08:51:47.956Z</time></trkpt><trkpt lat="43.3881476" lon="-4.4057626"><ele>35.0</ele><time>2026-05-02T08:51:48.957Z</time></trkpt><trkpt lat="43.3881474" lon="-4.405601"><ele>34.0</ele><time>2026-05-02T08:51:49.959Z</time></trkpt><trkpt lat="43.3881507" lon="-4.405444"><ele>33.0</ele><time>2026-05-02T08:51:50.955Z</time></trkpt><trkpt lat="43.388161" lon="-4.405293"><ele>32.0</ele><time>2026-05-02T08:51:51.955Z</time></trkpt><trkpt lat="43.3881839" lon="-4.4051438"><ele>31.0</ele><time>2026-05-02T08:51:52.953Z</time></trkpt><trkpt lat="43.3882082" lon="-4.404993"><ele>30.0</ele><time>2026-05-02T08:51:53.968Z</time></trkpt><trkpt lat="43.3882429" lon="-4.4048517"><ele>29.0</ele><time>2026-05-02T08:51:54.958Z</time></trkpt><trkpt lat="43.3882836" lon="-4.4047133"><ele>27.799999999999997</ele><time>2026-05-02T08:51:55.959Z</time></trkpt><trkpt lat="43.38832" lon="-4.4045725"><ele>26.599999999999998</ele><time>2026-05-02T08:51:56.957Z</time></trkpt><trkpt lat="43.3883487" lon="-4.4044368"><ele>25.4</ele><time>2026-05-02T08:51:57.965Z</time></trkpt><trkpt lat="43.3883808" lon="-4.4042931"><ele>24.2</ele><time>2026-05-02T08:51:58.959Z</time></trkpt><trkpt lat="43.3884053" lon="-4.4041478"><ele>23.0</ele><time>2026-05-02T08:51:59.96Z</time></trkpt><trkpt lat="43.3884279" lon="-4.4039964"><ele>23.0</ele><time>2026-05-02T08:52:00.952Z</time></trkpt><trkpt lat="43.3884453" lon="-4.4038357"><ele>23.0</ele><time>2026-05-02T08:52:01.958Z</time></trkpt><trkpt lat="43.3884506" lon="-4.4036657"><ele>23.0</ele><time>2026-05-02T08:52:02.952Z</time></trkpt><trkpt lat="43.3884396" lon="-4.4034982"><ele>23.0</ele><time>2026-05-02T08:52:03.951Z</time></trkpt><trkpt lat="43.3884223" lon="-4.4033193"><ele>23.0</ele><time>2026-05-02T08:52:04.945Z</time></trkpt><trkpt lat="43.3883892" lon="-4.4031434"><ele>23.0</ele><time>2026-05-02T08:52:05.959Z</time></trkpt><trkpt lat="43.3883354" lon="-4.4029658"><ele>23.0</ele><time>2026-05-02T08:52:06.954Z</time></trkpt><trkpt lat="43.3882646" lon="-4.402794"><ele>23.0</ele><time>2026-05-02T08:52:07.959Z</time></trkpt><trkpt lat="43.3881863" lon="-4.4026338"><ele>23.5</ele><time>2026-05-02T08:52:08.958Z</time></trkpt><trkpt lat="43.3880902" lon="-4.4024899"><ele>24.0</ele><time>2026-05-02T08:52:09.964Z</time></trkpt><trkpt lat="43.3879926" lon="-4.4023545"><ele>24.5</ele><time>2026-05-02T08:52:10.965Z</time></trkpt><trkpt lat="43.3878929" lon="-4.4022162"><ele>25.0</ele><time>2026-05-02T08:52:11.965Z</time></trkpt><trkpt lat="43.3878038" lon="-4.4020754"><ele>22.4</ele><time>2026-05-02T08:52:12.966Z</time></trkpt><trkpt lat="43.3877306" lon="-4.4019479"><ele>19.8</ele><time>2026-05-02T08:52:13.959Z</time></trkpt><trkpt lat="43.387667" lon="-4.401829"><ele>17.2</ele><time>2026-05-02T08:52:14.962Z</time></trkpt><trkpt lat="43.3876142" lon="-4.4017045"><ele>14.6</ele><time>2026-05-02T08:52:15.964Z</time></trkpt><trkpt lat="43.3875564" lon="-4.4015768"><ele>12.0</ele><time>2026-05-02T08:52:16.964Z</time></trkpt><trkpt lat="43.3874981" lon="-4.4014376"><ele>12.0</ele><time>2026-05-02T08:52:17.964Z</time></trkpt><trkpt lat="43.3874422" lon="-4.4012888"><ele>12.0</ele><time>2026-05-02T08:52:18.963Z</time></trkpt><trkpt lat="43.3873962" lon="-4.4011313"><ele>12.0</ele><time>2026-05-02T08:52:19.961Z</time></trkpt><trkpt lat="43.3873578" lon="-4.4009691"><ele>12.0</ele><time>2026-05-02T08:52:20.96Z</time></trkpt><trkpt lat="43.3873307" lon="-4.4008062"><ele>12.0</ele><time>2026-05-02T08:52:21.968Z</time></trkpt><trkpt lat="43.3873053" lon="-4.4006528"><ele>12.0</ele><time>2026-05-02T08:52:22.958Z</time></trkpt><trkpt lat="43.3872897" lon="-4.4004932"><ele>12.0</ele><time>2026-05-02T08:52:23.957Z</time></trkpt><trkpt lat="43.3872869" lon="-4.4003294"><ele>12.0</ele><time>2026-05-02T08:52:24.975Z</time></trkpt><trkpt lat="43.3872923" lon="-4.4001697"><ele>12.2</ele><time>2026-05-02T08:52:25.954Z</time></trkpt><trkpt lat="43.3873006" lon="-4.400011"><ele>12.399999999999999</ele><time>2026-05-02T08:52:26.96Z</time></trkpt><trkpt lat="43.3873115" lon="-4.3998536"><ele>12.600000000000001</ele><time>2026-05-02T08:52:27.957Z</time></trkpt><trkpt lat="43.3873181" lon="-4.3996962"><ele>12.8</ele><time>2026-05-02T08:52:28.957Z</time></trkpt><trkpt lat="43.387318" lon="-4.3995532"><ele>13.0</ele><time>2026-05-02T08:52:29.957Z</time></trkpt><trkpt lat="43.3873129" lon="-4.3994247"><ele>12.4</ele><time>2026-05-02T08:52:30.955Z</time></trkpt><trkpt lat="43.3873026" lon="-4.3993032"><ele>11.8</ele><time>2026-05-02T08:52:31.959Z</time></trkpt><trkpt lat="43.3872862" lon="-4.3991885"><ele>11.2</ele><time>2026-05-02T08:52:32.952Z</time></trkpt><trkpt lat="43.3872552" lon="-4.3990694"><ele>10.6</ele><time>2026-05-02T08:52:33.955Z</time></trkpt><trkpt lat="43.3872161" lon="-4.3989488"><ele>10.0</ele><time>2026-05-02T08:52:34.955Z</time></trkpt><trkpt lat="43.3871682" lon="-4.398842"><ele>7.8</ele><time>2026-05-02T08:52:35.952Z</time></trkpt><trkpt lat="43.3871088" lon="-4.3987455"><ele>5.6</ele><time>2026-05-02T08:52:36.957Z</time></trkpt><trkpt lat="43.3870444" lon="-4.3986651"><ele>3.4</ele><time>2026-05-02T08:52:37.957Z</time></trkpt><trkpt lat="43.3869686" lon="-4.398602"><ele>1.2</ele><time>2026-05-02T08:52:38.949Z</time></trkpt><trkpt lat="43.3868762" lon="-4.398546"><ele>-1.0</ele><time>2026-05-02T08:52:39.956Z</time></trkpt><trkpt lat="43.3867724" lon="-4.3984985"><ele>-1.0</ele><time>2026-05-02T08:52:40.965Z</time></trkpt><trkpt lat="43.3866615" lon="-4.3984547"><ele>-1.0</ele><time>2026-05-02T08:52:41.961Z</time></trkpt><trkpt lat="43.3865633" lon="-4.398412"><ele>-1.0</ele><time>2026-05-02T08:52:42.964Z</time></trkpt><trkpt lat="43.3864814" lon="-4.3983752"><ele>-1.0</ele><time>2026-05-02T08:52:43.969Z</time></trkpt><trkpt lat="43.3864083" lon="-4.3983425"><ele>-1.0</ele><time>2026-05-02T08:52:44.971Z</time></trkpt><trkpt lat="43.3863383" lon="-4.3983067"><ele>1.1102230246251565E-16</ele><time>2026-05-02T08:52:45.97Z</time></trkpt><trkpt lat="43.3862719" lon="-4.3982635"><ele>1.0</ele><time>2026-05-02T08:52:46.974Z</time></trkpt><trkpt lat="43.386208" lon="-4.3982239"><ele>2.0</ele><time>2026-05-02T08:52:47.971Z</time></trkpt><trkpt lat="43.3861485" lon="-4.3981946"><ele>3.0</ele><time>2026-05-02T08:52:48.974Z</time></trkpt><trkpt lat="43.3860419" lon="-4.3981397"><ele>4.0</ele><time>2026-05-02T08:52:50.972Z</time></trkpt><trkpt lat="43.3859626" lon="-4.3980848"><ele>5.0</ele><time>2026-05-02T08:52:52.976Z</time></trkpt><trkpt lat="43.3858846" lon="-4.3980395"><ele>5.0</ele><time>2026-05-02T08:52:54.974Z</time></trkpt><trkpt lat="43.3857933" lon="-4.3979918"><ele>5.0</ele><time>2026-05-02T08:52:56.967Z</time></trkpt><trkpt lat="43.3856857" lon="-4.3979791"><ele>5.0</ele><time>2026-05-02T08:52:58.963Z</time></trkpt><trkpt lat="43.3855588" lon="-4.398018"><ele>5.0</ele><time>2026-05-02T08:53:00.959Z</time></trkpt><trkpt lat="43.3854991" lon="-4.3980715"><ele>5.0</ele><time>2026-05-02T08:53:01.955Z</time></trkpt><trkpt lat="43.3854451" lon="-4.3981344"><ele>5.0</ele><time>2026-05-02T08:53:02.956Z</time></trkpt><trkpt lat="43.3853965" lon="-4.3982007"><ele>5.0</ele><time>2026-05-02T08:53:03.96Z</time></trkpt><trkpt lat="43.3853506" lon="-4.3982759"><ele>5.0</ele><time>2026-05-02T08:53:04.958Z</time></trkpt><trkpt lat="43.3853053" lon="-4.3983583"><ele>5.0</ele><time>2026-05-02T08:53:05.955Z</time></trkpt><trkpt lat="43.3852508" lon="-4.3984429"><ele>5.0</ele><time>2026-05-02T08:53:06.957Z</time></trkpt><trkpt lat="43.3851938" lon="-4.3985362"><ele>5.0</ele><time>2026-05-02T08:53:07.956Z</time></trkpt><trkpt lat="43.3851361" lon="-4.3986366"><ele>5.0</ele><time>2026-05-02T08:53:08.958Z</time></trkpt><trkpt lat="43.3850652" lon="-4.3987257"><ele>5.0</ele><time>2026-05-02T08:53:09.958Z</time></trkpt><trkpt lat="43.3849929" lon="-4.3988169"><ele>5.0</ele><time>2026-05-02T08:53:10.952Z</time></trkpt><trkpt lat="43.3849211" lon="-4.3989006"><ele>5.0</ele><time>2026-05-02T08:53:11.958Z</time></trkpt><trkpt lat="43.3848557" lon="-4.3989935"><ele>5.0</ele><time>2026-05-02T08:53:12.949Z</time></trkpt><trkpt lat="43.3847946" lon="-4.3990901"><ele>4.666666666666667</ele><time>2026-05-02T08:53:13.952Z</time></trkpt><trkpt lat="43.3847391" lon="-4.3991711"><ele>4.333333333333334</ele><time>2026-05-02T08:53:14.952Z</time></trkpt><trkpt lat="43.3846926" lon="-4.3992441"><ele>4.0</ele><time>2026-05-02T08:53:15.952Z</time></trkpt><trkpt lat="43.3846448" lon="-4.3993153"><ele>3.666666666666667</ele><time>2026-05-02T08:53:16.948Z</time></trkpt><trkpt lat="43.384599" lon="-4.3993775"><ele>3.3333333333333335</ele><time>2026-05-02T08:53:17.943Z</time></trkpt><trkpt lat="43.3845225" lon="-4.3994944"><ele>3.0</ele><time>2026-05-02T08:53:19.949Z</time></trkpt><trkpt lat="43.3844361" lon="-4.3995793"><ele>3.0</ele><time>2026-05-02T08:53:21.948Z</time></trkpt><trkpt lat="43.3843202" lon="-4.3995869"><ele>3.0</ele><time>2026-05-02T08:53:23.952Z</time></trkpt><trkpt lat="43.384215" lon="-4.3995155"><ele>3.0</ele><time>2026-05-02T08:53:25.956Z</time></trkpt><trkpt lat="43.3841558" lon="-4.3994647"><ele>3.0</ele><time>2026-05-02T08:53:26.974Z</time></trkpt><trkpt lat="43.3840947" lon="-4.3994077"><ele>3.0</ele><time>2026-05-02T08:53:27.959Z</time></trkpt><trkpt lat="43.3840296" lon="-4.399342"><ele>3.0</ele><time>2026-05-02T08:53:28.954Z</time></trkpt><trkpt lat="43.3839571" lon="-4.3992713"><ele>3.0</ele><time>2026-05-02T08:53:29.962Z</time></trkpt><trkpt lat="43.3838857" lon="-4.3991975"><ele>3.0</ele><time>2026-05-02T08:53:30.954Z</time></trkpt><trkpt lat="43.3838116" lon="-4.399132"><ele>3.0</ele><time>2026-05-02T08:53:31.958Z</time></trkpt><trkpt lat="43.3837346" lon="-4.3990643"><ele>3.0</ele><time>2026-05-02T08:53:32.957Z</time></trkpt><trkpt lat="43.3836576" lon="-4.398998"><ele>3.0</ele><time>2026-05-02T08:53:33.956Z</time></trkpt><trkpt lat="43.383582" lon="-4.3989335"><ele>3.3333333333333335</ele><time>2026-05-02T08:53:34.954Z</time></trkpt><trkpt lat="43.3835108" lon="-4.3988641"><ele>3.666666666666667</ele><time>2026-05-02T08:53:35.953Z</time></trkpt><trkpt lat="43.383442" lon="-4.3987876"><ele>4.0</ele><time>2026-05-02T08:53:36.952Z</time></trkpt><trkpt lat="43.383368" lon="-4.398723"><ele>4.333333333333334</ele><time>2026-05-02T08:53:37.955Z</time></trkpt><trkpt lat="43.383289" lon="-4.3986651"><ele>4.666666666666667</ele><time>2026-05-02T08:53:38.954Z</time></trkpt><trkpt lat="43.3832094" lon="-4.3986058"><ele>5.0</ele><time>2026-05-02T08:53:39.955Z</time></trkpt><trkpt lat="43.3831379" lon="-4.3985537"><ele>5.0</ele><time>2026-05-02T08:53:40.948Z</time></trkpt><trkpt lat="43.383077" lon="-4.3985051"><ele>5.0</ele><time>2026-05-02T08:53:41.949Z</time></trkpt><trkpt lat="43.3830235" lon="-4.3984589"><ele>5.0</ele><time>2026-05-02T08:53:42.956Z</time></trkpt><trkpt lat="43.3829492" lon="-4.3983918"><ele>5.0</ele><time>2026-05-02T08:53:44.948Z</time></trkpt><trkpt lat="43.3828732" lon="-4.398334"><ele>5.0</ele><time>2026-05-02T08:53:47.954Z</time></trkpt><trkpt lat="43.382828" lon="-4.3982561"><ele>5.0</ele><time>2026-05-02T08:54:00.963Z</time></trkpt><trkpt lat="43.3827585" lon="-4.3981929"><ele>5.166666666666667</ele><time>2026-05-02T08:54:02.95Z</time></trkpt><trkpt lat="43.3826508" lon="-4.3981004"><ele>5.333333333333334</ele><time>2026-05-02T08:54:04.954Z</time></trkpt><trkpt lat="43.3825937" lon="-4.3980386"><ele>5.5</ele><time>2026-05-02T08:54:05.954Z</time></trkpt><trkpt lat="43.3825335" lon="-4.3979745"><ele>5.666666666666667</ele><time>2026-05-02T08:54:06.952Z</time></trkpt><trkpt lat="43.3824682" lon="-4.3979276"><ele>5.833333333333333</ele><time>2026-05-02T08:54:07.955Z</time></trkpt><trkpt lat="43.3823987" lon="-4.397883"><ele>6.0</ele><time>2026-05-02T08:54:08.955Z</time></trkpt><trkpt lat="43.3823298" lon="-4.3978371"><ele>6.0</ele><time>2026-05-02T08:54:09.956Z</time></trkpt><trkpt lat="43.3822611" lon="-4.397786"><ele>6.0</ele><time>2026-05-02T08:54:10.956Z</time></trkpt><trkpt lat="43.3821879" lon="-4.3977366"><ele>6.0</ele><time>2026-05-02T08:54:11.954Z</time></trkpt><trkpt lat="43.3821186" lon="-4.3976802"><ele>6.0</ele><time>2026-05-02T08:54:12.96Z</time></trkpt><trkpt lat="43.382043" lon="-4.3976206"><ele>6.0</ele><time>2026-05-02T08:54:13.958Z</time></trkpt><trkpt lat="43.3819654" lon="-4.3975571"><ele>6.0</ele><time>2026-05-02T08:54:14.96Z</time></trkpt><trkpt lat="43.3818866" lon="-4.3974987"><ele>6.0</ele><time>2026-05-02T08:54:15.959Z</time></trkpt><trkpt lat="43.381811" lon="-4.397439"><ele>6.0</ele><time>2026-05-02T08:54:16.962Z</time></trkpt><trkpt lat="43.381736" lon="-4.3973786"><ele>6.0</ele><time>2026-05-02T08:54:17.959Z</time></trkpt><trkpt lat="43.3816672" lon="-4.3973244"><ele>6.0</ele><time>2026-05-02T08:54:18.96Z</time></trkpt><trkpt lat="43.3816002" lon="-4.397274"><ele>6.0</ele><time>2026-05-02T08:54:19.954Z</time></trkpt><trkpt lat="43.3815368" lon="-4.3972321"><ele>6.0</ele><time>2026-05-02T08:54:20.954Z</time></trkpt><trkpt lat="43.3814476" lon="-4.397164"><ele>5.166666666666667</ele><time>2026-05-02T08:54:22.955Z</time></trkpt><trkpt lat="43.3813858" lon="-4.397133"><ele>4.333333333333333</ele><time>2026-05-02T08:54:24.958Z</time></trkpt><trkpt lat="43.3813056" lon="-4.3971456"><ele>3.5</ele><time>2026-05-02T08:54:29.965Z</time></trkpt><trkpt lat="43.3812116" lon="-4.3971373"><ele>2.6666666666666665</ele><time>2026-05-02T08:54:32.958Z</time></trkpt><trkpt lat="43.3811807" lon="-4.3970418"><ele>1.8333333333333333</ele><time>2026-05-02T08:54:34.96Z</time></trkpt><trkpt lat="43.3812364" lon="-4.3968892"><ele>1.0</ele><time>2026-05-02T08:54:36.962Z</time></trkpt><trkpt lat="43.3812823" lon="-4.3968286"><ele>0.9999999999999999</ele><time>2026-05-02T08:54:37.961Z</time></trkpt><trkpt lat="43.3813281" lon="-4.3967593"><ele>1.0</ele><time>2026-05-02T08:54:38.962Z</time></trkpt><trkpt lat="43.3813661" lon="-4.3966807"><ele>1.0</ele><time>2026-05-02T08:54:39.963Z</time></trkpt><trkpt lat="43.3813889" lon="-4.396589"><ele>1.0</ele><time>2026-05-02T08:54:40.967Z</time></trkpt><trkpt lat="43.3813982" lon="-4.3964976"><ele>0.9999999999999999</ele><time>2026-05-02T08:54:41.963Z</time></trkpt><trkpt lat="43.3814048" lon="-4.3963387"><ele>1.0</ele><time>2026-05-02T08:54:43.967Z</time></trkpt><trkpt lat="43.3814094" lon="-4.3961946"><ele>0.49999999999999994</ele><time>2026-05-02T08:54:45.969Z</time></trkpt><trkpt lat="43.3814163" lon="-4.3960744"><ele>0.0</ele><time>2026-05-02T08:54:47.978Z</time></trkpt><trkpt lat="43.3814321" lon="-4.3959668"><ele>-0.5</ele><time>2026-05-02T08:54:49.981Z</time></trkpt><trkpt lat="43.3814392" lon="-4.3958741"><ele>-1.0</ele><time>2026-05-02T08:54:51.986Z</time></trkpt><trkpt lat="43.3814501" lon="-4.3957865"><ele>-1.4999999999999998</ele><time>2026-05-02T08:54:53.98Z</time></trkpt><trkpt lat="43.381459" lon="-4.3956689"><ele>-2.0</ele><time>2026-05-02T08:54:56.978Z</time></trkpt><trkpt lat="43.3814677" lon="-4.395561"><ele>-2.0</ele><time>2026-05-02T08:57:12.977Z</time></trkpt><trkpt lat="43.3814759" lon="-4.3954365"><ele>-2.0</ele><time>2026-05-02T08:57:14.968Z</time></trkpt><trkpt lat="43.381487" lon="-4.3953336"><ele>-2.0</ele><time>2026-05-02T08:57:15.971Z</time></trkpt><trkpt lat="43.3815067" lon="-4.3952045"><ele>-2.0</ele><time>2026-05-02T08:57:16.982Z</time></trkpt><trkpt lat="43.3815289" lon="-4.3950466"><ele>-2.0</ele><time>2026-05-02T08:57:17.977Z</time></trkpt><trkpt lat="43.3815482" lon="-4.3948937"><ele>-2.0</ele><time>2026-05-02T08:57:18.975Z</time></trkpt><trkpt lat="43.3815704" lon="-4.3947344"><ele>-2.0</ele><time>2026-05-02T08:57:19.978Z</time></trkpt><trkpt lat="43.3815938" lon="-4.3945691"><ele>-2.0</ele><time>2026-05-02T08:57:20.983Z</time></trkpt><trkpt lat="43.3816213" lon="-4.3943953"><ele>-2.0</ele><time>2026-05-02T08:57:21.979Z</time></trkpt><trkpt lat="43.3816467" lon="-4.3942145"><ele>-2.0</ele><time>2026-05-02T08:57:22.986Z</time></trkpt><trkpt lat="43.381671" lon="-4.3940212"><ele>-2.0</ele><time>2026-05-02T08:57:23.983Z</time></trkpt><trkpt lat="43.3817027" lon="-4.3938221"><ele>-2.0</ele><time>2026-05-02T08:57:24.988Z</time></trkpt><trkpt lat="43.3817337" lon="-4.3936328"><ele>-2.0</ele><time>2026-05-02T08:57:25.983Z</time></trkpt><trkpt lat="43.3817541" lon="-4.3934289"><ele>-2.0</ele><time>2026-05-02T08:57:26.983Z</time></trkpt><trkpt lat="43.381785" lon="-4.3932273"><ele>-2.0</ele><time>2026-05-02T08:57:27.979Z</time></trkpt><trkpt lat="43.3818196" lon="-4.393013"><ele>-2.0</ele><time>2026-05-02T08:57:28.98Z</time></trkpt><trkpt lat="43.3818545" lon="-4.3928017"><ele>-1.75</ele><time>2026-05-02T08:57:29.983Z</time></trkpt><trkpt lat="43.3818871" lon="-4.3926"><ele>-1.5</ele><time>2026-05-02T08:57:30.983Z</time></trkpt><trkpt lat="43.3819149" lon="-4.3924069"><ele>-1.25</ele><time>2026-05-02T08:57:31.979Z</time></trkpt><trkpt lat="43.3819313" lon="-4.3922305"><ele>-1.0</ele><time>2026-05-02T08:57:32.978Z</time></trkpt><trkpt lat="43.3819549" lon="-4.3920482"><ele>-0.75</ele><time>2026-05-02T08:57:33.991Z</time></trkpt><trkpt lat="43.3819815" lon="-4.3918648"><ele>-0.5</ele><time>2026-05-02T08:57:34.977Z</time></trkpt><trkpt lat="43.3820064" lon="-4.3916984"><ele>-0.25</ele><time>2026-05-02T08:57:35.978Z</time></trkpt><trkpt lat="43.3820229" lon="-4.3915409"><ele>0.0</ele><time>2026-05-02T08:57:36.975Z</time></trkpt><trkpt lat="43.3820374" lon="-4.3914223"><ele>0.0</ele><time>2026-05-02T08:57:37.969Z</time></trkpt><trkpt lat="43.3820444" lon="-4.3913182"><ele>0.0</ele><time>2026-05-02T08:57:38.973Z</time></trkpt><trkpt lat="43.3820615" lon="-4.3912276"><ele>0.0</ele><time>2026-05-02T08:57:39.978Z</time></trkpt><trkpt lat="43.3820885" lon="-4.3910936"><ele>0.0</ele><time>2026-05-02T08:57:41.972Z</time></trkpt><trkpt lat="43.3820384" lon="-4.3910233"><ele>0.0</ele><time>2026-05-02T09:09:04.985Z</time></trkpt><trkpt lat="43.3820889" lon="-4.3909646"><ele>0.0</ele><time>2026-05-02T09:09:14.979Z</time></trkpt><trkpt lat="43.3821184" lon="-4.3908629"><ele>0.0</ele><time>2026-05-02T09:09:33.976Z</time></trkpt><trkpt lat="43.3821582" lon="-4.3907177"><ele>0.0</ele><time>2026-05-02T09:09:35.985Z</time></trkpt><trkpt lat="43.3822016" lon="-4.3905627"><ele>0.0</ele><time>2026-05-02T09:09:37.983Z</time></trkpt><trkpt lat="43.3822474" lon="-4.3904051"><ele>0.0</ele><time>2026-05-02T09:09:39.984Z</time></trkpt><trkpt lat="43.382276" lon="-4.39032"><ele>0.0</ele><time>2026-05-02T09:09:40.984Z</time></trkpt><trkpt lat="43.3823075" lon="-4.3902367"><ele>0.0</ele><time>2026-05-02T09:09:41.985Z</time></trkpt><trkpt lat="43.3823434" lon="-4.3901456"><ele>0.0</ele><time>2026-05-02T09:09:42.983Z</time></trkpt><trkpt lat="43.3823801" lon="-4.3900493"><ele>0.0</ele><time>2026-05-02T09:09:43.984Z</time></trkpt><trkpt lat="43.3824239" lon="-4.3899472"><ele>0.0</ele><time>2026-05-02T09:09:44.985Z</time></trkpt><trkpt lat="43.3824651" lon="-4.3898337"><ele>0.0</ele><time>2026-05-02T09:09:45.984Z</time></trkpt><trkpt lat="43.3825063" lon="-4.3897106"><ele>0.0</ele><time>2026-05-02T09:09:46.985Z</time></trkpt><trkpt lat="43.3825432" lon="-4.3895883"><ele>0.4</ele><time>2026-05-02T09:09:47.979Z</time></trkpt><trkpt lat="43.3825813" lon="-4.3894597"><ele>0.8</ele><time>2026-05-02T09:09:48.983Z</time></trkpt><trkpt lat="43.3826156" lon="-4.3893288"><ele>1.2000000000000002</ele><time>2026-05-02T09:09:49.982Z</time></trkpt><trkpt lat="43.3826509" lon="-4.3891959"><ele>1.6</ele><time>2026-05-02T09:09:50.978Z</time></trkpt><trkpt lat="43.3826904" lon="-4.3890552"><ele>2.0</ele><time>2026-05-02T09:09:51.982Z</time></trkpt><trkpt lat="43.3827289" lon="-4.3889087"><ele>2.0</ele><time>2026-05-02T09:09:52.985Z</time></trkpt><trkpt lat="43.3827762" lon="-4.3887603"><ele>2.0</ele><time>2026-05-02T09:09:53.982Z</time></trkpt><trkpt lat="43.3828262" lon="-4.3886096"><ele>2.0</ele><time>2026-05-02T09:09:54.997Z</time></trkpt><trkpt lat="43.3828755" lon="-4.3884496"><ele>2.0</ele><time>2026-05-02T09:09:55.98Z</time></trkpt><trkpt lat="43.3829233" lon="-4.3882876"><ele>2.0</ele><time>2026-05-02T09:09:56.976Z</time></trkpt><trkpt lat="43.3829733" lon="-4.3881252"><ele>2.0</ele><time>2026-05-02T09:09:57.979Z</time></trkpt><trkpt lat="43.3830274" lon="-4.3879578"><ele>2.0</ele><time>2026-05-02T09:09:58.979Z</time></trkpt><trkpt lat="43.3830724" lon="-4.3877958"><ele>2.0</ele><time>2026-05-02T09:09:59.977Z</time></trkpt><trkpt lat="43.3831206" lon="-4.3876389"><ele>4.75</ele><time>2026-05-02T09:10:00.971Z</time></trkpt><trkpt lat="43.3831727" lon="-4.3874818"><ele>7.5</ele><time>2026-05-02T09:10:01.973Z</time></trkpt><trkpt lat="43.3832246" lon="-4.3873301"><ele>10.25</ele><time>2026-05-02T09:10:02.975Z</time></trkpt><trkpt lat="43.3832786" lon="-4.3871753"><ele>13.0</ele><time>2026-05-02T09:10:03.97Z</time></trkpt><trkpt lat="43.3833286" lon="-4.3870196"><ele>13.0</ele><time>2026-05-02T09:10:04.968Z</time></trkpt><trkpt lat="43.3833784" lon="-4.3868654"><ele>13.0</ele><time>2026-05-02T09:10:05.967Z</time></trkpt><trkpt lat="43.3834295" lon="-4.3867098"><ele>13.0</ele><time>2026-05-02T09:10:06.968Z</time></trkpt><trkpt lat="43.3834751" lon="-4.3865523"><ele>13.0</ele><time>2026-05-02T09:10:07.97Z</time></trkpt><trkpt lat="43.3835117" lon="-4.3863888"><ele>14.0</ele><time>2026-05-02T09:10:08.974Z</time></trkpt><trkpt lat="43.3835252" lon="-4.3862244"><ele>15.0</ele><time>2026-05-02T09:10:09.954Z</time></trkpt><trkpt lat="43.383516" lon="-4.3860543"><ele>16.0</ele><time>2026-05-02T09:10:10.974Z</time></trkpt><trkpt lat="43.383478" lon="-4.3858917"><ele>17.0</ele><time>2026-05-02T09:10:11.969Z</time></trkpt><trkpt lat="43.3834279" lon="-4.3857347"><ele>17.0</ele><time>2026-05-02T09:10:12.971Z</time></trkpt><trkpt lat="43.3833697" lon="-4.3855859"><ele>17.0</ele><time>2026-05-02T09:10:13.978Z</time></trkpt><trkpt lat="43.3833114" lon="-4.3854412"><ele>17.0</ele><time>2026-05-02T09:10:14.974Z</time></trkpt><trkpt lat="43.38326" lon="-4.3852916"><ele>17.0</ele><time>2026-05-02T09:10:15.973Z</time></trkpt><trkpt lat="43.3832121" lon="-4.3851404"><ele>18.0</ele><time>2026-05-02T09:10:16.976Z</time></trkpt><trkpt lat="43.3831784" lon="-4.3849809"><ele>19.0</ele><time>2026-05-02T09:10:17.973Z</time></trkpt><trkpt lat="43.3831606" lon="-4.3848195"><ele>20.0</ele><time>2026-05-02T09:10:18.972Z</time></trkpt><trkpt lat="43.383162" lon="-4.3846527"><ele>21.0</ele><time>2026-05-02T09:10:19.977Z</time></trkpt><trkpt lat="43.3831731" lon="-4.3844871"><ele>22.25</ele><time>2026-05-02T09:10:20.977Z</time></trkpt><trkpt lat="43.3831945" lon="-4.384325"><ele>23.5</ele><time>2026-05-02T09:10:21.977Z</time></trkpt><trkpt lat="43.3832299" lon="-4.3841672"><ele>24.75</ele><time>2026-05-02T09:10:22.978Z</time></trkpt><trkpt lat="43.3832733" lon="-4.3840085"><ele>26.0</ele><time>2026-05-02T09:10:23.977Z</time></trkpt><trkpt lat="43.3833206" lon="-4.3838537"><ele>26.75</ele><time>2026-05-02T09:10:24.979Z</time></trkpt><trkpt lat="43.3833573" lon="-4.3836943"><ele>27.5</ele><time>2026-05-02T09:10:25.995Z</time></trkpt><trkpt lat="43.3833812" lon="-4.3835306"><ele>28.25</ele><time>2026-05-02T09:10:26.974Z</time></trkpt><trkpt lat="43.3833868" lon="-4.383368"><ele>29.0</ele><time>2026-05-02T09:10:27.978Z</time></trkpt><trkpt lat="43.3833703" lon="-4.3832045"><ele>29.0</ele><time>2026-05-02T09:10:28.976Z</time></trkpt><trkpt lat="43.3833325" lon="-4.3830483"><ele>29.0</ele><time>2026-05-02T09:10:29.976Z</time></trkpt><trkpt lat="43.3832743" lon="-4.3829043"><ele>29.0</ele><time>2026-05-02T09:10:30.983Z</time></trkpt><trkpt lat="43.3831914" lon="-4.3827721"><ele>29.0</ele><time>2026-05-02T09:10:31.974Z</time></trkpt><trkpt lat="43.3830927" lon="-4.3826611"><ele>30.0</ele><time>2026-05-02T09:10:32.975Z</time></trkpt><trkpt lat="43.3829801" lon="-4.382585"><ele>31.0</ele><time>2026-05-02T09:10:33.972Z</time></trkpt><trkpt lat="43.3828587" lon="-4.3825348"><ele>32.0</ele><time>2026-05-02T09:10:34.971Z</time></trkpt><trkpt lat="43.3827333" lon="-4.3824909"><ele>33.0</ele><time>2026-05-02T09:10:35.972Z</time></trkpt><trkpt lat="43.3826114" lon="-4.3824432"><ele>33.0</ele><time>2026-05-02T09:10:36.972Z</time></trkpt><trkpt lat="43.3824904" lon="-4.3823911"><ele>33.0</ele><time>2026-05-02T09:10:37.975Z</time></trkpt><trkpt lat="43.3823816" lon="-4.3823182"><ele>33.0</ele><time>2026-05-02T09:10:38.969Z</time></trkpt><trkpt lat="43.382278" lon="-4.3822249"><ele>33.0</ele><time>2026-05-02T09:10:39.976Z</time></trkpt><trkpt lat="43.3821852" lon="-4.3821114"><ele>35.0</ele><time>2026-05-02T09:10:40.973Z</time></trkpt><trkpt lat="43.3821118" lon="-4.3819803"><ele>37.0</ele><time>2026-05-02T09:10:41.975Z</time></trkpt><trkpt lat="43.382045" lon="-4.3818378"><ele>39.0</ele><time>2026-05-02T09:10:42.975Z</time></trkpt><trkpt lat="43.3819778" lon="-4.3816902"><ele>41.0</ele><time>2026-05-02T09:10:43.975Z</time></trkpt><trkpt lat="43.3819098" lon="-4.3815456"><ele>41.0</ele><time>2026-05-02T09:10:44.969Z</time></trkpt><trkpt lat="43.3818353" lon="-4.3814062"><ele>41.0</ele><time>2026-05-02T09:10:45.972Z</time></trkpt><trkpt lat="43.38175" lon="-4.3812855"><ele>41.0</ele><time>2026-05-02T09:10:46.975Z</time></trkpt><trkpt lat="43.3816499" lon="-4.3811924"><ele>41.0</ele><time>2026-05-02T09:10:47.976Z</time></trkpt><trkpt lat="43.3815372" lon="-4.3811222"><ele>41.25</ele><time>2026-05-02T09:10:48.975Z</time></trkpt><trkpt lat="43.3814159" lon="-4.381063"><ele>41.5</ele><time>2026-05-02T09:10:49.969Z</time></trkpt><trkpt lat="43.3812949" lon="-4.3810127"><ele>41.75</ele><time>2026-05-02T09:10:50.972Z</time></trkpt><trkpt lat="43.3811716" lon="-4.3809638"><ele>42.0</ele><time>2026-05-02T09:10:51.971Z</time></trkpt><trkpt lat="43.3810444" lon="-4.3809169"><ele>42.0</ele><time>2026-05-02T09:10:52.977Z</time></trkpt><trkpt lat="43.3809273" lon="-4.3808549"><ele>42.0</ele><time>2026-05-02T09:10:53.971Z</time></trkpt><trkpt lat="43.3808228" lon="-4.3807753"><ele>42.0</ele><time>2026-05-02T09:10:54.974Z</time></trkpt><trkpt lat="43.3807244" lon="-4.3806736"><ele>42.0</ele><time>2026-05-02T09:10:55.975Z</time></trkpt><trkpt lat="43.3806431" lon="-4.3805539"><ele>39.75</ele><time>2026-05-02T09:10:56.99Z</time></trkpt><trkpt lat="43.3805743" lon="-4.3804119"><ele>37.5</ele><time>2026-05-02T09:10:57.975Z</time></trkpt><trkpt lat="43.3805177" lon="-4.3802524"><ele>35.25</ele><time>2026-05-02T09:10:58.984Z</time></trkpt><trkpt lat="43.380477" lon="-4.3800758"><ele>33.0</ele><time>2026-05-02T09:10:59.978Z</time></trkpt><trkpt lat="43.3804419" lon="-4.3799041"><ele>33.0</ele><time>2026-05-02T09:11:00.99Z</time></trkpt><trkpt lat="43.3804009" lon="-4.3797311"><ele>33.0</ele><time>2026-05-02T09:11:01.978Z</time></trkpt><trkpt lat="43.3803636" lon="-4.3795638"><ele>33.0</ele><time>2026-05-02T09:11:02.979Z</time></trkpt><trkpt lat="43.3803264" lon="-4.3793977"><ele>33.0</ele><time>2026-05-02T09:11:03.981Z</time></trkpt><trkpt lat="43.3802865" lon="-4.3792286"><ele>35.75</ele><time>2026-05-02T09:11:04.983Z</time></trkpt><trkpt lat="43.3802455" lon="-4.3790612"><ele>38.5</ele><time>2026-05-02T09:11:05.98Z</time></trkpt><trkpt lat="43.3802069" lon="-4.3788957"><ele>41.25</ele><time>2026-05-02T09:11:06.982Z</time></trkpt><trkpt lat="43.3801608" lon="-4.3787334"><ele>44.0</ele><time>2026-05-02T09:11:07.98Z</time></trkpt><trkpt lat="43.3801122" lon="-4.3785706"><ele>46.25</ele><time>2026-05-02T09:11:08.98Z</time></trkpt><trkpt lat="43.3800595" lon="-4.3784133"><ele>48.5</ele><time>2026-05-02T09:11:09.978Z</time></trkpt><trkpt lat="43.3799973" lon="-4.3782608"><ele>50.75</ele><time>2026-05-02T09:11:10.98Z</time></trkpt><trkpt lat="43.3799242" lon="-4.3781104"><ele>53.0</ele><time>2026-05-02T09:11:11.983Z</time></trkpt><trkpt lat="43.3798431" lon="-4.3779699"><ele>54.25</ele><time>2026-05-02T09:11:12.975Z</time></trkpt><trkpt lat="43.3797603" lon="-4.3778346"><ele>55.5</ele><time>2026-05-02T09:11:13.977Z</time></trkpt><trkpt lat="43.3796674" lon="-4.3777036"><ele>56.75</ele><time>2026-05-02T09:11:14.971Z</time></trkpt><trkpt lat="43.3795638" lon="-4.3775871"><ele>58.0</ele><time>2026-05-02T09:11:15.972Z</time></trkpt><trkpt lat="43.3794575" lon="-4.3774873"><ele>58.0</ele><time>2026-05-02T09:11:16.971Z</time></trkpt><trkpt lat="43.3793426" lon="-4.3774145"><ele>58.0</ele><time>2026-05-02T09:11:17.97Z</time></trkpt><trkpt lat="43.3792152" lon="-4.3773696"><ele>58.0</ele><time>2026-05-02T09:11:18.97Z</time></trkpt><trkpt lat="43.3790785" lon="-4.3773373"><ele>58.0</ele><time>2026-05-02T09:11:19.971Z</time></trkpt><trkpt lat="43.3789513" lon="-4.3773151"><ele>58.0</ele><time>2026-05-02T09:11:20.97Z</time></trkpt><trkpt lat="43.3788249" lon="-4.3772748"><ele>58.0</ele><time>2026-05-02T09:11:21.971Z</time></trkpt><trkpt lat="43.3787096" lon="-4.3772041"><ele>58.0</ele><time>2026-05-02T09:11:22.975Z</time></trkpt><trkpt lat="43.3786037" lon="-4.3771046"><ele>58.0</ele><time>2026-05-02T09:11:23.976Z</time></trkpt><trkpt lat="43.3785182" lon="-4.3769912"><ele>59.25</ele><time>2026-05-02T09:11:24.978Z</time></trkpt><trkpt lat="43.3784461" lon="-4.3768473"><ele>60.5</ele><time>2026-05-02T09:11:25.981Z</time></trkpt><trkpt lat="43.3783943" lon="-4.3766954"><ele>61.75</ele><time>2026-05-02T09:11:26.976Z</time></trkpt><trkpt lat="43.378357" lon="-4.3765275"><ele>63.0</ele><time>2026-05-02T09:11:27.993Z</time></trkpt><trkpt lat="43.3783329" lon="-4.3763513"><ele>63.5</ele><time>2026-05-02T09:11:28.977Z</time></trkpt><trkpt lat="43.3783172" lon="-4.3761661"><ele>64.0</ele><time>2026-05-02T09:11:29.982Z</time></trkpt><trkpt lat="43.3783074" lon="-4.3759772"><ele>64.5</ele><time>2026-05-02T09:11:30.983Z</time></trkpt><trkpt lat="43.378298" lon="-4.3757876"><ele>65.0</ele><time>2026-05-02T09:11:31.983Z</time></trkpt><trkpt lat="43.3782872" lon="-4.3755979"><ele>66.0</ele><time>2026-05-02T09:11:32.99Z</time></trkpt><trkpt lat="43.3782752" lon="-4.3753936"><ele>67.0</ele><time>2026-05-02T09:11:33.991Z</time></trkpt><trkpt lat="43.3782601" lon="-4.3751853"><ele>68.0</ele><time>2026-05-02T09:11:34.981Z</time></trkpt><trkpt lat="43.3782156" lon="-4.3749969"><ele>69.0</ele><time>2026-05-02T09:11:35.983Z</time></trkpt><trkpt lat="43.3781655" lon="-4.3748051"><ele>68.25</ele><time>2026-05-02T09:11:36.978Z</time></trkpt><trkpt lat="43.3781028" lon="-4.3746154"><ele>67.5</ele><time>2026-05-02T09:11:37.98Z</time></trkpt><trkpt lat="43.3780244" lon="-4.3744435"><ele>66.75</ele><time>2026-05-02T09:11:38.984Z</time></trkpt><trkpt lat="43.3779385" lon="-4.3742755"><ele>66.0</ele><time>2026-05-02T09:11:39.981Z</time></trkpt><trkpt lat="43.3778464" lon="-4.3741118"><ele>66.0</ele><time>2026-05-02T09:11:40.979Z</time></trkpt><trkpt lat="43.3777502" lon="-4.373961"><ele>66.0</ele><time>2026-05-02T09:11:41.977Z</time></trkpt><trkpt lat="43.3776443" lon="-4.3738244"><ele>66.0</ele><time>2026-05-02T09:11:42.979Z</time></trkpt><trkpt lat="43.3775326" lon="-4.3736982"><ele>66.0</ele><time>2026-05-02T09:11:43.979Z</time></trkpt><trkpt lat="43.3774112" lon="-4.373588"><ele>68.66666666666667</ele><time>2026-05-02T09:11:44.978Z</time></trkpt><trkpt lat="43.3772817" lon="-4.3734886"><ele>71.33333333333334</ele><time>2026-05-02T09:11:45.974Z</time></trkpt><trkpt lat="43.3771485" lon="-4.3734004"><ele>74.0</ele><time>2026-05-02T09:11:46.974Z</time></trkpt><trkpt lat="43.3770044" lon="-4.373327"><ele>74.0</ele><time>2026-05-02T09:11:47.972Z</time></trkpt><trkpt lat="43.3768618" lon="-4.3732621"><ele>74.0</ele><time>2026-05-02T09:11:48.979Z</time></trkpt><trkpt lat="43.3767097" lon="-4.373212"><ele>74.0</ele><time>2026-05-02T09:11:49.971Z</time></trkpt><trkpt lat="43.3765564" lon="-4.3731723"><ele>74.0</ele><time>2026-05-02T09:11:50.974Z</time></trkpt><trkpt lat="43.3764019" lon="-4.3731493"><ele>74.0</ele><time>2026-05-02T09:11:51.973Z</time></trkpt><trkpt lat="43.3762476" lon="-4.3731528"><ele>74.0</ele><time>2026-05-02T09:11:52.981Z</time></trkpt><trkpt lat="43.3760874" lon="-4.3731654"><ele>74.0</ele><time>2026-05-02T09:11:53.975Z</time></trkpt><trkpt lat="43.375925" lon="-4.3731835"><ele>74.0</ele><time>2026-05-02T09:11:54.982Z</time></trkpt><trkpt lat="43.3757638" lon="-4.3731936"><ele>74.0</ele><time>2026-05-02T09:11:55.982Z</time></trkpt><trkpt lat="43.375605" lon="-4.3732164"><ele>74.33333333333334</ele><time>2026-05-02T09:11:56.977Z</time></trkpt><trkpt lat="43.3754454" lon="-4.3732351"><ele>74.66666666666667</ele><time>2026-05-02T09:11:57.98Z</time></trkpt><trkpt lat="43.375285" lon="-4.3732553"><ele>75.0</ele><time>2026-05-02T09:11:58.995Z</time></trkpt><trkpt lat="43.3751265" lon="-4.3732633"><ele>75.0</ele><time>2026-05-02T09:11:59.982Z</time></trkpt><trkpt lat="43.374974" lon="-4.3732539"><ele>75.0</ele><time>2026-05-02T09:12:00.976Z</time></trkpt><trkpt lat="43.3748296" lon="-4.3732288"><ele>75.0</ele><time>2026-05-02T09:12:01.977Z</time></trkpt><trkpt lat="43.3746926" lon="-4.3731922"><ele>75.0</ele><time>2026-05-02T09:12:02.981Z</time></trkpt><trkpt lat="43.3745554" lon="-4.3731383"><ele>75.5</ele><time>2026-05-02T09:12:03.978Z</time></trkpt><trkpt lat="43.3744261" lon="-4.3730716"><ele>76.0</ele><time>2026-05-02T09:12:04.975Z</time></trkpt><trkpt lat="43.374307" lon="-4.3729846"><ele>76.5</ele><time>2026-05-02T09:12:05.976Z</time></trkpt><trkpt lat="43.3742025" lon="-4.3728802"><ele>77.0</ele><time>2026-05-02T09:12:06.975Z</time></trkpt><trkpt lat="43.3741154" lon="-4.3727611"><ele>77.0</ele><time>2026-05-02T09:12:07.973Z</time></trkpt><trkpt lat="43.374045" lon="-4.3726101"><ele>77.0</ele><time>2026-05-02T09:12:08.975Z</time></trkpt><trkpt lat="43.3739946" lon="-4.3724505"><ele>77.0</ele><time>2026-05-02T09:12:09.977Z</time></trkpt><trkpt lat="43.3739681" lon="-4.3722787"><ele>77.0</ele><time>2026-05-02T09:12:10.977Z</time></trkpt><trkpt lat="43.3739508" lon="-4.3721051"><ele>77.5</ele><time>2026-05-02T09:12:11.968Z</time></trkpt><trkpt lat="43.3739562" lon="-4.3719406"><ele>78.0</ele><time>2026-05-02T09:12:12.974Z</time></trkpt><trkpt lat="43.373977" lon="-4.3717673"><ele>78.5</ele><time>2026-05-02T09:12:13.971Z</time></trkpt><trkpt lat="43.3740095" lon="-4.3715904"><ele>79.0</ele><time>2026-05-02T09:12:14.969Z</time></trkpt><trkpt lat="43.3740559" lon="-4.3714168"><ele>78.5</ele><time>2026-05-02T09:12:15.967Z</time></trkpt><trkpt lat="43.3741095" lon="-4.3712422"><ele>78.0</ele><time>2026-05-02T09:12:16.97Z</time></trkpt><trkpt lat="43.3741594" lon="-4.3710584"><ele>77.5</ele><time>2026-05-02T09:12:17.968Z</time></trkpt><trkpt lat="43.3742033" lon="-4.370867"><ele>77.0</ele><time>2026-05-02T09:12:18.968Z</time></trkpt><trkpt lat="43.3742091" lon="-4.3706503"><ele>77.5</ele><time>2026-05-02T09:12:19.972Z</time></trkpt><trkpt lat="43.3741873" lon="-4.3704468"><ele>78.0</ele><time>2026-05-02T09:12:20.971Z</time></trkpt><trkpt lat="43.3741442" lon="-4.3702525"><ele>78.5</ele><time>2026-05-02T09:12:21.97Z</time></trkpt><trkpt lat="43.3741111" lon="-4.3700626"><ele>79.0</ele><time>2026-05-02T09:12:22.978Z</time></trkpt><trkpt lat="43.3740735" lon="-4.3698753"><ele>79.75</ele><time>2026-05-02T09:12:23.975Z</time></trkpt><trkpt lat="43.3740293" lon="-4.3696888"><ele>80.5</ele><time>2026-05-02T09:12:24.978Z</time></trkpt><trkpt lat="43.3739779" lon="-4.3695145"><ele>81.25</ele><time>2026-05-02T09:12:25.969Z</time></trkpt><trkpt lat="43.3739156" lon="-4.3693315"><ele>82.0</ele><time>2026-05-02T09:12:26.966Z</time></trkpt><trkpt lat="43.3738369" lon="-4.3691688"><ele>81.0</ele><time>2026-05-02T09:12:27.964Z</time></trkpt><trkpt lat="43.3737393" lon="-4.3690151"><ele>80.0</ele><time>2026-05-02T09:12:28.969Z</time></trkpt><trkpt lat="43.3736443" lon="-4.3688803"><ele>79.0</ele><time>2026-05-02T09:12:29.983Z</time></trkpt><trkpt lat="43.3735439" lon="-4.3687372"><ele>78.0</ele><time>2026-05-02T09:12:30.977Z</time></trkpt><trkpt lat="43.3734293" lon="-4.3686004"><ele>78.0</ele><time>2026-05-02T09:12:31.982Z</time></trkpt><trkpt lat="43.3733193" lon="-4.3684655"><ele>78.0</ele><time>2026-05-02T09:12:32.979Z</time></trkpt><trkpt lat="43.37321" lon="-4.3683284"><ele>78.0</ele><time>2026-05-02T09:12:33.981Z</time></trkpt><trkpt lat="43.3730957" lon="-4.3681883"><ele>78.0</ele><time>2026-05-02T09:12:34.975Z</time></trkpt><trkpt lat="43.3729888" lon="-4.3680601"><ele>77.25</ele><time>2026-05-02T09:12:35.976Z</time></trkpt><trkpt lat="43.3728823" lon="-4.3679277"><ele>76.5</ele><time>2026-05-02T09:12:36.978Z</time></trkpt><trkpt lat="43.3727609" lon="-4.3678071"><ele>75.75</ele><time>2026-05-02T09:12:37.979Z</time></trkpt><trkpt lat="43.3726316" lon="-4.3676915"><ele>75.0</ele><time>2026-05-02T09:12:38.98Z</time></trkpt><trkpt lat="43.3725005" lon="-4.3675926"><ele>75.0</ele><time>2026-05-02T09:12:39.977Z</time></trkpt><trkpt lat="43.3723613" lon="-4.367504"><ele>75.0</ele><time>2026-05-02T09:12:40.979Z</time></trkpt><trkpt lat="43.3722174" lon="-4.3674219"><ele>75.0</ele><time>2026-05-02T09:12:41.977Z</time></trkpt><trkpt lat="43.3720738" lon="-4.367339"><ele>74.33333333333333</ele><time>2026-05-02T09:12:42.979Z</time></trkpt><trkpt lat="43.3719264" lon="-4.3672663"><ele>73.66666666666666</ele><time>2026-05-02T09:12:43.985Z</time></trkpt><trkpt lat="43.371778" lon="-4.3671864"><ele>73.0</ele><time>2026-05-02T09:12:44.982Z</time></trkpt><trkpt lat="43.3716336" lon="-4.3670898"><ele>73.0</ele><time>2026-05-02T09:12:45.98Z</time></trkpt><trkpt lat="43.3714876" lon="-4.3669821"><ele>73.0</ele><time>2026-05-02T09:12:46.983Z</time></trkpt><trkpt lat="43.3713477" lon="-4.3668666"><ele>73.0</ele><time>2026-05-02T09:12:47.979Z</time></trkpt><trkpt lat="43.3712179" lon="-4.366741"><ele>72.0</ele><time>2026-05-02T09:12:48.975Z</time></trkpt><trkpt lat="43.3710889" lon="-4.3666079"><ele>71.0</ele><time>2026-05-02T09:12:49.978Z</time></trkpt><trkpt lat="43.3709531" lon="-4.3664726"><ele>70.0</ele><time>2026-05-02T09:12:50.977Z</time></trkpt><trkpt lat="43.3708189" lon="-4.3663335"><ele>69.0</ele><time>2026-05-02T09:12:51.979Z</time></trkpt><trkpt lat="43.3706867" lon="-4.3661957"><ele>68.0</ele><time>2026-05-02T09:12:52.973Z</time></trkpt><trkpt lat="43.370559" lon="-4.3660663"><ele>67.0</ele><time>2026-05-02T09:12:53.97Z</time></trkpt><trkpt lat="43.3704227" lon="-4.3659277"><ele>67.0</ele><time>2026-05-02T09:12:54.973Z</time></trkpt><trkpt lat="43.3702852" lon="-4.3657973"><ele>67.0</ele><time>2026-05-02T09:12:55.981Z</time></trkpt><trkpt lat="43.370151" lon="-4.3656796"><ele>67.0</ele><time>2026-05-02T09:12:56.976Z</time></trkpt><trkpt lat="43.3700273" lon="-4.3655577"><ele>68.33333333333333</ele><time>2026-05-02T09:12:57.977Z</time></trkpt><trkpt lat="43.3698824" lon="-4.3654545"><ele>69.66666666666667</ele><time>2026-05-02T09:12:58.98Z</time></trkpt><trkpt lat="43.3697333" lon="-4.3653742"><ele>71.0</ele><time>2026-05-02T09:12:59.978Z</time></trkpt><trkpt lat="43.3695863" lon="-4.3653158"><ele>71.33333333333334</ele><time>2026-05-02T09:13:00.995Z</time></trkpt><trkpt lat="43.369433" lon="-4.3652741"><ele>71.66666666666667</ele><time>2026-05-02T09:13:01.981Z</time></trkpt><trkpt lat="43.3692727" lon="-4.3652482"><ele>72.0</ele><time>2026-05-02T09:13:02.986Z</time></trkpt><trkpt lat="43.3691207" lon="-4.365229"><ele>72.0</ele><time>2026-05-02T09:13:03.984Z</time></trkpt><trkpt lat="43.3689634" lon="-4.3652218"><ele>72.0</ele><time>2026-05-02T09:13:04.983Z</time></trkpt><trkpt lat="43.3688097" lon="-4.365232"><ele>72.0</ele><time>2026-05-02T09:13:05.983Z</time></trkpt><trkpt lat="43.368659" lon="-4.3652447"><ele>72.0</ele><time>2026-05-02T09:13:06.982Z</time></trkpt><trkpt lat="43.3685192" lon="-4.3652475"><ele>72.0</ele><time>2026-05-02T09:13:07.981Z</time></trkpt><trkpt lat="43.3683844" lon="-4.3652516"><ele>72.0</ele><time>2026-05-02T09:13:08.986Z</time></trkpt><trkpt lat="43.3682535" lon="-4.3652427"><ele>72.0</ele><time>2026-05-02T09:13:09.986Z</time></trkpt><trkpt lat="43.3681285" lon="-4.3652223"><ele>71.75</ele><time>2026-05-02T09:13:10.98Z</time></trkpt><trkpt lat="43.3680095" lon="-4.3651807"><ele>71.5</ele><time>2026-05-02T09:13:11.984Z</time></trkpt><trkpt lat="43.3678978" lon="-4.3651325"><ele>71.25</ele><time>2026-05-02T09:13:12.987Z</time></trkpt><trkpt lat="43.3677838" lon="-4.3650799"><ele>71.0</ele><time>2026-05-02T09:13:13.99Z</time></trkpt><trkpt lat="43.3676726" lon="-4.3650174"><ele>71.0</ele><time>2026-05-02T09:13:14.989Z</time></trkpt><trkpt lat="43.3675602" lon="-4.3649347"><ele>71.0</ele><time>2026-05-02T09:13:15.99Z</time></trkpt><trkpt lat="43.3674581" lon="-4.364826"><ele>71.0</ele><time>2026-05-02T09:13:16.983Z</time></trkpt><trkpt lat="43.3673635" lon="-4.3647024"><ele>71.0</ele><time>2026-05-02T09:13:17.983Z</time></trkpt><trkpt lat="43.3672695" lon="-4.3645681"><ele>71.5</ele><time>2026-05-02T09:13:18.982Z</time></trkpt><trkpt lat="43.3671793" lon="-4.3644193"><ele>72.0</ele><time>2026-05-02T09:13:19.983Z</time></trkpt><trkpt lat="43.3670907" lon="-4.3642554"><ele>72.5</ele><time>2026-05-02T09:13:20.986Z</time></trkpt><trkpt lat="43.3670028" lon="-4.3640788"><ele>73.0</ele><time>2026-05-02T09:13:21.986Z</time></trkpt><trkpt lat="43.3669186" lon="-4.3639021"><ele>72.33333333333333</ele><time>2026-05-02T09:13:22.99Z</time></trkpt><trkpt lat="43.3668297" lon="-4.3637328"><ele>71.66666666666667</ele><time>2026-05-02T09:13:23.988Z</time></trkpt><trkpt lat="43.366737" lon="-4.3635663"><ele>71.0</ele><time>2026-05-02T09:13:24.989Z</time></trkpt><trkpt lat="43.3666366" lon="-4.3634005"><ele>71.0</ele><time>2026-05-02T09:13:25.983Z</time></trkpt><trkpt lat="43.3665358" lon="-4.3632396"><ele>71.0</ele><time>2026-05-02T09:13:26.981Z</time></trkpt><trkpt lat="43.3664287" lon="-4.3630836"><ele>71.0</ele><time>2026-05-02T09:13:27.981Z</time></trkpt><trkpt lat="43.3663229" lon="-4.3629398"><ele>72.25</ele><time>2026-05-02T09:13:28.978Z</time></trkpt><trkpt lat="43.3662164" lon="-4.3628024"><ele>73.5</ele><time>2026-05-02T09:13:29.982Z</time></trkpt><trkpt lat="43.3660998" lon="-4.3626684"><ele>74.75</ele><time>2026-05-02T09:13:30.978Z</time></trkpt><trkpt lat="43.3659861" lon="-4.3625411"><ele>76.0</ele><time>2026-05-02T09:13:31.992Z</time></trkpt><trkpt lat="43.3658662" lon="-4.3624009"><ele>76.0</ele><time>2026-05-02T09:13:32.97Z</time></trkpt><trkpt lat="43.3657468" lon="-4.362275"><ele>76.0</ele><time>2026-05-02T09:13:33.97Z</time></trkpt><trkpt lat="43.3656152" lon="-4.3621492"><ele>76.0</ele><time>2026-05-02T09:13:34.966Z</time></trkpt><trkpt lat="43.3654896" lon="-4.362037"><ele>72.33333333333333</ele><time>2026-05-02T09:13:35.97Z</time></trkpt><trkpt lat="43.3653553" lon="-4.3619175"><ele>68.66666666666667</ele><time>2026-05-02T09:13:36.974Z</time></trkpt><trkpt lat="43.365217" lon="-4.3618127"><ele>65.0</ele><time>2026-05-02T09:13:37.97Z</time></trkpt><trkpt lat="43.3650747" lon="-4.3616966"><ele>65.0</ele><time>2026-05-02T09:13:38.975Z</time></trkpt><trkpt lat="43.3649406" lon="-4.3615866"><ele>65.0</ele><time>2026-05-02T09:13:39.971Z</time></trkpt><trkpt lat="43.3647903" lon="-4.3614831"><ele>65.0</ele><time>2026-05-02T09:13:40.972Z</time></trkpt><trkpt lat="43.3646376" lon="-4.3613819"><ele>62.0</ele><time>2026-05-02T09:13:41.98Z</time></trkpt><trkpt lat="43.364491" lon="-4.3612751"><ele>59.0</ele><time>2026-05-02T09:13:42.979Z</time></trkpt><trkpt lat="43.3643463" lon="-4.3611507"><ele>56.0</ele><time>2026-05-02T09:13:43.982Z</time></trkpt><trkpt lat="43.3641992" lon="-4.3610317"><ele>56.0</ele><time>2026-05-02T09:13:44.98Z</time></trkpt><trkpt lat="43.3640546" lon="-4.3609119"><ele>56.0</ele><time>2026-05-02T09:13:45.982Z</time></trkpt><trkpt lat="43.363915" lon="-4.3607785"><ele>56.0</ele><time>2026-05-02T09:13:46.985Z</time></trkpt><trkpt lat="43.3637859" lon="-4.3606385"><ele>57.66666666666667</ele><time>2026-05-02T09:13:47.98Z</time></trkpt><trkpt lat="43.363669" lon="-4.3604865"><ele>59.33333333333333</ele><time>2026-05-02T09:13:48.982Z</time></trkpt><trkpt lat="43.3635545" lon="-4.3603311"><ele>61.0</ele><time>2026-05-02T09:13:49.979Z</time></trkpt><trkpt lat="43.3634378" lon="-4.3601779"><ele>61.0</ele><time>2026-05-02T09:13:50.982Z</time></trkpt><trkpt lat="43.3633265" lon="-4.3600182"><ele>61.0</ele><time>2026-05-02T09:13:51.981Z</time></trkpt><trkpt lat="43.3632144" lon="-4.3598623"><ele>61.0</ele><time>2026-05-02T09:13:52.985Z</time></trkpt><trkpt lat="43.3631039" lon="-4.3597054"><ele>62.666666666666664</ele><time>2026-05-02T09:13:53.982Z</time></trkpt><trkpt lat="43.3629801" lon="-4.3595683"><ele>64.33333333333333</ele><time>2026-05-02T09:13:54.984Z</time></trkpt><trkpt lat="43.362862" lon="-4.3594355"><ele>66.0</ele><time>2026-05-02T09:13:55.981Z</time></trkpt><trkpt lat="43.3627418" lon="-4.3593192"><ele>66.0</ele><time>2026-05-02T09:13:56.975Z</time></trkpt><trkpt lat="43.3626187" lon="-4.3592184"><ele>66.0</ele><time>2026-05-02T09:13:57.976Z</time></trkpt><trkpt lat="43.3624909" lon="-4.3591116"><ele>66.0</ele><time>2026-05-02T09:13:58.979Z</time></trkpt><trkpt lat="43.3623625" lon="-4.3590116"><ele>66.0</ele><time>2026-05-02T09:13:59.98Z</time></trkpt><trkpt lat="43.3622268" lon="-4.3589151"><ele>68.75</ele><time>2026-05-02T09:14:00.98Z</time></trkpt><trkpt lat="43.3620965" lon="-4.3588185"><ele>71.5</ele><time>2026-05-02T09:14:01.976Z</time></trkpt><trkpt lat="43.3619654" lon="-4.3587284"><ele>74.25</ele><time>2026-05-02T09:14:02.991Z</time></trkpt><trkpt lat="43.3618277" lon="-4.3586351"><ele>77.0</ele><time>2026-05-02T09:14:03.977Z</time></trkpt><trkpt lat="43.3616933" lon="-4.3585462"><ele>77.0</ele><time>2026-05-02T09:14:04.976Z</time></trkpt><trkpt lat="43.361563" lon="-4.3584506"><ele>77.0</ele><time>2026-05-02T09:14:05.981Z</time></trkpt><trkpt lat="43.3614337" lon="-4.3583507"><ele>77.0</ele><time>2026-05-02T09:14:06.974Z</time></trkpt><trkpt lat="43.361296" lon="-4.3582466"><ele>78.0</ele><time>2026-05-02T09:14:07.977Z</time></trkpt><trkpt lat="43.3611613" lon="-4.3581465"><ele>79.0</ele><time>2026-05-02T09:14:08.976Z</time></trkpt><trkpt lat="43.3610236" lon="-4.3580456"><ele>80.0</ele><time>2026-05-02T09:14:09.978Z</time></trkpt><trkpt lat="43.3608921" lon="-4.3579377"><ele>80.0</ele><time>2026-05-02T09:14:10.977Z</time></trkpt><trkpt lat="43.3607543" lon="-4.3578491"><ele>80.0</ele><time>2026-05-02T09:14:11.976Z</time></trkpt><trkpt lat="43.3606167" lon="-4.3577553"><ele>80.0</ele><time>2026-05-02T09:14:12.984Z</time></trkpt><trkpt lat="43.3604834" lon="-4.3576533"><ele>78.0</ele><time>2026-05-02T09:14:13.985Z</time></trkpt><trkpt lat="43.3603483" lon="-4.3575595"><ele>76.0</ele><time>2026-05-02T09:14:14.982Z</time></trkpt><trkpt lat="43.3602147" lon="-4.357456"><ele>74.0</ele><time>2026-05-02T09:14:15.984Z</time></trkpt><trkpt lat="43.3600856" lon="-4.3573575"><ele>74.0</ele><time>2026-05-02T09:14:16.987Z</time></trkpt><trkpt lat="43.3599571" lon="-4.3572644"><ele>74.0</ele><time>2026-05-02T09:14:17.983Z</time></trkpt><trkpt lat="43.3598253" lon="-4.3571666"><ele>74.0</ele><time>2026-05-02T09:14:18.991Z</time></trkpt><trkpt lat="43.359692" lon="-4.3570742"><ele>74.0</ele><time>2026-05-02T09:14:19.99Z</time></trkpt><trkpt lat="43.3595591" lon="-4.3569835"><ele>76.5</ele><time>2026-05-02T09:14:20.994Z</time></trkpt><trkpt lat="43.3594224" lon="-4.3569005"><ele>79.0</ele><time>2026-05-02T09:14:21.989Z</time></trkpt><trkpt lat="43.3592869" lon="-4.356815"><ele>81.5</ele><time>2026-05-02T09:14:22.988Z</time></trkpt><trkpt lat="43.3591586" lon="-4.3567362"><ele>84.0</ele><time>2026-05-02T09:14:23.979Z</time></trkpt><trkpt lat="43.3590267" lon="-4.3566689"><ele>84.0</ele><time>2026-05-02T09:14:24.982Z</time></trkpt><trkpt lat="43.3589019" lon="-4.3565981"><ele>84.0</ele><time>2026-05-02T09:14:25.98Z</time></trkpt><trkpt lat="43.3587721" lon="-4.3565328"><ele>84.0</ele><time>2026-05-02T09:14:26.978Z</time></trkpt><trkpt lat="43.3586402" lon="-4.3564689"><ele>84.0</ele><time>2026-05-02T09:14:27.977Z</time></trkpt><trkpt lat="43.3585037" lon="-4.3564139"><ele>84.75</ele><time>2026-05-02T09:14:28.981Z</time></trkpt><trkpt lat="43.3583729" lon="-4.3563549"><ele>85.5</ele><time>2026-05-02T09:14:29.982Z</time></trkpt><trkpt lat="43.3582463" lon="-4.356289"><ele>86.25</ele><time>2026-05-02T09:14:30.982Z</time></trkpt><trkpt lat="43.35812" lon="-4.3562223"><ele>87.0</ele><time>2026-05-02T09:14:31.981Z</time></trkpt><trkpt lat="43.3579968" lon="-4.3561634"><ele>87.0</ele><time>2026-05-02T09:14:32.986Z</time></trkpt><trkpt lat="43.3578727" lon="-4.3560982"><ele>87.0</ele><time>2026-05-02T09:14:33.992Z</time></trkpt><trkpt lat="43.3577556" lon="-4.3560241"><ele>87.0</ele><time>2026-05-02T09:14:34.978Z</time></trkpt><trkpt lat="43.3576371" lon="-4.3559624"><ele>87.0</ele><time>2026-05-02T09:14:35.98Z</time></trkpt><trkpt lat="43.3575136" lon="-4.3559001"><ele>87.0</ele><time>2026-05-02T09:14:36.985Z</time></trkpt><trkpt lat="43.3573936" lon="-4.3558347"><ele>87.0</ele><time>2026-05-02T09:14:37.982Z</time></trkpt><trkpt lat="43.3572796" lon="-4.3557693"><ele>87.0</ele><time>2026-05-02T09:14:38.983Z</time></trkpt><trkpt lat="43.3571686" lon="-4.3556906"><ele>87.0</ele><time>2026-05-02T09:14:39.981Z</time></trkpt><trkpt lat="43.3570633" lon="-4.355597"><ele>89.25</ele><time>2026-05-02T09:14:40.982Z</time></trkpt><trkpt lat="43.3569606" lon="-4.3554953"><ele>91.5</ele><time>2026-05-02T09:14:41.984Z</time></trkpt><trkpt lat="43.3568654" lon="-4.3553845"><ele>93.75</ele><time>2026-05-02T09:14:42.982Z</time></trkpt><trkpt lat="43.3567758" lon="-4.3552684"><ele>96.0</ele><time>2026-05-02T09:14:43.981Z</time></trkpt><trkpt lat="43.3566913" lon="-4.3551462"><ele>96.0</ele><time>2026-05-02T09:14:44.978Z</time></trkpt><trkpt lat="43.3566065" lon="-4.3550268"><ele>96.0</ele><time>2026-05-02T09:14:45.98Z</time></trkpt><trkpt lat="43.356527" lon="-4.3549094"><ele>96.0</ele><time>2026-05-02T09:14:46.985Z</time></trkpt><trkpt lat="43.3564439" lon="-4.354793"><ele>96.0</ele><time>2026-05-02T09:14:47.981Z</time></trkpt><trkpt lat="43.356356" lon="-4.3546828"><ele>97.5</ele><time>2026-05-02T09:14:48.983Z</time></trkpt><trkpt lat="43.3562654" lon="-4.354581"><ele>99.0</ele><time>2026-05-02T09:14:49.978Z</time></trkpt><trkpt lat="43.3561653" lon="-4.3544974"><ele>100.5</ele><time>2026-05-02T09:14:50.986Z</time></trkpt><trkpt lat="43.3560537" lon="-4.3544391"><ele>102.0</ele><time>2026-05-02T09:14:51.982Z</time></trkpt><trkpt lat="43.3559369" lon="-4.3543962"><ele>102.0</ele><time>2026-05-02T09:14:52.985Z</time></trkpt><trkpt lat="43.3558194" lon="-4.3543633"><ele>102.0</ele><time>2026-05-02T09:14:53.984Z</time></trkpt><trkpt lat="43.3556982" lon="-4.3543338"><ele>102.0</ele><time>2026-05-02T09:14:54.989Z</time></trkpt><trkpt lat="43.3555771" lon="-4.3543093"><ele>102.0</ele><time>2026-05-02T09:14:55.992Z</time></trkpt><trkpt lat="43.3554584" lon="-4.3542882"><ele>102.5</ele><time>2026-05-02T09:14:56.993Z</time></trkpt><trkpt lat="43.355338" lon="-4.3542592"><ele>103.0</ele><time>2026-05-02T09:14:57.988Z</time></trkpt><trkpt lat="43.3552222" lon="-4.3542296"><ele>103.5</ele><time>2026-05-02T09:14:58.991Z</time></trkpt><trkpt lat="43.3551061" lon="-4.3541962"><ele>104.0</ele><time>2026-05-02T09:14:59.991Z</time></trkpt><trkpt lat="43.3549908" lon="-4.3541588"><ele>104.0</ele><time>2026-05-02T09:15:00.992Z</time></trkpt><trkpt lat="43.354875" lon="-4.3541197"><ele>104.0</ele><time>2026-05-02T09:15:01.991Z</time></trkpt><trkpt lat="43.3547608" lon="-4.3540734"><ele>104.0</ele><time>2026-05-02T09:15:02.989Z</time></trkpt><trkpt lat="43.3546477" lon="-4.3540176"><ele>104.0</ele><time>2026-05-02T09:15:03.991Z</time></trkpt><trkpt lat="43.3545324" lon="-4.3539571"><ele>104.5</ele><time>2026-05-02T09:15:05.001Z</time></trkpt><trkpt lat="43.3544129" lon="-4.3538987"><ele>105.0</ele><time>2026-05-02T09:15:05.982Z</time></trkpt><trkpt lat="43.3542895" lon="-4.3538326"><ele>105.5</ele><time>2026-05-02T09:15:06.983Z</time></trkpt><trkpt lat="43.3541647" lon="-4.3537644"><ele>106.0</ele><time>2026-05-02T09:15:07.984Z</time></trkpt><trkpt lat="43.354035" lon="-4.3536929"><ele>105.0</ele><time>2026-05-02T09:15:08.984Z</time></trkpt><trkpt lat="43.3539049" lon="-4.3536194"><ele>104.0</ele><time>2026-05-02T09:15:09.985Z</time></trkpt><trkpt lat="43.3537762" lon="-4.3535448"><ele>103.0</ele><time>2026-05-02T09:15:10.984Z</time></trkpt><trkpt lat="43.3536518" lon="-4.3534712"><ele>102.0</ele><time>2026-05-02T09:15:11.981Z</time></trkpt><trkpt lat="43.3535286" lon="-4.3534116"><ele>102.0</ele><time>2026-05-02T09:15:12.983Z</time></trkpt><trkpt lat="43.3534095" lon="-4.3533434"><ele>102.0</ele><time>2026-05-02T09:15:13.982Z</time></trkpt><trkpt lat="43.3532876" lon="-4.3532915"><ele>102.0</ele><time>2026-05-02T09:15:14.981Z</time></trkpt><trkpt lat="43.3531736" lon="-4.3532388"><ele>102.0</ele><time>2026-05-02T09:15:15.987Z</time></trkpt><trkpt lat="43.3530678" lon="-4.3531833"><ele>102.5</ele><time>2026-05-02T09:15:16.993Z</time></trkpt><trkpt lat="43.3529596" lon="-4.3531334"><ele>103.0</ele><time>2026-05-02T09:15:17.994Z</time></trkpt><trkpt lat="43.3528502" lon="-4.3530744"><ele>103.5</ele><time>2026-05-02T09:15:18.984Z</time></trkpt><trkpt lat="43.3527454" lon="-4.3530115"><ele>104.0</ele><time>2026-05-02T09:15:19.989Z</time></trkpt><trkpt lat="43.3526456" lon="-4.3529291"><ele>102.75</ele><time>2026-05-02T09:15:20.995Z</time></trkpt><trkpt lat="43.3525599" lon="-4.3528344"><ele>101.5</ele><time>2026-05-02T09:15:21.994Z</time></trkpt><trkpt lat="43.3524828" lon="-4.3527248"><ele>100.25</ele><time>2026-05-02T09:15:22.996Z</time></trkpt><trkpt lat="43.3524103" lon="-4.352595"><ele>99.0</ele><time>2026-05-02T09:15:23.988Z</time></trkpt><trkpt lat="43.3523469" lon="-4.3524562"><ele>99.0</ele><time>2026-05-02T09:15:24.989Z</time></trkpt><trkpt lat="43.352298" lon="-4.3523015"><ele>99.0</ele><time>2026-05-02T09:15:25.985Z</time></trkpt><trkpt lat="43.3522618" lon="-4.3521336"><ele>99.0</ele><time>2026-05-02T09:15:26.991Z</time></trkpt><trkpt lat="43.3522456" lon="-4.3519539"><ele>99.0</ele><time>2026-05-02T09:15:27.992Z</time></trkpt><trkpt lat="43.3522471" lon="-4.3517676"><ele>97.75</ele><time>2026-05-02T09:15:28.992Z</time></trkpt><trkpt lat="43.3522677" lon="-4.3515852"><ele>96.5</ele><time>2026-05-02T09:15:29.986Z</time></trkpt><trkpt lat="43.3523047" lon="-4.3514033"><ele>95.25</ele><time>2026-05-02T09:15:30.991Z</time></trkpt><trkpt lat="43.3523496" lon="-4.3512264"><ele>94.0</ele><time>2026-05-02T09:15:31.986Z</time></trkpt><trkpt lat="43.3523968" lon="-4.3510386"><ele>94.0</ele><time>2026-05-02T09:15:32.983Z</time></trkpt><trkpt lat="43.3524486" lon="-4.350842"><ele>94.0</ele><time>2026-05-02T09:15:33.988Z</time></trkpt><trkpt lat="43.3525085" lon="-4.3506407"><ele>94.0</ele><time>2026-05-02T09:15:34.985Z</time></trkpt><trkpt lat="43.3525541" lon="-4.3504444"><ele>95.25</ele><time>2026-05-02T09:15:35.999Z</time></trkpt><trkpt lat="43.3525955" lon="-4.3502458"><ele>96.5</ele><time>2026-05-02T09:15:36.984Z</time></trkpt><trkpt lat="43.3526367" lon="-4.350053"><ele>97.75</ele><time>2026-05-02T09:15:37.983Z</time></trkpt><trkpt lat="43.352684" lon="-4.3498624"><ele>99.0</ele><time>2026-05-02T09:15:38.987Z</time></trkpt><trkpt lat="43.3527324" lon="-4.3496703"><ele>99.5</ele><time>2026-05-02T09:15:39.991Z</time></trkpt><trkpt lat="43.3527754" lon="-4.349477"><ele>100.0</ele><time>2026-05-02T09:15:40.976Z</time></trkpt><trkpt lat="43.3528209" lon="-4.3492946"><ele>100.5</ele><time>2026-05-02T09:15:41.99Z</time></trkpt><trkpt lat="43.3528606" lon="-4.3490953"><ele>101.0</ele><time>2026-05-02T09:15:42.988Z</time></trkpt><trkpt lat="43.3528969" lon="-4.3488893"><ele>100.33333333333333</ele><time>2026-05-02T09:15:43.989Z</time></trkpt><trkpt lat="43.3529286" lon="-4.3486773"><ele>99.66666666666666</ele><time>2026-05-02T09:15:44.987Z</time></trkpt><trkpt lat="43.3529492" lon="-4.3484662"><ele>99.0</ele><time>2026-05-02T09:15:45.987Z</time></trkpt><trkpt lat="43.3529627" lon="-4.3482551"><ele>97.66666666666667</ele><time>2026-05-02T09:15:46.986Z</time></trkpt><trkpt lat="43.3529703" lon="-4.348036"><ele>96.33333333333334</ele><time>2026-05-02T09:15:47.981Z</time></trkpt><trkpt lat="43.3529708" lon="-4.3478153"><ele>95.0</ele><time>2026-05-02T09:15:48.981Z</time></trkpt><trkpt lat="43.3529558" lon="-4.3476064"><ele>95.0</ele><time>2026-05-02T09:15:49.979Z</time></trkpt><trkpt lat="43.3529362" lon="-4.3474049"><ele>95.0</ele><time>2026-05-02T09:15:50.98Z</time></trkpt><trkpt lat="43.3529099" lon="-4.3472138"><ele>95.0</ele><time>2026-05-02T09:15:51.982Z</time></trkpt><trkpt lat="43.3528724" lon="-4.3470312"><ele>95.0</ele><time>2026-05-02T09:15:52.98Z</time></trkpt><trkpt lat="43.3528248" lon="-4.3468502"><ele>92.0</ele><time>2026-05-02T09:15:53.981Z</time></trkpt><trkpt lat="43.352766" lon="-4.3466557"><ele>89.0</ele><time>2026-05-02T09:15:54.984Z</time></trkpt><trkpt lat="43.3526975" lon="-4.3464644"><ele>86.0</ele><time>2026-05-02T09:15:55.985Z</time></trkpt><trkpt lat="43.3526222" lon="-4.346282"><ele>83.33333333333334</ele><time>2026-05-02T09:15:56.978Z</time></trkpt><trkpt lat="43.3525395" lon="-4.346096"><ele>80.66666666666667</ele><time>2026-05-02T09:15:57.984Z</time></trkpt><trkpt lat="43.3524634" lon="-4.3459144"><ele>78.0</ele><time>2026-05-02T09:15:58.988Z</time></trkpt><trkpt lat="43.3523817" lon="-4.3457376"><ele>78.0</ele><time>2026-05-02T09:15:59.985Z</time></trkpt><trkpt lat="43.3523033" lon="-4.3455509"><ele>78.0</ele><time>2026-05-02T09:16:00.986Z</time></trkpt><trkpt lat="43.3522161" lon="-4.345367"><ele>78.0</ele><time>2026-05-02T09:16:01.985Z</time></trkpt><trkpt lat="43.3521358" lon="-4.3451814"><ele>79.0</ele><time>2026-05-02T09:16:02.987Z</time></trkpt><trkpt lat="43.3520593" lon="-4.3449818"><ele>80.0</ele><time>2026-05-02T09:16:03.989Z</time></trkpt><trkpt lat="43.3519799" lon="-4.3447873"><ele>81.0</ele><time>2026-05-02T09:16:04.986Z</time></trkpt><trkpt lat="43.3519069" lon="-4.3445939"><ele>78.0</ele><time>2026-05-02T09:16:05.985Z</time></trkpt><trkpt lat="43.3518313" lon="-4.3444014"><ele>75.0</ele><time>2026-05-02T09:16:07.001Z</time></trkpt><trkpt lat="43.3517536" lon="-4.3442112"><ele>72.0</ele><time>2026-05-02T09:16:07.982Z</time></trkpt><trkpt lat="43.3516745" lon="-4.3440165"><ele>70.66666666666667</ele><time>2026-05-02T09:16:08.983Z</time></trkpt><trkpt lat="43.3516001" lon="-4.343823"><ele>69.33333333333334</ele><time>2026-05-02T09:16:09.984Z</time></trkpt><trkpt lat="43.3515216" lon="-4.3436289"><ele>68.0</ele><time>2026-05-02T09:16:10.982Z</time></trkpt><trkpt lat="43.3514489" lon="-4.343451"><ele>68.0</ele><time>2026-05-02T09:16:11.975Z</time></trkpt><trkpt lat="43.3513762" lon="-4.3432671"><ele>68.0</ele><time>2026-05-02T09:16:12.976Z</time></trkpt><trkpt lat="43.3513012" lon="-4.3430975"><ele>68.0</ele><time>2026-05-02T09:16:13.978Z</time></trkpt><trkpt lat="43.3512412" lon="-4.3429186"><ele>68.0</ele><time>2026-05-02T09:16:14.974Z</time></trkpt><trkpt lat="43.3511827" lon="-4.342744"><ele>68.0</ele><time>2026-05-02T09:16:15.971Z</time></trkpt><trkpt lat="43.3511249" lon="-4.3425706"><ele>68.0</ele><time>2026-05-02T09:16:16.975Z</time></trkpt><trkpt lat="43.3510853" lon="-4.3423889"><ele>68.0</ele><time>2026-05-02T09:16:17.972Z</time></trkpt><trkpt lat="43.3510485" lon="-4.3422161"><ele>68.0</ele><time>2026-05-02T09:16:18.974Z</time></trkpt><trkpt lat="43.3510197" lon="-4.3420448"><ele>67.0</ele><time>2026-05-02T09:16:19.975Z</time></trkpt><trkpt lat="43.3509939" lon="-4.3418807"><ele>66.0</ele><time>2026-05-02T09:16:20.973Z</time></trkpt><trkpt lat="43.3509694" lon="-4.3417118"><ele>65.0</ele><time>2026-05-02T09:16:21.97Z</time></trkpt><trkpt lat="43.350952" lon="-4.3415411"><ele>64.0</ele><time>2026-05-02T09:16:22.974Z</time></trkpt><trkpt lat="43.3509284" lon="-4.3413674"><ele>63.0</ele><time>2026-05-02T09:16:23.972Z</time></trkpt><trkpt lat="43.3509112" lon="-4.3412009"><ele>62.0</ele><time>2026-05-02T09:16:24.971Z</time></trkpt><trkpt lat="43.3508886" lon="-4.3410343"><ele>61.0</ele><time>2026-05-02T09:16:25.979Z</time></trkpt><trkpt lat="43.3508618" lon="-4.3408705"><ele>60.0</ele><time>2026-05-02T09:16:26.969Z</time></trkpt><trkpt lat="43.3508261" lon="-4.340711"><ele>60.0</ele><time>2026-05-02T09:16:27.971Z</time></trkpt><trkpt lat="43.3507782" lon="-4.3405544"><ele>60.0</ele><time>2026-05-02T09:16:28.962Z</time></trkpt><trkpt lat="43.3507196" lon="-4.3404082"><ele>60.0</ele><time>2026-05-02T09:16:29.97Z</time></trkpt><trkpt lat="43.3506391" lon="-4.340282"><ele>60.0</ele><time>2026-05-02T09:16:30.966Z</time></trkpt><trkpt lat="43.3505424" lon="-4.3401702"><ele>57.75</ele><time>2026-05-02T09:16:31.963Z</time></trkpt><trkpt lat="43.3504337" lon="-4.3400724"><ele>55.5</ele><time>2026-05-02T09:16:32.961Z</time></trkpt><trkpt lat="43.3503139" lon="-4.3399924"><ele>53.25</ele><time>2026-05-02T09:16:33.962Z</time></trkpt><trkpt lat="43.3501842" lon="-4.3399331"><ele>51.0</ele><time>2026-05-02T09:16:34.968Z</time></trkpt><trkpt lat="43.3500452" lon="-4.3399146"><ele>51.0</ele><time>2026-05-02T09:16:35.965Z</time></trkpt><trkpt lat="43.3498956" lon="-4.339905"><ele>51.0</ele><time>2026-05-02T09:16:36.969Z</time></trkpt><trkpt lat="43.3497572" lon="-4.3399046"><ele>51.0</ele><time>2026-05-02T09:16:37.984Z</time></trkpt><trkpt lat="43.3496149" lon="-4.3398962"><ele>51.0</ele><time>2026-05-02T09:16:38.964Z</time></trkpt><trkpt lat="43.3494731" lon="-4.3398863"><ele>49.5</ele><time>2026-05-02T09:16:39.969Z</time></trkpt><trkpt lat="43.349327" lon="-4.3398559"><ele>48.0</ele><time>2026-05-02T09:16:40.973Z</time></trkpt><trkpt lat="43.3491875" lon="-4.3398164"><ele>46.5</ele><time>2026-05-02T09:16:41.968Z</time></trkpt><trkpt lat="43.3490476" lon="-4.3397723"><ele>45.0</ele><time>2026-05-02T09:16:42.967Z</time></trkpt><trkpt lat="43.3489053" lon="-4.3397188"><ele>43.333333333333336</ele><time>2026-05-02T09:16:43.964Z</time></trkpt><trkpt lat="43.3487716" lon="-4.3396307"><ele>41.66666666666667</ele><time>2026-05-02T09:16:44.964Z</time></trkpt><trkpt lat="43.3486323" lon="-4.3395205"><ele>40.0</ele><time>2026-05-02T09:16:45.968Z</time></trkpt><trkpt lat="43.3485018" lon="-4.339401"><ele>40.0</ele><time>2026-05-02T09:16:46.975Z</time></trkpt><trkpt lat="43.3483673" lon="-4.3392936"><ele>40.0</ele><time>2026-05-02T09:16:47.971Z</time></trkpt><trkpt lat="43.3482426" lon="-4.3391931"><ele>40.0</ele><time>2026-05-02T09:16:48.968Z</time></trkpt><trkpt lat="43.3481219" lon="-4.3390905"><ele>40.0</ele><time>2026-05-02T09:16:49.966Z</time></trkpt><trkpt lat="43.3480028" lon="-4.3389905"><ele>39.75</ele><time>2026-05-02T09:16:50.97Z</time></trkpt><trkpt lat="43.3478891" lon="-4.3389004"><ele>39.5</ele><time>2026-05-02T09:16:51.964Z</time></trkpt><trkpt lat="43.3477754" lon="-4.3388117"><ele>39.25</ele><time>2026-05-02T09:16:52.969Z</time></trkpt><trkpt lat="43.3476677" lon="-4.3387273"><ele>39.0</ele><time>2026-05-02T09:16:53.962Z</time></trkpt><trkpt lat="43.3475636" lon="-4.3386542"><ele>39.0</ele><time>2026-05-02T09:16:54.971Z</time></trkpt><trkpt lat="43.3474619" lon="-4.3385869"><ele>39.0</ele><time>2026-05-02T09:16:55.966Z</time></trkpt><trkpt lat="43.3473547" lon="-4.3385313"><ele>39.0</ele><time>2026-05-02T09:16:56.964Z</time></trkpt><trkpt lat="43.3472455" lon="-4.3384913"><ele>39.0</ele><time>2026-05-02T09:16:57.965Z</time></trkpt><trkpt lat="43.3471293" lon="-4.3384549"><ele>38.75</ele><time>2026-05-02T09:16:58.968Z</time></trkpt><trkpt lat="43.3470065" lon="-4.3384234"><ele>38.5</ele><time>2026-05-02T09:16:59.966Z</time></trkpt><trkpt lat="43.3468775" lon="-4.3383914"><ele>38.25</ele><time>2026-05-02T09:17:00.966Z</time></trkpt><trkpt lat="43.3467481" lon="-4.3383564"><ele>38.0</ele><time>2026-05-02T09:17:01.969Z</time></trkpt><trkpt lat="43.3466081" lon="-4.3383299"><ele>38.0</ele><time>2026-05-02T09:17:02.965Z</time></trkpt><trkpt lat="43.3464671" lon="-4.3383282"><ele>38.0</ele><time>2026-05-02T09:17:03.967Z</time></trkpt><trkpt lat="43.3463223" lon="-4.3383578"><ele>38.0</ele><time>2026-05-02T09:17:04.963Z</time></trkpt><trkpt lat="43.3461784" lon="-4.3384019"><ele>38.0</ele><time>2026-05-02T09:17:05.967Z</time></trkpt><trkpt lat="43.3460283" lon="-4.3384555"><ele>38.33333333333333</ele><time>2026-05-02T09:17:06.965Z</time></trkpt><trkpt lat="43.3458752" lon="-4.3384983"><ele>38.666666666666664</ele><time>2026-05-02T09:17:07.961Z</time></trkpt><trkpt lat="43.3457238" lon="-4.3385301"><ele>39.0</ele><time>2026-05-02T09:17:08.979Z</time></trkpt><trkpt lat="43.3455741" lon="-4.3385622"><ele>40.0</ele><time>2026-05-02T09:17:09.962Z</time></trkpt><trkpt lat="43.3454319" lon="-4.3386017"><ele>41.0</ele><time>2026-05-02T09:17:10.961Z</time></trkpt><trkpt lat="43.3452904" lon="-4.3386313"><ele>42.0</ele><time>2026-05-02T09:17:11.964Z</time></trkpt><trkpt lat="43.3451475" lon="-4.3386416"><ele>43.0</ele><time>2026-05-02T09:17:12.965Z</time></trkpt><trkpt lat="43.345009" lon="-4.3386381"><ele>43.0</ele><time>2026-05-02T09:17:13.96Z</time></trkpt><trkpt lat="43.3448714" lon="-4.338602"><ele>43.0</ele><time>2026-05-02T09:17:14.961Z</time></trkpt><trkpt lat="43.3447315" lon="-4.3385426"><ele>43.0</ele><time>2026-05-02T09:17:15.962Z</time></trkpt><trkpt lat="43.3446103" lon="-4.3384501"><ele>43.0</ele><time>2026-05-02T09:17:16.976Z</time></trkpt><trkpt lat="43.3445016" lon="-4.3383329"><ele>44.5</ele><time>2026-05-02T09:17:17.962Z</time></trkpt><trkpt lat="43.3444068" lon="-4.3382095"><ele>46.0</ele><time>2026-05-02T09:17:18.964Z</time></trkpt><trkpt lat="43.3443312" lon="-4.3380546"><ele>47.5</ele><time>2026-05-02T09:17:19.959Z</time></trkpt><trkpt lat="43.3442623" lon="-4.3378802"><ele>49.0</ele><time>2026-05-02T09:17:20.961Z</time></trkpt><trkpt lat="43.3441959" lon="-4.337699"><ele>49.0</ele><time>2026-05-02T09:17:21.958Z</time></trkpt><trkpt lat="43.3441264" lon="-4.3375236"><ele>49.0</ele><time>2026-05-02T09:17:22.96Z</time></trkpt><trkpt lat="43.3440442" lon="-4.3373594"><ele>49.0</ele><time>2026-05-02T09:17:23.951Z</time></trkpt><trkpt lat="43.3439623" lon="-4.3372069"><ele>49.0</ele><time>2026-05-02T09:17:24.959Z</time></trkpt><trkpt lat="43.3438602" lon="-4.3370751"><ele>50.5</ele><time>2026-05-02T09:17:25.954Z</time></trkpt><trkpt lat="43.3437493" lon="-4.3369607"><ele>52.0</ele><time>2026-05-02T09:17:26.961Z</time></trkpt><trkpt lat="43.3436267" lon="-4.336866"><ele>53.5</ele><time>2026-05-02T09:17:27.959Z</time></trkpt><trkpt lat="43.3435079" lon="-4.3367765"><ele>55.0</ele><time>2026-05-02T09:17:28.962Z</time></trkpt><trkpt lat="43.3433816" lon="-4.3366915"><ele>55.0</ele><time>2026-05-02T09:17:29.96Z</time></trkpt><trkpt lat="43.3432537" lon="-4.3366079"><ele>55.0</ele><time>2026-05-02T09:17:30.961Z</time></trkpt><trkpt lat="43.3431216" lon="-4.3365183"><ele>55.0</ele><time>2026-05-02T09:17:31.958Z</time></trkpt><trkpt lat="43.3429896" lon="-4.3364263"><ele>55.0</ele><time>2026-05-02T09:17:32.959Z</time></trkpt><trkpt lat="43.3428559" lon="-4.3363345"><ele>53.666666666666664</ele><time>2026-05-02T09:17:33.96Z</time></trkpt><trkpt lat="43.3427155" lon="-4.3362357"><ele>52.33333333333333</ele><time>2026-05-02T09:17:34.958Z</time></trkpt><trkpt lat="43.3425829" lon="-4.336146"><ele>51.0</ele><time>2026-05-02T09:17:35.959Z</time></trkpt><trkpt lat="43.3424471" lon="-4.336055"><ele>51.0</ele><time>2026-05-02T09:17:36.96Z</time></trkpt><trkpt lat="43.3423203" lon="-4.3359659"><ele>51.0</ele><time>2026-05-02T09:17:37.963Z</time></trkpt><trkpt lat="43.3421779" lon="-4.3358919"><ele>51.0</ele><time>2026-05-02T09:17:38.956Z</time></trkpt><trkpt lat="43.3420392" lon="-4.3358092"><ele>51.0</ele><time>2026-05-02T09:17:39.97Z</time></trkpt><trkpt lat="43.3419159" lon="-4.3357247"><ele>51.33333333333333</ele><time>2026-05-02T09:17:40.957Z</time></trkpt><trkpt lat="43.341779" lon="-4.3356432"><ele>51.666666666666664</ele><time>2026-05-02T09:17:41.963Z</time></trkpt><trkpt lat="43.3416365" lon="-4.3355619"><ele>52.0</ele><time>2026-05-02T09:17:42.967Z</time></trkpt><trkpt lat="43.3414913" lon="-4.3354887"><ele>52.0</ele><time>2026-05-02T09:17:43.964Z</time></trkpt><trkpt lat="43.3413506" lon="-4.3354095"><ele>52.0</ele><time>2026-05-02T09:17:44.963Z</time></trkpt><trkpt lat="43.3412109" lon="-4.3353342"><ele>52.0</ele><time>2026-05-02T09:17:45.966Z</time></trkpt><trkpt lat="43.3410653" lon="-4.3352725"><ele>52.0</ele><time>2026-05-02T09:17:46.965Z</time></trkpt><trkpt lat="43.3409195" lon="-4.3352056"><ele>52.0</ele><time>2026-05-02T09:17:47.963Z</time></trkpt><trkpt lat="43.3407768" lon="-4.3351464"><ele>52.0</ele><time>2026-05-02T09:17:48.965Z</time></trkpt><trkpt lat="43.3406229" lon="-4.3351083"><ele>51.33333333333333</ele><time>2026-05-02T09:17:49.958Z</time></trkpt><trkpt lat="43.3404749" lon="-4.3350959"><ele>50.66666666666667</ele><time>2026-05-02T09:17:50.959Z</time></trkpt><trkpt lat="43.3403228" lon="-4.3350933"><ele>50.0</ele><time>2026-05-02T09:17:51.955Z</time></trkpt><trkpt lat="43.3401708" lon="-4.335122"><ele>50.0</ele><time>2026-05-02T09:17:52.978Z</time></trkpt><trkpt lat="43.3400283" lon="-4.3351914"><ele>50.0</ele><time>2026-05-02T09:17:53.964Z</time></trkpt><trkpt lat="43.3398941" lon="-4.3352947"><ele>50.0</ele><time>2026-05-02T09:17:54.964Z</time></trkpt><trkpt lat="43.3397649" lon="-4.3354138"><ele>52.0</ele><time>2026-05-02T09:17:55.964Z</time></trkpt><trkpt lat="43.3396361" lon="-4.3355509"><ele>54.0</ele><time>2026-05-02T09:17:56.96Z</time></trkpt><trkpt lat="43.3395034" lon="-4.3356872"><ele>56.0</ele><time>2026-05-02T09:17:57.962Z</time></trkpt><trkpt lat="43.3393639" lon="-4.3358289"><ele>56.0</ele><time>2026-05-02T09:17:58.961Z</time></trkpt><trkpt lat="43.339231" lon="-4.335957"><ele>56.0</ele><time>2026-05-02T09:17:59.966Z</time></trkpt><trkpt lat="43.3390804" lon="-4.3360799"><ele>56.0</ele><time>2026-05-02T09:18:00.964Z</time></trkpt><trkpt lat="43.3389361" lon="-4.3361769"><ele>59.333333333333336</ele><time>2026-05-02T09:18:01.959Z</time></trkpt><trkpt lat="43.338788" lon="-4.3362303"><ele>62.66666666666667</ele><time>2026-05-02T09:18:02.963Z</time></trkpt><trkpt lat="43.3386384" lon="-4.3362248"><ele>66.0</ele><time>2026-05-02T09:18:03.966Z</time></trkpt><trkpt lat="43.338487" lon="-4.3361742"><ele>66.0</ele><time>2026-05-02T09:18:04.963Z</time></trkpt><trkpt lat="43.3383268" lon="-4.3361236"><ele>66.0</ele><time>2026-05-02T09:18:05.959Z</time></trkpt><trkpt lat="43.3381706" lon="-4.3360652"><ele>66.0</ele><time>2026-05-02T09:18:06.96Z</time></trkpt><trkpt lat="43.3380203" lon="-4.3359911"><ele>66.66666666666667</ele><time>2026-05-02T09:18:07.962Z</time></trkpt><trkpt lat="43.3378582" lon="-4.3359202"><ele>67.33333333333334</ele><time>2026-05-02T09:18:08.958Z</time></trkpt><trkpt lat="43.3377092" lon="-4.3358513"><ele>68.0</ele><time>2026-05-02T09:18:09.957Z</time></trkpt><trkpt lat="43.3375556" lon="-4.3357738"><ele>68.0</ele><time>2026-05-02T09:18:10.971Z</time></trkpt><trkpt lat="43.3374002" lon="-4.3357037"><ele>68.0</ele><time>2026-05-02T09:18:11.955Z</time></trkpt><trkpt lat="43.337249" lon="-4.3356355"><ele>68.0</ele><time>2026-05-02T09:18:12.957Z</time></trkpt><trkpt lat="43.3370969" lon="-4.3355731"><ele>68.66666666666667</ele><time>2026-05-02T09:18:13.959Z</time></trkpt><trkpt lat="43.3369396" lon="-4.335517"><ele>69.33333333333333</ele><time>2026-05-02T09:18:14.957Z</time></trkpt><trkpt lat="43.3367863" lon="-4.3354771"><ele>70.0</ele><time>2026-05-02T09:18:15.959Z</time></trkpt><trkpt lat="43.3366285" lon="-4.3354607"><ele>70.0</ele><time>2026-05-02T09:18:16.958Z</time></trkpt><trkpt lat="43.3364737" lon="-4.3354855"><ele>70.0</ele><time>2026-05-02T09:18:17.955Z</time></trkpt><trkpt lat="43.3363247" lon="-4.3355465"><ele>70.0</ele><time>2026-05-02T09:18:18.957Z</time></trkpt><trkpt lat="43.3361784" lon="-4.3356398"><ele>70.0</ele><time>2026-05-02T09:18:19.961Z</time></trkpt><trkpt lat="43.3360332" lon="-4.3357393"><ele>70.0</ele><time>2026-05-02T09:18:20.963Z</time></trkpt><trkpt lat="43.3358899" lon="-4.3358493"><ele>70.0</ele><time>2026-05-02T09:18:21.958Z</time></trkpt><trkpt lat="43.3357513" lon="-4.3359573"><ele>70.0</ele><time>2026-05-02T09:18:22.969Z</time></trkpt><trkpt lat="43.3356034" lon="-4.3360478"><ele>70.0</ele><time>2026-05-02T09:18:23.967Z</time></trkpt><trkpt lat="43.3354525" lon="-4.3361125"><ele>70.0</ele><time>2026-05-02T09:18:24.969Z</time></trkpt><trkpt lat="43.3352979" lon="-4.3361564"><ele>72.0</ele><time>2026-05-02T09:18:25.968Z</time></trkpt><trkpt lat="43.3351512" lon="-4.33616"><ele>74.0</ele><time>2026-05-02T09:18:26.965Z</time></trkpt><trkpt lat="43.3350113" lon="-4.3361478"><ele>76.0</ele><time>2026-05-02T09:18:27.961Z</time></trkpt><trkpt lat="43.3348627" lon="-4.3360961"><ele>78.0</ele><time>2026-05-02T09:18:28.956Z</time></trkpt><trkpt lat="43.3347146" lon="-4.3360288"><ele>78.25</ele><time>2026-05-02T09:18:29.966Z</time></trkpt><trkpt lat="43.3345885" lon="-4.3359371"><ele>78.5</ele><time>2026-05-02T09:18:30.964Z</time></trkpt><trkpt lat="43.3344672" lon="-4.3358265"><ele>78.75</ele><time>2026-05-02T09:18:31.962Z</time></trkpt><trkpt lat="43.3343656" lon="-4.3356813"><ele>79.0</ele><time>2026-05-02T09:18:32.964Z</time></trkpt><trkpt lat="43.3342695" lon="-4.3355139"><ele>81.0</ele><time>2026-05-02T09:18:33.962Z</time></trkpt><trkpt lat="43.3341749" lon="-4.3353408"><ele>83.0</ele><time>2026-05-02T09:18:34.963Z</time></trkpt><trkpt lat="43.3340898" lon="-4.335177"><ele>85.0</ele><time>2026-05-02T09:18:35.96Z</time></trkpt><trkpt lat="43.3340017" lon="-4.3350157"><ele>85.0</ele><time>2026-05-02T09:18:36.958Z</time></trkpt><trkpt lat="43.3339168" lon="-4.3348538"><ele>85.0</ele><time>2026-05-02T09:18:37.959Z</time></trkpt><trkpt lat="43.3338314" lon="-4.3346982"><ele>85.0</ele><time>2026-05-02T09:18:38.96Z</time></trkpt><trkpt lat="43.3337397" lon="-4.3345322"><ele>85.0</ele><time>2026-05-02T09:18:39.956Z</time></trkpt><trkpt lat="43.3336487" lon="-4.334376"><ele>84.0</ele><time>2026-05-02T09:18:40.961Z</time></trkpt><trkpt lat="43.3335441" lon="-4.3342167"><ele>83.0</ele><time>2026-05-02T09:18:41.99Z</time></trkpt><trkpt lat="43.3334369" lon="-4.3340647"><ele>82.0</ele><time>2026-05-02T09:18:42.964Z</time></trkpt><trkpt lat="43.3333272" lon="-4.333926"><ele>83.25</ele><time>2026-05-02T09:18:43.966Z</time></trkpt><trkpt lat="43.3332118" lon="-4.3337957"><ele>84.5</ele><time>2026-05-02T09:18:44.967Z</time></trkpt><trkpt lat="43.3330975" lon="-4.3336782"><ele>85.75</ele><time>2026-05-02T09:18:45.968Z</time></trkpt><trkpt lat="43.3329782" lon="-4.333563"><ele>87.0</ele><time>2026-05-02T09:18:46.965Z</time></trkpt><trkpt lat="43.3328548" lon="-4.3334578"><ele>87.0</ele><time>2026-05-02T09:18:47.96Z</time></trkpt><trkpt lat="43.3327367" lon="-4.333363"><ele>87.0</ele><time>2026-05-02T09:18:48.964Z</time></trkpt><trkpt lat="43.3326086" lon="-4.3332722"><ele>87.0</ele><time>2026-05-02T09:18:49.967Z</time></trkpt><trkpt lat="43.3324681" lon="-4.3331843"><ele>87.0</ele><time>2026-05-02T09:18:50.966Z</time></trkpt><trkpt lat="43.3323312" lon="-4.3330975"><ele>88.75</ele><time>2026-05-02T09:18:51.966Z</time></trkpt><trkpt lat="43.3321895" lon="-4.3330174"><ele>90.5</ele><time>2026-05-02T09:18:52.966Z</time></trkpt><trkpt lat="43.3320605" lon="-4.3329321"><ele>92.25</ele><time>2026-05-02T09:18:53.966Z</time></trkpt><trkpt lat="43.3319414" lon="-4.3328395"><ele>94.0</ele><time>2026-05-02T09:18:54.968Z</time></trkpt><trkpt lat="43.331827" lon="-4.3327362"><ele>94.0</ele><time>2026-05-02T09:18:55.968Z</time></trkpt><trkpt lat="43.3317169" lon="-4.3326184"><ele>94.0</ele><time>2026-05-02T09:18:56.966Z</time></trkpt><trkpt lat="43.3316221" lon="-4.3324878"><ele>94.0</ele><time>2026-05-02T09:18:57.966Z</time></trkpt><trkpt lat="43.3315283" lon="-4.3323465"><ele>94.0</ele><time>2026-05-02T09:18:58.969Z</time></trkpt><trkpt lat="43.3314555" lon="-4.3321891"><ele>96.0</ele><time>2026-05-02T09:18:59.967Z</time></trkpt><trkpt lat="43.3313866" lon="-4.3320211"><ele>98.0</ele><time>2026-05-02T09:19:00.971Z</time></trkpt><trkpt lat="43.3313298" lon="-4.3318392"><ele>100.0</ele><time>2026-05-02T09:19:01.968Z</time></trkpt><trkpt lat="43.331287" lon="-4.3316547"><ele>102.0</ele><time>2026-05-02T09:19:02.965Z</time></trkpt><trkpt lat="43.33125" lon="-4.3314656"><ele>102.5</ele><time>2026-05-02T09:19:03.966Z</time></trkpt><trkpt lat="43.3312151" lon="-4.331268"><ele>103.0</ele><time>2026-05-02T09:19:04.968Z</time></trkpt><trkpt lat="43.3311764" lon="-4.3310766"><ele>103.5</ele><time>2026-05-02T09:19:05.967Z</time></trkpt><trkpt lat="43.3311344" lon="-4.3308852"><ele>104.0</ele><time>2026-05-02T09:19:06.974Z</time></trkpt><trkpt lat="43.3310807" lon="-4.3306839"><ele>105.0</ele><time>2026-05-02T09:19:07.976Z</time></trkpt><trkpt lat="43.331022" lon="-4.3304946"><ele>106.0</ele><time>2026-05-02T09:19:08.976Z</time></trkpt><trkpt lat="43.3309635" lon="-4.3303034"><ele>107.0</ele><time>2026-05-02T09:19:09.977Z</time></trkpt><trkpt lat="43.3308998" lon="-4.3301146"><ele>107.0</ele><time>2026-05-02T09:19:10.974Z</time></trkpt><trkpt lat="43.3308373" lon="-4.3299415"><ele>107.0</ele><time>2026-05-02T09:19:11.989Z</time></trkpt><trkpt lat="43.3307623" lon="-4.3297705"><ele>107.0</ele><time>2026-05-02T09:19:12.973Z</time></trkpt><trkpt lat="43.3306916" lon="-4.3296083"><ele>107.0</ele><time>2026-05-02T09:19:13.974Z</time></trkpt><trkpt lat="43.3306229" lon="-4.3294438"><ele>106.75</ele><time>2026-05-02T09:19:14.971Z</time></trkpt><trkpt lat="43.3305512" lon="-4.3292874"><ele>106.5</ele><time>2026-05-02T09:19:15.974Z</time></trkpt><trkpt lat="43.3304835" lon="-4.3291259"><ele>106.25</ele><time>2026-05-02T09:19:16.975Z</time></trkpt><trkpt lat="43.3304208" lon="-4.3289707"><ele>106.0</ele><time>2026-05-02T09:19:17.972Z</time></trkpt><trkpt lat="43.330357" lon="-4.3288165"><ele>106.0</ele><time>2026-05-02T09:19:18.971Z</time></trkpt><trkpt lat="43.3302957" lon="-4.3286708"><ele>106.0</ele><time>2026-05-02T09:19:19.971Z</time></trkpt><trkpt lat="43.3302347" lon="-4.3285288"><ele>106.0</ele><time>2026-05-02T09:19:20.97Z</time></trkpt><trkpt lat="43.3301732" lon="-4.3283814"><ele>106.0</ele><time>2026-05-02T09:19:21.97Z</time></trkpt><trkpt lat="43.3301093" lon="-4.3282267"><ele>106.0</ele><time>2026-05-02T09:19:22.97Z</time></trkpt><trkpt lat="43.3300412" lon="-4.3280836"><ele>106.0</ele><time>2026-05-02T09:19:23.968Z</time></trkpt><trkpt lat="43.3299789" lon="-4.3279371"><ele>106.0</ele><time>2026-05-02T09:19:24.973Z</time></trkpt><trkpt lat="43.3299204" lon="-4.3277905"><ele>106.0</ele><time>2026-05-02T09:19:25.967Z</time></trkpt><trkpt lat="43.329857" lon="-4.3276439"><ele>107.0</ele><time>2026-05-02T09:19:26.968Z</time></trkpt><trkpt lat="43.3297911" lon="-4.3275004"><ele>108.0</ele><time>2026-05-02T09:19:27.964Z</time></trkpt><trkpt lat="43.3297254" lon="-4.3273546"><ele>109.0</ele><time>2026-05-02T09:19:28.963Z</time></trkpt><trkpt lat="43.3296593" lon="-4.3272072"><ele>110.0</ele><time>2026-05-02T09:19:29.964Z</time></trkpt><trkpt lat="43.3295956" lon="-4.3270575"><ele>110.0</ele><time>2026-05-02T09:19:30.963Z</time></trkpt><trkpt lat="43.3295297" lon="-4.3269076"><ele>110.0</ele><time>2026-05-02T09:19:31.964Z</time></trkpt><trkpt lat="43.3294597" lon="-4.3267594"><ele>110.0</ele><time>2026-05-02T09:19:32.963Z</time></trkpt><trkpt lat="43.3293849" lon="-4.326612"><ele>110.0</ele><time>2026-05-02T09:19:33.965Z</time></trkpt><trkpt lat="43.3293094" lon="-4.3264628"><ele>113.0</ele><time>2026-05-02T09:19:34.96Z</time></trkpt><trkpt lat="43.3292328" lon="-4.3263137"><ele>116.0</ele><time>2026-05-02T09:19:35.96Z</time></trkpt><trkpt lat="43.3291461" lon="-4.3261702"><ele>119.0</ele><time>2026-05-02T09:19:36.96Z</time></trkpt><trkpt lat="43.3290606" lon="-4.326028"><ele>122.0</ele><time>2026-05-02T09:19:37.962Z</time></trkpt><trkpt lat="43.3289666" lon="-4.3258894"><ele>120.0</ele><time>2026-05-02T09:19:38.962Z</time></trkpt><trkpt lat="43.3288622" lon="-4.325754"><ele>118.0</ele><time>2026-05-02T09:19:39.964Z</time></trkpt><trkpt lat="43.3287578" lon="-4.3256273"><ele>116.0</ele><time>2026-05-02T09:19:40.961Z</time></trkpt><trkpt lat="43.3286492" lon="-4.3255025"><ele>114.0</ele><time>2026-05-02T09:19:41.967Z</time></trkpt><trkpt lat="43.3285375" lon="-4.3253785"><ele>114.0</ele><time>2026-05-02T09:19:42.974Z</time></trkpt><trkpt lat="43.3284324" lon="-4.3252503"><ele>114.0</ele><time>2026-05-02T09:19:43.964Z</time></trkpt><trkpt lat="43.3283181" lon="-4.3251315"><ele>114.0</ele><time>2026-05-02T09:19:44.965Z</time></trkpt><trkpt lat="43.3282123" lon="-4.3250004"><ele>114.0</ele><time>2026-05-02T09:19:45.971Z</time></trkpt><trkpt lat="43.3280977" lon="-4.3248712"><ele>113.25</ele><time>2026-05-02T09:19:46.981Z</time></trkpt><trkpt lat="43.3279879" lon="-4.3247406"><ele>112.5</ele><time>2026-05-02T09:19:47.975Z</time></trkpt><trkpt lat="43.3278808" lon="-4.3246132"><ele>111.75</ele><time>2026-05-02T09:19:48.97Z</time></trkpt><trkpt lat="43.3277729" lon="-4.3244877"><ele>111.0</ele><time>2026-05-02T09:19:49.971Z</time></trkpt><trkpt lat="43.3276675" lon="-4.3243683"><ele>111.0</ele><time>2026-05-02T09:19:50.967Z</time></trkpt><trkpt lat="43.3275632" lon="-4.3242568"><ele>111.0</ele><time>2026-05-02T09:19:51.969Z</time></trkpt><trkpt lat="43.3274678" lon="-4.3241398"><ele>111.0</ele><time>2026-05-02T09:19:52.973Z</time></trkpt><trkpt lat="43.3273814" lon="-4.3240236"><ele>111.0</ele><time>2026-05-02T09:19:53.97Z</time></trkpt><trkpt lat="43.3273028" lon="-4.3238942"><ele>112.5</ele><time>2026-05-02T09:19:54.972Z</time></trkpt><trkpt lat="43.3272322" lon="-4.3237442"><ele>114.0</ele><time>2026-05-02T09:19:55.974Z</time></trkpt><trkpt lat="43.3271763" lon="-4.3235838"><ele>115.5</ele><time>2026-05-02T09:19:56.966Z</time></trkpt><trkpt lat="43.3271346" lon="-4.3234056"><ele>117.0</ele><time>2026-05-02T09:19:57.97Z</time></trkpt><trkpt lat="43.3270915" lon="-4.323229"><ele>113.25</ele><time>2026-05-02T09:19:58.968Z</time></trkpt><trkpt lat="43.3270493" lon="-4.323045"><ele>109.5</ele><time>2026-05-02T09:19:59.971Z</time></trkpt><trkpt lat="43.3270101" lon="-4.3228477"><ele>105.75</ele><time>2026-05-02T09:20:00.967Z</time></trkpt><trkpt lat="43.326969" lon="-4.3226593"><ele>102.0</ele><time>2026-05-02T09:20:01.968Z</time></trkpt><trkpt lat="43.3269279" lon="-4.3224638"><ele>102.0</ele><time>2026-05-02T09:20:02.965Z</time></trkpt><trkpt lat="43.3268911" lon="-4.3222756"><ele>102.0</ele><time>2026-05-02T09:20:03.971Z</time></trkpt><trkpt lat="43.3268612" lon="-4.3221064"><ele>102.0</ele><time>2026-05-02T09:20:04.953Z</time></trkpt><trkpt lat="43.3268286" lon="-4.321944"><ele>102.0</ele><time>2026-05-02T09:20:05.967Z</time></trkpt><trkpt lat="43.3267936" lon="-4.3217938"><ele>103.8</ele><time>2026-05-02T09:20:06.963Z</time></trkpt><trkpt lat="43.3267594" lon="-4.3216517"><ele>105.6</ele><time>2026-05-02T09:20:07.962Z</time></trkpt><trkpt lat="43.3267164" lon="-4.3215112"><ele>107.39999999999999</ele><time>2026-05-02T09:20:08.963Z</time></trkpt><trkpt lat="43.3266623" lon="-4.3213755"><ele>109.19999999999999</ele><time>2026-05-02T09:20:09.959Z</time></trkpt><trkpt lat="43.3266022" lon="-4.32124"><ele>111.0</ele><time>2026-05-02T09:20:10.956Z</time></trkpt><trkpt lat="43.3265305" lon="-4.3211227"><ele>114.5</ele><time>2026-05-02T09:20:11.956Z</time></trkpt><trkpt lat="43.3264433" lon="-4.3210172"><ele>118.0</ele><time>2026-05-02T09:20:12.956Z</time></trkpt><trkpt lat="43.3263461" lon="-4.3209286"><ele>121.5</ele><time>2026-05-02T09:20:13.974Z</time></trkpt><trkpt lat="43.326235" lon="-4.3208601"><ele>125.0</ele><time>2026-05-02T09:20:14.956Z</time></trkpt><trkpt lat="43.3261093" lon="-4.3208144"><ele>125.0</ele><time>2026-05-02T09:20:15.956Z</time></trkpt><trkpt lat="43.3259837" lon="-4.3208077"><ele>125.0</ele><time>2026-05-02T09:20:16.958Z</time></trkpt><trkpt lat="43.3258652" lon="-4.3208251"><ele>125.0</ele><time>2026-05-02T09:20:17.953Z</time></trkpt><trkpt lat="43.3257433" lon="-4.3208645"><ele>125.0</ele><time>2026-05-02T09:20:18.951Z</time></trkpt><trkpt lat="43.3256331" lon="-4.3209348"><ele>125.5</ele><time>2026-05-02T09:20:19.955Z</time></trkpt><trkpt lat="43.3255323" lon="-4.3210325"><ele>126.0</ele><time>2026-05-02T09:20:20.952Z</time></trkpt><trkpt lat="43.3254326" lon="-4.3211429"><ele>126.5</ele><time>2026-05-02T09:20:21.953Z</time></trkpt><trkpt lat="43.3253359" lon="-4.3212591"><ele>127.0</ele><time>2026-05-02T09:20:22.963Z</time></trkpt><trkpt lat="43.32524" lon="-4.32138"><ele>122.5</ele><time>2026-05-02T09:20:23.96Z</time></trkpt><trkpt lat="43.3251403" lon="-4.3214935"><ele>118.0</ele><time>2026-05-02T09:20:24.965Z</time></trkpt><trkpt lat="43.3250333" lon="-4.3215932"><ele>113.5</ele><time>2026-05-02T09:20:25.964Z</time></trkpt><trkpt lat="43.3249217" lon="-4.3216657"><ele>109.0</ele><time>2026-05-02T09:20:26.974Z</time></trkpt><trkpt lat="43.3247994" lon="-4.3217047"><ele>107.25</ele><time>2026-05-02T09:20:27.97Z</time></trkpt><trkpt lat="43.3246733" lon="-4.3217171"><ele>105.5</ele><time>2026-05-02T09:20:28.957Z</time></trkpt><trkpt lat="43.3245463" lon="-4.3217007"><ele>103.75</ele><time>2026-05-02T09:20:29.966Z</time></trkpt><trkpt lat="43.3244245" lon="-4.3216475"><ele>102.0</ele><time>2026-05-02T09:20:30.962Z</time></trkpt><trkpt lat="43.3243055" lon="-4.3215691"><ele>102.0</ele><time>2026-05-02T09:20:31.962Z</time></trkpt><trkpt lat="43.3241879" lon="-4.3214626"><ele>102.0</ele><time>2026-05-02T09:20:32.958Z</time></trkpt><trkpt lat="43.3240755" lon="-4.3213423"><ele>102.0</ele><time>2026-05-02T09:20:33.961Z</time></trkpt><trkpt lat="43.323968" lon="-4.3211941"><ele>102.0</ele><time>2026-05-02T09:20:34.959Z</time></trkpt><trkpt lat="43.3238584" lon="-4.3210463"><ele>100.33333333333334</ele><time>2026-05-02T09:20:35.957Z</time></trkpt><trkpt lat="43.323748" lon="-4.3209008"><ele>98.66666666666667</ele><time>2026-05-02T09:20:36.962Z</time></trkpt><trkpt lat="43.3236387" lon="-4.3207663"><ele>97.0</ele><time>2026-05-02T09:20:37.964Z</time></trkpt><trkpt lat="43.3235164" lon="-4.3206315"><ele>102.33333333333334</ele><time>2026-05-02T09:20:38.965Z</time></trkpt><trkpt lat="43.3234093" lon="-4.3204887"><ele>107.66666666666666</ele><time>2026-05-02T09:20:39.964Z</time></trkpt><trkpt lat="43.3232978" lon="-4.3203415"><ele>113.0</ele><time>2026-05-02T09:20:40.963Z</time></trkpt><trkpt lat="43.32319" lon="-4.3201896"><ele>113.0</ele><time>2026-05-02T09:20:41.964Z</time></trkpt><trkpt lat="43.3230805" lon="-4.3200472"><ele>113.0</ele><time>2026-05-02T09:20:42.963Z</time></trkpt><trkpt lat="43.322969" lon="-4.3198996"><ele>113.0</ele><time>2026-05-02T09:20:43.958Z</time></trkpt><trkpt lat="43.3228539" lon="-4.3197526"><ele>108.0</ele><time>2026-05-02T09:20:44.975Z</time></trkpt><trkpt lat="43.3227348" lon="-4.3195999"><ele>103.0</ele><time>2026-05-02T09:20:45.959Z</time></trkpt><trkpt lat="43.3226178" lon="-4.3194411"><ele>98.0</ele><time>2026-05-02T09:20:46.962Z</time></trkpt><trkpt lat="43.3225029" lon="-4.3192823"><ele>98.0</ele><time>2026-05-02T09:20:47.958Z</time></trkpt><trkpt lat="43.3223958" lon="-4.319129"><ele>98.0</ele><time>2026-05-02T09:20:48.961Z</time></trkpt><trkpt lat="43.3222879" lon="-4.318987"><ele>98.0</ele><time>2026-05-02T09:20:49.952Z</time></trkpt><trkpt lat="43.3221816" lon="-4.3188391"><ele>94.75</ele><time>2026-05-02T09:20:50.954Z</time></trkpt><trkpt lat="43.3220786" lon="-4.3186882"><ele>91.5</ele><time>2026-05-02T09:20:51.951Z</time></trkpt><trkpt lat="43.3219893" lon="-4.3185219"><ele>88.25</ele><time>2026-05-02T09:20:52.96Z</time></trkpt><trkpt lat="43.3219009" lon="-4.3183593"><ele>85.0</ele><time>2026-05-02T09:20:53.957Z</time></trkpt><trkpt lat="43.3218297" lon="-4.3181925"><ele>86.66666666666666</ele><time>2026-05-02T09:20:54.96Z</time></trkpt><trkpt lat="43.3217584" lon="-4.3180175"><ele>88.33333333333333</ele><time>2026-05-02T09:20:55.958Z</time></trkpt><trkpt lat="43.321692" lon="-4.3178345"><ele>90.0</ele><time>2026-05-02T09:20:56.96Z</time></trkpt><trkpt lat="43.3216322" lon="-4.3176362"><ele>90.0</ele><time>2026-05-02T09:20:57.957Z</time></trkpt><trkpt lat="43.321589" lon="-4.3174378"><ele>90.0</ele><time>2026-05-02T09:20:58.956Z</time></trkpt><trkpt lat="43.3215536" lon="-4.3172282"><ele>90.0</ele><time>2026-05-02T09:20:59.955Z</time></trkpt><trkpt lat="43.3215267" lon="-4.317015"><ele>91.0</ele><time>2026-05-02T09:21:00.955Z</time></trkpt><trkpt lat="43.3215168" lon="-4.3167964"><ele>92.0</ele><time>2026-05-02T09:21:01.955Z</time></trkpt><trkpt lat="43.3215119" lon="-4.3165719"><ele>93.0</ele><time>2026-05-02T09:21:02.955Z</time></trkpt><trkpt lat="43.3215183" lon="-4.3163387"><ele>95.33333333333334</ele><time>2026-05-02T09:21:03.956Z</time></trkpt><trkpt lat="43.3215218" lon="-4.3161083"><ele>97.66666666666667</ele><time>2026-05-02T09:21:04.953Z</time></trkpt><trkpt lat="43.3215192" lon="-4.3158831"><ele>100.0</ele><time>2026-05-02T09:21:05.955Z</time></trkpt><trkpt lat="43.3215104" lon="-4.3156598"><ele>101.0</ele><time>2026-05-02T09:21:06.953Z</time></trkpt><trkpt lat="43.3215035" lon="-4.3154292"><ele>102.0</ele><time>2026-05-02T09:21:07.955Z</time></trkpt><trkpt lat="43.3214842" lon="-4.3152016"><ele>103.0</ele><time>2026-05-02T09:21:08.955Z</time></trkpt><trkpt lat="43.3214684" lon="-4.3149768"><ele>103.0</ele><time>2026-05-02T09:21:09.956Z</time></trkpt><trkpt lat="43.3214395" lon="-4.3147531"><ele>103.0</ele><time>2026-05-02T09:21:10.957Z</time></trkpt><trkpt lat="43.3214156" lon="-4.314522"><ele>103.0</ele><time>2026-05-02T09:21:11.954Z</time></trkpt><trkpt lat="43.3213828" lon="-4.3142923"><ele>96.33333333333334</ele><time>2026-05-02T09:21:12.956Z</time></trkpt><trkpt lat="43.321349" lon="-4.3140664"><ele>89.66666666666667</ele><time>2026-05-02T09:21:13.958Z</time></trkpt><trkpt lat="43.3213095" lon="-4.3138505"><ele>83.0</ele><time>2026-05-02T09:21:14.954Z</time></trkpt><trkpt lat="43.3212678" lon="-4.3136427"><ele>83.0</ele><time>2026-05-02T09:21:15.97Z</time></trkpt><trkpt lat="43.3212193" lon="-4.3134393"><ele>83.0</ele><time>2026-05-02T09:21:16.959Z</time></trkpt><trkpt lat="43.3211642" lon="-4.3132362"><ele>83.0</ele><time>2026-05-02T09:21:17.954Z</time></trkpt><trkpt lat="43.3211013" lon="-4.3130342"><ele>83.5</ele><time>2026-05-02T09:21:18.957Z</time></trkpt><trkpt lat="43.321039" lon="-4.312848"><ele>84.0</ele><time>2026-05-02T09:21:19.959Z</time></trkpt><trkpt lat="43.3209867" lon="-4.3126666"><ele>84.5</ele><time>2026-05-02T09:21:20.956Z</time></trkpt><trkpt lat="43.3209416" lon="-4.3124841"><ele>85.0</ele><time>2026-05-02T09:21:21.957Z</time></trkpt><trkpt lat="43.3209109" lon="-4.3122903"><ele>85.25</ele><time>2026-05-02T09:21:22.955Z</time></trkpt><trkpt lat="43.3208993" lon="-4.3120898"><ele>85.5</ele><time>2026-05-02T09:21:23.949Z</time></trkpt><trkpt lat="43.3209042" lon="-4.3118836"><ele>85.75</ele><time>2026-05-02T09:21:24.96Z</time></trkpt><trkpt lat="43.3209089" lon="-4.311685"><ele>86.0</ele><time>2026-05-02T09:21:25.959Z</time></trkpt><trkpt lat="43.3209201" lon="-4.311478"><ele>85.25</ele><time>2026-05-02T09:21:26.957Z</time></trkpt><trkpt lat="43.3209244" lon="-4.3112763"><ele>84.5</ele><time>2026-05-02T09:21:27.958Z</time></trkpt><trkpt lat="43.3209276" lon="-4.3110726"><ele>83.75</ele><time>2026-05-02T09:21:28.959Z</time></trkpt><trkpt lat="43.3209261" lon="-4.3108717"><ele>83.0</ele><time>2026-05-02T09:21:29.953Z</time></trkpt><trkpt lat="43.3209169" lon="-4.3106621"><ele>82.5</ele><time>2026-05-02T09:21:30.957Z</time></trkpt><trkpt lat="43.3208967" lon="-4.3104563"><ele>82.0</ele><time>2026-05-02T09:21:31.955Z</time></trkpt><trkpt lat="43.3208557" lon="-4.3102636"><ele>81.5</ele><time>2026-05-02T09:21:32.955Z</time></trkpt><trkpt lat="43.3208077" lon="-4.3100805"><ele>81.0</ele><time>2026-05-02T09:21:33.951Z</time></trkpt><trkpt lat="43.3207475" lon="-4.3099084"><ele>81.0</ele><time>2026-05-02T09:21:34.949Z</time></trkpt><trkpt lat="43.3206854" lon="-4.3097516"><ele>81.0</ele><time>2026-05-02T09:21:35.953Z</time></trkpt><trkpt lat="43.3206148" lon="-4.3096088"><ele>81.0</ele><time>2026-05-02T09:21:36.955Z</time></trkpt><trkpt lat="43.3205405" lon="-4.3094758"><ele>81.0</ele><time>2026-05-02T09:21:37.957Z</time></trkpt><trkpt lat="43.3204525" lon="-4.3093447"><ele>80.75</ele><time>2026-05-02T09:21:38.955Z</time></trkpt><trkpt lat="43.320359" lon="-4.3092197"><ele>80.5</ele><time>2026-05-02T09:21:39.955Z</time></trkpt><trkpt lat="43.3202744" lon="-4.3091069"><ele>80.25</ele><time>2026-05-02T09:21:40.954Z</time></trkpt><trkpt lat="43.3201923" lon="-4.3089981"><ele>80.0</ele><time>2026-05-02T09:21:41.955Z</time></trkpt><trkpt lat="43.3201078" lon="-4.3088827"><ele>80.0</ele><time>2026-05-02T09:21:42.957Z</time></trkpt><trkpt lat="43.3200213" lon="-4.3087634"><ele>80.0</ele><time>2026-05-02T09:21:43.959Z</time></trkpt><trkpt lat="43.3199303" lon="-4.3086358"><ele>80.0</ele><time>2026-05-02T09:21:44.957Z</time></trkpt><trkpt lat="43.3198358" lon="-4.3085017"><ele>80.0</ele><time>2026-05-02T09:21:45.956Z</time></trkpt><trkpt lat="43.3197357" lon="-4.308362"><ele>79.75</ele><time>2026-05-02T09:21:46.974Z</time></trkpt><trkpt lat="43.3196341" lon="-4.3082202"><ele>79.5</ele><time>2026-05-02T09:21:47.956Z</time></trkpt><trkpt lat="43.3195295" lon="-4.3080788"><ele>79.25</ele><time>2026-05-02T09:21:48.953Z</time></trkpt><trkpt lat="43.3194219" lon="-4.3079332"><ele>79.0</ele><time>2026-05-02T09:21:49.956Z</time></trkpt><trkpt lat="43.3193161" lon="-4.3077938"><ele>79.66666666666666</ele><time>2026-05-02T09:21:50.962Z</time></trkpt><trkpt lat="43.3192081" lon="-4.3076508"><ele>80.33333333333333</ele><time>2026-05-02T09:21:51.967Z</time></trkpt><trkpt lat="43.3191028" lon="-4.3075045"><ele>81.0</ele><time>2026-05-02T09:21:52.964Z</time></trkpt><trkpt lat="43.3189951" lon="-4.3073577"><ele>81.0</ele><time>2026-05-02T09:21:53.959Z</time></trkpt><trkpt lat="43.3188795" lon="-4.3072113"><ele>81.0</ele><time>2026-05-02T09:21:54.96Z</time></trkpt><trkpt lat="43.318772" lon="-4.3070605"><ele>81.0</ele><time>2026-05-02T09:21:55.96Z</time></trkpt><trkpt lat="43.3186589" lon="-4.3069113"><ele>81.0</ele><time>2026-05-02T09:21:56.964Z</time></trkpt><trkpt lat="43.3185489" lon="-4.3067647"><ele>81.0</ele><time>2026-05-02T09:21:57.965Z</time></trkpt><trkpt lat="43.3184452" lon="-4.3066126"><ele>81.0</ele><time>2026-05-02T09:21:58.969Z</time></trkpt><trkpt lat="43.3183365" lon="-4.306458"><ele>80.66666666666667</ele><time>2026-05-02T09:21:59.973Z</time></trkpt><trkpt lat="43.3182348" lon="-4.3063113"><ele>80.33333333333334</ele><time>2026-05-02T09:22:00.963Z</time></trkpt><trkpt lat="43.3181297" lon="-4.3061539"><ele>80.0</ele><time>2026-05-02T09:22:01.966Z</time></trkpt><trkpt lat="43.3180244" lon="-4.3060002"><ele>80.33333333333334</ele><time>2026-05-02T09:22:02.972Z</time></trkpt><trkpt lat="43.3179137" lon="-4.3058404"><ele>80.66666666666667</ele><time>2026-05-02T09:22:03.966Z</time></trkpt><trkpt lat="43.3178076" lon="-4.3056837"><ele>81.0</ele><time>2026-05-02T09:22:04.963Z</time></trkpt><trkpt lat="43.3177061" lon="-4.3055255"><ele>81.0</ele><time>2026-05-02T09:22:05.964Z</time></trkpt><trkpt lat="43.3176063" lon="-4.3053569"><ele>81.0</ele><time>2026-05-02T09:22:06.961Z</time></trkpt><trkpt lat="43.3175153" lon="-4.3051827"><ele>81.0</ele><time>2026-05-02T09:22:07.963Z</time></trkpt><trkpt lat="43.3174317" lon="-4.3049957"><ele>81.0</ele><time>2026-05-02T09:22:08.958Z</time></trkpt><trkpt lat="43.317348" lon="-4.3048089"><ele>81.0</ele><time>2026-05-02T09:22:09.958Z</time></trkpt><trkpt lat="43.3172722" lon="-4.3046169"><ele>81.0</ele><time>2026-05-02T09:22:10.961Z</time></trkpt><trkpt lat="43.3171998" lon="-4.3044167"><ele>80.66666666666667</ele><time>2026-05-02T09:22:11.964Z</time></trkpt><trkpt lat="43.3171229" lon="-4.304217"><ele>80.33333333333334</ele><time>2026-05-02T09:22:12.959Z</time></trkpt><trkpt lat="43.3170519" lon="-4.3040203"><ele>80.0</ele><time>2026-05-02T09:22:13.966Z</time></trkpt><trkpt lat="43.3169841" lon="-4.3038325"><ele>81.0</ele><time>2026-05-02T09:22:14.962Z</time></trkpt><trkpt lat="43.3169193" lon="-4.3036413"><ele>82.0</ele><time>2026-05-02T09:22:15.96Z</time></trkpt><trkpt lat="43.31685" lon="-4.3034421"><ele>83.0</ele><time>2026-05-02T09:22:16.965Z</time></trkpt><trkpt lat="43.3168001" lon="-4.3032388"><ele>83.33333333333334</ele><time>2026-05-02T09:22:17.981Z</time></trkpt><trkpt lat="43.316754" lon="-4.3030312"><ele>83.66666666666667</ele><time>2026-05-02T09:22:18.964Z</time></trkpt><trkpt lat="43.3167182" lon="-4.3028154"><ele>84.0</ele><time>2026-05-02T09:22:19.963Z</time></trkpt><trkpt lat="43.3166961" lon="-4.3025972"><ele>84.0</ele><time>2026-05-02T09:22:20.966Z</time></trkpt><trkpt lat="43.3166786" lon="-4.3023784"><ele>84.0</ele><time>2026-05-02T09:22:21.96Z</time></trkpt><trkpt lat="43.3166767" lon="-4.3021538"><ele>84.0</ele><time>2026-05-02T09:22:22.968Z</time></trkpt><trkpt lat="43.3166854" lon="-4.3019365"><ele>85.0</ele><time>2026-05-02T09:22:23.964Z</time></trkpt><trkpt lat="43.3167029" lon="-4.301714"><ele>86.0</ele><time>2026-05-02T09:22:24.969Z</time></trkpt><trkpt lat="43.3167253" lon="-4.3014863"><ele>87.0</ele><time>2026-05-02T09:22:25.973Z</time></trkpt><trkpt lat="43.316751" lon="-4.3012639"><ele>87.0</ele><time>2026-05-02T09:22:26.967Z</time></trkpt><trkpt lat="43.316774" lon="-4.3010335"><ele>87.0</ele><time>2026-05-02T09:22:27.975Z</time></trkpt><trkpt lat="43.3168012" lon="-4.3008104"><ele>87.0</ele><time>2026-05-02T09:22:28.973Z</time></trkpt><trkpt lat="43.3168236" lon="-4.3005921"><ele>88.0</ele><time>2026-05-02T09:22:29.972Z</time></trkpt><trkpt lat="43.3168459" lon="-4.3003656"><ele>89.0</ele><time>2026-05-02T09:22:30.972Z</time></trkpt><trkpt lat="43.3168731" lon="-4.3001414"><ele>90.0</ele><time>2026-05-02T09:22:31.967Z</time></trkpt><trkpt lat="43.3169033" lon="-4.2999231"><ele>90.0</ele><time>2026-05-02T09:22:32.97Z</time></trkpt><trkpt lat="43.3169377" lon="-4.2997065"><ele>90.0</ele><time>2026-05-02T09:22:33.964Z</time></trkpt><trkpt lat="43.3169642" lon="-4.2994785"><ele>90.0</ele><time>2026-05-02T09:22:34.968Z</time></trkpt><trkpt lat="43.3169868" lon="-4.2992577"><ele>90.0</ele><time>2026-05-02T09:22:35.962Z</time></trkpt><trkpt lat="43.3170075" lon="-4.2990298"><ele>90.0</ele><time>2026-05-02T09:22:36.966Z</time></trkpt><trkpt lat="43.3170253" lon="-4.298797"><ele>90.0</ele><time>2026-05-02T09:22:37.964Z</time></trkpt><trkpt lat="43.3170366" lon="-4.2985674"><ele>90.0</ele><time>2026-05-02T09:22:38.96Z</time></trkpt><trkpt lat="43.317054" lon="-4.2983322"><ele>90.0</ele><time>2026-05-02T09:22:39.962Z</time></trkpt><trkpt lat="43.3170679" lon="-4.298098"><ele>90.0</ele><time>2026-05-02T09:22:40.963Z</time></trkpt><trkpt lat="43.3170737" lon="-4.2978633"><ele>90.0</ele><time>2026-05-02T09:22:41.96Z</time></trkpt><trkpt lat="43.3170748" lon="-4.2976173"><ele>90.0</ele><time>2026-05-02T09:22:42.959Z</time></trkpt><trkpt lat="43.3170822" lon="-4.2973838"><ele>90.0</ele><time>2026-05-02T09:22:43.958Z</time></trkpt><trkpt lat="43.3170663" lon="-4.2971432"><ele>91.33333333333333</ele><time>2026-05-02T09:22:44.955Z</time></trkpt><trkpt lat="43.317048" lon="-4.2969275"><ele>92.66666666666666</ele><time>2026-05-02T09:22:45.952Z</time></trkpt><trkpt lat="43.3170208" lon="-4.2967158"><ele>94.0</ele><time>2026-05-02T09:22:46.96Z</time></trkpt><trkpt lat="43.3170009" lon="-4.2965048"><ele>95.0</ele><time>2026-05-02T09:22:47.959Z</time></trkpt><trkpt lat="43.3169869" lon="-4.2962874"><ele>96.0</ele><time>2026-05-02T09:22:48.979Z</time></trkpt><trkpt lat="43.3169725" lon="-4.2960742"><ele>97.0</ele><time>2026-05-02T09:22:49.964Z</time></trkpt><trkpt lat="43.3169612" lon="-4.2958531"><ele>97.0</ele><time>2026-05-02T09:22:50.966Z</time></trkpt><trkpt lat="43.3169436" lon="-4.2956352"><ele>97.0</ele><time>2026-05-02T09:22:51.965Z</time></trkpt><trkpt lat="43.3169282" lon="-4.2954173"><ele>97.0</ele><time>2026-05-02T09:22:52.967Z</time></trkpt><trkpt lat="43.3169171" lon="-4.2952039"><ele>97.66666666666667</ele><time>2026-05-02T09:22:53.963Z</time></trkpt><trkpt lat="43.3169084" lon="-4.2949947"><ele>98.33333333333334</ele><time>2026-05-02T09:22:54.965Z</time></trkpt><trkpt lat="43.3169104" lon="-4.2947829"><ele>99.0</ele><time>2026-05-02T09:22:55.963Z</time></trkpt><trkpt lat="43.3169232" lon="-4.2945707"><ele>99.25</ele><time>2026-05-02T09:22:56.961Z</time></trkpt><trkpt lat="43.3169371" lon="-4.2943697"><ele>99.5</ele><time>2026-05-02T09:22:57.964Z</time></trkpt><trkpt lat="43.3169587" lon="-4.2941725"><ele>99.75</ele><time>2026-05-02T09:22:58.96Z</time></trkpt><trkpt lat="43.3169831" lon="-4.2939756"><ele>100.0</ele><time>2026-05-02T09:22:59.962Z</time></trkpt><trkpt lat="43.3170271" lon="-4.2937857"><ele>100.5</ele><time>2026-05-02T09:23:00.968Z</time></trkpt><trkpt lat="43.3170756" lon="-4.2936069"><ele>101.0</ele><time>2026-05-02T09:23:01.965Z</time></trkpt><trkpt lat="43.3171302" lon="-4.2934333"><ele>101.5</ele><time>2026-05-02T09:23:02.964Z</time></trkpt><trkpt lat="43.3171826" lon="-4.2932611"><ele>102.0</ele><time>2026-05-02T09:23:03.964Z</time></trkpt><trkpt lat="43.317242" lon="-4.2931025"><ele>105.0</ele><time>2026-05-02T09:23:04.966Z</time></trkpt><trkpt lat="43.3173127" lon="-4.2929456"><ele>108.0</ele><time>2026-05-02T09:23:05.966Z</time></trkpt><trkpt lat="43.3173912" lon="-4.2927961"><ele>111.0</ele><time>2026-05-02T09:23:06.97Z</time></trkpt><trkpt lat="43.3174706" lon="-4.2926559"><ele>114.0</ele><time>2026-05-02T09:23:07.969Z</time></trkpt><trkpt lat="43.3175555" lon="-4.2925277"><ele>114.0</ele><time>2026-05-02T09:23:08.966Z</time></trkpt><trkpt lat="43.3176388" lon="-4.2924026"><ele>114.0</ele><time>2026-05-02T09:23:09.964Z</time></trkpt><trkpt lat="43.3177201" lon="-4.292272"><ele>114.0</ele><time>2026-05-02T09:23:10.964Z</time></trkpt><trkpt lat="43.3178018" lon="-4.2921454"><ele>114.0</ele><time>2026-05-02T09:23:11.963Z</time></trkpt><trkpt lat="43.3178819" lon="-4.2920195"><ele>112.75</ele><time>2026-05-02T09:23:12.965Z</time></trkpt><trkpt lat="43.3179578" lon="-4.2918919"><ele>111.5</ele><time>2026-05-02T09:23:13.965Z</time></trkpt><trkpt lat="43.318033" lon="-4.2917697"><ele>110.25</ele><time>2026-05-02T09:23:14.962Z</time></trkpt><trkpt lat="43.3181095" lon="-4.2916526"><ele>109.0</ele><time>2026-05-02T09:23:15.964Z</time></trkpt><trkpt lat="43.318186" lon="-4.2915385"><ele>111.0</ele><time>2026-05-02T09:23:16.965Z</time></trkpt><trkpt lat="43.3182607" lon="-4.2914306"><ele>113.0</ele><time>2026-05-02T09:23:17.958Z</time></trkpt><trkpt lat="43.3183316" lon="-4.2913229"><ele>115.0</ele><time>2026-05-02T09:23:18.958Z</time></trkpt><trkpt lat="43.318397" lon="-4.291209"><ele>117.0</ele><time>2026-05-02T09:23:19.989Z</time></trkpt><trkpt lat="43.318462" lon="-4.2910999"><ele>119.0</ele><time>2026-05-02T09:23:20.96Z</time></trkpt><trkpt lat="43.3185252" lon="-4.2909871"><ele>119.0</ele><time>2026-05-02T09:23:21.959Z</time></trkpt><trkpt lat="43.3185848" lon="-4.2908759"><ele>119.0</ele><time>2026-05-02T09:23:22.968Z</time></trkpt><trkpt lat="43.3186426" lon="-4.2907607"><ele>119.0</ele><time>2026-05-02T09:23:23.963Z</time></trkpt><trkpt lat="43.3186941" lon="-4.2906433"><ele>119.0</ele><time>2026-05-02T09:23:24.962Z</time></trkpt><trkpt lat="43.3187457" lon="-4.2905273"><ele>119.0</ele><time>2026-05-02T09:23:25.962Z</time></trkpt><trkpt lat="43.3188027" lon="-4.2904059"><ele>118.0</ele><time>2026-05-02T09:23:26.957Z</time></trkpt><trkpt lat="43.3188607" lon="-4.2902752"><ele>117.0</ele><time>2026-05-02T09:23:27.962Z</time></trkpt><trkpt lat="43.3189181" lon="-4.2901407"><ele>116.0</ele><time>2026-05-02T09:23:28.961Z</time></trkpt><trkpt lat="43.3189742" lon="-4.2900005"><ele>115.0</ele><time>2026-05-02T09:23:29.962Z</time></trkpt><trkpt lat="43.3190334" lon="-4.2898562"><ele>118.5</ele><time>2026-05-02T09:23:30.959Z</time></trkpt><trkpt lat="43.3190947" lon="-4.2897087"><ele>122.0</ele><time>2026-05-02T09:23:31.961Z</time></trkpt><trkpt lat="43.3191556" lon="-4.289557"><ele>125.5</ele><time>2026-05-02T09:23:32.958Z</time></trkpt><trkpt lat="43.3192157" lon="-4.289404"><ele>129.0</ele><time>2026-05-02T09:23:33.957Z</time></trkpt><trkpt lat="43.3192755" lon="-4.2892371"><ele>129.0</ele><time>2026-05-02T09:23:34.96Z</time></trkpt><trkpt lat="43.3193254" lon="-4.2890704"><ele>129.0</ele><time>2026-05-02T09:23:35.968Z</time></trkpt><trkpt lat="43.3193633" lon="-4.2889039"><ele>129.0</ele><time>2026-05-02T09:23:36.961Z</time></trkpt><trkpt lat="43.3193981" lon="-4.2887319"><ele>129.0</ele><time>2026-05-02T09:23:37.958Z</time></trkpt><trkpt lat="43.3194257" lon="-4.2885546"><ele>129.0</ele><time>2026-05-02T09:23:38.959Z</time></trkpt><trkpt lat="43.3194409" lon="-4.2883732"><ele>129.0</ele><time>2026-05-02T09:23:39.957Z</time></trkpt><trkpt lat="43.3194492" lon="-4.2881892"><ele>129.0</ele><time>2026-05-02T09:23:40.956Z</time></trkpt><trkpt lat="43.3194456" lon="-4.2880065"><ele>129.0</ele><time>2026-05-02T09:23:41.96Z</time></trkpt><trkpt lat="43.3194388" lon="-4.2878233"><ele>129.0</ele><time>2026-05-02T09:23:42.964Z</time></trkpt><trkpt lat="43.3194188" lon="-4.2874379"><ele>129.0</ele><time>2026-05-02T09:23:44.954Z</time></trkpt><trkpt lat="43.3194095" lon="-4.287242"><ele>129.0</ele><time>2026-05-02T09:23:45.956Z</time></trkpt><trkpt lat="43.3193952" lon="-4.287026"><ele>129.75</ele><time>2026-05-02T09:23:46.957Z</time></trkpt><trkpt lat="43.3193885" lon="-4.2868342"><ele>130.5</ele><time>2026-05-02T09:23:47.956Z</time></trkpt><trkpt lat="43.3193891" lon="-4.286642"><ele>131.25</ele><time>2026-05-02T09:23:48.958Z</time></trkpt><trkpt lat="43.3193811" lon="-4.2864381"><ele>132.0</ele><time>2026-05-02T09:23:49.971Z</time></trkpt><trkpt lat="43.319376" lon="-4.2862467"><ele>132.5</ele><time>2026-05-02T09:23:50.956Z</time></trkpt><trkpt lat="43.3193703" lon="-4.2860647"><ele>133.0</ele><time>2026-05-02T09:23:51.961Z</time></trkpt><trkpt lat="43.3193646" lon="-4.2858843"><ele>133.5</ele><time>2026-05-02T09:23:52.964Z</time></trkpt><trkpt lat="43.3193539" lon="-4.2856898"><ele>134.0</ele><time>2026-05-02T09:23:53.958Z</time></trkpt><trkpt lat="43.3193428" lon="-4.2855004"><ele>135.25</ele><time>2026-05-02T09:23:54.961Z</time></trkpt><trkpt lat="43.3193286" lon="-4.2853223"><ele>136.5</ele><time>2026-05-02T09:23:55.961Z</time></trkpt><trkpt lat="43.3193126" lon="-4.2851534"><ele>137.75</ele><time>2026-05-02T09:23:56.959Z</time></trkpt><trkpt lat="43.3193037" lon="-4.2849839"><ele>139.0</ele><time>2026-05-02T09:23:57.955Z</time></trkpt><trkpt lat="43.3192932" lon="-4.2848226"><ele>140.5</ele><time>2026-05-02T09:23:58.959Z</time></trkpt><trkpt lat="43.319289" lon="-4.2846609"><ele>142.0</ele><time>2026-05-02T09:23:59.959Z</time></trkpt><trkpt lat="43.3192808" lon="-4.2845087"><ele>143.5</ele><time>2026-05-02T09:24:00.96Z</time></trkpt><trkpt lat="43.3192744" lon="-4.2843477"><ele>145.0</ele><time>2026-05-02T09:24:01.959Z</time></trkpt><trkpt lat="43.3192686" lon="-4.2841854"><ele>145.0</ele><time>2026-05-02T09:24:02.961Z</time></trkpt><trkpt lat="43.3192612" lon="-4.2840215"><ele>145.0</ele><time>2026-05-02T09:24:03.965Z</time></trkpt><trkpt lat="43.319255" lon="-4.2838577"><ele>145.0</ele><time>2026-05-02T09:24:04.958Z</time></trkpt><trkpt lat="43.319255" lon="-4.2836976"><ele>145.0</ele><time>2026-05-02T09:24:05.959Z</time></trkpt><trkpt lat="43.3192602" lon="-4.2835261"><ele>146.0</ele><time>2026-05-02T09:24:06.96Z</time></trkpt><trkpt lat="43.3192685" lon="-4.283354"><ele>147.0</ele><time>2026-05-02T09:24:07.964Z</time></trkpt><trkpt lat="43.3192758" lon="-4.2831768"><ele>148.0</ele><time>2026-05-02T09:24:08.966Z</time></trkpt><trkpt lat="43.3192865" lon="-4.282994"><ele>149.0</ele><time>2026-05-02T09:24:09.969Z</time></trkpt><trkpt lat="43.3192981" lon="-4.2828117"><ele>150.25</ele><time>2026-05-02T09:24:10.966Z</time></trkpt><trkpt lat="43.3193102" lon="-4.2826331"><ele>151.5</ele><time>2026-05-02T09:24:11.967Z</time></trkpt><trkpt lat="43.3193237" lon="-4.282456"><ele>152.75</ele><time>2026-05-02T09:24:12.967Z</time></trkpt><trkpt lat="43.319334" lon="-4.2822805"><ele>154.0</ele><time>2026-05-02T09:24:13.97Z</time></trkpt><trkpt lat="43.3193424" lon="-4.282107"><ele>155.5</ele><time>2026-05-02T09:24:14.968Z</time></trkpt><trkpt lat="43.3193485" lon="-4.2819297"><ele>157.0</ele><time>2026-05-02T09:24:15.969Z</time></trkpt><trkpt lat="43.3193484" lon="-4.2817591"><ele>158.5</ele><time>2026-05-02T09:24:16.971Z</time></trkpt><trkpt lat="43.3193433" lon="-4.2815868"><ele>160.0</ele><time>2026-05-02T09:24:17.968Z</time></trkpt><trkpt lat="43.3193323" lon="-4.2814194"><ele>161.25</ele><time>2026-05-02T09:24:18.968Z</time></trkpt><trkpt lat="43.3193155" lon="-4.2812553"><ele>162.5</ele><time>2026-05-02T09:24:19.966Z</time></trkpt><trkpt lat="43.3192948" lon="-4.2810893"><ele>163.75</ele><time>2026-05-02T09:24:20.979Z</time></trkpt><trkpt lat="43.3192723" lon="-4.2809247"><ele>165.0</ele><time>2026-05-02T09:24:21.964Z</time></trkpt><trkpt lat="43.3192494" lon="-4.2807609"><ele>165.75</ele><time>2026-05-02T09:24:22.967Z</time></trkpt><trkpt lat="43.3192268" lon="-4.2805957"><ele>166.5</ele><time>2026-05-02T09:24:23.967Z</time></trkpt><trkpt lat="43.3192085" lon="-4.2804288"><ele>167.25</ele><time>2026-05-02T09:24:24.984Z</time></trkpt><trkpt lat="43.3191904" lon="-4.2802644"><ele>168.0</ele><time>2026-05-02T09:24:25.979Z</time></trkpt><trkpt lat="43.3191709" lon="-4.2800961"><ele>168.0</ele><time>2026-05-02T09:24:26.975Z</time></trkpt><trkpt lat="43.3191447" lon="-4.2799247"><ele>168.0</ele><time>2026-05-02T09:24:27.982Z</time></trkpt><trkpt lat="43.3191215" lon="-4.2797528"><ele>168.0</ele><time>2026-05-02T09:24:28.967Z</time></trkpt><trkpt lat="43.3191032" lon="-4.279584"><ele>168.0</ele><time>2026-05-02T09:24:29.981Z</time></trkpt><trkpt lat="43.3190813" lon="-4.2794114"><ele>168.5</ele><time>2026-05-02T09:24:30.974Z</time></trkpt><trkpt lat="43.3190622" lon="-4.2792404"><ele>169.0</ele><time>2026-05-02T09:24:31.974Z</time></trkpt><trkpt lat="43.3190416" lon="-4.2790676"><ele>169.5</ele><time>2026-05-02T09:24:32.971Z</time></trkpt><trkpt lat="43.3190198" lon="-4.2788946"><ele>170.0</ele><time>2026-05-02T09:24:33.976Z</time></trkpt><trkpt lat="43.3190019" lon="-4.2787191"><ele>171.75</ele><time>2026-05-02T09:24:34.975Z</time></trkpt><trkpt lat="43.3189833" lon="-4.2785435"><ele>173.5</ele><time>2026-05-02T09:24:35.964Z</time></trkpt><trkpt lat="43.3189651" lon="-4.2783677"><ele>175.25</ele><time>2026-05-02T09:24:36.968Z</time></trkpt><trkpt lat="43.3189461" lon="-4.2781921"><ele>177.0</ele><time>2026-05-02T09:24:37.969Z</time></trkpt><trkpt lat="43.3189263" lon="-4.2780156"><ele>178.5</ele><time>2026-05-02T09:24:38.97Z</time></trkpt><trkpt lat="43.3189053" lon="-4.2778349"><ele>180.0</ele><time>2026-05-02T09:24:39.969Z</time></trkpt><trkpt lat="43.3188856" lon="-4.277652"><ele>181.5</ele><time>2026-05-02T09:24:40.967Z</time></trkpt><trkpt lat="43.3188616" lon="-4.2774661"><ele>183.0</ele><time>2026-05-02T09:24:41.966Z</time></trkpt><trkpt lat="43.3188428" lon="-4.2772805"><ele>178.75</ele><time>2026-05-02T09:24:42.964Z</time></trkpt><trkpt lat="43.318821" lon="-4.2771018"><ele>174.5</ele><time>2026-05-02T09:24:43.967Z</time></trkpt><trkpt lat="43.3187967" lon="-4.2769214"><ele>170.25</ele><time>2026-05-02T09:24:44.963Z</time></trkpt><trkpt lat="43.3187724" lon="-4.276744"><ele>166.0</ele><time>2026-05-02T09:24:45.965Z</time></trkpt><trkpt lat="43.3187449" lon="-4.2765624"><ele>168.25</ele><time>2026-05-02T09:24:46.968Z</time></trkpt><trkpt lat="43.3187154" lon="-4.2763769"><ele>170.5</ele><time>2026-05-02T09:24:47.966Z</time></trkpt><trkpt lat="43.3186869" lon="-4.2761884"><ele>172.75</ele><time>2026-05-02T09:24:48.966Z</time></trkpt><trkpt lat="43.3186602" lon="-4.2760023"><ele>175.0</ele><time>2026-05-02T09:24:49.966Z</time></trkpt><trkpt lat="43.3186241" lon="-4.2758168"><ele>175.0</ele><time>2026-05-02T09:24:50.967Z</time></trkpt><trkpt lat="43.3185908" lon="-4.2756257"><ele>175.0</ele><time>2026-05-02T09:24:51.984Z</time></trkpt><trkpt lat="43.3185514" lon="-4.2754429"><ele>175.0</ele><time>2026-05-02T09:24:52.97Z</time></trkpt><trkpt lat="43.3185124" lon="-4.2752504"><ele>175.0</ele><time>2026-05-02T09:24:53.967Z</time></trkpt><trkpt lat="43.3184783" lon="-4.2750597"><ele>176.0</ele><time>2026-05-02T09:24:54.973Z</time></trkpt><trkpt lat="43.3184491" lon="-4.2748673"><ele>177.0</ele><time>2026-05-02T09:24:55.969Z</time></trkpt><trkpt lat="43.3184131" lon="-4.2746759"><ele>178.0</ele><time>2026-05-02T09:24:56.968Z</time></trkpt><trkpt lat="43.3183817" lon="-4.2744812"><ele>179.0</ele><time>2026-05-02T09:24:57.968Z</time></trkpt><trkpt lat="43.3183494" lon="-4.2742865"><ele>180.0</ele><time>2026-05-02T09:24:58.965Z</time></trkpt><trkpt lat="43.318315" lon="-4.2740928"><ele>181.0</ele><time>2026-05-02T09:24:59.967Z</time></trkpt><trkpt lat="43.3182817" lon="-4.2739093"><ele>182.0</ele><time>2026-05-02T09:25:00.968Z</time></trkpt><trkpt lat="43.3182411" lon="-4.2737169"><ele>183.0</ele><time>2026-05-02T09:25:01.966Z</time></trkpt><trkpt lat="43.3181991" lon="-4.2735361"><ele>181.66666666666666</ele><time>2026-05-02T09:25:02.963Z</time></trkpt><trkpt lat="43.3181493" lon="-4.2733382"><ele>180.33333333333331</ele><time>2026-05-02T09:25:03.966Z</time></trkpt><trkpt lat="43.3181051" lon="-4.2731412"><ele>179.0</ele><time>2026-05-02T09:25:04.964Z</time></trkpt><trkpt lat="43.3180598" lon="-4.272946"><ele>179.0</ele><time>2026-05-02T09:25:05.969Z</time></trkpt><trkpt lat="43.3180146" lon="-4.2727514"><ele>179.0</ele><time>2026-05-02T09:25:06.968Z</time></trkpt><trkpt lat="43.317964" lon="-4.2725532"><ele>179.0</ele><time>2026-05-02T09:25:07.97Z</time></trkpt><trkpt lat="43.3179157" lon="-4.2723564"><ele>181.0</ele><time>2026-05-02T09:25:08.968Z</time></trkpt><trkpt lat="43.3178609" lon="-4.2721526"><ele>183.0</ele><time>2026-05-02T09:25:09.964Z</time></trkpt><trkpt lat="43.3178016" lon="-4.2719493"><ele>185.0</ele><time>2026-05-02T09:25:10.964Z</time></trkpt><trkpt lat="43.3177388" lon="-4.2717522"><ele>185.0</ele><time>2026-05-02T09:25:11.961Z</time></trkpt><trkpt lat="43.3176777" lon="-4.2715498"><ele>185.0</ele><time>2026-05-02T09:25:12.963Z</time></trkpt><trkpt lat="43.3176127" lon="-4.2713494"><ele>185.0</ele><time>2026-05-02T09:25:13.964Z</time></trkpt><trkpt lat="43.3175464" lon="-4.2711508"><ele>186.66666666666666</ele><time>2026-05-02T09:25:14.964Z</time></trkpt><trkpt lat="43.3174809" lon="-4.270955"><ele>188.33333333333334</ele><time>2026-05-02T09:25:15.967Z</time></trkpt><trkpt lat="43.3174212" lon="-4.2707526"><ele>190.0</ele><time>2026-05-02T09:25:16.969Z</time></trkpt><trkpt lat="43.3173568" lon="-4.2705504"><ele>190.33333333333334</ele><time>2026-05-02T09:25:17.967Z</time></trkpt><trkpt lat="43.3172782" lon="-4.2703513"><ele>190.66666666666666</ele><time>2026-05-02T09:25:18.966Z</time></trkpt><trkpt lat="43.3171939" lon="-4.2701664"><ele>191.0</ele><time>2026-05-02T09:25:19.971Z</time></trkpt><trkpt lat="43.3171003" lon="-4.2699894"><ele>189.66666666666666</ele><time>2026-05-02T09:25:20.968Z</time></trkpt><trkpt lat="43.3169964" lon="-4.2698218"><ele>188.33333333333334</ele><time>2026-05-02T09:25:21.966Z</time></trkpt><trkpt lat="43.3168909" lon="-4.269661"><ele>187.0</ele><time>2026-05-02T09:25:22.984Z</time></trkpt><trkpt lat="43.3167734" lon="-4.2695107"><ele>187.0</ele><time>2026-05-02T09:25:23.972Z</time></trkpt><trkpt lat="43.3166577" lon="-4.2693645"><ele>187.0</ele><time>2026-05-02T09:25:24.974Z</time></trkpt><trkpt lat="43.3165412" lon="-4.2692116"><ele>187.0</ele><time>2026-05-02T09:25:25.972Z</time></trkpt><trkpt lat="43.3164247" lon="-4.2690562"><ele>186.33333333333334</ele><time>2026-05-02T09:25:26.973Z</time></trkpt><trkpt lat="43.31631" lon="-4.2689048"><ele>185.66666666666666</ele><time>2026-05-02T09:25:27.97Z</time></trkpt><trkpt lat="43.316194" lon="-4.2687501"><ele>185.0</ele><time>2026-05-02T09:25:28.97Z</time></trkpt><trkpt lat="43.3160803" lon="-4.2686039"><ele>185.0</ele><time>2026-05-02T09:25:29.972Z</time></trkpt><trkpt lat="43.3159688" lon="-4.2684666"><ele>185.0</ele><time>2026-05-02T09:25:30.967Z</time></trkpt><trkpt lat="43.3158618" lon="-4.2683328"><ele>185.0</ele><time>2026-05-02T09:25:31.965Z</time></trkpt><trkpt lat="43.3157572" lon="-4.2681911"><ele>185.0</ele><time>2026-05-02T09:25:32.964Z</time></trkpt><trkpt lat="43.3156536" lon="-4.2680489"><ele>185.0</ele><time>2026-05-02T09:25:33.963Z</time></trkpt><trkpt lat="43.3155487" lon="-4.2679099"><ele>185.0</ele><time>2026-05-02T09:25:34.964Z</time></trkpt><trkpt lat="43.3154458" lon="-4.2677756"><ele>185.0</ele><time>2026-05-02T09:25:35.967Z</time></trkpt><trkpt lat="43.3153449" lon="-4.2676155"><ele>185.0</ele><time>2026-05-02T09:25:36.964Z</time></trkpt><trkpt lat="43.3152596" lon="-4.2674603"><ele>185.0</ele><time>2026-05-02T09:25:37.964Z</time></trkpt><trkpt lat="43.3151683" lon="-4.2672981"><ele>185.0</ele><time>2026-05-02T09:25:38.967Z</time></trkpt><trkpt lat="43.3150857" lon="-4.2671222"><ele>185.0</ele><time>2026-05-02T09:25:39.964Z</time></trkpt><trkpt lat="43.3150001" lon="-4.2669495"><ele>183.66666666666666</ele><time>2026-05-02T09:25:40.96Z</time></trkpt><trkpt lat="43.3149187" lon="-4.2667584"><ele>182.33333333333334</ele><time>2026-05-02T09:25:41.964Z</time></trkpt><trkpt lat="43.3148479" lon="-4.2665766"><ele>181.0</ele><time>2026-05-02T09:25:42.967Z</time></trkpt><trkpt lat="43.3147655" lon="-4.2663947"><ele>183.33333333333334</ele><time>2026-05-02T09:25:43.969Z</time></trkpt><trkpt lat="43.3146887" lon="-4.2662093"><ele>185.66666666666666</ele><time>2026-05-02T09:25:44.966Z</time></trkpt><trkpt lat="43.3146151" lon="-4.2660128"><ele>188.0</ele><time>2026-05-02T09:25:45.965Z</time></trkpt><trkpt lat="43.3145374" lon="-4.2658296"><ele>188.0</ele><time>2026-05-02T09:25:46.969Z</time></trkpt><trkpt lat="43.3144685" lon="-4.2656278"><ele>188.0</ele><time>2026-05-02T09:25:47.965Z</time></trkpt><trkpt lat="43.314412" lon="-4.265418"><ele>188.0</ele><time>2026-05-02T09:25:48.968Z</time></trkpt><trkpt lat="43.3143672" lon="-4.2652101"><ele>185.33333333333331</ele><time>2026-05-02T09:25:49.968Z</time></trkpt><trkpt lat="43.3143243" lon="-4.2649898"><ele>182.66666666666666</ele><time>2026-05-02T09:25:50.967Z</time></trkpt><trkpt lat="43.314291" lon="-4.2647724"><ele>180.0</ele><time>2026-05-02T09:25:51.967Z</time></trkpt><trkpt lat="43.3142634" lon="-4.2645572"><ele>176.66666666666666</ele><time>2026-05-02T09:25:52.965Z</time></trkpt><trkpt lat="43.3142374" lon="-4.2643482"><ele>173.33333333333331</ele><time>2026-05-02T09:25:53.977Z</time></trkpt><trkpt lat="43.3142151" lon="-4.2641418"><ele>170.0</ele><time>2026-05-02T09:25:54.965Z</time></trkpt><trkpt lat="43.3141822" lon="-4.2639401"><ele>168.33333333333331</ele><time>2026-05-02T09:25:55.967Z</time></trkpt><trkpt lat="43.3141476" lon="-4.2637164"><ele>166.66666666666666</ele><time>2026-05-02T09:25:56.969Z</time></trkpt><trkpt lat="43.3141232" lon="-4.2635052"><ele>165.0</ele><time>2026-05-02T09:25:57.968Z</time></trkpt><trkpt lat="43.3141011" lon="-4.2632878"><ele>163.0</ele><time>2026-05-02T09:25:58.963Z</time></trkpt><trkpt lat="43.3140844" lon="-4.2630718"><ele>161.0</ele><time>2026-05-02T09:25:59.963Z</time></trkpt><trkpt lat="43.31406" lon="-4.2628564"><ele>159.0</ele><time>2026-05-02T09:26:00.963Z</time></trkpt><trkpt lat="43.3140367" lon="-4.2626255"><ele>159.0</ele><time>2026-05-02T09:26:01.963Z</time></trkpt><trkpt lat="43.3140084" lon="-4.2623955"><ele>159.0</ele><time>2026-05-02T09:26:02.961Z</time></trkpt><trkpt lat="43.3139745" lon="-4.2621708"><ele>159.0</ele><time>2026-05-02T09:26:03.965Z</time></trkpt><trkpt lat="43.3139396" lon="-4.2619381"><ele>160.66666666666666</ele><time>2026-05-02T09:26:04.967Z</time></trkpt><trkpt lat="43.3139037" lon="-4.2617048"><ele>162.33333333333331</ele><time>2026-05-02T09:26:05.968Z</time></trkpt><trkpt lat="43.3138759" lon="-4.2614801"><ele>164.0</ele><time>2026-05-02T09:26:06.973Z</time></trkpt><trkpt lat="43.313852" lon="-4.2612531"><ele>164.0</ele><time>2026-05-02T09:26:07.97Z</time></trkpt><trkpt lat="43.3138417" lon="-4.2610418"><ele>164.0</ele><time>2026-05-02T09:26:08.968Z</time></trkpt><trkpt lat="43.3138138" lon="-4.2608247"><ele>164.0</ele><time>2026-05-02T09:26:09.969Z</time></trkpt><trkpt lat="43.3137802" lon="-4.2606003"><ele>161.66666666666666</ele><time>2026-05-02T09:26:10.968Z</time></trkpt><trkpt lat="43.3137493" lon="-4.2603689"><ele>159.33333333333334</ele><time>2026-05-02T09:26:11.97Z</time></trkpt><trkpt lat="43.3137209" lon="-4.2601411"><ele>157.0</ele><time>2026-05-02T09:26:12.967Z</time></trkpt><trkpt lat="43.31369" lon="-4.2599063"><ele>155.33333333333334</ele><time>2026-05-02T09:26:13.966Z</time></trkpt><trkpt lat="43.3136637" lon="-4.2596804"><ele>153.66666666666666</ele><time>2026-05-02T09:26:14.963Z</time></trkpt><trkpt lat="43.3136423" lon="-4.2594606"><ele>152.0</ele><time>2026-05-02T09:26:15.967Z</time></trkpt><trkpt lat="43.3136162" lon="-4.2592464"><ele>152.0</ele><time>2026-05-02T09:26:16.967Z</time></trkpt><trkpt lat="43.3135834" lon="-4.2590446"><ele>152.0</ele><time>2026-05-02T09:26:17.965Z</time></trkpt><trkpt lat="43.3135517" lon="-4.2588445"><ele>152.0</ele><time>2026-05-02T09:26:18.962Z</time></trkpt><trkpt lat="43.3135257" lon="-4.2586469"><ele>152.0</ele><time>2026-05-02T09:26:19.966Z</time></trkpt><trkpt lat="43.3135008" lon="-4.2584466"><ele>150.75</ele><time>2026-05-02T09:26:20.974Z</time></trkpt><trkpt lat="43.3134688" lon="-4.2582449"><ele>149.5</ele><time>2026-05-02T09:26:21.973Z</time></trkpt><trkpt lat="43.3134434" lon="-4.2580454"><ele>148.25</ele><time>2026-05-02T09:26:22.977Z</time></trkpt><trkpt lat="43.3134171" lon="-4.2578454"><ele>147.0</ele><time>2026-05-02T09:26:23.971Z</time></trkpt><trkpt lat="43.3133779" lon="-4.2576399"><ele>146.33333333333334</ele><time>2026-05-02T09:26:24.991Z</time></trkpt><trkpt lat="43.3133377" lon="-4.2574265"><ele>145.66666666666669</ele><time>2026-05-02T09:26:25.976Z</time></trkpt><trkpt lat="43.313297" lon="-4.2572225"><ele>145.0</ele><time>2026-05-02T09:26:26.973Z</time></trkpt><trkpt lat="43.3132467" lon="-4.2570135"><ele>144.0</ele><time>2026-05-02T09:26:27.975Z</time></trkpt><trkpt lat="43.3131981" lon="-4.256812"><ele>143.0</ele><time>2026-05-02T09:26:28.976Z</time></trkpt><trkpt lat="43.3131461" lon="-4.2566098"><ele>142.0</ele><time>2026-05-02T09:26:29.975Z</time></trkpt><trkpt lat="43.3130912" lon="-4.2564047"><ele>143.0</ele><time>2026-05-02T09:26:30.975Z</time></trkpt><trkpt lat="43.3130352" lon="-4.2561991"><ele>144.0</ele><time>2026-05-02T09:26:31.978Z</time></trkpt><trkpt lat="43.3129807" lon="-4.2559969"><ele>145.0</ele><time>2026-05-02T09:26:32.98Z</time></trkpt><trkpt lat="43.3129339" lon="-4.2558096"><ele>145.0</ele><time>2026-05-02T09:26:33.977Z</time></trkpt><trkpt lat="43.3128912" lon="-4.2556403"><ele>145.0</ele><time>2026-05-02T09:26:34.981Z</time></trkpt><trkpt lat="43.3128555" lon="-4.2554853"><ele>145.0</ele><time>2026-05-02T09:26:35.981Z</time></trkpt><trkpt lat="43.3128231" lon="-4.2553413"><ele>145.0</ele><time>2026-05-02T09:26:36.977Z</time></trkpt><trkpt lat="43.3127896" lon="-4.2551991"><ele>144.25</ele><time>2026-05-02T09:26:37.984Z</time></trkpt><trkpt lat="43.3127565" lon="-4.255059"><ele>143.5</ele><time>2026-05-02T09:26:38.982Z</time></trkpt><trkpt lat="43.3127226" lon="-4.254902"><ele>142.75</ele><time>2026-05-02T09:26:39.982Z</time></trkpt><trkpt lat="43.3126897" lon="-4.2547386"><ele>142.0</ele><time>2026-05-02T09:26:40.98Z</time></trkpt><trkpt lat="43.3126493" lon="-4.2545759"><ele>142.0</ele><time>2026-05-02T09:26:41.98Z</time></trkpt><trkpt lat="43.3126072" lon="-4.254414"><ele>142.0</ele><time>2026-05-02T09:26:42.979Z</time></trkpt><trkpt lat="43.3125682" lon="-4.2542483"><ele>142.0</ele><time>2026-05-02T09:26:43.979Z</time></trkpt><trkpt lat="43.3125324" lon="-4.2540778"><ele>142.0</ele><time>2026-05-02T09:26:44.978Z</time></trkpt><trkpt lat="43.3125028" lon="-4.2539056"><ele>142.5</ele><time>2026-05-02T09:26:45.981Z</time></trkpt><trkpt lat="43.3124742" lon="-4.253724"><ele>143.0</ele><time>2026-05-02T09:26:46.983Z</time></trkpt><trkpt lat="43.3124497" lon="-4.2535305"><ele>143.5</ele><time>2026-05-02T09:26:47.978Z</time></trkpt><trkpt lat="43.3124315" lon="-4.2533244"><ele>144.0</ele><time>2026-05-02T09:26:48.978Z</time></trkpt><trkpt lat="43.3124184" lon="-4.2531195"><ele>146.33333333333334</ele><time>2026-05-02T09:26:49.979Z</time></trkpt><trkpt lat="43.3124069" lon="-4.2529159"><ele>148.66666666666669</ele><time>2026-05-02T09:26:50.979Z</time></trkpt><trkpt lat="43.3123948" lon="-4.2526989"><ele>151.0</ele><time>2026-05-02T09:26:51.978Z</time></trkpt><trkpt lat="43.312381" lon="-4.2524791"><ele>152.0</ele><time>2026-05-02T09:26:52.984Z</time></trkpt><trkpt lat="43.3123704" lon="-4.2522589"><ele>153.0</ele><time>2026-05-02T09:26:53.977Z</time></trkpt><trkpt lat="43.3123535" lon="-4.2520303"><ele>154.0</ele><time>2026-05-02T09:26:54.98Z</time></trkpt><trkpt lat="43.3123412" lon="-4.2518083"><ele>154.0</ele><time>2026-05-02T09:26:55.99Z</time></trkpt><trkpt lat="43.312324" lon="-4.2515817"><ele>154.0</ele><time>2026-05-02T09:26:56.971Z</time></trkpt><trkpt lat="43.3123105" lon="-4.2513697"><ele>154.0</ele><time>2026-05-02T09:26:57.972Z</time></trkpt><trkpt lat="43.3122921" lon="-4.2511448"><ele>154.66666666666669</ele><time>2026-05-02T09:26:58.977Z</time></trkpt><trkpt lat="43.3122754" lon="-4.2509177"><ele>155.33333333333334</ele><time>2026-05-02T09:26:59.974Z</time></trkpt><trkpt lat="43.3122516" lon="-4.2506862"><ele>156.0</ele><time>2026-05-02T09:27:00.971Z</time></trkpt><trkpt lat="43.312234" lon="-4.2504528"><ele>153.0</ele><time>2026-05-02T09:27:01.975Z</time></trkpt><trkpt lat="43.3122226" lon="-4.2502197"><ele>150.0</ele><time>2026-05-02T09:27:02.972Z</time></trkpt><trkpt lat="43.3121997" lon="-4.2500073"><ele>147.0</ele><time>2026-05-02T09:27:03.972Z</time></trkpt><trkpt lat="43.3121758" lon="-4.2498051"><ele>146.5</ele><time>2026-05-02T09:27:04.968Z</time></trkpt><trkpt lat="43.3121518" lon="-4.2496125"><ele>146.0</ele><time>2026-05-02T09:27:05.969Z</time></trkpt><trkpt lat="43.312129" lon="-4.2494309"><ele>145.5</ele><time>2026-05-02T09:27:06.971Z</time></trkpt><trkpt lat="43.3121033" lon="-4.2492537"><ele>145.0</ele><time>2026-05-02T09:27:07.974Z</time></trkpt><trkpt lat="43.3120733" lon="-4.249083"><ele>145.25</ele><time>2026-05-02T09:27:08.975Z</time></trkpt><trkpt lat="43.3120447" lon="-4.2489156"><ele>145.5</ele><time>2026-05-02T09:27:09.973Z</time></trkpt><trkpt lat="43.3120124" lon="-4.2487608"><ele>145.75</ele><time>2026-05-02T09:27:10.971Z</time></trkpt><trkpt lat="43.3119837" lon="-4.2486119"><ele>146.0</ele><time>2026-05-02T09:27:11.968Z</time></trkpt><trkpt lat="43.3119744" lon="-4.2484645"><ele>146.0</ele><time>2026-05-02T09:27:12.969Z</time></trkpt><trkpt lat="43.3119703" lon="-4.2483326"><ele>146.0</ele><time>2026-05-02T09:27:13.973Z</time></trkpt><trkpt lat="43.3119574" lon="-4.2482076"><ele>146.0</ele><time>2026-05-02T09:27:14.968Z</time></trkpt><trkpt lat="43.3119241" lon="-4.2480821"><ele>146.0</ele><time>2026-05-02T09:27:15.968Z</time></trkpt><trkpt lat="43.3118795" lon="-4.247981"><ele>146.0</ele><time>2026-05-02T09:27:16.971Z</time></trkpt><trkpt lat="43.3118351" lon="-4.2478737"><ele>147.33333333333331</ele><time>2026-05-02T09:27:17.967Z</time></trkpt><trkpt lat="43.3118055" lon="-4.2477571"><ele>148.66666666666666</ele><time>2026-05-02T09:27:18.967Z</time></trkpt><trkpt lat="43.3117799" lon="-4.2476443"><ele>150.0</ele><time>2026-05-02T09:27:19.971Z</time></trkpt><trkpt lat="43.3117561" lon="-4.2475422"><ele>151.33333333333334</ele><time>2026-05-02T09:27:20.974Z</time></trkpt><trkpt lat="43.311729" lon="-4.2474468"><ele>152.66666666666669</ele><time>2026-05-02T09:27:21.969Z</time></trkpt><trkpt lat="43.3117024" lon="-4.2473571"><ele>154.0</ele><time>2026-05-02T09:27:22.973Z</time></trkpt><trkpt lat="43.3116814" lon="-4.2472731"><ele>154.16666666666669</ele><time>2026-05-02T09:27:23.971Z</time></trkpt><trkpt lat="43.3116534" lon="-4.2471239"><ele>154.33333333333334</ele><time>2026-05-02T09:27:25.963Z</time></trkpt><trkpt lat="43.3116336" lon="-4.247019"><ele>154.5</ele><time>2026-05-02T09:27:27.974Z</time></trkpt><trkpt lat="43.3116244" lon="-4.2469281"><ele>154.66666666666666</ele><time>2026-05-02T09:33:46.98Z</time></trkpt><trkpt lat="43.3116151" lon="-4.2468414"><ele>154.83333333333331</ele><time>2026-05-02T09:33:55.973Z</time></trkpt><trkpt lat="43.3116014" lon="-4.246741"><ele>155.0</ele><time>2026-05-02T09:33:57.964Z</time></trkpt><trkpt lat="43.311573" lon="-4.2466033"><ele>155.16666666666666</ele><time>2026-05-02T09:33:59.967Z</time></trkpt><trkpt lat="43.3115328" lon="-4.2464548"><ele>155.33333333333331</ele><time>2026-05-02T09:34:01.964Z</time></trkpt><trkpt lat="43.3115127" lon="-4.2463711"><ele>155.5</ele><time>2026-05-02T09:34:02.967Z</time></trkpt><trkpt lat="43.3114901" lon="-4.2462807"><ele>155.66666666666666</ele><time>2026-05-02T09:34:03.964Z</time></trkpt><trkpt lat="43.3114625" lon="-4.2461916"><ele>155.83333333333334</ele><time>2026-05-02T09:34:04.964Z</time></trkpt><trkpt lat="43.3114361" lon="-4.246096"><ele>156.0</ele><time>2026-05-02T09:34:05.973Z</time></trkpt><trkpt lat="43.3114083" lon="-4.2459841"><ele>157.2</ele><time>2026-05-02T09:34:06.968Z</time></trkpt><trkpt lat="43.3113703" lon="-4.2458697"><ele>158.39999999999998</ele><time>2026-05-02T09:34:07.983Z</time></trkpt><trkpt lat="43.3113275" lon="-4.2457515"><ele>159.6</ele><time>2026-05-02T09:34:08.965Z</time></trkpt><trkpt lat="43.3112832" lon="-4.2456328"><ele>160.79999999999998</ele><time>2026-05-02T09:34:09.968Z</time></trkpt><trkpt lat="43.3112438" lon="-4.2455214"><ele>162.0</ele><time>2026-05-02T09:34:10.963Z</time></trkpt><trkpt lat="43.3112094" lon="-4.2454169"><ele>162.0</ele><time>2026-05-02T09:34:11.968Z</time></trkpt><trkpt lat="43.3111738" lon="-4.2453207"><ele>162.0</ele><time>2026-05-02T09:34:12.965Z</time></trkpt><trkpt lat="43.3111384" lon="-4.2452299"><ele>162.0</ele><time>2026-05-02T09:34:13.968Z</time></trkpt><trkpt lat="43.311096" lon="-4.2451478"><ele>162.0</ele><time>2026-05-02T09:34:14.963Z</time></trkpt><trkpt lat="43.311047" lon="-4.245072"><ele>162.0</ele><time>2026-05-02T09:34:15.965Z</time></trkpt><trkpt lat="43.310992" lon="-4.2449972"><ele>162.0</ele><time>2026-05-02T09:34:16.977Z</time></trkpt><trkpt lat="43.3109403" lon="-4.2449144"><ele>162.0</ele><time>2026-05-02T09:34:17.962Z</time></trkpt><trkpt lat="43.3108947" lon="-4.2448205"><ele>162.0</ele><time>2026-05-02T09:34:18.967Z</time></trkpt><trkpt lat="43.3108514" lon="-4.244719"><ele>162.0</ele><time>2026-05-02T09:34:19.968Z</time></trkpt><trkpt lat="43.3108117" lon="-4.2446094"><ele>162.0</ele><time>2026-05-02T09:34:20.972Z</time></trkpt><trkpt lat="43.3107706" lon="-4.2445063"><ele>162.0</ele><time>2026-05-02T09:34:21.968Z</time></trkpt><trkpt lat="43.3107255" lon="-4.2444067"><ele>162.0</ele><time>2026-05-02T09:34:22.977Z</time></trkpt><trkpt lat="43.3106767" lon="-4.2443147"><ele>162.0</ele><time>2026-05-02T09:34:23.977Z</time></trkpt><trkpt lat="43.3106179" lon="-4.2442227"><ele>162.0</ele><time>2026-05-02T09:34:24.975Z</time></trkpt><trkpt lat="43.3105557" lon="-4.2441245"><ele>162.0</ele><time>2026-05-02T09:34:25.971Z</time></trkpt><trkpt lat="43.3104905" lon="-4.2440282"><ele>162.0</ele><time>2026-05-02T09:34:26.969Z</time></trkpt><trkpt lat="43.3104231" lon="-4.2439346"><ele>162.0</ele><time>2026-05-02T09:34:27.971Z</time></trkpt><trkpt lat="43.3103502" lon="-4.2438358"><ele>160.4</ele><time>2026-05-02T09:34:28.971Z</time></trkpt><trkpt lat="43.3102782" lon="-4.2437334"><ele>158.79999999999998</ele><time>2026-05-02T09:34:29.97Z</time></trkpt><trkpt lat="43.3102038" lon="-4.2436316"><ele>157.2</ele><time>2026-05-02T09:34:30.971Z</time></trkpt><trkpt lat="43.3101243" lon="-4.2435197"><ele>155.6</ele><time>2026-05-02T09:34:31.969Z</time></trkpt><trkpt lat="43.3100416" lon="-4.2434063"><ele>154.0</ele><time>2026-05-02T09:34:32.968Z</time></trkpt><trkpt lat="43.3099585" lon="-4.2432892"><ele>154.0</ele><time>2026-05-02T09:34:33.972Z</time></trkpt><trkpt lat="43.3098719" lon="-4.2431731"><ele>154.0</ele><time>2026-05-02T09:34:34.967Z</time></trkpt><trkpt lat="43.3097852" lon="-4.2430534"><ele>154.0</ele><time>2026-05-02T09:34:35.973Z</time></trkpt><trkpt lat="43.3096993" lon="-4.2429308"><ele>154.0</ele><time>2026-05-02T09:34:36.984Z</time></trkpt><trkpt lat="43.3096111" lon="-4.2428141"><ele>152.25</ele><time>2026-05-02T09:34:37.983Z</time></trkpt><trkpt lat="43.309523" lon="-4.2426904"><ele>150.5</ele><time>2026-05-02T09:34:38.996Z</time></trkpt><trkpt lat="43.3094385" lon="-4.2425654"><ele>148.75</ele><time>2026-05-02T09:34:39.985Z</time></trkpt><trkpt lat="43.3093547" lon="-4.2424397"><ele>147.0</ele><time>2026-05-02T09:34:40.984Z</time></trkpt><trkpt lat="43.3092781" lon="-4.2423085"><ele>145.5</ele><time>2026-05-02T09:34:41.977Z</time></trkpt><trkpt lat="43.3092071" lon="-4.2421766"><ele>144.0</ele><time>2026-05-02T09:34:42.977Z</time></trkpt><trkpt lat="43.3091403" lon="-4.2420411"><ele>142.5</ele><time>2026-05-02T09:34:43.979Z</time></trkpt><trkpt lat="43.3090815" lon="-4.2419001"><ele>141.0</ele><time>2026-05-02T09:34:44.981Z</time></trkpt><trkpt lat="43.3090326" lon="-4.2417551"><ele>141.0</ele><time>2026-05-02T09:34:45.986Z</time></trkpt><trkpt lat="43.3089914" lon="-4.2416025"><ele>141.0</ele><time>2026-05-02T09:34:46.985Z</time></trkpt><trkpt lat="43.3089608" lon="-4.2414467"><ele>141.0</ele><time>2026-05-02T09:34:47.972Z</time></trkpt><trkpt lat="43.3089371" lon="-4.2412879"><ele>141.0</ele><time>2026-05-02T09:34:48.971Z</time></trkpt><trkpt lat="43.3089244" lon="-4.2411239"><ele>139.75</ele><time>2026-05-02T09:34:49.978Z</time></trkpt><trkpt lat="43.308916" lon="-4.240959"><ele>138.5</ele><time>2026-05-02T09:34:50.971Z</time></trkpt><trkpt lat="43.3089137" lon="-4.2407967"><ele>137.25</ele><time>2026-05-02T09:34:51.975Z</time></trkpt><trkpt lat="43.3089145" lon="-4.2406355"><ele>136.0</ele><time>2026-05-02T09:34:52.975Z</time></trkpt><trkpt lat="43.308917" lon="-4.2404762"><ele>134.75</ele><time>2026-05-02T09:34:53.978Z</time></trkpt><trkpt lat="43.3089203" lon="-4.2403116"><ele>133.5</ele><time>2026-05-02T09:34:54.976Z</time></trkpt><trkpt lat="43.3089219" lon="-4.2401508"><ele>132.25</ele><time>2026-05-02T09:34:55.972Z</time></trkpt><trkpt lat="43.308927" lon="-4.2399828"><ele>131.0</ele><time>2026-05-02T09:34:56.971Z</time></trkpt><trkpt lat="43.3089345" lon="-4.2398152"><ele>131.0</ele><time>2026-05-02T09:34:57.966Z</time></trkpt><trkpt lat="43.3089385" lon="-4.2396585"><ele>131.0</ele><time>2026-05-02T09:34:58.966Z</time></trkpt><trkpt lat="43.3089438" lon="-4.2395128"><ele>131.0</ele><time>2026-05-02T09:34:59.965Z</time></trkpt><trkpt lat="43.3089477" lon="-4.2393737"><ele>131.0</ele><time>2026-05-02T09:35:00.958Z</time></trkpt><trkpt lat="43.3089524" lon="-4.2392499"><ele>131.0</ele><time>2026-05-02T09:35:01.96Z</time></trkpt><trkpt lat="43.3089572" lon="-4.2391389"><ele>131.0</ele><time>2026-05-02T09:35:02.959Z</time></trkpt><trkpt lat="43.3089603" lon="-4.2390302"><ele>131.0</ele><time>2026-05-02T09:35:03.959Z</time></trkpt><trkpt lat="43.3089632" lon="-4.238926"><ele>131.0</ele><time>2026-05-02T09:35:04.96Z</time></trkpt><trkpt lat="43.3089661" lon="-4.2388218"><ele>131.0</ele><time>2026-05-02T09:35:05.959Z</time></trkpt><trkpt lat="43.3089726" lon="-4.2387127"><ele>131.0</ele><time>2026-05-02T09:35:06.959Z</time></trkpt><trkpt lat="43.3089795" lon="-4.2386029"><ele>131.0</ele><time>2026-05-02T09:35:07.959Z</time></trkpt><trkpt lat="43.3089839" lon="-4.2384837"><ele>131.0</ele><time>2026-05-02T09:35:08.963Z</time></trkpt><trkpt lat="43.3089888" lon="-4.2383772"><ele>131.0</ele><time>2026-05-02T09:35:09.98Z</time></trkpt><trkpt lat="43.3089909" lon="-4.2382782"><ele>131.0</ele><time>2026-05-02T09:35:10.972Z</time></trkpt><trkpt lat="43.3089932" lon="-4.2381865"><ele>131.0</ele><time>2026-05-02T09:35:11.972Z</time></trkpt><trkpt lat="43.3089917" lon="-4.2380972"><ele>131.0</ele><time>2026-05-02T09:35:12.975Z</time></trkpt><trkpt lat="43.3089938" lon="-4.2379427"><ele>131.0</ele><time>2026-05-02T09:35:14.973Z</time></trkpt><trkpt lat="43.3089897" lon="-4.2378021"><ele>130.8</ele><time>2026-05-02T09:35:16.975Z</time></trkpt><trkpt lat="43.3089855" lon="-4.2376845"><ele>130.6</ele><time>2026-05-02T09:35:18.967Z</time></trkpt><trkpt lat="43.3090044" lon="-4.2375562"><ele>130.4</ele><time>2026-05-02T09:35:20.971Z</time></trkpt><trkpt lat="43.3090703" lon="-4.2374536"><ele>130.2</ele><time>2026-05-02T09:35:22.971Z</time></trkpt><trkpt lat="43.3091668" lon="-4.23732"><ele>130.0</ele><time>2026-05-02T09:35:24.966Z</time></trkpt><trkpt lat="43.3092121" lon="-4.2372318"><ele>130.0</ele><time>2026-05-02T09:35:25.967Z</time></trkpt><trkpt lat="43.3092521" lon="-4.2371359"><ele>130.0</ele><time>2026-05-02T09:35:26.959Z</time></trkpt><trkpt lat="43.309289" lon="-4.2370342"><ele>130.0</ele><time>2026-05-02T09:35:27.96Z</time></trkpt><trkpt lat="43.3093182" lon="-4.2369347"><ele>130.0</ele><time>2026-05-02T09:35:28.964Z</time></trkpt><trkpt lat="43.3093424" lon="-4.2368349"><ele>130.0</ele><time>2026-05-02T09:35:29.967Z</time></trkpt><trkpt lat="43.3093605" lon="-4.2367384"><ele>130.0</ele><time>2026-05-02T09:35:30.962Z</time></trkpt><trkpt lat="43.3093722" lon="-4.236643"><ele>130.0</ele><time>2026-05-02T09:35:31.959Z</time></trkpt><trkpt lat="43.3093844" lon="-4.2365512"><ele>130.0</ele><time>2026-05-02T09:35:32.955Z</time></trkpt><trkpt lat="43.3094093" lon="-4.2363834"><ele>130.0</ele><time>2026-05-02T09:35:34.96Z</time></trkpt><trkpt lat="43.3094255" lon="-4.2362237"><ele>130.0</ele><time>2026-05-02T09:35:36.956Z</time></trkpt><trkpt lat="43.3094322" lon="-4.2360745"><ele>130.0</ele><time>2026-05-02T09:35:38.951Z</time></trkpt><trkpt lat="43.3094231" lon="-4.2359566"><ele>129.85714285714286</ele><time>2026-05-02T09:35:40.964Z</time></trkpt><trkpt lat="43.3094151" lon="-4.235858"><ele>129.71428571428572</ele><time>2026-05-02T09:35:42.954Z</time></trkpt><trkpt lat="43.3094256" lon="-4.2357252"><ele>129.57142857142856</ele><time>2026-05-02T09:35:44.962Z</time></trkpt><trkpt lat="43.3094267" lon="-4.2356381"><ele>129.42857142857144</ele><time>2026-05-02T09:35:45.958Z</time></trkpt><trkpt lat="43.3094313" lon="-4.2355472"><ele>129.28571428571428</ele><time>2026-05-02T09:35:46.966Z</time></trkpt><trkpt lat="43.3094326" lon="-4.2354542"><ele>129.14285714285714</ele><time>2026-05-02T09:35:47.963Z</time></trkpt><trkpt lat="43.3094409" lon="-4.2353566"><ele>129.0</ele><time>2026-05-02T09:35:48.963Z</time></trkpt><trkpt lat="43.3094466" lon="-4.2352554"><ele>128.83333333333334</ele><time>2026-05-02T09:35:49.972Z</time></trkpt><trkpt lat="43.3094539" lon="-4.2351495"><ele>128.66666666666666</ele><time>2026-05-02T09:35:50.964Z</time></trkpt><trkpt lat="43.3094585" lon="-4.2350465"><ele>128.5</ele><time>2026-05-02T09:35:51.967Z</time></trkpt><trkpt lat="43.3094658" lon="-4.2349458"><ele>128.33333333333331</ele><time>2026-05-02T09:35:52.973Z</time></trkpt><trkpt lat="43.309476" lon="-4.2348524"><ele>128.16666666666666</ele><time>2026-05-02T09:35:53.968Z</time></trkpt><trkpt lat="43.309493" lon="-4.2347098"><ele>128.0</ele><time>2026-05-02T09:35:55.97Z</time></trkpt><trkpt lat="43.3095134" lon="-4.2345973"><ele>127.99999999999999</ele><time>2026-05-02T09:35:57.965Z</time></trkpt><trkpt lat="43.3095345" lon="-4.2345085"><ele>128.0</ele><time>2026-05-02T09:36:00.971Z</time></trkpt><trkpt lat="43.309564" lon="-4.2344303"><ele>128.0</ele><time>2026-05-02T09:36:03.971Z</time></trkpt><trkpt lat="43.3095959" lon="-4.2343092"><ele>128.0</ele><time>2026-05-02T09:36:07.967Z</time></trkpt><trkpt lat="43.3096272" lon="-4.2342136"><ele>127.99999999999999</ele><time>2026-05-02T09:36:09.965Z</time></trkpt><trkpt lat="43.3096573" lon="-4.2341192"><ele>128.0</ele><time>2026-05-02T09:36:11.979Z</time></trkpt><trkpt lat="43.3096913" lon="-4.2340226"><ele>128.33333333333331</ele><time>2026-05-02T09:36:13.969Z</time></trkpt><trkpt lat="43.3097162" lon="-4.2339276"><ele>128.66666666666666</ele><time>2026-05-02T09:36:15.97Z</time></trkpt><trkpt lat="43.3097481" lon="-4.2338129"><ele>129.0</ele><time>2026-05-02T09:36:18.973Z</time></trkpt><trkpt lat="43.309783" lon="-4.2337214"><ele>129.33333333333334</ele><time>2026-05-02T09:36:20.967Z</time></trkpt><trkpt lat="43.3098103" lon="-4.2336357"><ele>129.66666666666669</ele><time>2026-05-02T09:36:22.969Z</time></trkpt><trkpt lat="43.309844" lon="-4.2335302"><ele>130.0</ele><time>2026-05-02T09:36:24.98Z</time></trkpt><trkpt lat="43.3098931" lon="-4.2333985"><ele>130.2</ele><time>2026-05-02T09:36:26.965Z</time></trkpt><trkpt lat="43.309945" lon="-4.2332545"><ele>130.4</ele><time>2026-05-02T09:36:28.966Z</time></trkpt><trkpt lat="43.3099738" lon="-4.233177"><ele>130.6</ele><time>2026-05-02T09:36:29.965Z</time></trkpt><trkpt lat="43.3100217" lon="-4.2330387"><ele>130.8</ele><time>2026-05-02T09:36:31.965Z</time></trkpt><trkpt lat="43.3100589" lon="-4.2329287"><ele>131.0</ele><time>2026-05-02T09:36:33.964Z</time></trkpt><trkpt lat="43.3100965" lon="-4.2328024"><ele>131.0</ele><time>2026-05-02T09:36:35.965Z</time></trkpt><trkpt lat="43.3101466" lon="-4.232667"><ele>131.0</ele><time>2026-05-02T09:36:37.962Z</time></trkpt><trkpt lat="43.3102005" lon="-4.2325357"><ele>131.0</ele><time>2026-05-02T09:36:39.965Z</time></trkpt><trkpt lat="43.3102625" lon="-4.2323862"><ele>131.0</ele><time>2026-05-02T09:36:41.965Z</time></trkpt><trkpt lat="43.3102959" lon="-4.2323025"><ele>131.0</ele><time>2026-05-02T09:36:42.981Z</time></trkpt><trkpt lat="43.3103268" lon="-4.232208"><ele>130.16666666666666</ele><time>2026-05-02T09:36:43.967Z</time></trkpt><trkpt lat="43.3103595" lon="-4.2321127"><ele>129.33333333333331</ele><time>2026-05-02T09:36:44.965Z</time></trkpt><trkpt lat="43.3103907" lon="-4.2320117"><ele>128.5</ele><time>2026-05-02T09:36:45.963Z</time></trkpt><trkpt lat="43.3104267" lon="-4.2319042"><ele>127.66666666666666</ele><time>2026-05-02T09:36:46.964Z</time></trkpt><trkpt lat="43.310461" lon="-4.2317892"><ele>126.83333333333333</ele><time>2026-05-02T09:36:47.952Z</time></trkpt><trkpt lat="43.3104892" lon="-4.2316809"><ele>126.0</ele><time>2026-05-02T09:36:48.955Z</time></trkpt><trkpt lat="43.3105241" lon="-4.2315665"><ele>125.4</ele><time>2026-05-02T09:36:49.956Z</time></trkpt><trkpt lat="43.3105581" lon="-4.2314554"><ele>124.8</ele><time>2026-05-02T09:36:50.956Z</time></trkpt><trkpt lat="43.3105932" lon="-4.2313365"><ele>124.20000000000002</ele><time>2026-05-02T09:36:51.959Z</time></trkpt><trkpt lat="43.3106302" lon="-4.2312166"><ele>123.60000000000001</ele><time>2026-05-02T09:36:52.966Z</time></trkpt><trkpt lat="43.310666" lon="-4.2310957"><ele>123.0</ele><time>2026-05-02T09:36:53.958Z</time></trkpt><trkpt lat="43.3107021" lon="-4.2309812"><ele>124.33333333333333</ele><time>2026-05-02T09:36:54.962Z</time></trkpt><trkpt lat="43.310734" lon="-4.2308796"><ele>125.66666666666666</ele><time>2026-05-02T09:36:55.959Z</time></trkpt><trkpt lat="43.3107713" lon="-4.2307822"><ele>127.0</ele><time>2026-05-02T09:36:56.96Z</time></trkpt><trkpt lat="43.3108043" lon="-4.2306783"><ele>128.33333333333331</ele><time>2026-05-02T09:36:57.962Z</time></trkpt><trkpt lat="43.3108329" lon="-4.230558"><ele>129.66666666666666</ele><time>2026-05-02T09:36:58.964Z</time></trkpt><trkpt lat="43.3108681" lon="-4.2304331"><ele>131.0</ele><time>2026-05-02T09:36:59.961Z</time></trkpt><trkpt lat="43.3109068" lon="-4.230297"><ele>131.0</ele><time>2026-05-02T09:37:00.958Z</time></trkpt><trkpt lat="43.310951" lon="-4.2301514"><ele>131.0</ele><time>2026-05-02T09:37:01.963Z</time></trkpt><trkpt lat="43.3109983" lon="-4.2299933"><ele>131.0</ele><time>2026-05-02T09:37:02.96Z</time></trkpt><trkpt lat="43.3110487" lon="-4.2298293"><ele>131.0</ele><time>2026-05-02T09:37:03.962Z</time></trkpt><trkpt lat="43.3111043" lon="-4.2296716"><ele>129.25</ele><time>2026-05-02T09:37:04.956Z</time></trkpt><trkpt lat="43.3111583" lon="-4.2295069"><ele>127.5</ele><time>2026-05-02T09:37:05.959Z</time></trkpt><trkpt lat="43.3112151" lon="-4.2293458"><ele>125.75</ele><time>2026-05-02T09:37:06.957Z</time></trkpt><trkpt lat="43.311274" lon="-4.2291771"><ele>124.0</ele><time>2026-05-02T09:37:07.953Z</time></trkpt><trkpt lat="43.311333" lon="-4.2290048"><ele>124.0</ele><time>2026-05-02T09:37:08.962Z</time></trkpt><trkpt lat="43.3113954" lon="-4.2288317"><ele>124.0</ele><time>2026-05-02T09:37:09.968Z</time></trkpt><trkpt lat="43.3114591" lon="-4.2286485"><ele>124.0</ele><time>2026-05-02T09:37:10.958Z</time></trkpt><trkpt lat="43.3115316" lon="-4.2284664"><ele>124.0</ele><time>2026-05-02T09:37:11.958Z</time></trkpt><trkpt lat="43.3116011" lon="-4.228279"><ele>124.33333333333334</ele><time>2026-05-02T09:37:12.962Z</time></trkpt><trkpt lat="43.3116799" lon="-4.228098"><ele>124.66666666666666</ele><time>2026-05-02T09:37:13.975Z</time></trkpt><trkpt lat="43.3117578" lon="-4.227924"><ele>125.0</ele><time>2026-05-02T09:37:14.961Z</time></trkpt><trkpt lat="43.3118401" lon="-4.2277502"><ele>125.0</ele><time>2026-05-02T09:37:15.963Z</time></trkpt><trkpt lat="43.3119243" lon="-4.227564"><ele>125.0</ele><time>2026-05-02T09:37:16.967Z</time></trkpt><trkpt lat="43.312014" lon="-4.2273737"><ele>125.0</ele><time>2026-05-02T09:37:17.969Z</time></trkpt><trkpt lat="43.3121026" lon="-4.2271966"><ele>125.0</ele><time>2026-05-02T09:37:18.963Z</time></trkpt><trkpt lat="43.3121989" lon="-4.2270105"><ele>125.0</ele><time>2026-05-02T09:37:19.962Z</time></trkpt><trkpt lat="43.3122884" lon="-4.2268241"><ele>125.0</ele><time>2026-05-02T09:37:20.962Z</time></trkpt><trkpt lat="43.3123787" lon="-4.2266301"><ele>124.66666666666666</ele><time>2026-05-02T09:37:21.962Z</time></trkpt><trkpt lat="43.3124678" lon="-4.2264423"><ele>124.33333333333334</ele><time>2026-05-02T09:37:22.962Z</time></trkpt><trkpt lat="43.3125525" lon="-4.2262546"><ele>124.0</ele><time>2026-05-02T09:37:23.954Z</time></trkpt><trkpt lat="43.3126374" lon="-4.2260533"><ele>124.0</ele><time>2026-05-02T09:37:24.962Z</time></trkpt><trkpt lat="43.312718" lon="-4.2258462"><ele>124.0</ele><time>2026-05-02T09:37:25.967Z</time></trkpt><trkpt lat="43.3128079" lon="-4.2256519"><ele>124.0</ele><time>2026-05-02T09:37:26.958Z</time></trkpt><trkpt lat="43.3128978" lon="-4.225465"><ele>123.33333333333334</ele><time>2026-05-02T09:37:27.96Z</time></trkpt><trkpt lat="43.3129927" lon="-4.225277"><ele>122.66666666666666</ele><time>2026-05-02T09:37:28.961Z</time></trkpt><trkpt lat="43.3130863" lon="-4.2250934"><ele>122.0</ele><time>2026-05-02T09:37:29.96Z</time></trkpt><trkpt lat="43.3131836" lon="-4.2249109"><ele>122.33333333333333</ele><time>2026-05-02T09:37:30.96Z</time></trkpt><trkpt lat="43.3132767" lon="-4.2247293"><ele>122.66666666666666</ele><time>2026-05-02T09:37:31.958Z</time></trkpt><trkpt lat="43.3133687" lon="-4.2245313"><ele>123.0</ele><time>2026-05-02T09:37:32.955Z</time></trkpt><trkpt lat="43.3134531" lon="-4.2243331"><ele>123.0</ele><time>2026-05-02T09:37:33.962Z</time></trkpt><trkpt lat="43.3135455" lon="-4.2241482"><ele>123.0</ele><time>2026-05-02T09:37:34.956Z</time></trkpt><trkpt lat="43.3136325" lon="-4.22395"><ele>123.0</ele><time>2026-05-02T09:37:35.956Z</time></trkpt><trkpt lat="43.313709" lon="-4.2237513"><ele>121.66666666666666</ele><time>2026-05-02T09:37:36.953Z</time></trkpt><trkpt lat="43.3137863" lon="-4.2235642"><ele>120.33333333333333</ele><time>2026-05-02T09:37:37.954Z</time></trkpt><trkpt lat="43.3138669" lon="-4.223372"><ele>119.0</ele><time>2026-05-02T09:37:38.953Z</time></trkpt><trkpt lat="43.3139462" lon="-4.2231782"><ele>122.33333333333333</ele><time>2026-05-02T09:37:39.955Z</time></trkpt><trkpt lat="43.3140154" lon="-4.2229852"><ele>125.66666666666666</ele><time>2026-05-02T09:37:40.95Z</time></trkpt><trkpt lat="43.3140869" lon="-4.2227832"><ele>129.0</ele><time>2026-05-02T09:37:41.951Z</time></trkpt><trkpt lat="43.3141589" lon="-4.2225814"><ele>129.0</ele><time>2026-05-02T09:37:42.952Z</time></trkpt><trkpt lat="43.3142238" lon="-4.2223774"><ele>129.0</ele><time>2026-05-02T09:37:43.954Z</time></trkpt><trkpt lat="43.3142791" lon="-4.2221766"><ele>129.0</ele><time>2026-05-02T09:37:44.966Z</time></trkpt><trkpt lat="43.3143435" lon="-4.2219828"><ele>126.0</ele><time>2026-05-02T09:37:45.952Z</time></trkpt><trkpt lat="43.3144113" lon="-4.2217825"><ele>123.0</ele><time>2026-05-02T09:37:46.956Z</time></trkpt><trkpt lat="43.3144762" lon="-4.221573"><ele>120.0</ele><time>2026-05-02T09:37:47.951Z</time></trkpt><trkpt lat="43.3145417" lon="-4.2213729"><ele>118.75</ele><time>2026-05-02T09:37:48.95Z</time></trkpt><trkpt lat="43.3146037" lon="-4.2211789"><ele>117.5</ele><time>2026-05-02T09:37:49.953Z</time></trkpt><trkpt lat="43.3146615" lon="-4.2210002"><ele>116.25</ele><time>2026-05-02T09:37:50.959Z</time></trkpt><trkpt lat="43.3147115" lon="-4.2208268"><ele>115.0</ele><time>2026-05-02T09:37:51.954Z</time></trkpt><trkpt lat="43.3147575" lon="-4.2206596"><ele>118.75</ele><time>2026-05-02T09:37:52.959Z</time></trkpt><trkpt lat="43.314806" lon="-4.2204851"><ele>122.5</ele><time>2026-05-02T09:37:53.95Z</time></trkpt><trkpt lat="43.314852" lon="-4.2203068"><ele>126.25</ele><time>2026-05-02T09:37:54.954Z</time></trkpt><trkpt lat="43.3148945" lon="-4.2201387"><ele>130.0</ele><time>2026-05-02T09:37:55.956Z</time></trkpt><trkpt lat="43.3149433" lon="-4.2199623"><ele>127.25</ele><time>2026-05-02T09:37:56.957Z</time></trkpt><trkpt lat="43.3149946" lon="-4.2197907"><ele>124.5</ele><time>2026-05-02T09:37:57.961Z</time></trkpt><trkpt lat="43.3150491" lon="-4.2196182"><ele>121.75</ele><time>2026-05-02T09:37:58.961Z</time></trkpt><trkpt lat="43.3150987" lon="-4.2194483"><ele>119.0</ele><time>2026-05-02T09:37:59.965Z</time></trkpt><trkpt lat="43.3151621" lon="-4.2192846"><ele>119.0</ele><time>2026-05-02T09:38:00.963Z</time></trkpt><trkpt lat="43.3152237" lon="-4.2191213"><ele>119.0</ele><time>2026-05-02T09:38:01.961Z</time></trkpt><trkpt lat="43.3152797" lon="-4.2189662"><ele>119.0</ele><time>2026-05-02T09:38:02.963Z</time></trkpt><trkpt lat="43.3153394" lon="-4.2188062"><ele>119.0</ele><time>2026-05-02T09:38:03.962Z</time></trkpt><trkpt lat="43.315394" lon="-4.2186544"><ele>118.80000000000001</ele><time>2026-05-02T09:38:04.962Z</time></trkpt><trkpt lat="43.3154452" lon="-4.2185005"><ele>118.60000000000001</ele><time>2026-05-02T09:38:05.964Z</time></trkpt><trkpt lat="43.3154871" lon="-4.218367"><ele>118.4</ele><time>2026-05-02T09:38:06.961Z</time></trkpt><trkpt lat="43.3155258" lon="-4.2182397"><ele>118.2</ele><time>2026-05-02T09:38:07.963Z</time></trkpt><trkpt lat="43.3155609" lon="-4.2181142"><ele>118.0</ele><time>2026-05-02T09:38:08.957Z</time></trkpt><trkpt lat="43.3155971" lon="-4.217995"><ele>119.00000000000001</ele><time>2026-05-02T09:38:09.96Z</time></trkpt><trkpt lat="43.315635" lon="-4.2178799"><ele>120.0</ele><time>2026-05-02T09:38:10.965Z</time></trkpt><trkpt lat="43.31567" lon="-4.2177659"><ele>121.0</ele><time>2026-05-02T09:38:11.962Z</time></trkpt><trkpt lat="43.3157022" lon="-4.2176561"><ele>122.0</ele><time>2026-05-02T09:38:12.965Z</time></trkpt><trkpt lat="43.3157323" lon="-4.2175477"><ele>123.00000000000001</ele><time>2026-05-02T09:38:13.963Z</time></trkpt><trkpt lat="43.3157592" lon="-4.2174412"><ele>124.0</ele><time>2026-05-02T09:38:14.958Z</time></trkpt><trkpt lat="43.3157862" lon="-4.2173403"><ele>123.00000000000001</ele><time>2026-05-02T09:38:15.973Z</time></trkpt><trkpt lat="43.3158149" lon="-4.2172423"><ele>122.0</ele><time>2026-05-02T09:38:16.967Z</time></trkpt><trkpt lat="43.3158426" lon="-4.2171458"><ele>121.0</ele><time>2026-05-02T09:38:17.966Z</time></trkpt><trkpt lat="43.3158663" lon="-4.2170519"><ele>120.0</ele><time>2026-05-02T09:38:18.968Z</time></trkpt><trkpt lat="43.3158857" lon="-4.2169632"><ele>119.00000000000001</ele><time>2026-05-02T09:38:19.968Z</time></trkpt><trkpt lat="43.3159047" lon="-4.2168039"><ele>118.0</ele><time>2026-05-02T09:38:21.97Z</time></trkpt><trkpt lat="43.315904" lon="-4.2166623"><ele>118.00000000000001</ele><time>2026-05-02T09:38:23.971Z</time></trkpt><trkpt lat="43.3159214" lon="-4.2165265"><ele>118.0</ele><time>2026-05-02T09:38:25.969Z</time></trkpt><trkpt lat="43.3159958" lon="-4.2164179"><ele>118.0</ele><time>2026-05-02T09:38:27.968Z</time></trkpt><trkpt lat="43.316049" lon="-4.2163493"><ele>118.0</ele><time>2026-05-02T09:38:28.966Z</time></trkpt><trkpt lat="43.3161031" lon="-4.2162665"><ele>118.00000000000001</ele><time>2026-05-02T09:38:29.968Z</time></trkpt><trkpt lat="43.3161506" lon="-4.2161724"><ele>118.0</ele><time>2026-05-02T09:38:30.972Z</time></trkpt><trkpt lat="43.3161916" lon="-4.2160648"><ele>117.33333333333334</ele><time>2026-05-02T09:38:31.965Z</time></trkpt><trkpt lat="43.3162302" lon="-4.2159532"><ele>116.66666666666667</ele><time>2026-05-02T09:38:32.968Z</time></trkpt><trkpt lat="43.316265" lon="-4.2158387"><ele>116.0</ele><time>2026-05-02T09:38:33.967Z</time></trkpt><trkpt lat="43.3162998" lon="-4.2157286"><ele>115.33333333333334</ele><time>2026-05-02T09:38:34.971Z</time></trkpt><trkpt lat="43.3163328" lon="-4.2156171"><ele>114.66666666666667</ele><time>2026-05-02T09:38:35.972Z</time></trkpt><trkpt lat="43.3163632" lon="-4.2155029"><ele>114.0</ele><time>2026-05-02T09:38:36.972Z</time></trkpt><trkpt lat="43.3163936" lon="-4.2153901"><ele>114.2</ele><time>2026-05-02T09:38:37.971Z</time></trkpt><trkpt lat="43.3164287" lon="-4.2152742"><ele>114.4</ele><time>2026-05-02T09:38:38.972Z</time></trkpt><trkpt lat="43.3164631" lon="-4.2151568"><ele>114.6</ele><time>2026-05-02T09:38:39.972Z</time></trkpt><trkpt lat="43.3164929" lon="-4.2150341"><ele>114.8</ele><time>2026-05-02T09:38:40.968Z</time></trkpt><trkpt lat="43.3165246" lon="-4.2149052"><ele>115.0</ele><time>2026-05-02T09:38:41.966Z</time></trkpt><trkpt lat="43.3165586" lon="-4.2147735"><ele>114.4</ele><time>2026-05-02T09:38:42.969Z</time></trkpt><trkpt lat="43.3165904" lon="-4.2146351"><ele>113.8</ele><time>2026-05-02T09:38:43.971Z</time></trkpt><trkpt lat="43.3166236" lon="-4.2144942"><ele>113.19999999999999</ele><time>2026-05-02T09:38:44.969Z</time></trkpt><trkpt lat="43.3166564" lon="-4.2143489"><ele>112.6</ele><time>2026-05-02T09:38:45.97Z</time></trkpt><trkpt lat="43.3166962" lon="-4.2141966"><ele>112.0</ele><time>2026-05-02T09:38:46.975Z</time></trkpt><trkpt lat="43.3167379" lon="-4.2140365"><ele>112.25</ele><time>2026-05-02T09:38:47.963Z</time></trkpt><trkpt lat="43.3167669" lon="-4.2138828"><ele>112.5</ele><time>2026-05-02T09:38:48.959Z</time></trkpt><trkpt lat="43.3168026" lon="-4.2137313"><ele>112.75</ele><time>2026-05-02T09:38:49.958Z</time></trkpt><trkpt lat="43.3168347" lon="-4.2135779"><ele>113.0</ele><time>2026-05-02T09:38:50.965Z</time></trkpt><trkpt lat="43.3168651" lon="-4.2134232"><ele>113.0</ele><time>2026-05-02T09:38:51.966Z</time></trkpt><trkpt lat="43.3169006" lon="-4.2132618"><ele>113.0</ele><time>2026-05-02T09:38:52.973Z</time></trkpt><trkpt lat="43.3169428" lon="-4.2130912"><ele>113.0</ele><time>2026-05-02T09:38:53.968Z</time></trkpt><trkpt lat="43.3169884" lon="-4.212916"><ele>113.0</ele><time>2026-05-02T09:38:54.97Z</time></trkpt><trkpt lat="43.317034" lon="-4.2127442"><ele>112.75</ele><time>2026-05-02T09:38:55.971Z</time></trkpt><trkpt lat="43.3170881" lon="-4.2125727"><ele>112.5</ele><time>2026-05-02T09:38:56.969Z</time></trkpt><trkpt lat="43.3171389" lon="-4.2124029"><ele>112.25</ele><time>2026-05-02T09:38:57.967Z</time></trkpt><trkpt lat="43.3172" lon="-4.2122283"><ele>112.0</ele><time>2026-05-02T09:38:58.972Z</time></trkpt><trkpt lat="43.3172589" lon="-4.2120612"><ele>112.0</ele><time>2026-05-02T09:38:59.969Z</time></trkpt><trkpt lat="43.31732" lon="-4.211889"><ele>112.0</ele><time>2026-05-02T09:39:00.968Z</time></trkpt><trkpt lat="43.3173886" lon="-4.2117123"><ele>112.0</ele><time>2026-05-02T09:39:01.967Z</time></trkpt><trkpt lat="43.3174577" lon="-4.2115396"><ele>112.0</ele><time>2026-05-02T09:39:02.97Z</time></trkpt><trkpt lat="43.3175252" lon="-4.2113636"><ele>111.75</ele><time>2026-05-02T09:39:03.974Z</time></trkpt><trkpt lat="43.3175934" lon="-4.2111834"><ele>111.5</ele><time>2026-05-02T09:39:04.97Z</time></trkpt><trkpt lat="43.3176552" lon="-4.2110065"><ele>111.25</ele><time>2026-05-02T09:39:05.971Z</time></trkpt><trkpt lat="43.3177178" lon="-4.2108198"><ele>111.0</ele><time>2026-05-02T09:39:06.969Z</time></trkpt><trkpt lat="43.317776" lon="-4.2106367"><ele>111.0</ele><time>2026-05-02T09:39:07.971Z</time></trkpt><trkpt lat="43.3178354" lon="-4.2104534"><ele>111.0</ele><time>2026-05-02T09:39:08.969Z</time></trkpt><trkpt lat="43.3178965" lon="-4.2102646"><ele>111.0</ele><time>2026-05-02T09:39:09.971Z</time></trkpt><trkpt lat="43.3179483" lon="-4.2100737"><ele>111.0</ele><time>2026-05-02T09:39:10.97Z</time></trkpt><trkpt lat="43.3180003" lon="-4.2098838"><ele>110.0</ele><time>2026-05-02T09:39:11.971Z</time></trkpt><trkpt lat="43.318047" lon="-4.2096935"><ele>109.0</ele><time>2026-05-02T09:39:12.971Z</time></trkpt><trkpt lat="43.3180885" lon="-4.2094935"><ele>108.0</ele><time>2026-05-02T09:39:13.97Z</time></trkpt><trkpt lat="43.3181235" lon="-4.2092887"><ele>110.25</ele><time>2026-05-02T09:39:14.968Z</time></trkpt><trkpt lat="43.3181723" lon="-4.2090921"><ele>112.5</ele><time>2026-05-02T09:39:15.966Z</time></trkpt><trkpt lat="43.318215" lon="-4.2089015"><ele>114.75</ele><time>2026-05-02T09:39:16.97Z</time></trkpt><trkpt lat="43.3182596" lon="-4.2087088"><ele>117.0</ele><time>2026-05-02T09:39:17.981Z</time></trkpt><trkpt lat="43.31831" lon="-4.2085129"><ele>117.0</ele><time>2026-05-02T09:39:18.967Z</time></trkpt><trkpt lat="43.3183492" lon="-4.2083202"><ele>117.0</ele><time>2026-05-02T09:39:19.965Z</time></trkpt><trkpt lat="43.318386" lon="-4.2081295"><ele>117.0</ele><time>2026-05-02T09:39:20.971Z</time></trkpt><trkpt lat="43.3184196" lon="-4.207943"><ele>117.0</ele><time>2026-05-02T09:39:21.968Z</time></trkpt><trkpt lat="43.3184502" lon="-4.2077587"><ele>115.5</ele><time>2026-05-02T09:39:22.971Z</time></trkpt><trkpt lat="43.318477" lon="-4.2075708"><ele>114.0</ele><time>2026-05-02T09:39:23.97Z</time></trkpt><trkpt lat="43.3185109" lon="-4.2073834"><ele>112.5</ele><time>2026-05-02T09:39:24.975Z</time></trkpt><trkpt lat="43.3185493" lon="-4.2071955"><ele>111.0</ele><time>2026-05-02T09:39:25.962Z</time></trkpt><trkpt lat="43.3185899" lon="-4.2069979"><ele>110.75</ele><time>2026-05-02T09:39:26.962Z</time></trkpt><trkpt lat="43.3186209" lon="-4.2068076"><ele>110.5</ele><time>2026-05-02T09:39:27.963Z</time></trkpt><trkpt lat="43.3186611" lon="-4.2066225"><ele>110.25</ele><time>2026-05-02T09:39:28.965Z</time></trkpt><trkpt lat="43.3186962" lon="-4.20643"><ele>110.0</ele><time>2026-05-02T09:39:29.967Z</time></trkpt><trkpt lat="43.3187334" lon="-4.206235"><ele>111.75</ele><time>2026-05-02T09:39:30.965Z</time></trkpt><trkpt lat="43.3187752" lon="-4.2060432"><ele>113.5</ele><time>2026-05-02T09:39:31.961Z</time></trkpt><trkpt lat="43.3188262" lon="-4.2058565"><ele>115.25</ele><time>2026-05-02T09:39:32.96Z</time></trkpt><trkpt lat="43.3188711" lon="-4.2056711"><ele>117.0</ele><time>2026-05-02T09:39:33.958Z</time></trkpt><trkpt lat="43.318917" lon="-4.205487"><ele>115.75</ele><time>2026-05-02T09:39:34.956Z</time></trkpt><trkpt lat="43.3189708" lon="-4.2052946"><ele>114.5</ele><time>2026-05-02T09:39:35.958Z</time></trkpt><trkpt lat="43.3190229" lon="-4.2051108"><ele>113.25</ele><time>2026-05-02T09:39:36.965Z</time></trkpt><trkpt lat="43.3190783" lon="-4.2049237"><ele>112.0</ele><time>2026-05-02T09:39:37.965Z</time></trkpt><trkpt lat="43.3191323" lon="-4.2047407"><ele>112.0</ele><time>2026-05-02T09:39:38.954Z</time></trkpt><trkpt lat="43.3191842" lon="-4.2045586"><ele>112.0</ele><time>2026-05-02T09:39:39.957Z</time></trkpt><trkpt lat="43.3192308" lon="-4.2043734"><ele>112.0</ele><time>2026-05-02T09:39:40.962Z</time></trkpt><trkpt lat="43.3192789" lon="-4.2041831"><ele>112.0</ele><time>2026-05-02T09:39:41.959Z</time></trkpt><trkpt lat="43.3193245" lon="-4.2039927"><ele>110.75</ele><time>2026-05-02T09:39:42.96Z</time></trkpt><trkpt lat="43.3193657" lon="-4.2037948"><ele>109.5</ele><time>2026-05-02T09:39:43.967Z</time></trkpt><trkpt lat="43.319404" lon="-4.2036064"><ele>108.25</ele><time>2026-05-02T09:39:44.957Z</time></trkpt><trkpt lat="43.3194471" lon="-4.2034162"><ele>107.0</ele><time>2026-05-02T09:39:45.961Z</time></trkpt><trkpt lat="43.319485" lon="-4.2032232"><ele>107.25</ele><time>2026-05-02T09:39:46.961Z</time></trkpt><trkpt lat="43.3195225" lon="-4.203032"><ele>107.5</ele><time>2026-05-02T09:39:47.958Z</time></trkpt><trkpt lat="43.3195573" lon="-4.2028468"><ele>107.75</ele><time>2026-05-02T09:39:48.976Z</time></trkpt><trkpt lat="43.3195879" lon="-4.2026589"><ele>108.0</ele><time>2026-05-02T09:39:49.958Z</time></trkpt><trkpt lat="43.3196238" lon="-4.2024628"><ele>108.0</ele><time>2026-05-02T09:39:50.96Z</time></trkpt><trkpt lat="43.3196513" lon="-4.2022749"><ele>108.0</ele><time>2026-05-02T09:39:51.963Z</time></trkpt><trkpt lat="43.3196794" lon="-4.2020893"><ele>108.0</ele><time>2026-05-02T09:39:52.966Z</time></trkpt><trkpt lat="43.3197112" lon="-4.2019113"><ele>108.0</ele><time>2026-05-02T09:39:53.961Z</time></trkpt><trkpt lat="43.319732" lon="-4.201714"><ele>112.25</ele><time>2026-05-02T09:39:54.965Z</time></trkpt><trkpt lat="43.3197564" lon="-4.2015266"><ele>116.5</ele><time>2026-05-02T09:39:55.965Z</time></trkpt><trkpt lat="43.3197773" lon="-4.20133"><ele>120.75</ele><time>2026-05-02T09:39:56.96Z</time></trkpt><trkpt lat="43.3198048" lon="-4.2011439"><ele>125.0</ele><time>2026-05-02T09:39:57.957Z</time></trkpt><trkpt lat="43.3198161" lon="-4.2009482"><ele>125.0</ele><time>2026-05-02T09:39:58.959Z</time></trkpt><trkpt lat="43.3198308" lon="-4.2007637"><ele>125.0</ele><time>2026-05-02T09:39:59.959Z</time></trkpt><trkpt lat="43.3198635" lon="-4.2005754"><ele>125.0</ele><time>2026-05-02T09:40:00.961Z</time></trkpt><trkpt lat="43.3198908" lon="-4.2003839"><ele>125.0</ele><time>2026-05-02T09:40:01.959Z</time></trkpt><trkpt lat="43.319911" lon="-4.2001907"><ele>122.75</ele><time>2026-05-02T09:40:02.959Z</time></trkpt><trkpt lat="43.3199468" lon="-4.1999971"><ele>120.5</ele><time>2026-05-02T09:40:03.958Z</time></trkpt><trkpt lat="43.3199914" lon="-4.199795"><ele>118.25</ele><time>2026-05-02T09:40:04.958Z</time></trkpt><trkpt lat="43.3200335" lon="-4.1996038"><ele>116.0</ele><time>2026-05-02T09:40:05.958Z</time></trkpt><trkpt lat="43.3200834" lon="-4.1994185"><ele>114.5</ele><time>2026-05-02T09:40:06.961Z</time></trkpt><trkpt lat="43.3201382" lon="-4.1992363"><ele>113.0</ele><time>2026-05-02T09:40:07.959Z</time></trkpt><trkpt lat="43.320199" lon="-4.1990534"><ele>111.5</ele><time>2026-05-02T09:40:08.959Z</time></trkpt><trkpt lat="43.320253" lon="-4.1988726"><ele>110.0</ele><time>2026-05-02T09:40:09.96Z</time></trkpt><trkpt lat="43.3203064" lon="-4.1986941"><ele>108.75</ele><time>2026-05-02T09:40:10.957Z</time></trkpt><trkpt lat="43.320359" lon="-4.1985052"><ele>107.5</ele><time>2026-05-02T09:40:11.958Z</time></trkpt><trkpt lat="43.3204063" lon="-4.198307"><ele>106.25</ele><time>2026-05-02T09:40:12.956Z</time></trkpt><trkpt lat="43.3204553" lon="-4.1981181"><ele>105.0</ele><time>2026-05-02T09:40:13.961Z</time></trkpt><trkpt lat="43.3205053" lon="-4.197937"><ele>104.25</ele><time>2026-05-02T09:40:14.959Z</time></trkpt><trkpt lat="43.320557" lon="-4.1977493"><ele>103.5</ele><time>2026-05-02T09:40:15.961Z</time></trkpt><trkpt lat="43.3206098" lon="-4.1975644"><ele>102.75</ele><time>2026-05-02T09:40:16.963Z</time></trkpt><trkpt lat="43.3206646" lon="-4.1973719"><ele>102.0</ele><time>2026-05-02T09:40:17.959Z</time></trkpt><trkpt lat="43.3207085" lon="-4.1971689"><ele>104.25</ele><time>2026-05-02T09:40:18.955Z</time></trkpt><trkpt lat="43.3207477" lon="-4.1969686"><ele>106.5</ele><time>2026-05-02T09:40:19.969Z</time></trkpt><trkpt lat="43.3207696" lon="-4.1967709"><ele>108.75</ele><time>2026-05-02T09:40:20.964Z</time></trkpt><trkpt lat="43.3207955" lon="-4.1965665"><ele>111.0</ele><time>2026-05-02T09:40:21.952Z</time></trkpt><trkpt lat="43.3208166" lon="-4.1963638"><ele>110.75</ele><time>2026-05-02T09:40:22.965Z</time></trkpt><trkpt lat="43.320836" lon="-4.1961636"><ele>110.5</ele><time>2026-05-02T09:40:23.956Z</time></trkpt><trkpt lat="43.3208522" lon="-4.1959636"><ele>110.25</ele><time>2026-05-02T09:40:24.957Z</time></trkpt><trkpt lat="43.3208697" lon="-4.1957722"><ele>110.0</ele><time>2026-05-02T09:40:25.958Z</time></trkpt><trkpt lat="43.320885" lon="-4.1955753"><ele>110.0</ele><time>2026-05-02T09:40:26.958Z</time></trkpt><trkpt lat="43.3209013" lon="-4.1953795"><ele>110.0</ele><time>2026-05-02T09:40:27.962Z</time></trkpt><trkpt lat="43.320917" lon="-4.1951978"><ele>110.0</ele><time>2026-05-02T09:40:28.959Z</time></trkpt><trkpt lat="43.3209331" lon="-4.1950038"><ele>110.0</ele><time>2026-05-02T09:40:29.96Z</time></trkpt><trkpt lat="43.3209517" lon="-4.1948157"><ele>109.25</ele><time>2026-05-02T09:40:30.962Z</time></trkpt><trkpt lat="43.3209723" lon="-4.1946313"><ele>108.5</ele><time>2026-05-02T09:40:31.963Z</time></trkpt><trkpt lat="43.3209995" lon="-4.1944419"><ele>107.75</ele><time>2026-05-02T09:40:32.961Z</time></trkpt><trkpt lat="43.3210314" lon="-4.1942675"><ele>107.0</ele><time>2026-05-02T09:40:33.963Z</time></trkpt><trkpt lat="43.3210727" lon="-4.1940968"><ele>105.75</ele><time>2026-05-02T09:40:34.968Z</time></trkpt><trkpt lat="43.3211293" lon="-4.1939257"><ele>104.5</ele><time>2026-05-02T09:40:35.967Z</time></trkpt><trkpt lat="43.3212008" lon="-4.1937626"><ele>103.25</ele><time>2026-05-02T09:40:36.968Z</time></trkpt><trkpt lat="43.3212838" lon="-4.1936089"><ele>102.0</ele><time>2026-05-02T09:40:37.968Z</time></trkpt><trkpt lat="43.3213734" lon="-4.1934832"><ele>102.8</ele><time>2026-05-02T09:40:38.969Z</time></trkpt><trkpt lat="43.3214724" lon="-4.193384"><ele>103.6</ele><time>2026-05-02T09:40:39.966Z</time></trkpt><trkpt lat="43.3215762" lon="-4.1933042"><ele>104.39999999999999</ele><time>2026-05-02T09:40:40.961Z</time></trkpt><trkpt lat="43.3216816" lon="-4.1932517"><ele>105.19999999999999</ele><time>2026-05-02T09:40:41.97Z</time></trkpt><trkpt lat="43.3217688" lon="-4.193215"><ele>106.0</ele><time>2026-05-02T09:40:42.968Z</time></trkpt><trkpt lat="43.3218378" lon="-4.1931836"><ele>104.66666666666667</ele><time>2026-05-02T09:40:43.975Z</time></trkpt><trkpt lat="43.3219049" lon="-4.1931557"><ele>103.33333333333334</ele><time>2026-05-02T09:40:44.975Z</time></trkpt><trkpt lat="43.3219684" lon="-4.1931087"><ele>102.0</ele><time>2026-05-02T09:40:45.974Z</time></trkpt><trkpt lat="43.3220216" lon="-4.1930559"><ele>100.66666666666666</ele><time>2026-05-02T09:40:46.98Z</time></trkpt><trkpt lat="43.3220629" lon="-4.1929106"><ele>99.33333333333333</ele><time>2026-05-02T09:40:48.975Z</time></trkpt><trkpt lat="43.3219961" lon="-4.192772"><ele>98.0</ele><time>2026-05-02T09:40:50.988Z</time></trkpt><trkpt lat="43.3219502" lon="-4.1927038"><ele>97.99999999999999</ele><time>2026-05-02T09:40:51.965Z</time></trkpt><trkpt lat="43.3219083" lon="-4.1926137"><ele>98.0</ele><time>2026-05-02T09:40:52.965Z</time></trkpt><trkpt lat="43.3218532" lon="-4.1925259"><ele>98.0</ele><time>2026-05-02T09:40:53.966Z</time></trkpt><trkpt lat="43.3217933" lon="-4.1924611"><ele>98.0</ele><time>2026-05-02T09:40:54.965Z</time></trkpt><trkpt lat="43.3217394" lon="-4.1924003"><ele>97.99999999999999</ele><time>2026-05-02T09:40:55.974Z</time></trkpt><trkpt lat="43.3216812" lon="-4.1923143"><ele>98.0</ele><time>2026-05-02T09:40:56.961Z</time></trkpt><trkpt lat="43.3216136" lon="-4.1922189"><ele>98.0</ele><time>2026-05-02T09:40:57.967Z</time></trkpt><trkpt lat="43.3215502" lon="-4.1921355"><ele>98.0</ele><time>2026-05-02T09:40:58.962Z</time></trkpt><trkpt lat="43.3214809" lon="-4.1920355"><ele>98.0</ele><time>2026-05-02T09:40:59.964Z</time></trkpt><trkpt lat="43.321409" lon="-4.1919311"><ele>98.0</ele><time>2026-05-02T09:41:00.97Z</time></trkpt><trkpt lat="43.3213341" lon="-4.1918264"><ele>98.0</ele><time>2026-05-02T09:41:01.962Z</time></trkpt><trkpt lat="43.3212657" lon="-4.1917144"><ele>98.2</ele><time>2026-05-02T09:41:02.967Z</time></trkpt><trkpt lat="43.3212118" lon="-4.1916059"><ele>98.4</ele><time>2026-05-02T09:41:03.96Z</time></trkpt><trkpt lat="43.3211613" lon="-4.1915006"><ele>98.60000000000001</ele><time>2026-05-02T09:41:04.958Z</time></trkpt><trkpt lat="43.3210704" lon="-4.1913974"><ele>98.80000000000001</ele><time>2026-05-02T09:41:05.953Z</time></trkpt><trkpt lat="43.3209636" lon="-4.1912965"><ele>99.0</ele><time>2026-05-02T09:41:06.954Z</time></trkpt><trkpt lat="43.3208676" lon="-4.1911977"><ele>99.0</ele><time>2026-05-02T09:41:07.954Z</time></trkpt><trkpt lat="43.3207672" lon="-4.1911218"><ele>99.0</ele><time>2026-05-02T09:41:08.947Z</time></trkpt><trkpt lat="43.3206535" lon="-4.1910644"><ele>99.0</ele><time>2026-05-02T09:41:09.959Z</time></trkpt><trkpt lat="43.3205416" lon="-4.1910469"><ele>99.0</ele><time>2026-05-02T09:41:10.958Z</time></trkpt><trkpt lat="43.3204345" lon="-4.1910513"><ele>99.0</ele><time>2026-05-02T09:41:11.966Z</time></trkpt><trkpt lat="43.3203302" lon="-4.1910533"><ele>99.0</ele><time>2026-05-02T09:41:12.962Z</time></trkpt><trkpt lat="43.3202319" lon="-4.1910777"><ele>99.0</ele><time>2026-05-02T09:41:13.966Z</time></trkpt><trkpt lat="43.3201391" lon="-4.1910983"><ele>99.0</ele><time>2026-05-02T09:41:14.963Z</time></trkpt><trkpt lat="43.320034" lon="-4.1911331"><ele>99.0</ele><time>2026-05-02T09:41:15.961Z</time></trkpt><trkpt lat="43.3199283" lon="-4.1911712"><ele>99.0</ele><time>2026-05-02T09:41:16.966Z</time></trkpt><trkpt lat="43.319825" lon="-4.1912031"><ele>99.0</ele><time>2026-05-02T09:41:17.965Z</time></trkpt><trkpt lat="43.3197229" lon="-4.1912229"><ele>99.0</ele><time>2026-05-02T09:41:18.96Z</time></trkpt><trkpt lat="43.3196185" lon="-4.1912278"><ele>99.0</ele><time>2026-05-02T09:41:19.96Z</time></trkpt><trkpt lat="43.3195099" lon="-4.1912182"><ele>99.0</ele><time>2026-05-02T09:41:20.964Z</time></trkpt><trkpt lat="43.3194052" lon="-4.1912039"><ele>99.4</ele><time>2026-05-02T09:41:21.98Z</time></trkpt><trkpt lat="43.3193019" lon="-4.1911878"><ele>99.80000000000001</ele><time>2026-05-02T09:41:22.966Z</time></trkpt><trkpt lat="43.3192041" lon="-4.1911681"><ele>100.19999999999999</ele><time>2026-05-02T09:41:23.964Z</time></trkpt><trkpt lat="43.3191054" lon="-4.1911623"><ele>100.6</ele><time>2026-05-02T09:41:24.969Z</time></trkpt><trkpt lat="43.3190116" lon="-4.1911636"><ele>101.0</ele><time>2026-05-02T09:41:25.97Z</time></trkpt><trkpt lat="43.3189215" lon="-4.1911684"><ele>101.4</ele><time>2026-05-02T09:41:26.963Z</time></trkpt><trkpt lat="43.3188266" lon="-4.1911782"><ele>101.8</ele><time>2026-05-02T09:41:27.962Z</time></trkpt><trkpt lat="43.3187291" lon="-4.1912053"><ele>102.2</ele><time>2026-05-02T09:41:28.964Z</time></trkpt><trkpt lat="43.3186288" lon="-4.1912397"><ele>102.60000000000001</ele><time>2026-05-02T09:41:29.966Z</time></trkpt><trkpt lat="43.3185253" lon="-4.1912786"><ele>103.0</ele><time>2026-05-02T09:41:30.964Z</time></trkpt><trkpt lat="43.3184231" lon="-4.1913286"><ele>103.0</ele><time>2026-05-02T09:41:31.966Z</time></trkpt><trkpt lat="43.3183161" lon="-4.1913809"><ele>103.0</ele><time>2026-05-02T09:41:32.968Z</time></trkpt><trkpt lat="43.3182102" lon="-4.191431"><ele>103.0</ele><time>2026-05-02T09:41:33.964Z</time></trkpt><trkpt lat="43.3181034" lon="-4.191471"><ele>103.0</ele><time>2026-05-02T09:41:34.96Z</time></trkpt><trkpt lat="43.3179966" lon="-4.1915037"><ele>103.0</ele><time>2026-05-02T09:41:35.961Z</time></trkpt><trkpt lat="43.3178909" lon="-4.1915247"><ele>102.80000000000001</ele><time>2026-05-02T09:41:36.964Z</time></trkpt><trkpt lat="43.3177907" lon="-4.1915292"><ele>102.6</ele><time>2026-05-02T09:41:37.962Z</time></trkpt><trkpt lat="43.3176922" lon="-4.1915358"><ele>102.4</ele><time>2026-05-02T09:41:38.966Z</time></trkpt><trkpt lat="43.3175992" lon="-4.1915455"><ele>102.19999999999999</ele><time>2026-05-02T09:41:39.964Z</time></trkpt><trkpt lat="43.3175046" lon="-4.1915619"><ele>102.0</ele><time>2026-05-02T09:41:40.969Z</time></trkpt><trkpt lat="43.3174104" lon="-4.1915834"><ele>102.0</ele><time>2026-05-02T09:41:41.968Z</time></trkpt><trkpt lat="43.3173142" lon="-4.1916096"><ele>102.0</ele><time>2026-05-02T09:41:42.969Z</time></trkpt><trkpt lat="43.317217" lon="-4.1916477"><ele>102.0</ele><time>2026-05-02T09:41:43.973Z</time></trkpt><trkpt lat="43.3171267" lon="-4.1917038"><ele>102.0</ele><time>2026-05-02T09:41:44.97Z</time></trkpt><trkpt lat="43.3170413" lon="-4.1917606"><ele>102.0</ele><time>2026-05-02T09:41:45.965Z</time></trkpt><trkpt lat="43.3169596" lon="-4.1918256"><ele>102.33333333333333</ele><time>2026-05-02T09:41:46.97Z</time></trkpt><trkpt lat="43.3168897" lon="-4.191881"><ele>102.66666666666666</ele><time>2026-05-02T09:41:47.964Z</time></trkpt><trkpt lat="43.3168286" lon="-4.1919284"><ele>103.0</ele><time>2026-05-02T09:41:48.961Z</time></trkpt><trkpt lat="43.3167732" lon="-4.1919698"><ele>103.33333333333333</ele><time>2026-05-02T09:41:49.962Z</time></trkpt><trkpt lat="43.3166974" lon="-4.1920246"><ele>103.66666666666666</ele><time>2026-05-02T09:41:51.963Z</time></trkpt><trkpt lat="43.3166144" lon="-4.1920404"><ele>104.0</ele><time>2026-05-02T09:42:01.958Z</time></trkpt><trkpt lat="43.316535" lon="-4.1919925"><ele>104.0</ele><time>2026-05-02T09:42:03.96Z</time></trkpt><trkpt lat="43.3164771" lon="-4.1918485"><ele>104.0</ele><time>2026-05-02T09:42:05.961Z</time></trkpt><trkpt lat="43.3164628" lon="-4.1917477"><ele>104.0</ele><time>2026-05-02T09:42:06.961Z</time></trkpt><trkpt lat="43.3164484" lon="-4.1916284"><ele>104.0</ele><time>2026-05-02T09:42:07.96Z</time></trkpt><trkpt lat="43.3164247" lon="-4.1915083"><ele>104.0</ele><time>2026-05-02T09:42:08.97Z</time></trkpt><trkpt lat="43.3163911" lon="-4.1913847"><ele>104.80000000000001</ele><time>2026-05-02T09:42:09.966Z</time></trkpt><trkpt lat="43.316346" lon="-4.1912526"><ele>105.60000000000001</ele><time>2026-05-02T09:42:10.966Z</time></trkpt><trkpt lat="43.3163026" lon="-4.1911216"><ele>106.4</ele><time>2026-05-02T09:42:11.97Z</time></trkpt><trkpt lat="43.3162586" lon="-4.1909818"><ele>107.2</ele><time>2026-05-02T09:42:12.968Z</time></trkpt><trkpt lat="43.3162206" lon="-4.1908455"><ele>108.0</ele><time>2026-05-02T09:42:13.966Z</time></trkpt><trkpt lat="43.3161896" lon="-4.1906991"><ele>108.25</ele><time>2026-05-02T09:42:14.965Z</time></trkpt><trkpt lat="43.3161698" lon="-4.19055"><ele>108.5</ele><time>2026-05-02T09:42:15.966Z</time></trkpt><trkpt lat="43.3161577" lon="-4.1903989"><ele>108.75</ele><time>2026-05-02T09:42:16.967Z</time></trkpt><trkpt lat="43.3161585" lon="-4.190241"><ele>109.0</ele><time>2026-05-02T09:42:17.969Z</time></trkpt><trkpt lat="43.316158" lon="-4.1900807"><ele>109.0</ele><time>2026-05-02T09:42:18.967Z</time></trkpt><trkpt lat="43.3161604" lon="-4.1899132"><ele>109.0</ele><time>2026-05-02T09:42:19.969Z</time></trkpt><trkpt lat="43.3161558" lon="-4.1897424"><ele>109.0</ele><time>2026-05-02T09:42:20.968Z</time></trkpt><trkpt lat="43.3161434" lon="-4.189569"><ele>109.0</ele><time>2026-05-02T09:42:21.964Z</time></trkpt><trkpt lat="43.3161266" lon="-4.1893923"><ele>109.0</ele><time>2026-05-02T09:42:22.984Z</time></trkpt><trkpt lat="43.3161028" lon="-4.1892145"><ele>109.0</ele><time>2026-05-02T09:42:23.967Z</time></trkpt><trkpt lat="43.3160752" lon="-4.1890314"><ele>109.0</ele><time>2026-05-02T09:42:24.974Z</time></trkpt><trkpt lat="43.3160406" lon="-4.1888447"><ele>109.0</ele><time>2026-05-02T09:42:25.972Z</time></trkpt><trkpt lat="43.3160105" lon="-4.1886719"><ele>109.0</ele><time>2026-05-02T09:42:26.968Z</time></trkpt><trkpt lat="43.3159811" lon="-4.1885083"><ele>109.0</ele><time>2026-05-02T09:42:27.965Z</time></trkpt><trkpt lat="43.3159344" lon="-4.1883568"><ele>109.0</ele><time>2026-05-02T09:42:28.968Z</time></trkpt><trkpt lat="43.3158723" lon="-4.188223"><ele>109.0</ele><time>2026-05-02T09:42:29.967Z</time></trkpt><trkpt lat="43.3157886" lon="-4.188117"><ele>109.0</ele><time>2026-05-02T09:42:30.968Z</time></trkpt><trkpt lat="43.3156884" lon="-4.1880286"><ele>109.0</ele><time>2026-05-02T09:42:31.967Z</time></trkpt><trkpt lat="43.31558" lon="-4.1879396"><ele>109.0</ele><time>2026-05-02T09:42:32.969Z</time></trkpt><trkpt lat="43.3154725" lon="-4.1878536"><ele>109.0</ele><time>2026-05-02T09:42:33.97Z</time></trkpt><trkpt lat="43.3153653" lon="-4.1877748"><ele>109.2</ele><time>2026-05-02T09:42:34.97Z</time></trkpt><trkpt lat="43.3152665" lon="-4.1876909"><ele>109.4</ele><time>2026-05-02T09:42:35.973Z</time></trkpt><trkpt lat="43.3151811" lon="-4.1875893"><ele>109.6</ele><time>2026-05-02T09:42:36.973Z</time></trkpt><trkpt lat="43.3151173" lon="-4.1874748"><ele>109.8</ele><time>2026-05-02T09:42:37.977Z</time></trkpt><trkpt lat="43.3150808" lon="-4.1873378"><ele>110.0</ele><time>2026-05-02T09:42:38.976Z</time></trkpt><trkpt lat="43.3150734" lon="-4.1871882"><ele>110.4</ele><time>2026-05-02T09:42:39.974Z</time></trkpt><trkpt lat="43.3150835" lon="-4.1870389"><ele>110.8</ele><time>2026-05-02T09:42:40.969Z</time></trkpt><trkpt lat="43.3151094" lon="-4.1868936"><ele>111.19999999999999</ele><time>2026-05-02T09:42:41.974Z</time></trkpt><trkpt lat="43.3151449" lon="-4.1867486"><ele>111.6</ele><time>2026-05-02T09:42:42.976Z</time></trkpt><trkpt lat="43.31518" lon="-4.1865922"><ele>112.0</ele><time>2026-05-02T09:42:43.972Z</time></trkpt><trkpt lat="43.3152164" lon="-4.186424"><ele>112.0</ele><time>2026-05-02T09:42:44.973Z</time></trkpt><trkpt lat="43.3152442" lon="-4.1862574"><ele>112.0</ele><time>2026-05-02T09:42:45.982Z</time></trkpt><trkpt lat="43.3152647" lon="-4.1860836"><ele>112.0</ele><time>2026-05-02T09:42:46.973Z</time></trkpt><trkpt lat="43.3152821" lon="-4.1859016"><ele>112.0</ele><time>2026-05-02T09:42:47.969Z</time></trkpt><trkpt lat="43.3152959" lon="-4.1857153"><ele>112.25</ele><time>2026-05-02T09:42:48.972Z</time></trkpt><trkpt lat="43.3153075" lon="-4.1855251"><ele>112.5</ele><time>2026-05-02T09:42:49.968Z</time></trkpt><trkpt lat="43.3153164" lon="-4.1853338"><ele>112.75</ele><time>2026-05-02T09:42:50.971Z</time></trkpt><trkpt lat="43.3153234" lon="-4.1851375"><ele>113.0</ele><time>2026-05-02T09:42:51.97Z</time></trkpt><trkpt lat="43.3153285" lon="-4.1849391"><ele>112.75</ele><time>2026-05-02T09:42:52.971Z</time></trkpt><trkpt lat="43.3153389" lon="-4.1847382"><ele>112.5</ele><time>2026-05-02T09:42:53.983Z</time></trkpt><trkpt lat="43.3153486" lon="-4.1845386"><ele>112.25</ele><time>2026-05-02T09:42:54.974Z</time></trkpt><trkpt lat="43.3153591" lon="-4.1843326"><ele>112.0</ele><time>2026-05-02T09:42:55.976Z</time></trkpt><trkpt lat="43.3153725" lon="-4.1841293"><ele>112.33333333333334</ele><time>2026-05-02T09:42:56.973Z</time></trkpt><trkpt lat="43.3153799" lon="-4.1839248"><ele>112.66666666666666</ele><time>2026-05-02T09:42:57.979Z</time></trkpt><trkpt lat="43.3153836" lon="-4.1837118"><ele>113.0</ele><time>2026-05-02T09:42:58.976Z</time></trkpt><trkpt lat="43.3153915" lon="-4.1835008"><ele>113.0</ele><time>2026-05-02T09:42:59.972Z</time></trkpt><trkpt lat="43.3153971" lon="-4.183303"><ele>113.0</ele><time>2026-05-02T09:43:00.972Z</time></trkpt><trkpt lat="43.3154018" lon="-4.183108"><ele>113.0</ele><time>2026-05-02T09:43:01.971Z</time></trkpt><trkpt lat="43.315406" lon="-4.182919"><ele>113.0</ele><time>2026-05-02T09:43:02.975Z</time></trkpt><trkpt lat="43.3154253" lon="-4.182717"><ele>113.0</ele><time>2026-05-02T09:43:03.973Z</time></trkpt><trkpt lat="43.3154533" lon="-4.18252"><ele>113.0</ele><time>2026-05-02T09:43:04.969Z</time></trkpt><trkpt lat="43.3154804" lon="-4.1823241"><ele>113.0</ele><time>2026-05-02T09:43:05.968Z</time></trkpt><trkpt lat="43.3155062" lon="-4.1821254"><ele>113.0</ele><time>2026-05-02T09:43:06.971Z</time></trkpt><trkpt lat="43.3155405" lon="-4.1819297"><ele>111.5</ele><time>2026-05-02T09:43:07.97Z</time></trkpt><trkpt lat="43.3155728" lon="-4.1817306"><ele>110.0</ele><time>2026-05-02T09:43:08.971Z</time></trkpt><trkpt lat="43.3156031" lon="-4.1815451"><ele>108.5</ele><time>2026-05-02T09:43:09.97Z</time></trkpt><trkpt lat="43.3156389" lon="-4.1813617"><ele>107.0</ele><time>2026-05-02T09:43:10.974Z</time></trkpt><trkpt lat="43.315668" lon="-4.1811807"><ele>107.0</ele><time>2026-05-02T09:43:11.974Z</time></trkpt><trkpt lat="43.3156997" lon="-4.1809957"><ele>107.0</ele><time>2026-05-02T09:43:12.973Z</time></trkpt><trkpt lat="43.3157277" lon="-4.1808165"><ele>107.0</ele><time>2026-05-02T09:43:13.974Z</time></trkpt><trkpt lat="43.3157568" lon="-4.1806346"><ele>107.0</ele><time>2026-05-02T09:43:14.975Z</time></trkpt><trkpt lat="43.3157874" lon="-4.1804555"><ele>106.25</ele><time>2026-05-02T09:43:15.977Z</time></trkpt><trkpt lat="43.3158167" lon="-4.1802749"><ele>105.5</ele><time>2026-05-02T09:43:16.976Z</time></trkpt><trkpt lat="43.315842" lon="-4.1801031"><ele>104.75</ele><time>2026-05-02T09:43:17.972Z</time></trkpt><trkpt lat="43.3158583" lon="-4.1799394"><ele>104.0</ele><time>2026-05-02T09:43:18.972Z</time></trkpt><trkpt lat="43.3158602" lon="-4.1797681"><ele>103.25</ele><time>2026-05-02T09:43:19.964Z</time></trkpt><trkpt lat="43.3158329" lon="-4.1795834"><ele>102.5</ele><time>2026-05-02T09:43:20.964Z</time></trkpt><trkpt lat="43.3157936" lon="-4.1793922"><ele>101.75</ele><time>2026-05-02T09:43:21.967Z</time></trkpt><trkpt lat="43.3157625" lon="-4.1792085"><ele>101.0</ele><time>2026-05-02T09:43:22.975Z</time></trkpt><trkpt lat="43.3157492" lon="-4.179045"><ele>100.83333333333333</ele><time>2026-05-02T09:43:23.971Z</time></trkpt><trkpt lat="43.3157537" lon="-4.1789094"><ele>100.66666666666666</ele><time>2026-05-02T09:43:24.989Z</time></trkpt><trkpt lat="43.3157876" lon="-4.1787958"><ele>100.5</ele><time>2026-05-02T09:43:25.979Z</time></trkpt><trkpt lat="43.3158303" lon="-4.1786977"><ele>100.33333333333334</ele><time>2026-05-02T09:43:26.964Z</time></trkpt><trkpt lat="43.3158732" lon="-4.178603"><ele>100.16666666666667</ele><time>2026-05-02T09:43:27.97Z</time></trkpt><trkpt lat="43.3159119" lon="-4.1785227"><ele>100.0</ele><time>2026-05-02T09:43:28.97Z</time></trkpt><trkpt lat="43.315916" lon="-4.1783477"><ele>100.00000000000001</ele><time>2026-05-02T09:43:30.972Z</time></trkpt><trkpt lat="43.3158804" lon="-4.1782648"><ele>100.0</ele><time>2026-05-02T09:43:31.968Z</time></trkpt><trkpt lat="43.3158311" lon="-4.1781816"><ele>100.0</ele><time>2026-05-02T09:43:32.974Z</time></trkpt><trkpt lat="43.3157761" lon="-4.1780948"><ele>100.0</ele><time>2026-05-02T09:43:33.964Z</time></trkpt><trkpt lat="43.3157282" lon="-4.1780005"><ele>100.00000000000001</ele><time>2026-05-02T09:43:34.963Z</time></trkpt><trkpt lat="43.3156916" lon="-4.1778927"><ele>100.0</ele><time>2026-05-02T09:43:35.959Z</time></trkpt><trkpt lat="43.3156665" lon="-4.1777753"><ele>100.5</ele><time>2026-05-02T09:43:36.971Z</time></trkpt><trkpt lat="43.3156701" lon="-4.1776313"><ele>101.0</ele><time>2026-05-02T09:43:37.965Z</time></trkpt><trkpt lat="43.3156851" lon="-4.1774679"><ele>101.5</ele><time>2026-05-02T09:43:38.967Z</time></trkpt><trkpt lat="43.3156993" lon="-4.1772964"><ele>102.0</ele><time>2026-05-02T09:43:39.968Z</time></trkpt><trkpt lat="43.3157154" lon="-4.1771261"><ele>102.25</ele><time>2026-05-02T09:43:40.969Z</time></trkpt><trkpt lat="43.3157288" lon="-4.1769536"><ele>102.5</ele><time>2026-05-02T09:43:41.973Z</time></trkpt><trkpt lat="43.3157447" lon="-4.1767782"><ele>102.75</ele><time>2026-05-02T09:43:42.969Z</time></trkpt><trkpt lat="43.3157568" lon="-4.1766021"><ele>103.0</ele><time>2026-05-02T09:43:43.969Z</time></trkpt><trkpt lat="43.3157673" lon="-4.176425"><ele>102.5</ele><time>2026-05-02T09:43:44.97Z</time></trkpt><trkpt lat="43.3157757" lon="-4.1762479"><ele>102.0</ele><time>2026-05-02T09:43:45.968Z</time></trkpt><trkpt lat="43.3157843" lon="-4.1760685"><ele>101.5</ele><time>2026-05-02T09:43:46.97Z</time></trkpt><trkpt lat="43.315789" lon="-4.175883"><ele>101.0</ele><time>2026-05-02T09:43:47.964Z</time></trkpt><trkpt lat="43.3157927" lon="-4.1757012"><ele>101.0</ele><time>2026-05-02T09:43:48.968Z</time></trkpt><trkpt lat="43.3157984" lon="-4.1755163"><ele>101.0</ele><time>2026-05-02T09:43:49.968Z</time></trkpt><trkpt lat="43.3158033" lon="-4.175333"><ele>101.0</ele><time>2026-05-02T09:43:50.969Z</time></trkpt><trkpt lat="43.3158072" lon="-4.1751541"><ele>101.0</ele><time>2026-05-02T09:43:51.966Z</time></trkpt><trkpt lat="43.3158124" lon="-4.1749825"><ele>101.4</ele><time>2026-05-02T09:43:52.971Z</time></trkpt><trkpt lat="43.3158197" lon="-4.1748222"><ele>101.8</ele><time>2026-05-02T09:43:53.968Z</time></trkpt><trkpt lat="43.3158262" lon="-4.1746646"><ele>102.2</ele><time>2026-05-02T09:43:54.972Z</time></trkpt><trkpt lat="43.3158299" lon="-4.1745129"><ele>102.60000000000001</ele><time>2026-05-02T09:43:55.983Z</time></trkpt><trkpt lat="43.3158373" lon="-4.1743668"><ele>103.0</ele><time>2026-05-02T09:43:56.969Z</time></trkpt><trkpt lat="43.3158445" lon="-4.1742263"><ele>103.0</ele><time>2026-05-02T09:43:57.972Z</time></trkpt><trkpt lat="43.3158518" lon="-4.1740835"><ele>103.0</ele><time>2026-05-02T09:43:58.975Z</time></trkpt><trkpt lat="43.3158594" lon="-4.173932"><ele>103.0</ele><time>2026-05-02T09:43:59.972Z</time></trkpt><trkpt lat="43.3158656" lon="-4.1737755"><ele>103.0</ele><time>2026-05-02T09:44:00.969Z</time></trkpt><trkpt lat="43.3158745" lon="-4.1736132"><ele>103.0</ele><time>2026-05-02T09:44:01.97Z</time></trkpt><trkpt lat="43.3158793" lon="-4.1734476"><ele>103.25</ele><time>2026-05-02T09:44:02.97Z</time></trkpt><trkpt lat="43.3158831" lon="-4.1732829"><ele>103.5</ele><time>2026-05-02T09:44:03.97Z</time></trkpt><trkpt lat="43.3158848" lon="-4.1731226"><ele>103.75</ele><time>2026-05-02T09:44:04.971Z</time></trkpt><trkpt lat="43.3158853" lon="-4.1729731"><ele>104.0</ele><time>2026-05-02T09:44:05.962Z</time></trkpt><trkpt lat="43.3158879" lon="-4.1728263"><ele>104.0</ele><time>2026-05-02T09:44:06.966Z</time></trkpt><trkpt lat="43.3158925" lon="-4.1726854"><ele>104.0</ele><time>2026-05-02T09:44:07.964Z</time></trkpt><trkpt lat="43.3158987" lon="-4.1725359"><ele>104.0</ele><time>2026-05-02T09:44:08.968Z</time></trkpt><trkpt lat="43.3159076" lon="-4.1723844"><ele>104.0</ele><time>2026-05-02T09:44:09.965Z</time></trkpt><trkpt lat="43.3159152" lon="-4.1722233"><ele>104.0</ele><time>2026-05-02T09:44:10.964Z</time></trkpt><trkpt lat="43.3159206" lon="-4.172059"><ele>104.25</ele><time>2026-05-02T09:44:11.966Z</time></trkpt><trkpt lat="43.3159258" lon="-4.1718864"><ele>104.5</ele><time>2026-05-02T09:44:12.971Z</time></trkpt><trkpt lat="43.3159307" lon="-4.1717114"><ele>104.75</ele><time>2026-05-02T09:44:13.968Z</time></trkpt><trkpt lat="43.3159344" lon="-4.1715378"><ele>105.0</ele><time>2026-05-02T09:44:14.967Z</time></trkpt><trkpt lat="43.3159403" lon="-4.1713602"><ele>105.0</ele><time>2026-05-02T09:44:15.969Z</time></trkpt><trkpt lat="43.3159454" lon="-4.171183"><ele>105.0</ele><time>2026-05-02T09:44:16.972Z</time></trkpt><trkpt lat="43.3159527" lon="-4.1710053"><ele>105.0</ele><time>2026-05-02T09:44:17.966Z</time></trkpt><trkpt lat="43.3159652" lon="-4.1708248"><ele>105.0</ele><time>2026-05-02T09:44:18.968Z</time></trkpt><trkpt lat="43.315975" lon="-4.1706436"><ele>105.0</ele><time>2026-05-02T09:44:19.968Z</time></trkpt><trkpt lat="43.3159857" lon="-4.1704538"><ele>105.0</ele><time>2026-05-02T09:44:20.971Z</time></trkpt><trkpt lat="43.3159929" lon="-4.1702633"><ele>105.0</ele><time>2026-05-02T09:44:21.97Z</time></trkpt><trkpt lat="43.315995" lon="-4.1700691"><ele>105.0</ele><time>2026-05-02T09:44:22.973Z</time></trkpt><trkpt lat="43.3159998" lon="-4.1698653"><ele>105.0</ele><time>2026-05-02T09:44:23.968Z</time></trkpt><trkpt lat="43.3160102" lon="-4.169671"><ele>105.0</ele><time>2026-05-02T09:44:24.974Z</time></trkpt><trkpt lat="43.3160165" lon="-4.1694699"><ele>105.0</ele><time>2026-05-02T09:44:25.971Z</time></trkpt><trkpt lat="43.31602" lon="-4.1692752"><ele>105.0</ele><time>2026-05-02T09:44:26.98Z</time></trkpt><trkpt lat="43.3160278" lon="-4.1690801"><ele>104.75</ele><time>2026-05-02T09:44:27.97Z</time></trkpt><trkpt lat="43.3160299" lon="-4.1688781"><ele>104.5</ele><time>2026-05-02T09:44:28.967Z</time></trkpt><trkpt lat="43.3160354" lon="-4.1686791"><ele>104.25</ele><time>2026-05-02T09:44:29.969Z</time></trkpt><trkpt lat="43.316045" lon="-4.1684809"><ele>104.0</ele><time>2026-05-02T09:44:30.966Z</time></trkpt><trkpt lat="43.3160542" lon="-4.1682812"><ele>104.75</ele><time>2026-05-02T09:44:31.966Z</time></trkpt><trkpt lat="43.3160619" lon="-4.1680928"><ele>105.5</ele><time>2026-05-02T09:44:32.965Z</time></trkpt><trkpt lat="43.3160681" lon="-4.1678982"><ele>106.25</ele><time>2026-05-02T09:44:33.966Z</time></trkpt><trkpt lat="43.3160762" lon="-4.1677114"><ele>107.0</ele><time>2026-05-02T09:44:34.964Z</time></trkpt><trkpt lat="43.3160812" lon="-4.1675168"><ele>107.25</ele><time>2026-05-02T09:44:35.963Z</time></trkpt><trkpt lat="43.3160871" lon="-4.1673162"><ele>107.5</ele><time>2026-05-02T09:44:36.964Z</time></trkpt><trkpt lat="43.31609" lon="-4.1671211"><ele>107.75</ele><time>2026-05-02T09:44:37.969Z</time></trkpt><trkpt lat="43.3160955" lon="-4.1669243"><ele>108.0</ele><time>2026-05-02T09:44:38.967Z</time></trkpt><trkpt lat="43.3160875" lon="-4.1667246"><ele>108.5</ele><time>2026-05-02T09:44:39.967Z</time></trkpt><trkpt lat="43.316072" lon="-4.1665265"><ele>109.0</ele><time>2026-05-02T09:44:40.963Z</time></trkpt><trkpt lat="43.3160355" lon="-4.1663433"><ele>109.5</ele><time>2026-05-02T09:44:41.964Z</time></trkpt><trkpt lat="43.3160037" lon="-4.1661498"><ele>110.0</ele><time>2026-05-02T09:44:42.963Z</time></trkpt><trkpt lat="43.3159748" lon="-4.1659722"><ele>110.0</ele><time>2026-05-02T09:44:43.967Z</time></trkpt><trkpt lat="43.3159579" lon="-4.1658126"><ele>110.0</ele><time>2026-05-02T09:44:44.96Z</time></trkpt><trkpt lat="43.3159527" lon="-4.1656657"><ele>110.0</ele><time>2026-05-02T09:44:45.96Z</time></trkpt><trkpt lat="43.3159483" lon="-4.1655163"><ele>110.0</ele><time>2026-05-02T09:44:46.966Z</time></trkpt><trkpt lat="43.3159634" lon="-4.1653669"><ele>110.0</ele><time>2026-05-02T09:44:47.964Z</time></trkpt><trkpt lat="43.315981" lon="-4.1652314"><ele>110.66666666666666</ele><time>2026-05-02T09:44:48.977Z</time></trkpt><trkpt lat="43.3159993" lon="-4.1651067"><ele>111.33333333333333</ele><time>2026-05-02T09:44:49.968Z</time></trkpt><trkpt lat="43.3160159" lon="-4.1649888"><ele>112.0</ele><time>2026-05-02T09:44:50.978Z</time></trkpt><trkpt lat="43.3160316" lon="-4.1648698"><ele>112.66666666666666</ele><time>2026-05-02T09:44:51.971Z</time></trkpt><trkpt lat="43.3160443" lon="-4.1647517"><ele>113.33333333333333</ele><time>2026-05-02T09:44:52.979Z</time></trkpt><trkpt lat="43.3160561" lon="-4.1646228"><ele>114.0</ele><time>2026-05-02T09:44:53.973Z</time></trkpt><trkpt lat="43.3160662" lon="-4.1644822"><ele>114.0</ele><time>2026-05-02T09:44:54.98Z</time></trkpt><trkpt lat="43.316079" lon="-4.164333"><ele>114.0</ele><time>2026-05-02T09:44:55.977Z</time></trkpt><trkpt lat="43.3160906" lon="-4.1641845"><ele>114.0</ele><time>2026-05-02T09:44:56.976Z</time></trkpt><trkpt lat="43.3161052" lon="-4.1640402"><ele>114.0</ele><time>2026-05-02T09:44:57.991Z</time></trkpt><trkpt lat="43.3161279" lon="-4.1638969"><ele>114.0</ele><time>2026-05-02T09:44:58.975Z</time></trkpt><trkpt lat="43.3161616" lon="-4.1637633"><ele>113.80000000000001</ele><time>2026-05-02T09:44:59.975Z</time></trkpt><trkpt lat="43.3162065" lon="-4.1636388"><ele>113.60000000000001</ele><time>2026-05-02T09:45:00.978Z</time></trkpt><trkpt lat="43.3162617" lon="-4.1635278"><ele>113.4</ele><time>2026-05-02T09:45:01.972Z</time></trkpt><trkpt lat="43.3163198" lon="-4.1634237"><ele>113.2</ele><time>2026-05-02T09:45:02.969Z</time></trkpt><trkpt lat="43.3163814" lon="-4.1633286"><ele>113.0</ele><time>2026-05-02T09:45:03.975Z</time></trkpt><trkpt lat="43.3164466" lon="-4.1632484"><ele>113.4</ele><time>2026-05-02T09:45:04.969Z</time></trkpt><trkpt lat="43.3165209" lon="-4.1631754"><ele>113.80000000000001</ele><time>2026-05-02T09:45:05.972Z</time></trkpt><trkpt lat="43.3165974" lon="-4.1631083"><ele>114.2</ele><time>2026-05-02T09:45:06.968Z</time></trkpt><trkpt lat="43.3166882" lon="-4.1630431"><ele>114.6</ele><time>2026-05-02T09:45:07.968Z</time></trkpt><trkpt lat="43.3167826" lon="-4.1629626"><ele>115.0</ele><time>2026-05-02T09:45:08.971Z</time></trkpt><trkpt lat="43.3168773" lon="-4.1628745"><ele>115.0</ele><time>2026-05-02T09:45:09.972Z</time></trkpt><trkpt lat="43.3169679" lon="-4.1627848"><ele>115.0</ele><time>2026-05-02T09:45:10.97Z</time></trkpt><trkpt lat="43.317061" lon="-4.1627132"><ele>115.0</ele><time>2026-05-02T09:45:11.969Z</time></trkpt><trkpt lat="43.3171585" lon="-4.1626592"><ele>115.0</ele><time>2026-05-02T09:45:12.965Z</time></trkpt><trkpt lat="43.3172586" lon="-4.1626161"><ele>115.0</ele><time>2026-05-02T09:45:13.965Z</time></trkpt><trkpt lat="43.3173613" lon="-4.1625699"><ele>116.2</ele><time>2026-05-02T09:45:14.964Z</time></trkpt><trkpt lat="43.3174587" lon="-4.1625213"><ele>117.4</ele><time>2026-05-02T09:45:15.967Z</time></trkpt><trkpt lat="43.3175511" lon="-4.1624631"><ele>118.6</ele><time>2026-05-02T09:45:16.964Z</time></trkpt><trkpt lat="43.3176353" lon="-4.162381"><ele>119.8</ele><time>2026-05-02T09:45:17.962Z</time></trkpt><trkpt lat="43.3177032" lon="-4.1622713"><ele>121.0</ele><time>2026-05-02T09:45:18.963Z</time></trkpt><trkpt lat="43.3177567" lon="-4.1621447"><ele>121.0</ele><time>2026-05-02T09:45:19.956Z</time></trkpt><trkpt lat="43.3177962" lon="-4.1620167"><ele>121.0</ele><time>2026-05-02T09:45:20.955Z</time></trkpt><trkpt lat="43.3178215" lon="-4.1618753"><ele>121.0</ele><time>2026-05-02T09:45:21.96Z</time></trkpt><trkpt lat="43.3178322" lon="-4.1617252"><ele>121.0</ele><time>2026-05-02T09:45:22.964Z</time></trkpt><trkpt lat="43.317827" lon="-4.16157"><ele>121.0</ele><time>2026-05-02T09:45:23.956Z</time></trkpt><trkpt lat="43.317815" lon="-4.1614164"><ele>120.75</ele><time>2026-05-02T09:45:24.962Z</time></trkpt><trkpt lat="43.3177951" lon="-4.1612564"><ele>120.5</ele><time>2026-05-02T09:45:25.962Z</time></trkpt><trkpt lat="43.3177812" lon="-4.1610966"><ele>120.25</ele><time>2026-05-02T09:45:26.965Z</time></trkpt><trkpt lat="43.3177693" lon="-4.1609406"><ele>120.0</ele><time>2026-05-02T09:45:27.968Z</time></trkpt><trkpt lat="43.3177543" lon="-4.1607871"><ele>121.75</ele><time>2026-05-02T09:45:28.98Z</time></trkpt><trkpt lat="43.317737" lon="-4.160637"><ele>123.5</ele><time>2026-05-02T09:45:29.969Z</time></trkpt><trkpt lat="43.3177144" lon="-4.1604779"><ele>125.25</ele><time>2026-05-02T09:45:30.97Z</time></trkpt><trkpt lat="43.3176908" lon="-4.1603124"><ele>127.0</ele><time>2026-05-02T09:45:31.968Z</time></trkpt><trkpt lat="43.317664" lon="-4.1601565"><ele>127.0</ele><time>2026-05-02T09:45:32.969Z</time></trkpt><trkpt lat="43.3176365" lon="-4.1599915"><ele>127.0</ele><time>2026-05-02T09:45:33.973Z</time></trkpt><trkpt lat="43.3176075" lon="-4.1598309"><ele>127.0</ele><time>2026-05-02T09:45:34.965Z</time></trkpt><trkpt lat="43.3175813" lon="-4.1596697"><ele>127.0</ele><time>2026-05-02T09:45:35.974Z</time></trkpt><trkpt lat="43.3175512" lon="-4.1595034"><ele>128.5</ele><time>2026-05-02T09:45:36.971Z</time></trkpt><trkpt lat="43.3175237" lon="-4.159335"><ele>130.0</ele><time>2026-05-02T09:45:37.965Z</time></trkpt><trkpt lat="43.3174972" lon="-4.1591665"><ele>131.5</ele><time>2026-05-02T09:45:38.968Z</time></trkpt><trkpt lat="43.3174686" lon="-4.1589976"><ele>133.0</ele><time>2026-05-02T09:45:39.968Z</time></trkpt><trkpt lat="43.3174362" lon="-4.158829"><ele>133.25</ele><time>2026-05-02T09:45:40.967Z</time></trkpt><trkpt lat="43.3174073" lon="-4.1586678"><ele>133.5</ele><time>2026-05-02T09:45:41.967Z</time></trkpt><trkpt lat="43.3173736" lon="-4.1585031"><ele>133.75</ele><time>2026-05-02T09:45:42.964Z</time></trkpt><trkpt lat="43.3173398" lon="-4.1583379"><ele>134.0</ele><time>2026-05-02T09:45:43.962Z</time></trkpt><trkpt lat="43.3173085" lon="-4.1581765"><ele>135.75</ele><time>2026-05-02T09:45:44.97Z</time></trkpt><trkpt lat="43.3172721" lon="-4.1580168"><ele>137.5</ele><time>2026-05-02T09:45:45.964Z</time></trkpt><trkpt lat="43.3172358" lon="-4.1578574"><ele>139.25</ele><time>2026-05-02T09:45:46.955Z</time></trkpt><trkpt lat="43.3171976" lon="-4.1577009"><ele>141.0</ele><time>2026-05-02T09:45:47.969Z</time></trkpt><trkpt lat="43.3171683" lon="-4.1575442"><ele>136.5</ele><time>2026-05-02T09:45:48.964Z</time></trkpt><trkpt lat="43.317147" lon="-4.1573812"><ele>132.0</ele><time>2026-05-02T09:45:49.96Z</time></trkpt><trkpt lat="43.3171269" lon="-4.1572106"><ele>127.5</ele><time>2026-05-02T09:45:50.967Z</time></trkpt><trkpt lat="43.3171096" lon="-4.1570365"><ele>123.0</ele><time>2026-05-02T09:45:51.967Z</time></trkpt><trkpt lat="43.3170914" lon="-4.1568537"><ele>123.0</ele><time>2026-05-02T09:45:52.969Z</time></trkpt><trkpt lat="43.3170733" lon="-4.1566719"><ele>123.0</ele><time>2026-05-02T09:45:53.966Z</time></trkpt><trkpt lat="43.3170588" lon="-4.1564932"><ele>123.0</ele><time>2026-05-02T09:45:54.968Z</time></trkpt><trkpt lat="43.3170476" lon="-4.1563114"><ele>123.0</ele><time>2026-05-02T09:45:55.966Z</time></trkpt><trkpt lat="43.3170299" lon="-4.1561263"><ele>123.75</ele><time>2026-05-02T09:45:56.967Z</time></trkpt><trkpt lat="43.317001" lon="-4.1559552"><ele>124.5</ele><time>2026-05-02T09:45:57.966Z</time></trkpt><trkpt lat="43.3169581" lon="-4.1557874"><ele>125.25</ele><time>2026-05-02T09:45:58.961Z</time></trkpt><trkpt lat="43.3169028" lon="-4.1556246"><ele>126.0</ele><time>2026-05-02T09:45:59.982Z</time></trkpt><trkpt lat="43.3168299" lon="-4.1554632"><ele>126.75</ele><time>2026-05-02T09:46:00.964Z</time></trkpt><trkpt lat="43.3167435" lon="-4.1553118"><ele>127.5</ele><time>2026-05-02T09:46:01.966Z</time></trkpt><trkpt lat="43.316658" lon="-4.1551575"><ele>128.25</ele><time>2026-05-02T09:46:02.968Z</time></trkpt><trkpt lat="43.3165765" lon="-4.1550098"><ele>129.0</ele><time>2026-05-02T09:46:03.967Z</time></trkpt><trkpt lat="43.3165073" lon="-4.1548486"><ele>130.5</ele><time>2026-05-02T09:46:04.964Z</time></trkpt><trkpt lat="43.316451" lon="-4.1546896"><ele>132.0</ele><time>2026-05-02T09:46:05.963Z</time></trkpt><trkpt lat="43.3163955" lon="-4.1545267"><ele>133.5</ele><time>2026-05-02T09:46:06.965Z</time></trkpt><trkpt lat="43.3163404" lon="-4.1543539"><ele>135.0</ele><time>2026-05-02T09:46:07.968Z</time></trkpt><trkpt lat="43.3162827" lon="-4.1541782"><ele>132.75</ele><time>2026-05-02T09:46:08.973Z</time></trkpt><trkpt lat="43.3162256" lon="-4.1540039"><ele>130.5</ele><time>2026-05-02T09:46:09.975Z</time></trkpt><trkpt lat="43.3161683" lon="-4.1538348"><ele>128.25</ele><time>2026-05-02T09:46:10.978Z</time></trkpt><trkpt lat="43.3161143" lon="-4.1536717"><ele>126.0</ele><time>2026-05-02T09:46:11.98Z</time></trkpt><trkpt lat="43.3160598" lon="-4.1535077"><ele>126.0</ele><time>2026-05-02T09:46:12.975Z</time></trkpt><trkpt lat="43.3160062" lon="-4.1533452"><ele>126.0</ele><time>2026-05-02T09:46:13.977Z</time></trkpt><trkpt lat="43.315952" lon="-4.153185"><ele>126.0</ele><time>2026-05-02T09:46:14.978Z</time></trkpt><trkpt lat="43.3158965" lon="-4.1530293"><ele>126.0</ele><time>2026-05-02T09:46:15.981Z</time></trkpt><trkpt lat="43.3158389" lon="-4.1528755"><ele>126.5</ele><time>2026-05-02T09:46:16.977Z</time></trkpt><trkpt lat="43.3157764" lon="-4.1527262"><ele>127.0</ele><time>2026-05-02T09:46:17.979Z</time></trkpt><trkpt lat="43.3157053" lon="-4.152593"><ele>127.5</ele><time>2026-05-02T09:46:18.979Z</time></trkpt><trkpt lat="43.3156272" lon="-4.1524644"><ele>128.0</ele><time>2026-05-02T09:46:19.978Z</time></trkpt><trkpt lat="43.3155399" lon="-4.152354"><ele>128.0</ele><time>2026-05-02T09:46:20.969Z</time></trkpt><trkpt lat="43.3154515" lon="-4.152249"><ele>128.0</ele><time>2026-05-02T09:46:21.97Z</time></trkpt><trkpt lat="43.3153764" lon="-4.1521358"><ele>128.0</ele><time>2026-05-02T09:46:22.969Z</time></trkpt><trkpt lat="43.3153115" lon="-4.1520175"><ele>128.0</ele><time>2026-05-02T09:46:23.967Z</time></trkpt><trkpt lat="43.3152717" lon="-4.1518927"><ele>128.0</ele><time>2026-05-02T09:46:24.976Z</time></trkpt><trkpt lat="43.3152421" lon="-4.1517572"><ele>128.0</ele><time>2026-05-02T09:46:25.978Z</time></trkpt><trkpt lat="43.3152179" lon="-4.1516123"><ele>128.0</ele><time>2026-05-02T09:46:26.976Z</time></trkpt><trkpt lat="43.3152005" lon="-4.1514634"><ele>128.0</ele><time>2026-05-02T09:46:27.975Z</time></trkpt><trkpt lat="43.3151835" lon="-4.1513118"><ele>128.0</ele><time>2026-05-02T09:46:28.981Z</time></trkpt><trkpt lat="43.315166" lon="-4.1511673"><ele>128.0</ele><time>2026-05-02T09:46:29.979Z</time></trkpt><trkpt lat="43.3151453" lon="-4.1510284"><ele>128.0</ele><time>2026-05-02T09:46:31.007Z</time></trkpt><trkpt lat="43.3151174" lon="-4.1508845"><ele>128.0</ele><time>2026-05-02T09:46:31.972Z</time></trkpt><trkpt lat="43.3150832" lon="-4.1507347"><ele>128.0</ele><time>2026-05-02T09:46:32.971Z</time></trkpt><trkpt lat="43.3150404" lon="-4.1505918"><ele>128.0</ele><time>2026-05-02T09:46:33.977Z</time></trkpt><trkpt lat="43.3149883" lon="-4.1504535"><ele>128.0</ele><time>2026-05-02T09:46:34.978Z</time></trkpt><trkpt lat="43.3149307" lon="-4.1503209"><ele>129.0</ele><time>2026-05-02T09:46:35.976Z</time></trkpt><trkpt lat="43.3148746" lon="-4.1501887"><ele>130.0</ele><time>2026-05-02T09:46:36.978Z</time></trkpt><trkpt lat="43.3148179" lon="-4.150054"><ele>131.0</ele><time>2026-05-02T09:46:37.974Z</time></trkpt><trkpt lat="43.3147626" lon="-4.1499204"><ele>132.0</ele><time>2026-05-02T09:46:38.974Z</time></trkpt><trkpt lat="43.3147077" lon="-4.1497837"><ele>133.0</ele><time>2026-05-02T09:46:39.971Z</time></trkpt><trkpt lat="43.3146529" lon="-4.1496435"><ele>134.0</ele><time>2026-05-02T09:46:40.971Z</time></trkpt><trkpt lat="43.3145946" lon="-4.149507"><ele>135.0</ele><time>2026-05-02T09:46:41.968Z</time></trkpt><trkpt lat="43.3145389" lon="-4.1493707"><ele>136.0</ele><time>2026-05-02T09:46:42.974Z</time></trkpt><trkpt lat="43.3144847" lon="-4.1492368"><ele>136.0</ele><time>2026-05-02T09:46:43.965Z</time></trkpt><trkpt lat="43.3144328" lon="-4.1491089"><ele>136.0</ele><time>2026-05-02T09:46:44.963Z</time></trkpt><trkpt lat="43.3143721" lon="-4.1489844"><ele>136.0</ele><time>2026-05-02T09:46:45.966Z</time></trkpt><trkpt lat="43.3143059" lon="-4.1488627"><ele>136.0</ele><time>2026-05-02T09:46:46.97Z</time></trkpt><trkpt lat="43.3142372" lon="-4.1487464"><ele>136.0</ele><time>2026-05-02T09:46:47.967Z</time></trkpt><trkpt lat="43.3141706" lon="-4.1486356"><ele>137.0</ele><time>2026-05-02T09:46:48.965Z</time></trkpt><trkpt lat="43.3141055" lon="-4.1485304"><ele>138.0</ele><time>2026-05-02T09:46:49.967Z</time></trkpt><trkpt lat="43.3140359" lon="-4.1484262"><ele>139.0</ele><time>2026-05-02T09:46:50.967Z</time></trkpt><trkpt lat="43.3139662" lon="-4.1483274"><ele>140.0</ele><time>2026-05-02T09:46:51.971Z</time></trkpt><trkpt lat="43.3138961" lon="-4.1482399"><ele>141.0</ele><time>2026-05-02T09:46:52.968Z</time></trkpt><trkpt lat="43.313831" lon="-4.1481641"><ele>141.83333333333334</ele><time>2026-05-02T09:46:53.969Z</time></trkpt><trkpt lat="43.3137751" lon="-4.1480905"><ele>142.66666666666666</ele><time>2026-05-02T09:46:54.973Z</time></trkpt><trkpt lat="43.3137204" lon="-4.1480202"><ele>143.5</ele><time>2026-05-02T09:46:55.973Z</time></trkpt><trkpt lat="43.313674" lon="-4.1479538"><ele>144.33333333333331</ele><time>2026-05-02T09:46:56.965Z</time></trkpt><trkpt lat="43.313579" lon="-4.1478366"><ele>145.16666666666666</ele><time>2026-05-02T09:46:58.971Z</time></trkpt><trkpt lat="43.3135339" lon="-4.1477672"><ele>146.0</ele><time>2026-05-02T09:46:59.969Z</time></trkpt><trkpt lat="43.3134872" lon="-4.1476971"><ele>146.0</ele><time>2026-05-02T09:47:00.986Z</time></trkpt><trkpt lat="43.3134448" lon="-4.1476325"><ele>146.0</ele><time>2026-05-02T09:47:01.966Z</time></trkpt><trkpt lat="43.3133861" lon="-4.14755"><ele>146.0</ele><time>2026-05-02T09:47:03.968Z</time></trkpt><trkpt lat="43.3133433" lon="-4.1474783"><ele>146.0</ele><time>2026-05-02T09:47:15.964Z</time></trkpt><trkpt lat="43.313312" lon="-4.1473706"><ele>146.0</ele><time>2026-05-02T09:48:06.97Z</time></trkpt><trkpt lat="43.3132609" lon="-4.1472763"><ele>146.0</ele><time>2026-05-02T09:48:09.967Z</time></trkpt><trkpt lat="43.3132143" lon="-4.1472139"><ele>147.0</ele><time>2026-05-02T09:48:23.969Z</time></trkpt><trkpt lat="43.3131866" lon="-4.1471061"><ele>148.0</ele><time>2026-05-02T09:48:27.967Z</time></trkpt><trkpt lat="43.3131651" lon="-4.1470229"><ele>149.0</ele><time>2026-05-02T09:48:29.968Z</time></trkpt><trkpt lat="43.3131572" lon="-4.1469005"><ele>150.0</ele><time>2026-05-02T09:48:32.965Z</time></trkpt><trkpt lat="43.3131276" lon="-4.1468101"><ele>151.0</ele><time>2026-05-02T09:48:35.963Z</time></trkpt><trkpt lat="43.3131096" lon="-4.1467211"><ele>152.0</ele><time>2026-05-02T09:48:39.973Z</time></trkpt><trkpt lat="43.313082" lon="-4.1466146"><ele>151.2</ele><time>2026-05-02T09:48:41.964Z</time></trkpt><trkpt lat="43.3130376" lon="-4.1464706"><ele>150.39999999999998</ele><time>2026-05-02T09:48:43.966Z</time></trkpt><trkpt lat="43.3129871" lon="-4.1463066"><ele>149.60000000000002</ele><time>2026-05-02T09:48:45.966Z</time></trkpt><trkpt lat="43.3129635" lon="-4.1462166"><ele>148.8</ele><time>2026-05-02T09:48:46.974Z</time></trkpt><trkpt lat="43.3129458" lon="-4.1461213"><ele>148.0</ele><time>2026-05-02T09:48:47.96Z</time></trkpt><trkpt lat="43.3129342" lon="-4.1460137"><ele>148.0</ele><time>2026-05-02T09:48:48.968Z</time></trkpt><trkpt lat="43.3129237" lon="-4.1458956"><ele>148.0</ele><time>2026-05-02T09:48:49.965Z</time></trkpt><trkpt lat="43.312912" lon="-4.1457678"><ele>148.0</ele><time>2026-05-02T09:48:50.967Z</time></trkpt><trkpt lat="43.3129009" lon="-4.1456424"><ele>148.0</ele><time>2026-05-02T09:48:51.968Z</time></trkpt><trkpt lat="43.3128896" lon="-4.1455169"><ele>148.0</ele><time>2026-05-02T09:48:52.969Z</time></trkpt><trkpt lat="43.3128761" lon="-4.1453861"><ele>148.8</ele><time>2026-05-02T09:48:53.967Z</time></trkpt><trkpt lat="43.3128627" lon="-4.1452537"><ele>149.60000000000002</ele><time>2026-05-02T09:48:54.974Z</time></trkpt><trkpt lat="43.3128454" lon="-4.14512"><ele>150.39999999999998</ele><time>2026-05-02T09:48:55.965Z</time></trkpt><trkpt lat="43.312823" lon="-4.1449803"><ele>151.2</ele><time>2026-05-02T09:48:56.964Z</time></trkpt><trkpt lat="43.3128006" lon="-4.1448373"><ele>152.0</ele><time>2026-05-02T09:48:57.964Z</time></trkpt><trkpt lat="43.312777" lon="-4.144688"><ele>154.0</ele><time>2026-05-02T09:48:58.964Z</time></trkpt><trkpt lat="43.3127561" lon="-4.1445394"><ele>156.0</ele><time>2026-05-02T09:48:59.963Z</time></trkpt><trkpt lat="43.3127359" lon="-4.144386"><ele>158.0</ele><time>2026-05-02T09:49:00.957Z</time></trkpt><trkpt lat="43.3127067" lon="-4.1442348"><ele>160.0</ele><time>2026-05-02T09:49:01.959Z</time></trkpt><trkpt lat="43.3126798" lon="-4.1440742"><ele>160.25</ele><time>2026-05-02T09:49:02.96Z</time></trkpt><trkpt lat="43.3126514" lon="-4.1439083"><ele>160.5</ele><time>2026-05-02T09:49:03.964Z</time></trkpt><trkpt lat="43.3126231" lon="-4.1437448"><ele>160.75</ele><time>2026-05-02T09:49:04.978Z</time></trkpt><trkpt lat="43.3125893" lon="-4.1435823"><ele>161.0</ele><time>2026-05-02T09:49:05.963Z</time></trkpt><trkpt lat="43.3125527" lon="-4.1434155"><ele>161.0</ele><time>2026-05-02T09:49:06.966Z</time></trkpt><trkpt lat="43.3125176" lon="-4.1432456"><ele>161.0</ele><time>2026-05-02T09:49:07.967Z</time></trkpt><trkpt lat="43.312478" lon="-4.1430751"><ele>161.0</ele><time>2026-05-02T09:49:08.964Z</time></trkpt><trkpt lat="43.3124371" lon="-4.1429022"><ele>161.0</ele><time>2026-05-02T09:49:09.964Z</time></trkpt><trkpt lat="43.3123899" lon="-4.1427268"><ele>162.5</ele><time>2026-05-02T09:49:10.96Z</time></trkpt><trkpt lat="43.312339" lon="-4.1425597"><ele>164.0</ele><time>2026-05-02T09:49:11.96Z</time></trkpt><trkpt lat="43.3122852" lon="-4.142395"><ele>165.5</ele><time>2026-05-02T09:49:12.965Z</time></trkpt><trkpt lat="43.3122269" lon="-4.1422379"><ele>167.0</ele><time>2026-05-02T09:49:13.965Z</time></trkpt><trkpt lat="43.3121615" lon="-4.1420799"><ele>167.0</ele><time>2026-05-02T09:49:14.962Z</time></trkpt><trkpt lat="43.3120914" lon="-4.1419364"><ele>167.0</ele><time>2026-05-02T09:49:15.965Z</time></trkpt><trkpt lat="43.3120149" lon="-4.1417999"><ele>167.0</ele><time>2026-05-02T09:49:16.966Z</time></trkpt><trkpt lat="43.3119328" lon="-4.1416703"><ele>167.0</ele><time>2026-05-02T09:49:17.965Z</time></trkpt><trkpt lat="43.3118499" lon="-4.1415493"><ele>169.25</ele><time>2026-05-02T09:49:18.972Z</time></trkpt><trkpt lat="43.3117634" lon="-4.1414341"><ele>171.5</ele><time>2026-05-02T09:49:19.972Z</time></trkpt><trkpt lat="43.3116699" lon="-4.1413241"><ele>173.75</ele><time>2026-05-02T09:49:20.974Z</time></trkpt><trkpt lat="43.3115789" lon="-4.1412231"><ele>176.0</ele><time>2026-05-02T09:49:21.972Z</time></trkpt><trkpt lat="43.3114925" lon="-4.141135"><ele>176.0</ele><time>2026-05-02T09:49:22.967Z</time></trkpt><trkpt lat="43.3114082" lon="-4.1410472"><ele>176.0</ele><time>2026-05-02T09:49:23.971Z</time></trkpt><trkpt lat="43.311325" lon="-4.140959"><ele>176.0</ele><time>2026-05-02T09:49:24.972Z</time></trkpt><trkpt lat="43.3112462" lon="-4.140868"><ele>176.0</ele><time>2026-05-02T09:49:25.968Z</time></trkpt><trkpt lat="43.3111622" lon="-4.1407735"><ele>176.0</ele><time>2026-05-02T09:49:26.967Z</time></trkpt><trkpt lat="43.3110921" lon="-4.1406851"><ele>176.66666666666666</ele><time>2026-05-02T09:49:27.963Z</time></trkpt><trkpt lat="43.3110335" lon="-4.1406108"><ele>177.33333333333331</ele><time>2026-05-02T09:49:28.964Z</time></trkpt><trkpt lat="43.3109831" lon="-4.1405552"><ele>178.0</ele><time>2026-05-02T09:49:29.964Z</time></trkpt><trkpt lat="43.3109206" lon="-4.1404835"><ele>178.66666666666666</ele><time>2026-05-02T09:49:31.968Z</time></trkpt><trkpt lat="43.3108671" lon="-4.1404101"><ele>179.33333333333334</ele><time>2026-05-02T09:49:33.971Z</time></trkpt><trkpt lat="43.3108038" lon="-4.1403193"><ele>180.0</ele><time>2026-05-02T09:49:35.984Z</time></trkpt><trkpt lat="43.310751" lon="-4.1401989"><ele>180.0</ele><time>2026-05-02T09:49:37.97Z</time></trkpt><trkpt lat="43.3107118" lon="-4.1400701"><ele>180.0</ele><time>2026-05-02T09:49:39.969Z</time></trkpt><trkpt lat="43.310676" lon="-4.1399341"><ele>180.0</ele><time>2026-05-02T09:49:41.968Z</time></trkpt><trkpt lat="43.3106589" lon="-4.1398066"><ele>180.0</ele><time>2026-05-02T09:49:43.966Z</time></trkpt><trkpt lat="43.3106556" lon="-4.139675"><ele>180.0</ele><time>2026-05-02T09:49:45.969Z</time></trkpt><trkpt lat="43.3106548" lon="-4.1395452"><ele>180.8</ele><time>2026-05-02T09:49:47.972Z</time></trkpt><trkpt lat="43.3106615" lon="-4.1394151"><ele>181.6</ele><time>2026-05-02T09:49:49.973Z</time></trkpt><trkpt lat="43.3106824" lon="-4.1392839"><ele>182.39999999999998</ele><time>2026-05-02T09:49:51.971Z</time></trkpt><trkpt lat="43.3107276" lon="-4.1391547"><ele>183.2</ele><time>2026-05-02T09:49:53.971Z</time></trkpt><trkpt lat="43.3107841" lon="-4.1390483"><ele>184.0</ele><time>2026-05-02T09:49:55.971Z</time></trkpt><trkpt lat="43.3108396" lon="-4.138944"><ele>184.39999999999998</ele><time>2026-05-02T09:49:57.97Z</time></trkpt><trkpt lat="43.3108975" lon="-4.1388391"><ele>184.8</ele><time>2026-05-02T09:49:59.972Z</time></trkpt><trkpt lat="43.3109729" lon="-4.1387398"><ele>185.2</ele><time>2026-05-02T09:50:01.976Z</time></trkpt><trkpt lat="43.3110508" lon="-4.1386475"><ele>185.60000000000002</ele><time>2026-05-02T09:50:03.978Z</time></trkpt><trkpt lat="43.3111142" lon="-4.1385296"><ele>186.0</ele><time>2026-05-02T09:50:05.978Z</time></trkpt><trkpt lat="43.311158" lon="-4.1384211"><ele>186.0</ele><time>2026-05-02T09:50:07.978Z</time></trkpt><trkpt lat="43.3111933" lon="-4.1382991"><ele>186.0</ele><time>2026-05-02T09:50:09.985Z</time></trkpt><trkpt lat="43.3112123" lon="-4.138199"><ele>186.0</ele><time>2026-05-02T09:50:11.971Z</time></trkpt><trkpt lat="43.3112267" lon="-4.1380848"><ele>186.0</ele><time>2026-05-02T09:50:13.973Z</time></trkpt><trkpt lat="43.3112267" lon="-4.1379349"><ele>186.0</ele><time>2026-05-02T09:50:15.975Z</time></trkpt><trkpt lat="43.3112244" lon="-4.1378017"><ele>186.83333333333334</ele><time>2026-05-02T09:50:17.977Z</time></trkpt><trkpt lat="43.3112119" lon="-4.1376754"><ele>187.66666666666666</ele><time>2026-05-02T09:50:19.979Z</time></trkpt><trkpt lat="43.3111815" lon="-4.137571"><ele>188.5</ele><time>2026-05-02T09:50:21.962Z</time></trkpt><trkpt lat="43.3111429" lon="-4.1374696"><ele>189.33333333333331</ele><time>2026-05-02T09:50:23.967Z</time></trkpt><trkpt lat="43.3111174" lon="-4.1373651"><ele>190.16666666666666</ele><time>2026-05-02T09:50:25.974Z</time></trkpt><trkpt lat="43.3110727" lon="-4.1372583"><ele>191.0</ele><time>2026-05-02T09:50:27.97Z</time></trkpt><trkpt lat="43.3110275" lon="-4.1371467"><ele>195.20000000000002</ele><time>2026-05-02T09:50:29.971Z</time></trkpt><trkpt lat="43.3109638" lon="-4.1370095"><ele>199.4</ele><time>2026-05-02T09:50:31.966Z</time></trkpt><trkpt lat="43.3109072" lon="-4.1369197"><ele>203.6</ele><time>2026-05-02T09:50:32.969Z</time></trkpt><trkpt lat="43.3108439" lon="-4.1368262"><ele>207.8</ele><time>2026-05-02T09:50:33.962Z</time></trkpt><trkpt lat="43.3107748" lon="-4.13674"><ele>212.0</ele><time>2026-05-02T09:50:34.969Z</time></trkpt><trkpt lat="43.3107047" lon="-4.1366567"><ele>212.0</ele><time>2026-05-02T09:50:35.968Z</time></trkpt><trkpt lat="43.3106313" lon="-4.1365679"><ele>212.0</ele><time>2026-05-02T09:50:36.963Z</time></trkpt><trkpt lat="43.3105604" lon="-4.1364981"><ele>212.0</ele><time>2026-05-02T09:50:37.98Z</time></trkpt><trkpt lat="43.3104888" lon="-4.136416"><ele>212.0</ele><time>2026-05-02T09:50:38.965Z</time></trkpt><trkpt lat="43.3104195" lon="-4.1363375"><ele>212.0</ele><time>2026-05-02T09:50:39.967Z</time></trkpt><trkpt lat="43.3103557" lon="-4.1362569"><ele>212.83333333333334</ele><time>2026-05-02T09:50:40.965Z</time></trkpt><trkpt lat="43.3103075" lon="-4.1361608"><ele>213.66666666666669</ele><time>2026-05-02T09:50:41.961Z</time></trkpt><trkpt lat="43.3102692" lon="-4.1360572"><ele>214.5</ele><time>2026-05-02T09:50:42.966Z</time></trkpt><trkpt lat="43.3102471" lon="-4.1359514"><ele>215.33333333333331</ele><time>2026-05-02T09:50:43.966Z</time></trkpt><trkpt lat="43.310238" lon="-4.1358387"><ele>216.16666666666666</ele><time>2026-05-02T09:50:44.963Z</time></trkpt><trkpt lat="43.3102422" lon="-4.1357318"><ele>217.0</ele><time>2026-05-02T09:50:45.961Z</time></trkpt><trkpt lat="43.3102565" lon="-4.135622"><ele>217.0</ele><time>2026-05-02T09:50:46.959Z</time></trkpt><trkpt lat="43.310266" lon="-4.1355057"><ele>217.0</ele><time>2026-05-02T09:50:47.954Z</time></trkpt><trkpt lat="43.3102675" lon="-4.1353838"><ele>217.0</ele><time>2026-05-02T09:50:48.953Z</time></trkpt><trkpt lat="43.3102631" lon="-4.1352605"><ele>217.0</ele><time>2026-05-02T09:50:49.96Z</time></trkpt><trkpt lat="43.3102532" lon="-4.1351299"><ele>217.0</ele><time>2026-05-02T09:50:50.957Z</time></trkpt><trkpt lat="43.310238" lon="-4.1350008"><ele>219.75</ele><time>2026-05-02T09:50:51.957Z</time></trkpt><trkpt lat="43.3102206" lon="-4.1348702"><ele>222.5</ele><time>2026-05-02T09:50:52.962Z</time></trkpt><trkpt lat="43.3102037" lon="-4.1347415"><ele>225.25</ele><time>2026-05-02T09:50:53.954Z</time></trkpt><trkpt lat="43.3101838" lon="-4.1346113"><ele>228.0</ele><time>2026-05-02T09:50:54.96Z</time></trkpt><trkpt lat="43.3101178" lon="-4.1343792"><ele>228.0</ele><time>2026-05-02T09:50:56.957Z</time></trkpt><trkpt lat="43.3100615" lon="-4.1342795"><ele>228.0</ele><time>2026-05-02T09:50:57.949Z</time></trkpt><trkpt lat="43.3100033" lon="-4.1341887"><ele>228.0</ele><time>2026-05-02T09:50:58.956Z</time></trkpt><trkpt lat="43.3099414" lon="-4.1341006"><ele>228.0</ele><time>2026-05-02T09:50:59.954Z</time></trkpt><trkpt lat="43.309877" lon="-4.1340085"><ele>228.0</ele><time>2026-05-02T09:51:00.958Z</time></trkpt><trkpt lat="43.3098267" lon="-4.1339011"><ele>229.4</ele><time>2026-05-02T09:51:01.958Z</time></trkpt><trkpt lat="43.3097917" lon="-4.1337887"><ele>230.8</ele><time>2026-05-02T09:51:02.963Z</time></trkpt><trkpt lat="43.3097673" lon="-4.1336638"><ele>232.2</ele><time>2026-05-02T09:51:03.961Z</time></trkpt><trkpt lat="43.3097461" lon="-4.1335377"><ele>233.6</ele><time>2026-05-02T09:51:04.965Z</time></trkpt><trkpt lat="43.3097309" lon="-4.1334079"><ele>235.0</ele><time>2026-05-02T09:51:05.966Z</time></trkpt><trkpt lat="43.3097182" lon="-4.1332799"><ele>232.8</ele><time>2026-05-02T09:51:06.962Z</time></trkpt><trkpt lat="43.309702" lon="-4.1331541"><ele>230.6</ele><time>2026-05-02T09:51:07.964Z</time></trkpt><trkpt lat="43.3096824" lon="-4.1330216"><ele>228.39999999999998</ele><time>2026-05-02T09:51:09Z</time></trkpt><trkpt lat="43.3096559" lon="-4.1328898"><ele>226.2</ele><time>2026-05-02T09:51:09.97Z</time></trkpt><trkpt lat="43.3096333" lon="-4.1327643"><ele>224.0</ele><time>2026-05-02T09:51:10.972Z</time></trkpt><trkpt lat="43.3096172" lon="-4.1326369"><ele>224.0</ele><time>2026-05-02T09:51:11.972Z</time></trkpt><trkpt lat="43.3096034" lon="-4.1325129"><ele>223.99999999999997</ele><time>2026-05-02T09:51:12.971Z</time></trkpt><trkpt lat="43.3095857" lon="-4.1323913"><ele>223.99999999999997</ele><time>2026-05-02T09:51:13.973Z</time></trkpt><trkpt lat="43.3095692" lon="-4.1322726"><ele>224.0</ele><time>2026-05-02T09:51:14.97Z</time></trkpt><trkpt lat="43.3095504" lon="-4.1321514"><ele>224.0</ele><time>2026-05-02T09:51:15.974Z</time></trkpt><trkpt lat="43.3095322" lon="-4.1320298"><ele>226.2</ele><time>2026-05-02T09:51:16.974Z</time></trkpt><trkpt lat="43.3095131" lon="-4.131909"><ele>228.39999999999998</ele><time>2026-05-02T09:51:17.973Z</time></trkpt><trkpt lat="43.3094962" lon="-4.1317868"><ele>230.6</ele><time>2026-05-02T09:51:18.968Z</time></trkpt><trkpt lat="43.3094805" lon="-4.1316689"><ele>232.8</ele><time>2026-05-02T09:51:19.968Z</time></trkpt><trkpt lat="43.3094673" lon="-4.1315467"><ele>235.0</ele><time>2026-05-02T09:51:20.966Z</time></trkpt><trkpt lat="43.3094485" lon="-4.1314122"><ele>236.8</ele><time>2026-05-02T09:51:21.963Z</time></trkpt><trkpt lat="43.3094235" lon="-4.1312747"><ele>238.6</ele><time>2026-05-02T09:51:22.967Z</time></trkpt><trkpt lat="43.3094014" lon="-4.131142"><ele>240.39999999999998</ele><time>2026-05-02T09:51:23.964Z</time></trkpt><trkpt lat="43.3093833" lon="-4.1310141"><ele>242.2</ele><time>2026-05-02T09:51:24.969Z</time></trkpt><trkpt lat="43.3093671" lon="-4.1308836"><ele>244.0</ele><time>2026-05-02T09:51:25.96Z</time></trkpt><trkpt lat="43.3093498" lon="-4.1307527"><ele>245.2</ele><time>2026-05-02T09:51:26.959Z</time></trkpt><trkpt lat="43.3093347" lon="-4.1306241"><ele>246.39999999999998</ele><time>2026-05-02T09:51:27.961Z</time></trkpt><trkpt lat="43.3093133" lon="-4.1304944"><ele>247.6</ele><time>2026-05-02T09:51:28.956Z</time></trkpt><trkpt lat="43.3092956" lon="-4.1303613"><ele>248.8</ele><time>2026-05-02T09:51:29.959Z</time></trkpt><trkpt lat="43.3092796" lon="-4.130225"><ele>250.0</ele><time>2026-05-02T09:51:30.96Z</time></trkpt><trkpt lat="43.3092664" lon="-4.1300941"><ele>250.0</ele><time>2026-05-02T09:51:31.959Z</time></trkpt><trkpt lat="43.3092573" lon="-4.129959"><ele>250.0</ele><time>2026-05-02T09:51:32.956Z</time></trkpt><trkpt lat="43.3092487" lon="-4.1298243"><ele>250.0</ele><time>2026-05-02T09:51:33.963Z</time></trkpt><trkpt lat="43.3092391" lon="-4.129683"><ele>250.0</ele><time>2026-05-02T09:51:34.965Z</time></trkpt><trkpt lat="43.3092331" lon="-4.1295434"><ele>250.0</ele><time>2026-05-02T09:51:35.967Z</time></trkpt><trkpt lat="43.3092234" lon="-4.129403"><ele>250.0</ele><time>2026-05-02T09:51:36.97Z</time></trkpt><trkpt lat="43.3092059" lon="-4.1292561"><ele>250.0</ele><time>2026-05-02T09:51:37.976Z</time></trkpt><trkpt lat="43.309181" lon="-4.1291176"><ele>250.0</ele><time>2026-05-02T09:51:38.983Z</time></trkpt><trkpt lat="43.3091396" lon="-4.1289846"><ele>250.0</ele><time>2026-05-02T09:51:39.969Z</time></trkpt><trkpt lat="43.3090789" lon="-4.1288618"><ele>250.0</ele><time>2026-05-02T09:51:40.973Z</time></trkpt><trkpt lat="43.3089909" lon="-4.1287772"><ele>250.0</ele><time>2026-05-02T09:51:41.978Z</time></trkpt><trkpt lat="43.3088994" lon="-4.1286954"><ele>250.0</ele><time>2026-05-02T09:51:42.981Z</time></trkpt><trkpt lat="43.3088091" lon="-4.1286104"><ele>250.0</ele><time>2026-05-02T09:51:43.984Z</time></trkpt><trkpt lat="43.3087213" lon="-4.128531"><ele>250.0</ele><time>2026-05-02T09:51:44.982Z</time></trkpt><trkpt lat="43.3086372" lon="-4.1284464"><ele>250.0</ele><time>2026-05-02T09:51:45.984Z</time></trkpt><trkpt lat="43.3085545" lon="-4.1283665"><ele>250.0</ele><time>2026-05-02T09:51:46.986Z</time></trkpt><trkpt lat="43.3084757" lon="-4.1282856"><ele>250.0</ele><time>2026-05-02T09:51:47.984Z</time></trkpt><trkpt lat="43.3083948" lon="-4.1282007"><ele>250.0</ele><time>2026-05-02T09:51:48.983Z</time></trkpt><trkpt lat="43.3083268" lon="-4.1281013"><ele>250.0</ele><time>2026-05-02T09:51:49.982Z</time></trkpt><trkpt lat="43.3082663" lon="-4.1280014"><ele>250.0</ele><time>2026-05-02T09:51:50.984Z</time></trkpt><trkpt lat="43.3082327" lon="-4.1278818"><ele>250.6</ele><time>2026-05-02T09:51:51.985Z</time></trkpt><trkpt lat="43.3082282" lon="-4.1277454"><ele>251.2</ele><time>2026-05-02T09:51:52.983Z</time></trkpt><trkpt lat="43.3082307" lon="-4.1276082"><ele>251.8</ele><time>2026-05-02T09:51:53.982Z</time></trkpt><trkpt lat="43.3082323" lon="-4.1274735"><ele>252.4</ele><time>2026-05-02T09:51:54.978Z</time></trkpt><trkpt lat="43.3082057" lon="-4.1273432"><ele>253.0</ele><time>2026-05-02T09:51:55.977Z</time></trkpt><trkpt lat="43.308165" lon="-4.1272296"><ele>253.0</ele><time>2026-05-02T09:51:56.971Z</time></trkpt><trkpt lat="43.3081085" lon="-4.1271279"><ele>253.0</ele><time>2026-05-02T09:51:57.971Z</time></trkpt><trkpt lat="43.3080424" lon="-4.1270287"><ele>253.0</ele><time>2026-05-02T09:51:58.978Z</time></trkpt><trkpt lat="43.3079697" lon="-4.1269478"><ele>253.0</ele><time>2026-05-02T09:51:59.975Z</time></trkpt><trkpt lat="43.3078928" lon="-4.1268764"><ele>253.0</ele><time>2026-05-02T09:52:00.968Z</time></trkpt><trkpt lat="43.3078052" lon="-4.1268279"><ele>255.2</ele><time>2026-05-02T09:52:01.967Z</time></trkpt><trkpt lat="43.3077066" lon="-4.1268121"><ele>257.4</ele><time>2026-05-02T09:52:02.972Z</time></trkpt><trkpt lat="43.307606" lon="-4.1268149"><ele>259.59999999999997</ele><time>2026-05-02T09:52:03.963Z</time></trkpt><trkpt lat="43.3075075" lon="-4.1268033"><ele>261.8</ele><time>2026-05-02T09:52:04.967Z</time></trkpt><trkpt lat="43.3074267" lon="-4.1267739"><ele>264.0</ele><time>2026-05-02T09:52:05.967Z</time></trkpt><trkpt lat="43.3073627" lon="-4.1267182"><ele>264.0</ele><time>2026-05-02T09:52:06.963Z</time></trkpt><trkpt lat="43.3073018" lon="-4.1266393"><ele>264.0</ele><time>2026-05-02T09:52:07.962Z</time></trkpt><trkpt lat="43.3072557" lon="-4.126538"><ele>264.0</ele><time>2026-05-02T09:52:08.961Z</time></trkpt><trkpt lat="43.3072308" lon="-4.1264327"><ele>264.0</ele><time>2026-05-02T09:52:09.979Z</time></trkpt><trkpt lat="43.3072134" lon="-4.1263189"><ele>264.0</ele><time>2026-05-02T09:52:10.965Z</time></trkpt><trkpt lat="43.3072163" lon="-4.1261913"><ele>264.0</ele><time>2026-05-02T09:52:11.962Z</time></trkpt><trkpt lat="43.3072253" lon="-4.1260566"><ele>265.0</ele><time>2026-05-02T09:52:12.964Z</time></trkpt><trkpt lat="43.3072326" lon="-4.1259092"><ele>266.0</ele><time>2026-05-02T09:52:13.967Z</time></trkpt><trkpt lat="43.3072518" lon="-4.1257679"><ele>267.0</ele><time>2026-05-02T09:52:14.961Z</time></trkpt><trkpt lat="43.3072804" lon="-4.1256238"><ele>268.0</ele><time>2026-05-02T09:52:15.962Z</time></trkpt><trkpt lat="43.307307" lon="-4.1254845"><ele>269.0</ele><time>2026-05-02T09:52:16.966Z</time></trkpt><trkpt lat="43.3073314" lon="-4.1253432"><ele>269.0</ele><time>2026-05-02T09:52:17.959Z</time></trkpt><trkpt lat="43.3073603" lon="-4.1251983"><ele>269.0</ele><time>2026-05-02T09:52:18.959Z</time></trkpt><trkpt lat="43.307391" lon="-4.1250616"><ele>269.0</ele><time>2026-05-02T09:52:19.962Z</time></trkpt><trkpt lat="43.3074195" lon="-4.1249228"><ele>269.0</ele><time>2026-05-02T09:52:20.97Z</time></trkpt><trkpt lat="43.3074439" lon="-4.1247808"><ele>269.0</ele><time>2026-05-02T09:52:21.968Z</time></trkpt><trkpt lat="43.3074615" lon="-4.1246401"><ele>269.0</ele><time>2026-05-02T09:52:22.97Z</time></trkpt><trkpt lat="43.3074761" lon="-4.1244946"><ele>269.0</ele><time>2026-05-02T09:52:23.965Z</time></trkpt><trkpt lat="43.3074891" lon="-4.124359"><ele>269.0</ele><time>2026-05-02T09:52:24.97Z</time></trkpt><trkpt lat="43.3075045" lon="-4.1242311"><ele>269.0</ele><time>2026-05-02T09:52:25.97Z</time></trkpt><trkpt lat="43.307523" lon="-4.1241009"><ele>269.0</ele><time>2026-05-02T09:52:26.973Z</time></trkpt><trkpt lat="43.3075528" lon="-4.1239775"><ele>268.0</ele><time>2026-05-02T09:52:27.974Z</time></trkpt><trkpt lat="43.3075808" lon="-4.1238538"><ele>267.0</ele><time>2026-05-02T09:52:28.971Z</time></trkpt><trkpt lat="43.3076113" lon="-4.1237259"><ele>266.0</ele><time>2026-05-02T09:52:29.972Z</time></trkpt><trkpt lat="43.3076319" lon="-4.1235834"><ele>265.0</ele><time>2026-05-02T09:52:30.975Z</time></trkpt><trkpt lat="43.3076361" lon="-4.1234293"><ele>264.0</ele><time>2026-05-02T09:52:31.972Z</time></trkpt><trkpt lat="43.3076294" lon="-4.1232708"><ele>263.25</ele><time>2026-05-02T09:52:32.976Z</time></trkpt><trkpt lat="43.3076126" lon="-4.1231209"><ele>262.5</ele><time>2026-05-02T09:52:33.965Z</time></trkpt><trkpt lat="43.3075893" lon="-4.1229663"><ele>261.75</ele><time>2026-05-02T09:52:34.967Z</time></trkpt><trkpt lat="43.3075619" lon="-4.1228089"><ele>261.0</ele><time>2026-05-02T09:52:35.966Z</time></trkpt><trkpt lat="43.3075334" lon="-4.1226519"><ele>261.0</ele><time>2026-05-02T09:52:36.973Z</time></trkpt><trkpt lat="43.307505" lon="-4.1224996"><ele>261.0</ele><time>2026-05-02T09:52:37.968Z</time></trkpt><trkpt lat="43.3074708" lon="-4.122355"><ele>261.0</ele><time>2026-05-02T09:52:38.967Z</time></trkpt><trkpt lat="43.3074293" lon="-4.1222162"><ele>261.0</ele><time>2026-05-02T09:52:39.966Z</time></trkpt><trkpt lat="43.307379" lon="-4.1220864"><ele>261.0</ele><time>2026-05-02T09:52:40.982Z</time></trkpt><trkpt lat="43.3073222" lon="-4.1219723"><ele>261.3333333333333</ele><time>2026-05-02T09:52:41.962Z</time></trkpt><trkpt lat="43.3072597" lon="-4.1218748"><ele>261.6666666666667</ele><time>2026-05-02T09:52:42.968Z</time></trkpt><trkpt lat="43.3072078" lon="-4.121785"><ele>262.0</ele><time>2026-05-02T09:52:43.973Z</time></trkpt><trkpt lat="43.3071712" lon="-4.121692"><ele>262.33333333333337</ele><time>2026-05-02T09:52:44.967Z</time></trkpt><trkpt lat="43.3071435" lon="-4.1215965"><ele>262.6666666666667</ele><time>2026-05-02T09:52:45.966Z</time></trkpt><trkpt lat="43.3071282" lon="-4.1214837"><ele>263.0</ele><time>2026-05-02T09:52:46.975Z</time></trkpt><trkpt lat="43.307134" lon="-4.1213572"><ele>257.8</ele><time>2026-05-02T09:52:47.968Z</time></trkpt><trkpt lat="43.3071511" lon="-4.1212169"><ele>252.60000000000002</ele><time>2026-05-02T09:52:48.972Z</time></trkpt><trkpt lat="43.3071707" lon="-4.1210836"><ele>247.39999999999998</ele><time>2026-05-02T09:52:49.972Z</time></trkpt><trkpt lat="43.307191" lon="-4.1209457"><ele>242.2</ele><time>2026-05-02T09:52:50.972Z</time></trkpt><trkpt lat="43.3072088" lon="-4.1208038"><ele>237.0</ele><time>2026-05-02T09:52:51.972Z</time></trkpt><trkpt lat="43.307224" lon="-4.1206549"><ele>235.5</ele><time>2026-05-02T09:52:52.981Z</time></trkpt><trkpt lat="43.3072393" lon="-4.1205003"><ele>234.0</ele><time>2026-05-02T09:52:53.973Z</time></trkpt><trkpt lat="43.3072534" lon="-4.1203444"><ele>232.5</ele><time>2026-05-02T09:52:54.979Z</time></trkpt><trkpt lat="43.3072805" lon="-4.1201896"><ele>231.0</ele><time>2026-05-02T09:52:55.972Z</time></trkpt><trkpt lat="43.3073179" lon="-4.1200409"><ele>232.5</ele><time>2026-05-02T09:52:56.969Z</time></trkpt><trkpt lat="43.3073686" lon="-4.1199018"><ele>234.0</ele><time>2026-05-02T09:52:57.972Z</time></trkpt><trkpt lat="43.3074271" lon="-4.1197641"><ele>235.5</ele><time>2026-05-02T09:52:58.971Z</time></trkpt><trkpt lat="43.3074953" lon="-4.1196374"><ele>237.0</ele><time>2026-05-02T09:52:59.971Z</time></trkpt><trkpt lat="43.3075749" lon="-4.1195228"><ele>237.0</ele><time>2026-05-02T09:53:00.97Z</time></trkpt><trkpt lat="43.3076599" lon="-4.1194061"><ele>237.0</ele><time>2026-05-02T09:53:01.965Z</time></trkpt><trkpt lat="43.3077475" lon="-4.1193017"><ele>237.0</ele><time>2026-05-02T09:53:02.966Z</time></trkpt><trkpt lat="43.3078371" lon="-4.119191"><ele>237.0</ele><time>2026-05-02T09:53:03.967Z</time></trkpt><trkpt lat="43.3079264" lon="-4.1190747"><ele>237.75</ele><time>2026-05-02T09:53:04.968Z</time></trkpt><trkpt lat="43.3080035" lon="-4.1189504"><ele>238.5</ele><time>2026-05-02T09:53:05.957Z</time></trkpt><trkpt lat="43.3080659" lon="-4.118822"><ele>239.25</ele><time>2026-05-02T09:53:06.961Z</time></trkpt><trkpt lat="43.3081168" lon="-4.1186854"><ele>240.0</ele><time>2026-05-02T09:53:07.959Z</time></trkpt><trkpt lat="43.3081522" lon="-4.1185418"><ele>240.0</ele><time>2026-05-02T09:53:08.959Z</time></trkpt><trkpt lat="43.3081721" lon="-4.1183895"><ele>240.0</ele><time>2026-05-02T09:53:09.957Z</time></trkpt><trkpt lat="43.308172" lon="-4.1182346"><ele>240.0</ele><time>2026-05-02T09:53:10.957Z</time></trkpt><trkpt lat="43.3081543" lon="-4.1180736"><ele>240.0</ele><time>2026-05-02T09:53:11.972Z</time></trkpt><trkpt lat="43.3081222" lon="-4.1179138"><ele>238.6</ele><time>2026-05-02T09:53:12.968Z</time></trkpt><trkpt lat="43.3080773" lon="-4.1177589"><ele>237.2</ele><time>2026-05-02T09:53:13.962Z</time></trkpt><trkpt lat="43.3080285" lon="-4.1176191"><ele>235.8</ele><time>2026-05-02T09:53:14.963Z</time></trkpt><trkpt lat="43.3079766" lon="-4.1174983"><ele>234.4</ele><time>2026-05-02T09:53:15.959Z</time></trkpt><trkpt lat="43.3079278" lon="-4.1173891"><ele>233.0</ele><time>2026-05-02T09:53:16.958Z</time></trkpt><trkpt lat="43.3078892" lon="-4.1172778"><ele>230.50000000000003</ele><time>2026-05-02T09:53:17.957Z</time></trkpt><trkpt lat="43.3078523" lon="-4.1171717"><ele>228.0</ele><time>2026-05-02T09:53:18.96Z</time></trkpt><trkpt lat="43.3078236" lon="-4.117064"><ele>225.5</ele><time>2026-05-02T09:53:19.957Z</time></trkpt><trkpt lat="43.307806" lon="-4.116952"><ele>223.0</ele><time>2026-05-02T09:53:20.961Z</time></trkpt><trkpt lat="43.3077982" lon="-4.1168378"><ele>220.50000000000003</ele><time>2026-05-02T09:53:21.962Z</time></trkpt><trkpt lat="43.3077976" lon="-4.1167221"><ele>218.0</ele><time>2026-05-02T09:53:22.964Z</time></trkpt><trkpt lat="43.307814" lon="-4.1166038"><ele>217.4</ele><time>2026-05-02T09:53:23.965Z</time></trkpt><trkpt lat="43.30784" lon="-4.116477"><ele>216.8</ele><time>2026-05-02T09:53:24.971Z</time></trkpt><trkpt lat="43.3078727" lon="-4.1163503"><ele>216.2</ele><time>2026-05-02T09:53:25.965Z</time></trkpt><trkpt lat="43.3078976" lon="-4.1162175"><ele>215.6</ele><time>2026-05-02T09:53:26.962Z</time></trkpt><trkpt lat="43.3079108" lon="-4.1160769"><ele>215.0</ele><time>2026-05-02T09:53:27.962Z</time></trkpt><trkpt lat="43.3079066" lon="-4.115939"><ele>215.0</ele><time>2026-05-02T09:53:28.964Z</time></trkpt><trkpt lat="43.3078888" lon="-4.1158003"><ele>215.0</ele><time>2026-05-02T09:53:29.957Z</time></trkpt><trkpt lat="43.3078595" lon="-4.1156679"><ele>215.0</ele><time>2026-05-02T09:53:30.958Z</time></trkpt><trkpt lat="43.3078285" lon="-4.1155311"><ele>215.0</ele><time>2026-05-02T09:53:31.954Z</time></trkpt><trkpt lat="43.307788" lon="-4.1154051"><ele>215.0</ele><time>2026-05-02T09:53:32.959Z</time></trkpt><trkpt lat="43.3077629" lon="-4.1152776"><ele>214.6</ele><time>2026-05-02T09:53:33.956Z</time></trkpt><trkpt lat="43.3077526" lon="-4.1151443"><ele>214.2</ele><time>2026-05-02T09:53:34.956Z</time></trkpt><trkpt lat="43.3077464" lon="-4.1150075"><ele>213.8</ele><time>2026-05-02T09:53:35.958Z</time></trkpt><trkpt lat="43.3077393" lon="-4.1148615"><ele>213.4</ele><time>2026-05-02T09:53:36.963Z</time></trkpt><trkpt lat="43.3077403" lon="-4.1147247"><ele>213.0</ele><time>2026-05-02T09:53:37.963Z</time></trkpt><trkpt lat="43.3077429" lon="-4.1145906"><ele>211.60000000000002</ele><time>2026-05-02T09:53:38.959Z</time></trkpt><trkpt lat="43.3077444" lon="-4.1144599"><ele>210.20000000000002</ele><time>2026-05-02T09:53:39.959Z</time></trkpt><trkpt lat="43.307745" lon="-4.1143258"><ele>208.8</ele><time>2026-05-02T09:53:40.959Z</time></trkpt><trkpt lat="43.3077471" lon="-4.1141856"><ele>207.4</ele><time>2026-05-02T09:53:41.959Z</time></trkpt><trkpt lat="43.3077505" lon="-4.1140436"><ele>206.0</ele><time>2026-05-02T09:53:42.973Z</time></trkpt><trkpt lat="43.307755" lon="-4.113902"><ele>204.0</ele><time>2026-05-02T09:53:43.959Z</time></trkpt><trkpt lat="43.3077628" lon="-4.1137608"><ele>202.0</ele><time>2026-05-02T09:53:44.957Z</time></trkpt><trkpt lat="43.3077793" lon="-4.1136223"><ele>200.0</ele><time>2026-05-02T09:53:45.958Z</time></trkpt><trkpt lat="43.3078044" lon="-4.1134858"><ele>198.0</ele><time>2026-05-02T09:53:46.96Z</time></trkpt><trkpt lat="43.3078374" lon="-4.113348"><ele>196.0</ele><time>2026-05-02T09:53:47.957Z</time></trkpt><trkpt lat="43.3078729" lon="-4.1132098"><ele>194.8</ele><time>2026-05-02T09:53:48.966Z</time></trkpt><trkpt lat="43.3079018" lon="-4.1130672"><ele>193.60000000000002</ele><time>2026-05-02T09:53:49.962Z</time></trkpt><trkpt lat="43.3079361" lon="-4.1129232"><ele>192.4</ele><time>2026-05-02T09:53:50.962Z</time></trkpt><trkpt lat="43.3079682" lon="-4.1127791"><ele>191.2</ele><time>2026-05-02T09:53:51.962Z</time></trkpt><trkpt lat="43.3080054" lon="-4.1126355"><ele>190.0</ele><time>2026-05-02T09:53:52.966Z</time></trkpt><trkpt lat="43.308048" lon="-4.1124946"><ele>191.6</ele><time>2026-05-02T09:53:53.963Z</time></trkpt><trkpt lat="43.3081006" lon="-4.1123589"><ele>193.2</ele><time>2026-05-02T09:53:54.966Z</time></trkpt><trkpt lat="43.3081588" lon="-4.112229"><ele>194.8</ele><time>2026-05-02T09:53:55.967Z</time></trkpt><trkpt lat="43.3082238" lon="-4.1121111"><ele>196.4</ele><time>2026-05-02T09:53:56.965Z</time></trkpt><trkpt lat="43.3082899" lon="-4.1119967"><ele>198.0</ele><time>2026-05-02T09:53:57.965Z</time></trkpt><trkpt lat="43.3083565" lon="-4.1118904"><ele>198.0</ele><time>2026-05-02T09:53:58.971Z</time></trkpt><trkpt lat="43.3084225" lon="-4.1117823"><ele>198.0</ele><time>2026-05-02T09:53:59.964Z</time></trkpt><trkpt lat="43.3084849" lon="-4.1116724"><ele>198.0</ele><time>2026-05-02T09:54:00.959Z</time></trkpt><trkpt lat="43.3085381" lon="-4.1115583"><ele>198.0</ele><time>2026-05-02T09:54:01.96Z</time></trkpt><trkpt lat="43.3085775" lon="-4.1114467"><ele>198.0</ele><time>2026-05-02T09:54:02.962Z</time></trkpt><trkpt lat="43.3086027" lon="-4.11133"><ele>198.0</ele><time>2026-05-02T09:54:03.961Z</time></trkpt><trkpt lat="43.3086143" lon="-4.1112109"><ele>198.0</ele><time>2026-05-02T09:54:04.963Z</time></trkpt><trkpt lat="43.3086076" lon="-4.1110953"><ele>198.0</ele><time>2026-05-02T09:54:05.962Z</time></trkpt><trkpt lat="43.3085845" lon="-4.1109909"><ele>198.0</ele><time>2026-05-02T09:54:06.963Z</time></trkpt><trkpt lat="43.3085321" lon="-4.1109137"><ele>198.0</ele><time>2026-05-02T09:54:07.96Z</time></trkpt><trkpt lat="43.3084601" lon="-4.1108549"><ele>198.0</ele><time>2026-05-02T09:54:08.959Z</time></trkpt><trkpt lat="43.3083776" lon="-4.1108023"><ele>198.0</ele><time>2026-05-02T09:54:09.965Z</time></trkpt><trkpt lat="43.3083002" lon="-4.1107551"><ele>198.0</ele><time>2026-05-02T09:54:10.966Z</time></trkpt><trkpt lat="43.3082398" lon="-4.1106982"><ele>198.0</ele><time>2026-05-02T09:54:11.967Z</time></trkpt><trkpt lat="43.3081925" lon="-4.1106262"><ele>198.0</ele><time>2026-05-02T09:54:12.964Z</time></trkpt><trkpt lat="43.308159" lon="-4.110538"><ele>198.0</ele><time>2026-05-02T09:54:13.976Z</time></trkpt><trkpt lat="43.3081305" lon="-4.1104351"><ele>198.0</ele><time>2026-05-02T09:54:14.956Z</time></trkpt><trkpt lat="43.3081205" lon="-4.1103331"><ele>197.4</ele><time>2026-05-02T09:54:15.956Z</time></trkpt><trkpt lat="43.3081225" lon="-4.1102283"><ele>196.8</ele><time>2026-05-02T09:54:16.966Z</time></trkpt><trkpt lat="43.3081251" lon="-4.1101071"><ele>196.2</ele><time>2026-05-02T09:54:17.956Z</time></trkpt><trkpt lat="43.3081365" lon="-4.1099789"><ele>195.6</ele><time>2026-05-02T09:54:18.957Z</time></trkpt><trkpt lat="43.3081579" lon="-4.1098152"><ele>195.0</ele><time>2026-05-02T09:54:19.959Z</time></trkpt><trkpt lat="43.3081736" lon="-4.1096409"><ele>195.0</ele><time>2026-05-02T09:54:20.959Z</time></trkpt><trkpt lat="43.3081821" lon="-4.1094729"><ele>195.0</ele><time>2026-05-02T09:54:21.958Z</time></trkpt><trkpt lat="43.3081821" lon="-4.1093136"><ele>195.0</ele><time>2026-05-02T09:54:22.964Z</time></trkpt><trkpt lat="43.3081735" lon="-4.109151"><ele>195.0</ele><time>2026-05-02T09:54:23.96Z</time></trkpt><trkpt lat="43.3081599" lon="-4.108999"><ele>195.0</ele><time>2026-05-02T09:54:24.968Z</time></trkpt><trkpt lat="43.3081451" lon="-4.1088565"><ele>195.0</ele><time>2026-05-02T09:54:25.961Z</time></trkpt><trkpt lat="43.3081344" lon="-4.1087159"><ele>195.0</ele><time>2026-05-02T09:54:26.962Z</time></trkpt><trkpt lat="43.3081251" lon="-4.1085803"><ele>195.0</ele><time>2026-05-02T09:54:27.963Z</time></trkpt><trkpt lat="43.308114" lon="-4.1084436"><ele>195.0</ele><time>2026-05-02T09:54:28.966Z</time></trkpt><trkpt lat="43.3081013" lon="-4.1083135"><ele>194.8</ele><time>2026-05-02T09:54:29.964Z</time></trkpt><trkpt lat="43.3080872" lon="-4.1081809"><ele>194.6</ele><time>2026-05-02T09:54:30.963Z</time></trkpt><trkpt lat="43.3080775" lon="-4.1080484"><ele>194.39999999999998</ele><time>2026-05-02T09:54:31.962Z</time></trkpt><trkpt lat="43.3080724" lon="-4.1079167"><ele>194.2</ele><time>2026-05-02T09:54:32.961Z</time></trkpt><trkpt lat="43.3080765" lon="-4.1077804"><ele>194.0</ele><time>2026-05-02T09:54:33.96Z</time></trkpt><trkpt lat="43.3080823" lon="-4.1076344"><ele>194.0</ele><time>2026-05-02T09:54:34.957Z</time></trkpt><trkpt lat="43.3080964" lon="-4.1074899"><ele>194.0</ele><time>2026-05-02T09:54:35.955Z</time></trkpt><trkpt lat="43.3081113" lon="-4.1073405"><ele>194.0</ele><time>2026-05-02T09:54:36.957Z</time></trkpt><trkpt lat="43.3081238" lon="-4.1071909"><ele>194.0</ele><time>2026-05-02T09:54:37.955Z</time></trkpt><trkpt lat="43.308135" lon="-4.1070419"><ele>194.0</ele><time>2026-05-02T09:54:38.955Z</time></trkpt><trkpt lat="43.3081481" lon="-4.1068911"><ele>192.79999999999998</ele><time>2026-05-02T09:54:39.959Z</time></trkpt><trkpt lat="43.3081608" lon="-4.1067413"><ele>191.6</ele><time>2026-05-02T09:54:40.958Z</time></trkpt><trkpt lat="43.3081748" lon="-4.1065932"><ele>190.4</ele><time>2026-05-02T09:54:41.96Z</time></trkpt><trkpt lat="43.3081904" lon="-4.1064421"><ele>189.2</ele><time>2026-05-02T09:54:42.96Z</time></trkpt><trkpt lat="43.3082031" lon="-4.1062885"><ele>188.0</ele><time>2026-05-02T09:54:43.958Z</time></trkpt><trkpt lat="43.308211" lon="-4.1061371"><ele>187.0</ele><time>2026-05-02T09:54:44.976Z</time></trkpt><trkpt lat="43.3082056" lon="-4.1059779"><ele>186.0</ele><time>2026-05-02T09:54:45.967Z</time></trkpt><trkpt lat="43.3081885" lon="-4.1058276"><ele>185.0</ele><time>2026-05-02T09:54:46.968Z</time></trkpt><trkpt lat="43.3081684" lon="-4.1056857"><ele>184.0</ele><time>2026-05-02T09:54:47.972Z</time></trkpt><trkpt lat="43.3081429" lon="-4.1055504"><ele>183.0</ele><time>2026-05-02T09:54:48.966Z</time></trkpt><trkpt lat="43.3081202" lon="-4.1054291"><ele>182.8</ele><time>2026-05-02T09:54:49.964Z</time></trkpt><trkpt lat="43.3080951" lon="-4.1053044"><ele>182.60000000000002</ele><time>2026-05-02T09:54:50.964Z</time></trkpt><trkpt lat="43.3080834" lon="-4.1051763"><ele>182.39999999999998</ele><time>2026-05-02T09:54:51.967Z</time></trkpt><trkpt lat="43.3080772" lon="-4.1050473"><ele>182.2</ele><time>2026-05-02T09:54:52.964Z</time></trkpt><trkpt lat="43.3080734" lon="-4.1049155"><ele>182.0</ele><time>2026-05-02T09:54:53.97Z</time></trkpt><trkpt lat="43.3080679" lon="-4.1047823"><ele>176.79999999999998</ele><time>2026-05-02T09:54:54.97Z</time></trkpt><trkpt lat="43.3080652" lon="-4.1046509"><ele>171.6</ele><time>2026-05-02T09:54:55.969Z</time></trkpt><trkpt lat="43.3080651" lon="-4.1045285"><ele>166.39999999999998</ele><time>2026-05-02T09:54:56.965Z</time></trkpt><trkpt lat="43.3080588" lon="-4.1044042"><ele>161.2</ele><time>2026-05-02T09:54:57.966Z</time></trkpt><trkpt lat="43.3080499" lon="-4.1042838"><ele>156.0</ele><time>2026-05-02T09:54:58.963Z</time></trkpt><trkpt lat="43.3080375" lon="-4.1041509"><ele>156.6</ele><time>2026-05-02T09:54:59.964Z</time></trkpt><trkpt lat="43.3080231" lon="-4.1040128"><ele>157.2</ele><time>2026-05-02T09:55:00.963Z</time></trkpt><trkpt lat="43.3079964" lon="-4.1038688"><ele>157.8</ele><time>2026-05-02T09:55:01.96Z</time></trkpt><trkpt lat="43.3079603" lon="-4.1037327"><ele>158.4</ele><time>2026-05-02T09:55:02.966Z</time></trkpt><trkpt lat="43.307916" lon="-4.1036038"><ele>159.0</ele><time>2026-05-02T09:55:03.963Z</time></trkpt><trkpt lat="43.3078668" lon="-4.1034809"><ele>159.0</ele><time>2026-05-02T09:55:04.966Z</time></trkpt><trkpt lat="43.307816" lon="-4.1033691"><ele>159.0</ele><time>2026-05-02T09:55:05.964Z</time></trkpt><trkpt lat="43.3077629" lon="-4.103258"><ele>159.0</ele><time>2026-05-02T09:55:06.969Z</time></trkpt><trkpt lat="43.307712" lon="-4.1031476"><ele>159.0</ele><time>2026-05-02T09:55:07.96Z</time></trkpt><trkpt lat="43.3076577" lon="-4.1030315"><ele>159.0</ele><time>2026-05-02T09:55:08.965Z</time></trkpt><trkpt lat="43.3076086" lon="-4.1029169"><ele>160.2</ele><time>2026-05-02T09:55:09.967Z</time></trkpt><trkpt lat="43.307562" lon="-4.1027957"><ele>161.4</ele><time>2026-05-02T09:55:10.967Z</time></trkpt><trkpt lat="43.307511" lon="-4.1026717"><ele>162.6</ele><time>2026-05-02T09:55:11.971Z</time></trkpt><trkpt lat="43.307454" lon="-4.1025421"><ele>163.8</ele><time>2026-05-02T09:55:12.966Z</time></trkpt><trkpt lat="43.3073983" lon="-4.1024169"><ele>165.0</ele><time>2026-05-02T09:55:13.969Z</time></trkpt><trkpt lat="43.3073345" lon="-4.1022864"><ele>166.5</ele><time>2026-05-02T09:55:14.962Z</time></trkpt><trkpt lat="43.3072731" lon="-4.1021574"><ele>168.0</ele><time>2026-05-02T09:55:15.987Z</time></trkpt><trkpt lat="43.3072193" lon="-4.1020211"><ele>169.5</ele><time>2026-05-02T09:55:16.982Z</time></trkpt><trkpt lat="43.3071755" lon="-4.1018798"><ele>171.0</ele><time>2026-05-02T09:55:17.972Z</time></trkpt><trkpt lat="43.3071414" lon="-4.1017289"><ele>165.0</ele><time>2026-05-02T09:55:18.969Z</time></trkpt><trkpt lat="43.3071133" lon="-4.1015772"><ele>159.0</ele><time>2026-05-02T09:55:19.974Z</time></trkpt><trkpt lat="43.3070952" lon="-4.1014263"><ele>153.0</ele><time>2026-05-02T09:55:20.966Z</time></trkpt><trkpt lat="43.3070836" lon="-4.1012733"><ele>147.0</ele><time>2026-05-02T09:55:21.974Z</time></trkpt><trkpt lat="43.3070699" lon="-4.1011192"><ele>147.0</ele><time>2026-05-02T09:55:22.969Z</time></trkpt><trkpt lat="43.3070534" lon="-4.1009652"><ele>147.0</ele><time>2026-05-02T09:55:23.96Z</time></trkpt><trkpt lat="43.3070332" lon="-4.1008065"><ele>147.0</ele><time>2026-05-02T09:55:24.974Z</time></trkpt><trkpt lat="43.30701" lon="-4.1006543"><ele>147.0</ele><time>2026-05-02T09:55:25.963Z</time></trkpt><trkpt lat="43.3069876" lon="-4.1005019"><ele>146.6</ele><time>2026-05-02T09:55:26.971Z</time></trkpt><trkpt lat="43.3069628" lon="-4.1003589"><ele>146.2</ele><time>2026-05-02T09:55:27.965Z</time></trkpt><trkpt lat="43.3069438" lon="-4.1002212"><ele>145.8</ele><time>2026-05-02T09:55:28.973Z</time></trkpt><trkpt lat="43.3069314" lon="-4.1000832"><ele>145.4</ele><time>2026-05-02T09:55:29.971Z</time></trkpt><trkpt lat="43.3069296" lon="-4.0999453"><ele>145.0</ele><time>2026-05-02T09:55:30.968Z</time></trkpt><trkpt lat="43.3069461" lon="-4.0998086"><ele>144.4</ele><time>2026-05-02T09:55:31.962Z</time></trkpt><trkpt lat="43.3069729" lon="-4.0996705"><ele>143.8</ele><time>2026-05-02T09:55:32.964Z</time></trkpt><trkpt lat="43.307012" lon="-4.0995359"><ele>143.2</ele><time>2026-05-02T09:55:33.972Z</time></trkpt><trkpt lat="43.3070472" lon="-4.0993915"><ele>142.6</ele><time>2026-05-02T09:55:34.964Z</time></trkpt><trkpt lat="43.3070733" lon="-4.0992384"><ele>142.0</ele><time>2026-05-02T09:55:35.964Z</time></trkpt><trkpt lat="43.3070887" lon="-4.0990839"><ele>141.0</ele><time>2026-05-02T09:55:36.958Z</time></trkpt><trkpt lat="43.3070986" lon="-4.0989255"><ele>140.0</ele><time>2026-05-02T09:55:37.967Z</time></trkpt><trkpt lat="43.3071018" lon="-4.0987666"><ele>139.0</ele><time>2026-05-02T09:55:38.968Z</time></trkpt><trkpt lat="43.3071065" lon="-4.0986106"><ele>138.0</ele><time>2026-05-02T09:55:39.961Z</time></trkpt><trkpt lat="43.30711" lon="-4.0984606"><ele>138.0</ele><time>2026-05-02T09:55:40.965Z</time></trkpt><trkpt lat="43.3071117" lon="-4.0983157"><ele>138.0</ele><time>2026-05-02T09:55:41.97Z</time></trkpt><trkpt lat="43.3071028" lon="-4.0981724"><ele>138.0</ele><time>2026-05-02T09:55:42.965Z</time></trkpt><trkpt lat="43.3070881" lon="-4.0980194"><ele>138.0</ele><time>2026-05-02T09:55:43.97Z</time></trkpt><trkpt lat="43.3070723" lon="-4.0978817"><ele>138.0</ele><time>2026-05-02T09:55:44.969Z</time></trkpt><trkpt lat="43.3070605" lon="-4.0977445"><ele>136.6</ele><time>2026-05-02T09:55:45.972Z</time></trkpt><trkpt lat="43.3070522" lon="-4.097615"><ele>135.20000000000002</ele><time>2026-05-02T09:55:46.997Z</time></trkpt><trkpt lat="43.3070435" lon="-4.0974843"><ele>133.8</ele><time>2026-05-02T09:55:47.973Z</time></trkpt><trkpt lat="43.3070371" lon="-4.0973588"><ele>132.4</ele><time>2026-05-02T09:55:48.962Z</time></trkpt><trkpt lat="43.3070345" lon="-4.0972343"><ele>131.0</ele><time>2026-05-02T09:55:49.976Z</time></trkpt><trkpt lat="43.307034" lon="-4.0971099"><ele>130.83333333333331</ele><time>2026-05-02T09:55:50.965Z</time></trkpt><trkpt lat="43.3070395" lon="-4.0969874"><ele>130.66666666666666</ele><time>2026-05-02T09:55:51.969Z</time></trkpt><trkpt lat="43.3070652" lon="-4.0968626"><ele>130.5</ele><time>2026-05-02T09:55:52.97Z</time></trkpt><trkpt lat="43.307107" lon="-4.0967576"><ele>130.33333333333334</ele><time>2026-05-02T09:55:53.967Z</time></trkpt><trkpt lat="43.307159" lon="-4.0966671"><ele>130.16666666666669</ele><time>2026-05-02T09:55:54.965Z</time></trkpt><trkpt lat="43.3072217" lon="-4.0965776"><ele>130.0</ele><time>2026-05-02T09:55:55.968Z</time></trkpt><trkpt lat="43.3072988" lon="-4.0964934"><ele>130.8</ele><time>2026-05-02T09:55:56.962Z</time></trkpt><trkpt lat="43.307379" lon="-4.0964083"><ele>131.6</ele><time>2026-05-02T09:55:57.971Z</time></trkpt><trkpt lat="43.3074564" lon="-4.0963244"><ele>132.4</ele><time>2026-05-02T09:55:58.969Z</time></trkpt><trkpt lat="43.3075266" lon="-4.0962294"><ele>133.2</ele><time>2026-05-02T09:55:59.972Z</time></trkpt><trkpt lat="43.3075908" lon="-4.0961307"><ele>134.0</ele><time>2026-05-02T09:56:00.965Z</time></trkpt><trkpt lat="43.3076508" lon="-4.0960319"><ele>134.0</ele><time>2026-05-02T09:56:01.966Z</time></trkpt><trkpt lat="43.3077046" lon="-4.0959183"><ele>134.0</ele><time>2026-05-02T09:56:02.967Z</time></trkpt><trkpt lat="43.3077472" lon="-4.0957939"><ele>134.0</ele><time>2026-05-02T09:56:03.963Z</time></trkpt><trkpt lat="43.3077901" lon="-4.0956731"><ele>134.0</ele><time>2026-05-02T09:56:04.96Z</time></trkpt><trkpt lat="43.3078337" lon="-4.0955604"><ele>134.0</ele><time>2026-05-02T09:56:05.958Z</time></trkpt><trkpt lat="43.3078869" lon="-4.0954411"><ele>133.6</ele><time>2026-05-02T09:56:06.96Z</time></trkpt><trkpt lat="43.3079377" lon="-4.0953302"><ele>133.2</ele><time>2026-05-02T09:56:07.956Z</time></trkpt><trkpt lat="43.307995" lon="-4.0952233"><ele>132.79999999999998</ele><time>2026-05-02T09:56:08.952Z</time></trkpt><trkpt lat="43.3080567" lon="-4.0950984"><ele>132.4</ele><time>2026-05-02T09:56:09.959Z</time></trkpt><trkpt lat="43.3081172" lon="-4.0949715"><ele>132.0</ele><time>2026-05-02T09:56:10.955Z</time></trkpt><trkpt lat="43.308178" lon="-4.0948435"><ele>132.0</ele><time>2026-05-02T09:56:11.958Z</time></trkpt><trkpt lat="43.3082304" lon="-4.0947186"><ele>132.0</ele><time>2026-05-02T09:56:12.959Z</time></trkpt><trkpt lat="43.3082748" lon="-4.0945768"><ele>132.0</ele><time>2026-05-02T09:56:13.957Z</time></trkpt><trkpt lat="43.3083083" lon="-4.0944375"><ele>132.0</ele><time>2026-05-02T09:56:14.956Z</time></trkpt><trkpt lat="43.3083675" lon="-4.0941598"><ele>131.0</ele><time>2026-05-02T09:56:16.982Z</time></trkpt><trkpt lat="43.3083854" lon="-4.0940112"><ele>130.0</ele><time>2026-05-02T09:56:17.959Z</time></trkpt><trkpt lat="43.30839" lon="-4.0938644"><ele>129.0</ele><time>2026-05-02T09:56:18.961Z</time></trkpt><trkpt lat="43.3083815" lon="-4.0937167"><ele>128.0</ele><time>2026-05-02T09:56:19.966Z</time></trkpt><trkpt lat="43.3083709" lon="-4.0935633"><ele>127.0</ele><time>2026-05-02T09:56:20.977Z</time></trkpt><trkpt lat="43.3083669" lon="-4.0934117"><ele>127.0</ele><time>2026-05-02T09:56:21.971Z</time></trkpt><trkpt lat="43.3083627" lon="-4.0932585"><ele>127.0</ele><time>2026-05-02T09:56:22.972Z</time></trkpt><trkpt lat="43.3083672" lon="-4.0930955"><ele>127.0</ele><time>2026-05-02T09:56:23.965Z</time></trkpt><trkpt lat="43.3083891" lon="-4.0929306"><ele>127.0</ele><time>2026-05-02T09:56:24.98Z</time></trkpt><trkpt lat="43.3084282" lon="-4.092763"><ele>124.0</ele><time>2026-05-02T09:56:25.966Z</time></trkpt><trkpt lat="43.3084793" lon="-4.0925899"><ele>121.0</ele><time>2026-05-02T09:56:26.966Z</time></trkpt><trkpt lat="43.3085424" lon="-4.0924214"><ele>118.0</ele><time>2026-05-02T09:56:27.978Z</time></trkpt><trkpt lat="43.3086121" lon="-4.092257"><ele>115.0</ele><time>2026-05-02T09:56:28.977Z</time></trkpt><trkpt lat="43.3086916" lon="-4.0920979"><ele>115.5</ele><time>2026-05-02T09:56:29.98Z</time></trkpt><trkpt lat="43.308769" lon="-4.0919375"><ele>116.0</ele><time>2026-05-02T09:56:30.979Z</time></trkpt><trkpt lat="43.30886" lon="-4.0917907"><ele>116.5</ele><time>2026-05-02T09:56:31.974Z</time></trkpt><trkpt lat="43.3089332" lon="-4.0916484"><ele>117.0</ele><time>2026-05-02T09:56:32.983Z</time></trkpt><trkpt lat="43.3090018" lon="-4.0915009"><ele>115.5</ele><time>2026-05-02T09:56:33.982Z</time></trkpt><trkpt lat="43.3090648" lon="-4.0913643"><ele>114.0</ele><time>2026-05-02T09:56:34.979Z</time></trkpt><trkpt lat="43.3091215" lon="-4.0912257"><ele>112.5</ele><time>2026-05-02T09:56:35.98Z</time></trkpt><trkpt lat="43.3091802" lon="-4.0910848"><ele>111.0</ele><time>2026-05-02T09:56:36.978Z</time></trkpt><trkpt lat="43.3092363" lon="-4.0909533"><ele>111.0</ele><time>2026-05-02T09:56:37.979Z</time></trkpt><trkpt lat="43.3092817" lon="-4.0908273"><ele>111.0</ele><time>2026-05-02T09:56:38.981Z</time></trkpt><trkpt lat="43.3093254" lon="-4.090698"><ele>111.0</ele><time>2026-05-02T09:56:39.975Z</time></trkpt><trkpt lat="43.3093486" lon="-4.0905668"><ele>111.0</ele><time>2026-05-02T09:56:40.973Z</time></trkpt><trkpt lat="43.3093468" lon="-4.0904248"><ele>111.0</ele><time>2026-05-02T09:56:41.977Z</time></trkpt><trkpt lat="43.3093238" lon="-4.0902682"><ele>111.5</ele><time>2026-05-02T09:56:42.98Z</time></trkpt><trkpt lat="43.3092916" lon="-4.090114"><ele>112.0</ele><time>2026-05-02T09:56:43.974Z</time></trkpt><trkpt lat="43.3092605" lon="-4.0899527"><ele>112.5</ele><time>2026-05-02T09:56:44.972Z</time></trkpt><trkpt lat="43.3092349" lon="-4.0897828"><ele>113.0</ele><time>2026-05-02T09:56:45.977Z</time></trkpt><trkpt lat="43.3092079" lon="-4.0896077"><ele>113.25</ele><time>2026-05-02T09:56:46.978Z</time></trkpt><trkpt lat="43.309183" lon="-4.0894268"><ele>113.5</ele><time>2026-05-02T09:56:47.984Z</time></trkpt><trkpt lat="43.3091621" lon="-4.0892434"><ele>113.75</ele><time>2026-05-02T09:56:48.966Z</time></trkpt><trkpt lat="43.3091379" lon="-4.0890568"><ele>114.0</ele><time>2026-05-02T09:56:49.97Z</time></trkpt><trkpt lat="43.3091126" lon="-4.0888693"><ele>115.5</ele><time>2026-05-02T09:56:50.965Z</time></trkpt><trkpt lat="43.3090825" lon="-4.0886839"><ele>117.0</ele><time>2026-05-02T09:56:51.969Z</time></trkpt><trkpt lat="43.309032" lon="-4.0884999"><ele>118.5</ele><time>2026-05-02T09:56:52.976Z</time></trkpt><trkpt lat="43.3089634" lon="-4.0883284"><ele>120.0</ele><time>2026-05-02T09:56:53.979Z</time></trkpt><trkpt lat="43.3089052" lon="-4.0881623"><ele>116.0</ele><time>2026-05-02T09:56:54.979Z</time></trkpt><trkpt lat="43.3088539" lon="-4.087987"><ele>112.0</ele><time>2026-05-02T09:56:55.977Z</time></trkpt><trkpt lat="43.3088013" lon="-4.087819"><ele>108.0</ele><time>2026-05-02T09:56:56.978Z</time></trkpt><trkpt lat="43.3087632" lon="-4.0876514"><ele>104.0</ele><time>2026-05-02T09:56:57.977Z</time></trkpt><trkpt lat="43.3087395" lon="-4.0874902"><ele>104.25</ele><time>2026-05-02T09:56:58.977Z</time></trkpt><trkpt lat="43.3087268" lon="-4.0873021"><ele>104.5</ele><time>2026-05-02T09:56:59.976Z</time></trkpt><trkpt lat="43.3087054" lon="-4.087122"><ele>104.75</ele><time>2026-05-02T09:57:00.975Z</time></trkpt><trkpt lat="43.3086809" lon="-4.0869371"><ele>105.0</ele><time>2026-05-02T09:57:01.979Z</time></trkpt><trkpt lat="43.3086446" lon="-4.0867574"><ele>106.25</ele><time>2026-05-02T09:57:02.976Z</time></trkpt><trkpt lat="43.3086068" lon="-4.0865813"><ele>107.5</ele><time>2026-05-02T09:57:03.98Z</time></trkpt><trkpt lat="43.3085678" lon="-4.0864125"><ele>108.75</ele><time>2026-05-02T09:57:04.968Z</time></trkpt><trkpt lat="43.3085328" lon="-4.0862433"><ele>110.0</ele><time>2026-05-02T09:57:05.979Z</time></trkpt><trkpt lat="43.3085035" lon="-4.0860785"><ele>110.0</ele><time>2026-05-02T09:57:06.972Z</time></trkpt><trkpt lat="43.3084841" lon="-4.0859181"><ele>110.0</ele><time>2026-05-02T09:57:07.968Z</time></trkpt><trkpt lat="43.3084711" lon="-4.0857559"><ele>110.0</ele><time>2026-05-02T09:57:08.98Z</time></trkpt><trkpt lat="43.3084612" lon="-4.0855893"><ele>110.0</ele><time>2026-05-02T09:57:09.981Z</time></trkpt><trkpt lat="43.3084496" lon="-4.08542"><ele>112.75</ele><time>2026-05-02T09:57:10.976Z</time></trkpt><trkpt lat="43.3084401" lon="-4.0852591"><ele>115.5</ele><time>2026-05-02T09:57:11.982Z</time></trkpt><trkpt lat="43.3084415" lon="-4.0850991"><ele>118.25</ele><time>2026-05-02T09:57:12.978Z</time></trkpt><trkpt lat="43.3084535" lon="-4.0849374"><ele>121.0</ele><time>2026-05-02T09:57:13.965Z</time></trkpt><trkpt lat="43.3084565" lon="-4.0847767"><ele>122.0</ele><time>2026-05-02T09:57:14.96Z</time></trkpt><trkpt lat="43.3084529" lon="-4.0846245"><ele>123.0</ele><time>2026-05-02T09:57:15.96Z</time></trkpt><trkpt lat="43.3084393" lon="-4.0844709"><ele>124.0</ele><time>2026-05-02T09:57:16.966Z</time></trkpt><trkpt lat="43.3084146" lon="-4.0843277"><ele>125.0</ele><time>2026-05-02T09:57:17.967Z</time></trkpt><trkpt lat="43.308369" lon="-4.0841975"><ele>126.0</ele><time>2026-05-02T09:57:18.984Z</time></trkpt><trkpt lat="43.3083158" lon="-4.0840789"><ele>125.4</ele><time>2026-05-02T09:57:19.967Z</time></trkpt><trkpt lat="43.3082483" lon="-4.0839864"><ele>124.8</ele><time>2026-05-02T09:57:20.979Z</time></trkpt><trkpt lat="43.3081589" lon="-4.0839405"><ele>124.20000000000002</ele><time>2026-05-02T09:57:21.972Z</time></trkpt><trkpt lat="43.308055" lon="-4.083947"><ele>123.60000000000001</ele><time>2026-05-02T09:57:22.974Z</time></trkpt><trkpt lat="43.307948" lon="-4.0839607"><ele>123.0</ele><time>2026-05-02T09:57:23.971Z</time></trkpt><trkpt lat="43.3078414" lon="-4.0839746"><ele>123.0</ele><time>2026-05-02T09:57:24.984Z</time></trkpt><trkpt lat="43.30774" lon="-4.0839764"><ele>123.00000000000001</ele><time>2026-05-02T09:57:25.976Z</time></trkpt><trkpt lat="43.3076519" lon="-4.0839495"><ele>123.00000000000001</ele><time>2026-05-02T09:57:26.976Z</time></trkpt><trkpt lat="43.3075697" lon="-4.0839009"><ele>123.0</ele><time>2026-05-02T09:57:27.976Z</time></trkpt><trkpt lat="43.3074945" lon="-4.0838274"><ele>123.0</ele><time>2026-05-02T09:57:28.978Z</time></trkpt><trkpt lat="43.3074238" lon="-4.0837395"><ele>123.0</ele><time>2026-05-02T09:57:29.982Z</time></trkpt><trkpt lat="43.3073623" lon="-4.0836317"><ele>123.00000000000001</ele><time>2026-05-02T09:57:30.984Z</time></trkpt><trkpt lat="43.3073047" lon="-4.0835205"><ele>123.00000000000001</ele><time>2026-05-02T09:57:31.973Z</time></trkpt><trkpt lat="43.3072506" lon="-4.0834057"><ele>123.0</ele><time>2026-05-02T09:57:32.974Z</time></trkpt><trkpt lat="43.3071903" lon="-4.0833115"><ele>123.0</ele><time>2026-05-02T09:57:33.977Z</time></trkpt><trkpt lat="43.3071198" lon="-4.0832346"><ele>121.0</ele><time>2026-05-02T09:57:34.974Z</time></trkpt><trkpt lat="43.3070431" lon="-4.0831727"><ele>119.00000000000001</ele><time>2026-05-02T09:57:35.973Z</time></trkpt><trkpt lat="43.3069564" lon="-4.08314"><ele>117.00000000000001</ele><time>2026-05-02T09:57:36.978Z</time></trkpt><trkpt lat="43.3068637" lon="-4.0831382"><ele>115.0</ele><time>2026-05-02T09:57:37.967Z</time></trkpt><trkpt lat="43.3067695" lon="-4.0831439"><ele>113.0</ele><time>2026-05-02T09:57:38.97Z</time></trkpt><trkpt lat="43.3066818" lon="-4.0831422"><ele>112.99999999999999</ele><time>2026-05-02T09:57:39.975Z</time></trkpt><trkpt lat="43.306599" lon="-4.0831309"><ele>113.0</ele><time>2026-05-02T09:57:40.977Z</time></trkpt><trkpt lat="43.3065218" lon="-4.0831032"><ele>113.0</ele><time>2026-05-02T09:57:41.973Z</time></trkpt><trkpt lat="43.3064542" lon="-4.0830613"><ele>113.0</ele><time>2026-05-02T09:57:42.972Z</time></trkpt><trkpt lat="43.3063968" lon="-4.082995"><ele>112.99999999999999</ele><time>2026-05-02T09:57:43.976Z</time></trkpt><trkpt lat="43.3063622" lon="-4.0829118"><ele>113.0</ele><time>2026-05-02T09:57:44.965Z</time></trkpt><trkpt lat="43.306352" lon="-4.0828161"><ele>113.0</ele><time>2026-05-02T09:57:45.966Z</time></trkpt><trkpt lat="43.3063623" lon="-4.0827171"><ele>113.00000000000001</ele><time>2026-05-02T09:57:46.984Z</time></trkpt><trkpt lat="43.3064095" lon="-4.0826042"><ele>113.00000000000001</ele><time>2026-05-02T09:57:47.981Z</time></trkpt><trkpt lat="43.3064817" lon="-4.082482"><ele>113.0</ele><time>2026-05-02T09:57:48.969Z</time></trkpt><trkpt lat="43.3065736" lon="-4.0823911"><ele>113.0</ele><time>2026-05-02T09:57:49.982Z</time></trkpt><trkpt lat="43.3066705" lon="-4.0823201"><ele>110.80000000000001</ele><time>2026-05-02T09:57:50.967Z</time></trkpt><trkpt lat="43.3067711" lon="-4.0822685"><ele>108.60000000000001</ele><time>2026-05-02T09:57:51.964Z</time></trkpt><trkpt lat="43.3068856" lon="-4.0822323"><ele>106.4</ele><time>2026-05-02T09:57:52.977Z</time></trkpt><trkpt lat="43.3069946" lon="-4.0821918"><ele>104.19999999999999</ele><time>2026-05-02T09:57:53.967Z</time></trkpt><trkpt lat="43.3070937" lon="-4.0821411"><ele>102.0</ele><time>2026-05-02T09:57:54.967Z</time></trkpt><trkpt lat="43.3071727" lon="-4.0820778"><ele>102.0</ele><time>2026-05-02T09:57:55.966Z</time></trkpt><trkpt lat="43.3072339" lon="-4.0820017"><ele>102.0</ele><time>2026-05-02T09:57:56.964Z</time></trkpt><trkpt lat="43.3072829" lon="-4.0819078"><ele>102.0</ele><time>2026-05-02T09:57:57.982Z</time></trkpt><trkpt lat="43.3073043" lon="-4.0817909"><ele>102.0</ele><time>2026-05-02T09:57:58.976Z</time></trkpt><trkpt lat="43.3072981" lon="-4.0816565"><ele>102.0</ele><time>2026-05-02T09:57:59.971Z</time></trkpt><trkpt lat="43.3072706" lon="-4.0815281"><ele>101.6</ele><time>2026-05-02T09:58:00.969Z</time></trkpt><trkpt lat="43.3072278" lon="-4.0814082"><ele>101.19999999999999</ele><time>2026-05-02T09:58:01.971Z</time></trkpt><trkpt lat="43.3071784" lon="-4.0812946"><ele>100.8</ele><time>2026-05-02T09:58:02.977Z</time></trkpt><trkpt lat="43.3071116" lon="-4.0811956"><ele>100.4</ele><time>2026-05-02T09:58:03.973Z</time></trkpt><trkpt lat="43.307037" lon="-4.0810993"><ele>100.0</ele><time>2026-05-02T09:58:04.976Z</time></trkpt><trkpt lat="43.3069703" lon="-4.081012"><ele>100.00000000000001</ele><time>2026-05-02T09:58:05.981Z</time></trkpt><trkpt lat="43.3069045" lon="-4.0809298"><ele>100.0</ele><time>2026-05-02T09:58:06.973Z</time></trkpt><trkpt lat="43.3068603" lon="-4.0808399"><ele>100.0</ele><time>2026-05-02T09:58:07.977Z</time></trkpt><trkpt lat="43.3068308" lon="-4.0807594"><ele>100.0</ele><time>2026-05-02T09:58:08.971Z</time></trkpt><trkpt lat="43.3068434" lon="-4.0806058"><ele>100.00000000000001</ele><time>2026-05-02T09:58:10.977Z</time></trkpt><trkpt lat="43.3068964" lon="-4.0805448"><ele>100.0</ele><time>2026-05-02T09:58:11.965Z</time></trkpt><trkpt lat="43.3069749" lon="-4.0804886"><ele>100.6</ele><time>2026-05-02T09:58:12.972Z</time></trkpt><trkpt lat="43.3070638" lon="-4.0804351"><ele>101.2</ele><time>2026-05-02T09:58:13.974Z</time></trkpt><trkpt lat="43.3071624" lon="-4.0803815"><ele>101.80000000000001</ele><time>2026-05-02T09:58:14.971Z</time></trkpt><trkpt lat="43.3072665" lon="-4.0803268"><ele>102.4</ele><time>2026-05-02T09:58:15.977Z</time></trkpt><trkpt lat="43.3073718" lon="-4.0802873"><ele>103.0</ele><time>2026-05-02T09:58:16.975Z</time></trkpt><trkpt lat="43.3074793" lon="-4.0802627"><ele>103.0</ele><time>2026-05-02T09:58:17.973Z</time></trkpt><trkpt lat="43.3075862" lon="-4.0802402"><ele>103.0</ele><time>2026-05-02T09:58:18.971Z</time></trkpt><trkpt lat="43.3076994" lon="-4.0802005"><ele>103.0</ele><time>2026-05-02T09:58:19.975Z</time></trkpt><trkpt lat="43.3078128" lon="-4.0801546"><ele>103.0</ele><time>2026-05-02T09:58:20.989Z</time></trkpt><trkpt lat="43.3079163" lon="-4.080089"><ele>103.0</ele><time>2026-05-02T09:58:21.969Z</time></trkpt><trkpt lat="43.3080083" lon="-4.0800106"><ele>103.0</ele><time>2026-05-02T09:58:22.97Z</time></trkpt><trkpt lat="43.3080821" lon="-4.0799313"><ele>103.0</ele><time>2026-05-02T09:58:23.975Z</time></trkpt><trkpt lat="43.308146" lon="-4.0798547"><ele>103.0</ele><time>2026-05-02T09:58:24.978Z</time></trkpt><trkpt lat="43.3081997" lon="-4.0797537"><ele>103.0</ele><time>2026-05-02T09:58:25.968Z</time></trkpt><trkpt lat="43.3082424" lon="-4.0796504"><ele>101.60000000000001</ele><time>2026-05-02T09:58:26.969Z</time></trkpt><trkpt lat="43.3082782" lon="-4.0795367"><ele>100.2</ele><time>2026-05-02T09:58:27.968Z</time></trkpt><trkpt lat="43.3083075" lon="-4.0794214"><ele>98.8</ele><time>2026-05-02T09:58:28.97Z</time></trkpt><trkpt lat="43.3083258" lon="-4.0793011"><ele>97.4</ele><time>2026-05-02T09:58:29.968Z</time></trkpt><trkpt lat="43.3083324" lon="-4.0791739"><ele>96.0</ele><time>2026-05-02T09:58:30.97Z</time></trkpt><trkpt lat="43.3083334" lon="-4.0790382"><ele>94.19999999999999</ele><time>2026-05-02T09:58:31.965Z</time></trkpt><trkpt lat="43.3083237" lon="-4.0788884"><ele>92.39999999999999</ele><time>2026-05-02T09:58:32.965Z</time></trkpt><trkpt lat="43.3083106" lon="-4.0787414"><ele>90.6</ele><time>2026-05-02T09:58:33.976Z</time></trkpt><trkpt lat="43.3083044" lon="-4.0786019"><ele>88.8</ele><time>2026-05-02T09:58:34.967Z</time></trkpt><trkpt lat="43.308298" lon="-4.0784548"><ele>87.0</ele><time>2026-05-02T09:58:35.965Z</time></trkpt><trkpt lat="43.308302" lon="-4.0783124"><ele>87.0</ele><time>2026-05-02T09:58:36.97Z</time></trkpt><trkpt lat="43.3083152" lon="-4.0781685"><ele>87.0</ele><time>2026-05-02T09:58:37.968Z</time></trkpt><trkpt lat="43.3083278" lon="-4.0780153"><ele>87.0</ele><time>2026-05-02T09:58:38.968Z</time></trkpt><trkpt lat="43.3083196" lon="-4.0778552"><ele>87.0</ele><time>2026-05-02T09:58:39.969Z</time></trkpt><trkpt lat="43.3083015" lon="-4.0776995"><ele>87.0</ele><time>2026-05-02T09:58:40.966Z</time></trkpt><trkpt lat="43.3082746" lon="-4.0775515"><ele>85.0</ele><time>2026-05-02T09:58:41.968Z</time></trkpt><trkpt lat="43.3082523" lon="-4.0774256"><ele>83.0</ele><time>2026-05-02T09:58:42.971Z</time></trkpt><trkpt lat="43.3082395" lon="-4.0773205"><ele>81.0</ele><time>2026-05-02T09:58:43.971Z</time></trkpt><trkpt lat="43.3082404" lon="-4.0772277"><ele>79.0</ele><time>2026-05-02T09:58:44.977Z</time></trkpt><trkpt lat="43.3082583" lon="-4.0771442"><ele>77.0</ele><time>2026-05-02T09:58:45.98Z</time></trkpt><trkpt lat="43.3083373" lon="-4.0770172"><ele>75.0</ele><time>2026-05-02T09:58:47.986Z</time></trkpt><trkpt lat="43.308407" lon="-4.0769916"><ele>75.0</ele><time>2026-05-02T09:58:48.99Z</time></trkpt><trkpt lat="43.3084958" lon="-4.0769899"><ele>75.0</ele><time>2026-05-02T09:58:49.983Z</time></trkpt><trkpt lat="43.3085918" lon="-4.0770057"><ele>75.0</ele><time>2026-05-02T09:58:50.982Z</time></trkpt><trkpt lat="43.3086965" lon="-4.0770364"><ele>75.0</ele><time>2026-05-02T09:58:52.006Z</time></trkpt><trkpt lat="43.3088032" lon="-4.077055"><ele>75.0</ele><time>2026-05-02T09:58:52.978Z</time></trkpt><trkpt lat="43.3089158" lon="-4.0770697"><ele>75.4</ele><time>2026-05-02T09:58:53.975Z</time></trkpt><trkpt lat="43.3090276" lon="-4.0770761"><ele>75.8</ele><time>2026-05-02T09:58:54.97Z</time></trkpt><trkpt lat="43.3091366" lon="-4.0770839"><ele>76.2</ele><time>2026-05-02T09:58:55.977Z</time></trkpt><trkpt lat="43.3092438" lon="-4.0770822"><ele>76.6</ele><time>2026-05-02T09:58:56.967Z</time></trkpt><trkpt lat="43.309344" lon="-4.0770641"><ele>77.0</ele><time>2026-05-02T09:58:57.97Z</time></trkpt><trkpt lat="43.3094352" lon="-4.077019"><ele>77.0</ele><time>2026-05-02T09:58:58.968Z</time></trkpt><trkpt lat="43.3095072" lon="-4.0769462"><ele>77.0</ele><time>2026-05-02T09:58:59.964Z</time></trkpt><trkpt lat="43.309559" lon="-4.0768317"><ele>77.0</ele><time>2026-05-02T09:59:00.967Z</time></trkpt><trkpt lat="43.309587" lon="-4.0767061"><ele>77.0</ele><time>2026-05-02T09:59:01.96Z</time></trkpt><trkpt lat="43.3096146" lon="-4.0765804"><ele>77.0</ele><time>2026-05-02T09:59:02.963Z</time></trkpt><trkpt lat="43.3096502" lon="-4.0764709"><ele>76.0</ele><time>2026-05-02T09:59:03.974Z</time></trkpt><trkpt lat="43.3096948" lon="-4.0763654"><ele>75.0</ele><time>2026-05-02T09:59:04.977Z</time></trkpt><trkpt lat="43.3097338" lon="-4.0762509"><ele>74.0</ele><time>2026-05-02T09:59:05.967Z</time></trkpt><trkpt lat="43.3097606" lon="-4.076125"><ele>73.0</ele><time>2026-05-02T09:59:06.96Z</time></trkpt><trkpt lat="43.309776" lon="-4.0759966"><ele>72.0</ele><time>2026-05-02T09:59:07.968Z</time></trkpt><trkpt lat="43.3097767" lon="-4.0758672"><ele>72.8</ele><time>2026-05-02T09:59:08.975Z</time></trkpt><trkpt lat="43.3097577" lon="-4.0757506"><ele>73.6</ele><time>2026-05-02T09:59:09.982Z</time></trkpt><trkpt lat="43.3097277" lon="-4.0756369"><ele>74.39999999999999</ele><time>2026-05-02T09:59:10.979Z</time></trkpt><trkpt lat="43.3096762" lon="-4.0755314"><ele>75.2</ele><time>2026-05-02T09:59:11.978Z</time></trkpt><trkpt lat="43.3096012" lon="-4.0754498"><ele>76.0</ele><time>2026-05-02T09:59:12.974Z</time></trkpt><trkpt lat="43.3095139" lon="-4.0753811"><ele>76.0</ele><time>2026-05-02T09:59:13.979Z</time></trkpt><trkpt lat="43.3094204" lon="-4.0753233"><ele>76.0</ele><time>2026-05-02T09:59:14.977Z</time></trkpt><trkpt lat="43.309323" lon="-4.0752766"><ele>76.0</ele><time>2026-05-02T09:59:15.971Z</time></trkpt><trkpt lat="43.3092281" lon="-4.0752401"><ele>76.0</ele><time>2026-05-02T09:59:16.982Z</time></trkpt><trkpt lat="43.3091453" lon="-4.0752087"><ele>76.0</ele><time>2026-05-02T09:59:17.976Z</time></trkpt><trkpt lat="43.3090702" lon="-4.0751628"><ele>76.0</ele><time>2026-05-02T09:59:18.979Z</time></trkpt><trkpt lat="43.3089945" lon="-4.0751188"><ele>76.0</ele><time>2026-05-02T09:59:19.978Z</time></trkpt><trkpt lat="43.3089268" lon="-4.0750727"><ele>76.0</ele><time>2026-05-02T09:59:20.973Z</time></trkpt><trkpt lat="43.3088613" lon="-4.0750276"><ele>76.0</ele><time>2026-05-02T09:59:21.972Z</time></trkpt><trkpt lat="43.3088025" lon="-4.0749732"><ele>76.0</ele><time>2026-05-02T09:59:22.987Z</time></trkpt><trkpt lat="43.3087543" lon="-4.0749081"><ele>76.0</ele><time>2026-05-02T09:59:23.976Z</time></trkpt><trkpt lat="43.3087177" lon="-4.0747595"><ele>76.6</ele><time>2026-05-02T09:59:25.983Z</time></trkpt><trkpt lat="43.3087469" lon="-4.0746453"><ele>77.19999999999999</ele><time>2026-05-02T09:59:26.976Z</time></trkpt><trkpt lat="43.308777" lon="-4.0745089"><ele>77.80000000000001</ele><time>2026-05-02T09:59:27.969Z</time></trkpt><trkpt lat="43.3088059" lon="-4.0743761"><ele>78.4</ele><time>2026-05-02T09:59:28.976Z</time></trkpt><trkpt lat="43.3088219" lon="-4.0742403"><ele>79.0</ele><time>2026-05-02T09:59:29.978Z</time></trkpt><trkpt lat="43.3088324" lon="-4.0740989"><ele>79.5</ele><time>2026-05-02T09:59:30.977Z</time></trkpt><trkpt lat="43.3088462" lon="-4.073959"><ele>80.0</ele><time>2026-05-02T09:59:31.971Z</time></trkpt><trkpt lat="43.3088618" lon="-4.0738343"><ele>80.5</ele><time>2026-05-02T09:59:32.975Z</time></trkpt><trkpt lat="43.3088743" lon="-4.0737233"><ele>81.0</ele><time>2026-05-02T09:59:33.973Z</time></trkpt><trkpt lat="43.3088946" lon="-4.07362"><ele>81.5</ele><time>2026-05-02T09:59:34.977Z</time></trkpt><trkpt lat="43.3089193" lon="-4.0735313"><ele>82.0</ele><time>2026-05-02T09:59:35.988Z</time></trkpt><trkpt lat="43.3090253" lon="-4.073423"><ele>78.39999999999999</ele><time>2026-05-02T09:59:37.985Z</time></trkpt><trkpt lat="43.3090939" lon="-4.0733811"><ele>74.8</ele><time>2026-05-02T09:59:38.985Z</time></trkpt><trkpt lat="43.3091763" lon="-4.0733553"><ele>71.2</ele><time>2026-05-02T09:59:39.977Z</time></trkpt><trkpt lat="43.3092681" lon="-4.0733444"><ele>67.6</ele><time>2026-05-02T09:59:40.983Z</time></trkpt><trkpt lat="43.3093723" lon="-4.0733403"><ele>64.0</ele><time>2026-05-02T09:59:41.982Z</time></trkpt><trkpt lat="43.3094814" lon="-4.0733424"><ele>64.0</ele><time>2026-05-02T09:59:42.991Z</time></trkpt><trkpt lat="43.3095955" lon="-4.0733459"><ele>64.0</ele><time>2026-05-02T09:59:43.99Z</time></trkpt><trkpt lat="43.3097039" lon="-4.0733465"><ele>64.0</ele><time>2026-05-02T09:59:44.991Z</time></trkpt><trkpt lat="43.3098152" lon="-4.0733356"><ele>64.0</ele><time>2026-05-02T09:59:45.991Z</time></trkpt><trkpt lat="43.3099153" lon="-4.07332"><ele>64.0</ele><time>2026-05-02T09:59:46.994Z</time></trkpt><trkpt lat="43.3099947" lon="-4.073296"><ele>62.166666666666664</ele><time>2026-05-02T09:59:47.981Z</time></trkpt><trkpt lat="43.3100598" lon="-4.0732718"><ele>60.33333333333333</ele><time>2026-05-02T09:59:48.984Z</time></trkpt><trkpt lat="43.3101681" lon="-4.0732203"><ele>58.5</ele><time>2026-05-02T09:59:50.987Z</time></trkpt><trkpt lat="43.3102479" lon="-4.0731617"><ele>56.66666666666667</ele><time>2026-05-02T09:59:52.995Z</time></trkpt><trkpt lat="43.310278" lon="-4.0730801"><ele>54.833333333333336</ele><time>2026-05-02T09:59:54.995Z</time></trkpt><trkpt lat="43.3102355" lon="-4.0729585"><ele>53.0</ele><time>2026-05-02T09:59:56.98Z</time></trkpt><trkpt lat="43.3101893" lon="-4.0728873"><ele>53.00000000000001</ele><time>2026-05-02T09:59:57.963Z</time></trkpt><trkpt lat="43.3101266" lon="-4.072821"><ele>53.0</ele><time>2026-05-02T09:59:58.982Z</time></trkpt><trkpt lat="43.3100507" lon="-4.0727654"><ele>53.0</ele><time>2026-05-02T09:59:59.97Z</time></trkpt><trkpt lat="43.3099806" lon="-4.072726"><ele>53.0</ele><time>2026-05-02T10:00:00.967Z</time></trkpt><trkpt lat="43.3099133" lon="-4.0726896"><ele>53.00000000000001</ele><time>2026-05-02T10:00:01.961Z</time></trkpt><trkpt lat="43.3098441" lon="-4.0726605"><ele>53.0</ele><time>2026-05-02T10:00:02.965Z</time></trkpt><trkpt lat="43.3097738" lon="-4.0726257"><ele>52.50000000000001</ele><time>2026-05-02T10:00:03.967Z</time></trkpt><trkpt lat="43.3097124" lon="-4.0725768"><ele>52.0</ele><time>2026-05-02T10:00:04.968Z</time></trkpt><trkpt lat="43.3096514" lon="-4.0725361"><ele>51.5</ele><time>2026-05-02T10:00:05.969Z</time></trkpt><trkpt lat="43.3095844" lon="-4.0724841"><ele>51.0</ele><time>2026-05-02T10:00:06.96Z</time></trkpt><trkpt lat="43.3095176" lon="-4.0724306"><ele>50.50000000000001</ele><time>2026-05-02T10:00:07.964Z</time></trkpt><trkpt lat="43.3094492" lon="-4.0723765"><ele>50.0</ele><time>2026-05-02T10:00:08.961Z</time></trkpt><trkpt lat="43.3093778" lon="-4.0723123"><ele>48.8</ele><time>2026-05-02T10:00:09.971Z</time></trkpt><trkpt lat="43.3093056" lon="-4.072246"><ele>47.6</ele><time>2026-05-02T10:00:10.963Z</time></trkpt><trkpt lat="43.3092256" lon="-4.0721817"><ele>46.400000000000006</ele><time>2026-05-02T10:00:11.964Z</time></trkpt><trkpt lat="43.3091379" lon="-4.0721119"><ele>45.2</ele><time>2026-05-02T10:00:12.967Z</time></trkpt><trkpt lat="43.3090395" lon="-4.0720443"><ele>44.0</ele><time>2026-05-02T10:00:13.967Z</time></trkpt><trkpt lat="43.3089314" lon="-4.0719745"><ele>46.25</ele><time>2026-05-02T10:00:14.966Z</time></trkpt><trkpt lat="43.3088188" lon="-4.0719274"><ele>48.5</ele><time>2026-05-02T10:00:15.975Z</time></trkpt><trkpt lat="43.3086948" lon="-4.0718825"><ele>50.75</ele><time>2026-05-02T10:00:16.978Z</time></trkpt><trkpt lat="43.3085708" lon="-4.0718438"><ele>53.0</ele><time>2026-05-02T10:00:17.977Z</time></trkpt><trkpt lat="43.3084373" lon="-4.0718259"><ele>53.0</ele><time>2026-05-02T10:00:18.975Z</time></trkpt><trkpt lat="43.3083092" lon="-4.0718263"><ele>53.0</ele><time>2026-05-02T10:00:19.971Z</time></trkpt><trkpt lat="43.3081841" lon="-4.0718534"><ele>53.0</ele><time>2026-05-02T10:00:20.972Z</time></trkpt><trkpt lat="43.3080615" lon="-4.071893"><ele>53.0</ele><time>2026-05-02T10:00:21.967Z</time></trkpt><trkpt lat="43.3079471" lon="-4.071932"><ele>51.75</ele><time>2026-05-02T10:00:22.967Z</time></trkpt><trkpt lat="43.3078336" lon="-4.0719755"><ele>50.5</ele><time>2026-05-02T10:00:23.955Z</time></trkpt><trkpt lat="43.3077174" lon="-4.0720134"><ele>49.25</ele><time>2026-05-02T10:00:24.994Z</time></trkpt><trkpt lat="43.3076039" lon="-4.0720564"><ele>48.0</ele><time>2026-05-02T10:00:25.963Z</time></trkpt><trkpt lat="43.3074882" lon="-4.0721012"><ele>48.0</ele><time>2026-05-02T10:00:26.964Z</time></trkpt><trkpt lat="43.3073716" lon="-4.0721484"><ele>48.0</ele><time>2026-05-02T10:00:27.961Z</time></trkpt><trkpt lat="43.3072575" lon="-4.0721999"><ele>48.0</ele><time>2026-05-02T10:00:28.96Z</time></trkpt><trkpt lat="43.3071449" lon="-4.0722582"><ele>48.0</ele><time>2026-05-02T10:00:29.961Z</time></trkpt><trkpt lat="43.3070376" lon="-4.072317"><ele>50.0</ele><time>2026-05-02T10:00:30.965Z</time></trkpt><trkpt lat="43.3069281" lon="-4.0723744"><ele>52.0</ele><time>2026-05-02T10:00:31.97Z</time></trkpt><trkpt lat="43.3068171" lon="-4.0724327"><ele>54.0</ele><time>2026-05-02T10:00:32.961Z</time></trkpt><trkpt lat="43.3067082" lon="-4.0725078"><ele>56.0</ele><time>2026-05-02T10:00:33.965Z</time></trkpt><trkpt lat="43.3065968" lon="-4.0725793"><ele>55.25</ele><time>2026-05-02T10:00:34.959Z</time></trkpt><trkpt lat="43.3064848" lon="-4.0726445"><ele>54.5</ele><time>2026-05-02T10:00:35.96Z</time></trkpt><trkpt lat="43.3063734" lon="-4.0727195"><ele>53.75</ele><time>2026-05-02T10:00:36.958Z</time></trkpt><trkpt lat="43.3062614" lon="-4.072794"><ele>53.0</ele><time>2026-05-02T10:00:37.959Z</time></trkpt><trkpt lat="43.3061501" lon="-4.0728714"><ele>53.0</ele><time>2026-05-02T10:00:38.959Z</time></trkpt><trkpt lat="43.3060415" lon="-4.0729558"><ele>53.0</ele><time>2026-05-02T10:00:39.958Z</time></trkpt><trkpt lat="43.3059291" lon="-4.0730407"><ele>53.0</ele><time>2026-05-02T10:00:40.951Z</time></trkpt><trkpt lat="43.3058169" lon="-4.0731263"><ele>53.0</ele><time>2026-05-02T10:00:41.954Z</time></trkpt><trkpt lat="43.3057076" lon="-4.0732162"><ele>53.75</ele><time>2026-05-02T10:00:42.953Z</time></trkpt><trkpt lat="43.3055967" lon="-4.073307"><ele>54.5</ele><time>2026-05-02T10:00:43.952Z</time></trkpt><trkpt lat="43.3054869" lon="-4.0734029"><ele>55.25</ele><time>2026-05-02T10:00:44.956Z</time></trkpt><trkpt lat="43.3053742" lon="-4.0734955"><ele>56.0</ele><time>2026-05-02T10:00:45.951Z</time></trkpt><trkpt lat="43.3052585" lon="-4.0735867"><ele>56.0</ele><time>2026-05-02T10:00:46.952Z</time></trkpt><trkpt lat="43.3051482" lon="-4.0736833"><ele>56.0</ele><time>2026-05-02T10:00:47.956Z</time></trkpt><trkpt lat="43.3050375" lon="-4.0737802"><ele>56.0</ele><time>2026-05-02T10:00:48.955Z</time></trkpt><trkpt lat="43.3049249" lon="-4.0738758"><ele>56.0</ele><time>2026-05-02T10:00:49.955Z</time></trkpt><trkpt lat="43.3048116" lon="-4.0739671"><ele>54.75</ele><time>2026-05-02T10:00:50.959Z</time></trkpt><trkpt lat="43.3047064" lon="-4.0740603"><ele>53.5</ele><time>2026-05-02T10:00:51.954Z</time></trkpt><trkpt lat="43.3046008" lon="-4.0741666"><ele>52.25</ele><time>2026-05-02T10:00:52.957Z</time></trkpt><trkpt lat="43.3044918" lon="-4.0742645"><ele>51.0</ele><time>2026-05-02T10:00:53.955Z</time></trkpt><trkpt lat="43.3043796" lon="-4.074348"><ele>53.75</ele><time>2026-05-02T10:00:54.976Z</time></trkpt><trkpt lat="43.3042632" lon="-4.0744249"><ele>56.5</ele><time>2026-05-02T10:00:55.967Z</time></trkpt><trkpt lat="43.3041493" lon="-4.0744884"><ele>59.25</ele><time>2026-05-02T10:00:56.961Z</time></trkpt><trkpt lat="43.3040349" lon="-4.0745496"><ele>62.0</ele><time>2026-05-02T10:00:57.957Z</time></trkpt><trkpt lat="43.3039187" lon="-4.0746147"><ele>61.0</ele><time>2026-05-02T10:00:58.962Z</time></trkpt><trkpt lat="43.3037972" lon="-4.0746711"><ele>60.0</ele><time>2026-05-02T10:00:59.964Z</time></trkpt><trkpt lat="43.3036784" lon="-4.0747285"><ele>59.0</ele><time>2026-05-02T10:01:00.958Z</time></trkpt><trkpt lat="43.3035544" lon="-4.0747732"><ele>58.0</ele><time>2026-05-02T10:01:01.952Z</time></trkpt><trkpt lat="43.3034303" lon="-4.0748187"><ele>58.0</ele><time>2026-05-02T10:01:02.961Z</time></trkpt><trkpt lat="43.3033061" lon="-4.0748531"><ele>58.0</ele><time>2026-05-02T10:01:03.957Z</time></trkpt><trkpt lat="43.3031803" lon="-4.074896"><ele>58.0</ele><time>2026-05-02T10:01:04.964Z</time></trkpt><trkpt lat="43.3030556" lon="-4.0749261"><ele>58.0</ele><time>2026-05-02T10:01:05.955Z</time></trkpt><trkpt lat="43.3029275" lon="-4.0749447"><ele>70.75</ele><time>2026-05-02T10:01:06.958Z</time></trkpt><trkpt lat="43.3027981" lon="-4.074969"><ele>83.5</ele><time>2026-05-02T10:01:07.962Z</time></trkpt><trkpt lat="43.3026636" lon="-4.0749853"><ele>96.25</ele><time>2026-05-02T10:01:08.955Z</time></trkpt><trkpt lat="43.3025315" lon="-4.0750036"><ele>109.0</ele><time>2026-05-02T10:01:09.957Z</time></trkpt><trkpt lat="43.3023977" lon="-4.0750297"><ele>109.0</ele><time>2026-05-02T10:01:10.963Z</time></trkpt><trkpt lat="43.3022631" lon="-4.0750482"><ele>109.0</ele><time>2026-05-02T10:01:11.957Z</time></trkpt><trkpt lat="43.3021301" lon="-4.0750625"><ele>109.0</ele><time>2026-05-02T10:01:12.964Z</time></trkpt><trkpt lat="43.3019927" lon="-4.0750743"><ele>109.0</ele><time>2026-05-02T10:01:13.953Z</time></trkpt><trkpt lat="43.3018539" lon="-4.0750727"><ele>104.75</ele><time>2026-05-02T10:01:14.962Z</time></trkpt><trkpt lat="43.3017218" lon="-4.0750937"><ele>100.5</ele><time>2026-05-02T10:01:15.962Z</time></trkpt><trkpt lat="43.3015904" lon="-4.0751049"><ele>96.25</ele><time>2026-05-02T10:01:16.963Z</time></trkpt><trkpt lat="43.3014583" lon="-4.0751163"><ele>92.0</ele><time>2026-05-02T10:01:17.959Z</time></trkpt><trkpt lat="43.301326" lon="-4.0751339"><ele>88.75</ele><time>2026-05-02T10:01:18.959Z</time></trkpt><trkpt lat="43.3011962" lon="-4.0751548"><ele>85.5</ele><time>2026-05-02T10:01:19.963Z</time></trkpt><trkpt lat="43.3010642" lon="-4.0751648"><ele>82.25</ele><time>2026-05-02T10:01:20.957Z</time></trkpt><trkpt lat="43.300926" lon="-4.0751683"><ele>79.0</ele><time>2026-05-02T10:01:21.961Z</time></trkpt><trkpt lat="43.3007827" lon="-4.0751783"><ele>79.0</ele><time>2026-05-02T10:01:22.964Z</time></trkpt><trkpt lat="43.3006389" lon="-4.0751714"><ele>79.0</ele><time>2026-05-02T10:01:23.959Z</time></trkpt><trkpt lat="43.3004943" lon="-4.0751559"><ele>79.0</ele><time>2026-05-02T10:01:24.962Z</time></trkpt><trkpt lat="43.3003489" lon="-4.0751378"><ele>79.0</ele><time>2026-05-02T10:01:25.98Z</time></trkpt><trkpt lat="43.3002018" lon="-4.0751068"><ele>78.25</ele><time>2026-05-02T10:01:26.968Z</time></trkpt><trkpt lat="43.3000593" lon="-4.0750856"><ele>77.5</ele><time>2026-05-02T10:01:27.975Z</time></trkpt><trkpt lat="43.2999127" lon="-4.0750601"><ele>76.75</ele><time>2026-05-02T10:01:28.976Z</time></trkpt><trkpt lat="43.2997659" lon="-4.0750475"><ele>76.0</ele><time>2026-05-02T10:01:29.975Z</time></trkpt><trkpt lat="43.2996226" lon="-4.0750308"><ele>76.0</ele><time>2026-05-02T10:01:30.979Z</time></trkpt><trkpt lat="43.299479" lon="-4.0750079"><ele>76.0</ele><time>2026-05-02T10:01:31.977Z</time></trkpt><trkpt lat="43.2993367" lon="-4.074989"><ele>76.0</ele><time>2026-05-02T10:01:32.976Z</time></trkpt><trkpt lat="43.29919" lon="-4.0749721"><ele>76.0</ele><time>2026-05-02T10:01:33.976Z</time></trkpt><trkpt lat="43.2990401" lon="-4.0749485"><ele>73.5</ele><time>2026-05-02T10:01:34.969Z</time></trkpt><trkpt lat="43.2988935" lon="-4.0749262"><ele>71.0</ele><time>2026-05-02T10:01:35.976Z</time></trkpt><trkpt lat="43.2987463" lon="-4.0748942"><ele>68.5</ele><time>2026-05-02T10:01:36.972Z</time></trkpt><trkpt lat="43.2985971" lon="-4.0748546"><ele>66.0</ele><time>2026-05-02T10:01:37.974Z</time></trkpt><trkpt lat="43.2984524" lon="-4.0748065"><ele>66.0</ele><time>2026-05-02T10:01:38.975Z</time></trkpt><trkpt lat="43.2983102" lon="-4.0747523"><ele>66.0</ele><time>2026-05-02T10:01:39.969Z</time></trkpt><trkpt lat="43.2981733" lon="-4.0746895"><ele>66.0</ele><time>2026-05-02T10:01:40.967Z</time></trkpt><trkpt lat="43.2980396" lon="-4.0746258"><ele>66.0</ele><time>2026-05-02T10:01:41.962Z</time></trkpt><trkpt lat="43.2979056" lon="-4.0745515"><ele>70.0</ele><time>2026-05-02T10:01:42.961Z</time></trkpt><trkpt lat="43.2977697" lon="-4.0744845"><ele>74.0</ele><time>2026-05-02T10:01:43.96Z</time></trkpt><trkpt lat="43.297626" lon="-4.0744164"><ele>78.0</ele><time>2026-05-02T10:01:44.966Z</time></trkpt><trkpt lat="43.2974836" lon="-4.0743491"><ele>82.0</ele><time>2026-05-02T10:01:45.958Z</time></trkpt><trkpt lat="43.2973323" lon="-4.0742831"><ele>84.0</ele><time>2026-05-02T10:01:46.945Z</time></trkpt><trkpt lat="43.2971812" lon="-4.0742189"><ele>86.0</ele><time>2026-05-02T10:01:47.943Z</time></trkpt><trkpt lat="43.2970355" lon="-4.0741556"><ele>88.0</ele><time>2026-05-02T10:01:48.928Z</time></trkpt><trkpt lat="43.2969272" lon="-4.0740765"><ele>90.0</ele><time>2026-05-02T10:01:49.929Z</time></trkpt><trkpt lat="43.2967931" lon="-4.0739992"><ele>82.33333333333333</ele><time>2026-05-02T10:01:50.921Z</time></trkpt><trkpt lat="43.2966424" lon="-4.073936"><ele>74.66666666666666</ele><time>2026-05-02T10:01:51.896Z</time></trkpt><trkpt lat="43.2964917" lon="-4.0738729"><ele>67.0</ele><time>2026-05-02T10:01:52.884Z</time></trkpt><trkpt lat="43.2961137" lon="-4.0739326"><ele>68.33333333333333</ele><time>2026-05-02T10:01:54.894Z</time></trkpt><trkpt lat="43.2960558" lon="-4.0743392"><ele>69.66666666666667</ele><time>2026-05-02T10:01:55.94Z</time></trkpt><trkpt lat="43.2959247" lon="-4.0743888"><ele>71.0</ele><time>2026-05-02T10:01:56.965Z</time></trkpt><trkpt lat="43.2957733" lon="-4.0743264"><ele>71.0</ele><time>2026-05-02T10:01:57.948Z</time></trkpt><trkpt lat="43.2956122" lon="-4.0743141"><ele>71.0</ele><time>2026-05-02T10:01:58.956Z</time></trkpt><trkpt lat="43.2954542" lon="-4.0743546"><ele>71.0</ele><time>2026-05-02T10:01:59.967Z</time></trkpt><trkpt lat="43.2952847" lon="-4.0743835"><ele>67.0</ele><time>2026-05-02T10:02:00.975Z</time></trkpt><trkpt lat="43.2951353" lon="-4.0744517"><ele>63.0</ele><time>2026-05-02T10:02:01.97Z</time></trkpt><trkpt lat="43.294981" lon="-4.0745386"><ele>59.0</ele><time>2026-05-02T10:02:02.985Z</time></trkpt><trkpt lat="43.2948282" lon="-4.0746486"><ele>58.333333333333336</ele><time>2026-05-02T10:02:03.984Z</time></trkpt><trkpt lat="43.2946947" lon="-4.074771"><ele>57.66666666666667</ele><time>2026-05-02T10:02:04.987Z</time></trkpt><trkpt lat="43.2945676" lon="-4.0749068"><ele>57.0</ele><time>2026-05-02T10:02:05.987Z</time></trkpt><trkpt lat="43.2944335" lon="-4.0750511"><ele>57.0</ele><time>2026-05-02T10:02:06.988Z</time></trkpt><trkpt lat="43.2941892" lon="-4.075348"><ele>57.0</ele><time>2026-05-02T10:02:08.996Z</time></trkpt><trkpt lat="43.2940674" lon="-4.0754975"><ele>57.0</ele><time>2026-05-02T10:02:09.986Z</time></trkpt><trkpt lat="43.2939416" lon="-4.075654"><ele>57.0</ele><time>2026-05-02T10:02:10.992Z</time></trkpt><trkpt lat="43.2938164" lon="-4.0758077"><ele>57.0</ele><time>2026-05-02T10:02:11.986Z</time></trkpt><trkpt lat="43.2936949" lon="-4.075964"><ele>56.33333333333333</ele><time>2026-05-02T10:02:12.993Z</time></trkpt><trkpt lat="43.2935809" lon="-4.07611"><ele>55.666666666666664</ele><time>2026-05-02T10:02:13.989Z</time></trkpt><trkpt lat="43.2934618" lon="-4.0762453"><ele>55.0</ele><time>2026-05-02T10:02:14.989Z</time></trkpt><trkpt lat="43.293332" lon="-4.0763739"><ele>55.0</ele><time>2026-05-02T10:02:15.989Z</time></trkpt><trkpt lat="43.2931995" lon="-4.0764748"><ele>55.0</ele><time>2026-05-02T10:02:16.995Z</time></trkpt><trkpt lat="43.293063" lon="-4.0765888"><ele>55.0</ele><time>2026-05-02T10:02:17.995Z</time></trkpt><trkpt lat="43.292923" lon="-4.0766899"><ele>56.0</ele><time>2026-05-02T10:02:18.992Z</time></trkpt><trkpt lat="43.2927788" lon="-4.0767692"><ele>57.0</ele><time>2026-05-02T10:02:19.998Z</time></trkpt><trkpt lat="43.2926379" lon="-4.0768419"><ele>58.0</ele><time>2026-05-02T10:02:20.986Z</time></trkpt><trkpt lat="43.2924936" lon="-4.0769092"><ele>58.0</ele><time>2026-05-02T10:02:21.988Z</time></trkpt><trkpt lat="43.2923536" lon="-4.0769507"><ele>58.0</ele><time>2026-05-02T10:02:22.993Z</time></trkpt><trkpt lat="43.292207" lon="-4.0769781"><ele>58.0</ele><time>2026-05-02T10:02:23.987Z</time></trkpt><trkpt lat="43.2920585" lon="-4.0769937"><ele>58.0</ele><time>2026-05-02T10:02:24.996Z</time></trkpt><trkpt lat="43.2919094" lon="-4.0769997"><ele>57.666666666666664</ele><time>2026-05-02T10:02:25.999Z</time></trkpt><trkpt lat="43.2917618" lon="-4.0770086"><ele>57.33333333333333</ele><time>2026-05-02T10:02:26.994Z</time></trkpt><trkpt lat="43.2916123" lon="-4.0770173"><ele>57.0</ele><time>2026-05-02T10:02:28.006Z</time></trkpt><trkpt lat="43.2914583" lon="-4.0770315"><ele>56.5</ele><time>2026-05-02T10:02:28.998Z</time></trkpt><trkpt lat="43.2913063" lon="-4.0770442"><ele>56.0</ele><time>2026-05-02T10:02:29.991Z</time></trkpt><trkpt lat="43.2911624" lon="-4.0770751"><ele>55.5</ele><time>2026-05-02T10:02:30.994Z</time></trkpt><trkpt lat="43.2910152" lon="-4.077101"><ele>55.0</ele><time>2026-05-02T10:02:31.996Z</time></trkpt><trkpt lat="43.2908648" lon="-4.0771343"><ele>55.0</ele><time>2026-05-02T10:02:32.992Z</time></trkpt><trkpt lat="43.2907186" lon="-4.0771677"><ele>55.0</ele><time>2026-05-02T10:02:33.991Z</time></trkpt><trkpt lat="43.290572" lon="-4.0772034"><ele>55.0</ele><time>2026-05-02T10:02:34.976Z</time></trkpt><trkpt lat="43.2904341" lon="-4.0772538"><ele>55.0</ele><time>2026-05-02T10:02:35.98Z</time></trkpt><trkpt lat="43.290296" lon="-4.0772949"><ele>55.5</ele><time>2026-05-02T10:02:36.981Z</time></trkpt><trkpt lat="43.2901676" lon="-4.0773423"><ele>56.0</ele><time>2026-05-02T10:02:37.976Z</time></trkpt><trkpt lat="43.2900407" lon="-4.0773984"><ele>56.5</ele><time>2026-05-02T10:02:38.979Z</time></trkpt><trkpt lat="43.2899182" lon="-4.0774456"><ele>57.0</ele><time>2026-05-02T10:02:39.991Z</time></trkpt><trkpt lat="43.2898066" lon="-4.077493"><ele>57.6</ele><time>2026-05-02T10:02:40.983Z</time></trkpt><trkpt lat="43.2896948" lon="-4.0775462"><ele>58.2</ele><time>2026-05-02T10:02:41.982Z</time></trkpt><trkpt lat="43.2895874" lon="-4.0775977"><ele>58.8</ele><time>2026-05-02T10:02:42.985Z</time></trkpt><trkpt lat="43.2894822" lon="-4.0776369"><ele>59.4</ele><time>2026-05-02T10:02:43.985Z</time></trkpt><trkpt lat="43.2893837" lon="-4.0776858"><ele>60.0</ele><time>2026-05-02T10:02:44.991Z</time></trkpt><trkpt lat="43.2892866" lon="-4.0777411"><ele>60.0</ele><time>2026-05-02T10:02:45.987Z</time></trkpt><trkpt lat="43.2891965" lon="-4.0778055"><ele>60.0</ele><time>2026-05-02T10:02:46.988Z</time></trkpt><trkpt lat="43.289108" lon="-4.07789"><ele>60.0</ele><time>2026-05-02T10:02:47.989Z</time></trkpt><trkpt lat="43.2890286" lon="-4.077983"><ele>60.0</ele><time>2026-05-02T10:02:48.99Z</time></trkpt><trkpt lat="43.2889576" lon="-4.0780905"><ele>60.0</ele><time>2026-05-02T10:02:49.99Z</time></trkpt><trkpt lat="43.2888888" lon="-4.0781884"><ele>60.0</ele><time>2026-05-02T10:02:50.988Z</time></trkpt><trkpt lat="43.2888089" lon="-4.0782646"><ele>60.0</ele><time>2026-05-02T10:02:51.987Z</time></trkpt><trkpt lat="43.2887247" lon="-4.0783063"><ele>60.0</ele><time>2026-05-02T10:02:53.001Z</time></trkpt><trkpt lat="43.2886396" lon="-4.0783088"><ele>60.0</ele><time>2026-05-02T10:02:53.991Z</time></trkpt><trkpt lat="43.2885659" lon="-4.0782726"><ele>60.0</ele><time>2026-05-02T10:02:54.992Z</time></trkpt><trkpt lat="43.2885126" lon="-4.0782163"><ele>60.0</ele><time>2026-05-02T10:02:55.988Z</time></trkpt><trkpt lat="43.2884696" lon="-4.0781383"><ele>60.0</ele><time>2026-05-02T10:02:56.988Z</time></trkpt><trkpt lat="43.2884429" lon="-4.0780395"><ele>60.0</ele><time>2026-05-02T10:02:57.993Z</time></trkpt><trkpt lat="43.2884306" lon="-4.0779309"><ele>60.0</ele><time>2026-05-02T10:02:58.998Z</time></trkpt><trkpt lat="43.2884315" lon="-4.0778104"><ele>60.0</ele><time>2026-05-02T10:02:59.984Z</time></trkpt><trkpt lat="43.2884459" lon="-4.0776736"><ele>60.0</ele><time>2026-05-02T10:03:00.994Z</time></trkpt><trkpt lat="43.2884509" lon="-4.0775308"><ele>60.0</ele><time>2026-05-02T10:03:01.992Z</time></trkpt><trkpt lat="43.2884422" lon="-4.0773835"><ele>59.6</ele><time>2026-05-02T10:03:02.99Z</time></trkpt><trkpt lat="43.2884174" lon="-4.0772421"><ele>59.2</ele><time>2026-05-02T10:03:03.988Z</time></trkpt><trkpt lat="43.2883697" lon="-4.0771116"><ele>58.8</ele><time>2026-05-02T10:03:04.978Z</time></trkpt><trkpt lat="43.2883003" lon="-4.077006"><ele>58.4</ele><time>2026-05-02T10:03:05.979Z</time></trkpt><trkpt lat="43.2882175" lon="-4.0769043"><ele>58.0</ele><time>2026-05-02T10:03:06.989Z</time></trkpt><trkpt lat="43.2881276" lon="-4.076817"><ele>58.4</ele><time>2026-05-02T10:03:07.983Z</time></trkpt><trkpt lat="43.2880321" lon="-4.0767388"><ele>58.8</ele><time>2026-05-02T10:03:08.99Z</time></trkpt><trkpt lat="43.2879302" lon="-4.076683"><ele>59.2</ele><time>2026-05-02T10:03:09.992Z</time></trkpt><trkpt lat="43.2878212" lon="-4.0766464"><ele>59.6</ele><time>2026-05-02T10:03:10.984Z</time></trkpt><trkpt lat="43.287709" lon="-4.0766311"><ele>60.0</ele><time>2026-05-02T10:03:11.996Z</time></trkpt><trkpt lat="43.2875935" lon="-4.0766265"><ele>60.0</ele><time>2026-05-02T10:03:12.988Z</time></trkpt><trkpt lat="43.2874827" lon="-4.0766186"><ele>60.0</ele><time>2026-05-02T10:03:13.996Z</time></trkpt><trkpt lat="43.2873719" lon="-4.0766065"><ele>60.0</ele><time>2026-05-02T10:03:14.988Z</time></trkpt><trkpt lat="43.2872618" lon="-4.076595"><ele>60.0</ele><time>2026-05-02T10:03:15.992Z</time></trkpt><trkpt lat="43.2871518" lon="-4.0765803"><ele>60.0</ele><time>2026-05-02T10:03:16.994Z</time></trkpt><trkpt lat="43.2870432" lon="-4.0765588"><ele>60.0</ele><time>2026-05-02T10:03:17.983Z</time></trkpt><trkpt lat="43.2869353" lon="-4.0765225"><ele>60.0</ele><time>2026-05-02T10:03:18.988Z</time></trkpt><trkpt lat="43.2868316" lon="-4.07647"><ele>60.0</ele><time>2026-05-02T10:03:19.987Z</time></trkpt><trkpt lat="43.2867271" lon="-4.0764008"><ele>60.0</ele><time>2026-05-02T10:03:20.986Z</time></trkpt><trkpt lat="43.286628" lon="-4.0763265"><ele>60.0</ele><time>2026-05-02T10:03:21.987Z</time></trkpt><trkpt lat="43.2865314" lon="-4.076237"><ele>60.0</ele><time>2026-05-02T10:03:22.996Z</time></trkpt><trkpt lat="43.28644" lon="-4.0761314"><ele>60.0</ele><time>2026-05-02T10:03:23.986Z</time></trkpt><trkpt lat="43.2863541" lon="-4.0760181"><ele>60.0</ele><time>2026-05-02T10:03:25.005Z</time></trkpt><trkpt lat="43.286276" lon="-4.0758952"><ele>60.5</ele><time>2026-05-02T10:03:25.999Z</time></trkpt><trkpt lat="43.2862076" lon="-4.0757684"><ele>61.0</ele><time>2026-05-02T10:03:26.992Z</time></trkpt><trkpt lat="43.2861482" lon="-4.0756204"><ele>61.5</ele><time>2026-05-02T10:03:27.993Z</time></trkpt><trkpt lat="43.2860982" lon="-4.0754641"><ele>62.0</ele><time>2026-05-02T10:03:28.994Z</time></trkpt><trkpt lat="43.2860497" lon="-4.0753078"><ele>62.0</ele><time>2026-05-02T10:03:30.003Z</time></trkpt><trkpt lat="43.2860021" lon="-4.0751518"><ele>62.0</ele><time>2026-05-02T10:03:30.991Z</time></trkpt><trkpt lat="43.2859565" lon="-4.0749957"><ele>62.0</ele><time>2026-05-02T10:03:31.994Z</time></trkpt><trkpt lat="43.2859065" lon="-4.0748423"><ele>62.0</ele><time>2026-05-02T10:03:32.99Z</time></trkpt><trkpt lat="43.285855" lon="-4.0746905"><ele>62.25</ele><time>2026-05-02T10:03:33.991Z</time></trkpt><trkpt lat="43.2857891" lon="-4.074539"><ele>62.5</ele><time>2026-05-02T10:03:34.99Z</time></trkpt><trkpt lat="43.2857171" lon="-4.0744013"><ele>62.75</ele><time>2026-05-02T10:03:35.987Z</time></trkpt><trkpt lat="43.2856326" lon="-4.0742733"><ele>63.0</ele><time>2026-05-02T10:03:36.987Z</time></trkpt><trkpt lat="43.2855376" lon="-4.0741567"><ele>63.0</ele><time>2026-05-02T10:03:37.988Z</time></trkpt><trkpt lat="43.28543" lon="-4.0740505"><ele>63.0</ele><time>2026-05-02T10:03:38.986Z</time></trkpt><trkpt lat="43.2853151" lon="-4.0739605"><ele>63.0</ele><time>2026-05-02T10:03:39.991Z</time></trkpt><trkpt lat="43.2851941" lon="-4.0738801"><ele>63.0</ele><time>2026-05-02T10:03:40.989Z</time></trkpt><trkpt lat="43.285063" lon="-4.0738179"><ele>63.0</ele><time>2026-05-02T10:03:41.985Z</time></trkpt><trkpt lat="43.284921" lon="-4.0737731"><ele>63.0</ele><time>2026-05-02T10:03:42.999Z</time></trkpt><trkpt lat="43.2847673" lon="-4.0737598"><ele>63.0</ele><time>2026-05-02T10:03:43.998Z</time></trkpt><trkpt lat="43.2846185" lon="-4.0737245"><ele>63.25</ele><time>2026-05-02T10:03:44.997Z</time></trkpt><trkpt lat="43.2844749" lon="-4.0736843"><ele>63.5</ele><time>2026-05-02T10:03:45.998Z</time></trkpt><trkpt lat="43.2843294" lon="-4.0736473"><ele>63.75</ele><time>2026-05-02T10:03:46.993Z</time></trkpt><trkpt lat="43.2841873" lon="-4.0735998"><ele>64.0</ele><time>2026-05-02T10:03:47.994Z</time></trkpt><trkpt lat="43.2840434" lon="-4.0735537"><ele>64.0</ele><time>2026-05-02T10:03:49.002Z</time></trkpt><trkpt lat="43.283901" lon="-4.0735083"><ele>64.0</ele><time>2026-05-02T10:03:50.003Z</time></trkpt><trkpt lat="43.283758" lon="-4.073461"><ele>64.0</ele><time>2026-05-02T10:03:51.007Z</time></trkpt><trkpt lat="43.2836168" lon="-4.0733935"><ele>64.0</ele><time>2026-05-02T10:03:51.995Z</time></trkpt><trkpt lat="43.2834771" lon="-4.0733091"><ele>63.75</ele><time>2026-05-02T10:03:53.003Z</time></trkpt><trkpt lat="43.2833492" lon="-4.0732135"><ele>63.5</ele><time>2026-05-02T10:03:53.996Z</time></trkpt><trkpt lat="43.2832269" lon="-4.0731057"><ele>63.25</ele><time>2026-05-02T10:03:55Z</time></trkpt><trkpt lat="43.2831093" lon="-4.0729751"><ele>63.0</ele><time>2026-05-02T10:03:55.997Z</time></trkpt><trkpt lat="43.2830038" lon="-4.0728322"><ele>63.0</ele><time>2026-05-02T10:03:56.996Z</time></trkpt><trkpt lat="43.2829078" lon="-4.0726724"><ele>63.0</ele><time>2026-05-02T10:03:57.992Z</time></trkpt><trkpt lat="43.2828238" lon="-4.0724981"><ele>63.0</ele><time>2026-05-02T10:03:58.994Z</time></trkpt><trkpt lat="43.2827642" lon="-4.0723167"><ele>63.0</ele><time>2026-05-02T10:03:59.992Z</time></trkpt><trkpt lat="43.2827148" lon="-4.0721279"><ele>63.0</ele><time>2026-05-02T10:04:01.008Z</time></trkpt><trkpt lat="43.2826813" lon="-4.0719395"><ele>63.0</ele><time>2026-05-02T10:04:01.997Z</time></trkpt><trkpt lat="43.282666" lon="-4.071748"><ele>63.0</ele><time>2026-05-02T10:04:02.993Z</time></trkpt><trkpt lat="43.2826667" lon="-4.0715576"><ele>63.0</ele><time>2026-05-02T10:04:03.995Z</time></trkpt><trkpt lat="43.2826772" lon="-4.0713947"><ele>63.2</ele><time>2026-05-02T10:04:04.995Z</time></trkpt><trkpt lat="43.2826885" lon="-4.0712563"><ele>63.4</ele><time>2026-05-02T10:04:05.996Z</time></trkpt><trkpt lat="43.2826917" lon="-4.07112"><ele>63.60000000000001</ele><time>2026-05-02T10:04:06.995Z</time></trkpt><trkpt lat="43.2826743" lon="-4.0710013"><ele>63.800000000000004</ele><time>2026-05-02T10:04:07.994Z</time></trkpt><trkpt lat="43.2826414" lon="-4.0708808"><ele>64.0</ele><time>2026-05-02T10:04:09Z</time></trkpt><trkpt lat="43.2826036" lon="-4.0707601"><ele>64.14285714285714</ele><time>2026-05-02T10:04:09.991Z</time></trkpt><trkpt lat="43.2825857" lon="-4.0706507"><ele>64.28571428571428</ele><time>2026-05-02T10:04:10.991Z</time></trkpt><trkpt lat="43.2825752" lon="-4.070555"><ele>64.42857142857143</ele><time>2026-05-02T10:04:11.987Z</time></trkpt><trkpt lat="43.2825767" lon="-4.0704585"><ele>64.57142857142857</ele><time>2026-05-02T10:04:12.995Z</time></trkpt><trkpt lat="43.2825972" lon="-4.0703747"><ele>64.71428571428572</ele><time>2026-05-02T10:04:13.999Z</time></trkpt><trkpt lat="43.2826456" lon="-4.0702976"><ele>64.85714285714286</ele><time>2026-05-02T10:04:14.996Z</time></trkpt><trkpt lat="43.282713" lon="-4.0702405"><ele>65.0</ele><time>2026-05-02T10:04:15.992Z</time></trkpt><trkpt lat="43.2827979" lon="-4.0702038"><ele>65.0</ele><time>2026-05-02T10:04:16.99Z</time></trkpt><trkpt lat="43.2828889" lon="-4.0701872"><ele>65.0</ele><time>2026-05-02T10:04:17.994Z</time></trkpt><trkpt lat="43.2829757" lon="-4.0701694"><ele>65.0</ele><time>2026-05-02T10:04:18.993Z</time></trkpt><trkpt lat="43.2830587" lon="-4.070131"><ele>65.0</ele><time>2026-05-02T10:04:19.992Z</time></trkpt><trkpt lat="43.2831373" lon="-4.0700748"><ele>65.0</ele><time>2026-05-02T10:04:20.997Z</time></trkpt><trkpt lat="43.2832011" lon="-4.0699978"><ele>65.0</ele><time>2026-05-02T10:04:21.995Z</time></trkpt><trkpt lat="43.2832492" lon="-4.06991"><ele>64.83333333333334</ele><time>2026-05-02T10:04:22.998Z</time></trkpt><trkpt lat="43.2832918" lon="-4.0698206"><ele>64.66666666666667</ele><time>2026-05-02T10:04:23.995Z</time></trkpt><trkpt lat="43.2833379" lon="-4.069731"><ele>64.5</ele><time>2026-05-02T10:04:24.996Z</time></trkpt><trkpt lat="43.2833871" lon="-4.0696477"><ele>64.33333333333333</ele><time>2026-05-02T10:04:25.994Z</time></trkpt><trkpt lat="43.2834332" lon="-4.0695654"><ele>64.16666666666666</ele><time>2026-05-02T10:04:26.99Z</time></trkpt><trkpt lat="43.2834781" lon="-4.0694778"><ele>64.0</ele><time>2026-05-02T10:04:27.997Z</time></trkpt><trkpt lat="43.2835256" lon="-4.0693925"><ele>63.99999999999999</ele><time>2026-05-02T10:04:28.996Z</time></trkpt><trkpt lat="43.2835742" lon="-4.0693087"><ele>64.0</ele><time>2026-05-02T10:04:29.994Z</time></trkpt><trkpt lat="43.2836257" lon="-4.0692207"><ele>64.0</ele><time>2026-05-02T10:04:30.996Z</time></trkpt><trkpt lat="43.2836753" lon="-4.0691303"><ele>64.0</ele><time>2026-05-02T10:04:32.012Z</time></trkpt><trkpt lat="43.2837297" lon="-4.069046"><ele>63.99999999999999</ele><time>2026-05-02T10:04:32.999Z</time></trkpt><trkpt lat="43.2837797" lon="-4.068953"><ele>64.0</ele><time>2026-05-02T10:04:33.992Z</time></trkpt><trkpt lat="43.2838289" lon="-4.0688569"><ele>63.83333333333333</ele><time>2026-05-02T10:04:35.005Z</time></trkpt><trkpt lat="43.2838832" lon="-4.068764"><ele>63.666666666666664</ele><time>2026-05-02T10:04:35.988Z</time></trkpt><trkpt lat="43.2839341" lon="-4.0686704"><ele>63.5</ele><time>2026-05-02T10:04:37.001Z</time></trkpt><trkpt lat="43.2839823" lon="-4.0685745"><ele>63.33333333333333</ele><time>2026-05-02T10:04:37.994Z</time></trkpt><trkpt lat="43.2840328" lon="-4.0684798"><ele>63.166666666666664</ele><time>2026-05-02T10:04:38.993Z</time></trkpt><trkpt lat="43.2840893" lon="-4.0683895"><ele>63.0</ele><time>2026-05-02T10:04:39.991Z</time></trkpt><trkpt lat="43.2841455" lon="-4.0682947"><ele>62.8</ele><time>2026-05-02T10:04:40.982Z</time></trkpt><trkpt lat="43.2841997" lon="-4.0681999"><ele>62.599999999999994</ele><time>2026-05-02T10:04:41.99Z</time></trkpt><trkpt lat="43.2842571" lon="-4.0680987"><ele>62.400000000000006</ele><time>2026-05-02T10:04:42.975Z</time></trkpt><trkpt lat="43.2843174" lon="-4.0679914"><ele>62.2</ele><time>2026-05-02T10:04:43.981Z</time></trkpt><trkpt lat="43.2843799" lon="-4.0678797"><ele>62.0</ele><time>2026-05-02T10:04:44.977Z</time></trkpt><trkpt lat="43.2844471" lon="-4.067758"><ele>62.0</ele><time>2026-05-02T10:04:45.977Z</time></trkpt><trkpt lat="43.2845193" lon="-4.0676309"><ele>62.0</ele><time>2026-05-02T10:04:46.982Z</time></trkpt><trkpt lat="43.2845927" lon="-4.0675009"><ele>62.0</ele><time>2026-05-02T10:04:47.984Z</time></trkpt><trkpt lat="43.2846679" lon="-4.0673663"><ele>62.0</ele><time>2026-05-02T10:04:48.983Z</time></trkpt><trkpt lat="43.2847471" lon="-4.0672359"><ele>62.75</ele><time>2026-05-02T10:04:49.98Z</time></trkpt><trkpt lat="43.2848258" lon="-4.0671042"><ele>63.5</ele><time>2026-05-02T10:04:50.983Z</time></trkpt><trkpt lat="43.2849053" lon="-4.0669688"><ele>64.25</ele><time>2026-05-02T10:04:51.984Z</time></trkpt><trkpt lat="43.2849917" lon="-4.0668269"><ele>65.0</ele><time>2026-05-02T10:04:52.981Z</time></trkpt><trkpt lat="43.2850777" lon="-4.0666832"><ele>64.75</ele><time>2026-05-02T10:04:53.976Z</time></trkpt><trkpt lat="43.2851639" lon="-4.0665371"><ele>64.5</ele><time>2026-05-02T10:04:54.979Z</time></trkpt><trkpt lat="43.2852441" lon="-4.0663842"><ele>64.25</ele><time>2026-05-02T10:04:55.982Z</time></trkpt><trkpt lat="43.2853223" lon="-4.0662264"><ele>64.0</ele><time>2026-05-02T10:04:56.978Z</time></trkpt><trkpt lat="43.2853975" lon="-4.0660575"><ele>64.0</ele><time>2026-05-02T10:04:57.98Z</time></trkpt><trkpt lat="43.285465" lon="-4.0658866"><ele>64.0</ele><time>2026-05-02T10:04:58.976Z</time></trkpt><trkpt lat="43.2855318" lon="-4.0657077"><ele>64.0</ele><time>2026-05-02T10:04:59.974Z</time></trkpt><trkpt lat="43.2855874" lon="-4.0655254"><ele>64.0</ele><time>2026-05-02T10:05:00.974Z</time></trkpt><trkpt lat="43.2856314" lon="-4.0653364"><ele>69.5</ele><time>2026-05-02T10:05:01.97Z</time></trkpt><trkpt lat="43.2856808" lon="-4.0651472"><ele>75.0</ele><time>2026-05-02T10:05:02.996Z</time></trkpt><trkpt lat="43.285718" lon="-4.0649546"><ele>80.5</ele><time>2026-05-02T10:05:03.97Z</time></trkpt><trkpt lat="43.2857514" lon="-4.0647619"><ele>86.0</ele><time>2026-05-02T10:05:04.97Z</time></trkpt><trkpt lat="43.2857755" lon="-4.0645668"><ele>87.25</ele><time>2026-05-02T10:05:05.97Z</time></trkpt><trkpt lat="43.2858007" lon="-4.064374"><ele>88.5</ele><time>2026-05-02T10:05:06.974Z</time></trkpt><trkpt lat="43.2858083" lon="-4.064173"><ele>89.75</ele><time>2026-05-02T10:05:07.973Z</time></trkpt><trkpt lat="43.2858163" lon="-4.0639724"><ele>91.0</ele><time>2026-05-02T10:05:08.971Z</time></trkpt><trkpt lat="43.2858136" lon="-4.0637886"><ele>91.0</ele><time>2026-05-02T10:05:09.971Z</time></trkpt><trkpt lat="43.2858034" lon="-4.0635933"><ele>91.0</ele><time>2026-05-02T10:05:10.969Z</time></trkpt><trkpt lat="43.2857837" lon="-4.0633975"><ele>91.0</ele><time>2026-05-02T10:05:11.972Z</time></trkpt><trkpt lat="43.2857551" lon="-4.0632012"><ele>91.0</ele><time>2026-05-02T10:05:12.971Z</time></trkpt><trkpt lat="43.2857278" lon="-4.0630185"><ele>92.25</ele><time>2026-05-02T10:05:13.972Z</time></trkpt><trkpt lat="43.2856992" lon="-4.0628393"><ele>93.5</ele><time>2026-05-02T10:05:14.973Z</time></trkpt><trkpt lat="43.2856733" lon="-4.062661"><ele>94.75</ele><time>2026-05-02T10:05:15.971Z</time></trkpt><trkpt lat="43.2856479" lon="-4.0624746"><ele>96.0</ele><time>2026-05-02T10:05:16.967Z</time></trkpt><trkpt lat="43.2856147" lon="-4.0622842"><ele>91.25</ele><time>2026-05-02T10:05:17.968Z</time></trkpt><trkpt lat="43.2855879" lon="-4.0621038"><ele>86.5</ele><time>2026-05-02T10:05:18.97Z</time></trkpt><trkpt lat="43.2855617" lon="-4.0619289"><ele>81.75</ele><time>2026-05-02T10:05:19.969Z</time></trkpt><trkpt lat="43.2855311" lon="-4.0617471"><ele>77.0</ele><time>2026-05-02T10:05:20.971Z</time></trkpt><trkpt lat="43.2855017" lon="-4.0615634"><ele>77.0</ele><time>2026-05-02T10:05:21.97Z</time></trkpt><trkpt lat="43.2854748" lon="-4.0613773"><ele>77.0</ele><time>2026-05-02T10:05:22.977Z</time></trkpt><trkpt lat="43.2854438" lon="-4.0611987"><ele>77.0</ele><time>2026-05-02T10:05:23.969Z</time></trkpt><trkpt lat="43.2854147" lon="-4.0610138"><ele>77.0</ele><time>2026-05-02T10:05:24.973Z</time></trkpt><trkpt lat="43.2853832" lon="-4.060829"><ele>78.75</ele><time>2026-05-02T10:05:25.972Z</time></trkpt><trkpt lat="43.2853532" lon="-4.0606507"><ele>80.5</ele><time>2026-05-02T10:05:26.976Z</time></trkpt><trkpt lat="43.285315" lon="-4.0604702"><ele>82.25</ele><time>2026-05-02T10:05:27.971Z</time></trkpt><trkpt lat="43.2852905" lon="-4.0602933"><ele>84.0</ele><time>2026-05-02T10:05:28.971Z</time></trkpt><trkpt lat="43.2852527" lon="-4.0601119"><ele>84.75</ele><time>2026-05-02T10:05:29.968Z</time></trkpt><trkpt lat="43.2852145" lon="-4.0599324"><ele>85.5</ele><time>2026-05-02T10:05:30.971Z</time></trkpt><trkpt lat="43.2851774" lon="-4.0597546"><ele>86.25</ele><time>2026-05-02T10:05:31.969Z</time></trkpt><trkpt lat="43.2851465" lon="-4.0595766"><ele>87.0</ele><time>2026-05-02T10:05:32.982Z</time></trkpt><trkpt lat="43.2851184" lon="-4.059389"><ele>87.0</ele><time>2026-05-02T10:05:33.967Z</time></trkpt><trkpt lat="43.2850904" lon="-4.0592061"><ele>87.0</ele><time>2026-05-02T10:05:34.967Z</time></trkpt><trkpt lat="43.2850636" lon="-4.0590289"><ele>87.0</ele><time>2026-05-02T10:05:35.97Z</time></trkpt><trkpt lat="43.2850315" lon="-4.0588437"><ele>87.0</ele><time>2026-05-02T10:05:36.964Z</time></trkpt><trkpt lat="43.2850007" lon="-4.0586579"><ele>90.5</ele><time>2026-05-02T10:05:37.968Z</time></trkpt><trkpt lat="43.2849717" lon="-4.0584726"><ele>94.0</ele><time>2026-05-02T10:05:38.964Z</time></trkpt><trkpt lat="43.2849434" lon="-4.0582812"><ele>97.5</ele><time>2026-05-02T10:05:39.966Z</time></trkpt><trkpt lat="43.2849105" lon="-4.0580938"><ele>101.0</ele><time>2026-05-02T10:05:40.961Z</time></trkpt><trkpt lat="43.2848756" lon="-4.0579054"><ele>103.75</ele><time>2026-05-02T10:05:41.969Z</time></trkpt><trkpt lat="43.2848397" lon="-4.0577225"><ele>106.5</ele><time>2026-05-02T10:05:42.964Z</time></trkpt><trkpt lat="43.284808" lon="-4.05755"><ele>109.25</ele><time>2026-05-02T10:05:43.966Z</time></trkpt><trkpt lat="43.2847766" lon="-4.0573647"><ele>112.0</ele><time>2026-05-02T10:05:44.968Z</time></trkpt><trkpt lat="43.2847419" lon="-4.0571906"><ele>104.25</ele><time>2026-05-02T10:05:45.973Z</time></trkpt><trkpt lat="43.2847217" lon="-4.0570023"><ele>96.5</ele><time>2026-05-02T10:05:46.977Z</time></trkpt><trkpt lat="43.2847031" lon="-4.0568308"><ele>88.75</ele><time>2026-05-02T10:05:47.967Z</time></trkpt><trkpt lat="43.284671" lon="-4.0566421"><ele>81.0</ele><time>2026-05-02T10:05:48.97Z</time></trkpt><trkpt lat="43.2846607" lon="-4.0564437"><ele>81.0</ele><time>2026-05-02T10:05:49.968Z</time></trkpt><trkpt lat="43.284643" lon="-4.0562482"><ele>81.0</ele><time>2026-05-02T10:05:50.972Z</time></trkpt><trkpt lat="43.2846308" lon="-4.0560527"><ele>81.0</ele><time>2026-05-02T10:05:51.97Z</time></trkpt><trkpt lat="43.2846261" lon="-4.0558568"><ele>81.0</ele><time>2026-05-02T10:05:52.982Z</time></trkpt><trkpt lat="43.2846208" lon="-4.055661"><ele>81.5</ele><time>2026-05-02T10:05:53.975Z</time></trkpt><trkpt lat="43.2846204" lon="-4.0554698"><ele>82.0</ele><time>2026-05-02T10:05:54.978Z</time></trkpt><trkpt lat="43.2846169" lon="-4.0552754"><ele>82.5</ele><time>2026-05-02T10:05:55.971Z</time></trkpt><trkpt lat="43.284618" lon="-4.0550734"><ele>83.0</ele><time>2026-05-02T10:05:56.971Z</time></trkpt><trkpt lat="43.2846142" lon="-4.0548741"><ele>83.25</ele><time>2026-05-02T10:05:57.973Z</time></trkpt><trkpt lat="43.2846117" lon="-4.0546771"><ele>83.5</ele><time>2026-05-02T10:05:58.971Z</time></trkpt><trkpt lat="43.2846071" lon="-4.054485"><ele>83.75</ele><time>2026-05-02T10:05:59.972Z</time></trkpt><trkpt lat="43.2845972" lon="-4.0542907"><ele>84.0</ele><time>2026-05-02T10:06:00.968Z</time></trkpt><trkpt lat="43.2845813" lon="-4.0540922"><ele>85.75</ele><time>2026-05-02T10:06:01.968Z</time></trkpt><trkpt lat="43.2845666" lon="-4.0538945"><ele>87.5</ele><time>2026-05-02T10:06:02.963Z</time></trkpt><trkpt lat="43.2845452" lon="-4.0537076"><ele>89.25</ele><time>2026-05-02T10:06:03.984Z</time></trkpt><trkpt lat="43.2845131" lon="-4.0535146"><ele>91.0</ele><time>2026-05-02T10:06:04.971Z</time></trkpt><trkpt lat="43.284476" lon="-4.0533177"><ele>92.0</ele><time>2026-05-02T10:06:05.97Z</time></trkpt><trkpt lat="43.2844274" lon="-4.0531246"><ele>93.0</ele><time>2026-05-02T10:06:06.971Z</time></trkpt><trkpt lat="43.2843797" lon="-4.0529391"><ele>94.0</ele><time>2026-05-02T10:06:07.97Z</time></trkpt><trkpt lat="43.2843229" lon="-4.0527496"><ele>95.0</ele><time>2026-05-02T10:06:08.975Z</time></trkpt><trkpt lat="43.2842594" lon="-4.0525675"><ele>96.5</ele><time>2026-05-02T10:06:09.976Z</time></trkpt><trkpt lat="43.2841927" lon="-4.0523923"><ele>98.0</ele><time>2026-05-02T10:06:10.97Z</time></trkpt><trkpt lat="43.2841167" lon="-4.0522178"><ele>99.5</ele><time>2026-05-02T10:06:11.97Z</time></trkpt><trkpt lat="43.2840384" lon="-4.0520548"><ele>101.0</ele><time>2026-05-02T10:06:12.971Z</time></trkpt><trkpt lat="43.2839579" lon="-4.0518871"><ele>101.0</ele><time>2026-05-02T10:06:13.971Z</time></trkpt><trkpt lat="43.283875" lon="-4.0517278"><ele>101.0</ele><time>2026-05-02T10:06:14.971Z</time></trkpt><trkpt lat="43.2837885" lon="-4.0515675"><ele>101.0</ele><time>2026-05-02T10:06:15.973Z</time></trkpt><trkpt lat="43.2837037" lon="-4.051412"><ele>101.0</ele><time>2026-05-02T10:06:16.976Z</time></trkpt><trkpt lat="43.2836248" lon="-4.0512502"><ele>101.0</ele><time>2026-05-02T10:06:17.971Z</time></trkpt><trkpt lat="43.2835335" lon="-4.0510975"><ele>101.0</ele><time>2026-05-02T10:06:18.972Z</time></trkpt><trkpt lat="43.2834574" lon="-4.0509512"><ele>101.0</ele><time>2026-05-02T10:06:19.97Z</time></trkpt><trkpt lat="43.2833727" lon="-4.0508015"><ele>101.0</ele><time>2026-05-02T10:06:20.972Z</time></trkpt><trkpt lat="43.2832848" lon="-4.0506563"><ele>101.0</ele><time>2026-05-02T10:06:21.971Z</time></trkpt><trkpt lat="43.2832048" lon="-4.0505084"><ele>101.0</ele><time>2026-05-02T10:06:22.979Z</time></trkpt><trkpt lat="43.2831252" lon="-4.0503619"><ele>101.0</ele><time>2026-05-02T10:06:23.975Z</time></trkpt><trkpt lat="43.283047" lon="-4.050221"><ele>101.0</ele><time>2026-05-02T10:06:24.978Z</time></trkpt><trkpt lat="43.2829712" lon="-4.0500811"><ele>101.25</ele><time>2026-05-02T10:06:25.98Z</time></trkpt><trkpt lat="43.2828863" lon="-4.0499419"><ele>101.5</ele><time>2026-05-02T10:06:26.977Z</time></trkpt><trkpt lat="43.2828075" lon="-4.049797"><ele>101.75</ele><time>2026-05-02T10:06:27.978Z</time></trkpt><trkpt lat="43.2827296" lon="-4.0496483"><ele>102.0</ele><time>2026-05-02T10:06:28.98Z</time></trkpt><trkpt lat="43.2826553" lon="-4.0494999"><ele>102.0</ele><time>2026-05-02T10:06:29.977Z</time></trkpt><trkpt lat="43.2825877" lon="-4.0493416"><ele>102.0</ele><time>2026-05-02T10:06:30.976Z</time></trkpt><trkpt lat="43.282528" lon="-4.0491835"><ele>102.0</ele><time>2026-05-02T10:06:31.975Z</time></trkpt><trkpt lat="43.2824732" lon="-4.049016"><ele>102.0</ele><time>2026-05-02T10:06:32.978Z</time></trkpt><trkpt lat="43.282425" lon="-4.0488494"><ele>102.5</ele><time>2026-05-02T10:06:33.977Z</time></trkpt><trkpt lat="43.2823814" lon="-4.0486777"><ele>103.0</ele><time>2026-05-02T10:06:34.991Z</time></trkpt><trkpt lat="43.2823447" lon="-4.0485055"><ele>103.5</ele><time>2026-05-02T10:06:35.976Z</time></trkpt><trkpt lat="43.2823131" lon="-4.048331"><ele>104.0</ele><time>2026-05-02T10:06:36.978Z</time></trkpt><trkpt lat="43.282284" lon="-4.0481526"><ele>104.25</ele><time>2026-05-02T10:06:37.979Z</time></trkpt><trkpt lat="43.282265" lon="-4.0479757"><ele>104.5</ele><time>2026-05-02T10:06:38.981Z</time></trkpt><trkpt lat="43.2822536" lon="-4.0477904"><ele>104.75</ele><time>2026-05-02T10:06:39.979Z</time></trkpt><trkpt lat="43.2822509" lon="-4.0476057"><ele>105.0</ele><time>2026-05-02T10:06:40.982Z</time></trkpt><trkpt lat="43.2822564" lon="-4.0474184"><ele>104.75</ele><time>2026-05-02T10:06:41.994Z</time></trkpt><trkpt lat="43.2822646" lon="-4.0472313"><ele>104.5</ele><time>2026-05-02T10:06:42.986Z</time></trkpt><trkpt lat="43.282279" lon="-4.0470485"><ele>104.25</ele><time>2026-05-02T10:06:43.988Z</time></trkpt><trkpt lat="43.2822972" lon="-4.0468626"><ele>104.0</ele><time>2026-05-02T10:06:44.987Z</time></trkpt><trkpt lat="43.2823139" lon="-4.0466764"><ele>103.75</ele><time>2026-05-02T10:06:45.987Z</time></trkpt><trkpt lat="43.2823216" lon="-4.0464866"><ele>103.5</ele><time>2026-05-02T10:06:46.989Z</time></trkpt><trkpt lat="43.2823381" lon="-4.0462963"><ele>103.25</ele><time>2026-05-02T10:06:47.988Z</time></trkpt><trkpt lat="43.2823497" lon="-4.0461107"><ele>103.0</ele><time>2026-05-02T10:06:48.986Z</time></trkpt><trkpt lat="43.2823644" lon="-4.0459288"><ele>103.0</ele><time>2026-05-02T10:06:49.983Z</time></trkpt><trkpt lat="43.2823696" lon="-4.045755"><ele>103.0</ele><time>2026-05-02T10:06:50.985Z</time></trkpt><trkpt lat="43.282379" lon="-4.0455962"><ele>103.0</ele><time>2026-05-02T10:06:51.982Z</time></trkpt><trkpt lat="43.2823871" lon="-4.0454347"><ele>103.0</ele><time>2026-05-02T10:06:52.984Z</time></trkpt><trkpt lat="43.2823946" lon="-4.0452779"><ele>103.0</ele><time>2026-05-02T10:06:53.981Z</time></trkpt><trkpt lat="43.2824087" lon="-4.0451301"><ele>103.0</ele><time>2026-05-02T10:06:54.979Z</time></trkpt><trkpt lat="43.2824219" lon="-4.0449864"><ele>103.0</ele><time>2026-05-02T10:06:55.983Z</time></trkpt><trkpt lat="43.2824322" lon="-4.0448434"><ele>103.0</ele><time>2026-05-02T10:06:56.979Z</time></trkpt><trkpt lat="43.2824449" lon="-4.0447011"><ele>103.0</ele><time>2026-05-02T10:06:57.98Z</time></trkpt><trkpt lat="43.2824481" lon="-4.044562"><ele>103.0</ele><time>2026-05-02T10:06:58.978Z</time></trkpt><trkpt lat="43.282438" lon="-4.0444238"><ele>103.0</ele><time>2026-05-02T10:06:59.975Z</time></trkpt><trkpt lat="43.2824046" lon="-4.0442963"><ele>103.0</ele><time>2026-05-02T10:07:00.975Z</time></trkpt><trkpt lat="43.2823619" lon="-4.0442005"><ele>103.0</ele><time>2026-05-02T10:07:01.977Z</time></trkpt><trkpt lat="43.2823273" lon="-4.0441233"><ele>103.0</ele><time>2026-05-02T10:07:02.976Z</time></trkpt><trkpt lat="43.2823207" lon="-4.0439606"><ele>103.00000000000001</ele><time>2026-05-02T10:07:04.973Z</time></trkpt><trkpt lat="43.2823523" lon="-4.0438803"><ele>103.0</ele><time>2026-05-02T10:07:05.995Z</time></trkpt><trkpt lat="43.2824063" lon="-4.0438048"><ele>103.0</ele><time>2026-05-02T10:07:06.978Z</time></trkpt><trkpt lat="43.2824614" lon="-4.043708"><ele>103.0</ele><time>2026-05-02T10:07:07.981Z</time></trkpt><trkpt lat="43.2825014" lon="-4.0435847"><ele>103.00000000000001</ele><time>2026-05-02T10:07:08.982Z</time></trkpt><trkpt lat="43.2825268" lon="-4.0434482"><ele>103.0</ele><time>2026-05-02T10:07:09.985Z</time></trkpt><trkpt lat="43.2825452" lon="-4.0432949"><ele>103.0</ele><time>2026-05-02T10:07:10.981Z</time></trkpt><trkpt lat="43.2825582" lon="-4.0431296"><ele>103.0</ele><time>2026-05-02T10:07:11.981Z</time></trkpt><trkpt lat="43.2825659" lon="-4.0429696"><ele>103.0</ele><time>2026-05-02T10:07:12.983Z</time></trkpt><trkpt lat="43.2825721" lon="-4.0428056"><ele>103.0</ele><time>2026-05-02T10:07:13.988Z</time></trkpt><trkpt lat="43.2825796" lon="-4.0426374"><ele>103.0</ele><time>2026-05-02T10:07:14.986Z</time></trkpt><trkpt lat="43.2825888" lon="-4.0424689"><ele>103.0</ele><time>2026-05-02T10:07:15.983Z</time></trkpt><trkpt lat="43.2825999" lon="-4.0423022"><ele>103.0</ele><time>2026-05-02T10:07:16.986Z</time></trkpt><trkpt lat="43.2826067" lon="-4.0421345"><ele>103.0</ele><time>2026-05-02T10:07:17.978Z</time></trkpt><trkpt lat="43.2826143" lon="-4.041959"><ele>103.0</ele><time>2026-05-02T10:07:18.988Z</time></trkpt><trkpt lat="43.2826219" lon="-4.0417878"><ele>103.0</ele><time>2026-05-02T10:07:19.987Z</time></trkpt><trkpt lat="43.2826291" lon="-4.0416167"><ele>103.0</ele><time>2026-05-02T10:07:20.985Z</time></trkpt><trkpt lat="43.2826387" lon="-4.0414487"><ele>103.0</ele><time>2026-05-02T10:07:21.982Z</time></trkpt><trkpt lat="43.2826501" lon="-4.0412727"><ele>102.75</ele><time>2026-05-02T10:07:22.988Z</time></trkpt><trkpt lat="43.2826584" lon="-4.0410996"><ele>102.5</ele><time>2026-05-02T10:07:23.983Z</time></trkpt><trkpt lat="43.2826685" lon="-4.0409242"><ele>102.25</ele><time>2026-05-02T10:07:24.987Z</time></trkpt><trkpt lat="43.2826793" lon="-4.0407438"><ele>102.0</ele><time>2026-05-02T10:07:25.985Z</time></trkpt><trkpt lat="43.2826922" lon="-4.0405591"><ele>102.5</ele><time>2026-05-02T10:07:26.982Z</time></trkpt><trkpt lat="43.2827063" lon="-4.0403788"><ele>103.0</ele><time>2026-05-02T10:07:27.983Z</time></trkpt><trkpt lat="43.282718" lon="-4.0401951"><ele>103.5</ele><time>2026-05-02T10:07:28.985Z</time></trkpt><trkpt lat="43.2827267" lon="-4.0400064"><ele>104.0</ele><time>2026-05-02T10:07:29.982Z</time></trkpt><trkpt lat="43.2827309" lon="-4.0398087"><ele>104.0</ele><time>2026-05-02T10:07:30.988Z</time></trkpt><trkpt lat="43.2827391" lon="-4.0396114"><ele>104.0</ele><time>2026-05-02T10:07:31.984Z</time></trkpt><trkpt lat="43.2827536" lon="-4.0394153"><ele>104.0</ele><time>2026-05-02T10:07:32.984Z</time></trkpt><trkpt lat="43.282768" lon="-4.0392121"><ele>104.0</ele><time>2026-05-02T10:07:33.984Z</time></trkpt><trkpt lat="43.2827857" lon="-4.039016"><ele>104.25</ele><time>2026-05-02T10:07:34.985Z</time></trkpt><trkpt lat="43.2828029" lon="-4.0388162"><ele>104.5</ele><time>2026-05-02T10:07:35.984Z</time></trkpt><trkpt lat="43.2828211" lon="-4.0386154"><ele>104.75</ele><time>2026-05-02T10:07:36.996Z</time></trkpt><trkpt lat="43.2828322" lon="-4.0384134"><ele>105.0</ele><time>2026-05-02T10:07:37.985Z</time></trkpt><trkpt lat="43.2828444" lon="-4.0382"><ele>105.66666666666666</ele><time>2026-05-02T10:07:38.984Z</time></trkpt><trkpt lat="43.2828544" lon="-4.0379911"><ele>106.33333333333333</ele><time>2026-05-02T10:07:39.984Z</time></trkpt><trkpt lat="43.2828685" lon="-4.0377788"><ele>107.0</ele><time>2026-05-02T10:07:40.985Z</time></trkpt><trkpt lat="43.2828857" lon="-4.0375609"><ele>106.33333333333333</ele><time>2026-05-02T10:07:41.986Z</time></trkpt><trkpt lat="43.2828973" lon="-4.0373514"><ele>105.66666666666666</ele><time>2026-05-02T10:07:42.98Z</time></trkpt><trkpt lat="43.2829092" lon="-4.0371402"><ele>105.0</ele><time>2026-05-02T10:07:43.981Z</time></trkpt><trkpt lat="43.2829157" lon="-4.036927"><ele>105.0</ele><time>2026-05-02T10:07:44.982Z</time></trkpt><trkpt lat="43.2829267" lon="-4.0367212"><ele>105.0</ele><time>2026-05-02T10:07:45.984Z</time></trkpt><trkpt lat="43.2829374" lon="-4.0365309"><ele>105.0</ele><time>2026-05-02T10:07:46.994Z</time></trkpt><trkpt lat="43.2829501" lon="-4.0363461"><ele>105.0</ele><time>2026-05-02T10:07:47.987Z</time></trkpt><trkpt lat="43.2829574" lon="-4.0361714"><ele>105.5</ele><time>2026-05-02T10:07:48.994Z</time></trkpt><trkpt lat="43.282968" lon="-4.035991"><ele>106.0</ele><time>2026-05-02T10:07:49.988Z</time></trkpt><trkpt lat="43.2829788" lon="-4.0358102"><ele>106.5</ele><time>2026-05-02T10:07:50.985Z</time></trkpt><trkpt lat="43.2829973" lon="-4.0356175"><ele>107.0</ele><time>2026-05-02T10:07:51.981Z</time></trkpt><trkpt lat="43.2830027" lon="-4.0354208"><ele>107.75</ele><time>2026-05-02T10:07:52.983Z</time></trkpt><trkpt lat="43.2830178" lon="-4.035216"><ele>108.5</ele><time>2026-05-02T10:07:53.979Z</time></trkpt><trkpt lat="43.2830324" lon="-4.0350162"><ele>109.25</ele><time>2026-05-02T10:07:54.981Z</time></trkpt><trkpt lat="43.2830429" lon="-4.0348188"><ele>110.0</ele><time>2026-05-02T10:07:55.981Z</time></trkpt><trkpt lat="43.2830558" lon="-4.0346113"><ele>110.33333333333333</ele><time>2026-05-02T10:07:56.977Z</time></trkpt><trkpt lat="43.2830708" lon="-4.0343933"><ele>110.66666666666666</ele><time>2026-05-02T10:07:57.977Z</time></trkpt><trkpt lat="43.2830767" lon="-4.03418"><ele>111.0</ele><time>2026-05-02T10:07:58.978Z</time></trkpt><trkpt lat="43.2830818" lon="-4.0339691"><ele>111.66666666666666</ele><time>2026-05-02T10:07:59.976Z</time></trkpt><trkpt lat="43.2830833" lon="-4.0337645"><ele>112.33333333333333</ele><time>2026-05-02T10:08:00.98Z</time></trkpt><trkpt lat="43.2830746" lon="-4.0335484"><ele>113.0</ele><time>2026-05-02T10:08:01.977Z</time></trkpt><trkpt lat="43.2830585" lon="-4.0333298"><ele>113.66666666666666</ele><time>2026-05-02T10:08:02.976Z</time></trkpt><trkpt lat="43.2830463" lon="-4.0331118"><ele>114.33333333333334</ele><time>2026-05-02T10:08:03.978Z</time></trkpt><trkpt lat="43.2830264" lon="-4.0328985"><ele>115.0</ele><time>2026-05-02T10:08:04.978Z</time></trkpt><trkpt lat="43.282995" lon="-4.0326852"><ele>116.33333333333334</ele><time>2026-05-02T10:08:05.978Z</time></trkpt><trkpt lat="43.2829598" lon="-4.0324713"><ele>117.66666666666666</ele><time>2026-05-02T10:08:06.979Z</time></trkpt><trkpt lat="43.28292" lon="-4.0322599"><ele>119.0</ele><time>2026-05-02T10:08:07.996Z</time></trkpt><trkpt lat="43.2828758" lon="-4.0320523"><ele>119.0</ele><time>2026-05-02T10:08:08.981Z</time></trkpt><trkpt lat="43.2828305" lon="-4.0318454"><ele>119.0</ele><time>2026-05-02T10:08:09.982Z</time></trkpt><trkpt lat="43.2827866" lon="-4.0316353"><ele>119.0</ele><time>2026-05-02T10:08:10.977Z</time></trkpt><trkpt lat="43.282736" lon="-4.0314309"><ele>119.33333333333333</ele><time>2026-05-02T10:08:11.98Z</time></trkpt><trkpt lat="43.2826875" lon="-4.0312151"><ele>119.66666666666666</ele><time>2026-05-02T10:08:12.986Z</time></trkpt><trkpt lat="43.2826428" lon="-4.0310047"><ele>120.0</ele><time>2026-05-02T10:08:13.981Z</time></trkpt><trkpt lat="43.2826011" lon="-4.0308014"><ele>120.0</ele><time>2026-05-02T10:08:14.981Z</time></trkpt><trkpt lat="43.2825627" lon="-4.0305996"><ele>120.0</ele><time>2026-05-02T10:08:15.976Z</time></trkpt><trkpt lat="43.2825148" lon="-4.0303967"><ele>120.0</ele><time>2026-05-02T10:08:16.98Z</time></trkpt><trkpt lat="43.2824673" lon="-4.0301932"><ele>120.0</ele><time>2026-05-02T10:08:17.973Z</time></trkpt><trkpt lat="43.2824245" lon="-4.0299876"><ele>120.0</ele><time>2026-05-02T10:08:18.979Z</time></trkpt><trkpt lat="43.2823805" lon="-4.029787"><ele>120.0</ele><time>2026-05-02T10:08:19.98Z</time></trkpt><trkpt lat="43.2823338" lon="-4.029585"><ele>121.33333333333334</ele><time>2026-05-02T10:08:20.981Z</time></trkpt><trkpt lat="43.2822864" lon="-4.0293869"><ele>122.66666666666667</ele><time>2026-05-02T10:08:21.98Z</time></trkpt><trkpt lat="43.2822397" lon="-4.0291877"><ele>124.0</ele><time>2026-05-02T10:08:22.983Z</time></trkpt><trkpt lat="43.2821951" lon="-4.0289636"><ele>124.33333333333334</ele><time>2026-05-02T10:08:23.976Z</time></trkpt><trkpt lat="43.282147" lon="-4.0287511"><ele>124.66666666666666</ele><time>2026-05-02T10:08:24.982Z</time></trkpt><trkpt lat="43.282105" lon="-4.0285439"><ele>125.0</ele><time>2026-05-02T10:08:25.983Z</time></trkpt><trkpt lat="43.2820584" lon="-4.0283384"><ele>126.33333333333333</ele><time>2026-05-02T10:08:26.982Z</time></trkpt><trkpt lat="43.2820195" lon="-4.0281361"><ele>127.66666666666666</ele><time>2026-05-02T10:08:27.984Z</time></trkpt><trkpt lat="43.2819819" lon="-4.0279329"><ele>129.0</ele><time>2026-05-02T10:08:28.985Z</time></trkpt><trkpt lat="43.281936" lon="-4.0277344"><ele>129.0</ele><time>2026-05-02T10:08:29.982Z</time></trkpt><trkpt lat="43.2818991" lon="-4.0275327"><ele>129.0</ele><time>2026-05-02T10:08:30.982Z</time></trkpt><trkpt lat="43.2818507" lon="-4.0273283"><ele>129.0</ele><time>2026-05-02T10:08:31.981Z</time></trkpt><trkpt lat="43.2818005" lon="-4.0271226"><ele>129.75</ele><time>2026-05-02T10:08:32.981Z</time></trkpt><trkpt lat="43.2817553" lon="-4.0269232"><ele>130.5</ele><time>2026-05-02T10:08:33.981Z</time></trkpt><trkpt lat="43.2817161" lon="-4.0267271"><ele>131.25</ele><time>2026-05-02T10:08:34.981Z</time></trkpt><trkpt lat="43.2816792" lon="-4.0265356"><ele>132.0</ele><time>2026-05-02T10:08:35.98Z</time></trkpt><trkpt lat="43.2816482" lon="-4.0263478"><ele>133.0</ele><time>2026-05-02T10:08:36.981Z</time></trkpt><trkpt lat="43.2816286" lon="-4.0261452"><ele>134.0</ele><time>2026-05-02T10:08:37.982Z</time></trkpt><trkpt lat="43.2816123" lon="-4.0259536"><ele>135.0</ele><time>2026-05-02T10:08:38.993Z</time></trkpt><trkpt lat="43.2816004" lon="-4.0257569"><ele>136.0</ele><time>2026-05-02T10:08:39.98Z</time></trkpt><trkpt lat="43.2816025" lon="-4.0255576"><ele>138.0</ele><time>2026-05-02T10:08:40.981Z</time></trkpt><trkpt lat="43.2816197" lon="-4.0253663"><ele>140.0</ele><time>2026-05-02T10:08:41.981Z</time></trkpt><trkpt lat="43.2816425" lon="-4.0251795"><ele>142.0</ele><time>2026-05-02T10:08:42.983Z</time></trkpt><trkpt lat="43.281668" lon="-4.0249806"><ele>144.0</ele><time>2026-05-02T10:08:43.981Z</time></trkpt><trkpt lat="43.2816966" lon="-4.0247967"><ele>145.0</ele><time>2026-05-02T10:08:44.978Z</time></trkpt><trkpt lat="43.2817358" lon="-4.0246106"><ele>146.0</ele><time>2026-05-02T10:08:45.981Z</time></trkpt><trkpt lat="43.2817848" lon="-4.024419"><ele>147.0</ele><time>2026-05-02T10:08:46.983Z</time></trkpt><trkpt lat="43.2818378" lon="-4.024243"><ele>148.0</ele><time>2026-05-02T10:08:47.978Z</time></trkpt><trkpt lat="43.2819051" lon="-4.0240641"><ele>152.0</ele><time>2026-05-02T10:08:48.977Z</time></trkpt><trkpt lat="43.2819841" lon="-4.0239026"><ele>156.0</ele><time>2026-05-02T10:08:49.975Z</time></trkpt><trkpt lat="43.2820674" lon="-4.0237375"><ele>160.0</ele><time>2026-05-02T10:08:50.977Z</time></trkpt><trkpt lat="43.2821548" lon="-4.0235756"><ele>164.0</ele><time>2026-05-02T10:08:51.98Z</time></trkpt><trkpt lat="43.2822404" lon="-4.0234215"><ele>164.25</ele><time>2026-05-02T10:08:52.989Z</time></trkpt><trkpt lat="43.2823267" lon="-4.0232668"><ele>164.5</ele><time>2026-05-02T10:08:53.976Z</time></trkpt><trkpt lat="43.2824088" lon="-4.0231098"><ele>164.75</ele><time>2026-05-02T10:08:54.975Z</time></trkpt><trkpt lat="43.2824886" lon="-4.0229521"><ele>165.0</ele><time>2026-05-02T10:08:55.973Z</time></trkpt><trkpt lat="43.2825675" lon="-4.0227886"><ele>165.0</ele><time>2026-05-02T10:08:56.973Z</time></trkpt><trkpt lat="43.2826344" lon="-4.0226195"><ele>165.0</ele><time>2026-05-02T10:08:57.97Z</time></trkpt><trkpt lat="43.2826966" lon="-4.0224481"><ele>165.0</ele><time>2026-05-02T10:08:58.971Z</time></trkpt><trkpt lat="43.2827686" lon="-4.0220874"><ele>167.5</ele><time>2026-05-02T10:09:00.968Z</time></trkpt><trkpt lat="43.2827901" lon="-4.0219016"><ele>170.0</ele><time>2026-05-02T10:09:01.969Z</time></trkpt><trkpt lat="43.2828189" lon="-4.0217125"><ele>172.5</ele><time>2026-05-02T10:09:02.97Z</time></trkpt><trkpt lat="43.2828413" lon="-4.0215306"><ele>175.0</ele><time>2026-05-02T10:09:03.969Z</time></trkpt><trkpt lat="43.2828564" lon="-4.0213418"><ele>177.75</ele><time>2026-05-02T10:09:04.969Z</time></trkpt><trkpt lat="43.2828817" lon="-4.0211535"><ele>180.5</ele><time>2026-05-02T10:09:05.968Z</time></trkpt><trkpt lat="43.2829033" lon="-4.0209663"><ele>183.25</ele><time>2026-05-02T10:09:06.97Z</time></trkpt><trkpt lat="43.2829228" lon="-4.0207932"><ele>186.0</ele><time>2026-05-02T10:09:07.97Z</time></trkpt><trkpt lat="43.2829368" lon="-4.0206018"><ele>187.75</ele><time>2026-05-02T10:09:08.977Z</time></trkpt><trkpt lat="43.2829503" lon="-4.0204179"><ele>189.5</ele><time>2026-05-02T10:09:09.992Z</time></trkpt><trkpt lat="43.2829749" lon="-4.0202372"><ele>191.25</ele><time>2026-05-02T10:09:10.975Z</time></trkpt><trkpt lat="43.2830039" lon="-4.020053"><ele>193.0</ele><time>2026-05-02T10:09:11.977Z</time></trkpt><trkpt lat="43.2830347" lon="-4.0198645"><ele>193.0</ele><time>2026-05-02T10:09:12.974Z</time></trkpt><trkpt lat="43.2830664" lon="-4.0196779"><ele>193.0</ele><time>2026-05-02T10:09:13.978Z</time></trkpt><trkpt lat="43.2830893" lon="-4.0194897"><ele>193.0</ele><time>2026-05-02T10:09:14.97Z</time></trkpt><trkpt lat="43.283114" lon="-4.0193"><ele>193.0</ele><time>2026-05-02T10:09:15.967Z</time></trkpt><trkpt lat="43.283136" lon="-4.0191131"><ele>193.5</ele><time>2026-05-02T10:09:16.972Z</time></trkpt><trkpt lat="43.283143" lon="-4.0189196"><ele>194.0</ele><time>2026-05-02T10:09:17.97Z</time></trkpt><trkpt lat="43.2831342" lon="-4.0187312"><ele>194.5</ele><time>2026-05-02T10:09:18.971Z</time></trkpt><trkpt lat="43.2831133" lon="-4.0185378"><ele>195.0</ele><time>2026-05-02T10:09:19.976Z</time></trkpt><trkpt lat="43.2830726" lon="-4.018354"><ele>195.5</ele><time>2026-05-02T10:09:20.975Z</time></trkpt><trkpt lat="43.2830294" lon="-4.0181714"><ele>196.0</ele><time>2026-05-02T10:09:21.98Z</time></trkpt><trkpt lat="43.2829766" lon="-4.0179969"><ele>196.5</ele><time>2026-05-02T10:09:22.985Z</time></trkpt><trkpt lat="43.2829232" lon="-4.017821"><ele>197.0</ele><time>2026-05-02T10:09:23.985Z</time></trkpt><trkpt lat="43.2828699" lon="-4.017655"><ele>196.5</ele><time>2026-05-02T10:09:24.972Z</time></trkpt><trkpt lat="43.2828307" lon="-4.0174736"><ele>196.0</ele><time>2026-05-02T10:09:25.984Z</time></trkpt><trkpt lat="43.2827944" lon="-4.0172932"><ele>195.5</ele><time>2026-05-02T10:09:26.977Z</time></trkpt><trkpt lat="43.2827583" lon="-4.017114"><ele>195.0</ele><time>2026-05-02T10:09:27.976Z</time></trkpt><trkpt lat="43.2827269" lon="-4.0169298"><ele>195.0</ele><time>2026-05-02T10:09:28.977Z</time></trkpt><trkpt lat="43.2826851" lon="-4.0167627"><ele>195.0</ele><time>2026-05-02T10:09:29.978Z</time></trkpt><trkpt lat="43.282647" lon="-4.0165893"><ele>195.0</ele><time>2026-05-02T10:09:30.977Z</time></trkpt><trkpt lat="43.2826146" lon="-4.0164207"><ele>195.0</ele><time>2026-05-02T10:09:31.977Z</time></trkpt><trkpt lat="43.2825866" lon="-4.0162393"><ele>196.25</ele><time>2026-05-02T10:09:32.974Z</time></trkpt><trkpt lat="43.2825791" lon="-4.0160616"><ele>197.5</ele><time>2026-05-02T10:09:33.977Z</time></trkpt><trkpt lat="43.2825985" lon="-4.0158769"><ele>198.75</ele><time>2026-05-02T10:09:34.979Z</time></trkpt><trkpt lat="43.2826403" lon="-4.0156962"><ele>200.0</ele><time>2026-05-02T10:09:35.974Z</time></trkpt><trkpt lat="43.282692" lon="-4.0155247"><ele>205.0</ele><time>2026-05-02T10:09:36.972Z</time></trkpt><trkpt lat="43.2827461" lon="-4.015358"><ele>210.0</ele><time>2026-05-02T10:09:37.974Z</time></trkpt><trkpt lat="43.2828065" lon="-4.0151912"><ele>215.0</ele><time>2026-05-02T10:09:38.972Z</time></trkpt><trkpt lat="43.2828692" lon="-4.0150226"><ele>220.0</ele><time>2026-05-02T10:09:39.971Z</time></trkpt><trkpt lat="43.2829289" lon="-4.0148501"><ele>221.0</ele><time>2026-05-02T10:09:40.985Z</time></trkpt><trkpt lat="43.2829854" lon="-4.0146612"><ele>222.0</ele><time>2026-05-02T10:09:41.966Z</time></trkpt><trkpt lat="43.2830191" lon="-4.0144762"><ele>223.0</ele><time>2026-05-02T10:09:42.965Z</time></trkpt><trkpt lat="43.2830179" lon="-4.0142888"><ele>224.0</ele><time>2026-05-02T10:09:43.974Z</time></trkpt><trkpt lat="43.2830037" lon="-4.0141027"><ele>225.25</ele><time>2026-05-02T10:09:44.973Z</time></trkpt><trkpt lat="43.2830015" lon="-4.0139086"><ele>226.5</ele><time>2026-05-02T10:09:45.972Z</time></trkpt><trkpt lat="43.2829844" lon="-4.0137189"><ele>227.75</ele><time>2026-05-02T10:09:46.976Z</time></trkpt><trkpt lat="43.2829677" lon="-4.0135351"><ele>229.0</ele><time>2026-05-02T10:09:47.973Z</time></trkpt><trkpt lat="43.2829526" lon="-4.0133422"><ele>230.75</ele><time>2026-05-02T10:09:48.974Z</time></trkpt><trkpt lat="43.2829362" lon="-4.0131534"><ele>232.5</ele><time>2026-05-02T10:09:49.974Z</time></trkpt><trkpt lat="43.2829229" lon="-4.0129687"><ele>234.25</ele><time>2026-05-02T10:09:50.972Z</time></trkpt><trkpt lat="43.2829108" lon="-4.0127828"><ele>236.0</ele><time>2026-05-02T10:09:51.968Z</time></trkpt><trkpt lat="43.2828923" lon="-4.0125943"><ele>238.25</ele><time>2026-05-02T10:09:52.971Z</time></trkpt><trkpt lat="43.2828791" lon="-4.0124006"><ele>240.5</ele><time>2026-05-02T10:09:53.974Z</time></trkpt><trkpt lat="43.2828575" lon="-4.0122111"><ele>242.75</ele><time>2026-05-02T10:09:54.97Z</time></trkpt><trkpt lat="43.2828403" lon="-4.0120247"><ele>245.0</ele><time>2026-05-02T10:09:55.969Z</time></trkpt><trkpt lat="43.2828259" lon="-4.0118283"><ele>245.25</ele><time>2026-05-02T10:09:56.966Z</time></trkpt><trkpt lat="43.2828169" lon="-4.0116309"><ele>245.5</ele><time>2026-05-02T10:09:57.967Z</time></trkpt><trkpt lat="43.2827995" lon="-4.0114414"><ele>245.75</ele><time>2026-05-02T10:09:58.97Z</time></trkpt><trkpt lat="43.282783" lon="-4.0112515"><ele>246.0</ele><time>2026-05-02T10:09:59.971Z</time></trkpt><trkpt lat="43.2827686" lon="-4.0110539"><ele>246.0</ele><time>2026-05-02T10:10:00.971Z</time></trkpt><trkpt lat="43.282755" lon="-4.0108689"><ele>246.0</ele><time>2026-05-02T10:10:01.967Z</time></trkpt><trkpt lat="43.2827563" lon="-4.0106783"><ele>246.0</ele><time>2026-05-02T10:10:02.963Z</time></trkpt><trkpt lat="43.2827659" lon="-4.010499"><ele>246.0</ele><time>2026-05-02T10:10:03.963Z</time></trkpt><trkpt lat="43.2828009" lon="-4.0103398"><ele>246.4</ele><time>2026-05-02T10:10:04.972Z</time></trkpt><trkpt lat="43.2828451" lon="-4.0101965"><ele>246.8</ele><time>2026-05-02T10:10:05.963Z</time></trkpt><trkpt lat="43.282913" lon="-4.0100731"><ele>247.20000000000002</ele><time>2026-05-02T10:10:06.965Z</time></trkpt><trkpt lat="43.2829821" lon="-4.0099694"><ele>247.60000000000002</ele><time>2026-05-02T10:10:07.969Z</time></trkpt><trkpt lat="43.2830603" lon="-4.0098722"><ele>248.0</ele><time>2026-05-02T10:10:08.97Z</time></trkpt><trkpt lat="43.2831457" lon="-4.009788"><ele>249.4</ele><time>2026-05-02T10:10:09.97Z</time></trkpt><trkpt lat="43.283239" lon="-4.0097225"><ele>250.8</ele><time>2026-05-02T10:10:10.972Z</time></trkpt><trkpt lat="43.2833356" lon="-4.0096768"><ele>252.2</ele><time>2026-05-02T10:10:11.983Z</time></trkpt><trkpt lat="43.283433" lon="-4.0096601"><ele>253.6</ele><time>2026-05-02T10:10:12.965Z</time></trkpt><trkpt lat="43.2835367" lon="-4.0096587"><ele>255.0</ele><time>2026-05-02T10:10:13.97Z</time></trkpt><trkpt lat="43.2836457" lon="-4.0096733"><ele>255.0</ele><time>2026-05-02T10:10:14.969Z</time></trkpt><trkpt lat="43.2837541" lon="-4.0097123"><ele>255.0</ele><time>2026-05-02T10:10:15.972Z</time></trkpt><trkpt lat="43.283859" lon="-4.009772"><ele>255.0</ele><time>2026-05-02T10:10:16.97Z</time></trkpt><trkpt lat="43.2839604" lon="-4.0098463"><ele>255.0</ele><time>2026-05-02T10:10:17.969Z</time></trkpt><trkpt lat="43.2840607" lon="-4.0099267"><ele>256.25</ele><time>2026-05-02T10:10:18.972Z</time></trkpt><trkpt lat="43.2841611" lon="-4.0100068"><ele>257.5</ele><time>2026-05-02T10:10:19.976Z</time></trkpt><trkpt lat="43.2842654" lon="-4.0100829"><ele>258.75</ele><time>2026-05-02T10:10:20.973Z</time></trkpt><trkpt lat="43.2843751" lon="-4.0101461"><ele>260.0</ele><time>2026-05-02T10:10:21.971Z</time></trkpt><trkpt lat="43.2844955" lon="-4.0101979"><ele>260.0</ele><time>2026-05-02T10:10:22.974Z</time></trkpt><trkpt lat="43.2846204" lon="-4.010231"><ele>260.0</ele><time>2026-05-02T10:10:23.97Z</time></trkpt><trkpt lat="43.2847475" lon="-4.010242"><ele>260.0</ele><time>2026-05-02T10:10:24.973Z</time></trkpt><trkpt lat="43.28487" lon="-4.010234"><ele>260.0</ele><time>2026-05-02T10:10:25.97Z</time></trkpt><trkpt lat="43.2849842" lon="-4.0102026"><ele>262.25</ele><time>2026-05-02T10:10:26.97Z</time></trkpt><trkpt lat="43.2850934" lon="-4.010152"><ele>264.5</ele><time>2026-05-02T10:10:27.972Z</time></trkpt><trkpt lat="43.2851953" lon="-4.010086"><ele>266.75</ele><time>2026-05-02T10:10:28.974Z</time></trkpt><trkpt lat="43.2852933" lon="-4.0100041"><ele>269.0</ele><time>2026-05-02T10:10:29.975Z</time></trkpt><trkpt lat="43.2853827" lon="-4.0099045"><ele>267.75</ele><time>2026-05-02T10:10:30.974Z</time></trkpt><trkpt lat="43.2854716" lon="-4.0097864"><ele>266.5</ele><time>2026-05-02T10:10:31.975Z</time></trkpt><trkpt lat="43.2855559" lon="-4.0096547"><ele>265.25</ele><time>2026-05-02T10:10:32.975Z</time></trkpt><trkpt lat="43.2856334" lon="-4.009504"><ele>264.0</ele><time>2026-05-02T10:10:33.976Z</time></trkpt><trkpt lat="43.285703" lon="-4.0093442"><ele>264.0</ele><time>2026-05-02T10:10:34.974Z</time></trkpt><trkpt lat="43.285751" lon="-4.0091636"><ele>264.0</ele><time>2026-05-02T10:10:35.975Z</time></trkpt><trkpt lat="43.2857855" lon="-4.008974"><ele>264.0</ele><time>2026-05-02T10:10:36.974Z</time></trkpt><trkpt lat="43.2858069" lon="-4.008776"><ele>264.0</ele><time>2026-05-02T10:10:37.966Z</time></trkpt><trkpt lat="43.2857989" lon="-4.0085732"><ele>265.5</ele><time>2026-05-02T10:10:38.972Z</time></trkpt><trkpt lat="43.2857693" lon="-4.0083681"><ele>267.0</ele><time>2026-05-02T10:10:39.977Z</time></trkpt><trkpt lat="43.2857419" lon="-4.0081786"><ele>268.5</ele><time>2026-05-02T10:10:40.972Z</time></trkpt><trkpt lat="43.2857186" lon="-4.0079811"><ele>270.0</ele><time>2026-05-02T10:10:41.972Z</time></trkpt><trkpt lat="43.2856924" lon="-4.0077737"><ele>272.0</ele><time>2026-05-02T10:10:42.976Z</time></trkpt><trkpt lat="43.2856669" lon="-4.0075656"><ele>274.0</ele><time>2026-05-02T10:10:43.964Z</time></trkpt><trkpt lat="43.2856573" lon="-4.007362"><ele>276.0</ele><time>2026-05-02T10:10:44.968Z</time></trkpt><trkpt lat="43.2856517" lon="-4.0071617"><ele>278.0</ele><time>2026-05-02T10:10:45.971Z</time></trkpt><trkpt lat="43.2856764" lon="-4.0069518"><ele>280.75</ele><time>2026-05-02T10:10:46.974Z</time></trkpt><trkpt lat="43.2857124" lon="-4.0067487"><ele>283.5</ele><time>2026-05-02T10:10:47.965Z</time></trkpt><trkpt lat="43.2857653" lon="-4.0065654"><ele>286.25</ele><time>2026-05-02T10:10:48.972Z</time></trkpt><trkpt lat="43.2858296" lon="-4.0063839"><ele>289.0</ele><time>2026-05-02T10:10:49.973Z</time></trkpt><trkpt lat="43.285901" lon="-4.0062043"><ele>292.5</ele><time>2026-05-02T10:10:50.972Z</time></trkpt><trkpt lat="43.2859735" lon="-4.0060375"><ele>296.0</ele><time>2026-05-02T10:10:51.971Z</time></trkpt><trkpt lat="43.2860593" lon="-4.005865"><ele>299.5</ele><time>2026-05-02T10:10:52.974Z</time></trkpt><trkpt lat="43.286133" lon="-4.0056951"><ele>303.0</ele><time>2026-05-02T10:10:53.969Z</time></trkpt><trkpt lat="43.2862231" lon="-4.0055267"><ele>300.6666666666667</ele><time>2026-05-02T10:10:54.967Z</time></trkpt><trkpt lat="43.2863144" lon="-4.0053561"><ele>298.33333333333337</ele><time>2026-05-02T10:10:55.97Z</time></trkpt><trkpt lat="43.2863898" lon="-4.0051764"><ele>296.0</ele><time>2026-05-02T10:10:56.966Z</time></trkpt><trkpt lat="43.286455" lon="-4.0049963"><ele>298.0</ele><time>2026-05-02T10:10:57.97Z</time></trkpt><trkpt lat="43.2865196" lon="-4.004797"><ele>300.0</ele><time>2026-05-02T10:10:58.967Z</time></trkpt><trkpt lat="43.2865683" lon="-4.0046014"><ele>302.0</ele><time>2026-05-02T10:10:59.967Z</time></trkpt><trkpt lat="43.2865979" lon="-4.0044155"><ele>304.0</ele><time>2026-05-02T10:11:00.969Z</time></trkpt><trkpt lat="43.2866372" lon="-4.0042324"><ele>303.75</ele><time>2026-05-02T10:11:01.966Z</time></trkpt><trkpt lat="43.2866716" lon="-4.0040371"><ele>303.5</ele><time>2026-05-02T10:11:02.963Z</time></trkpt><trkpt lat="43.2866933" lon="-4.0038437"><ele>303.25</ele><time>2026-05-02T10:11:03.963Z</time></trkpt><trkpt lat="43.2867256" lon="-4.0036452"><ele>303.0</ele><time>2026-05-02T10:11:04.964Z</time></trkpt><trkpt lat="43.2867525" lon="-4.0034472"><ele>301.0</ele><time>2026-05-02T10:11:05.964Z</time></trkpt><trkpt lat="43.2867884" lon="-4.0032544"><ele>299.0</ele><time>2026-05-02T10:11:06.967Z</time></trkpt><trkpt lat="43.286822" lon="-4.003063"><ele>297.0</ele><time>2026-05-02T10:11:07.97Z</time></trkpt><trkpt lat="43.2868509" lon="-4.0028759"><ele>295.0</ele><time>2026-05-02T10:11:08.972Z</time></trkpt><trkpt lat="43.2868803" lon="-4.0026904"><ele>295.0</ele><time>2026-05-02T10:11:09.972Z</time></trkpt><trkpt lat="43.2869134" lon="-4.0025035"><ele>295.0</ele><time>2026-05-02T10:11:10.972Z</time></trkpt><trkpt lat="43.2869359" lon="-4.0023339"><ele>295.0</ele><time>2026-05-02T10:11:11.976Z</time></trkpt><trkpt lat="43.2869616" lon="-4.0021643"><ele>295.0</ele><time>2026-05-02T10:11:12.978Z</time></trkpt><trkpt lat="43.2869873" lon="-4.002007"><ele>292.0</ele><time>2026-05-02T10:11:13.994Z</time></trkpt><trkpt lat="43.2870134" lon="-4.0018427"><ele>289.0</ele><time>2026-05-02T10:11:14.978Z</time></trkpt><trkpt lat="43.2870352" lon="-4.0016775"><ele>286.0</ele><time>2026-05-02T10:11:15.978Z</time></trkpt><trkpt lat="43.2870551" lon="-4.0015174"><ele>283.0</ele><time>2026-05-02T10:11:16.982Z</time></trkpt><trkpt lat="43.2870781" lon="-4.0013604"><ele>280.5</ele><time>2026-05-02T10:11:17.973Z</time></trkpt><trkpt lat="43.2871081" lon="-4.0012056"><ele>278.0</ele><time>2026-05-02T10:11:18.979Z</time></trkpt><trkpt lat="43.2871337" lon="-4.0010451"><ele>275.5</ele><time>2026-05-02T10:11:19.977Z</time></trkpt><trkpt lat="43.287165" lon="-4.0008735"><ele>273.0</ele><time>2026-05-02T10:11:20.972Z</time></trkpt><trkpt lat="43.2871966" lon="-4.0007001"><ele>270.25</ele><time>2026-05-02T10:11:21.977Z</time></trkpt><trkpt lat="43.2872274" lon="-4.0005322"><ele>267.5</ele><time>2026-05-02T10:11:22.983Z</time></trkpt><trkpt lat="43.2872551" lon="-4.0003632"><ele>264.75</ele><time>2026-05-02T10:11:23.979Z</time></trkpt><trkpt lat="43.2872912" lon="-4.0001891"><ele>262.0</ele><time>2026-05-02T10:11:24.976Z</time></trkpt><trkpt lat="43.2873211" lon="-4.0000157"><ele>270.5</ele><time>2026-05-02T10:11:25.978Z</time></trkpt><trkpt lat="43.2873518" lon="-3.999843"><ele>279.0</ele><time>2026-05-02T10:11:26.978Z</time></trkpt><trkpt lat="43.2873805" lon="-3.9996649"><ele>287.5</ele><time>2026-05-02T10:11:27.975Z</time></trkpt><trkpt lat="43.2874033" lon="-3.9994909"><ele>296.0</ele><time>2026-05-02T10:11:28.977Z</time></trkpt><trkpt lat="43.2874278" lon="-3.9993104"><ele>293.25</ele><time>2026-05-02T10:11:29.976Z</time></trkpt><trkpt lat="43.287457" lon="-3.9991305"><ele>290.5</ele><time>2026-05-02T10:11:30.984Z</time></trkpt><trkpt lat="43.2874896" lon="-3.9989409"><ele>287.75</ele><time>2026-05-02T10:11:31.977Z</time></trkpt><trkpt lat="43.2875218" lon="-3.9987444"><ele>285.0</ele><time>2026-05-02T10:11:32.978Z</time></trkpt><trkpt lat="43.2875555" lon="-3.9985495"><ele>285.0</ele><time>2026-05-02T10:11:33.976Z</time></trkpt><trkpt lat="43.2875905" lon="-3.9983608"><ele>285.0</ele><time>2026-05-02T10:11:34.975Z</time></trkpt><trkpt lat="43.287617" lon="-3.9981706"><ele>285.0</ele><time>2026-05-02T10:11:35.972Z</time></trkpt><trkpt lat="43.2876527" lon="-3.9979673"><ele>285.0</ele><time>2026-05-02T10:11:36.975Z</time></trkpt><trkpt lat="43.2876776" lon="-3.997773"><ele>281.6666666666667</ele><time>2026-05-02T10:11:37.976Z</time></trkpt><trkpt lat="43.2877086" lon="-3.9975712"><ele>278.33333333333337</ele><time>2026-05-02T10:11:38.974Z</time></trkpt><trkpt lat="43.2877384" lon="-3.9973683"><ele>275.0</ele><time>2026-05-02T10:11:39.975Z</time></trkpt><trkpt lat="43.2877691" lon="-3.9971647"><ele>272.0</ele><time>2026-05-02T10:11:40.975Z</time></trkpt><trkpt lat="43.2878046" lon="-3.9969634"><ele>269.0</ele><time>2026-05-02T10:11:41.978Z</time></trkpt><trkpt lat="43.2878396" lon="-3.9967654"><ele>266.0</ele><time>2026-05-02T10:11:42.974Z</time></trkpt><trkpt lat="43.2878772" lon="-3.996571"><ele>263.0</ele><time>2026-05-02T10:11:43.975Z</time></trkpt><trkpt lat="43.2879116" lon="-3.9963618"><ele>258.33333333333337</ele><time>2026-05-02T10:11:44.983Z</time></trkpt><trkpt lat="43.2879463" lon="-3.9961474"><ele>253.66666666666669</ele><time>2026-05-02T10:11:45.974Z</time></trkpt><trkpt lat="43.2879741" lon="-3.9959395"><ele>249.0</ele><time>2026-05-02T10:11:46.972Z</time></trkpt><trkpt lat="43.2880063" lon="-3.9957394"><ele>247.0</ele><time>2026-05-02T10:11:47.974Z</time></trkpt><trkpt lat="43.2880327" lon="-3.9955439"><ele>245.0</ele><time>2026-05-02T10:11:48.972Z</time></trkpt><trkpt lat="43.2880526" lon="-3.9953653"><ele>243.0</ele><time>2026-05-02T10:11:49.975Z</time></trkpt><trkpt lat="43.2880692" lon="-3.9952122"><ele>241.0</ele><time>2026-05-02T10:11:50.969Z</time></trkpt><trkpt lat="43.2880797" lon="-3.9950887"><ele>239.16666666666666</ele><time>2026-05-02T10:11:51.971Z</time></trkpt><trkpt lat="43.2880873" lon="-3.9949869"><ele>237.33333333333331</ele><time>2026-05-02T10:11:52.975Z</time></trkpt><trkpt lat="43.2880954" lon="-3.9948944"><ele>235.5</ele><time>2026-05-02T10:11:53.965Z</time></trkpt><trkpt lat="43.2881114" lon="-3.9947769"><ele>233.66666666666669</ele><time>2026-05-02T10:11:55.972Z</time></trkpt><trkpt lat="43.288126" lon="-3.9946917"><ele>231.83333333333334</ele><time>2026-05-02T10:11:57.976Z</time></trkpt><trkpt lat="43.2881309" lon="-3.9945469"><ele>230.0</ele><time>2026-05-02T10:12:15.983Z</time></trkpt><trkpt lat="43.2881338" lon="-3.9944528"><ele>238.0</ele><time>2026-05-02T10:12:16.973Z</time></trkpt><trkpt lat="43.2881336" lon="-3.9943362"><ele>246.0</ele><time>2026-05-02T10:12:17.967Z</time></trkpt><trkpt lat="43.2881306" lon="-3.9941993"><ele>254.0</ele><time>2026-05-02T10:12:18.974Z</time></trkpt><trkpt lat="43.2881325" lon="-3.9940457"><ele>262.0</ele><time>2026-05-02T10:12:19.971Z</time></trkpt><trkpt lat="43.2881331" lon="-3.9938852"><ele>270.0</ele><time>2026-05-02T10:12:20.969Z</time></trkpt><trkpt lat="43.2881339" lon="-3.9937153"><ele>270.0</ele><time>2026-05-02T10:12:21.967Z</time></trkpt><trkpt lat="43.2881311" lon="-3.9935247"><ele>270.0</ele><time>2026-05-02T10:12:22.972Z</time></trkpt><trkpt lat="43.2881266" lon="-3.9933321"><ele>270.0</ele><time>2026-05-02T10:12:23.973Z</time></trkpt><trkpt lat="43.2881143" lon="-3.9931339"><ele>270.0</ele><time>2026-05-02T10:12:24.978Z</time></trkpt><trkpt lat="43.2880918" lon="-3.9929225"><ele>254.0</ele><time>2026-05-02T10:12:25.979Z</time></trkpt><trkpt lat="43.288071" lon="-3.992721"><ele>238.0</ele><time>2026-05-02T10:12:26.978Z</time></trkpt><trkpt lat="43.2880415" lon="-3.9925122"><ele>222.0</ele><time>2026-05-02T10:12:27.978Z</time></trkpt><trkpt lat="43.2880157" lon="-3.992298"><ele>221.66666666666669</ele><time>2026-05-02T10:12:28.98Z</time></trkpt><trkpt lat="43.2879756" lon="-3.9920741"><ele>221.33333333333334</ele><time>2026-05-02T10:12:29.972Z</time></trkpt><trkpt lat="43.2879187" lon="-3.9918561"><ele>221.0</ele><time>2026-05-02T10:12:30.972Z</time></trkpt><trkpt lat="43.2878505" lon="-3.9916455"><ele>222.0</ele><time>2026-05-02T10:12:31.976Z</time></trkpt><trkpt lat="43.2877944" lon="-3.9914183"><ele>223.0</ele><time>2026-05-02T10:12:32.983Z</time></trkpt><trkpt lat="43.2877272" lon="-3.9912038"><ele>224.0</ele><time>2026-05-02T10:12:33.982Z</time></trkpt><trkpt lat="43.2876727" lon="-3.9909841"><ele>224.66666666666669</ele><time>2026-05-02T10:12:34.983Z</time></trkpt><trkpt lat="43.2876243" lon="-3.9907681"><ele>225.33333333333331</ele><time>2026-05-02T10:12:35.982Z</time></trkpt><trkpt lat="43.2875656" lon="-3.9905555"><ele>226.0</ele><time>2026-05-02T10:12:36.981Z</time></trkpt><trkpt lat="43.2875199" lon="-3.990357"><ele>226.0</ele><time>2026-05-02T10:12:37.988Z</time></trkpt><trkpt lat="43.2874703" lon="-3.9901657"><ele>226.0</ele><time>2026-05-02T10:12:38.984Z</time></trkpt><trkpt lat="43.2873823" lon="-3.989766"><ele>227.33333333333331</ele><time>2026-05-02T10:12:40.979Z</time></trkpt><trkpt lat="43.2873565" lon="-3.9895629"><ele>228.66666666666669</ele><time>2026-05-02T10:12:41.983Z</time></trkpt><trkpt lat="43.2873311" lon="-3.9893488"><ele>230.0</ele><time>2026-05-02T10:12:42.988Z</time></trkpt><trkpt lat="43.2873073" lon="-3.9891389"><ele>230.0</ele><time>2026-05-02T10:12:43.98Z</time></trkpt><trkpt lat="43.2872967" lon="-3.9889399"><ele>230.0</ele><time>2026-05-02T10:12:44.979Z</time></trkpt><trkpt lat="43.2872834" lon="-3.988739"><ele>230.0</ele><time>2026-05-02T10:12:45.974Z</time></trkpt><trkpt lat="43.2872799" lon="-3.9885329"><ele>230.0</ele><time>2026-05-02T10:12:46.99Z</time></trkpt><trkpt lat="43.2872753" lon="-3.9883365"><ele>229.5</ele><time>2026-05-02T10:12:47.974Z</time></trkpt><trkpt lat="43.2872673" lon="-3.9881442"><ele>229.0</ele><time>2026-05-02T10:12:48.978Z</time></trkpt><trkpt lat="43.2872582" lon="-3.9879396"><ele>228.5</ele><time>2026-05-02T10:12:49.979Z</time></trkpt><trkpt lat="43.2872569" lon="-3.9877339"><ele>228.0</ele><time>2026-05-02T10:12:50.979Z</time></trkpt><trkpt lat="43.2872567" lon="-3.9875216"><ele>217.33333333333331</ele><time>2026-05-02T10:12:51.978Z</time></trkpt><trkpt lat="43.287251" lon="-3.9873026"><ele>206.66666666666666</ele><time>2026-05-02T10:12:52.983Z</time></trkpt><trkpt lat="43.2872478" lon="-3.9870819"><ele>196.0</ele><time>2026-05-02T10:12:53.979Z</time></trkpt><trkpt lat="43.2872443" lon="-3.9868583"><ele>196.25</ele><time>2026-05-02T10:12:54.982Z</time></trkpt><trkpt lat="43.2872424" lon="-3.9866589"><ele>196.5</ele><time>2026-05-02T10:12:55.979Z</time></trkpt><trkpt lat="43.2872392" lon="-3.9864459"><ele>196.75</ele><time>2026-05-02T10:12:56.978Z</time></trkpt><trkpt lat="43.2872325" lon="-3.9862414"><ele>197.0</ele><time>2026-05-02T10:12:57.978Z</time></trkpt><trkpt lat="43.2872302" lon="-3.9860344"><ele>197.0</ele><time>2026-05-02T10:12:58.983Z</time></trkpt><trkpt lat="43.2872182" lon="-3.9858271"><ele>197.0</ele><time>2026-05-02T10:12:59.981Z</time></trkpt><trkpt lat="43.2872154" lon="-3.9856228"><ele>197.0</ele><time>2026-05-02T10:13:00.982Z</time></trkpt><trkpt lat="43.2872204" lon="-3.9854191"><ele>197.0</ele><time>2026-05-02T10:13:01.981Z</time></trkpt><trkpt lat="43.2872276" lon="-3.9852122"><ele>196.0</ele><time>2026-05-02T10:13:02.981Z</time></trkpt><trkpt lat="43.287254" lon="-3.9850071"><ele>195.0</ele><time>2026-05-02T10:13:03.981Z</time></trkpt><trkpt lat="43.2872857" lon="-3.9847985"><ele>194.0</ele><time>2026-05-02T10:13:04.982Z</time></trkpt><trkpt lat="43.2873292" lon="-3.9845997"><ele>195.66666666666669</ele><time>2026-05-02T10:13:05.985Z</time></trkpt><trkpt lat="43.2873756" lon="-3.9844065"><ele>197.33333333333331</ele><time>2026-05-02T10:13:06.978Z</time></trkpt><trkpt lat="43.2874431" lon="-3.9842129"><ele>199.0</ele><time>2026-05-02T10:13:07.983Z</time></trkpt><trkpt lat="43.2875045" lon="-3.9840215"><ele>199.0</ele><time>2026-05-02T10:13:08.979Z</time></trkpt><trkpt lat="43.2875762" lon="-3.9838386"><ele>199.0</ele><time>2026-05-02T10:13:09.984Z</time></trkpt><trkpt lat="43.2876568" lon="-3.9836512"><ele>199.0</ele><time>2026-05-02T10:13:10.984Z</time></trkpt><trkpt lat="43.2877462" lon="-3.9834721"><ele>193.66666666666666</ele><time>2026-05-02T10:13:11.984Z</time></trkpt><trkpt lat="43.287846" lon="-3.9832988"><ele>188.33333333333331</ele><time>2026-05-02T10:13:12.984Z</time></trkpt><trkpt lat="43.287945" lon="-3.9831312"><ele>183.0</ele><time>2026-05-02T10:13:13.989Z</time></trkpt><trkpt lat="43.2880472" lon="-3.9829688"><ele>190.0</ele><time>2026-05-02T10:13:14.986Z</time></trkpt><trkpt lat="43.2881604" lon="-3.9828266"><ele>197.0</ele><time>2026-05-02T10:13:15.98Z</time></trkpt><trkpt lat="43.2882794" lon="-3.9826898"><ele>204.0</ele><time>2026-05-02T10:13:16.983Z</time></trkpt><trkpt lat="43.2883909" lon="-3.9825557"><ele>198.33333333333334</ele><time>2026-05-02T10:13:17.995Z</time></trkpt><trkpt lat="43.2885133" lon="-3.9824292"><ele>192.66666666666669</ele><time>2026-05-02T10:13:18.981Z</time></trkpt><trkpt lat="43.2886375" lon="-3.982296"><ele>187.0</ele><time>2026-05-02T10:13:19.981Z</time></trkpt><trkpt lat="43.2887529" lon="-3.982156"><ele>187.0</ele><time>2026-05-02T10:13:20.985Z</time></trkpt><trkpt lat="43.2888593" lon="-3.9820163"><ele>187.0</ele><time>2026-05-02T10:13:21.979Z</time></trkpt><trkpt lat="43.2889708" lon="-3.9818688"><ele>187.0</ele><time>2026-05-02T10:13:22.98Z</time></trkpt><trkpt lat="43.2890713" lon="-3.9817058"><ele>189.33333333333334</ele><time>2026-05-02T10:13:23.974Z</time></trkpt><trkpt lat="43.2891579" lon="-3.981536"><ele>191.66666666666669</ele><time>2026-05-02T10:13:24.976Z</time></trkpt><trkpt lat="43.2892289" lon="-3.9813511"><ele>194.0</ele><time>2026-05-02T10:13:25.977Z</time></trkpt><trkpt lat="43.2892965" lon="-3.9811502"><ele>194.0</ele><time>2026-05-02T10:13:26.976Z</time></trkpt><trkpt lat="43.2893508" lon="-3.9809418"><ele>194.0</ele><time>2026-05-02T10:13:27.974Z</time></trkpt><trkpt lat="43.2893943" lon="-3.9807303"><ele>194.0</ele><time>2026-05-02T10:13:28.975Z</time></trkpt><trkpt lat="43.2894333" lon="-3.9805123"><ele>188.66666666666669</ele><time>2026-05-02T10:13:29.975Z</time></trkpt><trkpt lat="43.2894696" lon="-3.9802855"><ele>183.33333333333334</ele><time>2026-05-02T10:13:30.981Z</time></trkpt><trkpt lat="43.2894993" lon="-3.9800721"><ele>178.0</ele><time>2026-05-02T10:13:31.977Z</time></trkpt><trkpt lat="43.2895378" lon="-3.9798462"><ele>174.0</ele><time>2026-05-02T10:13:32.978Z</time></trkpt><trkpt lat="43.2895773" lon="-3.9796191"><ele>170.0</ele><time>2026-05-02T10:13:33.979Z</time></trkpt><trkpt lat="43.2896212" lon="-3.9793882"><ele>166.0</ele><time>2026-05-02T10:13:34.978Z</time></trkpt><trkpt lat="43.2896602" lon="-3.9791481"><ele>162.0</ele><time>2026-05-02T10:13:35.977Z</time></trkpt><trkpt lat="43.2897044" lon="-3.9788981"><ele>158.0</ele><time>2026-05-02T10:13:36.977Z</time></trkpt><trkpt lat="43.289741" lon="-3.9786524"><ele>154.0</ele><time>2026-05-02T10:13:37.986Z</time></trkpt><trkpt lat="43.2897841" lon="-3.9784112"><ele>161.0</ele><time>2026-05-02T10:13:38.976Z</time></trkpt><trkpt lat="43.2898227" lon="-3.9781521"><ele>168.0</ele><time>2026-05-02T10:13:39.977Z</time></trkpt><trkpt lat="43.2898623" lon="-3.9778894"><ele>175.0</ele><time>2026-05-02T10:13:40.979Z</time></trkpt><trkpt lat="43.2899" lon="-3.9776324"><ele>169.33333333333334</ele><time>2026-05-02T10:13:41.974Z</time></trkpt><trkpt lat="43.2899402" lon="-3.9773572"><ele>163.66666666666666</ele><time>2026-05-02T10:13:42.987Z</time></trkpt><trkpt lat="43.2899689" lon="-3.977077"><ele>158.0</ele><time>2026-05-02T10:13:43.98Z</time></trkpt><trkpt lat="43.2899913" lon="-3.976791"><ele>156.33333333333331</ele><time>2026-05-02T10:13:44.977Z</time></trkpt><trkpt lat="43.290001" lon="-3.9765002"><ele>154.66666666666666</ele><time>2026-05-02T10:13:45.977Z</time></trkpt><trkpt lat="43.2900112" lon="-3.9762165"><ele>153.0</ele><time>2026-05-02T10:13:46.978Z</time></trkpt><trkpt lat="43.2900005" lon="-3.9759219"><ele>151.0</ele><time>2026-05-02T10:13:47.979Z</time></trkpt><trkpt lat="43.2899922" lon="-3.975642"><ele>149.0</ele><time>2026-05-02T10:13:48.986Z</time></trkpt><trkpt lat="43.2899766" lon="-3.9753433"><ele>147.0</ele><time>2026-05-02T10:13:49.972Z</time></trkpt><trkpt lat="43.289958" lon="-3.9750671"><ele>145.66666666666666</ele><time>2026-05-02T10:13:50.969Z</time></trkpt><trkpt lat="43.2899444" lon="-3.9747973"><ele>144.33333333333331</ele><time>2026-05-02T10:13:51.976Z</time></trkpt><trkpt lat="43.2899426" lon="-3.9745453"><ele>143.0</ele><time>2026-05-02T10:13:52.976Z</time></trkpt><trkpt lat="43.2899205" lon="-3.9743231"><ele>143.66666666666666</ele><time>2026-05-02T10:13:53.973Z</time></trkpt><trkpt lat="43.2899015" lon="-3.9741089"><ele>144.33333333333334</ele><time>2026-05-02T10:13:54.975Z</time></trkpt><trkpt lat="43.2898599" lon="-3.9738838"><ele>145.0</ele><time>2026-05-02T10:13:55.973Z</time></trkpt><trkpt lat="43.2898152" lon="-3.9736675"><ele>135.33333333333334</ele><time>2026-05-02T10:13:56.971Z</time></trkpt><trkpt lat="43.2897572" lon="-3.9734626"><ele>125.66666666666666</ele><time>2026-05-02T10:13:57.974Z</time></trkpt><trkpt lat="43.2896812" lon="-3.9732578"><ele>116.0</ele><time>2026-05-02T10:13:58.969Z</time></trkpt><trkpt lat="43.289594" lon="-3.9730708"><ele>116.0</ele><time>2026-05-02T10:13:59.968Z</time></trkpt><trkpt lat="43.2894908" lon="-3.9728869"><ele>116.0</ele><time>2026-05-02T10:14:00.973Z</time></trkpt><trkpt lat="43.2894006" lon="-3.9727043"><ele>116.0</ele><time>2026-05-02T10:14:01.965Z</time></trkpt><trkpt lat="43.2893005" lon="-3.9725197"><ele>119.33333333333333</ele><time>2026-05-02T10:14:02.968Z</time></trkpt><trkpt lat="43.2891981" lon="-3.9723318"><ele>122.66666666666666</ele><time>2026-05-02T10:14:03.968Z</time></trkpt><trkpt lat="43.2890935" lon="-3.9721392"><ele>126.0</ele><time>2026-05-02T10:14:04.97Z</time></trkpt><trkpt lat="43.2889941" lon="-3.971956"><ele>121.0</ele><time>2026-05-02T10:14:05.966Z</time></trkpt><trkpt lat="43.2888954" lon="-3.9717584"><ele>116.0</ele><time>2026-05-02T10:14:06.966Z</time></trkpt><trkpt lat="43.2887897" lon="-3.9715633"><ele>111.0</ele><time>2026-05-02T10:14:07.969Z</time></trkpt><trkpt lat="43.2886883" lon="-3.9713583"><ele>111.0</ele><time>2026-05-02T10:14:08.968Z</time></trkpt><trkpt lat="43.2885971" lon="-3.9711562"><ele>111.0</ele><time>2026-05-02T10:14:09.969Z</time></trkpt><trkpt lat="43.2885068" lon="-3.9709626"><ele>111.0</ele><time>2026-05-02T10:14:10.966Z</time></trkpt><trkpt lat="43.2884258" lon="-3.9707795"><ele>112.0</ele><time>2026-05-02T10:14:11.97Z</time></trkpt><trkpt lat="43.2883504" lon="-3.9705898"><ele>113.0</ele><time>2026-05-02T10:14:12.968Z</time></trkpt><trkpt lat="43.2882798" lon="-3.9704044"><ele>114.0</ele><time>2026-05-02T10:14:13.971Z</time></trkpt><trkpt lat="43.2882064" lon="-3.9702225"><ele>112.33333333333334</ele><time>2026-05-02T10:14:14.969Z</time></trkpt><trkpt lat="43.2881379" lon="-3.9700246"><ele>110.66666666666667</ele><time>2026-05-02T10:14:15.972Z</time></trkpt><trkpt lat="43.288076" lon="-3.9698287"><ele>109.0</ele><time>2026-05-02T10:14:16.974Z</time></trkpt><trkpt lat="43.2880182" lon="-3.9696187"><ele>109.0</ele><time>2026-05-02T10:14:17.972Z</time></trkpt><trkpt lat="43.2879562" lon="-3.9694137"><ele>109.0</ele><time>2026-05-02T10:14:18.97Z</time></trkpt><trkpt lat="43.2878973" lon="-3.9691994"><ele>109.0</ele><time>2026-05-02T10:14:19.998Z</time></trkpt><trkpt lat="43.2878419" lon="-3.9689786"><ele>106.0</ele><time>2026-05-02T10:14:20.974Z</time></trkpt><trkpt lat="43.2877804" lon="-3.9687722"><ele>103.0</ele><time>2026-05-02T10:14:21.97Z</time></trkpt><trkpt lat="43.2877261" lon="-3.9685581"><ele>100.0</ele><time>2026-05-02T10:14:22.981Z</time></trkpt><trkpt lat="43.2876625" lon="-3.9683518"><ele>99.66666666666667</ele><time>2026-05-02T10:14:23.974Z</time></trkpt><trkpt lat="43.2876037" lon="-3.9681424"><ele>99.33333333333334</ele><time>2026-05-02T10:14:24.981Z</time></trkpt><trkpt lat="43.2875446" lon="-3.9679196"><ele>99.0</ele><time>2026-05-02T10:14:25.979Z</time></trkpt><trkpt lat="43.2874856" lon="-3.9677021"><ele>100.33333333333334</ele><time>2026-05-02T10:14:26.978Z</time></trkpt><trkpt lat="43.2874242" lon="-3.9674844"><ele>101.66666666666667</ele><time>2026-05-02T10:14:27.975Z</time></trkpt><trkpt lat="43.2873613" lon="-3.9672669"><ele>103.0</ele><time>2026-05-02T10:14:28.981Z</time></trkpt><trkpt lat="43.2873006" lon="-3.9670619"><ele>101.0</ele><time>2026-05-02T10:14:29.979Z</time></trkpt><trkpt lat="43.2872473" lon="-3.9668593"><ele>99.0</ele><time>2026-05-02T10:14:30.978Z</time></trkpt><trkpt lat="43.2871983" lon="-3.9666564"><ele>97.0</ele><time>2026-05-02T10:14:31.979Z</time></trkpt><trkpt lat="43.2871522" lon="-3.9664399"><ele>97.0</ele><time>2026-05-02T10:14:32.976Z</time></trkpt><trkpt lat="43.2871174" lon="-3.9662185"><ele>97.0</ele><time>2026-05-02T10:14:33.979Z</time></trkpt><trkpt lat="43.2870924" lon="-3.9660023"><ele>97.0</ele><time>2026-05-02T10:14:34.98Z</time></trkpt><trkpt lat="43.2870688" lon="-3.9657716"><ele>97.0</ele><time>2026-05-02T10:14:35.981Z</time></trkpt><trkpt lat="43.287068" lon="-3.965542"><ele>97.0</ele><time>2026-05-02T10:14:36.983Z</time></trkpt><trkpt lat="43.2870728" lon="-3.9653117"><ele>97.0</ele><time>2026-05-02T10:14:37.988Z</time></trkpt><trkpt lat="43.2870891" lon="-3.9650928"><ele>97.33333333333334</ele><time>2026-05-02T10:14:38.987Z</time></trkpt><trkpt lat="43.2871155" lon="-3.9648723"><ele>97.66666666666666</ele><time>2026-05-02T10:14:39.985Z</time></trkpt><trkpt lat="43.2871597" lon="-3.9646472"><ele>98.0</ele><time>2026-05-02T10:14:40.986Z</time></trkpt><trkpt lat="43.2872025" lon="-3.9644379"><ele>95.33333333333333</ele><time>2026-05-02T10:14:41.985Z</time></trkpt><trkpt lat="43.2872619" lon="-3.9642307"><ele>92.66666666666666</ele><time>2026-05-02T10:14:42.989Z</time></trkpt><trkpt lat="43.2873327" lon="-3.9640311"><ele>90.0</ele><time>2026-05-02T10:14:43.985Z</time></trkpt><trkpt lat="43.2874116" lon="-3.9638271"><ele>90.0</ele><time>2026-05-02T10:14:44.981Z</time></trkpt><trkpt lat="43.2875016" lon="-3.9636319"><ele>90.0</ele><time>2026-05-02T10:14:45.981Z</time></trkpt><trkpt lat="43.2875999" lon="-3.9634422"><ele>90.0</ele><time>2026-05-02T10:14:46.978Z</time></trkpt><trkpt lat="43.2877042" lon="-3.9632624"><ele>92.0</ele><time>2026-05-02T10:14:47.974Z</time></trkpt><trkpt lat="43.2878103" lon="-3.9630966"><ele>94.0</ele><time>2026-05-02T10:14:48.977Z</time></trkpt><trkpt lat="43.2879281" lon="-3.9629418"><ele>96.0</ele><time>2026-05-02T10:14:49.991Z</time></trkpt><trkpt lat="43.2880542" lon="-3.9627927"><ele>94.33333333333333</ele><time>2026-05-02T10:14:50.98Z</time></trkpt><trkpt lat="43.2881749" lon="-3.9626465"><ele>92.66666666666666</ele><time>2026-05-02T10:14:51.955Z</time></trkpt><trkpt lat="43.2882957" lon="-3.9624939"><ele>91.0</ele><time>2026-05-02T10:14:52.949Z</time></trkpt><trkpt lat="43.2884153" lon="-3.962339"><ele>89.66666666666666</ele><time>2026-05-02T10:14:53.958Z</time></trkpt><trkpt lat="43.2885309" lon="-3.9621696"><ele>88.33333333333333</ele><time>2026-05-02T10:14:54.949Z</time></trkpt><trkpt lat="43.2886315" lon="-3.9619752"><ele>87.0</ele><time>2026-05-02T10:14:55.951Z</time></trkpt><trkpt lat="43.2887266" lon="-3.9617672"><ele>88.66666666666667</ele><time>2026-05-02T10:14:56.954Z</time></trkpt><trkpt lat="43.2888135" lon="-3.9615589"><ele>90.33333333333334</ele><time>2026-05-02T10:14:57.953Z</time></trkpt><trkpt lat="43.2888874" lon="-3.9613646"><ele>92.0</ele><time>2026-05-02T10:14:58.959Z</time></trkpt><trkpt lat="43.2889511" lon="-3.9611758"><ele>89.5</ele><time>2026-05-02T10:14:59.955Z</time></trkpt><trkpt lat="43.2890085" lon="-3.9610026"><ele>87.0</ele><time>2026-05-02T10:15:00.956Z</time></trkpt><trkpt lat="43.2890798" lon="-3.9608294"><ele>84.5</ele><time>2026-05-02T10:15:01.956Z</time></trkpt><trkpt lat="43.2891412" lon="-3.9606649"><ele>82.0</ele><time>2026-05-02T10:15:02.961Z</time></trkpt><trkpt lat="43.2891892" lon="-3.9605101"><ele>82.0</ele><time>2026-05-02T10:15:03.96Z</time></trkpt><trkpt lat="43.2892231" lon="-3.9603422"><ele>82.0</ele><time>2026-05-02T10:15:04.958Z</time></trkpt><trkpt lat="43.2892497" lon="-3.9601912"><ele>82.0</ele><time>2026-05-02T10:15:05.959Z</time></trkpt><trkpt lat="43.289258" lon="-3.960045"><ele>82.0</ele><time>2026-05-02T10:15:06.955Z</time></trkpt><trkpt lat="43.2892508" lon="-3.9599056"><ele>82.0</ele><time>2026-05-02T10:15:07.961Z</time></trkpt><trkpt lat="43.2892473" lon="-3.9597749"><ele>82.6</ele><time>2026-05-02T10:15:08.959Z</time></trkpt><trkpt lat="43.289241" lon="-3.9596458"><ele>83.19999999999999</ele><time>2026-05-02T10:15:09.961Z</time></trkpt><trkpt lat="43.2892235" lon="-3.9595203"><ele>83.8</ele><time>2026-05-02T10:15:10.965Z</time></trkpt><trkpt lat="43.2891972" lon="-3.9594015"><ele>84.4</ele><time>2026-05-02T10:15:11.96Z</time></trkpt><trkpt lat="43.2891608" lon="-3.9592848"><ele>85.0</ele><time>2026-05-02T10:15:12.96Z</time></trkpt><trkpt lat="43.2891205" lon="-3.9591651"><ele>85.2</ele><time>2026-05-02T10:15:13.96Z</time></trkpt><trkpt lat="43.2890865" lon="-3.9590359"><ele>85.4</ele><time>2026-05-02T10:15:14.963Z</time></trkpt><trkpt lat="43.2890527" lon="-3.9589016"><ele>85.6</ele><time>2026-05-02T10:15:15.961Z</time></trkpt><trkpt lat="43.2890039" lon="-3.9587696"><ele>85.8</ele><time>2026-05-02T10:15:16.965Z</time></trkpt><trkpt lat="43.288943" lon="-3.9586401"><ele>86.0</ele><time>2026-05-02T10:15:17.966Z</time></trkpt><trkpt lat="43.2888638" lon="-3.9585172"><ele>86.0</ele><time>2026-05-02T10:15:18.958Z</time></trkpt><trkpt lat="43.2887753" lon="-3.958408"><ele>86.0</ele><time>2026-05-02T10:15:19.962Z</time></trkpt><trkpt lat="43.288686" lon="-3.9582996"><ele>86.0</ele><time>2026-05-02T10:15:20.977Z</time></trkpt><trkpt lat="43.2885974" lon="-3.9581877"><ele>86.0</ele><time>2026-05-02T10:15:21.963Z</time></trkpt><trkpt lat="43.2885114" lon="-3.9580727"><ele>84.0</ele><time>2026-05-02T10:15:22.969Z</time></trkpt><trkpt lat="43.2884222" lon="-3.9579574"><ele>82.0</ele><time>2026-05-02T10:15:23.966Z</time></trkpt><trkpt lat="43.288333" lon="-3.9578432"><ele>80.0</ele><time>2026-05-02T10:15:24.97Z</time></trkpt><trkpt lat="43.2882412" lon="-3.9577298"><ele>78.0</ele><time>2026-05-02T10:15:25.97Z</time></trkpt><trkpt lat="43.288153" lon="-3.9576148"><ele>78.5</ele><time>2026-05-02T10:15:26.964Z</time></trkpt><trkpt lat="43.2880605" lon="-3.9574958"><ele>79.0</ele><time>2026-05-02T10:15:27.967Z</time></trkpt><trkpt lat="43.2879685" lon="-3.9573777"><ele>79.5</ele><time>2026-05-02T10:15:28.963Z</time></trkpt><trkpt lat="43.2878772" lon="-3.957265"><ele>80.0</ele><time>2026-05-02T10:15:29.963Z</time></trkpt><trkpt lat="43.2877859" lon="-3.9571487"><ele>80.0</ele><time>2026-05-02T10:15:30.964Z</time></trkpt><trkpt lat="43.2876941" lon="-3.95703"><ele>80.0</ele><time>2026-05-02T10:15:31.959Z</time></trkpt><trkpt lat="43.2876004" lon="-3.9569119"><ele>80.0</ele><time>2026-05-02T10:15:32.959Z</time></trkpt><trkpt lat="43.2875041" lon="-3.9567913"><ele>80.0</ele><time>2026-05-02T10:15:33.96Z</time></trkpt><trkpt lat="43.2874042" lon="-3.9566637"><ele>78.75</ele><time>2026-05-02T10:15:34.96Z</time></trkpt><trkpt lat="43.2873077" lon="-3.9565358"><ele>77.5</ele><time>2026-05-02T10:15:35.963Z</time></trkpt><trkpt lat="43.2872123" lon="-3.9564038"><ele>76.25</ele><time>2026-05-02T10:15:36.965Z</time></trkpt><trkpt lat="43.2871132" lon="-3.9562715"><ele>75.0</ele><time>2026-05-02T10:15:37.964Z</time></trkpt><trkpt lat="43.2870114" lon="-3.956139"><ele>75.0</ele><time>2026-05-02T10:15:38.966Z</time></trkpt><trkpt lat="43.2869083" lon="-3.9560189"><ele>75.0</ele><time>2026-05-02T10:15:39.967Z</time></trkpt><trkpt lat="43.2868075" lon="-3.9558896"><ele>75.0</ele><time>2026-05-02T10:15:40.969Z</time></trkpt><trkpt lat="43.286704" lon="-3.9557631"><ele>75.0</ele><time>2026-05-02T10:15:41.973Z</time></trkpt><trkpt lat="43.286608" lon="-3.9556314"><ele>74.25</ele><time>2026-05-02T10:15:42.973Z</time></trkpt><trkpt lat="43.2865123" lon="-3.9555018"><ele>73.5</ele><time>2026-05-02T10:15:43.973Z</time></trkpt><trkpt lat="43.2864173" lon="-3.9553606"><ele>72.75</ele><time>2026-05-02T10:15:44.972Z</time></trkpt><trkpt lat="43.2863137" lon="-3.955239"><ele>72.0</ele><time>2026-05-02T10:15:45.971Z</time></trkpt><trkpt lat="43.2862191" lon="-3.9551233"><ele>73.0</ele><time>2026-05-02T10:15:46.973Z</time></trkpt><trkpt lat="43.2861251" lon="-3.9550044"><ele>74.0</ele><time>2026-05-02T10:15:47.97Z</time></trkpt><trkpt lat="43.2860363" lon="-3.9548842"><ele>75.0</ele><time>2026-05-02T10:15:48.97Z</time></trkpt><trkpt lat="43.2859419" lon="-3.9547707"><ele>76.0</ele><time>2026-05-02T10:15:49.97Z</time></trkpt><trkpt lat="43.2858575" lon="-3.9546539"><ele>76.0</ele><time>2026-05-02T10:15:50.969Z</time></trkpt><trkpt lat="43.2857596" lon="-3.9545437"><ele>76.0</ele><time>2026-05-02T10:15:51.975Z</time></trkpt><trkpt lat="43.2856708" lon="-3.9544344"><ele>76.0</ele><time>2026-05-02T10:15:52.971Z</time></trkpt><trkpt lat="43.2855883" lon="-3.9543196"><ele>76.0</ele><time>2026-05-02T10:15:53.962Z</time></trkpt><trkpt lat="43.2855058" lon="-3.9542097"><ele>76.6</ele><time>2026-05-02T10:15:54.968Z</time></trkpt><trkpt lat="43.2854258" lon="-3.9541046"><ele>77.19999999999999</ele><time>2026-05-02T10:15:55.962Z</time></trkpt><trkpt lat="43.2853425" lon="-3.9539983"><ele>77.80000000000001</ele><time>2026-05-02T10:15:56.965Z</time></trkpt><trkpt lat="43.2852623" lon="-3.9538936"><ele>78.4</ele><time>2026-05-02T10:15:57.966Z</time></trkpt><trkpt lat="43.2851872" lon="-3.9537907"><ele>79.0</ele><time>2026-05-02T10:15:58.968Z</time></trkpt><trkpt lat="43.2851101" lon="-3.9536878"><ele>79.0</ele><time>2026-05-02T10:15:59.963Z</time></trkpt><trkpt lat="43.2850371" lon="-3.9535895"><ele>79.0</ele><time>2026-05-02T10:16:00.963Z</time></trkpt><trkpt lat="43.2849624" lon="-3.9534899"><ele>79.0</ele><time>2026-05-02T10:16:01.961Z</time></trkpt><trkpt lat="43.2848924" lon="-3.9533919"><ele>79.0</ele><time>2026-05-02T10:16:02.961Z</time></trkpt><trkpt lat="43.2848204" lon="-3.9532962"><ele>79.0</ele><time>2026-05-02T10:16:03.962Z</time></trkpt><trkpt lat="43.2847471" lon="-3.9532042"><ele>80.0</ele><time>2026-05-02T10:16:04.963Z</time></trkpt><trkpt lat="43.2846777" lon="-3.9531152"><ele>81.0</ele><time>2026-05-02T10:16:05.962Z</time></trkpt><trkpt lat="43.284611" lon="-3.9530211"><ele>82.0</ele><time>2026-05-02T10:16:06.965Z</time></trkpt><trkpt lat="43.284542" lon="-3.9529261"><ele>83.0</ele><time>2026-05-02T10:16:07.963Z</time></trkpt><trkpt lat="43.2844696" lon="-3.9528354"><ele>84.0</ele><time>2026-05-02T10:16:08.961Z</time></trkpt><trkpt lat="43.2843953" lon="-3.9527426"><ele>84.0</ele><time>2026-05-02T10:16:09.958Z</time></trkpt><trkpt lat="43.2843201" lon="-3.9526455"><ele>84.0</ele><time>2026-05-02T10:16:10.963Z</time></trkpt><trkpt lat="43.2842473" lon="-3.9525454"><ele>84.0</ele><time>2026-05-02T10:16:11.961Z</time></trkpt><trkpt lat="43.2841681" lon="-3.9524443"><ele>84.0</ele><time>2026-05-02T10:16:12.965Z</time></trkpt><trkpt lat="43.2840929" lon="-3.952343"><ele>84.0</ele><time>2026-05-02T10:16:13.964Z</time></trkpt><trkpt lat="43.2840205" lon="-3.9522446"><ele>83.2</ele><time>2026-05-02T10:16:14.96Z</time></trkpt><trkpt lat="43.28395" lon="-3.952145"><ele>82.4</ele><time>2026-05-02T10:16:15.963Z</time></trkpt><trkpt lat="43.2838761" lon="-3.9520436"><ele>81.6</ele><time>2026-05-02T10:16:16.963Z</time></trkpt><trkpt lat="43.2838036" lon="-3.9519416"><ele>80.8</ele><time>2026-05-02T10:16:17.961Z</time></trkpt><trkpt lat="43.2837293" lon="-3.951839"><ele>80.0</ele><time>2026-05-02T10:16:18.96Z</time></trkpt><trkpt lat="43.283655" lon="-3.9517321"><ele>81.75</ele><time>2026-05-02T10:16:19.956Z</time></trkpt><trkpt lat="43.2835794" lon="-3.9516223"><ele>83.5</ele><time>2026-05-02T10:16:20.963Z</time></trkpt><trkpt lat="43.2835063" lon="-3.9515072"><ele>85.25</ele><time>2026-05-02T10:16:21.968Z</time></trkpt><trkpt lat="43.2834317" lon="-3.9513891"><ele>87.0</ele><time>2026-05-02T10:16:22.978Z</time></trkpt><trkpt lat="43.2833539" lon="-3.9512722"><ele>87.0</ele><time>2026-05-02T10:16:23.971Z</time></trkpt><trkpt lat="43.2832725" lon="-3.9511593"><ele>87.0</ele><time>2026-05-02T10:16:24.969Z</time></trkpt><trkpt lat="43.2831891" lon="-3.9510516"><ele>87.0</ele><time>2026-05-02T10:16:25.972Z</time></trkpt><trkpt lat="43.2831078" lon="-3.9509415"><ele>87.0</ele><time>2026-05-02T10:16:26.969Z</time></trkpt><trkpt lat="43.283024" lon="-3.9508355"><ele>88.8</ele><time>2026-05-02T10:16:27.966Z</time></trkpt><trkpt lat="43.2829387" lon="-3.9507392"><ele>90.6</ele><time>2026-05-02T10:16:28.968Z</time></trkpt><trkpt lat="43.2828563" lon="-3.9506436"><ele>92.39999999999999</ele><time>2026-05-02T10:16:29.969Z</time></trkpt><trkpt lat="43.2827791" lon="-3.9505444"><ele>94.19999999999999</ele><time>2026-05-02T10:16:30.974Z</time></trkpt><trkpt lat="43.2826986" lon="-3.9504484"><ele>96.0</ele><time>2026-05-02T10:16:31.971Z</time></trkpt><trkpt lat="43.282617" lon="-3.9503444"><ele>96.0</ele><time>2026-05-02T10:16:32.969Z</time></trkpt><trkpt lat="43.2825309" lon="-3.9502434"><ele>96.0</ele><time>2026-05-02T10:16:33.97Z</time></trkpt><trkpt lat="43.2824471" lon="-3.950143"><ele>96.0</ele><time>2026-05-02T10:16:34.972Z</time></trkpt><trkpt lat="43.2823642" lon="-3.9500406"><ele>96.0</ele><time>2026-05-02T10:16:35.975Z</time></trkpt><trkpt lat="43.2822783" lon="-3.9499364"><ele>96.25</ele><time>2026-05-02T10:16:36.971Z</time></trkpt><trkpt lat="43.2821905" lon="-3.9498345"><ele>96.5</ele><time>2026-05-02T10:16:37.971Z</time></trkpt><trkpt lat="43.2821045" lon="-3.9497313"><ele>96.75</ele><time>2026-05-02T10:16:38.969Z</time></trkpt><trkpt lat="43.2820189" lon="-3.9496289"><ele>97.0</ele><time>2026-05-02T10:16:39.971Z</time></trkpt><trkpt lat="43.2819304" lon="-3.949524"><ele>97.0</ele><time>2026-05-02T10:16:40.97Z</time></trkpt><trkpt lat="43.2818394" lon="-3.9494195"><ele>97.0</ele><time>2026-05-02T10:16:41.969Z</time></trkpt><trkpt lat="43.2817463" lon="-3.9493121"><ele>97.0</ele><time>2026-05-02T10:16:42.97Z</time></trkpt><trkpt lat="43.2816553" lon="-3.949204"><ele>97.0</ele><time>2026-05-02T10:16:43.97Z</time></trkpt><trkpt lat="43.2815613" lon="-3.949097"><ele>97.5</ele><time>2026-05-02T10:16:44.966Z</time></trkpt><trkpt lat="43.2814704" lon="-3.9489862"><ele>98.0</ele><time>2026-05-02T10:16:45.969Z</time></trkpt><trkpt lat="43.2813843" lon="-3.9488739"><ele>98.5</ele><time>2026-05-02T10:16:46.973Z</time></trkpt><trkpt lat="43.2812926" lon="-3.9487651"><ele>99.0</ele><time>2026-05-02T10:16:47.97Z</time></trkpt><trkpt lat="43.2812011" lon="-3.9486584"><ele>99.0</ele><time>2026-05-02T10:16:48.971Z</time></trkpt><trkpt lat="43.2811075" lon="-3.9485471"><ele>99.0</ele><time>2026-05-02T10:16:49.971Z</time></trkpt><trkpt lat="43.2810161" lon="-3.9484332"><ele>99.0</ele><time>2026-05-02T10:16:50.966Z</time></trkpt><trkpt lat="43.2809189" lon="-3.9483236"><ele>99.0</ele><time>2026-05-02T10:16:51.966Z</time></trkpt><trkpt lat="43.2808102" lon="-3.9482162"><ele>99.75</ele><time>2026-05-02T10:16:52.961Z</time></trkpt><trkpt lat="43.2806957" lon="-3.9481182"><ele>100.5</ele><time>2026-05-02T10:16:53.97Z</time></trkpt><trkpt lat="43.2805758" lon="-3.9480317"><ele>101.25</ele><time>2026-05-02T10:16:54.964Z</time></trkpt><trkpt lat="43.2804552" lon="-3.9479501"><ele>102.0</ele><time>2026-05-02T10:16:55.961Z</time></trkpt><trkpt lat="43.2803264" lon="-3.9478762"><ele>102.0</ele><time>2026-05-02T10:16:56.962Z</time></trkpt><trkpt lat="43.2801954" lon="-3.9478201"><ele>102.0</ele><time>2026-05-02T10:16:57.96Z</time></trkpt><trkpt lat="43.2800532" lon="-3.947781"><ele>102.0</ele><time>2026-05-02T10:16:58.952Z</time></trkpt><trkpt lat="43.2799124" lon="-3.9477386"><ele>102.0</ele><time>2026-05-02T10:16:59.952Z</time></trkpt><trkpt lat="43.2797662" lon="-3.9477036"><ele>103.0</ele><time>2026-05-02T10:17:00.951Z</time></trkpt><trkpt lat="43.2796368" lon="-3.9476866"><ele>104.0</ele><time>2026-05-02T10:17:01.944Z</time></trkpt><trkpt lat="43.2795064" lon="-3.9476725"><ele>105.0</ele><time>2026-05-02T10:17:02.951Z</time></trkpt><trkpt lat="43.2793695" lon="-3.9476592"><ele>106.0</ele><time>2026-05-02T10:17:03.959Z</time></trkpt><trkpt lat="43.2792366" lon="-3.9476214"><ele>106.0</ele><time>2026-05-02T10:17:04.956Z</time></trkpt><trkpt lat="43.2791062" lon="-3.9475854"><ele>106.0</ele><time>2026-05-02T10:17:05.967Z</time></trkpt><trkpt lat="43.2789802" lon="-3.9475558"><ele>106.0</ele><time>2026-05-02T10:17:06.962Z</time></trkpt><trkpt lat="43.2788461" lon="-3.9475176"><ele>106.0</ele><time>2026-05-02T10:17:07.958Z</time></trkpt><trkpt lat="43.2787143" lon="-3.9474765"><ele>102.25</ele><time>2026-05-02T10:17:08.959Z</time></trkpt><trkpt lat="43.2785813" lon="-3.947435"><ele>98.5</ele><time>2026-05-02T10:17:09.956Z</time></trkpt><trkpt lat="43.2784581" lon="-3.9473906"><ele>94.75</ele><time>2026-05-02T10:17:10.964Z</time></trkpt><trkpt lat="43.2783289" lon="-3.9473465"><ele>91.0</ele><time>2026-05-02T10:17:11.957Z</time></trkpt><trkpt lat="43.278203" lon="-3.9473097"><ele>91.25</ele><time>2026-05-02T10:17:12.959Z</time></trkpt><trkpt lat="43.2780776" lon="-3.9472705"><ele>91.5</ele><time>2026-05-02T10:17:13.957Z</time></trkpt><trkpt lat="43.2779508" lon="-3.9472306"><ele>91.75</ele><time>2026-05-02T10:17:14.955Z</time></trkpt><trkpt lat="43.2778258" lon="-3.9472059"><ele>92.0</ele><time>2026-05-02T10:17:15.955Z</time></trkpt><trkpt lat="43.2777002" lon="-3.9471722"><ele>92.0</ele><time>2026-05-02T10:17:16.957Z</time></trkpt><trkpt lat="43.2775699" lon="-3.947135"><ele>92.0</ele><time>2026-05-02T10:17:17.957Z</time></trkpt><trkpt lat="43.2774364" lon="-3.947102"><ele>92.0</ele><time>2026-05-02T10:17:18.963Z</time></trkpt><trkpt lat="43.2772996" lon="-3.9470801"><ele>92.0</ele><time>2026-05-02T10:17:19.961Z</time></trkpt><trkpt lat="43.2771597" lon="-3.9470673"><ele>90.5</ele><time>2026-05-02T10:17:20.959Z</time></trkpt><trkpt lat="43.2770212" lon="-3.9470585"><ele>89.0</ele><time>2026-05-02T10:17:21.965Z</time></trkpt><trkpt lat="43.2768933" lon="-3.9470696"><ele>87.5</ele><time>2026-05-02T10:17:22.966Z</time></trkpt><trkpt lat="43.2767632" lon="-3.9470749"><ele>86.0</ele><time>2026-05-02T10:17:23.964Z</time></trkpt><trkpt lat="43.276636" lon="-3.9470794"><ele>86.0</ele><time>2026-05-02T10:17:24.972Z</time></trkpt><trkpt lat="43.2765012" lon="-3.9470738"><ele>86.0</ele><time>2026-05-02T10:17:25.965Z</time></trkpt><trkpt lat="43.2763699" lon="-3.9470623"><ele>86.0</ele><time>2026-05-02T10:17:26.96Z</time></trkpt><trkpt lat="43.2762371" lon="-3.9470652"><ele>86.0</ele><time>2026-05-02T10:17:27.967Z</time></trkpt><trkpt lat="43.2761038" lon="-3.9470694"><ele>86.0</ele><time>2026-05-02T10:17:28.964Z</time></trkpt><trkpt lat="43.2759661" lon="-3.9470757"><ele>86.0</ele><time>2026-05-02T10:17:29.963Z</time></trkpt><trkpt lat="43.2758293" lon="-3.9470833"><ele>86.0</ele><time>2026-05-02T10:17:30.965Z</time></trkpt><trkpt lat="43.2756926" lon="-3.9470992"><ele>86.0</ele><time>2026-05-02T10:17:31.961Z</time></trkpt><trkpt lat="43.2755552" lon="-3.9471021"><ele>86.0</ele><time>2026-05-02T10:17:32.963Z</time></trkpt><trkpt lat="43.2754188" lon="-3.9471024"><ele>86.0</ele><time>2026-05-02T10:17:33.961Z</time></trkpt><trkpt lat="43.275274" lon="-3.9471072"><ele>86.0</ele><time>2026-05-02T10:17:34.964Z</time></trkpt><trkpt lat="43.2751333" lon="-3.9471118"><ele>86.0</ele><time>2026-05-02T10:17:35.962Z</time></trkpt><trkpt lat="43.2749923" lon="-3.9471186"><ele>86.0</ele><time>2026-05-02T10:17:36.964Z</time></trkpt><trkpt lat="43.2748463" lon="-3.9471169"><ele>86.0</ele><time>2026-05-02T10:17:37.964Z</time></trkpt><trkpt lat="43.2746976" lon="-3.9471161"><ele>86.0</ele><time>2026-05-02T10:17:38.963Z</time></trkpt><trkpt lat="43.2745528" lon="-3.947115"><ele>86.0</ele><time>2026-05-02T10:17:39.962Z</time></trkpt><trkpt lat="43.274406" lon="-3.9471165"><ele>86.33333333333334</ele><time>2026-05-02T10:17:40.961Z</time></trkpt><trkpt lat="43.2742584" lon="-3.947119"><ele>86.66666666666667</ele><time>2026-05-02T10:17:41.959Z</time></trkpt><trkpt lat="43.2741115" lon="-3.9471235"><ele>87.0</ele><time>2026-05-02T10:17:42.96Z</time></trkpt><trkpt lat="43.273955" lon="-3.9471251"><ele>86.75</ele><time>2026-05-02T10:17:43.965Z</time></trkpt><trkpt lat="43.2738055" lon="-3.9471264"><ele>86.5</ele><time>2026-05-02T10:17:44.961Z</time></trkpt><trkpt lat="43.2736591" lon="-3.947133"><ele>86.25</ele><time>2026-05-02T10:17:45.961Z</time></trkpt><trkpt lat="43.2735118" lon="-3.9471357"><ele>86.0</ele><time>2026-05-02T10:17:46.967Z</time></trkpt><trkpt lat="43.2733654" lon="-3.9471353"><ele>86.0</ele><time>2026-05-02T10:17:47.973Z</time></trkpt><trkpt lat="43.2732235" lon="-3.9471272"><ele>86.0</ele><time>2026-05-02T10:17:48.964Z</time></trkpt><trkpt lat="43.2730814" lon="-3.9471305"><ele>86.0</ele><time>2026-05-02T10:17:49.965Z</time></trkpt><trkpt lat="43.2729449" lon="-3.9471306"><ele>86.0</ele><time>2026-05-02T10:17:50.965Z</time></trkpt><trkpt lat="43.2728051" lon="-3.9471344"><ele>86.0</ele><time>2026-05-02T10:17:51.967Z</time></trkpt><trkpt lat="43.2726664" lon="-3.9471326"><ele>86.0</ele><time>2026-05-02T10:17:52.967Z</time></trkpt><trkpt lat="43.2725238" lon="-3.9471369"><ele>86.0</ele><time>2026-05-02T10:17:53.967Z</time></trkpt><trkpt lat="43.2723828" lon="-3.9471467"><ele>86.0</ele><time>2026-05-02T10:17:54.97Z</time></trkpt><trkpt lat="43.2722376" lon="-3.9471441"><ele>86.75</ele><time>2026-05-02T10:17:55.975Z</time></trkpt><trkpt lat="43.2720849" lon="-3.9471357"><ele>87.5</ele><time>2026-05-02T10:17:56.963Z</time></trkpt><trkpt lat="43.2719385" lon="-3.9471333"><ele>88.25</ele><time>2026-05-02T10:17:57.961Z</time></trkpt><trkpt lat="43.2717918" lon="-3.9471377"><ele>89.0</ele><time>2026-05-02T10:17:58.965Z</time></trkpt><trkpt lat="43.2716418" lon="-3.9471346"><ele>89.0</ele><time>2026-05-02T10:17:59.964Z</time></trkpt><trkpt lat="43.2714924" lon="-3.9471424"><ele>89.0</ele><time>2026-05-02T10:18:00.963Z</time></trkpt><trkpt lat="43.2713477" lon="-3.947146"><ele>89.0</ele><time>2026-05-02T10:18:01.962Z</time></trkpt><trkpt lat="43.2712022" lon="-3.9471521"><ele>89.0</ele><time>2026-05-02T10:18:02.961Z</time></trkpt><trkpt lat="43.2710558" lon="-3.9471539"><ele>89.0</ele><time>2026-05-02T10:18:03.961Z</time></trkpt><trkpt lat="43.2709083" lon="-3.9471606"><ele>89.0</ele><time>2026-05-02T10:18:04.964Z</time></trkpt><trkpt lat="43.2707579" lon="-3.947167"><ele>89.0</ele><time>2026-05-02T10:18:05.965Z</time></trkpt><trkpt lat="43.2706084" lon="-3.9471755"><ele>89.0</ele><time>2026-05-02T10:18:06.964Z</time></trkpt><trkpt lat="43.2704587" lon="-3.9471807"><ele>89.0</ele><time>2026-05-02T10:18:07.966Z</time></trkpt><trkpt lat="43.270315" lon="-3.9471795"><ele>89.0</ele><time>2026-05-02T10:18:08.97Z</time></trkpt><trkpt lat="43.2701666" lon="-3.9471813"><ele>89.0</ele><time>2026-05-02T10:18:09.965Z</time></trkpt><trkpt lat="43.270025" lon="-3.947178"><ele>89.0</ele><time>2026-05-02T10:18:10.967Z</time></trkpt><trkpt lat="43.2698874" lon="-3.9471797"><ele>88.75</ele><time>2026-05-02T10:18:11.964Z</time></trkpt><trkpt lat="43.2697428" lon="-3.9471772"><ele>88.5</ele><time>2026-05-02T10:18:12.967Z</time></trkpt><trkpt lat="43.2696019" lon="-3.9471767"><ele>88.25</ele><time>2026-05-02T10:18:13.968Z</time></trkpt><trkpt lat="43.2694551" lon="-3.9471777"><ele>88.0</ele><time>2026-05-02T10:18:14.966Z</time></trkpt><trkpt lat="43.2693098" lon="-3.9471788"><ele>88.0</ele><time>2026-05-02T10:18:15.965Z</time></trkpt><trkpt lat="43.2691626" lon="-3.9471765"><ele>88.0</ele><time>2026-05-02T10:18:16.967Z</time></trkpt><trkpt lat="43.269018" lon="-3.9471753"><ele>88.0</ele><time>2026-05-02T10:18:17.964Z</time></trkpt><trkpt lat="43.2688726" lon="-3.9471761"><ele>88.0</ele><time>2026-05-02T10:18:18.968Z</time></trkpt><trkpt lat="43.2687287" lon="-3.9471721"><ele>89.0</ele><time>2026-05-02T10:18:19.966Z</time></trkpt><trkpt lat="43.2685823" lon="-3.9471696"><ele>90.0</ele><time>2026-05-02T10:18:20.965Z</time></trkpt><trkpt lat="43.2684405" lon="-3.9471665"><ele>91.0</ele><time>2026-05-02T10:18:21.967Z</time></trkpt><trkpt lat="43.2683065" lon="-3.9471643"><ele>92.0</ele><time>2026-05-02T10:18:22.966Z</time></trkpt><trkpt lat="43.2681754" lon="-3.9471664"><ele>91.75</ele><time>2026-05-02T10:18:23.965Z</time></trkpt><trkpt lat="43.2680477" lon="-3.9471739"><ele>91.5</ele><time>2026-05-02T10:18:24.962Z</time></trkpt><trkpt lat="43.2679366" lon="-3.9471802"><ele>91.25</ele><time>2026-05-02T10:18:25.961Z</time></trkpt><trkpt lat="43.2678192" lon="-3.9471831"><ele>91.0</ele><time>2026-05-02T10:18:26.968Z</time></trkpt><trkpt lat="43.2677078" lon="-3.9471842"><ele>91.0</ele><time>2026-05-02T10:18:27.967Z</time></trkpt><trkpt lat="43.2676059" lon="-3.9471909"><ele>91.0</ele><time>2026-05-02T10:18:28.969Z</time></trkpt><trkpt lat="43.2675199" lon="-3.9471937"><ele>91.0</ele><time>2026-05-02T10:18:29.966Z</time></trkpt><trkpt lat="43.26743" lon="-3.9471949"><ele>91.0</ele><time>2026-05-02T10:18:30.965Z</time></trkpt><trkpt lat="43.267332" lon="-3.9472002"><ele>91.0</ele><time>2026-05-02T10:18:31.965Z</time></trkpt><trkpt lat="43.2672256" lon="-3.9472017"><ele>91.8</ele><time>2026-05-02T10:18:32.962Z</time></trkpt><trkpt lat="43.2671209" lon="-3.9472013"><ele>92.6</ele><time>2026-05-02T10:18:33.961Z</time></trkpt><trkpt lat="43.2670177" lon="-3.9472058"><ele>93.4</ele><time>2026-05-02T10:18:34.957Z</time></trkpt><trkpt lat="43.2669132" lon="-3.9472126"><ele>94.2</ele><time>2026-05-02T10:18:35.958Z</time></trkpt><trkpt lat="43.2668075" lon="-3.9472306"><ele>95.0</ele><time>2026-05-02T10:18:36.957Z</time></trkpt><trkpt lat="43.2667001" lon="-3.9472551"><ele>95.0</ele><time>2026-05-02T10:18:37.956Z</time></trkpt><trkpt lat="43.2665905" lon="-3.9472848"><ele>95.0</ele><time>2026-05-02T10:18:38.959Z</time></trkpt><trkpt lat="43.2664813" lon="-3.9473171"><ele>95.0</ele><time>2026-05-02T10:18:39.958Z</time></trkpt><trkpt lat="43.266371" lon="-3.9473433"><ele>95.0</ele><time>2026-05-02T10:18:40.956Z</time></trkpt><trkpt lat="43.2662611" lon="-3.9473717"><ele>95.0</ele><time>2026-05-02T10:18:41.959Z</time></trkpt><trkpt lat="43.2661491" lon="-3.9473983"><ele>94.6</ele><time>2026-05-02T10:18:42.959Z</time></trkpt><trkpt lat="43.2660473" lon="-3.9474244"><ele>94.2</ele><time>2026-05-02T10:18:43.959Z</time></trkpt><trkpt lat="43.265952" lon="-3.9474507"><ele>93.80000000000001</ele><time>2026-05-02T10:18:44.96Z</time></trkpt><trkpt lat="43.2658616" lon="-3.9474724"><ele>93.4</ele><time>2026-05-02T10:18:45.964Z</time></trkpt><trkpt lat="43.2657735" lon="-3.9474874"><ele>93.0</ele><time>2026-05-02T10:18:46.963Z</time></trkpt><trkpt lat="43.2656784" lon="-3.9475006"><ele>93.2</ele><time>2026-05-02T10:18:47.962Z</time></trkpt><trkpt lat="43.2655847" lon="-3.9475108"><ele>93.4</ele><time>2026-05-02T10:18:48.958Z</time></trkpt><trkpt lat="43.2654835" lon="-3.9475286"><ele>93.60000000000001</ele><time>2026-05-02T10:18:49.955Z</time></trkpt><trkpt lat="43.2653801" lon="-3.9475506"><ele>93.80000000000001</ele><time>2026-05-02T10:18:50.955Z</time></trkpt><trkpt lat="43.2652715" lon="-3.9475633"><ele>94.0</ele><time>2026-05-02T10:18:51.951Z</time></trkpt><trkpt lat="43.2651561" lon="-3.9475777"><ele>94.75</ele><time>2026-05-02T10:18:52.962Z</time></trkpt><trkpt lat="43.2650372" lon="-3.9475942"><ele>95.5</ele><time>2026-05-02T10:18:53.957Z</time></trkpt><trkpt lat="43.2649153" lon="-3.9476066"><ele>96.25</ele><time>2026-05-02T10:18:54.957Z</time></trkpt><trkpt lat="43.2647929" lon="-3.9476288"><ele>97.0</ele><time>2026-05-02T10:18:55.959Z</time></trkpt><trkpt lat="43.2646703" lon="-3.9476441"><ele>99.25</ele><time>2026-05-02T10:18:56.957Z</time></trkpt><trkpt lat="43.2645442" lon="-3.9476475"><ele>101.5</ele><time>2026-05-02T10:18:57.981Z</time></trkpt><trkpt lat="43.2644214" lon="-3.9476451"><ele>103.75</ele><time>2026-05-02T10:18:58.963Z</time></trkpt><trkpt lat="43.2642943" lon="-3.9476335"><ele>106.0</ele><time>2026-05-02T10:18:59.958Z</time></trkpt><trkpt lat="43.2641702" lon="-3.947619"><ele>106.0</ele><time>2026-05-02T10:19:00.963Z</time></trkpt><trkpt lat="43.264051" lon="-3.9475959"><ele>106.0</ele><time>2026-05-02T10:19:01.958Z</time></trkpt><trkpt lat="43.2639309" lon="-3.9475703"><ele>106.0</ele><time>2026-05-02T10:19:02.957Z</time></trkpt><trkpt lat="43.2638092" lon="-3.9475423"><ele>106.0</ele><time>2026-05-02T10:19:03.958Z</time></trkpt><trkpt lat="43.2636898" lon="-3.9475191"><ele>106.25</ele><time>2026-05-02T10:19:04.962Z</time></trkpt><trkpt lat="43.2635664" lon="-3.9474987"><ele>106.5</ele><time>2026-05-02T10:19:05.96Z</time></trkpt><trkpt lat="43.2634443" lon="-3.9474797"><ele>106.75</ele><time>2026-05-02T10:19:06.958Z</time></trkpt><trkpt lat="43.2633209" lon="-3.9474601"><ele>107.0</ele><time>2026-05-02T10:19:07.961Z</time></trkpt><trkpt lat="43.2631979" lon="-3.9474443"><ele>108.5</ele><time>2026-05-02T10:19:08.964Z</time></trkpt><trkpt lat="43.2630713" lon="-3.9474362"><ele>110.0</ele><time>2026-05-02T10:19:09.965Z</time></trkpt><trkpt lat="43.2629457" lon="-3.947433"><ele>111.5</ele><time>2026-05-02T10:19:10.965Z</time></trkpt><trkpt lat="43.2628176" lon="-3.9474294"><ele>113.0</ele><time>2026-05-02T10:19:11.962Z</time></trkpt><trkpt lat="43.2626912" lon="-3.9474331"><ele>113.0</ele><time>2026-05-02T10:19:12.962Z</time></trkpt><trkpt lat="43.2625624" lon="-3.9474372"><ele>113.0</ele><time>2026-05-02T10:19:13.963Z</time></trkpt><trkpt lat="43.2624351" lon="-3.9474425"><ele>113.0</ele><time>2026-05-02T10:19:14.96Z</time></trkpt><trkpt lat="43.2623104" lon="-3.9474414"><ele>113.0</ele><time>2026-05-02T10:19:15.959Z</time></trkpt><trkpt lat="43.2621854" lon="-3.9474436"><ele>113.0</ele><time>2026-05-02T10:19:16.974Z</time></trkpt><trkpt lat="43.2620607" lon="-3.9474483"><ele>113.0</ele><time>2026-05-02T10:19:17.965Z</time></trkpt><trkpt lat="43.2619355" lon="-3.9474583"><ele>113.0</ele><time>2026-05-02T10:19:18.974Z</time></trkpt><trkpt lat="43.2618076" lon="-3.9474652"><ele>113.0</ele><time>2026-05-02T10:19:19.966Z</time></trkpt><trkpt lat="43.2616837" lon="-3.9474667"><ele>113.0</ele><time>2026-05-02T10:19:20.966Z</time></trkpt><trkpt lat="43.2615561" lon="-3.9474676"><ele>113.0</ele><time>2026-05-02T10:19:21.963Z</time></trkpt><trkpt lat="43.261426" lon="-3.9474673"><ele>113.0</ele><time>2026-05-02T10:19:22.966Z</time></trkpt><trkpt lat="43.2613" lon="-3.9474763"><ele>113.0</ele><time>2026-05-02T10:19:23.962Z</time></trkpt><trkpt lat="43.2611736" lon="-3.9474795"><ele>115.0</ele><time>2026-05-02T10:19:24.963Z</time></trkpt><trkpt lat="43.2610458" lon="-3.9474823"><ele>117.0</ele><time>2026-05-02T10:19:25.964Z</time></trkpt><trkpt lat="43.2609192" lon="-3.9474864"><ele>119.0</ele><time>2026-05-02T10:19:26.961Z</time></trkpt><trkpt lat="43.2607929" lon="-3.9474953"><ele>121.0</ele><time>2026-05-02T10:19:27.966Z</time></trkpt><trkpt lat="43.2606697" lon="-3.9475055"><ele>121.66666666666667</ele><time>2026-05-02T10:19:28.962Z</time></trkpt><trkpt lat="43.2604233" lon="-3.9475335"><ele>122.33333333333334</ele><time>2026-05-02T10:19:30.965Z</time></trkpt><trkpt lat="43.260295" lon="-3.947552"><ele>123.0</ele><time>2026-05-02T10:19:31.965Z</time></trkpt><trkpt lat="43.2601636" lon="-3.9475789"><ele>125.75</ele><time>2026-05-02T10:19:32.964Z</time></trkpt><trkpt lat="43.2600343" lon="-3.9476091"><ele>128.5</ele><time>2026-05-02T10:19:33.963Z</time></trkpt><trkpt lat="43.2599054" lon="-3.9476432"><ele>131.25</ele><time>2026-05-02T10:19:34.962Z</time></trkpt><trkpt lat="43.2597706" lon="-3.9476748"><ele>134.0</ele><time>2026-05-02T10:19:35.963Z</time></trkpt><trkpt lat="43.2596386" lon="-3.9477089"><ele>134.0</ele><time>2026-05-02T10:19:36.964Z</time></trkpt><trkpt lat="43.2595049" lon="-3.9477416"><ele>134.0</ele><time>2026-05-02T10:19:37.963Z</time></trkpt><trkpt lat="43.2593672" lon="-3.9477766"><ele>134.0</ele><time>2026-05-02T10:19:38.964Z</time></trkpt><trkpt lat="43.2592284" lon="-3.9478142"><ele>134.0</ele><time>2026-05-02T10:19:39.963Z</time></trkpt><trkpt lat="43.2590833" lon="-3.947856"><ele>133.25</ele><time>2026-05-02T10:19:40.964Z</time></trkpt><trkpt lat="43.2589423" lon="-3.9479023"><ele>132.5</ele><time>2026-05-02T10:19:41.964Z</time></trkpt><trkpt lat="43.2588078" lon="-3.9479561"><ele>131.75</ele><time>2026-05-02T10:19:42.961Z</time></trkpt><trkpt lat="43.2586745" lon="-3.948013"><ele>131.0</ele><time>2026-05-02T10:19:43.962Z</time></trkpt><trkpt lat="43.2585347" lon="-3.9480696"><ele>131.0</ele><time>2026-05-02T10:19:44.96Z</time></trkpt><trkpt lat="43.2583917" lon="-3.9481312"><ele>131.0</ele><time>2026-05-02T10:19:45.959Z</time></trkpt><trkpt lat="43.258254" lon="-3.9482009"><ele>131.0</ele><time>2026-05-02T10:19:46.965Z</time></trkpt><trkpt lat="43.2581192" lon="-3.9482723"><ele>131.0</ele><time>2026-05-02T10:19:47.962Z</time></trkpt><trkpt lat="43.2579768" lon="-3.9483417"><ele>133.33333333333331</ele><time>2026-05-02T10:19:48.961Z</time></trkpt><trkpt lat="43.2578298" lon="-3.9483989"><ele>135.66666666666666</ele><time>2026-05-02T10:19:49.962Z</time></trkpt><trkpt lat="43.2576831" lon="-3.9484546"><ele>138.0</ele><time>2026-05-02T10:19:50.965Z</time></trkpt><trkpt lat="43.2575373" lon="-3.9485029"><ele>138.0</ele><time>2026-05-02T10:19:51.963Z</time></trkpt><trkpt lat="43.2573973" lon="-3.9485426"><ele>138.0</ele><time>2026-05-02T10:19:52.964Z</time></trkpt><trkpt lat="43.2572534" lon="-3.9485855"><ele>138.0</ele><time>2026-05-02T10:19:53.962Z</time></trkpt><trkpt lat="43.2571065" lon="-3.948631"><ele>138.0</ele><time>2026-05-02T10:19:54.965Z</time></trkpt><trkpt lat="43.2569672" lon="-3.9486697"><ele>137.25</ele><time>2026-05-02T10:19:55.964Z</time></trkpt><trkpt lat="43.2568201" lon="-3.9487004"><ele>136.5</ele><time>2026-05-02T10:19:56.959Z</time></trkpt><trkpt lat="43.2566857" lon="-3.948721"><ele>135.75</ele><time>2026-05-02T10:19:57.959Z</time></trkpt><trkpt lat="43.2565509" lon="-3.9487557"><ele>135.0</ele><time>2026-05-02T10:19:58.971Z</time></trkpt><trkpt lat="43.2564166" lon="-3.9487699"><ele>134.5</ele><time>2026-05-02T10:19:59.953Z</time></trkpt><trkpt lat="43.2562793" lon="-3.9487854"><ele>134.0</ele><time>2026-05-02T10:20:00.957Z</time></trkpt><trkpt lat="43.2561434" lon="-3.9487967"><ele>133.5</ele><time>2026-05-02T10:20:01.957Z</time></trkpt><trkpt lat="43.2560012" lon="-3.9488005"><ele>133.0</ele><time>2026-05-02T10:20:02.956Z</time></trkpt><trkpt lat="43.2558586" lon="-3.9488149"><ele>133.0</ele><time>2026-05-02T10:20:03.954Z</time></trkpt><trkpt lat="43.2557084" lon="-3.9488239"><ele>133.0</ele><time>2026-05-02T10:20:04.946Z</time></trkpt><trkpt lat="43.2555621" lon="-3.9488186"><ele>133.0</ele><time>2026-05-02T10:20:05.947Z</time></trkpt><trkpt lat="43.2554034" lon="-3.9488136"><ele>132.33333333333334</ele><time>2026-05-02T10:20:06.946Z</time></trkpt><trkpt lat="43.2552492" lon="-3.9488093"><ele>131.66666666666666</ele><time>2026-05-02T10:20:07.944Z</time></trkpt><trkpt lat="43.2550916" lon="-3.9488066"><ele>131.0</ele><time>2026-05-02T10:20:08.944Z</time></trkpt><trkpt lat="43.2549415" lon="-3.9487985"><ele>131.0</ele><time>2026-05-02T10:20:09.946Z</time></trkpt><trkpt lat="43.2547882" lon="-3.9487839"><ele>131.0</ele><time>2026-05-02T10:20:10.945Z</time></trkpt><trkpt lat="43.254636" lon="-3.9487545"><ele>131.0</ele><time>2026-05-02T10:20:11.947Z</time></trkpt><trkpt lat="43.2544769" lon="-3.9487268"><ele>134.66666666666666</ele><time>2026-05-02T10:20:12.945Z</time></trkpt><trkpt lat="43.2543267" lon="-3.9487133"><ele>138.33333333333334</ele><time>2026-05-02T10:20:13.944Z</time></trkpt><trkpt lat="43.2541734" lon="-3.9486823"><ele>142.0</ele><time>2026-05-02T10:20:14.944Z</time></trkpt><trkpt lat="43.2540264" lon="-3.9486579"><ele>145.0</ele><time>2026-05-02T10:20:15.943Z</time></trkpt><trkpt lat="43.2538759" lon="-3.9486182"><ele>148.0</ele><time>2026-05-02T10:20:16.945Z</time></trkpt><trkpt lat="43.2537327" lon="-3.9485644"><ele>151.0</ele><time>2026-05-02T10:20:17.943Z</time></trkpt><trkpt lat="43.2535888" lon="-3.9484976"><ele>151.0</ele><time>2026-05-02T10:20:18.947Z</time></trkpt><trkpt lat="43.2534484" lon="-3.9484149"><ele>151.0</ele><time>2026-05-02T10:20:19.955Z</time></trkpt><trkpt lat="43.2533063" lon="-3.9483427"><ele>151.0</ele><time>2026-05-02T10:20:20.954Z</time></trkpt><trkpt lat="43.2531595" lon="-3.9482654"><ele>143.33333333333334</ele><time>2026-05-02T10:20:21.951Z</time></trkpt><trkpt lat="43.2530188" lon="-3.948168"><ele>135.66666666666666</ele><time>2026-05-02T10:20:22.956Z</time></trkpt><trkpt lat="43.2528748" lon="-3.9480743"><ele>128.0</ele><time>2026-05-02T10:20:23.95Z</time></trkpt><trkpt lat="43.2527369" lon="-3.9479925"><ele>128.0</ele><time>2026-05-02T10:20:24.953Z</time></trkpt><trkpt lat="43.2526021" lon="-3.9479172"><ele>128.0</ele><time>2026-05-02T10:20:25.954Z</time></trkpt><trkpt lat="43.2524705" lon="-3.9478414"><ele>128.0</ele><time>2026-05-02T10:20:26.956Z</time></trkpt><trkpt lat="43.252341" lon="-3.9477573"><ele>128.0</ele><time>2026-05-02T10:20:27.958Z</time></trkpt><trkpt lat="43.2522061" lon="-3.9476842"><ele>126.5</ele><time>2026-05-02T10:20:28.964Z</time></trkpt><trkpt lat="43.2520756" lon="-3.9476035"><ele>125.0</ele><time>2026-05-02T10:20:29.967Z</time></trkpt><trkpt lat="43.2519411" lon="-3.9475385"><ele>123.5</ele><time>2026-05-02T10:20:30.958Z</time></trkpt><trkpt lat="43.2518146" lon="-3.9474635"><ele>122.0</ele><time>2026-05-02T10:20:31.96Z</time></trkpt><trkpt lat="43.2516801" lon="-3.9474009"><ele>122.0</ele><time>2026-05-02T10:20:32.958Z</time></trkpt><trkpt lat="43.2515449" lon="-3.9473485"><ele>122.0</ele><time>2026-05-02T10:20:33.955Z</time></trkpt><trkpt lat="43.251408" lon="-3.947293"><ele>122.0</ele><time>2026-05-02T10:20:34.96Z</time></trkpt><trkpt lat="43.2512695" lon="-3.9472476"><ele>122.0</ele><time>2026-05-02T10:20:35.957Z</time></trkpt><trkpt lat="43.2511211" lon="-3.9472076"><ele>124.0</ele><time>2026-05-02T10:20:36.964Z</time></trkpt><trkpt lat="43.2509752" lon="-3.9471883"><ele>126.0</ele><time>2026-05-02T10:20:37.959Z</time></trkpt><trkpt lat="43.2508259" lon="-3.9471592"><ele>128.0</ele><time>2026-05-02T10:20:38.958Z</time></trkpt><trkpt lat="43.2506782" lon="-3.9471486"><ele>130.0</ele><time>2026-05-02T10:20:39.958Z</time></trkpt><trkpt lat="43.2505296" lon="-3.9471265"><ele>132.0</ele><time>2026-05-02T10:20:40.96Z</time></trkpt><trkpt lat="43.2503839" lon="-3.9471056"><ele>134.0</ele><time>2026-05-02T10:20:41.963Z</time></trkpt><trkpt lat="43.2502326" lon="-3.9470798"><ele>136.0</ele><time>2026-05-02T10:20:42.965Z</time></trkpt><trkpt lat="43.2500821" lon="-3.9470559"><ele>136.0</ele><time>2026-05-02T10:20:43.965Z</time></trkpt><trkpt lat="43.2499406" lon="-3.9470309"><ele>136.0</ele><time>2026-05-02T10:20:44.961Z</time></trkpt><trkpt lat="43.2497972" lon="-3.947007"><ele>136.0</ele><time>2026-05-02T10:20:45.961Z</time></trkpt><trkpt lat="43.2496507" lon="-3.9469942"><ele>136.0</ele><time>2026-05-02T10:20:46.967Z</time></trkpt><trkpt lat="43.2495098" lon="-3.9469865"><ele>136.5</ele><time>2026-05-02T10:20:47.962Z</time></trkpt><trkpt lat="43.2493754" lon="-3.9469704"><ele>137.0</ele><time>2026-05-02T10:20:48.966Z</time></trkpt><trkpt lat="43.2492451" lon="-3.9469464"><ele>137.5</ele><time>2026-05-02T10:20:49.964Z</time></trkpt><trkpt lat="43.2491131" lon="-3.9469166"><ele>138.0</ele><time>2026-05-02T10:20:50.967Z</time></trkpt><trkpt lat="43.2489821" lon="-3.946894"><ele>138.75</ele><time>2026-05-02T10:20:51.968Z</time></trkpt><trkpt lat="43.2488438" lon="-3.9468765"><ele>139.5</ele><time>2026-05-02T10:20:52.967Z</time></trkpt><trkpt lat="43.2487032" lon="-3.9468549"><ele>140.25</ele><time>2026-05-02T10:20:53.966Z</time></trkpt><trkpt lat="43.248572" lon="-3.9468404"><ele>141.0</ele><time>2026-05-02T10:20:54.964Z</time></trkpt><trkpt lat="43.2484384" lon="-3.9468173"><ele>141.0</ele><time>2026-05-02T10:20:55.965Z</time></trkpt><trkpt lat="43.2483045" lon="-3.9467905"><ele>141.0</ele><time>2026-05-02T10:20:56.962Z</time></trkpt><trkpt lat="43.2481684" lon="-3.9467711"><ele>141.0</ele><time>2026-05-02T10:20:57.964Z</time></trkpt><trkpt lat="43.2480381" lon="-3.9467411"><ele>141.0</ele><time>2026-05-02T10:20:58.965Z</time></trkpt><trkpt lat="43.2479011" lon="-3.9467196"><ele>139.75</ele><time>2026-05-02T10:20:59.962Z</time></trkpt><trkpt lat="43.2477717" lon="-3.9466983"><ele>138.5</ele><time>2026-05-02T10:21:00.975Z</time></trkpt><trkpt lat="43.2476458" lon="-3.9466796"><ele>137.25</ele><time>2026-05-02T10:21:01.969Z</time></trkpt><trkpt lat="43.247506" lon="-3.9466555"><ele>136.0</ele><time>2026-05-02T10:21:02.967Z</time></trkpt><trkpt lat="43.247372" lon="-3.946631"><ele>136.0</ele><time>2026-05-02T10:21:03.97Z</time></trkpt><trkpt lat="43.2472348" lon="-3.9466132"><ele>136.0</ele><time>2026-05-02T10:21:04.964Z</time></trkpt><trkpt lat="43.2471008" lon="-3.946595"><ele>136.0</ele><time>2026-05-02T10:21:05.965Z</time></trkpt><trkpt lat="43.246967" lon="-3.9466021"><ele>136.0</ele><time>2026-05-02T10:21:06.966Z</time></trkpt><trkpt lat="43.2468328" lon="-3.9466368"><ele>136.0</ele><time>2026-05-02T10:21:07.963Z</time></trkpt><trkpt lat="43.2466986" lon="-3.9466793"><ele>136.0</ele><time>2026-05-02T10:21:08.969Z</time></trkpt><trkpt lat="43.246562" lon="-3.9467353"><ele>136.0</ele><time>2026-05-02T10:21:09.967Z</time></trkpt><trkpt lat="43.246433" lon="-3.9468236"><ele>136.0</ele><time>2026-05-02T10:21:10.966Z</time></trkpt><trkpt lat="43.2463086" lon="-3.9469201"><ele>136.75</ele><time>2026-05-02T10:21:11.965Z</time></trkpt><trkpt lat="43.2461818" lon="-3.9470104"><ele>137.5</ele><time>2026-05-02T10:21:12.967Z</time></trkpt><trkpt lat="43.2460442" lon="-3.9471021"><ele>138.25</ele><time>2026-05-02T10:21:13.967Z</time></trkpt><trkpt lat="43.2459109" lon="-3.9471843"><ele>139.0</ele><time>2026-05-02T10:21:14.964Z</time></trkpt><trkpt lat="43.2457712" lon="-3.9472552"><ele>139.0</ele><time>2026-05-02T10:21:15.961Z</time></trkpt><trkpt lat="43.2456301" lon="-3.9473137"><ele>139.0</ele><time>2026-05-02T10:21:16.963Z</time></trkpt><trkpt lat="43.245483" lon="-3.9473375"><ele>139.0</ele><time>2026-05-02T10:21:17.959Z</time></trkpt><trkpt lat="43.2453299" lon="-3.9473478"><ele>139.0</ele><time>2026-05-02T10:21:18.964Z</time></trkpt><trkpt lat="43.245182" lon="-3.9473339"><ele>138.25</ele><time>2026-05-02T10:21:19.958Z</time></trkpt><trkpt lat="43.2450326" lon="-3.9473014"><ele>137.5</ele><time>2026-05-02T10:21:20.961Z</time></trkpt><trkpt lat="43.2448865" lon="-3.9472554"><ele>136.75</ele><time>2026-05-02T10:21:21.966Z</time></trkpt><trkpt lat="43.2447533" lon="-3.9471916"><ele>136.0</ele><time>2026-05-02T10:21:22.967Z</time></trkpt><trkpt lat="43.2446154" lon="-3.9471276"><ele>138.5</ele><time>2026-05-02T10:21:23.965Z</time></trkpt><trkpt lat="43.2444783" lon="-3.9470645"><ele>141.0</ele><time>2026-05-02T10:21:24.971Z</time></trkpt><trkpt lat="43.2443445" lon="-3.9470022"><ele>143.5</ele><time>2026-05-02T10:21:25.966Z</time></trkpt><trkpt lat="43.2442025" lon="-3.946956"><ele>146.0</ele><time>2026-05-02T10:21:26.963Z</time></trkpt><trkpt lat="43.2440522" lon="-3.9469367"><ele>147.0</ele><time>2026-05-02T10:21:27.959Z</time></trkpt><trkpt lat="43.243906" lon="-3.9469297"><ele>148.0</ele><time>2026-05-02T10:21:28.963Z</time></trkpt><trkpt lat="43.2437595" lon="-3.9469452"><ele>149.0</ele><time>2026-05-02T10:21:29.963Z</time></trkpt><trkpt lat="43.2436181" lon="-3.9469786"><ele>150.0</ele><time>2026-05-02T10:21:30.964Z</time></trkpt><trkpt lat="43.2434729" lon="-3.9470178"><ele>150.0</ele><time>2026-05-02T10:21:31.977Z</time></trkpt><trkpt lat="43.2433281" lon="-3.9470594"><ele>150.0</ele><time>2026-05-02T10:21:32.965Z</time></trkpt><trkpt lat="43.2431898" lon="-3.9471111"><ele>150.0</ele><time>2026-05-02T10:21:33.965Z</time></trkpt><trkpt lat="43.2430448" lon="-3.9471517"><ele>150.0</ele><time>2026-05-02T10:21:34.965Z</time></trkpt><trkpt lat="43.2428998" lon="-3.9471972"><ele>148.0</ele><time>2026-05-02T10:21:35.962Z</time></trkpt><trkpt lat="43.2427478" lon="-3.9472543"><ele>146.0</ele><time>2026-05-02T10:21:36.963Z</time></trkpt><trkpt lat="43.2426067" lon="-3.9473101"><ele>144.0</ele><time>2026-05-02T10:21:37.964Z</time></trkpt><trkpt lat="43.2424661" lon="-3.9473677"><ele>144.0</ele><time>2026-05-02T10:21:38.962Z</time></trkpt><trkpt lat="43.2423245" lon="-3.947418"><ele>144.0</ele><time>2026-05-02T10:21:39.962Z</time></trkpt><trkpt lat="43.2421809" lon="-3.947475"><ele>144.0</ele><time>2026-05-02T10:21:40.961Z</time></trkpt><trkpt lat="43.2420342" lon="-3.9475484"><ele>152.66666666666666</ele><time>2026-05-02T10:21:41.96Z</time></trkpt><trkpt lat="43.2418814" lon="-3.9476054"><ele>161.33333333333331</ele><time>2026-05-02T10:21:42.962Z</time></trkpt><trkpt lat="43.2417348" lon="-3.9476708"><ele>170.0</ele><time>2026-05-02T10:21:43.964Z</time></trkpt><trkpt lat="43.2415849" lon="-3.947735"><ele>168.0</ele><time>2026-05-02T10:21:44.958Z</time></trkpt><trkpt lat="43.2414387" lon="-3.9478067"><ele>166.0</ele><time>2026-05-02T10:21:45.959Z</time></trkpt><trkpt lat="43.2412924" lon="-3.9478742"><ele>164.0</ele><time>2026-05-02T10:21:46.959Z</time></trkpt><trkpt lat="43.2411467" lon="-3.9479467"><ele>164.0</ele><time>2026-05-02T10:21:47.946Z</time></trkpt><trkpt lat="43.240997" lon="-3.9480052"><ele>164.0</ele><time>2026-05-02T10:21:48.949Z</time></trkpt><trkpt lat="43.2408485" lon="-3.9480774"><ele>164.0</ele><time>2026-05-02T10:21:49.947Z</time></trkpt><trkpt lat="43.2407069" lon="-3.9481238"><ele>163.5</ele><time>2026-05-02T10:21:50.948Z</time></trkpt><trkpt lat="43.2405671" lon="-3.9481457"><ele>163.0</ele><time>2026-05-02T10:21:51.941Z</time></trkpt><trkpt lat="43.2404135" lon="-3.9481766"><ele>162.5</ele><time>2026-05-02T10:21:52.95Z</time></trkpt><trkpt lat="43.2402612" lon="-3.9481887"><ele>162.0</ele><time>2026-05-02T10:21:53.945Z</time></trkpt><trkpt lat="43.2401124" lon="-3.9481966"><ele>162.0</ele><time>2026-05-02T10:21:54.945Z</time></trkpt><trkpt lat="43.2399578" lon="-3.9481993"><ele>162.0</ele><time>2026-05-02T10:21:55.95Z</time></trkpt><trkpt lat="43.2398038" lon="-3.9482025"><ele>162.0</ele><time>2026-05-02T10:21:56.94Z</time></trkpt><trkpt lat="43.2396527" lon="-3.9482038"><ele>161.0</ele><time>2026-05-02T10:21:57.943Z</time></trkpt><trkpt lat="43.2395038" lon="-3.9482152"><ele>160.0</ele><time>2026-05-02T10:21:58.941Z</time></trkpt><trkpt lat="43.2393527" lon="-3.948239"><ele>159.0</ele><time>2026-05-02T10:21:59.943Z</time></trkpt><trkpt lat="43.2392096" lon="-3.9482727"><ele>158.0</ele><time>2026-05-02T10:22:00.943Z</time></trkpt><trkpt lat="43.2390581" lon="-3.9483199"><ele>161.66666666666666</ele><time>2026-05-02T10:22:01.942Z</time></trkpt><trkpt lat="43.2389139" lon="-3.9483978"><ele>165.33333333333334</ele><time>2026-05-02T10:22:02.952Z</time></trkpt><trkpt lat="43.2387682" lon="-3.9484731"><ele>169.0</ele><time>2026-05-02T10:22:03.942Z</time></trkpt><trkpt lat="43.2386302" lon="-3.9485631"><ele>169.0</ele><time>2026-05-02T10:22:04.947Z</time></trkpt><trkpt lat="43.2384853" lon="-3.9486405"><ele>169.0</ele><time>2026-05-02T10:22:05.948Z</time></trkpt><trkpt lat="43.2383375" lon="-3.9486965"><ele>169.0</ele><time>2026-05-02T10:22:06.941Z</time></trkpt><trkpt lat="43.2381828" lon="-3.9487427"><ele>163.0</ele><time>2026-05-02T10:22:07.944Z</time></trkpt><trkpt lat="43.2380276" lon="-3.9487634"><ele>157.0</ele><time>2026-05-02T10:22:08.943Z</time></trkpt><trkpt lat="43.2378728" lon="-3.9487549"><ele>151.0</ele><time>2026-05-02T10:22:09.944Z</time></trkpt><trkpt lat="43.2377216" lon="-3.948745"><ele>151.0</ele><time>2026-05-02T10:22:10.946Z</time></trkpt><trkpt lat="43.2375681" lon="-3.9486972"><ele>151.0</ele><time>2026-05-02T10:22:11.951Z</time></trkpt><trkpt lat="43.2374188" lon="-3.9486481"><ele>151.0</ele><time>2026-05-02T10:22:12.957Z</time></trkpt><trkpt lat="43.2372725" lon="-3.948585"><ele>147.5</ele><time>2026-05-02T10:22:13.966Z</time></trkpt><trkpt lat="43.237135" lon="-3.9485198"><ele>144.0</ele><time>2026-05-02T10:22:14.963Z</time></trkpt><trkpt lat="43.2369942" lon="-3.9484632"><ele>140.5</ele><time>2026-05-02T10:22:15.967Z</time></trkpt><trkpt lat="43.2368552" lon="-3.9483881"><ele>137.0</ele><time>2026-05-02T10:22:16.969Z</time></trkpt><trkpt lat="43.2367136" lon="-3.9483317"><ele>134.75</ele><time>2026-05-02T10:22:17.964Z</time></trkpt><trkpt lat="43.2365625" lon="-3.9482805"><ele>132.5</ele><time>2026-05-02T10:22:18.967Z</time></trkpt><trkpt lat="43.236418" lon="-3.9482329"><ele>130.25</ele><time>2026-05-02T10:22:19.965Z</time></trkpt><trkpt lat="43.2362836" lon="-3.9481764"><ele>128.0</ele><time>2026-05-02T10:22:20.963Z</time></trkpt><trkpt lat="43.2361471" lon="-3.9481023"><ele>128.0</ele><time>2026-05-02T10:22:21.959Z</time></trkpt><trkpt lat="43.2360191" lon="-3.9480066"><ele>128.0</ele><time>2026-05-02T10:22:22.963Z</time></trkpt><trkpt lat="43.2357707" lon="-3.9477883"><ele>128.0</ele><time>2026-05-02T10:22:24.964Z</time></trkpt><trkpt lat="43.2356541" lon="-3.9476637"><ele>135.33333333333331</ele><time>2026-05-02T10:22:25.963Z</time></trkpt><trkpt lat="43.2355441" lon="-3.9475179"><ele>142.66666666666666</ele><time>2026-05-02T10:22:26.962Z</time></trkpt><trkpt lat="43.2354384" lon="-3.9473717"><ele>150.0</ele><time>2026-05-02T10:22:27.961Z</time></trkpt><trkpt lat="43.2353265" lon="-3.9472115"><ele>150.0</ele><time>2026-05-02T10:22:28.96Z</time></trkpt><trkpt lat="43.2352188" lon="-3.9470569"><ele>150.0</ele><time>2026-05-02T10:22:29.96Z</time></trkpt><trkpt lat="43.2351095" lon="-3.9468903"><ele>150.0</ele><time>2026-05-02T10:22:30.966Z</time></trkpt><trkpt lat="43.235004" lon="-3.9467167"><ele>146.33333333333334</ele><time>2026-05-02T10:22:31.963Z</time></trkpt><trkpt lat="43.2349004" lon="-3.9465636"><ele>142.66666666666669</ele><time>2026-05-02T10:22:32.966Z</time></trkpt><trkpt lat="43.2347895" lon="-3.9464153"><ele>139.0</ele><time>2026-05-02T10:22:33.966Z</time></trkpt><trkpt lat="43.2346646" lon="-3.9462753"><ele>139.0</ele><time>2026-05-02T10:22:34.955Z</time></trkpt><trkpt lat="43.2345398" lon="-3.9461418"><ele>139.0</ele><time>2026-05-02T10:22:35.959Z</time></trkpt><trkpt lat="43.234406" lon="-3.9460141"><ele>139.0</ele><time>2026-05-02T10:22:36.959Z</time></trkpt><trkpt lat="43.2342696" lon="-3.9459154"><ele>134.66666666666669</ele><time>2026-05-02T10:22:37.963Z</time></trkpt><trkpt lat="43.2341262" lon="-3.9458317"><ele>130.33333333333334</ele><time>2026-05-02T10:22:38.963Z</time></trkpt><trkpt lat="43.2339784" lon="-3.945779"><ele>126.0</ele><time>2026-05-02T10:22:39.963Z</time></trkpt><trkpt lat="43.2338241" lon="-3.9457369"><ele>126.0</ele><time>2026-05-02T10:22:40.963Z</time></trkpt><trkpt lat="43.2336675" lon="-3.9457185"><ele>126.0</ele><time>2026-05-02T10:22:41.963Z</time></trkpt><trkpt lat="43.2335169" lon="-3.9456973"><ele>126.0</ele><time>2026-05-02T10:22:42.965Z</time></trkpt><trkpt lat="43.2333651" lon="-3.9456994"><ele>126.0</ele><time>2026-05-02T10:22:43.962Z</time></trkpt><trkpt lat="43.2332127" lon="-3.9457156"><ele>126.0</ele><time>2026-05-02T10:22:44.968Z</time></trkpt><trkpt lat="43.2330613" lon="-3.9457228"><ele>126.0</ele><time>2026-05-02T10:22:45.967Z</time></trkpt><trkpt lat="43.2328985" lon="-3.945727"><ele>127.66666666666666</ele><time>2026-05-02T10:22:46.984Z</time></trkpt><trkpt lat="43.2327402" lon="-3.9457399"><ele>129.33333333333331</ele><time>2026-05-02T10:22:47.969Z</time></trkpt><trkpt lat="43.2325766" lon="-3.9457578"><ele>131.0</ele><time>2026-05-02T10:22:48.973Z</time></trkpt><trkpt lat="43.232414" lon="-3.9457699"><ele>130.66666666666666</ele><time>2026-05-02T10:22:49.974Z</time></trkpt><trkpt lat="43.2322544" lon="-3.9457858"><ele>130.33333333333334</ele><time>2026-05-02T10:22:50.973Z</time></trkpt><trkpt lat="43.2320878" lon="-3.9458026"><ele>130.0</ele><time>2026-05-02T10:22:51.974Z</time></trkpt><trkpt lat="43.231933" lon="-3.9458132"><ele>130.0</ele><time>2026-05-02T10:22:52.974Z</time></trkpt><trkpt lat="43.2317752" lon="-3.9458263"><ele>130.0</ele><time>2026-05-02T10:22:53.973Z</time></trkpt><trkpt lat="43.2316187" lon="-3.9458411"><ele>130.0</ele><time>2026-05-02T10:22:54.967Z</time></trkpt><trkpt lat="43.231458" lon="-3.9458543"><ele>130.0</ele><time>2026-05-02T10:22:55.963Z</time></trkpt><trkpt lat="43.2313008" lon="-3.945856"><ele>130.0</ele><time>2026-05-02T10:22:56.963Z</time></trkpt><trkpt lat="43.2311465" lon="-3.9458677"><ele>130.0</ele><time>2026-05-02T10:22:57.959Z</time></trkpt><trkpt lat="43.2309971" lon="-3.9458886"><ele>135.66666666666669</ele><time>2026-05-02T10:22:58.965Z</time></trkpt><trkpt lat="43.2308515" lon="-3.945908"><ele>141.33333333333334</ele><time>2026-05-02T10:22:59.962Z</time></trkpt><trkpt lat="43.2306912" lon="-3.9459288"><ele>147.0</ele><time>2026-05-02T10:23:00.963Z</time></trkpt><trkpt lat="43.2305289" lon="-3.9459829"><ele>147.0</ele><time>2026-05-02T10:23:01.962Z</time></trkpt><trkpt lat="43.2303672" lon="-3.9460344"><ele>147.0</ele><time>2026-05-02T10:23:02.964Z</time></trkpt><trkpt lat="43.2302071" lon="-3.9460901"><ele>147.0</ele><time>2026-05-02T10:23:03.961Z</time></trkpt><trkpt lat="43.2300495" lon="-3.9461351"><ele>147.0</ele><time>2026-05-02T10:23:04.974Z</time></trkpt><trkpt lat="43.2298933" lon="-3.9461906"><ele>147.0</ele><time>2026-05-02T10:23:05.963Z</time></trkpt><trkpt lat="43.2297337" lon="-3.946233"><ele>147.0</ele><time>2026-05-02T10:23:06.963Z</time></trkpt><trkpt lat="43.2295829" lon="-3.9462835"><ele>145.0</ele><time>2026-05-02T10:23:07.966Z</time></trkpt><trkpt lat="43.2294229" lon="-3.9463481"><ele>143.0</ele><time>2026-05-02T10:23:08.963Z</time></trkpt><trkpt lat="43.2292732" lon="-3.9463986"><ele>141.0</ele><time>2026-05-02T10:23:09.964Z</time></trkpt><trkpt lat="43.2291119" lon="-3.9464526"><ele>139.66666666666666</ele><time>2026-05-02T10:23:10.963Z</time></trkpt><trkpt lat="43.228954" lon="-3.946497"><ele>138.33333333333331</ele><time>2026-05-02T10:23:11.964Z</time></trkpt><trkpt lat="43.2287973" lon="-3.9465513"><ele>137.0</ele><time>2026-05-02T10:23:12.956Z</time></trkpt><trkpt lat="43.2286336" lon="-3.9465914"><ele>137.0</ele><time>2026-05-02T10:23:13.961Z</time></trkpt><trkpt lat="43.2284776" lon="-3.9466177"><ele>137.0</ele><time>2026-05-02T10:23:14.96Z</time></trkpt><trkpt lat="43.2283167" lon="-3.9466329"><ele>137.0</ele><time>2026-05-02T10:23:15.962Z</time></trkpt><trkpt lat="43.2281643" lon="-3.9466419"><ele>136.66666666666666</ele><time>2026-05-02T10:23:16.967Z</time></trkpt><trkpt lat="43.2280011" lon="-3.9466593"><ele>136.33333333333334</ele><time>2026-05-02T10:23:17.955Z</time></trkpt><trkpt lat="43.2278413" lon="-3.9466583"><ele>136.0</ele><time>2026-05-02T10:23:18.959Z</time></trkpt><trkpt lat="43.2276829" lon="-3.946649"><ele>136.0</ele><time>2026-05-02T10:23:19.959Z</time></trkpt><trkpt lat="43.2275151" lon="-3.9466346"><ele>136.0</ele><time>2026-05-02T10:23:20.958Z</time></trkpt><trkpt lat="43.2273518" lon="-3.9466182"><ele>136.0</ele><time>2026-05-02T10:23:21.958Z</time></trkpt><trkpt lat="43.2271902" lon="-3.9465919"><ele>138.0</ele><time>2026-05-02T10:23:22.959Z</time></trkpt><trkpt lat="43.2270244" lon="-3.9465674"><ele>140.0</ele><time>2026-05-02T10:23:23.957Z</time></trkpt><trkpt lat="43.2268617" lon="-3.9465205"><ele>142.0</ele><time>2026-05-02T10:23:24.956Z</time></trkpt><trkpt lat="43.2267011" lon="-3.9464617"><ele>142.0</ele><time>2026-05-02T10:23:25.958Z</time></trkpt><trkpt lat="43.2265448" lon="-3.9463959"><ele>142.0</ele><time>2026-05-02T10:23:26.954Z</time></trkpt><trkpt lat="43.2263882" lon="-3.9463365"><ele>142.0</ele><time>2026-05-02T10:23:27.96Z</time></trkpt><trkpt lat="43.2262362" lon="-3.9462649"><ele>145.0</ele><time>2026-05-02T10:23:28.961Z</time></trkpt><trkpt lat="43.2260849" lon="-3.9462027"><ele>148.0</ele><time>2026-05-02T10:23:29.962Z</time></trkpt><trkpt lat="43.2259263" lon="-3.9461297"><ele>151.0</ele><time>2026-05-02T10:23:30.96Z</time></trkpt><trkpt lat="43.2257691" lon="-3.9460593"><ele>152.66666666666669</ele><time>2026-05-02T10:23:31.956Z</time></trkpt><trkpt lat="43.2256228" lon="-3.9459694"><ele>154.33333333333334</ele><time>2026-05-02T10:23:32.955Z</time></trkpt><trkpt lat="43.2254723" lon="-3.9458886"><ele>156.0</ele><time>2026-05-02T10:23:33.955Z</time></trkpt><trkpt lat="43.2253184" lon="-3.9458156"><ele>150.0</ele><time>2026-05-02T10:23:34.96Z</time></trkpt><trkpt lat="43.225161" lon="-3.9457393"><ele>144.0</ele><time>2026-05-02T10:23:35.98Z</time></trkpt><trkpt lat="43.2250018" lon="-3.9456555"><ele>138.0</ele><time>2026-05-02T10:23:36.961Z</time></trkpt><trkpt lat="43.224847" lon="-3.9455826"><ele>141.0</ele><time>2026-05-02T10:23:37.963Z</time></trkpt><trkpt lat="43.2246931" lon="-3.9455164"><ele>144.0</ele><time>2026-05-02T10:23:38.965Z</time></trkpt><trkpt lat="43.2245467" lon="-3.9454457"><ele>147.0</ele><time>2026-05-02T10:23:39.964Z</time></trkpt><trkpt lat="43.2244032" lon="-3.9453774"><ele>147.0</ele><time>2026-05-02T10:23:40.965Z</time></trkpt><trkpt lat="43.2242538" lon="-3.9453015"><ele>147.0</ele><time>2026-05-02T10:23:41.963Z</time></trkpt><trkpt lat="43.2241067" lon="-3.9452239"><ele>147.0</ele><time>2026-05-02T10:23:42.964Z</time></trkpt><trkpt lat="43.2239569" lon="-3.9451661"><ele>149.33333333333334</ele><time>2026-05-02T10:23:43.966Z</time></trkpt><trkpt lat="43.2238125" lon="-3.9450896"><ele>151.66666666666669</ele><time>2026-05-02T10:23:44.964Z</time></trkpt><trkpt lat="43.2236702" lon="-3.9450283"><ele>154.0</ele><time>2026-05-02T10:23:45.965Z</time></trkpt><trkpt lat="43.2235212" lon="-3.9449694"><ele>149.33333333333334</ele><time>2026-05-02T10:23:46.968Z</time></trkpt><trkpt lat="43.223362" lon="-3.9449161"><ele>144.66666666666666</ele><time>2026-05-02T10:23:47.963Z</time></trkpt><trkpt lat="43.2232114" lon="-3.944885"><ele>140.0</ele><time>2026-05-02T10:23:48.962Z</time></trkpt><trkpt lat="43.2230543" lon="-3.9448745"><ele>140.0</ele><time>2026-05-02T10:23:49.958Z</time></trkpt><trkpt lat="43.2228958" lon="-3.944878"><ele>140.0</ele><time>2026-05-02T10:23:50.965Z</time></trkpt><trkpt lat="43.2227394" lon="-3.9448934"><ele>140.0</ele><time>2026-05-02T10:23:51.971Z</time></trkpt><trkpt lat="43.2225807" lon="-3.9449071"><ele>140.0</ele><time>2026-05-02T10:23:52.976Z</time></trkpt><trkpt lat="43.2224174" lon="-3.944931"><ele>140.0</ele><time>2026-05-02T10:23:53.974Z</time></trkpt><trkpt lat="43.2222643" lon="-3.9449514"><ele>140.0</ele><time>2026-05-02T10:23:54.975Z</time></trkpt><trkpt lat="43.2221053" lon="-3.9449769"><ele>140.66666666666666</ele><time>2026-05-02T10:23:55.975Z</time></trkpt><trkpt lat="43.2219503" lon="-3.9449866"><ele>141.33333333333334</ele><time>2026-05-02T10:23:56.971Z</time></trkpt><trkpt lat="43.2217994" lon="-3.9449978"><ele>142.0</ele><time>2026-05-02T10:23:57.973Z</time></trkpt><trkpt lat="43.2216461" lon="-3.945"><ele>142.0</ele><time>2026-05-02T10:23:58.974Z</time></trkpt><trkpt lat="43.2214943" lon="-3.9449904"><ele>142.0</ele><time>2026-05-02T10:23:59.972Z</time></trkpt><trkpt lat="43.2213478" lon="-3.9449721"><ele>142.0</ele><time>2026-05-02T10:24:00.974Z</time></trkpt><trkpt lat="43.2212076" lon="-3.9449204"><ele>142.0</ele><time>2026-05-02T10:24:01.972Z</time></trkpt><trkpt lat="43.2210744" lon="-3.9448632"><ele>142.5</ele><time>2026-05-02T10:24:02.973Z</time></trkpt><trkpt lat="43.2209554" lon="-3.9448036"><ele>143.0</ele><time>2026-05-02T10:24:03.972Z</time></trkpt><trkpt lat="43.2208351" lon="-3.9447436"><ele>143.5</ele><time>2026-05-02T10:24:04.975Z</time></trkpt><trkpt lat="43.2207241" lon="-3.9446703"><ele>144.0</ele><time>2026-05-02T10:24:05.986Z</time></trkpt><trkpt lat="43.2206206" lon="-3.9446061"><ele>144.4</ele><time>2026-05-02T10:24:06.975Z</time></trkpt><trkpt lat="43.2205108" lon="-3.9445379"><ele>144.8</ele><time>2026-05-02T10:24:07.976Z</time></trkpt><trkpt lat="43.2204043" lon="-3.9444761"><ele>145.2</ele><time>2026-05-02T10:24:08.975Z</time></trkpt><trkpt lat="43.220305" lon="-3.9444166"><ele>145.6</ele><time>2026-05-02T10:24:09.979Z</time></trkpt><trkpt lat="43.2202118" lon="-3.9443592"><ele>146.0</ele><time>2026-05-02T10:24:10.975Z</time></trkpt><trkpt lat="43.2201295" lon="-3.9443025"><ele>146.0</ele><time>2026-05-02T10:24:11.977Z</time></trkpt><trkpt lat="43.2200499" lon="-3.9442482"><ele>146.0</ele><time>2026-05-02T10:24:12.975Z</time></trkpt><trkpt lat="43.2199721" lon="-3.9441966"><ele>146.0</ele><time>2026-05-02T10:24:13.978Z</time></trkpt><trkpt lat="43.2198946" lon="-3.9441437"><ele>146.0</ele><time>2026-05-02T10:24:14.969Z</time></trkpt><trkpt lat="43.219817" lon="-3.9441068"><ele>146.0</ele><time>2026-05-02T10:24:15.975Z</time></trkpt><trkpt lat="43.2197469" lon="-3.9440824"><ele>146.0</ele><time>2026-05-02T10:24:16.974Z</time></trkpt><trkpt lat="43.219681" lon="-3.9440672"><ele>145.71428571428572</ele><time>2026-05-02T10:24:17.974Z</time></trkpt><trkpt lat="43.2196165" lon="-3.9440551"><ele>145.42857142857144</ele><time>2026-05-02T10:24:18.977Z</time></trkpt><trkpt lat="43.2195176" lon="-3.9440333"><ele>145.14285714285717</ele><time>2026-05-02T10:24:20.965Z</time></trkpt><trkpt lat="43.219497" lon="-3.9441164"><ele>144.85714285714286</ele><time>2026-05-02T10:24:25.97Z</time></trkpt><trkpt lat="43.2194743" lon="-3.944206"><ele>144.57142857142858</ele><time>2026-05-02T10:39:56.94Z</time></trkpt><trkpt lat="43.2195029" lon="-3.9442842"><ele>144.2857142857143</ele><time>2026-05-02T10:39:59.938Z</time></trkpt><trkpt lat="43.2195628" lon="-3.9442483"><ele>144.0</ele><time>2026-05-02T10:42:56.954Z</time></trkpt><trkpt lat="43.2196223" lon="-3.944278"><ele>144.00000000000003</ele><time>2026-05-02T10:44:23.968Z</time></trkpt><trkpt lat="43.2196506" lon="-3.9441809"><ele>144.0</ele><time>2026-05-02T10:45:01.963Z</time></trkpt><trkpt lat="43.2195663" lon="-3.9441805"><ele>144.0</ele><time>2026-05-02T10:53:02.946Z</time></trkpt><trkpt lat="43.2196199" lon="-3.944232"><ele>144.0</ele><time>2026-05-02T10:53:06.953Z</time></trkpt><trkpt lat="43.2196668" lon="-3.9441691"><ele>144.0</ele><time>2026-05-02T10:53:08.953Z</time></trkpt><trkpt lat="43.2196538" lon="-3.9440822"><ele>144.00000000000003</ele><time>2026-05-02T10:53:10.965Z</time></trkpt><trkpt lat="43.2195936" lon="-3.9439957"><ele>144.0</ele><time>2026-05-02T10:53:13.961Z</time></trkpt><trkpt lat="43.2195189" lon="-3.9439347"><ele>144.0</ele><time>2026-05-02T10:53:15.97Z</time></trkpt><trkpt lat="43.2194382" lon="-3.9438591"><ele>144.0</ele><time>2026-05-02T10:53:17.958Z</time></trkpt><trkpt lat="43.2193716" lon="-3.9438066"><ele>144.0</ele><time>2026-05-02T10:53:21.975Z</time></trkpt><trkpt lat="43.2193314" lon="-3.9437201"><ele>144.0</ele><time>2026-05-02T10:53:33.951Z</time></trkpt><trkpt lat="43.2194077" lon="-3.9437292"><ele>144.0</ele><time>2026-05-02T10:53:59.96Z</time></trkpt><trkpt lat="43.2194351" lon="-3.9438108"><ele>144.0</ele><time>2026-05-02T10:54:48.971Z</time></trkpt><trkpt lat="43.2195001" lon="-3.943787"><ele>144.00000000000003</ele><time>2026-05-02T10:54:49.96Z</time></trkpt><trkpt lat="43.2194527" lon="-3.9438487"><ele>144.0</ele><time>2026-05-02T10:55:14.942Z</time></trkpt><trkpt lat="43.2193808" lon="-3.9438876"><ele>144.0</ele><time>2026-05-02T10:55:26.958Z</time></trkpt><trkpt lat="43.2194361" lon="-3.9438405"><ele>144.0</ele><time>2026-05-02T10:55:51.955Z</time></trkpt><trkpt lat="43.2195063" lon="-3.9438263"><ele>144.0</ele><time>2026-05-02T10:55:58.964Z</time></trkpt><trkpt lat="43.2194591" lon="-3.9438913"><ele>144.00000000000003</ele><time>2026-05-02T10:57:04.977Z</time></trkpt><trkpt lat="43.2194786" lon="-3.9439939"><ele>144.0</ele><time>2026-05-02T10:57:14.967Z</time></trkpt><trkpt lat="43.2194034" lon="-3.9440001"><ele>144.0</ele><time>2026-05-02T10:57:30.969Z</time></trkpt><trkpt lat="43.2194286" lon="-3.9439185"><ele>144.0</ele><time>2026-05-02T10:58:19.956Z</time></trkpt><trkpt lat="43.2193876" lon="-3.9439908"><ele>144.0</ele><time>2026-05-02T10:58:56.959Z</time></trkpt><trkpt lat="43.2194556" lon="-3.9439617"><ele>144.0</ele><time>2026-05-02T10:59:21.963Z</time></trkpt><trkpt lat="43.2194236" lon="-3.9440677"><ele>144.0</ele><time>2026-05-02T10:59:34.953Z</time></trkpt><trkpt lat="43.2193637" lon="-3.943968"><ele>144.0</ele><time>2026-05-02T10:59:37.964Z</time></trkpt><trkpt lat="43.2192982" lon="-3.9438084"><ele>144.0</ele><time>2026-05-02T10:59:39.963Z</time></trkpt><trkpt lat="43.2192163" lon="-3.9437643"><ele>144.0</ele><time>2026-05-02T10:59:49.972Z</time></trkpt><trkpt lat="43.2191102" lon="-3.9436691"><ele>144.0</ele><time>2026-05-02T10:59:51.971Z</time></trkpt><trkpt lat="43.2190308" lon="-3.9436151"><ele>144.0</ele><time>2026-05-02T10:59:52.969Z</time></trkpt><trkpt lat="43.2189064" lon="-3.9435403"><ele>144.0</ele><time>2026-05-02T10:59:54.965Z</time></trkpt><trkpt lat="43.2188404" lon="-3.9434799"><ele>144.33333333333334</ele><time>2026-05-02T10:59:55.959Z</time></trkpt><trkpt lat="43.2187787" lon="-3.9434344"><ele>144.66666666666666</ele><time>2026-05-02T10:59:56.964Z</time></trkpt><trkpt lat="43.2187074" lon="-3.943366"><ele>145.0</ele><time>2026-05-02T10:59:57.961Z</time></trkpt><trkpt lat="43.2186401" lon="-3.9432965"><ele>145.33333333333331</ele><time>2026-05-02T10:59:58.964Z</time></trkpt><trkpt lat="43.2185644" lon="-3.9432622"><ele>145.66666666666666</ele><time>2026-05-02T10:59:59.949Z</time></trkpt><trkpt lat="43.2184953" lon="-3.9432016"><ele>146.0</ele><time>2026-05-02T11:00:00.95Z</time></trkpt><trkpt lat="43.2184149" lon="-3.9431586"><ele>146.0</ele><time>2026-05-02T11:00:01.954Z</time></trkpt><trkpt lat="43.2183485" lon="-3.9431132"><ele>146.0</ele><time>2026-05-02T11:00:02.955Z</time></trkpt><trkpt lat="43.2182708" lon="-3.9430465"><ele>146.0</ele><time>2026-05-02T11:00:03.962Z</time></trkpt><trkpt lat="43.2181857" lon="-3.94299"><ele>146.0</ele><time>2026-05-02T11:00:04.959Z</time></trkpt><trkpt lat="43.2181072" lon="-3.9429249"><ele>146.0</ele><time>2026-05-02T11:00:05.962Z</time></trkpt><trkpt lat="43.2180313" lon="-3.9428627"><ele>146.0</ele><time>2026-05-02T11:00:06.961Z</time></trkpt><trkpt lat="43.2179531" lon="-3.9427895"><ele>145.75</ele><time>2026-05-02T11:00:07.968Z</time></trkpt><trkpt lat="43.2178508" lon="-3.9427027"><ele>145.5</ele><time>2026-05-02T11:00:08.967Z</time></trkpt><trkpt lat="43.2177382" lon="-3.9425891"><ele>145.25</ele><time>2026-05-02T11:00:09.975Z</time></trkpt><trkpt lat="43.2176378" lon="-3.9425371"><ele>145.0</ele><time>2026-05-02T11:00:10.966Z</time></trkpt><trkpt lat="43.2175068" lon="-3.9425193"><ele>145.0</ele><time>2026-05-02T11:00:12.965Z</time></trkpt><trkpt lat="43.217444" lon="-3.9424961"><ele>145.0</ele><time>2026-05-02T11:00:13.957Z</time></trkpt><trkpt lat="43.2173628" lon="-3.9424241"><ele>145.0</ele><time>2026-05-02T11:00:14.971Z</time></trkpt><trkpt lat="43.2172473" lon="-3.9423039"><ele>145.0</ele><time>2026-05-02T11:00:15.979Z</time></trkpt><trkpt lat="43.2171551" lon="-3.942245"><ele>145.0</ele><time>2026-05-02T11:00:16.979Z</time></trkpt><trkpt lat="43.2170742" lon="-3.9421337"><ele>146.6</ele><time>2026-05-02T11:00:17.957Z</time></trkpt><trkpt lat="43.2170184" lon="-3.9420574"><ele>148.2</ele><time>2026-05-02T11:00:18.976Z</time></trkpt><trkpt lat="43.2169179" lon="-3.94202"><ele>149.8</ele><time>2026-05-02T11:00:19.973Z</time></trkpt><trkpt lat="43.21683" lon="-3.9419405"><ele>151.4</ele><time>2026-05-02T11:00:20.969Z</time></trkpt><trkpt lat="43.21676" lon="-3.9418749"><ele>153.0</ele><time>2026-05-02T11:00:21.97Z</time></trkpt><trkpt lat="43.2166773" lon="-3.9418164"><ele>153.0</ele><time>2026-05-02T11:00:22.973Z</time></trkpt><trkpt lat="43.2165844" lon="-3.941787"><ele>153.0</ele><time>2026-05-02T11:00:23.978Z</time></trkpt><trkpt lat="43.2164819" lon="-3.9417719"><ele>153.0</ele><time>2026-05-02T11:00:24.975Z</time></trkpt><trkpt lat="43.2163817" lon="-3.9417576"><ele>153.0</ele><time>2026-05-02T11:00:25.977Z</time></trkpt><trkpt lat="43.2162874" lon="-3.9417271"><ele>153.0</ele><time>2026-05-02T11:00:26.968Z</time></trkpt><trkpt lat="43.2162072" lon="-3.9416715"><ele>153.20000000000002</ele><time>2026-05-02T11:00:27.97Z</time></trkpt><trkpt lat="43.2161109" lon="-3.9416438"><ele>153.4</ele><time>2026-05-02T11:00:28.971Z</time></trkpt><trkpt lat="43.2160344" lon="-3.9416031"><ele>153.60000000000002</ele><time>2026-05-02T11:00:29.972Z</time></trkpt><trkpt lat="43.2159515" lon="-3.9415398"><ele>153.8</ele><time>2026-05-02T11:00:30.964Z</time></trkpt><trkpt lat="43.2158812" lon="-3.9414843"><ele>154.0</ele><time>2026-05-02T11:00:31.967Z</time></trkpt><trkpt lat="43.2158089" lon="-3.9413923"><ele>154.0</ele><time>2026-05-02T11:00:32.974Z</time></trkpt><trkpt lat="43.2157152" lon="-3.9412856"><ele>154.0</ele><time>2026-05-02T11:00:33.971Z</time></trkpt><trkpt lat="43.2155993" lon="-3.9411965"><ele>154.0</ele><time>2026-05-02T11:00:34.958Z</time></trkpt><trkpt lat="43.215476" lon="-3.9411443"><ele>154.0</ele><time>2026-05-02T11:00:35.965Z</time></trkpt><trkpt lat="43.2153602" lon="-3.9410802"><ele>154.2</ele><time>2026-05-02T11:00:36.977Z</time></trkpt><trkpt lat="43.2152439" lon="-3.9410073"><ele>154.4</ele><time>2026-05-02T11:00:37.976Z</time></trkpt><trkpt lat="43.215168" lon="-3.9409408"><ele>154.6</ele><time>2026-05-02T11:00:38.958Z</time></trkpt><trkpt lat="43.2150654" lon="-3.9408851"><ele>154.8</ele><time>2026-05-02T11:00:39.965Z</time></trkpt><trkpt lat="43.2149513" lon="-3.9408301"><ele>155.0</ele><time>2026-05-02T11:00:40.996Z</time></trkpt><trkpt lat="43.2148519" lon="-3.9407827"><ele>155.75</ele><time>2026-05-02T11:00:41.978Z</time></trkpt><trkpt lat="43.2147286" lon="-3.9407315"><ele>156.5</ele><time>2026-05-02T11:00:42.975Z</time></trkpt><trkpt lat="43.2146081" lon="-3.9406788"><ele>157.25</ele><time>2026-05-02T11:00:43.962Z</time></trkpt><trkpt lat="43.2145039" lon="-3.9406223"><ele>158.0</ele><time>2026-05-02T11:00:44.971Z</time></trkpt><trkpt lat="43.2143958" lon="-3.9405608"><ele>158.0</ele><time>2026-05-02T11:00:45.963Z</time></trkpt><trkpt lat="43.2142966" lon="-3.9405055"><ele>158.0</ele><time>2026-05-02T11:00:46.965Z</time></trkpt><trkpt lat="43.2141917" lon="-3.9404392"><ele>158.0</ele><time>2026-05-02T11:00:47.965Z</time></trkpt><trkpt lat="43.2140748" lon="-3.9403694"><ele>158.0</ele><time>2026-05-02T11:00:48.962Z</time></trkpt><trkpt lat="43.2139579" lon="-3.9402931"><ele>158.25</ele><time>2026-05-02T11:00:49.96Z</time></trkpt><trkpt lat="43.2138527" lon="-3.9402142"><ele>158.5</ele><time>2026-05-02T11:00:50.973Z</time></trkpt><trkpt lat="43.2137368" lon="-3.9401261"><ele>158.75</ele><time>2026-05-02T11:00:51.969Z</time></trkpt><trkpt lat="43.213623" lon="-3.9400484"><ele>159.0</ele><time>2026-05-02T11:00:52.98Z</time></trkpt><trkpt lat="43.2135033" lon="-3.9399657"><ele>159.0</ele><time>2026-05-02T11:00:53.956Z</time></trkpt><trkpt lat="43.2133797" lon="-3.9398915"><ele>159.0</ele><time>2026-05-02T11:00:54.954Z</time></trkpt><trkpt lat="43.2132668" lon="-3.9398418"><ele>159.0</ele><time>2026-05-02T11:00:55.968Z</time></trkpt><trkpt lat="43.213159" lon="-3.9397654"><ele>159.0</ele><time>2026-05-02T11:00:56.978Z</time></trkpt><trkpt lat="43.2130434" lon="-3.9397107"><ele>159.6</ele><time>2026-05-02T11:00:57.968Z</time></trkpt><trkpt lat="43.2129573" lon="-3.9396852"><ele>160.2</ele><time>2026-05-02T11:00:58.97Z</time></trkpt><trkpt lat="43.2128861" lon="-3.9396239"><ele>160.79999999999998</ele><time>2026-05-02T11:00:59.977Z</time></trkpt><trkpt lat="43.2128139" lon="-3.9395694"><ele>161.4</ele><time>2026-05-02T11:01:00.97Z</time></trkpt><trkpt lat="43.2127234" lon="-3.9395247"><ele>162.0</ele><time>2026-05-02T11:01:01.97Z</time></trkpt><trkpt lat="43.2126262" lon="-3.9394778"><ele>162.0</ele><time>2026-05-02T11:01:02.964Z</time></trkpt><trkpt lat="43.2125325" lon="-3.9395164"><ele>162.0</ele><time>2026-05-02T11:01:03.96Z</time></trkpt><trkpt lat="43.2124599" lon="-3.9395328"><ele>162.0</ele><time>2026-05-02T11:01:04.955Z</time></trkpt><trkpt lat="43.2123776" lon="-3.9395237"><ele>162.0</ele><time>2026-05-02T11:01:05.966Z</time></trkpt><trkpt lat="43.2124707" lon="-3.9395593"><ele>162.0</ele><time>2026-05-02T11:01:08.965Z</time></trkpt><trkpt lat="43.2125924" lon="-3.9394935"><ele>162.0</ele><time>2026-05-02T11:01:09.96Z</time></trkpt><trkpt lat="43.2126497" lon="-3.9394083"><ele>162.0</ele><time>2026-05-02T11:01:11.961Z</time></trkpt><trkpt lat="43.2125924" lon="-3.9393347"><ele>162.0</ele><time>2026-05-02T11:01:12.96Z</time></trkpt><trkpt lat="43.2124813" lon="-3.939264"><ele>162.0</ele><time>2026-05-02T11:01:13.962Z</time></trkpt><trkpt lat="43.2123802" lon="-3.9391653"><ele>162.0</ele><time>2026-05-02T11:01:14.964Z</time></trkpt><trkpt lat="43.2122426" lon="-3.939104"><ele>163.0</ele><time>2026-05-02T11:01:15.955Z</time></trkpt><trkpt lat="43.2121078" lon="-3.9390294"><ele>164.0</ele><time>2026-05-02T11:01:16.956Z</time></trkpt><trkpt lat="43.2119624" lon="-3.9389616"><ele>165.0</ele><time>2026-05-02T11:01:17.955Z</time></trkpt><trkpt lat="43.2118578" lon="-3.9389176"><ele>166.0</ele><time>2026-05-02T11:01:18.967Z</time></trkpt><trkpt lat="43.2117679" lon="-3.9388607"><ele>166.0</ele><time>2026-05-02T11:01:19.957Z</time></trkpt><trkpt lat="43.21171" lon="-3.9388126"><ele>166.0</ele><time>2026-05-02T11:01:20.961Z</time></trkpt><trkpt lat="43.211612" lon="-3.938784"><ele>166.0</ele><time>2026-05-02T11:01:21.964Z</time></trkpt><trkpt lat="43.2115496" lon="-3.9387232"><ele>166.0</ele><time>2026-05-02T11:01:22.966Z</time></trkpt><trkpt lat="43.2114458" lon="-3.9386476"><ele>166.0</ele><time>2026-05-02T11:01:23.962Z</time></trkpt><trkpt lat="43.2113833" lon="-3.9385449"><ele>166.25</ele><time>2026-05-02T11:01:24.967Z</time></trkpt><trkpt lat="43.2112991" lon="-3.9383974"><ele>166.5</ele><time>2026-05-02T11:01:26.971Z</time></trkpt><trkpt lat="43.2111975" lon="-3.9383386"><ele>166.75</ele><time>2026-05-02T11:01:27.971Z</time></trkpt><trkpt lat="43.2111009" lon="-3.938284"><ele>167.0</ele><time>2026-05-02T11:01:28.962Z</time></trkpt><trkpt lat="43.2109864" lon="-3.9382244"><ele>167.25</ele><time>2026-05-02T11:01:29.965Z</time></trkpt><trkpt lat="43.2108657" lon="-3.9381773"><ele>167.5</ele><time>2026-05-02T11:01:30.967Z</time></trkpt><trkpt lat="43.2107872" lon="-3.9381246"><ele>167.75</ele><time>2026-05-02T11:01:31.971Z</time></trkpt><trkpt lat="43.2106865" lon="-3.9380737"><ele>168.0</ele><time>2026-05-02T11:01:32.958Z</time></trkpt><trkpt lat="43.2105559" lon="-3.938062"><ele>168.0</ele><time>2026-05-02T11:01:33.952Z</time></trkpt><trkpt lat="43.2104459" lon="-3.9379961"><ele>168.0</ele><time>2026-05-02T11:01:34.947Z</time></trkpt><trkpt lat="43.2103299" lon="-3.9378926"><ele>168.0</ele><time>2026-05-02T11:01:35.936Z</time></trkpt><trkpt lat="43.2102003" lon="-3.9378075"><ele>168.0</ele><time>2026-05-02T11:01:36.94Z</time></trkpt><trkpt lat="43.2100735" lon="-3.9377261"><ele>168.0</ele><time>2026-05-02T11:01:37.944Z</time></trkpt><trkpt lat="43.2099412" lon="-3.9376313"><ele>168.0</ele><time>2026-05-02T11:01:38.951Z</time></trkpt><trkpt lat="43.2098145" lon="-3.9375468"><ele>168.0</ele><time>2026-05-02T11:01:39.956Z</time></trkpt><trkpt lat="43.2096828" lon="-3.93746"><ele>168.0</ele><time>2026-05-02T11:01:40.96Z</time></trkpt><trkpt lat="43.209562" lon="-3.9373695"><ele>166.66666666666666</ele><time>2026-05-02T11:01:41.977Z</time></trkpt><trkpt lat="43.2094258" lon="-3.9372586"><ele>165.33333333333331</ele><time>2026-05-02T11:01:42.958Z</time></trkpt><trkpt lat="43.209281" lon="-3.9371463"><ele>164.0</ele><time>2026-05-02T11:01:43.968Z</time></trkpt><trkpt lat="43.2091407" lon="-3.9370604"><ele>164.0</ele><time>2026-05-02T11:01:44.963Z</time></trkpt><trkpt lat="43.2090095" lon="-3.9369895"><ele>164.0</ele><time>2026-05-02T11:01:45.956Z</time></trkpt><trkpt lat="43.2088845" lon="-3.9369247"><ele>164.0</ele><time>2026-05-02T11:01:46.955Z</time></trkpt><trkpt lat="43.2087691" lon="-3.9368479"><ele>164.0</ele><time>2026-05-02T11:01:47.952Z</time></trkpt><trkpt lat="43.20867" lon="-3.9367601"><ele>163.5</ele><time>2026-05-02T11:01:48.953Z</time></trkpt><trkpt lat="43.2085759" lon="-3.9366746"><ele>163.0</ele><time>2026-05-02T11:01:49.951Z</time></trkpt><trkpt lat="43.2084806" lon="-3.9365742"><ele>162.5</ele><time>2026-05-02T11:01:50.952Z</time></trkpt><trkpt lat="43.2083816" lon="-3.9364538"><ele>162.0</ele><time>2026-05-02T11:01:51.962Z</time></trkpt><trkpt lat="43.2082899" lon="-3.9363294"><ele>162.0</ele><time>2026-05-02T11:01:52.963Z</time></trkpt><trkpt lat="43.2082004" lon="-3.9361952"><ele>162.0</ele><time>2026-05-02T11:01:53.956Z</time></trkpt><trkpt lat="43.20811" lon="-3.9360549"><ele>162.0</ele><time>2026-05-02T11:01:54.957Z</time></trkpt><trkpt lat="43.2080239" lon="-3.9359195"><ele>162.0</ele><time>2026-05-02T11:01:55.955Z</time></trkpt><trkpt lat="43.207943" lon="-3.9357792"><ele>167.0</ele><time>2026-05-02T11:01:56.959Z</time></trkpt><trkpt lat="43.2078587" lon="-3.9356352"><ele>172.0</ele><time>2026-05-02T11:01:57.958Z</time></trkpt><trkpt lat="43.2077777" lon="-3.9354845"><ele>177.0</ele><time>2026-05-02T11:01:58.96Z</time></trkpt><trkpt lat="43.2076985" lon="-3.9353313"><ele>182.0</ele><time>2026-05-02T11:01:59.96Z</time></trkpt><trkpt lat="43.2076143" lon="-3.9351788"><ele>183.5</ele><time>2026-05-02T11:02:00.962Z</time></trkpt><trkpt lat="43.2075261" lon="-3.9350309"><ele>185.0</ele><time>2026-05-02T11:02:01.954Z</time></trkpt><trkpt lat="43.2074411" lon="-3.9348742"><ele>186.5</ele><time>2026-05-02T11:02:02.945Z</time></trkpt><trkpt lat="43.2073453" lon="-3.9347181"><ele>188.0</ele><time>2026-05-02T11:02:03.959Z</time></trkpt><trkpt lat="43.207237" lon="-3.9345648"><ele>188.0</ele><time>2026-05-02T11:02:04.96Z</time></trkpt><trkpt lat="43.2071269" lon="-3.9344386"><ele>188.0</ele><time>2026-05-02T11:02:05.96Z</time></trkpt><trkpt lat="43.207016" lon="-3.934333"><ele>188.0</ele><time>2026-05-02T11:02:06.962Z</time></trkpt><trkpt lat="43.2069" lon="-3.9342645"><ele>188.0</ele><time>2026-05-02T11:02:07.962Z</time></trkpt><trkpt lat="43.2067987" lon="-3.9341865"><ele>186.66666666666666</ele><time>2026-05-02T11:02:08.951Z</time></trkpt><trkpt lat="43.2066152" lon="-3.9341079"><ele>185.33333333333334</ele><time>2026-05-02T11:02:09.954Z</time></trkpt><trkpt lat="43.2064483" lon="-3.934014"><ele>184.0</ele><time>2026-05-02T11:02:10.956Z</time></trkpt><trkpt lat="43.2063307" lon="-3.9338198"><ele>184.0</ele><time>2026-05-02T11:02:11.968Z</time></trkpt><trkpt lat="43.2062573" lon="-3.9336888"><ele>184.0</ele><time>2026-05-02T11:02:12.975Z</time></trkpt><trkpt lat="43.2061646" lon="-3.933553"><ele>184.0</ele><time>2026-05-02T11:02:13.958Z</time></trkpt><trkpt lat="43.2060449" lon="-3.9334392"><ele>184.0</ele><time>2026-05-02T11:02:14.962Z</time></trkpt><trkpt lat="43.2058976" lon="-3.9333166"><ele>183.66666666666669</ele><time>2026-05-02T11:02:15.967Z</time></trkpt><trkpt lat="43.2057383" lon="-3.9332061"><ele>183.33333333333334</ele><time>2026-05-02T11:02:16.964Z</time></trkpt><trkpt lat="43.2056266" lon="-3.9331148"><ele>183.0</ele><time>2026-05-02T11:02:17.943Z</time></trkpt><trkpt lat="43.2054743" lon="-3.9330061"><ele>183.0</ele><time>2026-05-02T11:02:18.949Z</time></trkpt><trkpt lat="43.2053572" lon="-3.9328915"><ele>183.0</ele><time>2026-05-02T11:02:19.959Z</time></trkpt><trkpt lat="43.2052504" lon="-3.9327382"><ele>183.0</ele><time>2026-05-02T11:02:20.969Z</time></trkpt><trkpt lat="43.205139" lon="-3.9326138"><ele>183.0</ele><time>2026-05-02T11:02:21.967Z</time></trkpt><trkpt lat="43.2050248" lon="-3.9324555"><ele>184.0</ele><time>2026-05-02T11:02:22.963Z</time></trkpt><trkpt lat="43.2048982" lon="-3.9323308"><ele>185.0</ele><time>2026-05-02T11:02:23.958Z</time></trkpt><trkpt lat="43.2047984" lon="-3.932242"><ele>186.0</ele><time>2026-05-02T11:02:24.952Z</time></trkpt><trkpt lat="43.2047175" lon="-3.9321778"><ele>187.0</ele><time>2026-05-02T11:02:25.96Z</time></trkpt><trkpt lat="43.2045743" lon="-3.9320301"><ele>187.0</ele><time>2026-05-02T11:02:26.954Z</time></trkpt><trkpt lat="43.2044433" lon="-3.9318633"><ele>187.0</ele><time>2026-05-02T11:02:27.954Z</time></trkpt><trkpt lat="43.2043149" lon="-3.9316921"><ele>187.0</ele><time>2026-05-02T11:02:28.954Z</time></trkpt><trkpt lat="43.2042103" lon="-3.9314857"><ele>189.25</ele><time>2026-05-02T11:02:29.955Z</time></trkpt><trkpt lat="43.2041438" lon="-3.9312803"><ele>191.5</ele><time>2026-05-02T11:02:30.937Z</time></trkpt><trkpt lat="43.2040494" lon="-3.9311003"><ele>193.75</ele><time>2026-05-02T11:02:31.944Z</time></trkpt><trkpt lat="43.2039575" lon="-3.9310102"><ele>196.0</ele><time>2026-05-02T11:02:32.948Z</time></trkpt><trkpt lat="43.2038068" lon="-3.9309454"><ele>187.66666666666666</ele><time>2026-05-02T11:02:33.95Z</time></trkpt><trkpt lat="43.2036493" lon="-3.9308364"><ele>179.33333333333331</ele><time>2026-05-02T11:02:34.962Z</time></trkpt><trkpt lat="43.203475" lon="-3.9306964"><ele>171.0</ele><time>2026-05-02T11:02:35.954Z</time></trkpt><trkpt lat="43.2033082" lon="-3.9305723"><ele>171.0</ele><time>2026-05-02T11:02:36.951Z</time></trkpt><trkpt lat="43.2031889" lon="-3.930476"><ele>171.0</ele><time>2026-05-02T11:02:37.955Z</time></trkpt><trkpt lat="43.2031009" lon="-3.9304181"><ele>171.0</ele><time>2026-05-02T11:02:38.955Z</time></trkpt><trkpt lat="43.2029918" lon="-3.9303675"><ele>171.0</ele><time>2026-05-02T11:02:39.961Z</time></trkpt><trkpt lat="43.2028882" lon="-3.9302804"><ele>170.33333333333334</ele><time>2026-05-02T11:02:40.947Z</time></trkpt><trkpt lat="43.2027415" lon="-3.930182"><ele>169.66666666666669</ele><time>2026-05-02T11:02:41.935Z</time></trkpt><trkpt lat="43.202592" lon="-3.9300511"><ele>169.0</ele><time>2026-05-02T11:02:42.936Z</time></trkpt><trkpt lat="43.2024456" lon="-3.9299326"><ele>173.25</ele><time>2026-05-02T11:02:43.949Z</time></trkpt><trkpt lat="43.2023026" lon="-3.9298103"><ele>177.5</ele><time>2026-05-02T11:02:44.941Z</time></trkpt><trkpt lat="43.2021821" lon="-3.929705"><ele>181.75</ele><time>2026-05-02T11:02:45.947Z</time></trkpt><trkpt lat="43.2020742" lon="-3.9295906"><ele>186.0</ele><time>2026-05-02T11:02:46.946Z</time></trkpt><trkpt lat="43.2019707" lon="-3.9294815"><ele>186.0</ele><time>2026-05-02T11:02:47.942Z</time></trkpt><trkpt lat="43.2018687" lon="-3.9293917"><ele>186.0</ele><time>2026-05-02T11:02:48.95Z</time></trkpt><trkpt lat="43.2017663" lon="-3.9292972"><ele>186.0</ele><time>2026-05-02T11:02:49.946Z</time></trkpt><trkpt lat="43.2016467" lon="-3.9292266"><ele>186.0</ele><time>2026-05-02T11:02:50.948Z</time></trkpt><trkpt lat="43.2015085" lon="-3.9291722"><ele>185.75</ele><time>2026-05-02T11:02:51.956Z</time></trkpt><trkpt lat="43.2013848" lon="-3.9291131"><ele>185.5</ele><time>2026-05-02T11:02:52.958Z</time></trkpt><trkpt lat="43.2012621" lon="-3.9290553"><ele>185.25</ele><time>2026-05-02T11:02:53.947Z</time></trkpt><trkpt lat="43.2010941" lon="-3.9290209"><ele>185.0</ele><time>2026-05-02T11:02:54.943Z</time></trkpt><trkpt lat="43.2009421" lon="-3.9289069"><ele>185.0</ele><time>2026-05-02T11:02:55.95Z</time></trkpt><trkpt lat="43.200759" lon="-3.9288285"><ele>185.0</ele><time>2026-05-02T11:02:56.94Z</time></trkpt><trkpt lat="43.2006034" lon="-3.9287694"><ele>185.0</ele><time>2026-05-02T11:02:57.93Z</time></trkpt><trkpt lat="43.2004677" lon="-3.9287151"><ele>184.75</ele><time>2026-05-02T11:02:58.948Z</time></trkpt><trkpt lat="43.2003848" lon="-3.9286307"><ele>184.5</ele><time>2026-05-02T11:02:59.94Z</time></trkpt><trkpt lat="43.2003012" lon="-3.9284988"><ele>184.25</ele><time>2026-05-02T11:03:00.927Z</time></trkpt><trkpt lat="43.2001964" lon="-3.9284517"><ele>184.0</ele><time>2026-05-02T11:03:01.93Z</time></trkpt><trkpt lat="43.2000707" lon="-3.9283798"><ele>184.0</ele><time>2026-05-02T11:03:02.937Z</time></trkpt><trkpt lat="43.1999469" lon="-3.9282336"><ele>184.0</ele><time>2026-05-02T11:03:03.935Z</time></trkpt><trkpt lat="43.1998419" lon="-3.9281002"><ele>184.0</ele><time>2026-05-02T11:03:04.934Z</time></trkpt><trkpt lat="43.1997929" lon="-3.9279796"><ele>184.0</ele><time>2026-05-02T11:03:05.949Z</time></trkpt><trkpt lat="43.1997811" lon="-3.9277589"><ele>188.33333333333334</ele><time>2026-05-02T11:03:06.934Z</time></trkpt><trkpt lat="43.1997256" lon="-3.9275915"><ele>192.66666666666669</ele><time>2026-05-02T11:03:07.946Z</time></trkpt><trkpt lat="43.1996582" lon="-3.9274118"><ele>197.0</ele><time>2026-05-02T11:03:08.946Z</time></trkpt><trkpt lat="43.1995016" lon="-3.9271239"><ele>197.0</ele><time>2026-05-02T11:03:10.942Z</time></trkpt><trkpt lat="43.1994251" lon="-3.9269674"><ele>197.0</ele><time>2026-05-02T11:03:11.945Z</time></trkpt><trkpt lat="43.1993526" lon="-3.9267947"><ele>197.0</ele><time>2026-05-02T11:03:12.942Z</time></trkpt><trkpt lat="43.1992865" lon="-3.9266038"><ele>197.0</ele><time>2026-05-02T11:03:13.944Z</time></trkpt><trkpt lat="43.1992134" lon="-3.9264217"><ele>189.66666666666669</ele><time>2026-05-02T11:03:14.955Z</time></trkpt><trkpt lat="43.1991317" lon="-3.9262513"><ele>182.33333333333334</ele><time>2026-05-02T11:03:15.949Z</time></trkpt><trkpt lat="43.1990587" lon="-3.9260193"><ele>175.0</ele><time>2026-05-02T11:03:16.96Z</time></trkpt><trkpt lat="43.1990019" lon="-3.9258432"><ele>177.5</ele><time>2026-05-02T11:03:17.952Z</time></trkpt><trkpt lat="43.1989204" lon="-3.9257233"><ele>180.0</ele><time>2026-05-02T11:03:18.939Z</time></trkpt><trkpt lat="43.1988482" lon="-3.9256478"><ele>182.5</ele><time>2026-05-02T11:03:19.952Z</time></trkpt><trkpt lat="43.1987639" lon="-3.9255213"><ele>185.0</ele><time>2026-05-02T11:03:20.955Z</time></trkpt><trkpt lat="43.1986522" lon="-3.9254425"><ele>185.0</ele><time>2026-05-02T11:03:21.959Z</time></trkpt><trkpt lat="43.1985456" lon="-3.9253318"><ele>185.0</ele><time>2026-05-02T11:03:22.961Z</time></trkpt><trkpt lat="43.1984824" lon="-3.9251761"><ele>185.0</ele><time>2026-05-02T11:03:23.961Z</time></trkpt><trkpt lat="43.1984102" lon="-3.925067"><ele>185.0</ele><time>2026-05-02T11:03:24.947Z</time></trkpt><trkpt lat="43.1983418" lon="-3.9249864"><ele>185.83333333333331</ele><time>2026-05-02T11:03:25.957Z</time></trkpt><trkpt lat="43.1983207" lon="-3.9249016"><ele>186.66666666666666</ele><time>2026-05-02T11:03:26.951Z</time></trkpt><trkpt lat="43.1982627" lon="-3.9248383"><ele>187.5</ele><time>2026-05-02T11:03:27.943Z</time></trkpt><trkpt lat="43.1982132" lon="-3.9247594"><ele>188.33333333333334</ele><time>2026-05-02T11:03:28.947Z</time></trkpt><trkpt lat="43.1981651" lon="-3.924677"><ele>189.16666666666669</ele><time>2026-05-02T11:03:29.96Z</time></trkpt><trkpt lat="43.198093" lon="-3.9245362"><ele>190.0</ele><time>2026-05-02T11:03:31.947Z</time></trkpt><trkpt lat="43.1980224" lon="-3.9244492"><ele>190.0</ele><time>2026-05-02T11:03:33.963Z</time></trkpt><trkpt lat="43.1979777" lon="-3.9243579"><ele>190.0</ele><time>2026-05-02T11:03:34.963Z</time></trkpt><trkpt lat="43.197932" lon="-3.9242357"><ele>190.0</ele><time>2026-05-02T11:03:36.966Z</time></trkpt><trkpt lat="43.1967461" lon="-3.9225259"><ele>181.0</ele><time>2026-05-02T11:04:02.966Z</time></trkpt><trkpt lat="43.1952753" lon="-3.9205704"><ele>193.0</ele><time>2026-05-02T11:04:24.956Z</time></trkpt><trkpt lat="43.1939279" lon="-3.9184826"><ele>187.0</ele><time>2026-05-02T11:04:43.947Z</time></trkpt><trkpt lat="43.1927196" lon="-3.9161264"><ele>196.0</ele><time>2026-05-02T11:05:01.943Z</time></trkpt><trkpt lat="43.191119" lon="-3.9142125"><ele>208.0</ele><time>2026-05-02T11:05:20.961Z</time></trkpt><trkpt lat="43.1885163" lon="-3.9128496"><ele>214.0</ele><time>2026-05-02T11:05:44.945Z</time></trkpt><trkpt lat="43.1857822" lon="-3.91235"><ele>228.0</ele><time>2026-05-02T11:06:04.936Z</time></trkpt><trkpt lat="43.1833449" lon="-3.9105162"><ele>281.0</ele><time>2026-05-02T11:06:27.944Z</time></trkpt><trkpt lat="43.1806488" lon="-3.9092751"><ele>240.0</ele><time>2026-05-02T11:06:45.935Z</time></trkpt><trkpt lat="43.1781351" lon="-3.9061374"><ele>210.0</ele><time>2026-05-02T11:07:06.942Z</time></trkpt><trkpt lat="43.1759453" lon="-3.9039327"><ele>225.0</ele><time>2026-05-02T11:07:23.949Z</time></trkpt><trkpt lat="43.1726562" lon="-3.9005757"><ele>244.0</ele><time>2026-05-02T11:07:51.932Z</time></trkpt><trkpt lat="43.1702281" lon="-3.8989042"><ele>230.0</ele><time>2026-05-02T11:08:12.926Z</time></trkpt><trkpt lat="43.1685475" lon="-3.8958101"><ele>237.0</ele><time>2026-05-02T11:08:31.948Z</time></trkpt><trkpt lat="43.1659152" lon="-3.8969932"><ele>256.0</ele><time>2026-05-02T11:08:51.957Z</time></trkpt><trkpt lat="43.1635991" lon="-3.8989064"><ele>253.0</ele><time>2026-05-02T11:09:11.931Z</time></trkpt><trkpt lat="43.1610804" lon="-3.8972443"><ele>253.0</ele><time>2026-05-02T11:09:32.936Z</time></trkpt></trkseg><trkseg><trkpt lat="43.1578501" lon="-3.8960842"><ele>286.0</ele><time>2026-05-02T11:10:09.936Z</time></trkpt><trkpt lat="43.157759" lon="-3.8961523"><ele>286.0</ele><time>2026-05-02T11:10:10.928Z</time></trkpt><trkpt lat="43.1576642" lon="-3.8962251"><ele>286.0</ele><time>2026-05-02T11:10:11.931Z</time></trkpt><trkpt lat="43.1575739" lon="-3.8963004"><ele>286.0</ele><time>2026-05-02T11:10:12.926Z</time></trkpt><trkpt lat="43.1574833" lon="-3.8963764"><ele>286.0</ele><time>2026-05-02T11:10:13.935Z</time></trkpt><trkpt lat="43.1573917" lon="-3.8964528"><ele>287.25</ele><time>2026-05-02T11:10:14.946Z</time></trkpt><trkpt lat="43.1573094" lon="-3.8965253"><ele>288.5</ele><time>2026-05-02T11:10:15.936Z</time></trkpt><trkpt lat="43.1572176" lon="-3.8965994"><ele>289.75</ele><time>2026-05-02T11:10:16.942Z</time></trkpt><trkpt lat="43.157119" lon="-3.8966837"><ele>291.0</ele><time>2026-05-02T11:10:17.939Z</time></trkpt><trkpt lat="43.1569893" lon="-3.8967683"><ele>291.0</ele><time>2026-05-02T11:10:18.938Z</time></trkpt><trkpt lat="43.156867" lon="-3.8968508"><ele>291.0</ele><time>2026-05-02T11:10:19.932Z</time></trkpt><trkpt lat="43.1567444" lon="-3.8969427"><ele>291.0</ele><time>2026-05-02T11:10:20.925Z</time></trkpt><trkpt lat="43.1566347" lon="-3.8970363"><ele>291.0</ele><time>2026-05-02T11:10:21.929Z</time></trkpt><trkpt lat="43.1565358" lon="-3.8971272"><ele>288.25</ele><time>2026-05-02T11:10:22.93Z</time></trkpt><trkpt lat="43.1564364" lon="-3.8972152"><ele>285.5</ele><time>2026-05-02T11:10:23.929Z</time></trkpt><trkpt lat="43.1563413" lon="-3.8972956"><ele>282.75</ele><time>2026-05-02T11:10:24.925Z</time></trkpt><trkpt lat="43.1562402" lon="-3.89737"><ele>280.0</ele><time>2026-05-02T11:10:25.936Z</time></trkpt><trkpt lat="43.1561403" lon="-3.8974425"><ele>280.0</ele><time>2026-05-02T11:10:26.925Z</time></trkpt><trkpt lat="43.1560292" lon="-3.897486"><ele>280.0</ele><time>2026-05-02T11:10:27.93Z</time></trkpt><trkpt lat="43.1559091" lon="-3.8975292"><ele>280.0</ele><time>2026-05-02T11:10:28.912Z</time></trkpt><trkpt lat="43.1557936" lon="-3.8975602"><ele>280.0</ele><time>2026-05-02T11:10:29.922Z</time></trkpt><trkpt lat="43.1556825" lon="-3.8975718"><ele>287.8</ele><time>2026-05-02T11:10:30.91Z</time></trkpt><trkpt lat="43.1555724" lon="-3.8975962"><ele>295.6</ele><time>2026-05-02T11:10:31.912Z</time></trkpt><trkpt lat="43.1554705" lon="-3.8976346"><ele>303.4</ele><time>2026-05-02T11:10:32.908Z</time></trkpt><trkpt lat="43.1553675" lon="-3.8976608"><ele>311.2</ele><time>2026-05-02T11:10:33.917Z</time></trkpt><trkpt lat="43.1552489" lon="-3.8976488"><ele>319.0</ele><time>2026-05-02T11:10:34.894Z</time></trkpt><trkpt lat="43.1551474" lon="-3.8976217"><ele>319.0</ele><time>2026-05-02T11:10:35.917Z</time></trkpt><trkpt lat="43.1550561" lon="-3.8975891"><ele>319.0</ele><time>2026-05-02T11:10:36.904Z</time></trkpt><trkpt lat="43.1549624" lon="-3.8975326"><ele>319.0</ele><time>2026-05-02T11:10:37.946Z</time></trkpt><trkpt lat="43.1548788" lon="-3.8974719"><ele>319.0</ele><time>2026-05-02T11:10:38.911Z</time></trkpt><trkpt lat="43.1547905" lon="-3.8974117"><ele>319.0</ele><time>2026-05-02T11:10:39.907Z</time></trkpt><trkpt lat="43.1547164" lon="-3.8973474"><ele>314.59999999999997</ele><time>2026-05-02T11:10:40.907Z</time></trkpt><trkpt lat="43.1546433" lon="-3.8972766"><ele>310.2</ele><time>2026-05-02T11:10:41.904Z</time></trkpt><trkpt lat="43.1545706" lon="-3.8972159"><ele>305.79999999999995</ele><time>2026-05-02T11:10:42.901Z</time></trkpt><trkpt lat="43.1544936" lon="-3.8971653"><ele>301.4</ele><time>2026-05-02T11:10:43.899Z</time></trkpt><trkpt lat="43.1544132" lon="-3.897117"><ele>297.0</ele><time>2026-05-02T11:10:44.907Z</time></trkpt><trkpt lat="43.1543152" lon="-3.8970689"><ele>297.0</ele><time>2026-05-02T11:10:45.903Z</time></trkpt><trkpt lat="43.1542128" lon="-3.897004"><ele>297.0</ele><time>2026-05-02T11:10:46.908Z</time></trkpt><trkpt lat="43.1541187" lon="-3.8969594"><ele>297.0</ele><time>2026-05-02T11:10:47.906Z</time></trkpt><trkpt lat="43.1540196" lon="-3.8969148"><ele>297.0</ele><time>2026-05-02T11:10:48.914Z</time></trkpt><trkpt lat="43.1539266" lon="-3.8968793"><ele>297.0</ele><time>2026-05-02T11:10:49.917Z</time></trkpt><trkpt lat="43.1538322" lon="-3.8968678"><ele>294.2</ele><time>2026-05-02T11:10:50.921Z</time></trkpt><trkpt lat="43.1537375" lon="-3.8968531"><ele>291.4</ele><time>2026-05-02T11:10:51.917Z</time></trkpt><trkpt lat="43.1536433" lon="-3.8968481"><ele>288.6</ele><time>2026-05-02T11:10:52.927Z</time></trkpt><trkpt lat="43.1535564" lon="-3.8968774"><ele>285.8</ele><time>2026-05-02T11:10:53.913Z</time></trkpt><trkpt lat="43.1534642" lon="-3.8969018"><ele>283.0</ele><time>2026-05-02T11:10:54.924Z</time></trkpt><trkpt lat="43.1533758" lon="-3.8969303"><ele>283.0</ele><time>2026-05-02T11:10:55.923Z</time></trkpt><trkpt lat="43.1532842" lon="-3.8969719"><ele>283.0</ele><time>2026-05-02T11:10:56.919Z</time></trkpt><trkpt lat="43.1531976" lon="-3.8970294"><ele>283.0</ele><time>2026-05-02T11:10:57.916Z</time></trkpt><trkpt lat="43.1531084" lon="-3.8970994"><ele>283.0</ele><time>2026-05-02T11:10:58.925Z</time></trkpt><trkpt lat="43.1530064" lon="-3.8971694"><ele>283.0</ele><time>2026-05-02T11:10:59.927Z</time></trkpt><trkpt lat="43.1529136" lon="-3.8972334"><ele>280.4</ele><time>2026-05-02T11:11:00.927Z</time></trkpt><trkpt lat="43.1528398" lon="-3.8973116"><ele>277.8</ele><time>2026-05-02T11:11:01.928Z</time></trkpt><trkpt lat="43.1527596" lon="-3.8973802"><ele>275.2</ele><time>2026-05-02T11:11:02.918Z</time></trkpt><trkpt lat="43.1526858" lon="-3.8974534"><ele>272.6</ele><time>2026-05-02T11:11:03.913Z</time></trkpt><trkpt lat="43.1526052" lon="-3.8975174"><ele>270.0</ele><time>2026-05-02T11:11:04.915Z</time></trkpt><trkpt lat="43.152521" lon="-3.8975681"><ele>273.2</ele><time>2026-05-02T11:11:05.917Z</time></trkpt><trkpt lat="43.1524257" lon="-3.8976035"><ele>276.4</ele><time>2026-05-02T11:11:06.912Z</time></trkpt><trkpt lat="43.152327" lon="-3.8976298"><ele>279.6</ele><time>2026-05-02T11:11:07.911Z</time></trkpt><trkpt lat="43.1522398" lon="-3.8976562"><ele>282.8</ele><time>2026-05-02T11:11:08.885Z</time></trkpt><trkpt lat="43.152156" lon="-3.8976654"><ele>286.0</ele><time>2026-05-02T11:11:09.726Z</time></trkpt><trkpt lat="43.1520737" lon="-3.8976675"><ele>286.0</ele><time>2026-05-02T11:11:10.619Z</time></trkpt><trkpt lat="43.1518809" lon="-3.8976547"><ele>286.0</ele><time>2026-05-02T11:11:12.414Z</time></trkpt><trkpt lat="43.1517936" lon="-3.8976465"><ele>286.0</ele><time>2026-05-02T11:11:13.324Z</time></trkpt><trkpt lat="43.1516349" lon="-3.897654"><ele>286.0</ele><time>2026-05-02T11:11:15.116Z</time></trkpt><trkpt lat="43.1515571" lon="-3.8976635"><ele>285.8333333333333</ele><time>2026-05-02T11:11:16.016Z</time></trkpt><trkpt lat="43.1514727" lon="-3.8976597"><ele>285.66666666666663</ele><time>2026-05-02T11:11:16.927Z</time></trkpt><trkpt lat="43.1513814" lon="-3.8976502"><ele>285.5</ele><time>2026-05-02T11:11:17.924Z</time></trkpt><trkpt lat="43.1512982" lon="-3.8976504"><ele>285.3333333333333</ele><time>2026-05-02T11:11:18.927Z</time></trkpt><trkpt lat="43.1512118" lon="-3.8976525"><ele>285.1666666666667</ele><time>2026-05-02T11:11:19.929Z</time></trkpt><trkpt lat="43.1511274" lon="-3.8976542"><ele>285.0</ele><time>2026-05-02T11:11:20.932Z</time></trkpt><trkpt lat="43.1510465" lon="-3.8976789"><ele>285.0</ele><time>2026-05-02T11:11:21.925Z</time></trkpt><trkpt lat="43.150955" lon="-3.8976935"><ele>285.0</ele><time>2026-05-02T11:11:22.935Z</time></trkpt><trkpt lat="43.1508733" lon="-3.8977263"><ele>285.0</ele><time>2026-05-02T11:11:23.932Z</time></trkpt><trkpt lat="43.1507863" lon="-3.8977695"><ele>285.0</ele><time>2026-05-02T11:11:24.935Z</time></trkpt><trkpt lat="43.1507066" lon="-3.8978045"><ele>285.0</ele><time>2026-05-02T11:11:25.931Z</time></trkpt><trkpt lat="43.1506216" lon="-3.8978292"><ele>285.0</ele><time>2026-05-02T11:11:26.931Z</time></trkpt><trkpt lat="43.1505346" lon="-3.8978648"><ele>285.2</ele><time>2026-05-02T11:11:27.926Z</time></trkpt><trkpt lat="43.1504442" lon="-3.8979048"><ele>285.4</ele><time>2026-05-02T11:11:28.927Z</time></trkpt><trkpt lat="43.1503511" lon="-3.8979459"><ele>285.6</ele><time>2026-05-02T11:11:29.925Z</time></trkpt><trkpt lat="43.1502654" lon="-3.8979888"><ele>285.8</ele><time>2026-05-02T11:11:30.923Z</time></trkpt><trkpt lat="43.1501788" lon="-3.8980332"><ele>286.0</ele><time>2026-05-02T11:11:31.925Z</time></trkpt><trkpt lat="43.1500807" lon="-3.8980775"><ele>286.0</ele><time>2026-05-02T11:11:32.923Z</time></trkpt><trkpt lat="43.149986" lon="-3.8981215"><ele>286.0</ele><time>2026-05-02T11:11:33.921Z</time></trkpt><trkpt lat="43.1498844" lon="-3.8981566"><ele>286.0</ele><time>2026-05-02T11:11:34.917Z</time></trkpt><trkpt lat="43.1497926" lon="-3.89819"><ele>286.0</ele><time>2026-05-02T11:11:35.92Z</time></trkpt><trkpt lat="43.1497045" lon="-3.8982283"><ele>286.0</ele><time>2026-05-02T11:11:36.915Z</time></trkpt><trkpt lat="43.1495998" lon="-3.8982513"><ele>284.6</ele><time>2026-05-02T11:11:37.918Z</time></trkpt><trkpt lat="43.1494971" lon="-3.898265"><ele>283.20000000000005</ele><time>2026-05-02T11:11:38.956Z</time></trkpt><trkpt lat="43.1493927" lon="-3.8982634"><ele>281.79999999999995</ele><time>2026-05-02T11:11:39.918Z</time></trkpt><trkpt lat="43.1492909" lon="-3.89827"><ele>280.4</ele><time>2026-05-02T11:11:40.922Z</time></trkpt><trkpt lat="43.1491913" lon="-3.8982926"><ele>279.0</ele><time>2026-05-02T11:11:41.922Z</time></trkpt><trkpt lat="43.1490893" lon="-3.8983154"><ele>277.0</ele><time>2026-05-02T11:11:42.927Z</time></trkpt><trkpt lat="43.1489998" lon="-3.8983331"><ele>275.0</ele><time>2026-05-02T11:11:43.92Z</time></trkpt><trkpt lat="43.1489112" lon="-3.8983609"><ele>273.0</ele><time>2026-05-02T11:11:44.933Z</time></trkpt><trkpt lat="43.1488271" lon="-3.8983862"><ele>271.0</ele><time>2026-05-02T11:11:45.919Z</time></trkpt><trkpt lat="43.1487466" lon="-3.8984064"><ele>269.0</ele><time>2026-05-02T11:11:46.931Z</time></trkpt><trkpt lat="43.1486557" lon="-3.898422"><ele>267.0</ele><time>2026-05-02T11:11:47.919Z</time></trkpt><trkpt lat="43.1485718" lon="-3.8984504"><ele>273.0</ele><time>2026-05-02T11:11:48.923Z</time></trkpt><trkpt lat="43.1484981" lon="-3.8984811"><ele>279.0</ele><time>2026-05-02T11:11:49.924Z</time></trkpt><trkpt lat="43.148423" lon="-3.8984904"><ele>285.0</ele><time>2026-05-02T11:11:50.923Z</time></trkpt><trkpt lat="43.1483588" lon="-3.8984874"><ele>291.0</ele><time>2026-05-02T11:11:51.926Z</time></trkpt><trkpt lat="43.148268" lon="-3.8984534"><ele>297.0</ele><time>2026-05-02T11:11:54.923Z</time></trkpt><trkpt lat="43.1483314" lon="-3.8985017"><ele>303.0</ele><time>2026-05-02T11:12:38.937Z</time></trkpt><trkpt lat="43.1484136" lon="-3.8984785"><ele>303.0</ele><time>2026-05-02T11:12:40.947Z</time></trkpt><trkpt lat="43.148473" lon="-3.8984468"><ele>303.0</ele><time>2026-05-02T11:12:41.924Z</time></trkpt><trkpt lat="43.1485479" lon="-3.8984124"><ele>303.0</ele><time>2026-05-02T11:12:42.92Z</time></trkpt><trkpt lat="43.1486242" lon="-3.8983758"><ele>303.0</ele><time>2026-05-02T11:12:43.926Z</time></trkpt><trkpt lat="43.1487117" lon="-3.8983385"><ele>303.0</ele><time>2026-05-02T11:12:44.928Z</time></trkpt><trkpt lat="43.1488112" lon="-3.8983231"><ele>303.0</ele><time>2026-05-02T11:12:45.921Z</time></trkpt><trkpt lat="43.1489034" lon="-3.8982913"><ele>298.2</ele><time>2026-05-02T11:12:46.922Z</time></trkpt><trkpt lat="43.1490062" lon="-3.8982683"><ele>293.4</ele><time>2026-05-02T11:12:47.923Z</time></trkpt><trkpt lat="43.1491025" lon="-3.8982348"><ele>288.59999999999997</ele><time>2026-05-02T11:12:48.928Z</time></trkpt><trkpt lat="43.1491959" lon="-3.8982132"><ele>283.8</ele><time>2026-05-02T11:12:49.917Z</time></trkpt><trkpt lat="43.1493047" lon="-3.8981883"><ele>279.0</ele><time>2026-05-02T11:12:50.928Z</time></trkpt><trkpt lat="43.1495145" lon="-3.8981419"><ele>279.0</ele><time>2026-05-02T11:12:52.923Z</time></trkpt><trkpt lat="43.1496142" lon="-3.8981192"><ele>279.0</ele><time>2026-05-02T11:12:53.924Z</time></trkpt><trkpt lat="43.1497133" lon="-3.8980899"><ele>279.0</ele><time>2026-05-02T11:12:54.921Z</time></trkpt><trkpt lat="43.1498096" lon="-3.8980637"><ele>279.0</ele><time>2026-05-02T11:12:55.924Z</time></trkpt><trkpt lat="43.1499054" lon="-3.8980306"><ele>279.0</ele><time>2026-05-02T11:12:56.922Z</time></trkpt><trkpt lat="43.1499948" lon="-3.8979935"><ele>280.4</ele><time>2026-05-02T11:12:57.925Z</time></trkpt><trkpt lat="43.1500811" lon="-3.897962"><ele>281.79999999999995</ele><time>2026-05-02T11:12:58.924Z</time></trkpt><trkpt lat="43.1501716" lon="-3.8979242"><ele>283.20000000000005</ele><time>2026-05-02T11:12:59.924Z</time></trkpt><trkpt lat="43.1502601" lon="-3.8978857"><ele>284.6</ele><time>2026-05-02T11:13:00.924Z</time></trkpt><trkpt lat="43.1503541" lon="-3.8978496"><ele>286.0</ele><time>2026-05-02T11:13:01.925Z</time></trkpt><trkpt lat="43.1504515" lon="-3.8978224"><ele>286.0</ele><time>2026-05-02T11:13:02.923Z</time></trkpt><trkpt lat="43.1505508" lon="-3.8977966"><ele>286.0</ele><time>2026-05-02T11:13:03.93Z</time></trkpt><trkpt lat="43.1506474" lon="-3.8977553"><ele>286.0</ele><time>2026-05-02T11:13:04.927Z</time></trkpt><trkpt lat="43.150726" lon="-3.897722"><ele>286.0</ele><time>2026-05-02T11:13:05.926Z</time></trkpt><trkpt lat="43.1508077" lon="-3.8976888"><ele>286.0</ele><time>2026-05-02T11:13:06.923Z</time></trkpt><trkpt lat="43.1508894" lon="-3.8976582"><ele>285.8333333333333</ele><time>2026-05-02T11:13:07.92Z</time></trkpt><trkpt lat="43.1509686" lon="-3.8976368"><ele>285.66666666666663</ele><time>2026-05-02T11:13:08.947Z</time></trkpt><trkpt lat="43.1510423" lon="-3.8976162"><ele>285.5</ele><time>2026-05-02T11:13:09.931Z</time></trkpt><trkpt lat="43.1511176" lon="-3.8975933"><ele>285.3333333333333</ele><time>2026-05-02T11:13:10.93Z</time></trkpt><trkpt lat="43.1512041" lon="-3.8975833"><ele>285.1666666666667</ele><time>2026-05-02T11:13:11.941Z</time></trkpt><trkpt lat="43.1512932" lon="-3.897569"><ele>285.0</ele><time>2026-05-02T11:13:12.93Z</time></trkpt><trkpt lat="43.1513839" lon="-3.8975614"><ele>281.1666666666667</ele><time>2026-05-02T11:13:13.926Z</time></trkpt><trkpt lat="43.1514717" lon="-3.8975631"><ele>277.3333333333333</ele><time>2026-05-02T11:13:14.923Z</time></trkpt><trkpt lat="43.1515536" lon="-3.8975641"><ele>273.5</ele><time>2026-05-02T11:13:15.928Z</time></trkpt><trkpt lat="43.1516355" lon="-3.8975594"><ele>269.66666666666663</ele><time>2026-05-02T11:13:16.929Z</time></trkpt><trkpt lat="43.1517169" lon="-3.8975668"><ele>265.8333333333333</ele><time>2026-05-02T11:13:17.93Z</time></trkpt><trkpt lat="43.1517833" lon="-3.8975696"><ele>262.0</ele><time>2026-05-02T11:13:18.921Z</time></trkpt><trkpt lat="43.1518492" lon="-3.8975754"><ele>265.8333333333333</ele><time>2026-05-02T11:13:20.932Z</time></trkpt><trkpt lat="43.1518206" lon="-3.8976537"><ele>269.66666666666663</ele><time>2026-05-02T11:13:27.926Z</time></trkpt><trkpt lat="43.1517389" lon="-3.8976637"><ele>273.5</ele><time>2026-05-02T11:13:29.93Z</time></trkpt><trkpt lat="43.151673" lon="-3.897646"><ele>277.3333333333333</ele><time>2026-05-02T11:13:30.929Z</time></trkpt><trkpt lat="43.1515931" lon="-3.8976372"><ele>281.1666666666667</ele><time>2026-05-02T11:13:31.94Z</time></trkpt><trkpt lat="43.1514962" lon="-3.8976258"><ele>285.0</ele><time>2026-05-02T11:13:32.932Z</time></trkpt><trkpt lat="43.1513921" lon="-3.8976232"><ele>285.0</ele><time>2026-05-02T11:13:33.93Z</time></trkpt><trkpt lat="43.1512846" lon="-3.8976341"><ele>285.0</ele><time>2026-05-02T11:13:34.932Z</time></trkpt><trkpt lat="43.151179" lon="-3.8976508"><ele>285.0</ele><time>2026-05-02T11:13:35.932Z</time></trkpt><trkpt lat="43.1510744" lon="-3.8976737"><ele>285.0</ele><time>2026-05-02T11:13:36.935Z</time></trkpt><trkpt lat="43.1509672" lon="-3.8977"><ele>285.0</ele><time>2026-05-02T11:13:37.932Z</time></trkpt><trkpt lat="43.1508594" lon="-3.8977337"><ele>285.0</ele><time>2026-05-02T11:13:38.952Z</time></trkpt><trkpt lat="43.150748" lon="-3.8977767"><ele>285.0</ele><time>2026-05-02T11:13:39.931Z</time></trkpt><trkpt lat="43.1506349" lon="-3.8978207"><ele>285.0</ele><time>2026-05-02T11:13:40.934Z</time></trkpt><trkpt lat="43.1503878" lon="-3.8979265"><ele>285.25</ele><time>2026-05-02T11:13:42.948Z</time></trkpt><trkpt lat="43.150263" lon="-3.8979649"><ele>285.5</ele><time>2026-05-02T11:13:43.931Z</time></trkpt><trkpt lat="43.15013" lon="-3.8979982"><ele>285.75</ele><time>2026-05-02T11:13:44.929Z</time></trkpt><trkpt lat="43.1499914" lon="-3.89805"><ele>286.0</ele><time>2026-05-02T11:13:45.924Z</time></trkpt><trkpt lat="43.1498562" lon="-3.8981004"><ele>284.25</ele><time>2026-05-02T11:13:46.925Z</time></trkpt><trkpt lat="43.1497288" lon="-3.8981461"><ele>282.5</ele><time>2026-05-02T11:13:47.923Z</time></trkpt><trkpt lat="43.1495937" lon="-3.898183"><ele>280.75</ele><time>2026-05-02T11:13:48.916Z</time></trkpt><trkpt lat="43.1494673" lon="-3.8982221"><ele>279.0</ele><time>2026-05-02T11:13:49.922Z</time></trkpt><trkpt lat="43.1493297" lon="-3.8982658"><ele>279.0</ele><time>2026-05-02T11:13:50.924Z</time></trkpt><trkpt lat="43.1491998" lon="-3.8983059"><ele>279.0</ele><time>2026-05-02T11:13:51.923Z</time></trkpt><trkpt lat="43.1490617" lon="-3.8983441"><ele>279.0</ele><time>2026-05-02T11:13:52.927Z</time></trkpt><trkpt lat="43.1489203" lon="-3.8983762"><ele>279.0</ele><time>2026-05-02T11:13:53.927Z</time></trkpt><trkpt lat="43.1487891" lon="-3.8984044"><ele>285.0</ele><time>2026-05-02T11:13:54.926Z</time></trkpt><trkpt lat="43.1486628" lon="-3.898439"><ele>291.0</ele><time>2026-05-02T11:13:55.928Z</time></trkpt><trkpt lat="43.1485512" lon="-3.8984738"><ele>297.0</ele><time>2026-05-02T11:13:56.925Z</time></trkpt><trkpt lat="43.1484372" lon="-3.898535"><ele>303.0</ele><time>2026-05-02T11:13:57.923Z</time></trkpt><trkpt lat="43.1483203" lon="-3.8985669"><ele>303.0</ele><time>2026-05-02T11:13:58.925Z</time></trkpt><trkpt lat="43.1482147" lon="-3.8986245"><ele>303.0</ele><time>2026-05-02T11:13:59.923Z</time></trkpt><trkpt lat="43.1481009" lon="-3.8986609"><ele>303.0</ele><time>2026-05-02T11:14:00.914Z</time></trkpt><trkpt lat="43.147993" lon="-3.8987107"><ele>303.0</ele><time>2026-05-02T11:14:01.92Z</time></trkpt><trkpt lat="43.147883" lon="-3.898769"><ele>297.5</ele><time>2026-05-02T11:14:02.917Z</time></trkpt><trkpt lat="43.1477743" lon="-3.8988483"><ele>292.0</ele><time>2026-05-02T11:14:03.914Z</time></trkpt><trkpt lat="43.1476695" lon="-3.8989207"><ele>286.5</ele><time>2026-05-02T11:14:04.918Z</time></trkpt><trkpt lat="43.1475615" lon="-3.8990105"><ele>281.0</ele><time>2026-05-02T11:14:05.919Z</time></trkpt><trkpt lat="43.147435" lon="-3.8990971"><ele>280.0</ele><time>2026-05-02T11:14:06.916Z</time></trkpt><trkpt lat="43.1473078" lon="-3.8991971"><ele>279.0</ele><time>2026-05-02T11:14:07.914Z</time></trkpt><trkpt lat="43.1471711" lon="-3.8992994"><ele>278.0</ele><time>2026-05-02T11:14:08.95Z</time></trkpt><trkpt lat="43.1470363" lon="-3.8993989"><ele>278.0</ele><time>2026-05-02T11:14:09.923Z</time></trkpt><trkpt lat="43.1468906" lon="-3.8995145"><ele>278.0</ele><time>2026-05-02T11:14:10.924Z</time></trkpt><trkpt lat="43.1467458" lon="-3.8996145"><ele>278.0</ele><time>2026-05-02T11:14:11.925Z</time></trkpt><trkpt lat="43.1466054" lon="-3.8997123"><ele>277.0</ele><time>2026-05-02T11:14:12.928Z</time></trkpt><trkpt lat="43.1464757" lon="-3.8998009"><ele>276.0</ele><time>2026-05-02T11:14:13.946Z</time></trkpt><trkpt lat="43.1463275" lon="-3.8998589"><ele>275.0</ele><time>2026-05-02T11:14:14.926Z</time></trkpt><trkpt lat="43.1461876" lon="-3.8999033"><ele>274.0</ele><time>2026-05-02T11:14:15.929Z</time></trkpt><trkpt lat="43.1460453" lon="-3.8999354"><ele>274.0</ele><time>2026-05-02T11:14:16.933Z</time></trkpt><trkpt lat="43.1459141" lon="-3.8999352"><ele>274.0</ele><time>2026-05-02T11:14:17.932Z</time></trkpt><trkpt lat="43.1457922" lon="-3.8999022"><ele>274.0</ele><time>2026-05-02T11:14:18.919Z</time></trkpt><trkpt lat="43.1456849" lon="-3.8998507"><ele>274.0</ele><time>2026-05-02T11:14:19.924Z</time></trkpt><trkpt lat="43.1455504" lon="-3.8997544"><ele>282.0</ele><time>2026-05-02T11:14:20.925Z</time></trkpt><trkpt lat="43.1454284" lon="-3.8996812"><ele>290.0</ele><time>2026-05-02T11:14:21.926Z</time></trkpt><trkpt lat="43.1452892" lon="-3.8995599"><ele>298.0</ele><time>2026-05-02T11:14:22.925Z</time></trkpt><trkpt lat="43.1451737" lon="-3.8994624"><ele>306.0</ele><time>2026-05-02T11:14:23.92Z</time></trkpt><trkpt lat="43.1450516" lon="-3.8993853"><ele>306.0</ele><time>2026-05-02T11:14:24.922Z</time></trkpt><trkpt lat="43.1449165" lon="-3.8993054"><ele>306.0</ele><time>2026-05-02T11:14:25.92Z</time></trkpt><trkpt lat="43.1447826" lon="-3.8992449"><ele>306.0</ele><time>2026-05-02T11:14:26.931Z</time></trkpt><trkpt lat="43.1446617" lon="-3.8991962"><ele>306.0</ele><time>2026-05-02T11:14:27.921Z</time></trkpt><trkpt lat="43.1445227" lon="-3.8991777"><ele>305.25</ele><time>2026-05-02T11:14:28.924Z</time></trkpt><trkpt lat="43.1443819" lon="-3.8991802"><ele>304.5</ele><time>2026-05-02T11:14:29.924Z</time></trkpt><trkpt lat="43.1442415" lon="-3.8992421"><ele>303.75</ele><time>2026-05-02T11:14:30.923Z</time></trkpt><trkpt lat="43.1440921" lon="-3.8993164"><ele>303.0</ele><time>2026-05-02T11:14:31.919Z</time></trkpt><trkpt lat="43.1439538" lon="-3.8993732"><ele>303.0</ele><time>2026-05-02T11:14:32.915Z</time></trkpt><trkpt lat="43.1438181" lon="-3.8994515"><ele>303.0</ele><time>2026-05-02T11:14:33.916Z</time></trkpt><trkpt lat="43.1436819" lon="-3.8995081"><ele>303.0</ele><time>2026-05-02T11:14:34.915Z</time></trkpt><trkpt lat="43.1435525" lon="-3.8995884"><ele>303.0</ele><time>2026-05-02T11:14:35.909Z</time></trkpt><trkpt lat="43.1434128" lon="-3.8996526"><ele>303.0</ele><time>2026-05-02T11:14:36.908Z</time></trkpt><trkpt lat="43.1432658" lon="-3.8997115"><ele>303.0</ele><time>2026-05-02T11:14:37.908Z</time></trkpt><trkpt lat="43.1431269" lon="-3.8997518"><ele>303.0</ele><time>2026-05-02T11:14:38.927Z</time></trkpt><trkpt lat="43.1429921" lon="-3.8997876"><ele>303.0</ele><time>2026-05-02T11:14:40.084Z</time></trkpt><trkpt lat="43.1427148" lon="-3.8998988"><ele>300.3333333333333</ele><time>2026-05-02T11:14:41.923Z</time></trkpt><trkpt lat="43.1425687" lon="-3.899964"><ele>297.66666666666663</ele><time>2026-05-02T11:14:42.918Z</time></trkpt><trkpt lat="43.1424158" lon="-3.9000089"><ele>295.0</ele><time>2026-05-02T11:14:43.934Z</time></trkpt><trkpt lat="43.1422661" lon="-3.9000253"><ele>295.0</ele><time>2026-05-02T11:14:44.944Z</time></trkpt><trkpt lat="43.1421237" lon="-3.900049"><ele>295.0</ele><time>2026-05-02T11:14:45.923Z</time></trkpt><trkpt lat="43.1419782" lon="-3.9000414"><ele>295.0</ele><time>2026-05-02T11:14:46.926Z</time></trkpt><trkpt lat="43.1418432" lon="-3.900029"><ele>295.0</ele><time>2026-05-02T11:14:47.924Z</time></trkpt><trkpt lat="43.1417024" lon="-3.8999948"><ele>295.0</ele><time>2026-05-02T11:14:48.93Z</time></trkpt><trkpt lat="43.1415972" lon="-3.8999208"><ele>295.0</ele><time>2026-05-02T11:14:49.918Z</time></trkpt><trkpt lat="43.1414672" lon="-3.8998548"><ele>295.0</ele><time>2026-05-02T11:14:50.926Z</time></trkpt><trkpt lat="43.1412073" lon="-3.8997402"><ele>292.5</ele><time>2026-05-02T11:14:52.923Z</time></trkpt><trkpt lat="43.1410752" lon="-3.8996749"><ele>290.0</ele><time>2026-05-02T11:14:53.925Z</time></trkpt><trkpt lat="43.1409427" lon="-3.8996399"><ele>287.5</ele><time>2026-05-02T11:14:54.918Z</time></trkpt><trkpt lat="43.1408044" lon="-3.8996591"><ele>285.0</ele><time>2026-05-02T11:14:55.93Z</time></trkpt><trkpt lat="43.1406646" lon="-3.8997256"><ele>285.0</ele><time>2026-05-02T11:14:56.929Z</time></trkpt><trkpt lat="43.1405337" lon="-3.8998056"><ele>285.0</ele><time>2026-05-02T11:14:57.926Z</time></trkpt><trkpt lat="43.1404416" lon="-3.899968"><ele>285.0</ele><time>2026-05-02T11:14:58.924Z</time></trkpt><trkpt lat="43.1403162" lon="-3.9000638"><ele>285.0</ele><time>2026-05-02T11:14:59.923Z</time></trkpt><trkpt lat="43.1402138" lon="-3.9001969"><ele>292.75</ele><time>2026-05-02T11:15:00.917Z</time></trkpt><trkpt lat="43.1401076" lon="-3.9003409"><ele>300.5</ele><time>2026-05-02T11:15:01.92Z</time></trkpt><trkpt lat="43.1399793" lon="-3.9004439"><ele>308.25</ele><time>2026-05-02T11:15:02.917Z</time></trkpt><trkpt lat="43.1398863" lon="-3.9005552"><ele>316.0</ele><time>2026-05-02T11:15:03.915Z</time></trkpt><trkpt lat="43.1397739" lon="-3.9006328"><ele>316.0</ele><time>2026-05-02T11:15:04.918Z</time></trkpt><trkpt lat="43.1396444" lon="-3.900696"><ele>316.0</ele><time>2026-05-02T11:15:05.919Z</time></trkpt><trkpt lat="43.1395199" lon="-3.9007542"><ele>316.0</ele><time>2026-05-02T11:15:06.922Z</time></trkpt><trkpt lat="43.1393999" lon="-3.9008137"><ele>316.0</ele><time>2026-05-02T11:15:07.919Z</time></trkpt><trkpt lat="43.1392727" lon="-3.9008573"><ele>316.0</ele><time>2026-05-02T11:15:08.936Z</time></trkpt><trkpt lat="43.1391359" lon="-3.900902"><ele>316.0</ele><time>2026-05-02T11:15:09.915Z</time></trkpt><trkpt lat="43.1389944" lon="-3.9009262"><ele>316.0</ele><time>2026-05-02T11:15:10.913Z</time></trkpt><trkpt lat="43.1388526" lon="-3.9009276"><ele>316.0</ele><time>2026-05-02T11:15:11.915Z</time></trkpt><trkpt lat="43.1387082" lon="-3.900907"><ele>317.0</ele><time>2026-05-02T11:15:12.913Z</time></trkpt><trkpt lat="43.1385577" lon="-3.9008683"><ele>318.0</ele><time>2026-05-02T11:15:13.912Z</time></trkpt><trkpt lat="43.1384137" lon="-3.9008156"><ele>319.0</ele><time>2026-05-02T11:15:14.92Z</time></trkpt><trkpt lat="43.1382668" lon="-3.9007898"><ele>319.25</ele><time>2026-05-02T11:15:15.936Z</time></trkpt><trkpt lat="43.1381195" lon="-3.9007437"><ele>319.5</ele><time>2026-05-02T11:15:16.916Z</time></trkpt><trkpt lat="43.1379748" lon="-3.9006742"><ele>319.75</ele><time>2026-05-02T11:15:17.915Z</time></trkpt><trkpt lat="43.1378438" lon="-3.9006299"><ele>320.0</ele><time>2026-05-02T11:15:18.918Z</time></trkpt><trkpt lat="43.137705" lon="-3.9005748"><ele>320.0</ele><time>2026-05-02T11:15:19.916Z</time></trkpt><trkpt lat="43.1375778" lon="-3.9005496"><ele>320.0</ele><time>2026-05-02T11:15:20.912Z</time></trkpt><trkpt lat="43.1374341" lon="-3.9005059"><ele>320.0</ele><time>2026-05-02T11:15:21.915Z</time></trkpt><trkpt lat="43.1372803" lon="-3.9004551"><ele>320.0</ele><time>2026-05-02T11:15:22.915Z</time></trkpt><trkpt lat="43.137127" lon="-3.900405"><ele>322.33333333333337</ele><time>2026-05-02T11:15:23.918Z</time></trkpt><trkpt lat="43.1369865" lon="-3.900385"><ele>324.6666666666667</ele><time>2026-05-02T11:15:24.914Z</time></trkpt><trkpt lat="43.1368282" lon="-3.9003391"><ele>327.0</ele><time>2026-05-02T11:15:25.921Z</time></trkpt><trkpt lat="43.1366708" lon="-3.9003007"><ele>326.3333333333333</ele><time>2026-05-02T11:15:26.923Z</time></trkpt><trkpt lat="43.1365099" lon="-3.9002682"><ele>325.66666666666663</ele><time>2026-05-02T11:15:27.92Z</time></trkpt><trkpt lat="43.1363537" lon="-3.900259"><ele>325.0</ele><time>2026-05-02T11:15:28.937Z</time></trkpt><trkpt lat="43.1361859" lon="-3.9002597"><ele>325.0</ele><time>2026-05-02T11:15:29.924Z</time></trkpt><trkpt lat="43.1360165" lon="-3.9002534"><ele>325.0</ele><time>2026-05-02T11:15:30.918Z</time></trkpt><trkpt lat="43.1358382" lon="-3.9002599"><ele>325.0</ele><time>2026-05-02T11:15:31.92Z</time></trkpt><trkpt lat="43.1356578" lon="-3.9002789"><ele>323.0</ele><time>2026-05-02T11:15:32.923Z</time></trkpt><trkpt lat="43.1354663" lon="-3.9002932"><ele>321.0</ele><time>2026-05-02T11:15:33.922Z</time></trkpt><trkpt lat="43.1352706" lon="-3.9002889"><ele>319.0</ele><time>2026-05-02T11:15:34.921Z</time></trkpt><trkpt lat="43.1350812" lon="-3.9002998"><ele>319.0</ele><time>2026-05-02T11:15:35.919Z</time></trkpt><trkpt lat="43.134897" lon="-3.9003041"><ele>319.0</ele><time>2026-05-02T11:15:36.917Z</time></trkpt><trkpt lat="43.1347091" lon="-3.9002994"><ele>319.0</ele><time>2026-05-02T11:15:37.915Z</time></trkpt><trkpt lat="43.1345338" lon="-3.9003092"><ele>321.3333333333333</ele><time>2026-05-02T11:15:38.933Z</time></trkpt><trkpt lat="43.1343725" lon="-3.9003036"><ele>323.6666666666667</ele><time>2026-05-02T11:15:39.918Z</time></trkpt><trkpt lat="43.1342123" lon="-3.9002713"><ele>326.0</ele><time>2026-05-02T11:15:40.922Z</time></trkpt><trkpt lat="43.1340569" lon="-3.9002349"><ele>333.33333333333337</ele><time>2026-05-02T11:15:41.917Z</time></trkpt><trkpt lat="43.1339" lon="-3.9002008"><ele>340.6666666666667</ele><time>2026-05-02T11:15:42.909Z</time></trkpt><trkpt lat="43.133752" lon="-3.9001702"><ele>348.0</ele><time>2026-05-02T11:15:43.91Z</time></trkpt><trkpt lat="43.1336105" lon="-3.9001258"><ele>348.0</ele><time>2026-05-02T11:15:44.909Z</time></trkpt><trkpt lat="43.1334777" lon="-3.9000915"><ele>348.0</ele><time>2026-05-02T11:15:45.911Z</time></trkpt><trkpt lat="43.1333535" lon="-3.9000457"><ele>348.0</ele><time>2026-05-02T11:15:46.926Z</time></trkpt><trkpt lat="43.1331111" lon="-3.9000119"><ele>342.0</ele><time>2026-05-02T11:15:48.904Z</time></trkpt><trkpt lat="43.1330104" lon="-3.8999987"><ele>336.0</ele><time>2026-05-02T11:15:49.91Z</time></trkpt><trkpt lat="43.1328973" lon="-3.899976"><ele>330.0</ele><time>2026-05-02T11:15:50.91Z</time></trkpt><trkpt lat="43.1328084" lon="-3.899976"><ele>324.0</ele><time>2026-05-02T11:15:51.914Z</time></trkpt><trkpt lat="43.1327172" lon="-3.8999623"><ele>318.0</ele><time>2026-05-02T11:15:52.913Z</time></trkpt><trkpt lat="43.1326117" lon="-3.8999374"><ele>318.0</ele><time>2026-05-02T11:15:53.913Z</time></trkpt><trkpt lat="43.1325182" lon="-3.8999283"><ele>318.0</ele><time>2026-05-02T11:15:54.906Z</time></trkpt><trkpt lat="43.1324238" lon="-3.8999165"><ele>318.0</ele><time>2026-05-02T11:15:55.917Z</time></trkpt><trkpt lat="43.1323488" lon="-3.8999256"><ele>318.0</ele><time>2026-05-02T11:15:56.92Z</time></trkpt><trkpt lat="43.1322718" lon="-3.8999316"><ele>318.0</ele><time>2026-05-02T11:15:57.92Z</time></trkpt><trkpt lat="43.1321969" lon="-3.8999241"><ele>318.0</ele><time>2026-05-02T11:15:58.921Z</time></trkpt><trkpt lat="43.1321236" lon="-3.899917"><ele>318.5</ele><time>2026-05-02T11:15:59.924Z</time></trkpt><trkpt lat="43.1320505" lon="-3.8998994"><ele>319.0</ele><time>2026-05-02T11:16:00.927Z</time></trkpt><trkpt lat="43.1319762" lon="-3.8998891"><ele>319.5</ele><time>2026-05-02T11:16:01.923Z</time></trkpt><trkpt lat="43.1318978" lon="-3.8998833"><ele>320.0</ele><time>2026-05-02T11:16:02.923Z</time></trkpt><trkpt lat="43.1318198" lon="-3.8998664"><ele>320.5</ele><time>2026-05-02T11:16:03.921Z</time></trkpt><trkpt lat="43.131735" lon="-3.89986"><ele>321.0</ele><time>2026-05-02T11:16:04.924Z</time></trkpt><trkpt lat="43.1316456" lon="-3.8998427"><ele>322.25</ele><time>2026-05-02T11:16:05.923Z</time></trkpt><trkpt lat="43.131555" lon="-3.899833"><ele>323.5</ele><time>2026-05-02T11:16:06.922Z</time></trkpt><trkpt lat="43.1313595" lon="-3.8998127"><ele>324.75</ele><time>2026-05-02T11:16:08.936Z</time></trkpt><trkpt lat="43.1312547" lon="-3.8997946"><ele>326.0</ele><time>2026-05-02T11:16:09.919Z</time></trkpt><trkpt lat="43.1311469" lon="-3.8997861"><ele>326.0</ele><time>2026-05-02T11:16:10.917Z</time></trkpt><trkpt lat="43.1310372" lon="-3.8997719"><ele>326.0</ele><time>2026-05-02T11:16:11.918Z</time></trkpt><trkpt lat="43.1309215" lon="-3.8997579"><ele>326.0</ele><time>2026-05-02T11:16:12.923Z</time></trkpt><trkpt lat="43.1308001" lon="-3.8997442"><ele>326.0</ele><time>2026-05-02T11:16:13.918Z</time></trkpt><trkpt lat="43.1306724" lon="-3.8997299"><ele>325.25</ele><time>2026-05-02T11:16:14.915Z</time></trkpt><trkpt lat="43.1305313" lon="-3.8997242"><ele>324.5</ele><time>2026-05-02T11:16:15.914Z</time></trkpt><trkpt lat="43.1303935" lon="-3.8997318"><ele>323.75</ele><time>2026-05-02T11:16:16.915Z</time></trkpt><trkpt lat="43.1302525" lon="-3.899738"><ele>323.0</ele><time>2026-05-02T11:16:17.929Z</time></trkpt><trkpt lat="43.1301192" lon="-3.8997447"><ele>323.0</ele><time>2026-05-02T11:16:18.904Z</time></trkpt><trkpt lat="43.1299846" lon="-3.8997732"><ele>323.0</ele><time>2026-05-02T11:16:19.919Z</time></trkpt><trkpt lat="43.1298426" lon="-3.8998149"><ele>323.0</ele><time>2026-05-02T11:16:20.922Z</time></trkpt><trkpt lat="43.1296968" lon="-3.8998839"><ele>323.0</ele><time>2026-05-02T11:16:21.925Z</time></trkpt><trkpt lat="43.1295504" lon="-3.8999735"><ele>327.33333333333337</ele><time>2026-05-02T11:16:22.924Z</time></trkpt><trkpt lat="43.1294124" lon="-3.9000716"><ele>331.6666666666667</ele><time>2026-05-02T11:16:23.922Z</time></trkpt><trkpt lat="43.1292686" lon="-3.9001713"><ele>336.0</ele><time>2026-05-02T11:16:24.927Z</time></trkpt><trkpt lat="43.129126" lon="-3.9002689"><ele>329.0</ele><time>2026-05-02T11:16:25.925Z</time></trkpt><trkpt lat="43.1289782" lon="-3.9003686"><ele>322.0</ele><time>2026-05-02T11:16:26.926Z</time></trkpt><trkpt lat="43.1288304" lon="-3.9004674"><ele>315.0</ele><time>2026-05-02T11:16:27.924Z</time></trkpt><trkpt lat="43.1286903" lon="-3.9005594"><ele>315.0</ele><time>2026-05-02T11:16:28.925Z</time></trkpt><trkpt lat="43.1285397" lon="-3.9006497"><ele>315.0</ele><time>2026-05-02T11:16:29.924Z</time></trkpt><trkpt lat="43.1283982" lon="-3.9007433"><ele>315.0</ele><time>2026-05-02T11:16:30.921Z</time></trkpt><trkpt lat="43.1282738" lon="-3.9008511"><ele>318.0</ele><time>2026-05-02T11:16:31.925Z</time></trkpt><trkpt lat="43.1281491" lon="-3.9009528"><ele>321.0</ele><time>2026-05-02T11:16:32.925Z</time></trkpt><trkpt lat="43.1280116" lon="-3.9010407"><ele>324.0</ele><time>2026-05-02T11:16:33.926Z</time></trkpt><trkpt lat="43.1278761" lon="-3.9011193"><ele>327.0</ele><time>2026-05-02T11:16:34.928Z</time></trkpt><trkpt lat="43.1277456" lon="-3.901188"><ele>327.0</ele><time>2026-05-02T11:16:35.932Z</time></trkpt><trkpt lat="43.1276296" lon="-3.9012575"><ele>327.0</ele><time>2026-05-02T11:16:36.931Z</time></trkpt><trkpt lat="43.1274961" lon="-3.9013075"><ele>327.0</ele><time>2026-05-02T11:16:37.933Z</time></trkpt><trkpt lat="43.1273696" lon="-3.9013492"><ele>327.0</ele><time>2026-05-02T11:16:38.95Z</time></trkpt><trkpt lat="43.1272284" lon="-3.9013884"><ele>325.0</ele><time>2026-05-02T11:16:39.938Z</time></trkpt><trkpt lat="43.127089" lon="-3.9014043"><ele>323.0</ele><time>2026-05-02T11:16:40.94Z</time></trkpt><trkpt lat="43.1269556" lon="-3.9014258"><ele>321.0</ele><time>2026-05-02T11:16:41.933Z</time></trkpt><trkpt lat="43.1268138" lon="-3.9014345"><ele>319.0</ele><time>2026-05-02T11:16:42.938Z</time></trkpt><trkpt lat="43.1266733" lon="-3.9014397"><ele>317.75</ele><time>2026-05-02T11:16:43.938Z</time></trkpt><trkpt lat="43.1265261" lon="-3.9014498"><ele>316.5</ele><time>2026-05-02T11:16:44.935Z</time></trkpt><trkpt lat="43.1263852" lon="-3.9014662"><ele>315.25</ele><time>2026-05-02T11:16:45.936Z</time></trkpt><trkpt lat="43.1262476" lon="-3.9014706"><ele>314.0</ele><time>2026-05-02T11:16:46.944Z</time></trkpt><trkpt lat="43.1261121" lon="-3.9014725"><ele>314.0</ele><time>2026-05-02T11:16:47.936Z</time></trkpt><trkpt lat="43.125976" lon="-3.901473"><ele>314.0</ele><time>2026-05-02T11:16:48.953Z</time></trkpt><trkpt lat="43.1258385" lon="-3.9014797"><ele>314.0</ele><time>2026-05-02T11:16:49.939Z</time></trkpt><trkpt lat="43.1257005" lon="-3.9014816"><ele>314.0</ele><time>2026-05-02T11:16:50.942Z</time></trkpt><trkpt lat="43.1255542" lon="-3.9014847"><ele>315.75</ele><time>2026-05-02T11:16:51.939Z</time></trkpt><trkpt lat="43.1254109" lon="-3.9014798"><ele>317.5</ele><time>2026-05-02T11:16:52.943Z</time></trkpt><trkpt lat="43.1252687" lon="-3.9014891"><ele>319.25</ele><time>2026-05-02T11:16:53.938Z</time></trkpt><trkpt lat="43.1251326" lon="-3.9014988"><ele>321.0</ele><time>2026-05-02T11:16:54.94Z</time></trkpt><trkpt lat="43.1249872" lon="-3.9015072"><ele>323.25</ele><time>2026-05-02T11:16:55.937Z</time></trkpt><trkpt lat="43.1248444" lon="-3.9015169"><ele>325.5</ele><time>2026-05-02T11:16:56.936Z</time></trkpt><trkpt lat="43.1247095" lon="-3.9015177"><ele>327.75</ele><time>2026-05-02T11:16:57.938Z</time></trkpt><trkpt lat="43.1245766" lon="-3.9015201"><ele>330.0</ele><time>2026-05-02T11:16:58.936Z</time></trkpt><trkpt lat="43.1244538" lon="-3.9015178"><ele>330.0</ele><time>2026-05-02T11:16:59.936Z</time></trkpt><trkpt lat="43.1243363" lon="-3.9015335"><ele>330.0</ele><time>2026-05-02T11:17:00.935Z</time></trkpt><trkpt lat="43.1241018" lon="-3.9015485"><ele>330.0</ele><time>2026-05-02T11:17:02.938Z</time></trkpt><trkpt lat="43.1239918" lon="-3.9015658"><ele>329.8</ele><time>2026-05-02T11:17:03.936Z</time></trkpt><trkpt lat="43.1238847" lon="-3.9015827"><ele>329.6</ele><time>2026-05-02T11:17:04.936Z</time></trkpt><trkpt lat="43.1237786" lon="-3.9016033"><ele>329.4</ele><time>2026-05-02T11:17:05.94Z</time></trkpt><trkpt lat="43.1236708" lon="-3.901633"><ele>329.2</ele><time>2026-05-02T11:17:06.937Z</time></trkpt><trkpt lat="43.1235581" lon="-3.9016676"><ele>329.0</ele><time>2026-05-02T11:17:07.94Z</time></trkpt><trkpt lat="43.1234489" lon="-3.9017077"><ele>329.75</ele><time>2026-05-02T11:17:08.982Z</time></trkpt><trkpt lat="43.1233379" lon="-3.9017529"><ele>330.5</ele><time>2026-05-02T11:17:09.944Z</time></trkpt><trkpt lat="43.1232273" lon="-3.9018003"><ele>331.25</ele><time>2026-05-02T11:17:10.947Z</time></trkpt><trkpt lat="43.1231115" lon="-3.9018507"><ele>332.0</ele><time>2026-05-02T11:17:11.949Z</time></trkpt><trkpt lat="43.1229968" lon="-3.9019052"><ele>332.0</ele><time>2026-05-02T11:17:12.95Z</time></trkpt><trkpt lat="43.1228829" lon="-3.9019595"><ele>332.0</ele><time>2026-05-02T11:17:13.954Z</time></trkpt><trkpt lat="43.1227683" lon="-3.9020136"><ele>332.0</ele><time>2026-05-02T11:17:14.954Z</time></trkpt><trkpt lat="43.1226519" lon="-3.9020656"><ele>332.0</ele><time>2026-05-02T11:17:15.954Z</time></trkpt><trkpt lat="43.1225328" lon="-3.9021239"><ele>332.0</ele><time>2026-05-02T11:17:16.96Z</time></trkpt><trkpt lat="43.1224106" lon="-3.9021815"><ele>332.0</ele><time>2026-05-02T11:17:17.954Z</time></trkpt><trkpt lat="43.122285" lon="-3.9022463"><ele>332.0</ele><time>2026-05-02T11:17:18.957Z</time></trkpt><trkpt lat="43.1221559" lon="-3.9023097"><ele>332.0</ele><time>2026-05-02T11:17:19.973Z</time></trkpt><trkpt lat="43.1220244" lon="-3.9023723"><ele>328.6666666666667</ele><time>2026-05-02T11:17:20.954Z</time></trkpt><trkpt lat="43.1218847" lon="-3.9024374"><ele>325.3333333333333</ele><time>2026-05-02T11:17:21.943Z</time></trkpt><trkpt lat="43.1217414" lon="-3.9025074"><ele>322.0</ele><time>2026-05-02T11:17:22.943Z</time></trkpt><trkpt lat="43.1215921" lon="-3.9025807"><ele>325.0</ele><time>2026-05-02T11:17:23.944Z</time></trkpt><trkpt lat="43.1214468" lon="-3.9026502"><ele>328.0</ele><time>2026-05-02T11:17:24.946Z</time></trkpt><trkpt lat="43.1213051" lon="-3.902711"><ele>331.0</ele><time>2026-05-02T11:17:25.946Z</time></trkpt><trkpt lat="43.1211654" lon="-3.902766"><ele>334.0</ele><time>2026-05-02T11:17:26.95Z</time></trkpt><trkpt lat="43.1210321" lon="-3.9028212"><ele>334.0</ele><time>2026-05-02T11:17:27.947Z</time></trkpt><trkpt lat="43.1208995" lon="-3.9028627"><ele>334.0</ele><time>2026-05-02T11:17:28.948Z</time></trkpt><trkpt lat="43.1207662" lon="-3.9028857"><ele>334.0</ele><time>2026-05-02T11:17:29.946Z</time></trkpt><trkpt lat="43.1206278" lon="-3.9028911"><ele>334.0</ele><time>2026-05-02T11:17:30.943Z</time></trkpt><trkpt lat="43.1204961" lon="-3.9028744"><ele>338.25</ele><time>2026-05-02T11:17:31.942Z</time></trkpt><trkpt lat="43.1203698" lon="-3.9028282"><ele>342.5</ele><time>2026-05-02T11:17:32.94Z</time></trkpt><trkpt lat="43.1202461" lon="-3.902769"><ele>346.75</ele><time>2026-05-02T11:17:33.939Z</time></trkpt><trkpt lat="43.1201211" lon="-3.9026854"><ele>351.0</ele><time>2026-05-02T11:17:34.936Z</time></trkpt><trkpt lat="43.120005" lon="-3.9025985"><ele>349.25</ele><time>2026-05-02T11:17:35.941Z</time></trkpt><trkpt lat="43.119901" lon="-3.902506"><ele>347.5</ele><time>2026-05-02T11:17:36.936Z</time></trkpt><trkpt lat="43.1198036" lon="-3.9024201"><ele>345.75</ele><time>2026-05-02T11:17:37.941Z</time></trkpt><trkpt lat="43.1197084" lon="-3.9023279"><ele>344.0</ele><time>2026-05-02T11:17:38.955Z</time></trkpt><trkpt lat="43.1196205" lon="-3.90224"><ele>344.0</ele><time>2026-05-02T11:17:39.941Z</time></trkpt><trkpt lat="43.1194362" lon="-3.9020731"><ele>344.0</ele><time>2026-05-02T11:17:41.938Z</time></trkpt><trkpt lat="43.1193392" lon="-3.9020082"><ele>344.0</ele><time>2026-05-02T11:17:42.932Z</time></trkpt><trkpt lat="43.1192284" lon="-3.9019551"><ele>344.0</ele><time>2026-05-02T11:17:43.935Z</time></trkpt><trkpt lat="43.1191184" lon="-3.9019182"><ele>346.75</ele><time>2026-05-02T11:17:44.938Z</time></trkpt><trkpt lat="43.1189977" lon="-3.9018999"><ele>349.5</ele><time>2026-05-02T11:17:45.939Z</time></trkpt><trkpt lat="43.1188873" lon="-3.9018997"><ele>352.25</ele><time>2026-05-02T11:17:46.941Z</time></trkpt><trkpt lat="43.1187729" lon="-3.9019195"><ele>355.0</ele><time>2026-05-02T11:17:47.944Z</time></trkpt><trkpt lat="43.1186581" lon="-3.9019515"><ele>355.0</ele><time>2026-05-02T11:17:48.947Z</time></trkpt><trkpt lat="43.1185445" lon="-3.9019926"><ele>355.0</ele><time>2026-05-02T11:17:49.946Z</time></trkpt><trkpt lat="43.1184332" lon="-3.902037"><ele>355.0</ele><time>2026-05-02T11:17:50.965Z</time></trkpt><trkpt lat="43.1183209" lon="-3.9020884"><ele>355.0</ele><time>2026-05-02T11:17:51.948Z</time></trkpt><trkpt lat="43.1182074" lon="-3.9021342"><ele>358.5</ele><time>2026-05-02T11:17:52.945Z</time></trkpt><trkpt lat="43.1180931" lon="-3.9021824"><ele>362.0</ele><time>2026-05-02T11:17:53.941Z</time></trkpt><trkpt lat="43.1179746" lon="-3.9022198"><ele>365.5</ele><time>2026-05-02T11:17:54.942Z</time></trkpt><trkpt lat="43.1178551" lon="-3.9022484"><ele>369.0</ele><time>2026-05-02T11:17:55.941Z</time></trkpt><trkpt lat="43.1177372" lon="-3.9022643"><ele>369.0</ele><time>2026-05-02T11:17:56.939Z</time></trkpt><trkpt lat="43.1176162" lon="-3.9022654"><ele>369.0</ele><time>2026-05-02T11:17:57.935Z</time></trkpt><trkpt lat="43.1174922" lon="-3.9022583"><ele>369.0</ele><time>2026-05-02T11:17:58.93Z</time></trkpt><trkpt lat="43.1173656" lon="-3.9022434"><ele>369.0</ele><time>2026-05-02T11:17:59.93Z</time></trkpt><trkpt lat="43.1172406" lon="-3.9022269"><ele>369.5</ele><time>2026-05-02T11:18:00.928Z</time></trkpt><trkpt lat="43.1171156" lon="-3.9021997"><ele>370.0</ele><time>2026-05-02T11:18:01.925Z</time></trkpt><trkpt lat="43.1169898" lon="-3.9021739"><ele>370.5</ele><time>2026-05-02T11:18:02.925Z</time></trkpt><trkpt lat="43.1168662" lon="-3.9021533"><ele>371.0</ele><time>2026-05-02T11:18:03.924Z</time></trkpt><trkpt lat="43.1167446" lon="-3.9021294"><ele>371.0</ele><time>2026-05-02T11:18:04.926Z</time></trkpt><trkpt lat="43.1166237" lon="-3.9021094"><ele>371.0</ele><time>2026-05-02T11:18:05.928Z</time></trkpt><trkpt lat="43.1165061" lon="-3.9020894"><ele>371.0</ele><time>2026-05-02T11:18:06.929Z</time></trkpt><trkpt lat="43.1163845" lon="-3.9020712"><ele>371.0</ele><time>2026-05-02T11:18:07.932Z</time></trkpt><trkpt lat="43.1162613" lon="-3.9020481"><ele>369.0</ele><time>2026-05-02T11:18:08.946Z</time></trkpt><trkpt lat="43.116138" lon="-3.9020283"><ele>367.0</ele><time>2026-05-02T11:18:09.931Z</time></trkpt><trkpt lat="43.1160101" lon="-3.9020159"><ele>365.0</ele><time>2026-05-02T11:18:10.931Z</time></trkpt><trkpt lat="43.1158805" lon="-3.9019992"><ele>363.0</ele><time>2026-05-02T11:18:11.933Z</time></trkpt><trkpt lat="43.115747" lon="-3.9019716"><ele>363.5</ele><time>2026-05-02T11:18:12.93Z</time></trkpt><trkpt lat="43.1156138" lon="-3.9019451"><ele>364.0</ele><time>2026-05-02T11:18:13.936Z</time></trkpt><trkpt lat="43.1154774" lon="-3.901924"><ele>364.5</ele><time>2026-05-02T11:18:14.939Z</time></trkpt><trkpt lat="43.1153359" lon="-3.9018984"><ele>365.0</ele><time>2026-05-02T11:18:15.939Z</time></trkpt><trkpt lat="43.1151949" lon="-3.9018723"><ele>365.0</ele><time>2026-05-02T11:18:16.944Z</time></trkpt><trkpt lat="43.1150573" lon="-3.9018473"><ele>365.0</ele><time>2026-05-02T11:18:17.94Z</time></trkpt><trkpt lat="43.1149126" lon="-3.9018245"><ele>365.0</ele><time>2026-05-02T11:18:18.945Z</time></trkpt><trkpt lat="43.1147707" lon="-3.9018217"><ele>365.0</ele><time>2026-05-02T11:18:19.937Z</time></trkpt><trkpt lat="43.1146279" lon="-3.9018124"><ele>365.75</ele><time>2026-05-02T11:18:20.934Z</time></trkpt><trkpt lat="43.1144841" lon="-3.9018095"><ele>366.5</ele><time>2026-05-02T11:18:21.95Z</time></trkpt><trkpt lat="43.114342" lon="-3.9018077"><ele>367.25</ele><time>2026-05-02T11:18:22.934Z</time></trkpt><trkpt lat="43.1141916" lon="-3.9017967"><ele>368.0</ele><time>2026-05-02T11:18:23.933Z</time></trkpt><trkpt lat="43.1140454" lon="-3.9017897"><ele>369.25</ele><time>2026-05-02T11:18:24.938Z</time></trkpt><trkpt lat="43.1139043" lon="-3.9017921"><ele>370.5</ele><time>2026-05-02T11:18:25.936Z</time></trkpt><trkpt lat="43.1137636" lon="-3.9018006"><ele>371.75</ele><time>2026-05-02T11:18:26.938Z</time></trkpt><trkpt lat="43.1136203" lon="-3.9017997"><ele>373.0</ele><time>2026-05-02T11:18:27.936Z</time></trkpt><trkpt lat="43.1134816" lon="-3.9017998"><ele>373.0</ele><time>2026-05-02T11:18:28.937Z</time></trkpt><trkpt lat="43.1133392" lon="-3.9018037"><ele>373.0</ele><time>2026-05-02T11:18:29.937Z</time></trkpt><trkpt lat="43.1132001" lon="-3.9018079"><ele>373.0</ele><time>2026-05-02T11:18:30.936Z</time></trkpt><trkpt lat="43.1130583" lon="-3.9018176"><ele>373.0</ele><time>2026-05-02T11:18:31.934Z</time></trkpt><trkpt lat="43.1129191" lon="-3.9018164"><ele>372.75</ele><time>2026-05-02T11:18:32.935Z</time></trkpt><trkpt lat="43.112779" lon="-3.9018141"><ele>372.5</ele><time>2026-05-02T11:18:33.934Z</time></trkpt><trkpt lat="43.112641" lon="-3.9018181"><ele>372.25</ele><time>2026-05-02T11:18:34.932Z</time></trkpt><trkpt lat="43.1124999" lon="-3.9018342"><ele>372.0</ele><time>2026-05-02T11:18:35.933Z</time></trkpt><trkpt lat="43.1123624" lon="-3.9018437"><ele>372.0</ele><time>2026-05-02T11:18:36.934Z</time></trkpt><trkpt lat="43.1122356" lon="-3.9018588"><ele>372.0</ele><time>2026-05-02T11:18:37.932Z</time></trkpt><trkpt lat="43.1120994" lon="-3.9018755"><ele>372.0</ele><time>2026-05-02T11:18:38.948Z</time></trkpt><trkpt lat="43.1119698" lon="-3.901884"><ele>372.0</ele><time>2026-05-02T11:18:39.938Z</time></trkpt><trkpt lat="43.1118384" lon="-3.9018974"><ele>372.0</ele><time>2026-05-02T11:18:40.936Z</time></trkpt><trkpt lat="43.111712" lon="-3.9019071"><ele>372.0</ele><time>2026-05-02T11:18:41.936Z</time></trkpt><trkpt lat="43.1115869" lon="-3.9019183"><ele>372.0</ele><time>2026-05-02T11:18:42.944Z</time></trkpt><trkpt lat="43.1114607" lon="-3.9019319"><ele>372.0</ele><time>2026-05-02T11:18:43.938Z</time></trkpt><trkpt lat="43.1113308" lon="-3.9019417"><ele>372.0</ele><time>2026-05-02T11:18:44.935Z</time></trkpt><trkpt lat="43.1112042" lon="-3.9019569"><ele>372.0</ele><time>2026-05-02T11:18:45.933Z</time></trkpt><trkpt lat="43.1110729" lon="-3.9019697"><ele>372.0</ele><time>2026-05-02T11:18:46.932Z</time></trkpt><trkpt lat="43.1109469" lon="-3.9019924"><ele>372.0</ele><time>2026-05-02T11:18:47.933Z</time></trkpt><trkpt lat="43.1108201" lon="-3.9020252"><ele>370.5</ele><time>2026-05-02T11:18:48.947Z</time></trkpt><trkpt lat="43.1106981" lon="-3.9020637"><ele>369.0</ele><time>2026-05-02T11:18:49.936Z</time></trkpt><trkpt lat="43.1105796" lon="-3.9021079"><ele>367.5</ele><time>2026-05-02T11:18:50.936Z</time></trkpt><trkpt lat="43.1104667" lon="-3.9021593"><ele>366.0</ele><time>2026-05-02T11:18:51.931Z</time></trkpt><trkpt lat="43.1103562" lon="-3.9022181"><ele>366.0</ele><time>2026-05-02T11:18:52.955Z</time></trkpt><trkpt lat="43.1102481" lon="-3.9022785"><ele>366.0</ele><time>2026-05-02T11:18:53.938Z</time></trkpt><trkpt lat="43.1101367" lon="-3.9023398"><ele>366.0</ele><time>2026-05-02T11:18:54.936Z</time></trkpt><trkpt lat="43.1100257" lon="-3.9023971"><ele>366.0</ele><time>2026-05-02T11:18:55.938Z</time></trkpt><trkpt lat="43.1099204" lon="-3.9024445"><ele>367.20000000000005</ele><time>2026-05-02T11:18:56.937Z</time></trkpt><trkpt lat="43.1098158" lon="-3.9024796"><ele>368.40000000000003</ele><time>2026-05-02T11:18:57.932Z</time></trkpt><trkpt lat="43.1097087" lon="-3.9025073"><ele>369.6</ele><time>2026-05-02T11:18:58.935Z</time></trkpt><trkpt lat="43.1096026" lon="-3.9025318"><ele>370.8</ele><time>2026-05-02T11:18:59.932Z</time></trkpt><trkpt lat="43.1094981" lon="-3.9025441"><ele>372.0</ele><time>2026-05-02T11:19:00.926Z</time></trkpt><trkpt lat="43.1093931" lon="-3.9025473"><ele>372.0</ele><time>2026-05-02T11:19:01.925Z</time></trkpt><trkpt lat="43.1092851" lon="-3.902537"><ele>372.0</ele><time>2026-05-02T11:19:02.926Z</time></trkpt><trkpt lat="43.1091743" lon="-3.9025205"><ele>372.0</ele><time>2026-05-02T11:19:03.928Z</time></trkpt><trkpt lat="43.1090654" lon="-3.9025041"><ele>372.0</ele><time>2026-05-02T11:19:04.933Z</time></trkpt><trkpt lat="43.1089543" lon="-3.9024846"><ele>372.0</ele><time>2026-05-02T11:19:05.94Z</time></trkpt><trkpt lat="43.1088413" lon="-3.902459"><ele>373.75</ele><time>2026-05-02T11:19:06.933Z</time></trkpt><trkpt lat="43.1087267" lon="-3.9024437"><ele>375.5</ele><time>2026-05-02T11:19:07.932Z</time></trkpt><trkpt lat="43.1086119" lon="-3.9024283"><ele>377.25</ele><time>2026-05-02T11:19:08.95Z</time></trkpt><trkpt lat="43.1084942" lon="-3.9024183"><ele>379.0</ele><time>2026-05-02T11:19:09.938Z</time></trkpt><trkpt lat="43.1083792" lon="-3.9024049"><ele>379.0</ele><time>2026-05-02T11:19:10.936Z</time></trkpt><trkpt lat="43.1082685" lon="-3.9023896"><ele>379.0</ele><time>2026-05-02T11:19:11.934Z</time></trkpt><trkpt lat="43.1081578" lon="-3.9023724"><ele>379.0</ele><time>2026-05-02T11:19:12.933Z</time></trkpt><trkpt lat="43.1080524" lon="-3.9023532"><ele>379.0</ele><time>2026-05-02T11:19:13.941Z</time></trkpt><trkpt lat="43.1079398" lon="-3.9023372"><ele>379.0</ele><time>2026-05-02T11:19:14.935Z</time></trkpt><trkpt lat="43.1078261" lon="-3.9023182"><ele>382.25</ele><time>2026-05-02T11:19:15.938Z</time></trkpt><trkpt lat="43.1077163" lon="-3.9022889"><ele>385.5</ele><time>2026-05-02T11:19:16.937Z</time></trkpt><trkpt lat="43.1076072" lon="-3.9022506"><ele>388.75</ele><time>2026-05-02T11:19:17.938Z</time></trkpt><trkpt lat="43.1074997" lon="-3.9021992"><ele>392.0</ele><time>2026-05-02T11:19:18.943Z</time></trkpt><trkpt lat="43.1073927" lon="-3.9021399"><ele>394.5</ele><time>2026-05-02T11:19:19.938Z</time></trkpt><trkpt lat="43.107288" lon="-3.9020836"><ele>397.0</ele><time>2026-05-02T11:19:20.937Z</time></trkpt><trkpt lat="43.1071783" lon="-3.9020142"><ele>399.5</ele><time>2026-05-02T11:19:21.939Z</time></trkpt><trkpt lat="43.1070654" lon="-3.9019561"><ele>402.0</ele><time>2026-05-02T11:19:22.94Z</time></trkpt><trkpt lat="43.1069501" lon="-3.9019038"><ele>402.0</ele><time>2026-05-02T11:19:23.956Z</time></trkpt><trkpt lat="43.1068301" lon="-3.9018543"><ele>402.0</ele><time>2026-05-02T11:19:24.939Z</time></trkpt><trkpt lat="43.1067087" lon="-3.9018154"><ele>402.0</ele><time>2026-05-02T11:19:25.947Z</time></trkpt><trkpt lat="43.1065851" lon="-3.9017749"><ele>402.0</ele><time>2026-05-02T11:19:26.943Z</time></trkpt><trkpt lat="43.1064587" lon="-3.901735"><ele>395.25</ele><time>2026-05-02T11:19:27.943Z</time></trkpt><trkpt lat="43.1063316" lon="-3.9017039"><ele>388.5</ele><time>2026-05-02T11:19:28.946Z</time></trkpt><trkpt lat="43.1062034" lon="-3.9016887"><ele>381.75</ele><time>2026-05-02T11:19:29.939Z</time></trkpt><trkpt lat="43.1060682" lon="-3.9016917"><ele>375.0</ele><time>2026-05-02T11:19:30.938Z</time></trkpt><trkpt lat="43.1059365" lon="-3.9017178"><ele>377.75</ele><time>2026-05-02T11:19:31.939Z</time></trkpt><trkpt lat="43.1058064" lon="-3.9017561"><ele>380.5</ele><time>2026-05-02T11:19:32.946Z</time></trkpt><trkpt lat="43.1056819" lon="-3.9018005"><ele>383.25</ele><time>2026-05-02T11:19:33.937Z</time></trkpt><trkpt lat="43.105559" lon="-3.9018396"><ele>386.0</ele><time>2026-05-02T11:19:34.939Z</time></trkpt><trkpt lat="43.1054445" lon="-3.901883"><ele>386.0</ele><time>2026-05-02T11:19:35.937Z</time></trkpt><trkpt lat="43.1053337" lon="-3.9019191"><ele>386.0</ele><time>2026-05-02T11:19:36.939Z</time></trkpt><trkpt lat="43.1052262" lon="-3.9019544"><ele>386.0</ele><time>2026-05-02T11:19:37.945Z</time></trkpt><trkpt lat="43.1051191" lon="-3.9019824"><ele>386.0</ele><time>2026-05-02T11:19:38.958Z</time></trkpt><trkpt lat="43.1050159" lon="-3.9020175"><ele>386.0</ele><time>2026-05-02T11:19:39.942Z</time></trkpt><trkpt lat="43.1049164" lon="-3.9020482"><ele>385.0</ele><time>2026-05-02T11:19:40.945Z</time></trkpt><trkpt lat="43.1048146" lon="-3.9020829"><ele>384.0</ele><time>2026-05-02T11:19:41.943Z</time></trkpt><trkpt lat="43.1047085" lon="-3.9021196"><ele>383.0</ele><time>2026-05-02T11:19:42.944Z</time></trkpt><trkpt lat="43.1046012" lon="-3.9021567"><ele>382.0</ele><time>2026-05-02T11:19:43.945Z</time></trkpt><trkpt lat="43.1044897" lon="-3.9021872"><ele>381.0</ele><time>2026-05-02T11:19:44.943Z</time></trkpt><trkpt lat="43.104379" lon="-3.902214"><ele>381.0</ele><time>2026-05-02T11:19:45.944Z</time></trkpt><trkpt lat="43.1042722" lon="-3.9022401"><ele>381.0</ele><time>2026-05-02T11:19:46.949Z</time></trkpt><trkpt lat="43.1041678" lon="-3.9022667"><ele>381.0</ele><time>2026-05-02T11:19:47.951Z</time></trkpt><trkpt lat="43.1040645" lon="-3.902292"><ele>381.0</ele><time>2026-05-02T11:19:48.953Z</time></trkpt><trkpt lat="43.1039665" lon="-3.9023241"><ele>381.0</ele><time>2026-05-02T11:19:49.946Z</time></trkpt><trkpt lat="43.1038716" lon="-3.9023495"><ele>380.1666666666667</ele><time>2026-05-02T11:19:50.946Z</time></trkpt><trkpt lat="43.1037787" lon="-3.9023695"><ele>379.3333333333333</ele><time>2026-05-02T11:19:51.945Z</time></trkpt><trkpt lat="43.1036876" lon="-3.9023887"><ele>378.5</ele><time>2026-05-02T11:19:52.95Z</time></trkpt><trkpt lat="43.1035994" lon="-3.9024096"><ele>377.66666666666663</ele><time>2026-05-02T11:19:53.949Z</time></trkpt><trkpt lat="43.1035177" lon="-3.9024251"><ele>376.8333333333333</ele><time>2026-05-02T11:19:54.967Z</time></trkpt><trkpt lat="43.1034398" lon="-3.9024413"><ele>376.0</ele><time>2026-05-02T11:19:55.951Z</time></trkpt><trkpt lat="43.1033645" lon="-3.9024561"><ele>376.0</ele><time>2026-05-02T11:19:56.948Z</time></trkpt><trkpt lat="43.103299" lon="-3.9024731"><ele>376.0</ele><time>2026-05-02T11:19:57.946Z</time></trkpt><trkpt lat="43.103235" lon="-3.9024913"><ele>376.0</ele><time>2026-05-02T11:19:58.946Z</time></trkpt><trkpt lat="43.1031299" lon="-3.9025178"><ele>376.0</ele><time>2026-05-02T11:20:00.945Z</time></trkpt><trkpt lat="43.1030516" lon="-3.9025126"><ele>376.0</ele><time>2026-05-02T11:21:23.942Z</time></trkpt><trkpt lat="43.1029563" lon="-3.9025232"><ele>376.0</ele><time>2026-05-02T11:21:25.947Z</time></trkpt><trkpt lat="43.1028939" lon="-3.9025351"><ele>375.20000000000005</ele><time>2026-05-02T11:21:26.958Z</time></trkpt><trkpt lat="43.10282" lon="-3.902546"><ele>374.40000000000003</ele><time>2026-05-02T11:21:27.941Z</time></trkpt><trkpt lat="43.1027419" lon="-3.9025634"><ele>373.6</ele><time>2026-05-02T11:21:28.938Z</time></trkpt><trkpt lat="43.1026439" lon="-3.9025785"><ele>372.8</ele><time>2026-05-02T11:21:29.934Z</time></trkpt><trkpt lat="43.102541" lon="-3.9025841"><ele>372.0</ele><time>2026-05-02T11:21:30.936Z</time></trkpt><trkpt lat="43.1024299" lon="-3.9025795"><ele>373.0</ele><time>2026-05-02T11:21:31.941Z</time></trkpt><trkpt lat="43.1023144" lon="-3.9025673"><ele>374.0</ele><time>2026-05-02T11:21:32.939Z</time></trkpt><trkpt lat="43.1021922" lon="-3.9025558"><ele>375.0</ele><time>2026-05-02T11:21:33.941Z</time></trkpt><trkpt lat="43.102069" lon="-3.9025444"><ele>376.0</ele><time>2026-05-02T11:21:34.943Z</time></trkpt><trkpt lat="43.1019379" lon="-3.9025355"><ele>376.0</ele><time>2026-05-02T11:21:35.944Z</time></trkpt><trkpt lat="43.101803" lon="-3.9025315"><ele>376.0</ele><time>2026-05-02T11:21:36.944Z</time></trkpt><trkpt lat="43.1016667" lon="-3.9025268"><ele>376.0</ele><time>2026-05-02T11:21:37.947Z</time></trkpt><trkpt lat="43.1015277" lon="-3.9025253"><ele>376.0</ele><time>2026-05-02T11:21:38.96Z</time></trkpt><trkpt lat="43.10139" lon="-3.9025242"><ele>376.25</ele><time>2026-05-02T11:21:39.949Z</time></trkpt><trkpt lat="43.1012498" lon="-3.9025249"><ele>376.5</ele><time>2026-05-02T11:21:40.948Z</time></trkpt><trkpt lat="43.1011127" lon="-3.9025301"><ele>376.75</ele><time>2026-05-02T11:21:41.947Z</time></trkpt><trkpt lat="43.1009743" lon="-3.902544"><ele>377.0</ele><time>2026-05-02T11:21:42.943Z</time></trkpt><trkpt lat="43.1008396" lon="-3.9025458"><ele>378.5</ele><time>2026-05-02T11:21:43.939Z</time></trkpt><trkpt lat="43.1006986" lon="-3.9025353"><ele>380.0</ele><time>2026-05-02T11:21:44.94Z</time></trkpt><trkpt lat="43.1005616" lon="-3.902535"><ele>381.5</ele><time>2026-05-02T11:21:45.941Z</time></trkpt><trkpt lat="43.1004283" lon="-3.9025328"><ele>383.0</ele><time>2026-05-02T11:21:46.943Z</time></trkpt><trkpt lat="43.1002932" lon="-3.902546"><ele>383.0</ele><time>2026-05-02T11:21:47.948Z</time></trkpt><trkpt lat="43.1001602" lon="-3.9025621"><ele>383.0</ele><time>2026-05-02T11:21:48.945Z</time></trkpt><trkpt lat="43.1000289" lon="-3.9025953"><ele>383.0</ele><time>2026-05-02T11:21:49.945Z</time></trkpt><trkpt lat="43.0999158" lon="-3.9026506"><ele>383.0</ele><time>2026-05-02T11:21:50.939Z</time></trkpt><trkpt lat="43.0998033" lon="-3.9026859"><ele>385.79999999999995</ele><time>2026-05-02T11:21:51.937Z</time></trkpt><trkpt lat="43.0996978" lon="-3.9027213"><ele>388.6</ele><time>2026-05-02T11:21:52.935Z</time></trkpt><trkpt lat="43.0996052" lon="-3.902741"><ele>391.4</ele><time>2026-05-02T11:21:53.933Z</time></trkpt><trkpt lat="43.0995039" lon="-3.9027309"><ele>394.20000000000005</ele><time>2026-05-02T11:21:54.936Z</time></trkpt><trkpt lat="43.0993974" lon="-3.9027024"><ele>397.0</ele><time>2026-05-02T11:21:55.937Z</time></trkpt><trkpt lat="43.0992924" lon="-3.9026525"><ele>392.5</ele><time>2026-05-02T11:21:56.938Z</time></trkpt><trkpt lat="43.0991945" lon="-3.9025789"><ele>388.0</ele><time>2026-05-02T11:21:57.962Z</time></trkpt><trkpt lat="43.0991071" lon="-3.9024724"><ele>383.5</ele><time>2026-05-02T11:21:58.94Z</time></trkpt><trkpt lat="43.0990265" lon="-3.9023509"><ele>379.0</ele><time>2026-05-02T11:21:59.943Z</time></trkpt><trkpt lat="43.098949" lon="-3.9022107"><ele>379.0</ele><time>2026-05-02T11:22:00.947Z</time></trkpt><trkpt lat="43.0988703" lon="-3.9020583"><ele>379.0</ele><time>2026-05-02T11:22:01.949Z</time></trkpt><trkpt lat="43.0987929" lon="-3.901898"><ele>379.0</ele><time>2026-05-02T11:22:02.947Z</time></trkpt><trkpt lat="43.0987111" lon="-3.9017344"><ele>379.0</ele><time>2026-05-02T11:22:03.942Z</time></trkpt><trkpt lat="43.098631" lon="-3.9015779"><ele>380.0</ele><time>2026-05-02T11:22:04.943Z</time></trkpt><trkpt lat="43.0985487" lon="-3.9014236"><ele>381.0</ele><time>2026-05-02T11:22:05.942Z</time></trkpt><trkpt lat="43.098467" lon="-3.901277"><ele>382.0</ele><time>2026-05-02T11:22:06.942Z</time></trkpt><trkpt lat="43.098391" lon="-3.9011306"><ele>383.0</ele><time>2026-05-02T11:22:07.943Z</time></trkpt><trkpt lat="43.0983155" lon="-3.9009793"><ele>388.0</ele><time>2026-05-02T11:22:08.954Z</time></trkpt><trkpt lat="43.0982374" lon="-3.9008383"><ele>393.0</ele><time>2026-05-02T11:22:09.941Z</time></trkpt><trkpt lat="43.0981545" lon="-3.9006995"><ele>398.0</ele><time>2026-05-02T11:22:10.944Z</time></trkpt><trkpt lat="43.0980642" lon="-3.9005691"><ele>403.0</ele><time>2026-05-02T11:22:11.942Z</time></trkpt><trkpt lat="43.0979607" lon="-3.90046"><ele>403.0</ele><time>2026-05-02T11:22:12.945Z</time></trkpt><trkpt lat="43.097845" lon="-3.9003846"><ele>403.0</ele><time>2026-05-02T11:22:13.945Z</time></trkpt><trkpt lat="43.0977088" lon="-3.9003433"><ele>403.0</ele><time>2026-05-02T11:22:14.935Z</time></trkpt><trkpt lat="43.0975672" lon="-3.900329"><ele>403.0</ele><time>2026-05-02T11:22:15.934Z</time></trkpt><trkpt lat="43.0974325" lon="-3.9003036"><ele>405.5</ele><time>2026-05-02T11:22:16.935Z</time></trkpt><trkpt lat="43.0973035" lon="-3.9002708"><ele>408.0</ele><time>2026-05-02T11:22:17.938Z</time></trkpt><trkpt lat="43.0971759" lon="-3.9002394"><ele>410.5</ele><time>2026-05-02T11:22:18.937Z</time></trkpt><trkpt lat="43.0970513" lon="-3.9002045"><ele>413.0</ele><time>2026-05-02T11:22:19.936Z</time></trkpt><trkpt lat="43.0969278" lon="-3.9001559"><ele>413.0</ele><time>2026-05-02T11:22:20.943Z</time></trkpt><trkpt lat="43.0968056" lon="-3.9000919"><ele>413.0</ele><time>2026-05-02T11:22:21.944Z</time></trkpt><trkpt lat="43.09669" lon="-3.9000154"><ele>413.0</ele><time>2026-05-02T11:22:22.947Z</time></trkpt><trkpt lat="43.0965741" lon="-3.8999339"><ele>413.0</ele><time>2026-05-02T11:22:23.941Z</time></trkpt><trkpt lat="43.0964624" lon="-3.8998479"><ele>413.75</ele><time>2026-05-02T11:22:24.946Z</time></trkpt><trkpt lat="43.0963545" lon="-3.8997641"><ele>414.5</ele><time>2026-05-02T11:22:25.95Z</time></trkpt><trkpt lat="43.0962504" lon="-3.8996804"><ele>415.25</ele><time>2026-05-02T11:22:26.946Z</time></trkpt><trkpt lat="43.0961495" lon="-3.8996016"><ele>416.0</ele><time>2026-05-02T11:22:27.946Z</time></trkpt><trkpt lat="43.0960515" lon="-3.8995235"><ele>416.0</ele><time>2026-05-02T11:22:28.964Z</time></trkpt><trkpt lat="43.0959531" lon="-3.8994426"><ele>416.0</ele><time>2026-05-02T11:22:29.941Z</time></trkpt><trkpt lat="43.0958538" lon="-3.8993619"><ele>416.0</ele><time>2026-05-02T11:22:30.943Z</time></trkpt><trkpt lat="43.0957545" lon="-3.8992764"><ele>416.0</ele><time>2026-05-02T11:22:31.937Z</time></trkpt><trkpt lat="43.0956574" lon="-3.8991839"><ele>416.5</ele><time>2026-05-02T11:22:32.936Z</time></trkpt><trkpt lat="43.0955637" lon="-3.8990868"><ele>417.0</ele><time>2026-05-02T11:22:33.933Z</time></trkpt><trkpt lat="43.0954694" lon="-3.8989912"><ele>417.5</ele><time>2026-05-02T11:22:34.942Z</time></trkpt><trkpt lat="43.0953735" lon="-3.898893"><ele>418.0</ele><time>2026-05-02T11:22:35.939Z</time></trkpt><trkpt lat="43.0952707" lon="-3.8988048"><ele>418.0</ele><time>2026-05-02T11:22:36.937Z</time></trkpt><trkpt lat="43.0951716" lon="-3.8987072"><ele>418.0</ele><time>2026-05-02T11:22:37.94Z</time></trkpt><trkpt lat="43.0950763" lon="-3.8985995"><ele>418.0</ele><time>2026-05-02T11:22:38.954Z</time></trkpt><trkpt lat="43.0949731" lon="-3.8985016"><ele>418.0</ele><time>2026-05-02T11:22:39.931Z</time></trkpt><trkpt lat="43.0948601" lon="-3.8984107"><ele>417.5</ele><time>2026-05-02T11:22:40.941Z</time></trkpt><trkpt lat="43.0947409" lon="-3.89833"><ele>417.0</ele><time>2026-05-02T11:22:41.94Z</time></trkpt><trkpt lat="43.0946158" lon="-3.8982559"><ele>416.5</ele><time>2026-05-02T11:22:42.943Z</time></trkpt><trkpt lat="43.0944884" lon="-3.8981825"><ele>416.0</ele><time>2026-05-02T11:22:43.941Z</time></trkpt><trkpt lat="43.0943608" lon="-3.8980988"><ele>416.0</ele><time>2026-05-02T11:22:44.945Z</time></trkpt><trkpt lat="43.0942327" lon="-3.8980197"><ele>416.0</ele><time>2026-05-02T11:22:45.943Z</time></trkpt><trkpt lat="43.0941056" lon="-3.8979304"><ele>416.0</ele><time>2026-05-02T11:22:46.946Z</time></trkpt><trkpt lat="43.0939833" lon="-3.8978506"><ele>416.0</ele><time>2026-05-02T11:22:47.949Z</time></trkpt><trkpt lat="43.0938723" lon="-3.8977823"><ele>419.25</ele><time>2026-05-02T11:22:48.949Z</time></trkpt><trkpt lat="43.0937601" lon="-3.8977297"><ele>422.5</ele><time>2026-05-02T11:22:49.944Z</time></trkpt><trkpt lat="43.0936429" lon="-3.8976988"><ele>425.75</ele><time>2026-05-02T11:22:50.949Z</time></trkpt><trkpt lat="43.0935307" lon="-3.8977"><ele>429.0</ele><time>2026-05-02T11:22:51.95Z</time></trkpt><trkpt lat="43.0934216" lon="-3.8977202"><ele>429.0</ele><time>2026-05-02T11:22:52.946Z</time></trkpt><trkpt lat="43.0933153" lon="-3.8977571"><ele>429.0</ele><time>2026-05-02T11:22:53.95Z</time></trkpt><trkpt lat="43.0932198" lon="-3.8978231"><ele>429.0</ele><time>2026-05-02T11:22:54.948Z</time></trkpt><trkpt lat="43.093131" lon="-3.8979111"><ele>429.0</ele><time>2026-05-02T11:22:55.949Z</time></trkpt><trkpt lat="43.0930537" lon="-3.8980185"><ele>429.0</ele><time>2026-05-02T11:22:56.94Z</time></trkpt><trkpt lat="43.0929815" lon="-3.8981334"><ele>430.79999999999995</ele><time>2026-05-02T11:22:57.944Z</time></trkpt><trkpt lat="43.0929098" lon="-3.8982439"><ele>432.59999999999997</ele><time>2026-05-02T11:22:58.948Z</time></trkpt><trkpt lat="43.0928293" lon="-3.8983385"><ele>434.4</ele><time>2026-05-02T11:22:59.962Z</time></trkpt><trkpt lat="43.0927387" lon="-3.8984233"><ele>436.2</ele><time>2026-05-02T11:23:00.945Z</time></trkpt><trkpt lat="43.092644" lon="-3.8984909"><ele>438.0</ele><time>2026-05-02T11:23:01.947Z</time></trkpt><trkpt lat="43.0925483" lon="-3.8985497"><ele>441.2</ele><time>2026-05-02T11:23:02.945Z</time></trkpt><trkpt lat="43.0924476" lon="-3.8986072"><ele>444.4</ele><time>2026-05-02T11:23:03.941Z</time></trkpt><trkpt lat="43.0923492" lon="-3.8986633"><ele>447.59999999999997</ele><time>2026-05-02T11:23:04.94Z</time></trkpt><trkpt lat="43.0922425" lon="-3.8987226"><ele>450.79999999999995</ele><time>2026-05-02T11:23:05.945Z</time></trkpt><trkpt lat="43.0921392" lon="-3.8987854"><ele>454.0</ele><time>2026-05-02T11:23:06.944Z</time></trkpt><trkpt lat="43.0920405" lon="-3.8988418"><ele>455.6666666666667</ele><time>2026-05-02T11:23:07.94Z</time></trkpt><trkpt lat="43.0919425" lon="-3.8988965"><ele>457.33333333333337</ele><time>2026-05-02T11:23:08.96Z</time></trkpt><trkpt lat="43.0918494" lon="-3.8989383"><ele>459.0</ele><time>2026-05-02T11:23:09.935Z</time></trkpt><trkpt lat="43.0917615" lon="-3.8989556"><ele>460.66666666666663</ele><time>2026-05-02T11:23:10.936Z</time></trkpt><trkpt lat="43.091684" lon="-3.8989301"><ele>462.3333333333333</ele><time>2026-05-02T11:23:11.935Z</time></trkpt><trkpt lat="43.091628" lon="-3.8988654"><ele>464.0</ele><time>2026-05-02T11:23:12.932Z</time></trkpt><trkpt lat="43.0915824" lon="-3.8987847"><ele>465.4</ele><time>2026-05-02T11:23:13.935Z</time></trkpt><trkpt lat="43.0915493" lon="-3.8986735"><ele>466.79999999999995</ele><time>2026-05-02T11:23:14.933Z</time></trkpt><trkpt lat="43.0915249" lon="-3.8985507"><ele>468.20000000000005</ele><time>2026-05-02T11:23:15.937Z</time></trkpt><trkpt lat="43.0915104" lon="-3.8984215"><ele>469.6</ele><time>2026-05-02T11:23:16.94Z</time></trkpt><trkpt lat="43.0915047" lon="-3.8982966"><ele>471.0</ele><time>2026-05-02T11:23:17.944Z</time></trkpt><trkpt lat="43.0915009" lon="-3.8981699"><ele>471.0</ele><time>2026-05-02T11:23:18.943Z</time></trkpt><trkpt lat="43.0915093" lon="-3.8980473"><ele>471.0</ele><time>2026-05-02T11:23:19.943Z</time></trkpt><trkpt lat="43.0915191" lon="-3.8979255"><ele>471.0</ele><time>2026-05-02T11:23:20.947Z</time></trkpt><trkpt lat="43.0915269" lon="-3.8978046"><ele>471.0</ele><time>2026-05-02T11:23:21.945Z</time></trkpt><trkpt lat="43.0915406" lon="-3.8976821"><ele>471.0</ele><time>2026-05-02T11:23:22.947Z</time></trkpt><trkpt lat="43.0915525" lon="-3.8975551"><ele>471.0</ele><time>2026-05-02T11:23:23.947Z</time></trkpt><trkpt lat="43.0915574" lon="-3.8974337"><ele>471.0</ele><time>2026-05-02T11:23:24.944Z</time></trkpt><trkpt lat="43.0915542" lon="-3.8972964"><ele>471.0</ele><time>2026-05-02T11:23:25.951Z</time></trkpt><trkpt lat="43.091541" lon="-3.8971577"><ele>471.0</ele><time>2026-05-02T11:23:26.954Z</time></trkpt><trkpt lat="43.0915118" lon="-3.897033"><ele>471.0</ele><time>2026-05-02T11:23:27.953Z</time></trkpt><trkpt lat="43.0914577" lon="-3.8969205"><ele>471.0</ele><time>2026-05-02T11:23:28.953Z</time></trkpt><trkpt lat="43.0913839" lon="-3.8968253"><ele>471.0</ele><time>2026-05-02T11:23:29.96Z</time></trkpt><trkpt lat="43.0912875" lon="-3.8967559"><ele>471.0</ele><time>2026-05-02T11:23:30.978Z</time></trkpt><trkpt lat="43.0911853" lon="-3.8967321"><ele>471.0</ele><time>2026-05-02T11:23:31.96Z</time></trkpt><trkpt lat="43.0910771" lon="-3.8967559"><ele>471.0</ele><time>2026-05-02T11:23:32.961Z</time></trkpt><trkpt lat="43.0909718" lon="-3.8968167"><ele>471.0</ele><time>2026-05-02T11:23:33.96Z</time></trkpt><trkpt lat="43.09089" lon="-3.8969209"><ele>471.0</ele><time>2026-05-02T11:23:34.955Z</time></trkpt><trkpt lat="43.0908287" lon="-3.8970352"><ele>471.0</ele><time>2026-05-02T11:23:35.96Z</time></trkpt><trkpt lat="43.0908031" lon="-3.8971805"><ele>471.0</ele><time>2026-05-02T11:23:36.957Z</time></trkpt><trkpt lat="43.0908083" lon="-3.8973386"><ele>471.0</ele><time>2026-05-02T11:23:37.958Z</time></trkpt><trkpt lat="43.0908451" lon="-3.8974993"><ele>471.0</ele><time>2026-05-02T11:23:38.963Z</time></trkpt><trkpt lat="43.0908787" lon="-3.8976535"><ele>471.0</ele><time>2026-05-02T11:23:39.954Z</time></trkpt><trkpt lat="43.090908" lon="-3.8978047"><ele>471.0</ele><time>2026-05-02T11:23:40.955Z</time></trkpt><trkpt lat="43.0909266" lon="-3.8979473"><ele>471.0</ele><time>2026-05-02T11:23:41.951Z</time></trkpt><trkpt lat="43.0909237" lon="-3.8980873"><ele>471.0</ele><time>2026-05-02T11:23:42.95Z</time></trkpt><trkpt lat="43.0908947" lon="-3.8982143"><ele>471.0</ele><time>2026-05-02T11:23:43.957Z</time></trkpt><trkpt lat="43.0908364" lon="-3.8983195"><ele>471.0</ele><time>2026-05-02T11:23:44.953Z</time></trkpt><trkpt lat="43.0907545" lon="-3.8983936"><ele>471.0</ele><time>2026-05-02T11:23:45.949Z</time></trkpt><trkpt lat="43.0906578" lon="-3.8984476"><ele>471.0</ele><time>2026-05-02T11:23:46.952Z</time></trkpt><trkpt lat="43.0905543" lon="-3.8984728"><ele>471.0</ele><time>2026-05-02T11:23:47.944Z</time></trkpt><trkpt lat="43.0904518" lon="-3.8984578"><ele>475.0</ele><time>2026-05-02T11:23:48.948Z</time></trkpt><trkpt lat="43.0903484" lon="-3.898411"><ele>479.0</ele><time>2026-05-02T11:23:49.945Z</time></trkpt><trkpt lat="43.0902609" lon="-3.8983325"><ele>483.0</ele><time>2026-05-02T11:23:50.948Z</time></trkpt><trkpt lat="43.0901932" lon="-3.8982085"><ele>487.0</ele><time>2026-05-02T11:23:51.951Z</time></trkpt><trkpt lat="43.0901351" lon="-3.8980778"><ele>491.0</ele><time>2026-05-02T11:23:52.94Z</time></trkpt><trkpt lat="43.0900866" lon="-3.8979374"><ele>491.0</ele><time>2026-05-02T11:23:53.943Z</time></trkpt><trkpt lat="43.0900506" lon="-3.8977768"><ele>491.0</ele><time>2026-05-02T11:23:54.942Z</time></trkpt><trkpt lat="43.0900137" lon="-3.8976169"><ele>491.0</ele><time>2026-05-02T11:23:55.94Z</time></trkpt><trkpt lat="43.0899762" lon="-3.8974608"><ele>491.0</ele><time>2026-05-02T11:23:56.943Z</time></trkpt><trkpt lat="43.0899395" lon="-3.897299"><ele>496.5</ele><time>2026-05-02T11:23:57.945Z</time></trkpt><trkpt lat="43.0899034" lon="-3.8971355"><ele>502.0</ele><time>2026-05-02T11:23:58.946Z</time></trkpt><trkpt lat="43.0898644" lon="-3.8969753"><ele>507.5</ele><time>2026-05-02T11:23:59.945Z</time></trkpt><trkpt lat="43.0898241" lon="-3.8968155"><ele>513.0</ele><time>2026-05-02T11:24:00.944Z</time></trkpt><trkpt lat="43.0897901" lon="-3.8966527"><ele>513.0</ele><time>2026-05-02T11:24:01.961Z</time></trkpt><trkpt lat="43.0897614" lon="-3.8964904"><ele>513.0</ele><time>2026-05-02T11:24:02.946Z</time></trkpt><trkpt lat="43.0897272" lon="-3.8963334"><ele>513.0</ele><time>2026-05-02T11:24:03.947Z</time></trkpt><trkpt lat="43.0896882" lon="-3.8961831"><ele>513.0</ele><time>2026-05-02T11:24:04.946Z</time></trkpt><trkpt lat="43.0896252" lon="-3.8960398"><ele>511.25</ele><time>2026-05-02T11:24:05.944Z</time></trkpt><trkpt lat="43.0895515" lon="-3.8959065"><ele>509.5</ele><time>2026-05-02T11:24:06.942Z</time></trkpt><trkpt lat="43.0894633" lon="-3.8957973"><ele>507.75</ele><time>2026-05-02T11:24:07.949Z</time></trkpt><trkpt lat="43.0893658" lon="-3.895688"><ele>506.0</ele><time>2026-05-02T11:24:08.958Z</time></trkpt><trkpt lat="43.0892645" lon="-3.89558"><ele>506.0</ele><time>2026-05-02T11:24:09.941Z</time></trkpt><trkpt lat="43.089162" lon="-3.8954754"><ele>506.0</ele><time>2026-05-02T11:24:10.949Z</time></trkpt><trkpt lat="43.0890571" lon="-3.8953712"><ele>506.0</ele><time>2026-05-02T11:24:11.944Z</time></trkpt><trkpt lat="43.0889509" lon="-3.895261"><ele>506.0</ele><time>2026-05-02T11:24:12.947Z</time></trkpt><trkpt lat="43.0888416" lon="-3.8951507"><ele>509.25</ele><time>2026-05-02T11:24:13.947Z</time></trkpt><trkpt lat="43.0887316" lon="-3.8950497"><ele>512.5</ele><time>2026-05-02T11:24:14.953Z</time></trkpt><trkpt lat="43.0886153" lon="-3.8949595"><ele>515.75</ele><time>2026-05-02T11:24:15.952Z</time></trkpt><trkpt lat="43.0884975" lon="-3.8948756"><ele>519.0</ele><time>2026-05-02T11:24:16.954Z</time></trkpt><trkpt lat="43.0883742" lon="-3.8948021"><ele>525.0</ele><time>2026-05-02T11:24:17.959Z</time></trkpt><trkpt lat="43.088251" lon="-3.8947272"><ele>531.0</ele><time>2026-05-02T11:24:18.953Z</time></trkpt><trkpt lat="43.0881323" lon="-3.8946447"><ele>537.0</ele><time>2026-05-02T11:24:19.952Z</time></trkpt><trkpt lat="43.0880162" lon="-3.8945521"><ele>543.0</ele><time>2026-05-02T11:24:20.958Z</time></trkpt><trkpt lat="43.0879002" lon="-3.894462"><ele>543.0</ele><time>2026-05-02T11:24:21.957Z</time></trkpt><trkpt lat="43.0877869" lon="-3.8943711"><ele>543.0</ele><time>2026-05-02T11:24:22.955Z</time></trkpt><trkpt lat="43.0876749" lon="-3.8942879"><ele>543.0</ele><time>2026-05-02T11:24:23.951Z</time></trkpt><trkpt lat="43.0875606" lon="-3.8942087"><ele>543.0</ele><time>2026-05-02T11:24:24.949Z</time></trkpt><trkpt lat="43.0874453" lon="-3.8941295"><ele>544.75</ele><time>2026-05-02T11:24:25.953Z</time></trkpt><trkpt lat="43.0873255" lon="-3.8940534"><ele>546.5</ele><time>2026-05-02T11:24:26.955Z</time></trkpt><trkpt lat="43.0872102" lon="-3.8939854"><ele>548.25</ele><time>2026-05-02T11:24:27.955Z</time></trkpt><trkpt lat="43.087094" lon="-3.8939238"><ele>550.0</ele><time>2026-05-02T11:24:28.958Z</time></trkpt><trkpt lat="43.0869749" lon="-3.8938717"><ele>550.0</ele><time>2026-05-02T11:24:29.952Z</time></trkpt><trkpt lat="43.0868497" lon="-3.8938165"><ele>550.0</ele><time>2026-05-02T11:24:30.953Z</time></trkpt><trkpt lat="43.0867274" lon="-3.8937612"><ele>550.0</ele><time>2026-05-02T11:24:31.951Z</time></trkpt><trkpt lat="43.0866058" lon="-3.8937054"><ele>550.0</ele><time>2026-05-02T11:24:32.967Z</time></trkpt><trkpt lat="43.0864873" lon="-3.8936513"><ele>553.25</ele><time>2026-05-02T11:24:33.951Z</time></trkpt><trkpt lat="43.0863625" lon="-3.8935993"><ele>556.5</ele><time>2026-05-02T11:24:34.946Z</time></trkpt><trkpt lat="43.0862328" lon="-3.8935625"><ele>559.75</ele><time>2026-05-02T11:24:35.947Z</time></trkpt><trkpt lat="43.086102" lon="-3.8935531"><ele>563.0</ele><time>2026-05-02T11:24:36.946Z</time></trkpt><trkpt lat="43.0859689" lon="-3.8935577"><ele>563.0</ele><time>2026-05-02T11:24:37.946Z</time></trkpt><trkpt lat="43.0858336" lon="-3.8935767"><ele>563.0</ele><time>2026-05-02T11:24:38.956Z</time></trkpt><trkpt lat="43.0857036" lon="-3.893592"><ele>563.0</ele><time>2026-05-02T11:24:39.937Z</time></trkpt><trkpt lat="43.0855768" lon="-3.8936201"><ele>563.0</ele><time>2026-05-02T11:24:40.937Z</time></trkpt><trkpt lat="43.0854491" lon="-3.8936479"><ele>564.75</ele><time>2026-05-02T11:24:41.931Z</time></trkpt><trkpt lat="43.0853273" lon="-3.8936829"><ele>566.5</ele><time>2026-05-02T11:24:42.936Z</time></trkpt><trkpt lat="43.085204" lon="-3.8937254"><ele>568.25</ele><time>2026-05-02T11:24:43.935Z</time></trkpt><trkpt lat="43.085085" lon="-3.8937653"><ele>570.0</ele><time>2026-05-02T11:24:44.941Z</time></trkpt><trkpt lat="43.0849628" lon="-3.8938058"><ele>572.75</ele><time>2026-05-02T11:24:45.942Z</time></trkpt><trkpt lat="43.0848368" lon="-3.8938454"><ele>575.5</ele><time>2026-05-02T11:24:46.943Z</time></trkpt><trkpt lat="43.0847163" lon="-3.8938841"><ele>578.25</ele><time>2026-05-02T11:24:47.943Z</time></trkpt><trkpt lat="43.0845931" lon="-3.8939212"><ele>581.0</ele><time>2026-05-02T11:24:48.943Z</time></trkpt><trkpt lat="43.0844715" lon="-3.8939528"><ele>581.0</ele><time>2026-05-02T11:24:49.943Z</time></trkpt><trkpt lat="43.0843473" lon="-3.893971"><ele>581.0</ele><time>2026-05-02T11:24:50.942Z</time></trkpt><trkpt lat="43.0842264" lon="-3.8939733"><ele>581.0</ele><time>2026-05-02T11:24:51.94Z</time></trkpt><trkpt lat="43.0841162" lon="-3.8939619"><ele>581.0</ele><time>2026-05-02T11:24:52.933Z</time></trkpt><trkpt lat="43.0840084" lon="-3.893916"><ele>585.5</ele><time>2026-05-02T11:24:53.932Z</time></trkpt><trkpt lat="43.0839075" lon="-3.8938399"><ele>590.0</ele><time>2026-05-02T11:24:54.931Z</time></trkpt><trkpt lat="43.0838175" lon="-3.8937487"><ele>594.5</ele><time>2026-05-02T11:24:55.93Z</time></trkpt><trkpt lat="43.0837284" lon="-3.8936573"><ele>599.0</ele><time>2026-05-02T11:24:56.94Z</time></trkpt><trkpt lat="43.0836401" lon="-3.8935503"><ele>599.0</ele><time>2026-05-02T11:24:57.942Z</time></trkpt><trkpt lat="43.0835497" lon="-3.893442"><ele>599.0</ele><time>2026-05-02T11:24:58.946Z</time></trkpt><trkpt lat="43.0834535" lon="-3.8933411"><ele>599.0</ele><time>2026-05-02T11:24:59.944Z</time></trkpt><trkpt lat="43.0833565" lon="-3.8932532"><ele>599.0</ele><time>2026-05-02T11:25:00.945Z</time></trkpt><trkpt lat="43.0832562" lon="-3.8931811"><ele>597.6</ele><time>2026-05-02T11:25:01.943Z</time></trkpt><trkpt lat="43.083156" lon="-3.8931243"><ele>596.2</ele><time>2026-05-02T11:25:02.948Z</time></trkpt><trkpt lat="43.0830512" lon="-3.8930904"><ele>594.8000000000001</ele><time>2026-05-02T11:25:03.981Z</time></trkpt><trkpt lat="43.0829533" lon="-3.8930771"><ele>593.4</ele><time>2026-05-02T11:25:04.949Z</time></trkpt><trkpt lat="43.08285" lon="-3.8930847"><ele>592.0</ele><time>2026-05-02T11:25:05.947Z</time></trkpt><trkpt lat="43.0827561" lon="-3.8931007"><ele>592.0</ele><time>2026-05-02T11:25:06.954Z</time></trkpt><trkpt lat="43.0826632" lon="-3.8931202"><ele>592.0</ele><time>2026-05-02T11:25:07.948Z</time></trkpt><trkpt lat="43.0825742" lon="-3.8931441"><ele>592.0</ele><time>2026-05-02T11:25:08.958Z</time></trkpt><trkpt lat="43.0824767" lon="-3.8931717"><ele>592.0</ele><time>2026-05-02T11:25:09.949Z</time></trkpt><trkpt lat="43.0823745" lon="-3.8932009"><ele>592.0</ele><time>2026-05-02T11:25:10.947Z</time></trkpt><trkpt lat="43.0822633" lon="-3.8932293"><ele>594.25</ele><time>2026-05-02T11:25:11.946Z</time></trkpt><trkpt lat="43.0821502" lon="-3.8932563"><ele>596.5</ele><time>2026-05-02T11:25:12.944Z</time></trkpt><trkpt lat="43.0820337" lon="-3.8932803"><ele>598.75</ele><time>2026-05-02T11:25:13.949Z</time></trkpt><trkpt lat="43.0819123" lon="-3.8933047"><ele>601.0</ele><time>2026-05-02T11:25:14.942Z</time></trkpt><trkpt lat="43.0817893" lon="-3.8933328"><ele>601.0</ele><time>2026-05-02T11:25:15.944Z</time></trkpt><trkpt lat="43.0816634" lon="-3.8933689"><ele>601.0</ele><time>2026-05-02T11:25:16.945Z</time></trkpt><trkpt lat="43.0815388" lon="-3.8934013"><ele>601.0</ele><time>2026-05-02T11:25:17.946Z</time></trkpt><trkpt lat="43.0814177" lon="-3.8934431"><ele>601.0</ele><time>2026-05-02T11:25:18.945Z</time></trkpt><trkpt lat="43.0812966" lon="-3.8934878"><ele>604.5</ele><time>2026-05-02T11:25:19.951Z</time></trkpt><trkpt lat="43.0811712" lon="-3.8935381"><ele>608.0</ele><time>2026-05-02T11:25:20.951Z</time></trkpt><trkpt lat="43.0810474" lon="-3.8935941"><ele>611.5</ele><time>2026-05-02T11:25:21.949Z</time></trkpt><trkpt lat="43.0809245" lon="-3.8936448"><ele>615.0</ele><time>2026-05-02T11:25:22.948Z</time></trkpt><trkpt lat="43.0807939" lon="-3.8937015"><ele>618.25</ele><time>2026-05-02T11:25:23.949Z</time></trkpt><trkpt lat="43.0806709" lon="-3.8937528"><ele>621.5</ele><time>2026-05-02T11:25:24.948Z</time></trkpt><trkpt lat="43.080544" lon="-3.8938056"><ele>624.75</ele><time>2026-05-02T11:25:25.954Z</time></trkpt><trkpt lat="43.0804187" lon="-3.8938551"><ele>628.0</ele><time>2026-05-02T11:25:26.951Z</time></trkpt><trkpt lat="43.080295" lon="-3.8939008"><ele>628.0</ele><time>2026-05-02T11:25:27.957Z</time></trkpt><trkpt lat="43.0801687" lon="-3.8939296"><ele>628.0</ele><time>2026-05-02T11:25:28.953Z</time></trkpt><trkpt lat="43.0800426" lon="-3.8939409"><ele>628.0</ele><time>2026-05-02T11:25:29.948Z</time></trkpt><trkpt lat="43.0799165" lon="-3.8939305"><ele>628.0</ele><time>2026-05-02T11:25:30.946Z</time></trkpt><trkpt lat="43.079797" lon="-3.8938953"><ele>631.25</ele><time>2026-05-02T11:25:31.944Z</time></trkpt><trkpt lat="43.0796839" lon="-3.893843"><ele>634.5</ele><time>2026-05-02T11:25:32.945Z</time></trkpt><trkpt lat="43.0795741" lon="-3.8937788"><ele>637.75</ele><time>2026-05-02T11:25:33.964Z</time></trkpt><trkpt lat="43.0794612" lon="-3.8936872"><ele>641.0</ele><time>2026-05-02T11:25:34.944Z</time></trkpt><trkpt lat="43.0793569" lon="-3.8935853"><ele>641.0</ele><time>2026-05-02T11:25:35.95Z</time></trkpt><trkpt lat="43.0792524" lon="-3.8934774"><ele>641.0</ele><time>2026-05-02T11:25:36.952Z</time></trkpt><trkpt lat="43.0791476" lon="-3.8933674"><ele>641.0</ele><time>2026-05-02T11:25:37.951Z</time></trkpt><trkpt lat="43.0790464" lon="-3.8932604"><ele>641.0</ele><time>2026-05-02T11:25:38.961Z</time></trkpt><trkpt lat="43.0789449" lon="-3.893156"><ele>641.5</ele><time>2026-05-02T11:25:39.95Z</time></trkpt><trkpt lat="43.0788398" lon="-3.8930542"><ele>642.0</ele><time>2026-05-02T11:25:40.953Z</time></trkpt><trkpt lat="43.0787337" lon="-3.8929576"><ele>642.5</ele><time>2026-05-02T11:25:41.945Z</time></trkpt><trkpt lat="43.0786322" lon="-3.8928583"><ele>643.0</ele><time>2026-05-02T11:25:42.946Z</time></trkpt><trkpt lat="43.0785249" lon="-3.8927587"><ele>643.0</ele><time>2026-05-02T11:25:43.951Z</time></trkpt><trkpt lat="43.0784159" lon="-3.892665"><ele>643.0</ele><time>2026-05-02T11:25:44.952Z</time></trkpt><trkpt lat="43.0783047" lon="-3.8925743"><ele>643.0</ele><time>2026-05-02T11:25:45.948Z</time></trkpt><trkpt lat="43.0781934" lon="-3.8924803"><ele>643.0</ele><time>2026-05-02T11:25:46.949Z</time></trkpt><trkpt lat="43.0780812" lon="-3.8923882"><ele>645.75</ele><time>2026-05-02T11:25:47.942Z</time></trkpt><trkpt lat="43.0779705" lon="-3.892285"><ele>648.5</ele><time>2026-05-02T11:25:48.939Z</time></trkpt><trkpt lat="43.0778719" lon="-3.8921755"><ele>651.25</ele><time>2026-05-02T11:25:49.943Z</time></trkpt><trkpt lat="43.0777782" lon="-3.8920592"><ele>654.0</ele><time>2026-05-02T11:25:50.943Z</time></trkpt><trkpt lat="43.0776862" lon="-3.8919269"><ele>654.0</ele><time>2026-05-02T11:25:51.948Z</time></trkpt><trkpt lat="43.0775977" lon="-3.8917861"><ele>654.0</ele><time>2026-05-02T11:25:52.939Z</time></trkpt><trkpt lat="43.0775274" lon="-3.8916499"><ele>654.0</ele><time>2026-05-02T11:25:53.949Z</time></trkpt><trkpt lat="43.0774743" lon="-3.891488"><ele>654.0</ele><time>2026-05-02T11:25:54.945Z</time></trkpt><trkpt lat="43.0774371" lon="-3.8913071"><ele>658.0</ele><time>2026-05-02T11:25:55.949Z</time></trkpt><trkpt lat="43.0773963" lon="-3.8911324"><ele>662.0</ele><time>2026-05-02T11:25:56.943Z</time></trkpt><trkpt lat="43.0773632" lon="-3.8909622"><ele>666.0</ele><time>2026-05-02T11:25:57.948Z</time></trkpt><trkpt lat="43.0773334" lon="-3.8907876"><ele>670.0</ele><time>2026-05-02T11:25:58.955Z</time></trkpt><trkpt lat="43.0772963" lon="-3.890621"><ele>670.0</ele><time>2026-05-02T11:25:59.942Z</time></trkpt><trkpt lat="43.0772538" lon="-3.890463"><ele>670.0</ele><time>2026-05-02T11:26:00.946Z</time></trkpt><trkpt lat="43.0772061" lon="-3.8903172"><ele>670.0</ele><time>2026-05-02T11:26:01.954Z</time></trkpt><trkpt lat="43.0771383" lon="-3.8901801"><ele>670.0</ele><time>2026-05-02T11:26:02.951Z</time></trkpt><trkpt lat="43.0770611" lon="-3.8900578"><ele>668.5</ele><time>2026-05-02T11:26:03.952Z</time></trkpt><trkpt lat="43.0769736" lon="-3.8899473"><ele>667.0</ele><time>2026-05-02T11:26:04.973Z</time></trkpt><trkpt lat="43.0768762" lon="-3.8898683"><ele>665.5</ele><time>2026-05-02T11:26:05.96Z</time></trkpt><trkpt lat="43.0767787" lon="-3.8898002"><ele>664.0</ele><time>2026-05-02T11:26:06.954Z</time></trkpt><trkpt lat="43.0766806" lon="-3.8897371"><ele>667.2</ele><time>2026-05-02T11:26:07.954Z</time></trkpt><trkpt lat="43.0765914" lon="-3.8896915"><ele>670.4000000000001</ele><time>2026-05-02T11:26:08.981Z</time></trkpt><trkpt lat="43.0765098" lon="-3.8896474"><ele>673.6</ele><time>2026-05-02T11:26:09.961Z</time></trkpt><trkpt lat="43.0764229" lon="-3.8896061"><ele>676.8</ele><time>2026-05-02T11:26:10.962Z</time></trkpt><trkpt lat="43.0763394" lon="-3.8895594"><ele>680.0</ele><time>2026-05-02T11:26:11.962Z</time></trkpt><trkpt lat="43.076257" lon="-3.889511"><ele>680.0</ele><time>2026-05-02T11:26:12.96Z</time></trkpt><trkpt lat="43.076171" lon="-3.8894688"><ele>680.0</ele><time>2026-05-02T11:26:13.96Z</time></trkpt><trkpt lat="43.0760921" lon="-3.8894252"><ele>680.0</ele><time>2026-05-02T11:26:14.962Z</time></trkpt><trkpt lat="43.0760152" lon="-3.8893752"><ele>680.0</ele><time>2026-05-02T11:26:15.959Z</time></trkpt><trkpt lat="43.0759353" lon="-3.8893293"><ele>680.0</ele><time>2026-05-02T11:26:16.96Z</time></trkpt><trkpt lat="43.0758594" lon="-3.8892847"><ele>680.0</ele><time>2026-05-02T11:26:17.961Z</time></trkpt><trkpt lat="43.0757932" lon="-3.8892517"><ele>679.1666666666666</ele><time>2026-05-02T11:26:18.964Z</time></trkpt><trkpt lat="43.075714" lon="-3.8892216"><ele>678.3333333333333</ele><time>2026-05-02T11:26:54.958Z</time></trkpt><trkpt lat="43.0756306" lon="-3.8891851"><ele>677.5</ele><time>2026-05-02T11:26:56.959Z</time></trkpt><trkpt lat="43.0755199" lon="-3.8891507"><ele>676.6666666666666</ele><time>2026-05-02T11:26:58.961Z</time></trkpt><trkpt lat="43.075455" lon="-3.8891376"><ele>675.8333333333334</ele><time>2026-05-02T11:26:59.955Z</time></trkpt><trkpt lat="43.0753837" lon="-3.8891284"><ele>675.0</ele><time>2026-05-02T11:27:00.954Z</time></trkpt><trkpt lat="43.0753037" lon="-3.889123"><ele>675.0</ele><time>2026-05-02T11:27:01.955Z</time></trkpt><trkpt lat="43.0752143" lon="-3.8891216"><ele>675.0</ele><time>2026-05-02T11:27:02.954Z</time></trkpt><trkpt lat="43.0751284" lon="-3.8891254"><ele>675.0</ele><time>2026-05-02T11:27:03.963Z</time></trkpt><trkpt lat="43.0750386" lon="-3.8891337"><ele>675.0</ele><time>2026-05-02T11:27:04.96Z</time></trkpt><trkpt lat="43.0749473" lon="-3.8891491"><ele>675.0</ele><time>2026-05-02T11:27:05.959Z</time></trkpt><trkpt lat="43.0748565" lon="-3.8891612"><ele>675.0</ele><time>2026-05-02T11:27:06.974Z</time></trkpt><trkpt lat="43.0747617" lon="-3.8891772"><ele>673.8</ele><time>2026-05-02T11:27:07.955Z</time></trkpt><trkpt lat="43.0746612" lon="-3.8891932"><ele>672.6</ele><time>2026-05-02T11:27:08.967Z</time></trkpt><trkpt lat="43.0745585" lon="-3.8892003"><ele>671.4000000000001</ele><time>2026-05-02T11:27:09.958Z</time></trkpt><trkpt lat="43.0744485" lon="-3.8892141"><ele>670.2</ele><time>2026-05-02T11:27:10.963Z</time></trkpt><trkpt lat="43.0743372" lon="-3.8892287"><ele>669.0</ele><time>2026-05-02T11:27:11.96Z</time></trkpt><trkpt lat="43.0742235" lon="-3.8892413"><ele>669.0</ele><time>2026-05-02T11:27:12.959Z</time></trkpt><trkpt lat="43.0741091" lon="-3.8892483"><ele>669.0</ele><time>2026-05-02T11:27:13.956Z</time></trkpt><trkpt lat="43.0739985" lon="-3.8892437"><ele>669.0</ele><time>2026-05-02T11:27:14.958Z</time></trkpt><trkpt lat="43.0738941" lon="-3.889226"><ele>669.0</ele><time>2026-05-02T11:27:15.956Z</time></trkpt><trkpt lat="43.0737865" lon="-3.8891933"><ele>669.0</ele><time>2026-05-02T11:27:16.958Z</time></trkpt><trkpt lat="43.0736819" lon="-3.88914"><ele>672.0</ele><time>2026-05-02T11:27:17.956Z</time></trkpt><trkpt lat="43.0735899" lon="-3.8890566"><ele>675.0</ele><time>2026-05-02T11:27:18.96Z</time></trkpt><trkpt lat="43.0735098" lon="-3.888959"><ele>678.0</ele><time>2026-05-02T11:27:19.953Z</time></trkpt><trkpt lat="43.0734455" lon="-3.8888472"><ele>681.0</ele><time>2026-05-02T11:27:20.949Z</time></trkpt><trkpt lat="43.0733816" lon="-3.888718"><ele>684.0</ele><time>2026-05-02T11:27:21.952Z</time></trkpt><trkpt lat="43.0733243" lon="-3.8885731"><ele>684.0</ele><time>2026-05-02T11:27:22.944Z</time></trkpt><trkpt lat="43.0732799" lon="-3.8884307"><ele>684.0</ele><time>2026-05-02T11:27:23.952Z</time></trkpt><trkpt lat="43.073242" lon="-3.8882879"><ele>684.0</ele><time>2026-05-02T11:27:24.956Z</time></trkpt><trkpt lat="43.073202" lon="-3.8881524"><ele>684.0</ele><time>2026-05-02T11:27:25.955Z</time></trkpt><trkpt lat="43.0731598" lon="-3.8880273"><ele>684.0</ele><time>2026-05-02T11:27:26.947Z</time></trkpt><trkpt lat="43.0730965" lon="-3.887895"><ele>687.5</ele><time>2026-05-02T11:27:27.952Z</time></trkpt><trkpt lat="43.0730203" lon="-3.8877828"><ele>691.0</ele><time>2026-05-02T11:27:28.956Z</time></trkpt><trkpt lat="43.0729239" lon="-3.8876881"><ele>694.5</ele><time>2026-05-02T11:27:29.95Z</time></trkpt><trkpt lat="43.0728256" lon="-3.887601"><ele>698.0</ele><time>2026-05-02T11:27:30.951Z</time></trkpt><trkpt lat="43.0727272" lon="-3.8875244"><ele>698.0</ele><time>2026-05-02T11:27:31.949Z</time></trkpt><trkpt lat="43.0726298" lon="-3.8874598"><ele>698.0</ele><time>2026-05-02T11:27:32.961Z</time></trkpt><trkpt lat="43.0725325" lon="-3.8873956"><ele>698.0</ele><time>2026-05-02T11:27:33.956Z</time></trkpt><trkpt lat="43.0724464" lon="-3.8873296"><ele>698.0</ele><time>2026-05-02T11:27:34.959Z</time></trkpt><trkpt lat="43.0723594" lon="-3.8872641"><ele>698.0</ele><time>2026-05-02T11:27:35.962Z</time></trkpt><trkpt lat="43.0722738" lon="-3.8871984"><ele>702.5999999999999</ele><time>2026-05-02T11:27:36.962Z</time></trkpt><trkpt lat="43.0721904" lon="-3.8871304"><ele>707.1999999999999</ele><time>2026-05-02T11:27:37.98Z</time></trkpt><trkpt lat="43.0721107" lon="-3.8870618"><ele>711.8</ele><time>2026-05-02T11:27:38.973Z</time></trkpt><trkpt lat="43.072032" lon="-3.8869995"><ele>716.4</ele><time>2026-05-02T11:27:39.963Z</time></trkpt><trkpt lat="43.0719509" lon="-3.8869365"><ele>721.0</ele><time>2026-05-02T11:27:40.964Z</time></trkpt><trkpt lat="43.0718707" lon="-3.8868712"><ele>721.0</ele><time>2026-05-02T11:27:41.955Z</time></trkpt><trkpt lat="43.0717896" lon="-3.8868038"><ele>721.0</ele><time>2026-05-02T11:27:42.958Z</time></trkpt><trkpt lat="43.0717071" lon="-3.8867229"><ele>721.0</ele><time>2026-05-02T11:27:43.961Z</time></trkpt><trkpt lat="43.0716205" lon="-3.8866237"><ele>721.0</ele><time>2026-05-02T11:27:44.956Z</time></trkpt><trkpt lat="43.0715416" lon="-3.8865126"><ele>721.0</ele><time>2026-05-02T11:27:45.963Z</time></trkpt><trkpt lat="43.071464" lon="-3.8863683"><ele>723.25</ele><time>2026-05-02T11:27:46.956Z</time></trkpt><trkpt lat="43.0713901" lon="-3.8862314"><ele>725.5</ele><time>2026-05-02T11:27:47.962Z</time></trkpt><trkpt lat="43.0713147" lon="-3.8860978"><ele>727.75</ele><time>2026-05-02T11:27:48.958Z</time></trkpt><trkpt lat="43.0712435" lon="-3.88596"><ele>730.0</ele><time>2026-05-02T11:27:49.955Z</time></trkpt><trkpt lat="43.0711763" lon="-3.8858243"><ele>730.0</ele><time>2026-05-02T11:27:50.96Z</time></trkpt><trkpt lat="43.0711134" lon="-3.8856941"><ele>730.0</ele><time>2026-05-02T11:27:51.965Z</time></trkpt><trkpt lat="43.071045" lon="-3.8855704"><ele>730.0</ele><time>2026-05-02T11:27:52.966Z</time></trkpt><trkpt lat="43.0709758" lon="-3.8854443"><ele>730.0</ele><time>2026-05-02T11:27:53.967Z</time></trkpt><trkpt lat="43.0709107" lon="-3.885325"><ele>730.0</ele><time>2026-05-02T11:27:54.963Z</time></trkpt><trkpt lat="43.0708445" lon="-3.8852092"><ele>730.0</ele><time>2026-05-02T11:27:55.966Z</time></trkpt><trkpt lat="43.0707771" lon="-3.8851023"><ele>730.0</ele><time>2026-05-02T11:27:56.968Z</time></trkpt><trkpt lat="43.0707119" lon="-3.8849889"><ele>730.0</ele><time>2026-05-02T11:27:57.965Z</time></trkpt><trkpt lat="43.0706522" lon="-3.8848729"><ele>730.0</ele><time>2026-05-02T11:27:58.968Z</time></trkpt><trkpt lat="43.070593" lon="-3.8847575"><ele>732.2</ele><time>2026-05-02T11:27:59.972Z</time></trkpt><trkpt lat="43.0705368" lon="-3.8846443"><ele>734.4</ele><time>2026-05-02T11:28:00.964Z</time></trkpt><trkpt lat="43.0704804" lon="-3.8845337"><ele>736.5999999999999</ele><time>2026-05-02T11:28:01.967Z</time></trkpt><trkpt lat="43.0704173" lon="-3.884428"><ele>738.8</ele><time>2026-05-02T11:28:02.961Z</time></trkpt><trkpt lat="43.0703603" lon="-3.8843239"><ele>741.0</ele><time>2026-05-02T11:28:03.969Z</time></trkpt><trkpt lat="43.0703041" lon="-3.8842194"><ele>741.8</ele><time>2026-05-02T11:28:04.952Z</time></trkpt><trkpt lat="43.070239" lon="-3.8841118"><ele>742.5999999999999</ele><time>2026-05-02T11:28:05.963Z</time></trkpt><trkpt lat="43.0701773" lon="-3.8840143"><ele>743.4</ele><time>2026-05-02T11:28:06.968Z</time></trkpt><trkpt lat="43.0701176" lon="-3.8839232"><ele>744.2</ele><time>2026-05-02T11:28:07.968Z</time></trkpt><trkpt lat="43.0700451" lon="-3.883847"><ele>745.0</ele><time>2026-05-02T11:28:08.989Z</time></trkpt><trkpt lat="43.0699643" lon="-3.8837684"><ele>747.8</ele><time>2026-05-02T11:28:09.963Z</time></trkpt><trkpt lat="43.0698793" lon="-3.8836948"><ele>750.6</ele><time>2026-05-02T11:28:10.961Z</time></trkpt><trkpt lat="43.0697902" lon="-3.8836328"><ele>753.4000000000001</ele><time>2026-05-02T11:28:11.967Z</time></trkpt><trkpt lat="43.0697004" lon="-3.8835779"><ele>756.2</ele><time>2026-05-02T11:28:12.96Z</time></trkpt><trkpt lat="43.0696066" lon="-3.8835229"><ele>759.0</ele><time>2026-05-02T11:28:13.968Z</time></trkpt><trkpt lat="43.0695124" lon="-3.8834877"><ele>759.0</ele><time>2026-05-02T11:28:14.962Z</time></trkpt><trkpt lat="43.0694146" lon="-3.8834594"><ele>759.0</ele><time>2026-05-02T11:28:15.963Z</time></trkpt><trkpt lat="43.0693168" lon="-3.8834344"><ele>759.0</ele><time>2026-05-02T11:28:16.965Z</time></trkpt><trkpt lat="43.0691139" lon="-3.8834182"><ele>759.0</ele><time>2026-05-02T11:28:18.966Z</time></trkpt><trkpt lat="43.0690091" lon="-3.8834246"><ele>760.8000000000001</ele><time>2026-05-02T11:28:19.957Z</time></trkpt><trkpt lat="43.0688998" lon="-3.8834485"><ele>762.6</ele><time>2026-05-02T11:28:20.963Z</time></trkpt><trkpt lat="43.0687973" lon="-3.8834824"><ele>764.4</ele><time>2026-05-02T11:28:21.963Z</time></trkpt><trkpt lat="43.0686944" lon="-3.8835247"><ele>766.2</ele><time>2026-05-02T11:28:22.964Z</time></trkpt><trkpt lat="43.0685928" lon="-3.883579"><ele>768.0</ele><time>2026-05-02T11:28:23.96Z</time></trkpt><trkpt lat="43.0684979" lon="-3.8836478"><ele>768.0</ele><time>2026-05-02T11:28:24.962Z</time></trkpt><trkpt lat="43.068403" lon="-3.8837264"><ele>768.0</ele><time>2026-05-02T11:28:25.967Z</time></trkpt><trkpt lat="43.068309" lon="-3.8838159"><ele>768.0</ele><time>2026-05-02T11:28:26.965Z</time></trkpt><trkpt lat="43.0682136" lon="-3.8839102"><ele>768.0</ele><time>2026-05-02T11:28:27.96Z</time></trkpt><trkpt lat="43.0681219" lon="-3.8840136"><ele>770.75</ele><time>2026-05-02T11:28:28.971Z</time></trkpt><trkpt lat="43.0680371" lon="-3.8841393"><ele>773.5</ele><time>2026-05-02T11:28:29.968Z</time></trkpt><trkpt lat="43.0679602" lon="-3.8842533"><ele>776.25</ele><time>2026-05-02T11:28:30.946Z</time></trkpt><trkpt lat="43.0678826" lon="-3.88437"><ele>779.0</ele><time>2026-05-02T11:28:31.961Z</time></trkpt><trkpt lat="43.0678042" lon="-3.8844928"><ele>780.0</ele><time>2026-05-02T11:28:32.971Z</time></trkpt><trkpt lat="43.0677211" lon="-3.8846073"><ele>781.0</ele><time>2026-05-02T11:28:33.965Z</time></trkpt><trkpt lat="43.067636" lon="-3.8847154"><ele>782.0</ele><time>2026-05-02T11:28:34.972Z</time></trkpt><trkpt lat="43.0675471" lon="-3.8848115"><ele>783.0</ele><time>2026-05-02T11:28:35.968Z</time></trkpt><trkpt lat="43.0674502" lon="-3.8849016"><ele>784.4</ele><time>2026-05-02T11:28:36.968Z</time></trkpt><trkpt lat="43.0673504" lon="-3.8849896"><ele>785.8</ele><time>2026-05-02T11:28:37.967Z</time></trkpt><trkpt lat="43.0672541" lon="-3.8850633"><ele>787.2</ele><time>2026-05-02T11:28:38.979Z</time></trkpt><trkpt lat="43.0671558" lon="-3.8851178"><ele>788.6</ele><time>2026-05-02T11:28:39.987Z</time></trkpt><trkpt lat="43.0670643" lon="-3.8851608"><ele>790.0</ele><time>2026-05-02T11:28:40.963Z</time></trkpt><trkpt lat="43.0669808" lon="-3.8851897"><ele>790.4999999999999</ele><time>2026-05-02T11:28:41.959Z</time></trkpt><trkpt lat="43.0669027" lon="-3.8852087"><ele>791.0</ele><time>2026-05-02T11:28:42.962Z</time></trkpt><trkpt lat="43.0668274" lon="-3.8852195"><ele>791.5</ele><time>2026-05-02T11:28:43.963Z</time></trkpt><trkpt lat="43.0667584" lon="-3.8852209"><ele>792.0</ele><time>2026-05-02T11:28:44.968Z</time></trkpt><trkpt lat="43.0666941" lon="-3.8852178"><ele>792.4999999999999</ele><time>2026-05-02T11:28:45.96Z</time></trkpt><trkpt lat="43.066577" lon="-3.8852207"><ele>793.0</ele><time>2026-05-02T11:28:47.962Z</time></trkpt><trkpt lat="43.0664537" lon="-3.8852244"><ele>793.2857142857143</ele><time>2026-05-02T11:28:49.965Z</time></trkpt><trkpt lat="43.0663841" lon="-3.8852241"><ele>793.5714285714286</ele><time>2026-05-02T11:28:50.963Z</time></trkpt><trkpt lat="43.0663181" lon="-3.8852202"><ele>793.8571428571429</ele><time>2026-05-02T11:28:51.966Z</time></trkpt><trkpt lat="43.0662543" lon="-3.8852201"><ele>794.1428571428571</ele><time>2026-05-02T11:28:52.96Z</time></trkpt><trkpt lat="43.0661891" lon="-3.8852135"><ele>794.4285714285714</ele><time>2026-05-02T11:28:53.966Z</time></trkpt><trkpt lat="43.0661165" lon="-3.8852129"><ele>794.7142857142858</ele><time>2026-05-02T11:28:54.968Z</time></trkpt><trkpt lat="43.0660332" lon="-3.8852177"><ele>795.0</ele><time>2026-05-02T11:28:55.965Z</time></trkpt><trkpt lat="43.0659429" lon="-3.8852226"><ele>795.0</ele><time>2026-05-02T11:28:56.968Z</time></trkpt><trkpt lat="43.065848" lon="-3.8852233"><ele>795.0</ele><time>2026-05-02T11:28:57.968Z</time></trkpt><trkpt lat="43.065751" lon="-3.885222"><ele>795.0</ele><time>2026-05-02T11:28:58.972Z</time></trkpt><trkpt lat="43.0656465" lon="-3.8852205"><ele>795.0</ele><time>2026-05-02T11:28:59.969Z</time></trkpt><trkpt lat="43.0655437" lon="-3.8852229"><ele>795.0</ele><time>2026-05-02T11:29:00.968Z</time></trkpt><trkpt lat="43.0654328" lon="-3.8852173"><ele>794.75</ele><time>2026-05-02T11:29:01.959Z</time></trkpt><trkpt lat="43.0653244" lon="-3.8852147"><ele>794.5</ele><time>2026-05-02T11:29:02.963Z</time></trkpt><trkpt lat="43.0652088" lon="-3.885205"><ele>794.25</ele><time>2026-05-02T11:29:03.966Z</time></trkpt><trkpt lat="43.065088" lon="-3.8851959"><ele>794.0</ele><time>2026-05-02T11:29:04.963Z</time></trkpt><trkpt lat="43.0649677" lon="-3.8851884"><ele>794.75</ele><time>2026-05-02T11:29:05.966Z</time></trkpt><trkpt lat="43.0648531" lon="-3.8851758"><ele>795.5</ele><time>2026-05-02T11:29:06.964Z</time></trkpt><trkpt lat="43.064736" lon="-3.8851569"><ele>796.25</ele><time>2026-05-02T11:29:07.961Z</time></trkpt><trkpt lat="43.0646232" lon="-3.8851319"><ele>797.0</ele><time>2026-05-02T11:29:08.991Z</time></trkpt><trkpt lat="43.0645127" lon="-3.8850953"><ele>797.0</ele><time>2026-05-02T11:29:09.961Z</time></trkpt><trkpt lat="43.0644109" lon="-3.8850525"><ele>797.0</ele><time>2026-05-02T11:29:10.987Z</time></trkpt><trkpt lat="43.0643092" lon="-3.8850034"><ele>797.0</ele><time>2026-05-02T11:29:11.968Z</time></trkpt><trkpt lat="43.0642134" lon="-3.8849559"><ele>797.0</ele><time>2026-05-02T11:29:12.968Z</time></trkpt><trkpt lat="43.0641148" lon="-3.8849182"><ele>797.0</ele><time>2026-05-02T11:29:13.969Z</time></trkpt><trkpt lat="43.06402" lon="-3.8848886"><ele>799.0</ele><time>2026-05-02T11:29:14.963Z</time></trkpt><trkpt lat="43.0639178" lon="-3.8848658"><ele>801.0</ele><time>2026-05-02T11:29:15.965Z</time></trkpt><trkpt lat="43.0638193" lon="-3.8848484"><ele>803.0</ele><time>2026-05-02T11:29:16.968Z</time></trkpt><trkpt lat="43.0637307" lon="-3.884846"><ele>805.0</ele><time>2026-05-02T11:29:17.97Z</time></trkpt><trkpt lat="43.063651" lon="-3.8848588"><ele>807.0</ele><time>2026-05-02T11:29:18.971Z</time></trkpt><trkpt lat="43.0635651" lon="-3.8848915"><ele>807.0</ele><time>2026-05-02T11:29:19.975Z</time></trkpt><trkpt lat="43.063491" lon="-3.8849378"><ele>807.0</ele><time>2026-05-02T11:29:20.969Z</time></trkpt><trkpt lat="43.0634217" lon="-3.885002"><ele>807.0</ele><time>2026-05-02T11:29:21.97Z</time></trkpt><trkpt lat="43.0633492" lon="-3.8850902"><ele>807.0</ele><time>2026-05-02T11:29:22.966Z</time></trkpt><trkpt lat="43.0632853" lon="-3.8851753"><ele>807.0</ele><time>2026-05-02T11:29:23.966Z</time></trkpt><trkpt lat="43.0632224" lon="-3.8852603"><ele>807.0</ele><time>2026-05-02T11:29:24.968Z</time></trkpt><trkpt lat="43.0631677" lon="-3.8853418"><ele>809.1666666666666</ele><time>2026-05-02T11:29:25.97Z</time></trkpt><trkpt lat="43.0631065" lon="-3.8854313"><ele>811.3333333333333</ele><time>2026-05-02T11:29:26.97Z</time></trkpt><trkpt lat="43.06305" lon="-3.8855172"><ele>813.5</ele><time>2026-05-02T11:29:27.963Z</time></trkpt><trkpt lat="43.0629845" lon="-3.885607"><ele>815.6666666666666</ele><time>2026-05-02T11:29:28.961Z</time></trkpt><trkpt lat="43.0629274" lon="-3.8856962"><ele>817.8333333333333</ele><time>2026-05-02T11:29:29.963Z</time></trkpt><trkpt lat="43.0628642" lon="-3.8857883"><ele>820.0</ele><time>2026-05-02T11:29:30.963Z</time></trkpt><trkpt lat="43.0627981" lon="-3.8858808"><ele>822.3333333333333</ele><time>2026-05-02T11:29:31.968Z</time></trkpt><trkpt lat="43.0627365" lon="-3.8859627"><ele>824.6666666666666</ele><time>2026-05-02T11:29:32.967Z</time></trkpt><trkpt lat="43.0626773" lon="-3.8860442"><ele>827.0</ele><time>2026-05-02T11:29:33.964Z</time></trkpt><trkpt lat="43.0626131" lon="-3.8861294"><ele>829.3333333333333</ele><time>2026-05-02T11:29:34.962Z</time></trkpt><trkpt lat="43.0625585" lon="-3.8862102"><ele>831.6666666666666</ele><time>2026-05-02T11:29:35.968Z</time></trkpt><trkpt lat="43.0624957" lon="-3.8862958"><ele>834.0</ele><time>2026-05-02T11:29:36.966Z</time></trkpt><trkpt lat="43.0624367" lon="-3.8863765"><ele>835.3333333333334</ele><time>2026-05-02T11:29:37.967Z</time></trkpt><trkpt lat="43.0623681" lon="-3.8864547"><ele>836.6666666666667</ele><time>2026-05-02T11:29:38.974Z</time></trkpt><trkpt lat="43.0622999" lon="-3.8865196"><ele>838.0</ele><time>2026-05-02T11:29:39.967Z</time></trkpt><trkpt lat="43.062226" lon="-3.8865796"><ele>839.3333333333334</ele><time>2026-05-02T11:29:40.965Z</time></trkpt><trkpt lat="43.0621455" lon="-3.8866254"><ele>840.6666666666667</ele><time>2026-05-02T11:29:42.001Z</time></trkpt><trkpt lat="43.0620633" lon="-3.886657"><ele>842.0</ele><time>2026-05-02T11:29:42.966Z</time></trkpt><trkpt lat="43.0619776" lon="-3.8866736"><ele>842.0</ele><time>2026-05-02T11:29:43.965Z</time></trkpt><trkpt lat="43.0618871" lon="-3.8866812"><ele>842.0</ele><time>2026-05-02T11:29:44.965Z</time></trkpt><trkpt lat="43.0617977" lon="-3.8866822"><ele>842.0</ele><time>2026-05-02T11:29:45.965Z</time></trkpt><trkpt lat="43.0617087" lon="-3.8866625"><ele>842.0</ele><time>2026-05-02T11:29:46.963Z</time></trkpt><trkpt lat="43.0616143" lon="-3.8866305"><ele>842.0</ele><time>2026-05-02T11:29:47.964Z</time></trkpt><trkpt lat="43.0615228" lon="-3.8865956"><ele>843.6</ele><time>2026-05-02T11:29:48.963Z</time></trkpt><trkpt lat="43.0614327" lon="-3.886557"><ele>845.2</ele><time>2026-05-02T11:29:49.959Z</time></trkpt><trkpt lat="43.0613446" lon="-3.8865294"><ele>846.8</ele><time>2026-05-02T11:29:50.964Z</time></trkpt><trkpt lat="43.0612553" lon="-3.8865151"><ele>848.4</ele><time>2026-05-02T11:29:51.968Z</time></trkpt><trkpt lat="43.061165" lon="-3.8865063"><ele>850.0</ele><time>2026-05-02T11:29:52.962Z</time></trkpt><trkpt lat="43.0610749" lon="-3.8865123"><ele>850.0</ele><time>2026-05-02T11:29:53.966Z</time></trkpt><trkpt lat="43.0609845" lon="-3.8865355"><ele>850.0</ele><time>2026-05-02T11:29:54.965Z</time></trkpt><trkpt lat="43.0608993" lon="-3.8865833"><ele>850.0</ele><time>2026-05-02T11:29:55.972Z</time></trkpt><trkpt lat="43.0608161" lon="-3.8866519"><ele>850.0</ele><time>2026-05-02T11:29:56.967Z</time></trkpt><trkpt lat="43.0607502" lon="-3.8867389"><ele>850.0</ele><time>2026-05-02T11:29:57.971Z</time></trkpt><trkpt lat="43.0606885" lon="-3.8868484"><ele>853.0</ele><time>2026-05-02T11:29:58.968Z</time></trkpt><trkpt lat="43.0606252" lon="-3.8869505"><ele>856.0</ele><time>2026-05-02T11:29:59.964Z</time></trkpt><trkpt lat="43.0605626" lon="-3.8870586"><ele>859.0</ele><time>2026-05-02T11:30:00.966Z</time></trkpt><trkpt lat="43.0605046" lon="-3.8871644"><ele>862.0</ele><time>2026-05-02T11:30:01.966Z</time></trkpt><trkpt lat="43.0604353" lon="-3.8872698"><ele>865.0</ele><time>2026-05-02T11:30:02.964Z</time></trkpt><trkpt lat="43.0603604" lon="-3.8873713"><ele>865.0</ele><time>2026-05-02T11:30:03.972Z</time></trkpt><trkpt lat="43.0602793" lon="-3.8874586"><ele>865.0</ele><time>2026-05-02T11:30:04.963Z</time></trkpt><trkpt lat="43.0602067" lon="-3.8875265"><ele>865.0</ele><time>2026-05-02T11:30:05.966Z</time></trkpt><trkpt lat="43.0601256" lon="-3.8875645"><ele>865.0</ele><time>2026-05-02T11:30:06.959Z</time></trkpt><trkpt lat="43.0600348" lon="-3.8875862"><ele>865.0</ele><time>2026-05-02T11:30:07.961Z</time></trkpt><trkpt lat="43.0599516" lon="-3.8875969"><ele>868.1666666666666</ele><time>2026-05-02T11:30:08.968Z</time></trkpt><trkpt lat="43.0598675" lon="-3.8875898"><ele>871.3333333333333</ele><time>2026-05-02T11:30:09.959Z</time></trkpt><trkpt lat="43.0597775" lon="-3.8875833"><ele>874.5</ele><time>2026-05-02T11:30:10.963Z</time></trkpt><trkpt lat="43.0596981" lon="-3.887559"><ele>877.6666666666667</ele><time>2026-05-02T11:30:11.981Z</time></trkpt><trkpt lat="43.0596303" lon="-3.8875014"><ele>880.8333333333334</ele><time>2026-05-02T11:30:12.96Z</time></trkpt><trkpt lat="43.0595634" lon="-3.8874427"><ele>884.0</ele><time>2026-05-02T11:30:13.956Z</time></trkpt><trkpt lat="43.0595029" lon="-3.8873857"><ele>884.0000000000001</ele><time>2026-05-02T11:30:14.963Z</time></trkpt><trkpt lat="43.0594399" lon="-3.8873242"><ele>884.0</ele><time>2026-05-02T11:30:15.959Z</time></trkpt><trkpt lat="43.0593775" lon="-3.8872666"><ele>884.0</ele><time>2026-05-02T11:30:16.958Z</time></trkpt><trkpt lat="43.0593264" lon="-3.8872055"><ele>884.0</ele><time>2026-05-02T11:30:17.957Z</time></trkpt><trkpt lat="43.0592665" lon="-3.8871366"><ele>884.0</ele><time>2026-05-02T11:30:18.962Z</time></trkpt><trkpt lat="43.0592051" lon="-3.8870813"><ele>884.0000000000001</ele><time>2026-05-02T11:30:19.963Z</time></trkpt><trkpt lat="43.0591445" lon="-3.8870267"><ele>884.0</ele><time>2026-05-02T11:30:20.966Z</time></trkpt><trkpt lat="43.05903" lon="-3.8869334"><ele>886.1428571428572</ele><time>2026-05-02T11:30:22.966Z</time></trkpt><trkpt lat="43.0589689" lon="-3.8868815"><ele>888.2857142857142</ele><time>2026-05-02T11:30:23.959Z</time></trkpt><trkpt lat="43.0589023" lon="-3.8868516"><ele>890.4285714285713</ele><time>2026-05-02T11:30:24.958Z</time></trkpt><trkpt lat="43.0588359" lon="-3.8868272"><ele>892.5714285714286</ele><time>2026-05-02T11:30:25.97Z</time></trkpt><trkpt lat="43.0587615" lon="-3.8868084"><ele>894.7142857142857</ele><time>2026-05-02T11:30:26.963Z</time></trkpt><trkpt lat="43.0586882" lon="-3.886793"><ele>896.8571428571428</ele><time>2026-05-02T11:30:27.967Z</time></trkpt><trkpt lat="43.0586147" lon="-3.8867906"><ele>898.9999999999999</ele><time>2026-05-02T11:30:28.967Z</time></trkpt><trkpt lat="43.0585385" lon="-3.8867955"><ele>898.9999999999999</ele><time>2026-05-02T11:30:29.967Z</time></trkpt><trkpt lat="43.0584654" lon="-3.8868111"><ele>899.0</ele><time>2026-05-02T11:30:30.968Z</time></trkpt><trkpt lat="43.058396" lon="-3.8868296"><ele>898.9999999999999</ele><time>2026-05-02T11:30:31.971Z</time></trkpt><trkpt lat="43.0583238" lon="-3.8868583"><ele>898.9999999999999</ele><time>2026-05-02T11:30:32.965Z</time></trkpt><trkpt lat="43.0582539" lon="-3.8868922"><ele>899.0</ele><time>2026-05-02T11:30:33.962Z</time></trkpt><trkpt lat="43.0581864" lon="-3.8869255"><ele>898.9999999999999</ele><time>2026-05-02T11:30:34.965Z</time></trkpt><trkpt lat="43.0581182" lon="-3.8869548"><ele>898.9999999999999</ele><time>2026-05-02T11:30:35.967Z</time></trkpt><trkpt lat="43.0580422" lon="-3.88698"><ele>900.5000000000001</ele><time>2026-05-02T11:30:36.959Z</time></trkpt><trkpt lat="43.0579706" lon="-3.8870031"><ele>902.0</ele><time>2026-05-02T11:30:37.962Z</time></trkpt><trkpt lat="43.057895" lon="-3.887019"><ele>903.5</ele><time>2026-05-02T11:30:38.976Z</time></trkpt><trkpt lat="43.0578211" lon="-3.8870305"><ele>905.0</ele><time>2026-05-02T11:30:39.966Z</time></trkpt><trkpt lat="43.0577463" lon="-3.8870357"><ele>906.5000000000001</ele><time>2026-05-02T11:30:40.974Z</time></trkpt><trkpt lat="43.0576699" lon="-3.8870402"><ele>908.0</ele><time>2026-05-02T11:30:41.974Z</time></trkpt><trkpt lat="43.0575955" lon="-3.8870456"><ele>908.0</ele><time>2026-05-02T11:30:42.989Z</time></trkpt><trkpt lat="43.0575204" lon="-3.8870419"><ele>908.0000000000001</ele><time>2026-05-02T11:30:43.973Z</time></trkpt><trkpt lat="43.0574501" lon="-3.8870378"><ele>908.0</ele><time>2026-05-02T11:30:44.974Z</time></trkpt><trkpt lat="43.0573763" lon="-3.8870291"><ele>908.0</ele><time>2026-05-02T11:30:45.972Z</time></trkpt><trkpt lat="43.0573014" lon="-3.8870191"><ele>908.0000000000001</ele><time>2026-05-02T11:30:46.976Z</time></trkpt><trkpt lat="43.0572299" lon="-3.8870051"><ele>908.0</ele><time>2026-05-02T11:30:47.977Z</time></trkpt><trkpt lat="43.0571561" lon="-3.8869938"><ele>908.0</ele><time>2026-05-02T11:30:48.98Z</time></trkpt><trkpt lat="43.0570824" lon="-3.8869792"><ele>910.0</ele><time>2026-05-02T11:30:49.979Z</time></trkpt><trkpt lat="43.0570093" lon="-3.8869696"><ele>912.0000000000001</ele><time>2026-05-02T11:30:50.979Z</time></trkpt><trkpt lat="43.0569368" lon="-3.8869589"><ele>914.0</ele><time>2026-05-02T11:30:51.971Z</time></trkpt><trkpt lat="43.0568669" lon="-3.8869476"><ele>916.0</ele><time>2026-05-02T11:30:52.973Z</time></trkpt><trkpt lat="43.0567923" lon="-3.8869354"><ele>918.0000000000001</ele><time>2026-05-02T11:30:53.97Z</time></trkpt><trkpt lat="43.0567207" lon="-3.8869254"><ele>920.0</ele><time>2026-05-02T11:30:54.972Z</time></trkpt><trkpt lat="43.0566471" lon="-3.8869119"><ele>922.0</ele><time>2026-05-02T11:30:55.975Z</time></trkpt><trkpt lat="43.0565736" lon="-3.8868995"><ele>923.0</ele><time>2026-05-02T11:30:56.972Z</time></trkpt><trkpt lat="43.0565025" lon="-3.8868874"><ele>924.0000000000001</ele><time>2026-05-02T11:30:57.969Z</time></trkpt><trkpt lat="43.0564337" lon="-3.8868793"><ele>925.0</ele><time>2026-05-02T11:30:58.973Z</time></trkpt><trkpt lat="43.0563652" lon="-3.8868727"><ele>926.0</ele><time>2026-05-02T11:30:59.97Z</time></trkpt><trkpt lat="43.0562946" lon="-3.8868628"><ele>927.0000000000001</ele><time>2026-05-02T11:31:00.96Z</time></trkpt><trkpt lat="43.0562257" lon="-3.8868551"><ele>928.0</ele><time>2026-05-02T11:31:01.972Z</time></trkpt><trkpt lat="43.0561479" lon="-3.8868427"><ele>929.0</ele><time>2026-05-02T11:31:02.971Z</time></trkpt><trkpt lat="43.0560761" lon="-3.8868349"><ele>929.0000000000001</ele><time>2026-05-02T11:31:03.966Z</time></trkpt><trkpt lat="43.0559977" lon="-3.8868202"><ele>929.0</ele><time>2026-05-02T11:31:04.964Z</time></trkpt><trkpt lat="43.0559193" lon="-3.8868089"><ele>929.0</ele><time>2026-05-02T11:31:05.973Z</time></trkpt><trkpt lat="43.0558368" lon="-3.8867923"><ele>929.0</ele><time>2026-05-02T11:31:06.97Z</time></trkpt><trkpt lat="43.0557547" lon="-3.8867813"><ele>929.0000000000001</ele><time>2026-05-02T11:31:07.971Z</time></trkpt><trkpt lat="43.055672" lon="-3.8867715"><ele>929.0</ele><time>2026-05-02T11:31:08.982Z</time></trkpt><trkpt lat="43.0555929" lon="-3.8867674"><ele>929.6666666666667</ele><time>2026-05-02T11:31:09.971Z</time></trkpt><trkpt lat="43.055509" lon="-3.8867565"><ele>930.3333333333334</ele><time>2026-05-02T11:31:10.973Z</time></trkpt><trkpt lat="43.0554272" lon="-3.8867448"><ele>931.0</ele><time>2026-05-02T11:31:11.975Z</time></trkpt><trkpt lat="43.055356" lon="-3.8867325"><ele>931.6666666666667</ele><time>2026-05-02T11:31:12.97Z</time></trkpt><trkpt lat="43.0552846" lon="-3.8867135"><ele>932.3333333333334</ele><time>2026-05-02T11:31:13.989Z</time></trkpt><trkpt lat="43.0552125" lon="-3.886686"><ele>933.0</ele><time>2026-05-02T11:31:14.967Z</time></trkpt><trkpt lat="43.0551425" lon="-3.8866519"><ele>933.0</ele><time>2026-05-02T11:31:15.972Z</time></trkpt><trkpt lat="43.0550714" lon="-3.8866105"><ele>933.0</ele><time>2026-05-02T11:31:16.97Z</time></trkpt><trkpt lat="43.0550087" lon="-3.8865542"><ele>933.0</ele><time>2026-05-02T11:31:17.97Z</time></trkpt><trkpt lat="43.0549488" lon="-3.8864894"><ele>933.0</ele><time>2026-05-02T11:31:18.97Z</time></trkpt><trkpt lat="43.054896" lon="-3.8864164"><ele>933.0</ele><time>2026-05-02T11:31:19.972Z</time></trkpt><trkpt lat="43.054838" lon="-3.8863269"><ele>933.0</ele><time>2026-05-02T11:31:20.969Z</time></trkpt><trkpt lat="43.0547927" lon="-3.8862403"><ele>935.5</ele><time>2026-05-02T11:31:21.971Z</time></trkpt><trkpt lat="43.0547446" lon="-3.8861509"><ele>938.0</ele><time>2026-05-02T11:31:22.972Z</time></trkpt><trkpt lat="43.0546927" lon="-3.8860636"><ele>940.5</ele><time>2026-05-02T11:31:23.971Z</time></trkpt><trkpt lat="43.0546528" lon="-3.8859787"><ele>943.0</ele><time>2026-05-02T11:31:24.971Z</time></trkpt><trkpt lat="43.0546071" lon="-3.8858896"><ele>945.5</ele><time>2026-05-02T11:31:25.969Z</time></trkpt><trkpt lat="43.0545643" lon="-3.8858033"><ele>948.0</ele><time>2026-05-02T11:31:26.968Z</time></trkpt><trkpt lat="43.0545146" lon="-3.8857248"><ele>948.0</ele><time>2026-05-02T11:31:27.973Z</time></trkpt><trkpt lat="43.0544596" lon="-3.8856484"><ele>948.0</ele><time>2026-05-02T11:31:28.972Z</time></trkpt><trkpt lat="43.0544044" lon="-3.8855792"><ele>948.0</ele><time>2026-05-02T11:31:29.967Z</time></trkpt><trkpt lat="43.0543459" lon="-3.8855096"><ele>948.0</ele><time>2026-05-02T11:31:30.966Z</time></trkpt><trkpt lat="43.0542877" lon="-3.8854517"><ele>948.0</ele><time>2026-05-02T11:31:31.969Z</time></trkpt><trkpt lat="43.0542238" lon="-3.8854018"><ele>948.0</ele><time>2026-05-02T11:31:32.963Z</time></trkpt><trkpt lat="43.0541596" lon="-3.8853487"><ele>950.5</ele><time>2026-05-02T11:31:33.952Z</time></trkpt><trkpt lat="43.0540971" lon="-3.8852996"><ele>953.0</ele><time>2026-05-02T11:31:34.966Z</time></trkpt><trkpt lat="43.054026" lon="-3.8852549"><ele>955.5</ele><time>2026-05-02T11:31:35.97Z</time></trkpt><trkpt lat="43.0539541" lon="-3.8852199"><ele>958.0</ele><time>2026-05-02T11:31:36.971Z</time></trkpt><trkpt lat="43.0538863" lon="-3.885181"><ele>960.5</ele><time>2026-05-02T11:31:37.969Z</time></trkpt><trkpt lat="43.0538168" lon="-3.8851389"><ele>963.0</ele><time>2026-05-02T11:31:38.981Z</time></trkpt><trkpt lat="43.0537429" lon="-3.8850994"><ele>962.3333333333334</ele><time>2026-05-02T11:31:39.973Z</time></trkpt><trkpt lat="43.0536701" lon="-3.8850586"><ele>961.6666666666667</ele><time>2026-05-02T11:31:40.97Z</time></trkpt><trkpt lat="43.0535952" lon="-3.8850186"><ele>961.0</ele><time>2026-05-02T11:31:41.968Z</time></trkpt><trkpt lat="43.0535236" lon="-3.8849808"><ele>960.3333333333334</ele><time>2026-05-02T11:31:42.966Z</time></trkpt><trkpt lat="43.0534555" lon="-3.8849396"><ele>959.6666666666667</ele><time>2026-05-02T11:31:43.966Z</time></trkpt><trkpt lat="43.053384" lon="-3.8849042"><ele>959.0</ele><time>2026-05-02T11:31:44.983Z</time></trkpt><trkpt lat="43.0533091" lon="-3.884869"><ele>961.1428571428571</ele><time>2026-05-02T11:31:45.968Z</time></trkpt><trkpt lat="43.05324" lon="-3.8848311"><ele>963.2857142857142</ele><time>2026-05-02T11:31:46.968Z</time></trkpt><trkpt lat="43.0531711" lon="-3.8848012"><ele>965.4285714285714</ele><time>2026-05-02T11:31:47.968Z</time></trkpt><trkpt lat="43.0531016" lon="-3.8847767"><ele>967.5714285714286</ele><time>2026-05-02T11:31:48.969Z</time></trkpt><trkpt lat="43.0530305" lon="-3.8847558"><ele>969.7142857142857</ele><time>2026-05-02T11:31:49.967Z</time></trkpt><trkpt lat="43.0529582" lon="-3.8847373"><ele>971.8571428571429</ele><time>2026-05-02T11:31:50.968Z</time></trkpt><trkpt lat="43.0528912" lon="-3.8847196"><ele>974.0</ele><time>2026-05-02T11:31:51.97Z</time></trkpt><trkpt lat="43.052817" lon="-3.8846955"><ele>974.0000000000001</ele><time>2026-05-02T11:31:52.967Z</time></trkpt><trkpt lat="43.0527369" lon="-3.8846696"><ele>974.0</ele><time>2026-05-02T11:31:53.964Z</time></trkpt><trkpt lat="43.05266" lon="-3.884633"><ele>974.0</ele><time>2026-05-02T11:31:54.969Z</time></trkpt><trkpt lat="43.0525822" lon="-3.8846083"><ele>974.0</ele><time>2026-05-02T11:31:55.964Z</time></trkpt><trkpt lat="43.0525087" lon="-3.8845824"><ele>974.0000000000001</ele><time>2026-05-02T11:31:56.97Z</time></trkpt><trkpt lat="43.0524296" lon="-3.8845648"><ele>974.0</ele><time>2026-05-02T11:31:57.972Z</time></trkpt><trkpt lat="43.0523574" lon="-3.8845423"><ele>975.8571428571429</ele><time>2026-05-02T11:31:58.955Z</time></trkpt><trkpt lat="43.0522814" lon="-3.8845181"><ele>977.7142857142857</ele><time>2026-05-02T11:31:59.972Z</time></trkpt><trkpt lat="43.05221" lon="-3.8844873"><ele>979.5714285714286</ele><time>2026-05-02T11:32:00.971Z</time></trkpt><trkpt lat="43.0521382" lon="-3.8844625"><ele>981.4285714285714</ele><time>2026-05-02T11:32:01.964Z</time></trkpt><trkpt lat="43.0520691" lon="-3.8844449"><ele>983.2857142857142</ele><time>2026-05-02T11:32:02.972Z</time></trkpt><trkpt lat="43.0520057" lon="-3.88442"><ele>985.1428571428571</ele><time>2026-05-02T11:32:03.967Z</time></trkpt><trkpt lat="43.051941" lon="-3.8843819"><ele>987.0</ele><time>2026-05-02T11:32:04.973Z</time></trkpt><trkpt lat="43.0518791" lon="-3.8843454"><ele>987.0</ele><time>2026-05-02T11:32:05.968Z</time></trkpt><trkpt lat="43.0518151" lon="-3.884292"><ele>987.0</ele><time>2026-05-02T11:32:06.973Z</time></trkpt><trkpt lat="43.0517538" lon="-3.8842288"><ele>987.0</ele><time>2026-05-02T11:32:07.966Z</time></trkpt><trkpt lat="43.0517011" lon="-3.8841569"><ele>987.0</ele><time>2026-05-02T11:32:08.977Z</time></trkpt><trkpt lat="43.051655" lon="-3.884079"><ele>987.0</ele><time>2026-05-02T11:32:09.97Z</time></trkpt><trkpt lat="43.051611" lon="-3.8839929"><ele>987.0</ele><time>2026-05-02T11:32:10.974Z</time></trkpt><trkpt lat="43.0515705" lon="-3.8839058"><ele>988.2857142857142</ele><time>2026-05-02T11:32:11.972Z</time></trkpt><trkpt lat="43.051532" lon="-3.8838179"><ele>989.5714285714286</ele><time>2026-05-02T11:32:12.972Z</time></trkpt><trkpt lat="43.0514957" lon="-3.8837309"><ele>990.8571428571429</ele><time>2026-05-02T11:32:13.974Z</time></trkpt><trkpt lat="43.0514609" lon="-3.8836424"><ele>992.1428571428571</ele><time>2026-05-02T11:32:14.972Z</time></trkpt><trkpt lat="43.0514249" lon="-3.8835494"><ele>993.4285714285713</ele><time>2026-05-02T11:32:15.99Z</time></trkpt><trkpt lat="43.0513916" lon="-3.883455"><ele>994.7142857142857</ele><time>2026-05-02T11:32:16.971Z</time></trkpt><trkpt lat="43.0513566" lon="-3.8833652"><ele>996.0</ele><time>2026-05-02T11:32:17.974Z</time></trkpt><trkpt lat="43.0513219" lon="-3.8832728"><ele>996.1666666666666</ele><time>2026-05-02T11:32:18.972Z</time></trkpt><trkpt lat="43.0512884" lon="-3.8831791"><ele>996.3333333333333</ele><time>2026-05-02T11:32:19.972Z</time></trkpt><trkpt lat="43.0512528" lon="-3.8830883"><ele>996.5</ele><time>2026-05-02T11:32:20.973Z</time></trkpt><trkpt lat="43.0512161" lon="-3.8829959"><ele>996.6666666666666</ele><time>2026-05-02T11:32:21.971Z</time></trkpt><trkpt lat="43.0511848" lon="-3.8829046"><ele>996.8333333333333</ele><time>2026-05-02T11:32:22.972Z</time></trkpt><trkpt lat="43.0511468" lon="-3.8828152"><ele>997.0</ele><time>2026-05-02T11:32:23.971Z</time></trkpt><trkpt lat="43.0511105" lon="-3.8827222"><ele>996.9999999999999</ele><time>2026-05-02T11:32:24.98Z</time></trkpt><trkpt lat="43.0510779" lon="-3.8826302"><ele>997.0</ele><time>2026-05-02T11:32:25.976Z</time></trkpt><trkpt lat="43.0510504" lon="-3.8825353"><ele>996.9999999999999</ele><time>2026-05-02T11:32:26.972Z</time></trkpt><trkpt lat="43.0510321" lon="-3.88244"><ele>996.9999999999999</ele><time>2026-05-02T11:32:27.972Z</time></trkpt><trkpt lat="43.0510164" lon="-3.8823428"><ele>997.0</ele><time>2026-05-02T11:32:28.971Z</time></trkpt><trkpt lat="43.051008" lon="-3.8822415"><ele>996.9999999999999</ele><time>2026-05-02T11:32:29.972Z</time></trkpt><trkpt lat="43.051009" lon="-3.8821389"><ele>996.9999999999999</ele><time>2026-05-02T11:32:30.972Z</time></trkpt><trkpt lat="43.0510103" lon="-3.8820398"><ele>997.142857142857</ele><time>2026-05-02T11:32:31.974Z</time></trkpt><trkpt lat="43.0510113" lon="-3.8819417"><ele>997.2857142857142</ele><time>2026-05-02T11:32:32.97Z</time></trkpt><trkpt lat="43.0510136" lon="-3.8818538"><ele>997.4285714285714</ele><time>2026-05-02T11:32:33.967Z</time></trkpt><trkpt lat="43.0510103" lon="-3.881761"><ele>997.5714285714286</ele><time>2026-05-02T11:32:34.968Z</time></trkpt><trkpt lat="43.0510021" lon="-3.8816678"><ele>997.7142857142858</ele><time>2026-05-02T11:32:35.971Z</time></trkpt><trkpt lat="43.0509931" lon="-3.8815692"><ele>997.857142857143</ele><time>2026-05-02T11:32:36.968Z</time></trkpt><trkpt lat="43.0509818" lon="-3.8814775"><ele>998.0000000000001</ele><time>2026-05-02T11:32:37.971Z</time></trkpt><trkpt lat="43.0509602" lon="-3.8813849"><ele>998.6666666666667</ele><time>2026-05-02T11:32:38.985Z</time></trkpt><trkpt lat="43.0509249" lon="-3.8812935"><ele>999.3333333333334</ele><time>2026-05-02T11:32:39.966Z</time></trkpt><trkpt lat="43.0508781" lon="-3.8811997"><ele>1000.0</ele><time>2026-05-02T11:32:40.964Z</time></trkpt><trkpt lat="43.0508225" lon="-3.8811166"><ele>1000.6666666666667</ele><time>2026-05-02T11:32:41.968Z</time></trkpt><trkpt lat="43.0507617" lon="-3.8810422"><ele>1001.3333333333334</ele><time>2026-05-02T11:32:42.965Z</time></trkpt><trkpt lat="43.0506929" lon="-3.8809807"><ele>1002.0</ele><time>2026-05-02T11:32:43.975Z</time></trkpt><trkpt lat="43.0506187" lon="-3.8809258"><ele>1003.0</ele><time>2026-05-02T11:32:44.967Z</time></trkpt><trkpt lat="43.050543" lon="-3.8808771"><ele>1004.0</ele><time>2026-05-02T11:32:45.975Z</time></trkpt><trkpt lat="43.0504668" lon="-3.8808318"><ele>1005.0</ele><time>2026-05-02T11:32:46.988Z</time></trkpt><trkpt lat="43.050385" lon="-3.8807881"><ele>1006.0</ele><time>2026-05-02T11:32:47.972Z</time></trkpt><trkpt lat="43.0503" lon="-3.880748"><ele>1007.0</ele><time>2026-05-02T11:32:48.972Z</time></trkpt><trkpt lat="43.0502156" lon="-3.8807142"><ele>1008.0</ele><time>2026-05-02T11:32:49.963Z</time></trkpt><trkpt lat="43.0501321" lon="-3.8806799"><ele>1008.0</ele><time>2026-05-02T11:32:50.972Z</time></trkpt><trkpt lat="43.0500518" lon="-3.8806533"><ele>1008.0</ele><time>2026-05-02T11:32:51.968Z</time></trkpt><trkpt lat="43.0499753" lon="-3.88062"><ele>1008.0</ele><time>2026-05-02T11:32:52.972Z</time></trkpt><trkpt lat="43.0498962" lon="-3.8805913"><ele>1008.0</ele><time>2026-05-02T11:32:53.974Z</time></trkpt><trkpt lat="43.0498214" lon="-3.8805611"><ele>1008.0</ele><time>2026-05-02T11:32:54.972Z</time></trkpt><trkpt lat="43.0497475" lon="-3.8805289"><ele>1008.0</ele><time>2026-05-02T11:32:55.974Z</time></trkpt><trkpt lat="43.0496715" lon="-3.880496"><ele>1009.6666666666666</ele><time>2026-05-02T11:32:56.97Z</time></trkpt><trkpt lat="43.0495992" lon="-3.880464"><ele>1011.3333333333333</ele><time>2026-05-02T11:32:57.968Z</time></trkpt><trkpt lat="43.0495266" lon="-3.8804343"><ele>1013.0</ele><time>2026-05-02T11:32:58.975Z</time></trkpt><trkpt lat="43.0494631" lon="-3.8804087"><ele>1014.6666666666666</ele><time>2026-05-02T11:32:59.965Z</time></trkpt><trkpt lat="43.0494029" lon="-3.8803792"><ele>1016.3333333333333</ele><time>2026-05-02T11:33:00.968Z</time></trkpt><trkpt lat="43.0493051" lon="-3.8803366"><ele>1018.0</ele><time>2026-05-02T11:33:02.977Z</time></trkpt><trkpt lat="43.0492348" lon="-3.8803433"><ele>1017.9999999999999</ele><time>2026-05-02T11:33:04.974Z</time></trkpt><trkpt lat="43.0491937" lon="-3.8802701"><ele>1018.0</ele><time>2026-05-02T11:35:41.963Z</time></trkpt><trkpt lat="43.049138" lon="-3.880218"><ele>1018.0</ele><time>2026-05-02T11:35:43.974Z</time></trkpt><trkpt lat="43.0490242" lon="-3.880169"><ele>1018.0</ele><time>2026-05-02T11:35:45.972Z</time></trkpt><trkpt lat="43.0489126" lon="-3.8801043"><ele>1017.9999999999999</ele><time>2026-05-02T11:35:47.974Z</time></trkpt><trkpt lat="43.0488539" lon="-3.8800667"><ele>1018.0</ele><time>2026-05-02T11:35:48.972Z</time></trkpt><trkpt lat="43.0487908" lon="-3.8800262"><ele>1016.8333333333333</ele><time>2026-05-02T11:35:49.972Z</time></trkpt><trkpt lat="43.048725" lon="-3.8799835"><ele>1015.6666666666666</ele><time>2026-05-02T11:35:50.968Z</time></trkpt><trkpt lat="43.0486554" lon="-3.879946"><ele>1014.5</ele><time>2026-05-02T11:35:51.991Z</time></trkpt><trkpt lat="43.0485862" lon="-3.879903"><ele>1013.3333333333333</ele><time>2026-05-02T11:35:52.975Z</time></trkpt><trkpt lat="43.0485125" lon="-3.8798582"><ele>1012.1666666666666</ele><time>2026-05-02T11:35:53.974Z</time></trkpt><trkpt lat="43.0484337" lon="-3.8798153"><ele>1011.0</ele><time>2026-05-02T11:35:54.977Z</time></trkpt><trkpt lat="43.0483536" lon="-3.8797643"><ele>1012.1666666666666</ele><time>2026-05-02T11:35:55.978Z</time></trkpt><trkpt lat="43.0482791" lon="-3.8797114"><ele>1013.3333333333333</ele><time>2026-05-02T11:35:56.97Z</time></trkpt><trkpt lat="43.048207" lon="-3.879656"><ele>1014.5</ele><time>2026-05-02T11:35:57.971Z</time></trkpt><trkpt lat="43.0481364" lon="-3.8795889"><ele>1015.6666666666666</ele><time>2026-05-02T11:35:58.968Z</time></trkpt><trkpt lat="43.0480759" lon="-3.8795229"><ele>1016.8333333333333</ele><time>2026-05-02T11:35:59.972Z</time></trkpt><trkpt lat="43.0480216" lon="-3.8794396"><ele>1018.0</ele><time>2026-05-02T11:36:00.971Z</time></trkpt><trkpt lat="43.0479722" lon="-3.8793501"><ele>1017.8333333333333</ele><time>2026-05-02T11:36:01.967Z</time></trkpt><trkpt lat="43.0479249" lon="-3.8792515"><ele>1017.6666666666666</ele><time>2026-05-02T11:36:02.966Z</time></trkpt><trkpt lat="43.0478802" lon="-3.879151"><ele>1017.5</ele><time>2026-05-02T11:36:03.962Z</time></trkpt><trkpt lat="43.0478359" lon="-3.8790503"><ele>1017.3333333333333</ele><time>2026-05-02T11:36:04.97Z</time></trkpt><trkpt lat="43.0477926" lon="-3.8789519"><ele>1017.1666666666666</ele><time>2026-05-02T11:36:05.97Z</time></trkpt><trkpt lat="43.0477516" lon="-3.8788579"><ele>1017.0</ele><time>2026-05-02T11:36:06.967Z</time></trkpt><trkpt lat="43.0477147" lon="-3.8787662"><ele>1017.0</ele><time>2026-05-02T11:36:07.965Z</time></trkpt><trkpt lat="43.0476777" lon="-3.8786703"><ele>1017.0</ele><time>2026-05-02T11:36:08.975Z</time></trkpt><trkpt lat="43.0476376" lon="-3.8785776"><ele>1017.0</ele><time>2026-05-02T11:36:09.968Z</time></trkpt><trkpt lat="43.0475935" lon="-3.8784908"><ele>1017.0</ele><time>2026-05-02T11:36:10.966Z</time></trkpt><trkpt lat="43.0475505" lon="-3.8784033"><ele>1017.0</ele><time>2026-05-02T11:36:11.971Z</time></trkpt><trkpt lat="43.0474983" lon="-3.8783131"><ele>1017.0</ele><time>2026-05-02T11:36:12.967Z</time></trkpt><trkpt lat="43.0474442" lon="-3.8782346"><ele>1015.6666666666666</ele><time>2026-05-02T11:36:13.965Z</time></trkpt><trkpt lat="43.0473853" lon="-3.8781617"><ele>1014.3333333333333</ele><time>2026-05-02T11:36:14.972Z</time></trkpt><trkpt lat="43.047323" lon="-3.8780899"><ele>1013.0</ele><time>2026-05-02T11:36:15.968Z</time></trkpt><trkpt lat="43.0472534" lon="-3.8780281"><ele>1011.6666666666666</ele><time>2026-05-02T11:36:16.972Z</time></trkpt><trkpt lat="43.0471814" lon="-3.8779762"><ele>1010.3333333333333</ele><time>2026-05-02T11:36:17.965Z</time></trkpt><trkpt lat="43.0471096" lon="-3.8779242"><ele>1009.0</ele><time>2026-05-02T11:36:18.965Z</time></trkpt><trkpt lat="43.0470324" lon="-3.8778766"><ele>1008.9999999999999</ele><time>2026-05-02T11:36:19.97Z</time></trkpt><trkpt lat="43.0469542" lon="-3.8778391"><ele>1009.0</ele><time>2026-05-02T11:36:20.973Z</time></trkpt><trkpt lat="43.0468781" lon="-3.8777963"><ele>1009.0</ele><time>2026-05-02T11:36:21.975Z</time></trkpt><trkpt lat="43.0468002" lon="-3.8777589"><ele>1009.0</ele><time>2026-05-02T11:36:22.989Z</time></trkpt><trkpt lat="43.0467176" lon="-3.8777256"><ele>1008.9999999999999</ele><time>2026-05-02T11:36:23.973Z</time></trkpt><trkpt lat="43.0466311" lon="-3.87769"><ele>1009.0</ele><time>2026-05-02T11:36:24.973Z</time></trkpt><trkpt lat="43.0465448" lon="-3.8776569"><ele>1006.8000000000001</ele><time>2026-05-02T11:36:25.983Z</time></trkpt><trkpt lat="43.0464534" lon="-3.8776262"><ele>1004.6000000000001</ele><time>2026-05-02T11:36:26.971Z</time></trkpt><trkpt lat="43.0463659" lon="-3.8776038"><ele>1002.4</ele><time>2026-05-02T11:36:27.97Z</time></trkpt><trkpt lat="43.0462782" lon="-3.8775852"><ele>1000.2</ele><time>2026-05-02T11:36:28.971Z</time></trkpt><trkpt lat="43.0461901" lon="-3.8775714"><ele>998.0</ele><time>2026-05-02T11:36:29.97Z</time></trkpt><trkpt lat="43.0460998" lon="-3.8775645"><ele>998.0</ele><time>2026-05-02T11:36:30.974Z</time></trkpt><trkpt lat="43.0460062" lon="-3.8775663"><ele>998.0</ele><time>2026-05-02T11:36:31.966Z</time></trkpt><trkpt lat="43.0459113" lon="-3.8775794"><ele>998.0</ele><time>2026-05-02T11:36:32.968Z</time></trkpt><trkpt lat="43.0458114" lon="-3.8776046"><ele>998.0</ele><time>2026-05-02T11:36:33.972Z</time></trkpt><trkpt lat="43.0457131" lon="-3.8776328"><ele>998.0</ele><time>2026-05-02T11:36:34.971Z</time></trkpt><trkpt lat="43.0456152" lon="-3.8776646"><ele>996.8</ele><time>2026-05-02T11:36:35.976Z</time></trkpt><trkpt lat="43.0455157" lon="-3.8776919"><ele>995.5999999999999</ele><time>2026-05-02T11:36:36.972Z</time></trkpt><trkpt lat="43.0454169" lon="-3.8777182"><ele>994.4000000000001</ele><time>2026-05-02T11:36:37.97Z</time></trkpt><trkpt lat="43.0453236" lon="-3.8777532"><ele>993.2</ele><time>2026-05-02T11:36:38.979Z</time></trkpt><trkpt lat="43.0452257" lon="-3.8777947"><ele>992.0</ele><time>2026-05-02T11:36:39.97Z</time></trkpt><trkpt lat="43.0451296" lon="-3.8778471"><ele>992.0</ele><time>2026-05-02T11:36:40.968Z</time></trkpt><trkpt lat="43.0450322" lon="-3.8779023"><ele>992.0</ele><time>2026-05-02T11:36:41.97Z</time></trkpt><trkpt lat="43.0449343" lon="-3.8779533"><ele>992.0</ele><time>2026-05-02T11:36:42.97Z</time></trkpt><trkpt lat="43.0448379" lon="-3.8779976"><ele>992.0</ele><time>2026-05-02T11:36:43.97Z</time></trkpt><trkpt lat="43.0447386" lon="-3.8780461"><ele>992.0</ele><time>2026-05-02T11:36:44.97Z</time></trkpt><trkpt lat="43.0446409" lon="-3.8780922"><ele>992.2</ele><time>2026-05-02T11:36:45.97Z</time></trkpt><trkpt lat="43.0445377" lon="-3.8781374"><ele>992.4000000000001</ele><time>2026-05-02T11:36:46.972Z</time></trkpt><trkpt lat="43.0444378" lon="-3.8781772"><ele>992.5999999999999</ele><time>2026-05-02T11:36:47.968Z</time></trkpt><trkpt lat="43.0443329" lon="-3.8782222"><ele>992.8</ele><time>2026-05-02T11:36:48.971Z</time></trkpt><trkpt lat="43.0442319" lon="-3.8782695"><ele>993.0</ele><time>2026-05-02T11:36:49.97Z</time></trkpt><trkpt lat="43.0441263" lon="-3.8783117"><ele>993.0</ele><time>2026-05-02T11:36:50.97Z</time></trkpt><trkpt lat="43.044026" lon="-3.8783606"><ele>993.0</ele><time>2026-05-02T11:36:51.971Z</time></trkpt><trkpt lat="43.0439224" lon="-3.8784066"><ele>993.0</ele><time>2026-05-02T11:36:52.971Z</time></trkpt><trkpt lat="43.0438156" lon="-3.8784553"><ele>993.0</ele><time>2026-05-02T11:36:53.985Z</time></trkpt><trkpt lat="43.0437087" lon="-3.8784998"><ele>993.0</ele><time>2026-05-02T11:36:54.969Z</time></trkpt><trkpt lat="43.0436025" lon="-3.8785445"><ele>990.0</ele><time>2026-05-02T11:36:55.97Z</time></trkpt><trkpt lat="43.0434984" lon="-3.8785925"><ele>987.0</ele><time>2026-05-02T11:36:56.964Z</time></trkpt><trkpt lat="43.0433985" lon="-3.8786434"><ele>984.0</ele><time>2026-05-02T11:36:57.965Z</time></trkpt><trkpt lat="43.0433031" lon="-3.8786841"><ele>981.0</ele><time>2026-05-02T11:36:58.965Z</time></trkpt><trkpt lat="43.0432067" lon="-3.8787231"><ele>978.0</ele><time>2026-05-02T11:36:59.967Z</time></trkpt><trkpt lat="43.0431154" lon="-3.8787525"><ele>977.5999999999999</ele><time>2026-05-02T11:37:00.966Z</time></trkpt><trkpt lat="43.0430207" lon="-3.8787761"><ele>977.1999999999999</ele><time>2026-05-02T11:37:01.967Z</time></trkpt><trkpt lat="43.0429255" lon="-3.8787851"><ele>976.8</ele><time>2026-05-02T11:37:02.963Z</time></trkpt><trkpt lat="43.0428305" lon="-3.8787887"><ele>976.4</ele><time>2026-05-02T11:37:03.963Z</time></trkpt><trkpt lat="43.042741" lon="-3.8787821"><ele>976.0</ele><time>2026-05-02T11:37:04.963Z</time></trkpt><trkpt lat="43.0426501" lon="-3.8787552"><ele>976.0</ele><time>2026-05-02T11:37:05.961Z</time></trkpt><trkpt lat="43.042561" lon="-3.8787109"><ele>975.9999999999999</ele><time>2026-05-02T11:37:06.962Z</time></trkpt><trkpt lat="43.0424754" lon="-3.8786589"><ele>975.9999999999999</ele><time>2026-05-02T11:37:07.962Z</time></trkpt><trkpt lat="43.0423931" lon="-3.8785919"><ele>976.0</ele><time>2026-05-02T11:37:08.969Z</time></trkpt><trkpt lat="43.0423208" lon="-3.8785195"><ele>976.0</ele><time>2026-05-02T11:37:09.963Z</time></trkpt><trkpt lat="43.0422505" lon="-3.8784398"><ele>975.4</ele><time>2026-05-02T11:37:10.964Z</time></trkpt><trkpt lat="43.0421791" lon="-3.8783502"><ele>974.8</ele><time>2026-05-02T11:37:11.964Z</time></trkpt><trkpt lat="43.0421104" lon="-3.8782616"><ele>974.1999999999999</ele><time>2026-05-02T11:37:12.963Z</time></trkpt><trkpt lat="43.0420387" lon="-3.8781774"><ele>973.5999999999999</ele><time>2026-05-02T11:37:13.959Z</time></trkpt><trkpt lat="43.0419636" lon="-3.8780933"><ele>973.0</ele><time>2026-05-02T11:37:14.966Z</time></trkpt><trkpt lat="43.0418886" lon="-3.8780003"><ele>973.0</ele><time>2026-05-02T11:37:15.968Z</time></trkpt><trkpt lat="43.0418151" lon="-3.8779085"><ele>973.0</ele><time>2026-05-02T11:37:16.967Z</time></trkpt><trkpt lat="43.0417357" lon="-3.8778234"><ele>973.0</ele><time>2026-05-02T11:37:17.971Z</time></trkpt><trkpt lat="43.0416565" lon="-3.8777351"><ele>973.0</ele><time>2026-05-02T11:37:18.974Z</time></trkpt><trkpt lat="43.0415775" lon="-3.8776529"><ele>973.0</ele><time>2026-05-02T11:37:19.968Z</time></trkpt><trkpt lat="43.0414965" lon="-3.8775767"><ele>974.5999999999999</ele><time>2026-05-02T11:37:20.966Z</time></trkpt><trkpt lat="43.0414055" lon="-3.8775119"><ele>976.1999999999999</ele><time>2026-05-02T11:37:21.969Z</time></trkpt><trkpt lat="43.0413143" lon="-3.8774601"><ele>977.8</ele><time>2026-05-02T11:37:22.966Z</time></trkpt><trkpt lat="43.0412195" lon="-3.8774136"><ele>979.4</ele><time>2026-05-02T11:37:23.97Z</time></trkpt><trkpt lat="43.0411239" lon="-3.8773695"><ele>981.0</ele><time>2026-05-02T11:37:24.989Z</time></trkpt><trkpt lat="43.0410292" lon="-3.877304"><ele>981.0</ele><time>2026-05-02T11:37:25.971Z</time></trkpt><trkpt lat="43.0409439" lon="-3.8772308"><ele>980.9999999999999</ele><time>2026-05-02T11:37:26.969Z</time></trkpt><trkpt lat="43.0408603" lon="-3.8771505"><ele>980.9999999999999</ele><time>2026-05-02T11:37:27.973Z</time></trkpt><trkpt lat="43.0407872" lon="-3.8770519"><ele>981.0</ele><time>2026-05-02T11:37:28.965Z</time></trkpt><trkpt lat="43.0407183" lon="-3.8769444"><ele>981.0</ele><time>2026-05-02T11:37:29.963Z</time></trkpt><trkpt lat="43.0406618" lon="-3.876832"><ele>980.0</ele><time>2026-05-02T11:37:30.961Z</time></trkpt><trkpt lat="43.0406094" lon="-3.8767203"><ele>978.9999999999999</ele><time>2026-05-02T11:37:31.968Z</time></trkpt><trkpt lat="43.0405674" lon="-3.8765929"><ele>977.9999999999999</ele><time>2026-05-02T11:37:32.968Z</time></trkpt><trkpt lat="43.0405283" lon="-3.876456"><ele>977.0</ele><time>2026-05-02T11:37:33.968Z</time></trkpt><trkpt lat="43.0404911" lon="-3.8763204"><ele>976.0</ele><time>2026-05-02T11:37:34.971Z</time></trkpt><trkpt lat="43.0404525" lon="-3.8761829"><ele>976.0</ele><time>2026-05-02T11:37:35.969Z</time></trkpt><trkpt lat="43.0404152" lon="-3.8760402"><ele>976.0</ele><time>2026-05-02T11:37:36.971Z</time></trkpt><trkpt lat="43.0403714" lon="-3.8758968"><ele>976.0</ele><time>2026-05-02T11:37:37.972Z</time></trkpt><trkpt lat="43.0403323" lon="-3.8757506"><ele>976.0</ele><time>2026-05-02T11:37:38.978Z</time></trkpt><trkpt lat="43.0402895" lon="-3.8756048"><ele>974.1999999999999</ele><time>2026-05-02T11:37:39.975Z</time></trkpt><trkpt lat="43.0402507" lon="-3.8754592"><ele>972.3999999999999</ele><time>2026-05-02T11:37:40.975Z</time></trkpt><trkpt lat="43.0402132" lon="-3.8753158"><ele>970.6</ele><time>2026-05-02T11:37:41.97Z</time></trkpt><trkpt lat="43.0401738" lon="-3.8751698"><ele>968.8</ele><time>2026-05-02T11:37:42.972Z</time></trkpt><trkpt lat="43.0401338" lon="-3.8750285"><ele>967.0</ele><time>2026-05-02T11:37:43.969Z</time></trkpt><trkpt lat="43.0400947" lon="-3.8748898"><ele>966.0</ele><time>2026-05-02T11:37:44.97Z</time></trkpt><trkpt lat="43.0400541" lon="-3.8747472"><ele>965.0</ele><time>2026-05-02T11:37:45.97Z</time></trkpt><trkpt lat="43.0400153" lon="-3.8746042"><ele>964.0</ele><time>2026-05-02T11:37:46.972Z</time></trkpt><trkpt lat="43.039975" lon="-3.874461"><ele>963.0</ele><time>2026-05-02T11:37:47.973Z</time></trkpt><trkpt lat="43.0399344" lon="-3.8743161"><ele>962.0</ele><time>2026-05-02T11:37:48.973Z</time></trkpt><trkpt lat="43.0398923" lon="-3.8741724"><ele>961.0</ele><time>2026-05-02T11:37:49.973Z</time></trkpt><trkpt lat="43.039848" lon="-3.8740319"><ele>960.0</ele><time>2026-05-02T11:37:50.972Z</time></trkpt><trkpt lat="43.0398043" lon="-3.8738903"><ele>959.0</ele><time>2026-05-02T11:37:51.972Z</time></trkpt><trkpt lat="43.0397616" lon="-3.8737492"><ele>958.0</ele><time>2026-05-02T11:37:52.976Z</time></trkpt><trkpt lat="43.0397213" lon="-3.8736094"><ele>957.0</ele><time>2026-05-02T11:37:53.974Z</time></trkpt><trkpt lat="43.0396835" lon="-3.8734781"><ele>957.0</ele><time>2026-05-02T11:37:54.975Z</time></trkpt><trkpt lat="43.0396466" lon="-3.8733411"><ele>957.0</ele><time>2026-05-02T11:37:55.992Z</time></trkpt><trkpt lat="43.0396032" lon="-3.8732043"><ele>957.0</ele><time>2026-05-02T11:37:56.974Z</time></trkpt><trkpt lat="43.0395612" lon="-3.8730731"><ele>957.0</ele><time>2026-05-02T11:37:57.973Z</time></trkpt><trkpt lat="43.0395252" lon="-3.8729415"><ele>957.0</ele><time>2026-05-02T11:37:58.979Z</time></trkpt><trkpt lat="43.0394931" lon="-3.872807"><ele>957.0</ele><time>2026-05-02T11:37:59.974Z</time></trkpt><trkpt lat="43.0394585" lon="-3.8726729"><ele>957.0</ele><time>2026-05-02T11:38:00.975Z</time></trkpt><trkpt lat="43.0394198" lon="-3.8725434"><ele>957.0</ele><time>2026-05-02T11:38:01.97Z</time></trkpt><trkpt lat="43.0393864" lon="-3.8724198"><ele>957.0</ele><time>2026-05-02T11:38:02.965Z</time></trkpt><trkpt lat="43.0393491" lon="-3.8723046"><ele>957.0</ele><time>2026-05-02T11:38:03.971Z</time></trkpt><trkpt lat="43.0393117" lon="-3.8721974"><ele>956.0</ele><time>2026-05-02T11:38:04.97Z</time></trkpt><trkpt lat="43.0392622" lon="-3.8720865"><ele>955.0</ele><time>2026-05-02T11:38:05.97Z</time></trkpt><trkpt lat="43.0392034" lon="-3.8719868"><ele>954.0</ele><time>2026-05-02T11:38:06.976Z</time></trkpt><trkpt lat="43.0391276" lon="-3.8719041"><ele>953.0</ele><time>2026-05-02T11:38:07.969Z</time></trkpt><trkpt lat="43.0390457" lon="-3.8718154"><ele>952.0</ele><time>2026-05-02T11:38:08.975Z</time></trkpt><trkpt lat="43.0389538" lon="-3.8717174"><ele>950.75</ele><time>2026-05-02T11:38:09.97Z</time></trkpt><trkpt lat="43.0388536" lon="-3.8716152"><ele>949.5</ele><time>2026-05-02T11:38:10.966Z</time></trkpt><trkpt lat="43.03876" lon="-3.8715153"><ele>948.25</ele><time>2026-05-02T11:38:11.966Z</time></trkpt><trkpt lat="43.0386633" lon="-3.871412"><ele>947.0</ele><time>2026-05-02T11:38:12.965Z</time></trkpt><trkpt lat="43.038572" lon="-3.8713117"><ele>947.0</ele><time>2026-05-02T11:38:13.973Z</time></trkpt><trkpt lat="43.0384932" lon="-3.8712151"><ele>947.0</ele><time>2026-05-02T11:38:14.974Z</time></trkpt><trkpt lat="43.0384249" lon="-3.8711052"><ele>947.0</ele><time>2026-05-02T11:38:15.972Z</time></trkpt><trkpt lat="43.0383645" lon="-3.8709942"><ele>947.0</ele><time>2026-05-02T11:38:16.966Z</time></trkpt><trkpt lat="43.0383084" lon="-3.8708784"><ele>947.0</ele><time>2026-05-02T11:38:17.975Z</time></trkpt><trkpt lat="43.0382578" lon="-3.8707572"><ele>947.0</ele><time>2026-05-02T11:38:18.971Z</time></trkpt><trkpt lat="43.0382096" lon="-3.8706395"><ele>947.0</ele><time>2026-05-02T11:38:19.971Z</time></trkpt><trkpt lat="43.0381568" lon="-3.8705144"><ele>947.0</ele><time>2026-05-02T11:38:20.971Z</time></trkpt><trkpt lat="43.0380981" lon="-3.8703915"><ele>947.0</ele><time>2026-05-02T11:38:21.971Z</time></trkpt><trkpt lat="43.038039" lon="-3.8702649"><ele>947.0</ele><time>2026-05-02T11:38:22.977Z</time></trkpt><trkpt lat="43.0379754" lon="-3.8701297"><ele>945.75</ele><time>2026-05-02T11:38:23.968Z</time></trkpt><trkpt lat="43.0379118" lon="-3.8699913"><ele>944.5</ele><time>2026-05-02T11:38:24.971Z</time></trkpt><trkpt lat="43.0378387" lon="-3.8698557"><ele>943.25</ele><time>2026-05-02T11:38:25.972Z</time></trkpt><trkpt lat="43.0377591" lon="-3.8697172"><ele>942.0</ele><time>2026-05-02T11:38:26.989Z</time></trkpt><trkpt lat="43.0376813" lon="-3.8695767"><ele>942.0</ele><time>2026-05-02T11:38:27.973Z</time></trkpt><trkpt lat="43.0376072" lon="-3.8694392"><ele>942.0</ele><time>2026-05-02T11:38:28.972Z</time></trkpt><trkpt lat="43.0375323" lon="-3.8693148"><ele>942.0</ele><time>2026-05-02T11:38:29.97Z</time></trkpt><trkpt lat="43.0374573" lon="-3.8691968"><ele>942.0</ele><time>2026-05-02T11:38:30.973Z</time></trkpt><trkpt lat="43.0373791" lon="-3.8690786"><ele>941.2</ele><time>2026-05-02T11:38:31.973Z</time></trkpt><trkpt lat="43.0373091" lon="-3.8689624"><ele>940.4000000000001</ele><time>2026-05-02T11:38:32.971Z</time></trkpt><trkpt lat="43.037242" lon="-3.8688452"><ele>939.5999999999999</ele><time>2026-05-02T11:38:33.973Z</time></trkpt><trkpt lat="43.0371748" lon="-3.8687252"><ele>938.8</ele><time>2026-05-02T11:38:34.975Z</time></trkpt><trkpt lat="43.0371037" lon="-3.8686005"><ele>938.0</ele><time>2026-05-02T11:38:35.972Z</time></trkpt><trkpt lat="43.0370322" lon="-3.8684812"><ele>937.0</ele><time>2026-05-02T11:38:36.973Z</time></trkpt><trkpt lat="43.036961" lon="-3.8683641"><ele>936.0</ele><time>2026-05-02T11:38:37.97Z</time></trkpt><trkpt lat="43.036888" lon="-3.8682499"><ele>935.0</ele><time>2026-05-02T11:38:38.98Z</time></trkpt><trkpt lat="43.0368141" lon="-3.8681374"><ele>934.0</ele><time>2026-05-02T11:38:39.97Z</time></trkpt><trkpt lat="43.0367454" lon="-3.8680277"><ele>933.0</ele><time>2026-05-02T11:38:40.971Z</time></trkpt><trkpt lat="43.0366735" lon="-3.8679243"><ele>933.4</ele><time>2026-05-02T11:38:41.97Z</time></trkpt><trkpt lat="43.0366009" lon="-3.8678274"><ele>933.8</ele><time>2026-05-02T11:38:42.97Z</time></trkpt><trkpt lat="43.0365264" lon="-3.8677391"><ele>934.2</ele><time>2026-05-02T11:38:43.973Z</time></trkpt><trkpt lat="43.0364487" lon="-3.8676616"><ele>934.6</ele><time>2026-05-02T11:38:44.971Z</time></trkpt><trkpt lat="43.0363629" lon="-3.8675937"><ele>935.0</ele><time>2026-05-02T11:38:45.971Z</time></trkpt><trkpt lat="43.0362735" lon="-3.8675397"><ele>933.4</ele><time>2026-05-02T11:38:46.966Z</time></trkpt><trkpt lat="43.0361781" lon="-3.8674884"><ele>931.8</ele><time>2026-05-02T11:38:47.966Z</time></trkpt><trkpt lat="43.0360776" lon="-3.8674453"><ele>930.2</ele><time>2026-05-02T11:38:48.965Z</time></trkpt><trkpt lat="43.0359712" lon="-3.867413"><ele>928.6</ele><time>2026-05-02T11:38:49.966Z</time></trkpt><trkpt lat="43.0358631" lon="-3.8673905"><ele>927.0</ele><time>2026-05-02T11:38:50.965Z</time></trkpt><trkpt lat="43.0357521" lon="-3.8673695"><ele>927.0</ele><time>2026-05-02T11:38:51.971Z</time></trkpt><trkpt lat="43.0356407" lon="-3.8673541"><ele>927.0</ele><time>2026-05-02T11:38:52.972Z</time></trkpt><trkpt lat="43.0355309" lon="-3.8673336"><ele>927.0</ele><time>2026-05-02T11:38:53.967Z</time></trkpt><trkpt lat="43.0354274" lon="-3.8673118"><ele>927.0</ele><time>2026-05-02T11:38:54.97Z</time></trkpt><trkpt lat="43.0353231" lon="-3.8672844"><ele>927.0</ele><time>2026-05-02T11:38:55.968Z</time></trkpt><trkpt lat="43.035223" lon="-3.8672464"><ele>927.0</ele><time>2026-05-02T11:38:56.967Z</time></trkpt><trkpt lat="43.0351214" lon="-3.8672069"><ele>927.0</ele><time>2026-05-02T11:38:57.981Z</time></trkpt><trkpt lat="43.0350183" lon="-3.8671541"><ele>927.0</ele><time>2026-05-02T11:38:58.974Z</time></trkpt><trkpt lat="43.0349158" lon="-3.8670964"><ele>927.0</ele><time>2026-05-02T11:38:59.965Z</time></trkpt><trkpt lat="43.0348113" lon="-3.8670318"><ele>927.0</ele><time>2026-05-02T11:39:00.959Z</time></trkpt><trkpt lat="43.0347117" lon="-3.8669634"><ele>927.4000000000001</ele><time>2026-05-02T11:39:01.965Z</time></trkpt><trkpt lat="43.034609" lon="-3.8668862"><ele>927.8000000000001</ele><time>2026-05-02T11:39:02.968Z</time></trkpt><trkpt lat="43.0345137" lon="-3.8668089"><ele>928.2</ele><time>2026-05-02T11:39:03.965Z</time></trkpt><trkpt lat="43.0344287" lon="-3.8667346"><ele>928.6</ele><time>2026-05-02T11:39:04.967Z</time></trkpt><trkpt lat="43.0343389" lon="-3.8666626"><ele>929.0</ele><time>2026-05-02T11:39:05.963Z</time></trkpt><trkpt lat="43.0342456" lon="-3.8665954"><ele>926.0</ele><time>2026-05-02T11:39:06.964Z</time></trkpt><trkpt lat="43.0341515" lon="-3.8665365"><ele>923.0000000000001</ele><time>2026-05-02T11:39:07.961Z</time></trkpt><trkpt lat="43.0340519" lon="-3.8664886"><ele>920.0000000000001</ele><time>2026-05-02T11:39:08.971Z</time></trkpt><trkpt lat="43.0339483" lon="-3.8664474"><ele>917.0</ele><time>2026-05-02T11:39:09.962Z</time></trkpt><trkpt lat="43.0338383" lon="-3.8664186"><ele>914.0</ele><time>2026-05-02T11:39:10.961Z</time></trkpt><trkpt lat="43.0337271" lon="-3.8663945"><ele>913.5</ele><time>2026-05-02T11:39:11.959Z</time></trkpt><trkpt lat="43.0336135" lon="-3.8663679"><ele>913.0</ele><time>2026-05-02T11:39:12.956Z</time></trkpt><trkpt lat="43.0335029" lon="-3.8663407"><ele>912.5</ele><time>2026-05-02T11:39:13.954Z</time></trkpt><trkpt lat="43.0333919" lon="-3.8663065"><ele>912.0</ele><time>2026-05-02T11:39:14.959Z</time></trkpt><trkpt lat="43.0332848" lon="-3.8662656"><ele>909.2</ele><time>2026-05-02T11:39:15.957Z</time></trkpt><trkpt lat="43.0331779" lon="-3.8662207"><ele>906.4000000000001</ele><time>2026-05-02T11:39:16.959Z</time></trkpt><trkpt lat="43.0330728" lon="-3.8661693"><ele>903.5999999999999</ele><time>2026-05-02T11:39:17.959Z</time></trkpt><trkpt lat="43.0329719" lon="-3.8661118"><ele>900.8</ele><time>2026-05-02T11:39:18.962Z</time></trkpt><trkpt lat="43.0328699" lon="-3.8660485"><ele>898.0</ele><time>2026-05-02T11:39:19.961Z</time></trkpt><trkpt lat="43.0327752" lon="-3.8659819"><ele>897.2</ele><time>2026-05-02T11:39:20.96Z</time></trkpt><trkpt lat="43.0326801" lon="-3.8659071"><ele>896.4</ele><time>2026-05-02T11:39:21.959Z</time></trkpt><trkpt lat="43.0325878" lon="-3.865826"><ele>895.6000000000001</ele><time>2026-05-02T11:39:22.969Z</time></trkpt><trkpt lat="43.0324987" lon="-3.8657351"><ele>894.8000000000001</ele><time>2026-05-02T11:39:23.962Z</time></trkpt><trkpt lat="43.0324152" lon="-3.8656365"><ele>894.0</ele><time>2026-05-02T11:39:24.961Z</time></trkpt><trkpt lat="43.0323295" lon="-3.8655313"><ele>891.8000000000001</ele><time>2026-05-02T11:39:25.963Z</time></trkpt><trkpt lat="43.0322483" lon="-3.8654309"><ele>889.6000000000001</ele><time>2026-05-02T11:39:26.965Z</time></trkpt><trkpt lat="43.0321674" lon="-3.8653322"><ele>887.4</ele><time>2026-05-02T11:39:27.961Z</time></trkpt><trkpt lat="43.0320852" lon="-3.8652347"><ele>885.2</ele><time>2026-05-02T11:39:28.986Z</time></trkpt><trkpt lat="43.0320082" lon="-3.8651422"><ele>883.0</ele><time>2026-05-02T11:39:29.967Z</time></trkpt><trkpt lat="43.0319278" lon="-3.8650486"><ele>882.8</ele><time>2026-05-02T11:39:30.969Z</time></trkpt><trkpt lat="43.0318438" lon="-3.8649565"><ele>882.5999999999999</ele><time>2026-05-02T11:39:31.965Z</time></trkpt><trkpt lat="43.0317552" lon="-3.8648686"><ele>882.4000000000001</ele><time>2026-05-02T11:39:32.966Z</time></trkpt><trkpt lat="43.0316664" lon="-3.8647881"><ele>882.2</ele><time>2026-05-02T11:39:33.962Z</time></trkpt><trkpt lat="43.031581" lon="-3.8647224"><ele>882.0</ele><time>2026-05-02T11:39:34.962Z</time></trkpt><trkpt lat="43.031495" lon="-3.8646634"><ele>880.2</ele><time>2026-05-02T11:39:35.961Z</time></trkpt><trkpt lat="43.0314093" lon="-3.8646068"><ele>878.4000000000001</ele><time>2026-05-02T11:39:36.97Z</time></trkpt><trkpt lat="43.0313238" lon="-3.8645468"><ele>876.5999999999999</ele><time>2026-05-02T11:39:37.962Z</time></trkpt><trkpt lat="43.0312381" lon="-3.8644878"><ele>874.8</ele><time>2026-05-02T11:39:38.971Z</time></trkpt><trkpt lat="43.0311461" lon="-3.8644239"><ele>873.0</ele><time>2026-05-02T11:39:39.965Z</time></trkpt><trkpt lat="43.0310534" lon="-3.8643603"><ele>873.0</ele><time>2026-05-02T11:39:40.964Z</time></trkpt><trkpt lat="43.0309565" lon="-3.864292"><ele>873.0</ele><time>2026-05-02T11:39:41.963Z</time></trkpt><trkpt lat="43.0308599" lon="-3.8642198"><ele>873.0</ele><time>2026-05-02T11:39:42.963Z</time></trkpt><trkpt lat="43.0307691" lon="-3.8641427"><ele>873.0</ele><time>2026-05-02T11:39:43.965Z</time></trkpt><trkpt lat="43.0306801" lon="-3.8640661"><ele>873.0</ele><time>2026-05-02T11:39:44.968Z</time></trkpt><trkpt lat="43.0305927" lon="-3.8639819"><ele>871.5999999999999</ele><time>2026-05-02T11:39:45.967Z</time></trkpt><trkpt lat="43.030506" lon="-3.8638971"><ele>870.1999999999999</ele><time>2026-05-02T11:39:46.968Z</time></trkpt><trkpt lat="43.0304176" lon="-3.8638092"><ele>868.8</ele><time>2026-05-02T11:39:47.969Z</time></trkpt><trkpt lat="43.0303286" lon="-3.8637211"><ele>867.4</ele><time>2026-05-02T11:39:48.969Z</time></trkpt><trkpt lat="43.0302379" lon="-3.8636378"><ele>866.0</ele><time>2026-05-02T11:39:49.966Z</time></trkpt><trkpt lat="43.0301412" lon="-3.8635702"><ele>866.0</ele><time>2026-05-02T11:39:50.968Z</time></trkpt><trkpt lat="43.0300368" lon="-3.86352"><ele>865.9999999999999</ele><time>2026-05-02T11:39:51.963Z</time></trkpt><trkpt lat="43.0299305" lon="-3.8634824"><ele>865.9999999999999</ele><time>2026-05-02T11:39:52.968Z</time></trkpt><trkpt lat="43.029829" lon="-3.8634533"><ele>866.0</ele><time>2026-05-02T11:39:53.968Z</time></trkpt><trkpt lat="43.0297322" lon="-3.8634261"><ele>866.0</ele><time>2026-05-02T11:39:54.962Z</time></trkpt><trkpt lat="43.0296314" lon="-3.8634028"><ele>864.1999999999999</ele><time>2026-05-02T11:39:55.962Z</time></trkpt><trkpt lat="43.0295269" lon="-3.8633901"><ele>862.3999999999999</ele><time>2026-05-02T11:39:56.959Z</time></trkpt><trkpt lat="43.0294227" lon="-3.8633851"><ele>860.6</ele><time>2026-05-02T11:39:57.963Z</time></trkpt><trkpt lat="43.0293241" lon="-3.8633912"><ele>858.8</ele><time>2026-05-02T11:39:58.96Z</time></trkpt><trkpt lat="43.0292212" lon="-3.8633955"><ele>857.0</ele><time>2026-05-02T11:39:59.979Z</time></trkpt><trkpt lat="43.0291259" lon="-3.8634021"><ele>856.1666666666667</ele><time>2026-05-02T11:40:00.964Z</time></trkpt><trkpt lat="43.0290312" lon="-3.8634003"><ele>855.3333333333334</ele><time>2026-05-02T11:40:01.963Z</time></trkpt><trkpt lat="43.0289469" lon="-3.8633966"><ele>854.5</ele><time>2026-05-02T11:40:02.961Z</time></trkpt><trkpt lat="43.0288641" lon="-3.8633855"><ele>853.6666666666667</ele><time>2026-05-02T11:40:03.96Z</time></trkpt><trkpt lat="43.0287867" lon="-3.8633677"><ele>852.8333333333334</ele><time>2026-05-02T11:40:04.966Z</time></trkpt><trkpt lat="43.0287099" lon="-3.8633402"><ele>852.0</ele><time>2026-05-02T11:40:05.965Z</time></trkpt><trkpt lat="43.0286342" lon="-3.8633072"><ele>852.0</ele><time>2026-05-02T11:40:06.962Z</time></trkpt><trkpt lat="43.0285557" lon="-3.8632704"><ele>852.0</ele><time>2026-05-02T11:40:07.961Z</time></trkpt><trkpt lat="43.0284731" lon="-3.863233"><ele>852.0</ele><time>2026-05-02T11:40:08.978Z</time></trkpt><trkpt lat="43.0283918" lon="-3.8631903"><ele>852.0</ele><time>2026-05-02T11:40:09.966Z</time></trkpt><trkpt lat="43.0283106" lon="-3.8631415"><ele>852.0</ele><time>2026-05-02T11:40:10.963Z</time></trkpt><trkpt lat="43.0282306" lon="-3.8630894"><ele>852.0</ele><time>2026-05-02T11:40:11.963Z</time></trkpt><trkpt lat="43.0281467" lon="-3.8630326"><ele>851.6</ele><time>2026-05-02T11:40:12.967Z</time></trkpt><trkpt lat="43.0280659" lon="-3.8629715"><ele>851.2</ele><time>2026-05-02T11:40:13.962Z</time></trkpt><trkpt lat="43.0279785" lon="-3.8629003"><ele>850.8</ele><time>2026-05-02T11:40:14.96Z</time></trkpt><trkpt lat="43.0278961" lon="-3.8628246"><ele>850.4</ele><time>2026-05-02T11:40:15.964Z</time></trkpt><trkpt lat="43.0278158" lon="-3.8627409"><ele>850.0</ele><time>2026-05-02T11:40:16.967Z</time></trkpt><trkpt lat="43.0277365" lon="-3.8626552"><ele>850.0</ele><time>2026-05-02T11:40:17.969Z</time></trkpt><trkpt lat="43.0276556" lon="-3.8625668"><ele>850.0</ele><time>2026-05-02T11:40:18.97Z</time></trkpt><trkpt lat="43.0275736" lon="-3.8624777"><ele>850.0</ele><time>2026-05-02T11:40:19.969Z</time></trkpt><trkpt lat="43.0274935" lon="-3.8623871"><ele>850.0</ele><time>2026-05-02T11:40:20.969Z</time></trkpt><trkpt lat="43.027412" lon="-3.8622969"><ele>850.0</ele><time>2026-05-02T11:40:21.974Z</time></trkpt><trkpt lat="43.0273303" lon="-3.8622035"><ele>849.0</ele><time>2026-05-02T11:40:22.974Z</time></trkpt><trkpt lat="43.0272482" lon="-3.8621074"><ele>848.0</ele><time>2026-05-02T11:40:23.969Z</time></trkpt><trkpt lat="43.0271651" lon="-3.8620069"><ele>847.0</ele><time>2026-05-02T11:40:24.969Z</time></trkpt><trkpt lat="43.0270774" lon="-3.861905"><ele>846.0</ele><time>2026-05-02T11:40:25.973Z</time></trkpt><trkpt lat="43.0269894" lon="-3.8618024"><ele>846.1999999999999</ele><time>2026-05-02T11:40:26.97Z</time></trkpt><trkpt lat="43.0269026" lon="-3.8617059"><ele>846.4</ele><time>2026-05-02T11:40:27.968Z</time></trkpt><trkpt lat="43.0268172" lon="-3.8616098"><ele>846.6</ele><time>2026-05-02T11:40:28.968Z</time></trkpt><trkpt lat="43.0267387" lon="-3.8615135"><ele>846.8</ele><time>2026-05-02T11:40:29.966Z</time></trkpt><trkpt lat="43.0266574" lon="-3.8614147"><ele>847.0</ele><time>2026-05-02T11:40:30.985Z</time></trkpt><trkpt lat="43.0265776" lon="-3.8613149"><ele>846.6</ele><time>2026-05-02T11:40:31.965Z</time></trkpt><trkpt lat="43.0264982" lon="-3.8612172"><ele>846.2</ele><time>2026-05-02T11:40:32.965Z</time></trkpt><trkpt lat="43.0264153" lon="-3.8611231"><ele>845.8</ele><time>2026-05-02T11:40:33.965Z</time></trkpt><trkpt lat="43.0263316" lon="-3.8610251"><ele>845.4</ele><time>2026-05-02T11:40:34.966Z</time></trkpt><trkpt lat="43.0262474" lon="-3.8609251"><ele>845.0</ele><time>2026-05-02T11:40:35.967Z</time></trkpt><trkpt lat="43.0261597" lon="-3.8608271"><ele>844.75</ele><time>2026-05-02T11:40:36.968Z</time></trkpt><trkpt lat="43.0260731" lon="-3.8607281"><ele>844.5</ele><time>2026-05-02T11:40:37.969Z</time></trkpt><trkpt lat="43.0259845" lon="-3.8606297"><ele>844.25</ele><time>2026-05-02T11:40:38.976Z</time></trkpt><trkpt lat="43.0258988" lon="-3.8605317"><ele>844.0</ele><time>2026-05-02T11:40:39.968Z</time></trkpt><trkpt lat="43.0258109" lon="-3.8604332"><ele>843.8000000000001</ele><time>2026-05-02T11:40:40.968Z</time></trkpt><trkpt lat="43.0257262" lon="-3.8603347"><ele>843.6</ele><time>2026-05-02T11:40:41.973Z</time></trkpt><trkpt lat="43.0256422" lon="-3.8602364"><ele>843.4</ele><time>2026-05-02T11:40:42.97Z</time></trkpt><trkpt lat="43.0255602" lon="-3.86014"><ele>843.2</ele><time>2026-05-02T11:40:43.97Z</time></trkpt><trkpt lat="43.025475" lon="-3.8600436"><ele>843.0</ele><time>2026-05-02T11:40:44.97Z</time></trkpt><trkpt lat="43.0253919" lon="-3.8599475"><ele>843.0</ele><time>2026-05-02T11:40:45.97Z</time></trkpt><trkpt lat="43.0253091" lon="-3.8598501"><ele>843.0</ele><time>2026-05-02T11:40:46.97Z</time></trkpt><trkpt lat="43.0252249" lon="-3.8597506"><ele>843.0</ele><time>2026-05-02T11:40:47.967Z</time></trkpt><trkpt lat="43.0251397" lon="-3.8596495"><ele>843.0</ele><time>2026-05-02T11:40:48.968Z</time></trkpt><trkpt lat="43.025055" lon="-3.8595515"><ele>843.0</ele><time>2026-05-02T11:40:49.968Z</time></trkpt><trkpt lat="43.0249671" lon="-3.8594503"><ele>843.0</ele><time>2026-05-02T11:40:50.968Z</time></trkpt><trkpt lat="43.0248786" lon="-3.859344"><ele>843.0</ele><time>2026-05-02T11:40:51.971Z</time></trkpt><trkpt lat="43.0247905" lon="-3.8592392"><ele>843.0</ele><time>2026-05-02T11:40:52.982Z</time></trkpt><trkpt lat="43.0246993" lon="-3.8591322"><ele>843.0</ele><time>2026-05-02T11:40:53.975Z</time></trkpt><trkpt lat="43.0246082" lon="-3.8590248"><ele>843.25</ele><time>2026-05-02T11:40:54.977Z</time></trkpt><trkpt lat="43.0245141" lon="-3.8589174"><ele>843.5</ele><time>2026-05-02T11:40:55.979Z</time></trkpt><trkpt lat="43.0244212" lon="-3.8588062"><ele>843.75</ele><time>2026-05-02T11:40:56.979Z</time></trkpt><trkpt lat="43.0243253" lon="-3.8586971"><ele>844.0</ele><time>2026-05-02T11:40:57.98Z</time></trkpt><trkpt lat="43.0242288" lon="-3.8585896"><ele>844.25</ele><time>2026-05-02T11:40:58.983Z</time></trkpt><trkpt lat="43.0241325" lon="-3.8584745"><ele>844.5</ele><time>2026-05-02T11:40:59.977Z</time></trkpt><trkpt lat="43.0240372" lon="-3.8583644"><ele>844.75</ele><time>2026-05-02T11:41:00.978Z</time></trkpt><trkpt lat="43.0239412" lon="-3.8582551"><ele>845.0</ele><time>2026-05-02T11:41:01.994Z</time></trkpt><trkpt lat="43.0238466" lon="-3.8581483"><ele>845.0</ele><time>2026-05-02T11:41:02.979Z</time></trkpt><trkpt lat="43.0237517" lon="-3.8580401"><ele>845.0</ele><time>2026-05-02T11:41:03.968Z</time></trkpt><trkpt lat="43.0236592" lon="-3.8579306"><ele>845.0</ele><time>2026-05-02T11:41:04.969Z</time></trkpt><trkpt lat="43.0235647" lon="-3.8578222"><ele>845.0</ele><time>2026-05-02T11:41:05.967Z</time></trkpt><trkpt lat="43.0234718" lon="-3.857717"><ele>844.5</ele><time>2026-05-02T11:41:06.97Z</time></trkpt><trkpt lat="43.0233783" lon="-3.857608"><ele>844.0</ele><time>2026-05-02T11:41:07.967Z</time></trkpt><trkpt lat="43.0232853" lon="-3.8574999"><ele>843.5</ele><time>2026-05-02T11:41:08.977Z</time></trkpt><trkpt lat="43.0231922" lon="-3.8573968"><ele>843.0</ele><time>2026-05-02T11:41:09.969Z</time></trkpt><trkpt lat="43.0230999" lon="-3.8573008"><ele>842.8</ele><time>2026-05-02T11:41:10.973Z</time></trkpt><trkpt lat="43.0230128" lon="-3.8572093"><ele>842.5999999999999</ele><time>2026-05-02T11:41:11.967Z</time></trkpt><trkpt lat="43.022929" lon="-3.8571251"><ele>842.4000000000001</ele><time>2026-05-02T11:41:12.974Z</time></trkpt><trkpt lat="43.0228412" lon="-3.8570532"><ele>842.2</ele><time>2026-05-02T11:41:13.973Z</time></trkpt><trkpt lat="43.0227545" lon="-3.8569821"><ele>842.0</ele><time>2026-05-02T11:41:14.97Z</time></trkpt><trkpt lat="43.0226706" lon="-3.8569209"><ele>842.0</ele><time>2026-05-02T11:41:15.969Z</time></trkpt><trkpt lat="43.0225849" lon="-3.8568604"><ele>842.0</ele><time>2026-05-02T11:41:16.972Z</time></trkpt><trkpt lat="43.0224967" lon="-3.8568036"><ele>842.0</ele><time>2026-05-02T11:41:17.973Z</time></trkpt><trkpt lat="43.022406" lon="-3.8567462"><ele>842.0</ele><time>2026-05-02T11:41:18.972Z</time></trkpt><trkpt lat="43.0223141" lon="-3.8566968"><ele>842.0</ele><time>2026-05-02T11:41:19.969Z</time></trkpt><trkpt lat="43.0222289" lon="-3.8566542"><ele>842.0</ele><time>2026-05-02T11:41:20.966Z</time></trkpt><trkpt lat="43.0221443" lon="-3.85662"><ele>842.0</ele><time>2026-05-02T11:41:21.972Z</time></trkpt><trkpt lat="43.0220598" lon="-3.856584"><ele>842.0</ele><time>2026-05-02T11:41:22.974Z</time></trkpt><trkpt lat="43.0219688" lon="-3.8565536"><ele>842.0</ele><time>2026-05-02T11:41:23.971Z</time></trkpt><trkpt lat="43.0218815" lon="-3.8565165"><ele>842.0</ele><time>2026-05-02T11:41:24.974Z</time></trkpt><trkpt lat="43.0217923" lon="-3.8564803"><ele>842.0</ele><time>2026-05-02T11:41:25.975Z</time></trkpt><trkpt lat="43.0216975" lon="-3.8564378"><ele>842.0</ele><time>2026-05-02T11:41:26.98Z</time></trkpt><trkpt lat="43.0215988" lon="-3.8563989"><ele>842.0</ele><time>2026-05-02T11:41:27.981Z</time></trkpt><trkpt lat="43.0215001" lon="-3.8563591"><ele>842.0</ele><time>2026-05-02T11:41:28.979Z</time></trkpt><trkpt lat="43.0213983" lon="-3.8563152"><ele>842.0</ele><time>2026-05-02T11:41:29.975Z</time></trkpt><trkpt lat="43.0212981" lon="-3.8562735"><ele>842.0</ele><time>2026-05-02T11:41:30.984Z</time></trkpt><trkpt lat="43.0211939" lon="-3.8562322"><ele>842.0</ele><time>2026-05-02T11:41:31.978Z</time></trkpt><trkpt lat="43.0210881" lon="-3.8561924"><ele>842.0</ele><time>2026-05-02T11:41:33.002Z</time></trkpt><trkpt lat="43.0209786" lon="-3.8561524"><ele>842.0</ele><time>2026-05-02T11:41:33.976Z</time></trkpt><trkpt lat="43.0208732" lon="-3.8561137"><ele>842.0</ele><time>2026-05-02T11:41:34.979Z</time></trkpt><trkpt lat="43.0207653" lon="-3.8560696"><ele>842.0</ele><time>2026-05-02T11:41:35.978Z</time></trkpt><trkpt lat="43.0206539" lon="-3.8560213"><ele>842.0</ele><time>2026-05-02T11:41:36.979Z</time></trkpt><trkpt lat="43.0205352" lon="-3.8559748"><ele>842.0</ele><time>2026-05-02T11:41:37.977Z</time></trkpt><trkpt lat="43.0204203" lon="-3.8559256"><ele>842.0</ele><time>2026-05-02T11:41:38.988Z</time></trkpt><trkpt lat="43.0203016" lon="-3.855877"><ele>842.0</ele><time>2026-05-02T11:41:39.974Z</time></trkpt><trkpt lat="43.0201827" lon="-3.8558272"><ele>842.0</ele><time>2026-05-02T11:41:40.973Z</time></trkpt><trkpt lat="43.0200603" lon="-3.8557813"><ele>842.0</ele><time>2026-05-02T11:41:41.976Z</time></trkpt><trkpt lat="43.0199389" lon="-3.8557303"><ele>842.0</ele><time>2026-05-02T11:41:42.975Z</time></trkpt><trkpt lat="43.0198178" lon="-3.8556781"><ele>842.25</ele><time>2026-05-02T11:41:43.977Z</time></trkpt><trkpt lat="43.0196957" lon="-3.8556292"><ele>842.5</ele><time>2026-05-02T11:41:44.974Z</time></trkpt><trkpt lat="43.0195744" lon="-3.8555802"><ele>842.75</ele><time>2026-05-02T11:41:45.977Z</time></trkpt><trkpt lat="43.0194462" lon="-3.8555304"><ele>843.0</ele><time>2026-05-02T11:41:46.972Z</time></trkpt><trkpt lat="43.0193155" lon="-3.8554815"><ele>843.0</ele><time>2026-05-02T11:41:47.974Z</time></trkpt><trkpt lat="43.019188" lon="-3.8554311"><ele>843.0</ele><time>2026-05-02T11:41:48.971Z</time></trkpt><trkpt lat="43.0190619" lon="-3.8553778"><ele>843.0</ele><time>2026-05-02T11:41:49.974Z</time></trkpt><trkpt lat="43.0189365" lon="-3.8553277"><ele>843.0</ele><time>2026-05-02T11:41:50.971Z</time></trkpt><trkpt lat="43.018816" lon="-3.8552755"><ele>843.25</ele><time>2026-05-02T11:41:51.975Z</time></trkpt><trkpt lat="43.018691" lon="-3.8552243"><ele>843.5</ele><time>2026-05-02T11:41:52.974Z</time></trkpt><trkpt lat="43.0185662" lon="-3.8551745"><ele>843.75</ele><time>2026-05-02T11:41:53.973Z</time></trkpt><trkpt lat="43.0184435" lon="-3.8551257"><ele>844.0</ele><time>2026-05-02T11:41:54.973Z</time></trkpt><trkpt lat="43.0183242" lon="-3.8550801"><ele>844.5</ele><time>2026-05-02T11:41:55.976Z</time></trkpt><trkpt lat="43.0182022" lon="-3.855032"><ele>845.0</ele><time>2026-05-02T11:41:56.974Z</time></trkpt><trkpt lat="43.0180815" lon="-3.8549864"><ele>845.5</ele><time>2026-05-02T11:41:57.979Z</time></trkpt><trkpt lat="43.0179608" lon="-3.8549442"><ele>846.0</ele><time>2026-05-02T11:41:58.98Z</time></trkpt><trkpt lat="43.0178406" lon="-3.8548977"><ele>846.0</ele><time>2026-05-02T11:41:59.979Z</time></trkpt><trkpt lat="43.0177193" lon="-3.8548523"><ele>846.0</ele><time>2026-05-02T11:42:00.976Z</time></trkpt><trkpt lat="43.0176011" lon="-3.854799"><ele>846.0</ele><time>2026-05-02T11:42:01.972Z</time></trkpt><trkpt lat="43.0174812" lon="-3.8547493"><ele>846.0</ele><time>2026-05-02T11:42:02.973Z</time></trkpt><trkpt lat="43.017362" lon="-3.8547026"><ele>845.25</ele><time>2026-05-02T11:42:03.991Z</time></trkpt><trkpt lat="43.0172427" lon="-3.8546588"><ele>844.5</ele><time>2026-05-02T11:42:04.975Z</time></trkpt><trkpt lat="43.0171247" lon="-3.8546145"><ele>843.75</ele><time>2026-05-02T11:42:05.973Z</time></trkpt><trkpt lat="43.0170077" lon="-3.8545676"><ele>843.0</ele><time>2026-05-02T11:42:06.975Z</time></trkpt><trkpt lat="43.0168893" lon="-3.8545161"><ele>843.0</ele><time>2026-05-02T11:42:07.971Z</time></trkpt><trkpt lat="43.0167739" lon="-3.854462"><ele>843.0</ele><time>2026-05-02T11:42:08.981Z</time></trkpt><trkpt lat="43.0166567" lon="-3.8544128"><ele>843.0</ele><time>2026-05-02T11:42:09.973Z</time></trkpt><trkpt lat="43.016539" lon="-3.8543657"><ele>843.0</ele><time>2026-05-02T11:42:10.973Z</time></trkpt><trkpt lat="43.0164217" lon="-3.8543191"><ele>843.5</ele><time>2026-05-02T11:42:11.972Z</time></trkpt><trkpt lat="43.0163047" lon="-3.8542704"><ele>844.0</ele><time>2026-05-02T11:42:12.973Z</time></trkpt><trkpt lat="43.0161874" lon="-3.8542251"><ele>844.5</ele><time>2026-05-02T11:42:13.974Z</time></trkpt><trkpt lat="43.0160668" lon="-3.8541759"><ele>845.0</ele><time>2026-05-02T11:42:14.975Z</time></trkpt><trkpt lat="43.0159474" lon="-3.8541292"><ele>845.0</ele><time>2026-05-02T11:42:15.975Z</time></trkpt><trkpt lat="43.0158301" lon="-3.8540847"><ele>845.0</ele><time>2026-05-02T11:42:16.975Z</time></trkpt><trkpt lat="43.0157122" lon="-3.8540374"><ele>845.0</ele><time>2026-05-02T11:42:17.975Z</time></trkpt><trkpt lat="43.015596" lon="-3.853987"><ele>845.0</ele><time>2026-05-02T11:42:18.972Z</time></trkpt><trkpt lat="43.0154813" lon="-3.8539404"><ele>845.0</ele><time>2026-05-02T11:42:19.971Z</time></trkpt><trkpt lat="43.0153708" lon="-3.8538933"><ele>845.0</ele><time>2026-05-02T11:42:20.973Z</time></trkpt><trkpt lat="43.0152548" lon="-3.8538467"><ele>845.0</ele><time>2026-05-02T11:42:21.973Z</time></trkpt><trkpt lat="43.0151405" lon="-3.8538011"><ele>845.0</ele><time>2026-05-02T11:42:22.974Z</time></trkpt><trkpt lat="43.0150254" lon="-3.8537555"><ele>844.75</ele><time>2026-05-02T11:42:23.972Z</time></trkpt><trkpt lat="43.0149077" lon="-3.8537107"><ele>844.5</ele><time>2026-05-02T11:42:24.976Z</time></trkpt><trkpt lat="43.0147895" lon="-3.8536628"><ele>844.25</ele><time>2026-05-02T11:42:25.972Z</time></trkpt><trkpt lat="43.0146733" lon="-3.8536144"><ele>844.0</ele><time>2026-05-02T11:42:26.974Z</time></trkpt><trkpt lat="43.0145609" lon="-3.8535718"><ele>844.0</ele><time>2026-05-02T11:42:27.976Z</time></trkpt><trkpt lat="43.0144527" lon="-3.8535325"><ele>844.0</ele><time>2026-05-02T11:42:28.978Z</time></trkpt><trkpt lat="43.014348" lon="-3.8534979"><ele>844.0</ele><time>2026-05-02T11:42:29.972Z</time></trkpt><trkpt lat="43.0142476" lon="-3.8534632"><ele>844.0</ele><time>2026-05-02T11:42:30.978Z</time></trkpt><trkpt lat="43.0141412" lon="-3.8534277"><ele>844.0</ele><time>2026-05-02T11:42:31.973Z</time></trkpt><trkpt lat="43.0140338" lon="-3.8533878"><ele>844.0</ele><time>2026-05-02T11:42:32.978Z</time></trkpt><trkpt lat="43.0139288" lon="-3.8533597"><ele>844.0</ele><time>2026-05-02T11:42:33.979Z</time></trkpt><trkpt lat="43.0138172" lon="-3.8533355"><ele>844.0</ele><time>2026-05-02T11:42:34.996Z</time></trkpt><trkpt lat="43.0137019" lon="-3.8533112"><ele>844.0</ele><time>2026-05-02T11:42:35.976Z</time></trkpt><trkpt lat="43.0135831" lon="-3.8532979"><ele>844.0</ele><time>2026-05-02T11:42:36.976Z</time></trkpt><trkpt lat="43.0134643" lon="-3.8532912"><ele>844.0</ele><time>2026-05-02T11:42:37.974Z</time></trkpt><trkpt lat="43.0133383" lon="-3.8532895"><ele>844.0</ele><time>2026-05-02T11:42:38.987Z</time></trkpt><trkpt lat="43.0132122" lon="-3.8532934"><ele>844.0</ele><time>2026-05-02T11:42:39.976Z</time></trkpt><trkpt lat="43.0130895" lon="-3.8532988"><ele>844.0</ele><time>2026-05-02T11:42:40.979Z</time></trkpt><trkpt lat="43.0129667" lon="-3.8533064"><ele>844.0</ele><time>2026-05-02T11:42:41.979Z</time></trkpt><trkpt lat="43.0128441" lon="-3.8533116"><ele>844.0</ele><time>2026-05-02T11:42:42.978Z</time></trkpt><trkpt lat="43.0127215" lon="-3.8533149"><ele>844.0</ele><time>2026-05-02T11:42:43.979Z</time></trkpt><trkpt lat="43.0125969" lon="-3.8533269"><ele>844.0</ele><time>2026-05-02T11:42:44.975Z</time></trkpt><trkpt lat="43.0124729" lon="-3.8533528"><ele>844.0</ele><time>2026-05-02T11:42:45.978Z</time></trkpt><trkpt lat="43.0123551" lon="-3.8533806"><ele>844.0</ele><time>2026-05-02T11:42:46.982Z</time></trkpt><trkpt lat="43.0122358" lon="-3.8534131"><ele>844.0</ele><time>2026-05-02T11:42:47.981Z</time></trkpt><trkpt lat="43.0121166" lon="-3.853446"><ele>843.5</ele><time>2026-05-02T11:42:48.978Z</time></trkpt><trkpt lat="43.012002" lon="-3.8534838"><ele>843.0</ele><time>2026-05-02T11:42:49.977Z</time></trkpt><trkpt lat="43.0118901" lon="-3.8535266"><ele>842.5</ele><time>2026-05-02T11:42:50.975Z</time></trkpt><trkpt lat="43.0117744" lon="-3.8535698"><ele>842.0</ele><time>2026-05-02T11:42:51.978Z</time></trkpt><trkpt lat="43.0116586" lon="-3.853618"><ele>842.25</ele><time>2026-05-02T11:42:52.977Z</time></trkpt><trkpt lat="43.0115407" lon="-3.8536735"><ele>842.5</ele><time>2026-05-02T11:42:53.975Z</time></trkpt><trkpt lat="43.0114272" lon="-3.8537384"><ele>842.75</ele><time>2026-05-02T11:42:54.974Z</time></trkpt><trkpt lat="43.0113189" lon="-3.8538132"><ele>843.0</ele><time>2026-05-02T11:42:55.98Z</time></trkpt><trkpt lat="43.0112148" lon="-3.8538924"><ele>843.0</ele><time>2026-05-02T11:42:56.976Z</time></trkpt><trkpt lat="43.0111083" lon="-3.8539784"><ele>843.0</ele><time>2026-05-02T11:42:57.976Z</time></trkpt><trkpt lat="43.0110012" lon="-3.8540712"><ele>843.0</ele><time>2026-05-02T11:42:58.979Z</time></trkpt><trkpt lat="43.0108966" lon="-3.8541694"><ele>843.0</ele><time>2026-05-02T11:42:59.975Z</time></trkpt><trkpt lat="43.0107879" lon="-3.8542703"><ele>842.25</ele><time>2026-05-02T11:43:00.976Z</time></trkpt><trkpt lat="43.0106785" lon="-3.854379"><ele>841.5</ele><time>2026-05-02T11:43:01.972Z</time></trkpt><trkpt lat="43.0105673" lon="-3.8544896"><ele>840.75</ele><time>2026-05-02T11:43:02.974Z</time></trkpt><trkpt lat="43.0104586" lon="-3.8546069"><ele>840.0</ele><time>2026-05-02T11:43:03.977Z</time></trkpt><trkpt lat="43.0103519" lon="-3.8547224"><ele>840.0</ele><time>2026-05-02T11:43:04.974Z</time></trkpt><trkpt lat="43.0102474" lon="-3.8548348"><ele>840.0</ele><time>2026-05-02T11:43:05.992Z</time></trkpt><trkpt lat="43.0101418" lon="-3.8549404"><ele>840.0</ele><time>2026-05-02T11:43:06.972Z</time></trkpt><trkpt lat="43.0100351" lon="-3.8550487"><ele>840.0</ele><time>2026-05-02T11:43:07.972Z</time></trkpt><trkpt lat="43.0099286" lon="-3.8551586"><ele>840.75</ele><time>2026-05-02T11:43:08.98Z</time></trkpt><trkpt lat="43.0098239" lon="-3.8552713"><ele>841.5</ele><time>2026-05-02T11:43:09.978Z</time></trkpt><trkpt lat="43.0097219" lon="-3.8553798"><ele>842.25</ele><time>2026-05-02T11:43:10.976Z</time></trkpt><trkpt lat="43.0096214" lon="-3.8554862"><ele>843.0</ele><time>2026-05-02T11:43:11.971Z</time></trkpt><trkpt lat="43.0095222" lon="-3.8555919"><ele>843.0</ele><time>2026-05-02T11:43:12.975Z</time></trkpt><trkpt lat="43.0094217" lon="-3.8556967"><ele>843.0</ele><time>2026-05-02T11:43:13.977Z</time></trkpt><trkpt lat="43.0093244" lon="-3.8557968"><ele>843.0</ele><time>2026-05-02T11:43:14.975Z</time></trkpt><trkpt lat="43.0092256" lon="-3.8558972"><ele>843.0</ele><time>2026-05-02T11:43:15.978Z</time></trkpt><trkpt lat="43.0091287" lon="-3.8559912"><ele>844.25</ele><time>2026-05-02T11:43:16.975Z</time></trkpt><trkpt lat="43.009035" lon="-3.8560896"><ele>845.5</ele><time>2026-05-02T11:43:17.985Z</time></trkpt><trkpt lat="43.0089454" lon="-3.8561819"><ele>846.75</ele><time>2026-05-02T11:43:18.978Z</time></trkpt><trkpt lat="43.0088568" lon="-3.8562732"><ele>848.0</ele><time>2026-05-02T11:43:19.978Z</time></trkpt><trkpt lat="43.0087662" lon="-3.8563599"><ele>848.0</ele><time>2026-05-02T11:43:20.978Z</time></trkpt><trkpt lat="43.008678" lon="-3.856454"><ele>848.0</ele><time>2026-05-02T11:43:21.98Z</time></trkpt><trkpt lat="43.0085903" lon="-3.8565506"><ele>848.0</ele><time>2026-05-02T11:43:22.98Z</time></trkpt><trkpt lat="43.0085078" lon="-3.8566393"><ele>848.0</ele><time>2026-05-02T11:43:23.979Z</time></trkpt><trkpt lat="43.0084242" lon="-3.8567319"><ele>848.0</ele><time>2026-05-02T11:43:24.979Z</time></trkpt><trkpt lat="43.0083397" lon="-3.8568222"><ele>848.0</ele><time>2026-05-02T11:43:25.974Z</time></trkpt><trkpt lat="43.0082534" lon="-3.8569148"><ele>848.0</ele><time>2026-05-02T11:43:26.98Z</time></trkpt><trkpt lat="43.0081649" lon="-3.8570012"><ele>848.0</ele><time>2026-05-02T11:43:27.979Z</time></trkpt><trkpt lat="43.0080741" lon="-3.8570901"><ele>848.0</ele><time>2026-05-02T11:43:28.981Z</time></trkpt><trkpt lat="43.0079829" lon="-3.8571795"><ele>848.0</ele><time>2026-05-02T11:43:29.978Z</time></trkpt><trkpt lat="43.0078925" lon="-3.8572679"><ele>848.0</ele><time>2026-05-02T11:43:30.978Z</time></trkpt><trkpt lat="43.0077987" lon="-3.8573552"><ele>848.0</ele><time>2026-05-02T11:43:31.976Z</time></trkpt><trkpt lat="43.0077032" lon="-3.8574377"><ele>848.0</ele><time>2026-05-02T11:43:32.974Z</time></trkpt><trkpt lat="43.0076063" lon="-3.8575211"><ele>848.0</ele><time>2026-05-02T11:43:33.974Z</time></trkpt><trkpt lat="43.0075102" lon="-3.857602"><ele>847.75</ele><time>2026-05-02T11:43:34.974Z</time></trkpt><trkpt lat="43.007408" lon="-3.8576803"><ele>847.5</ele><time>2026-05-02T11:43:35.974Z</time></trkpt><trkpt lat="43.0073052" lon="-3.8577519"><ele>847.25</ele><time>2026-05-02T11:43:37.008Z</time></trkpt><trkpt lat="43.0072017" lon="-3.8578147"><ele>847.0</ele><time>2026-05-02T11:43:37.975Z</time></trkpt><trkpt lat="43.0070956" lon="-3.8578735"><ele>847.0</ele><time>2026-05-02T11:43:38.984Z</time></trkpt><trkpt lat="43.0069914" lon="-3.8579339"><ele>847.0</ele><time>2026-05-02T11:43:39.974Z</time></trkpt><trkpt lat="43.00689" lon="-3.8579956"><ele>847.0</ele><time>2026-05-02T11:43:40.977Z</time></trkpt><trkpt lat="43.0067881" lon="-3.8580547"><ele>847.0</ele><time>2026-05-02T11:43:41.975Z</time></trkpt><trkpt lat="43.0066849" lon="-3.8581115"><ele>847.0</ele><time>2026-05-02T11:43:42.977Z</time></trkpt><trkpt lat="43.0065831" lon="-3.8581677"><ele>847.0</ele><time>2026-05-02T11:43:43.97Z</time></trkpt><trkpt lat="43.0064773" lon="-3.8582215"><ele>847.0</ele><time>2026-05-02T11:43:44.974Z</time></trkpt><trkpt lat="43.0063788" lon="-3.858269"><ele>847.0</ele><time>2026-05-02T11:43:45.974Z</time></trkpt><trkpt lat="43.0062768" lon="-3.8583272"><ele>847.0</ele><time>2026-05-02T11:43:46.976Z</time></trkpt><trkpt lat="43.0061765" lon="-3.8583847"><ele>847.0</ele><time>2026-05-02T11:43:47.981Z</time></trkpt><trkpt lat="43.0060735" lon="-3.858445"><ele>846.6</ele><time>2026-05-02T11:43:48.975Z</time></trkpt><trkpt lat="43.0059673" lon="-3.8585036"><ele>846.2</ele><time>2026-05-02T11:43:49.975Z</time></trkpt><trkpt lat="43.005866" lon="-3.8585569"><ele>845.8</ele><time>2026-05-02T11:43:50.975Z</time></trkpt><trkpt lat="43.0057645" lon="-3.8586071"><ele>845.4</ele><time>2026-05-02T11:43:51.976Z</time></trkpt><trkpt lat="43.0056592" lon="-3.8586556"><ele>845.0</ele><time>2026-05-02T11:43:52.974Z</time></trkpt><trkpt lat="43.0055525" lon="-3.8586942"><ele>845.0</ele><time>2026-05-02T11:43:53.973Z</time></trkpt><trkpt lat="43.0054395" lon="-3.8587217"><ele>845.0</ele><time>2026-05-02T11:43:54.973Z</time></trkpt><trkpt lat="43.0053251" lon="-3.8587385"><ele>845.0</ele><time>2026-05-02T11:43:55.984Z</time></trkpt><trkpt lat="43.0052081" lon="-3.8587482"><ele>845.0</ele><time>2026-05-02T11:43:56.974Z</time></trkpt><trkpt lat="43.0050907" lon="-3.8587546"><ele>845.5</ele><time>2026-05-02T11:43:57.975Z</time></trkpt><trkpt lat="43.0049761" lon="-3.8587563"><ele>846.0</ele><time>2026-05-02T11:43:58.981Z</time></trkpt><trkpt lat="43.0048576" lon="-3.8587595"><ele>846.5</ele><time>2026-05-02T11:43:59.977Z</time></trkpt><trkpt lat="43.0047366" lon="-3.8587632"><ele>847.0</ele><time>2026-05-02T11:44:00.973Z</time></trkpt><trkpt lat="43.0046184" lon="-3.8587668"><ele>847.0</ele><time>2026-05-02T11:44:01.974Z</time></trkpt><trkpt lat="43.004499" lon="-3.8587709"><ele>847.0</ele><time>2026-05-02T11:44:02.972Z</time></trkpt><trkpt lat="43.0043829" lon="-3.8587741"><ele>847.0</ele><time>2026-05-02T11:44:03.973Z</time></trkpt><trkpt lat="43.0042642" lon="-3.8587812"><ele>847.0</ele><time>2026-05-02T11:44:04.969Z</time></trkpt><trkpt lat="43.0041468" lon="-3.8587854"><ele>846.5</ele><time>2026-05-02T11:44:05.972Z</time></trkpt><trkpt lat="43.0040301" lon="-3.8587888"><ele>846.0</ele><time>2026-05-02T11:44:06.99Z</time></trkpt><trkpt lat="43.0039095" lon="-3.8587942"><ele>845.5</ele><time>2026-05-02T11:44:07.968Z</time></trkpt><trkpt lat="43.003793" lon="-3.858799"><ele>845.0</ele><time>2026-05-02T11:44:08.983Z</time></trkpt><trkpt lat="43.0036754" lon="-3.8588044"><ele>845.0</ele><time>2026-05-02T11:44:09.97Z</time></trkpt><trkpt lat="43.0035552" lon="-3.8588138"><ele>845.0</ele><time>2026-05-02T11:44:10.975Z</time></trkpt><trkpt lat="43.0034329" lon="-3.8588235"><ele>845.0</ele><time>2026-05-02T11:44:11.971Z</time></trkpt><trkpt lat="43.0033119" lon="-3.8588264"><ele>845.0</ele><time>2026-05-02T11:44:12.974Z</time></trkpt><trkpt lat="43.0031897" lon="-3.8588315"><ele>844.5</ele><time>2026-05-02T11:44:13.973Z</time></trkpt><trkpt lat="43.0030661" lon="-3.8588385"><ele>844.0</ele><time>2026-05-02T11:44:14.974Z</time></trkpt><trkpt lat="43.0029482" lon="-3.8588514"><ele>843.5</ele><time>2026-05-02T11:44:15.97Z</time></trkpt><trkpt lat="43.0028304" lon="-3.8588605"><ele>843.0</ele><time>2026-05-02T11:44:16.967Z</time></trkpt><trkpt lat="43.0027148" lon="-3.858868"><ele>843.0</ele><time>2026-05-02T11:44:17.973Z</time></trkpt><trkpt lat="43.002598" lon="-3.8588682"><ele>843.0</ele><time>2026-05-02T11:44:18.973Z</time></trkpt><trkpt lat="43.0024805" lon="-3.8588714"><ele>843.0</ele><time>2026-05-02T11:44:19.972Z</time></trkpt><trkpt lat="43.0023662" lon="-3.8588786"><ele>843.0</ele><time>2026-05-02T11:44:20.971Z</time></trkpt><trkpt lat="43.0022492" lon="-3.8588822"><ele>843.25</ele><time>2026-05-02T11:44:21.975Z</time></trkpt><trkpt lat="43.0021327" lon="-3.8588909"><ele>843.5</ele><time>2026-05-02T11:44:22.974Z</time></trkpt><trkpt lat="43.0020174" lon="-3.8588984"><ele>843.75</ele><time>2026-05-02T11:44:23.973Z</time></trkpt><trkpt lat="43.0019015" lon="-3.8589069"><ele>844.0</ele><time>2026-05-02T11:44:24.974Z</time></trkpt><trkpt lat="43.0017829" lon="-3.8589167"><ele>844.25</ele><time>2026-05-02T11:44:25.979Z</time></trkpt><trkpt lat="43.0016641" lon="-3.858926"><ele>844.5</ele><time>2026-05-02T11:44:26.976Z</time></trkpt><trkpt lat="43.0015462" lon="-3.858932"><ele>844.75</ele><time>2026-05-02T11:44:27.974Z</time></trkpt><trkpt lat="43.0014291" lon="-3.8589336"><ele>845.0</ele><time>2026-05-02T11:44:28.975Z</time></trkpt><trkpt lat="43.0013146" lon="-3.8589402"><ele>845.0</ele><time>2026-05-02T11:44:29.977Z</time></trkpt><trkpt lat="43.0011973" lon="-3.8589495"><ele>845.0</ele><time>2026-05-02T11:44:30.974Z</time></trkpt><trkpt lat="43.0010793" lon="-3.8589578"><ele>845.0</ele><time>2026-05-02T11:44:31.974Z</time></trkpt><trkpt lat="43.0009633" lon="-3.858964"><ele>845.0</ele><time>2026-05-02T11:44:32.976Z</time></trkpt><trkpt lat="43.0008443" lon="-3.8589704"><ele>845.25</ele><time>2026-05-02T11:44:33.973Z</time></trkpt><trkpt lat="43.0007269" lon="-3.8589764"><ele>845.5</ele><time>2026-05-02T11:44:34.979Z</time></trkpt><trkpt lat="43.0006076" lon="-3.8589829"><ele>845.75</ele><time>2026-05-02T11:44:35.976Z</time></trkpt><trkpt lat="43.0004872" lon="-3.8589907"><ele>846.0</ele><time>2026-05-02T11:44:36.973Z</time></trkpt><trkpt lat="43.0003661" lon="-3.8589959"><ele>846.0</ele><time>2026-05-02T11:44:37.991Z</time></trkpt><trkpt lat="43.0002441" lon="-3.8590027"><ele>846.0</ele><time>2026-05-02T11:44:38.982Z</time></trkpt><trkpt lat="43.0001236" lon="-3.8590063"><ele>846.0</ele><time>2026-05-02T11:44:39.978Z</time></trkpt><trkpt lat="43.000003" lon="-3.859011"><ele>846.0</ele><time>2026-05-02T11:44:40.976Z</time></trkpt><trkpt lat="42.9998828" lon="-3.8590215"><ele>846.0</ele><time>2026-05-02T11:44:41.968Z</time></trkpt><trkpt lat="42.9997603" lon="-3.8590296"><ele>846.0</ele><time>2026-05-02T11:44:42.968Z</time></trkpt><trkpt lat="42.9996448" lon="-3.8590377"><ele>846.0</ele><time>2026-05-02T11:44:43.967Z</time></trkpt><trkpt lat="42.9995253" lon="-3.859047"><ele>846.0</ele><time>2026-05-02T11:44:44.965Z</time></trkpt><trkpt lat="42.9994048" lon="-3.8590534"><ele>846.0</ele><time>2026-05-02T11:44:45.964Z</time></trkpt><trkpt lat="42.9992825" lon="-3.8590621"><ele>846.0</ele><time>2026-05-02T11:44:46.968Z</time></trkpt><trkpt lat="42.9991593" lon="-3.8590695"><ele>846.0</ele><time>2026-05-02T11:44:47.968Z</time></trkpt><trkpt lat="42.9990356" lon="-3.8590796"><ele>846.0</ele><time>2026-05-02T11:44:48.966Z</time></trkpt><trkpt lat="42.998907" lon="-3.8590873"><ele>845.25</ele><time>2026-05-02T11:44:49.964Z</time></trkpt><trkpt lat="42.9987803" lon="-3.8590936"><ele>844.5</ele><time>2026-05-02T11:44:50.965Z</time></trkpt><trkpt lat="42.9986521" lon="-3.8591014"><ele>843.75</ele><time>2026-05-02T11:44:51.963Z</time></trkpt><trkpt lat="42.9985243" lon="-3.8591088"><ele>843.0</ele><time>2026-05-02T11:44:52.963Z</time></trkpt><trkpt lat="42.9984021" lon="-3.8591121"><ele>843.5</ele><time>2026-05-02T11:44:53.961Z</time></trkpt><trkpt lat="42.9982798" lon="-3.8591181"><ele>844.0</ele><time>2026-05-02T11:44:54.964Z</time></trkpt><trkpt lat="42.9981554" lon="-3.8591255"><ele>844.5</ele><time>2026-05-02T11:44:55.965Z</time></trkpt><trkpt lat="42.9980308" lon="-3.8591312"><ele>845.0</ele><time>2026-05-02T11:44:56.963Z</time></trkpt><trkpt lat="42.9979037" lon="-3.8591341"><ele>845.0</ele><time>2026-05-02T11:44:57.962Z</time></trkpt><trkpt lat="42.9977721" lon="-3.8591386"><ele>845.0</ele><time>2026-05-02T11:44:58.97Z</time></trkpt><trkpt lat="42.9976415" lon="-3.8591451"><ele>845.0</ele><time>2026-05-02T11:44:59.965Z</time></trkpt><trkpt lat="42.9975111" lon="-3.8591524"><ele>845.0</ele><time>2026-05-02T11:45:00.963Z</time></trkpt><trkpt lat="42.9973888" lon="-3.8591557"><ele>845.0</ele><time>2026-05-02T11:45:01.959Z</time></trkpt><trkpt lat="42.9972691" lon="-3.8591626"><ele>845.0</ele><time>2026-05-02T11:45:02.964Z</time></trkpt><trkpt lat="42.9971518" lon="-3.8591724"><ele>845.0</ele><time>2026-05-02T11:45:03.962Z</time></trkpt><trkpt lat="42.9970348" lon="-3.8591807"><ele>845.0</ele><time>2026-05-02T11:45:04.963Z</time></trkpt><trkpt lat="42.9969173" lon="-3.8591842"><ele>845.0</ele><time>2026-05-02T11:45:05.964Z</time></trkpt><trkpt lat="42.9968065" lon="-3.859189"><ele>845.0</ele><time>2026-05-02T11:45:06.966Z</time></trkpt><trkpt lat="42.9967004" lon="-3.8591908"><ele>845.0</ele><time>2026-05-02T11:45:07.965Z</time></trkpt><trkpt lat="42.9965994" lon="-3.859196"><ele>845.0</ele><time>2026-05-02T11:45:08.992Z</time></trkpt><trkpt lat="42.9965057" lon="-3.8592022"><ele>845.0</ele><time>2026-05-02T11:45:09.966Z</time></trkpt><trkpt lat="42.9964179" lon="-3.8592097"><ele>845.3333333333334</ele><time>2026-05-02T11:45:10.965Z</time></trkpt><trkpt lat="42.9963353" lon="-3.8592193"><ele>845.6666666666667</ele><time>2026-05-02T11:45:11.965Z</time></trkpt><trkpt lat="42.9962581" lon="-3.8592257"><ele>846.0</ele><time>2026-05-02T11:45:12.963Z</time></trkpt><trkpt lat="42.9961924" lon="-3.85923"><ele>846.3333333333333</ele><time>2026-05-02T11:45:13.966Z</time></trkpt><trkpt lat="42.9960964" lon="-3.8592357"><ele>846.6666666666666</ele><time>2026-05-02T11:45:15.96Z</time></trkpt><trkpt lat="42.9960291" lon="-3.8592443"><ele>847.0</ele><time>2026-05-02T11:45:17.962Z</time></trkpt><trkpt lat="42.9960481" lon="-3.8593313"><ele>846.9999999999999</ele><time>2026-05-02T11:45:46.961Z</time></trkpt><trkpt lat="42.9961238" lon="-3.8593716"><ele>847.0</ele><time>2026-05-02T11:50:07.957Z</time></trkpt><trkpt lat="42.9961569" lon="-3.8592872"><ele>847.0</ele><time>2026-05-02T11:50:11.955Z</time></trkpt><trkpt lat="42.9960953" lon="-3.8592461"><ele>847.0</ele><time>2026-05-02T11:50:16.954Z</time></trkpt><trkpt lat="42.9960165" lon="-3.8592523"><ele>846.9999999999999</ele><time>2026-05-02T11:50:27.957Z</time></trkpt><trkpt lat="42.9959065" lon="-3.8592504"><ele>847.0</ele><time>2026-05-02T11:50:29.951Z</time></trkpt><trkpt lat="42.9958319" lon="-3.8592557"><ele>847.3333333333333</ele><time>2026-05-02T11:50:30.957Z</time></trkpt><trkpt lat="42.9957468" lon="-3.8592648"><ele>847.6666666666666</ele><time>2026-05-02T11:50:31.952Z</time></trkpt><trkpt lat="42.9956587" lon="-3.8592693"><ele>848.0</ele><time>2026-05-02T11:50:32.955Z</time></trkpt><trkpt lat="42.9955718" lon="-3.8592719"><ele>848.3333333333333</ele><time>2026-05-02T11:50:33.953Z</time></trkpt><trkpt lat="42.9954946" lon="-3.8592774"><ele>848.6666666666666</ele><time>2026-05-02T11:50:34.954Z</time></trkpt><trkpt lat="42.9954165" lon="-3.8592779"><ele>849.0</ele><time>2026-05-02T11:50:35.952Z</time></trkpt><trkpt lat="42.9953447" lon="-3.8592825"><ele>849.0</ele><time>2026-05-02T11:50:36.963Z</time></trkpt><trkpt lat="42.9952382" lon="-3.8592968"><ele>849.0</ele><time>2026-05-02T11:50:38.965Z</time></trkpt><trkpt lat="42.9951672" lon="-3.8593107"><ele>849.0</ele><time>2026-05-02T11:50:40.956Z</time></trkpt><trkpt lat="42.9951146" lon="-3.8592455"><ele>849.0</ele><time>2026-05-02T11:51:25.943Z</time></trkpt><trkpt lat="42.9950316" lon="-3.8592744"><ele>849.0</ele><time>2026-05-02T11:51:27.95Z</time></trkpt><trkpt lat="42.9948967" lon="-3.8593079"><ele>848.6</ele><time>2026-05-02T11:51:29.956Z</time></trkpt><trkpt lat="42.994809" lon="-3.8593217"><ele>848.2</ele><time>2026-05-02T11:51:30.96Z</time></trkpt><trkpt lat="42.9947071" lon="-3.8593281"><ele>847.8000000000001</ele><time>2026-05-02T11:51:31.951Z</time></trkpt><trkpt lat="42.9945982" lon="-3.8593355"><ele>847.4000000000001</ele><time>2026-05-02T11:51:32.952Z</time></trkpt><trkpt lat="42.9944892" lon="-3.8593438"><ele>847.0</ele><time>2026-05-02T11:51:33.959Z</time></trkpt><trkpt lat="42.9943725" lon="-3.8593457"><ele>847.0</ele><time>2026-05-02T11:51:34.962Z</time></trkpt><trkpt lat="42.9942565" lon="-3.8593505"><ele>847.0</ele><time>2026-05-02T11:51:35.959Z</time></trkpt><trkpt lat="42.994136" lon="-3.8593496"><ele>847.0</ele><time>2026-05-02T11:51:36.957Z</time></trkpt><trkpt lat="42.9940129" lon="-3.8593596"><ele>847.0</ele><time>2026-05-02T11:51:37.96Z</time></trkpt><trkpt lat="42.9938988" lon="-3.859367"><ele>847.4000000000001</ele><time>2026-05-02T11:51:38.962Z</time></trkpt><trkpt lat="42.9937908" lon="-3.8593727"><ele>847.8000000000001</ele><time>2026-05-02T11:51:39.962Z</time></trkpt><trkpt lat="42.9936856" lon="-3.8593711"><ele>848.2</ele><time>2026-05-02T11:51:40.957Z</time></trkpt><trkpt lat="42.9935935" lon="-3.8593749"><ele>848.6</ele><time>2026-05-02T11:51:41.952Z</time></trkpt><trkpt lat="42.9934983" lon="-3.8593807"><ele>849.0</ele><time>2026-05-02T11:51:42.96Z</time></trkpt><trkpt lat="42.9934117" lon="-3.8593798"><ele>849.4000000000001</ele><time>2026-05-02T11:51:43.955Z</time></trkpt><trkpt lat="42.9933252" lon="-3.8593807"><ele>849.8</ele><time>2026-05-02T11:51:44.96Z</time></trkpt><trkpt lat="42.9932331" lon="-3.8593813"><ele>850.2</ele><time>2026-05-02T11:51:45.963Z</time></trkpt><trkpt lat="42.9931393" lon="-3.8593891"><ele>850.5999999999999</ele><time>2026-05-02T11:51:46.957Z</time></trkpt><trkpt lat="42.9930411" lon="-3.8594014"><ele>851.0</ele><time>2026-05-02T11:51:47.959Z</time></trkpt><trkpt lat="42.9929419" lon="-3.8594102"><ele>851.0</ele><time>2026-05-02T11:51:48.961Z</time></trkpt><trkpt lat="42.9928353" lon="-3.85942"><ele>851.0</ele><time>2026-05-02T11:51:49.956Z</time></trkpt><trkpt lat="42.9927331" lon="-3.8594278"><ele>851.0</ele><time>2026-05-02T11:51:50.977Z</time></trkpt><trkpt lat="42.9926192" lon="-3.8594405"><ele>851.0</ele><time>2026-05-02T11:51:51.962Z</time></trkpt><trkpt lat="42.992495" lon="-3.8594446"><ele>851.0</ele><time>2026-05-02T11:51:52.964Z</time></trkpt><trkpt lat="42.9923638" lon="-3.859457"><ele>851.0</ele><time>2026-05-02T11:51:53.961Z</time></trkpt><trkpt lat="42.9922224" lon="-3.8594692"><ele>851.0</ele><time>2026-05-02T11:51:54.963Z</time></trkpt><trkpt lat="42.992085" lon="-3.8594777"><ele>851.0</ele><time>2026-05-02T11:51:55.957Z</time></trkpt><trkpt lat="42.9919433" lon="-3.8594941"><ele>851.0</ele><time>2026-05-02T11:51:56.964Z</time></trkpt><trkpt lat="42.9918045" lon="-3.8594967"><ele>851.25</ele><time>2026-05-02T11:51:57.958Z</time></trkpt><trkpt lat="42.9916647" lon="-3.8595082"><ele>851.5</ele><time>2026-05-02T11:51:58.968Z</time></trkpt><trkpt lat="42.9915161" lon="-3.8595143"><ele>851.75</ele><time>2026-05-02T11:51:59.965Z</time></trkpt><trkpt lat="42.9913726" lon="-3.8595219"><ele>852.0</ele><time>2026-05-02T11:52:00.965Z</time></trkpt><trkpt lat="42.9912324" lon="-3.8595375"><ele>852.0</ele><time>2026-05-02T11:52:01.959Z</time></trkpt><trkpt lat="42.9910866" lon="-3.8595458"><ele>852.0</ele><time>2026-05-02T11:52:02.961Z</time></trkpt><trkpt lat="42.9909345" lon="-3.8595534"><ele>852.0</ele><time>2026-05-02T11:52:03.961Z</time></trkpt><trkpt lat="42.9907896" lon="-3.85956"><ele>852.0</ele><time>2026-05-02T11:52:04.955Z</time></trkpt><trkpt lat="42.9906533" lon="-3.8595505"><ele>851.25</ele><time>2026-05-02T11:52:05.957Z</time></trkpt><trkpt lat="42.9905169" lon="-3.8595312"><ele>850.5</ele><time>2026-05-02T11:52:06.96Z</time></trkpt><trkpt lat="42.9903676" lon="-3.8595104"><ele>849.75</ele><time>2026-05-02T11:52:07.96Z</time></trkpt><trkpt lat="42.9902376" lon="-3.8594797"><ele>849.0</ele><time>2026-05-02T11:52:08.963Z</time></trkpt><trkpt lat="42.9900997" lon="-3.859454"><ele>848.5</ele><time>2026-05-02T11:52:09.963Z</time></trkpt><trkpt lat="42.9899634" lon="-3.8594152"><ele>848.0</ele><time>2026-05-02T11:52:10.96Z</time></trkpt><trkpt lat="42.9898302" lon="-3.8593732"><ele>847.5</ele><time>2026-05-02T11:52:11.957Z</time></trkpt><trkpt lat="42.9896927" lon="-3.8593375"><ele>847.0</ele><time>2026-05-02T11:52:12.959Z</time></trkpt><trkpt lat="42.9895615" lon="-3.85929"><ele>847.5</ele><time>2026-05-02T11:52:13.959Z</time></trkpt><trkpt lat="42.9894361" lon="-3.8592436"><ele>848.0</ele><time>2026-05-02T11:52:14.955Z</time></trkpt><trkpt lat="42.9893133" lon="-3.8591818"><ele>848.5</ele><time>2026-05-02T11:52:15.96Z</time></trkpt><trkpt lat="42.9891879" lon="-3.8591123"><ele>849.0</ele><time>2026-05-02T11:52:16.961Z</time></trkpt><trkpt lat="42.9890582" lon="-3.8590422"><ele>849.0</ele><time>2026-05-02T11:52:17.961Z</time></trkpt><trkpt lat="42.9889198" lon="-3.8589707"><ele>849.0</ele><time>2026-05-02T11:52:18.958Z</time></trkpt><trkpt lat="42.9887757" lon="-3.8588992"><ele>849.0</ele><time>2026-05-02T11:52:19.96Z</time></trkpt><trkpt lat="42.9886184" lon="-3.8588217"><ele>849.0</ele><time>2026-05-02T11:52:20.963Z</time></trkpt><trkpt lat="42.9884719" lon="-3.8587438"><ele>849.0</ele><time>2026-05-02T11:52:21.983Z</time></trkpt><trkpt lat="42.9883205" lon="-3.858664"><ele>849.0</ele><time>2026-05-02T11:52:22.962Z</time></trkpt><trkpt lat="42.9881612" lon="-3.8585764"><ele>848.3333333333333</ele><time>2026-05-02T11:52:23.962Z</time></trkpt><trkpt lat="42.9879961" lon="-3.8585028"><ele>847.6666666666666</ele><time>2026-05-02T11:52:24.966Z</time></trkpt><trkpt lat="42.9878382" lon="-3.8584271"><ele>847.0</ele><time>2026-05-02T11:52:25.962Z</time></trkpt><trkpt lat="42.9876767" lon="-3.8583468"><ele>848.6666666666666</ele><time>2026-05-02T11:52:26.959Z</time></trkpt><trkpt lat="42.9875229" lon="-3.858275"><ele>850.3333333333333</ele><time>2026-05-02T11:52:27.958Z</time></trkpt><trkpt lat="42.9873807" lon="-3.8582021"><ele>852.0</ele><time>2026-05-02T11:52:28.962Z</time></trkpt><trkpt lat="42.9872384" lon="-3.858134"><ele>852.0</ele><time>2026-05-02T11:52:29.958Z</time></trkpt><trkpt lat="42.9870964" lon="-3.8580733"><ele>852.0</ele><time>2026-05-02T11:52:30.959Z</time></trkpt><trkpt lat="42.9869534" lon="-3.8580024"><ele>852.0</ele><time>2026-05-02T11:52:31.957Z</time></trkpt><trkpt lat="42.9868097" lon="-3.8579438"><ele>851.3333333333333</ele><time>2026-05-02T11:52:32.958Z</time></trkpt><trkpt lat="42.9866632" lon="-3.8578838"><ele>850.6666666666666</ele><time>2026-05-02T11:52:33.958Z</time></trkpt><trkpt lat="42.9865159" lon="-3.8578249"><ele>850.0</ele><time>2026-05-02T11:52:34.959Z</time></trkpt><trkpt lat="42.9863671" lon="-3.8577627"><ele>850.0</ele><time>2026-05-02T11:52:35.96Z</time></trkpt><trkpt lat="42.9862183" lon="-3.8576997"><ele>850.0</ele><time>2026-05-02T11:52:36.961Z</time></trkpt><trkpt lat="42.9860633" lon="-3.8576496"><ele>850.0</ele><time>2026-05-02T11:52:37.958Z</time></trkpt><trkpt lat="42.9859124" lon="-3.8575946"><ele>850.0</ele><time>2026-05-02T11:52:38.964Z</time></trkpt><trkpt lat="42.9857646" lon="-3.8575317"><ele>850.0</ele><time>2026-05-02T11:52:39.96Z</time></trkpt><trkpt lat="42.9856138" lon="-3.8574704"><ele>850.0</ele><time>2026-05-02T11:52:40.961Z</time></trkpt><trkpt lat="42.9854621" lon="-3.8574095"><ele>850.0</ele><time>2026-05-02T11:52:41.961Z</time></trkpt><trkpt lat="42.985307" lon="-3.8573502"><ele>850.0</ele><time>2026-05-02T11:52:42.961Z</time></trkpt><trkpt lat="42.9851546" lon="-3.8572896"><ele>850.0</ele><time>2026-05-02T11:52:43.962Z</time></trkpt><trkpt lat="42.9850083" lon="-3.8572325"><ele>849.6666666666666</ele><time>2026-05-02T11:52:44.964Z</time></trkpt><trkpt lat="42.9848606" lon="-3.8571816"><ele>849.3333333333333</ele><time>2026-05-02T11:52:45.963Z</time></trkpt><trkpt lat="42.9847116" lon="-3.8571214"><ele>849.0</ele><time>2026-05-02T11:52:46.965Z</time></trkpt><trkpt lat="42.9845738" lon="-3.8570617"><ele>849.0</ele><time>2026-05-02T11:52:47.961Z</time></trkpt><trkpt lat="42.9844364" lon="-3.8570109"><ele>849.0</ele><time>2026-05-02T11:52:48.96Z</time></trkpt><trkpt lat="42.9842871" lon="-3.856964"><ele>849.0</ele><time>2026-05-02T11:52:49.96Z</time></trkpt><trkpt lat="42.9841453" lon="-3.8569178"><ele>849.0</ele><time>2026-05-02T11:52:50.954Z</time></trkpt><trkpt lat="42.9840019" lon="-3.8568647"><ele>849.3333333333333</ele><time>2026-05-02T11:52:51.964Z</time></trkpt><trkpt lat="42.9838544" lon="-3.8568111"><ele>849.6666666666666</ele><time>2026-05-02T11:52:52.994Z</time></trkpt><trkpt lat="42.9837095" lon="-3.8567525"><ele>850.0</ele><time>2026-05-02T11:52:53.96Z</time></trkpt><trkpt lat="42.9835674" lon="-3.8566958"><ele>851.0</ele><time>2026-05-02T11:52:54.959Z</time></trkpt><trkpt lat="42.9834259" lon="-3.856642"><ele>852.0</ele><time>2026-05-02T11:52:55.956Z</time></trkpt><trkpt lat="42.9832859" lon="-3.8565835"><ele>853.0</ele><time>2026-05-02T11:52:56.959Z</time></trkpt><trkpt lat="42.9831537" lon="-3.8565223"><ele>854.0</ele><time>2026-05-02T11:52:57.953Z</time></trkpt><trkpt lat="42.9830131" lon="-3.8564686"><ele>854.3333333333334</ele><time>2026-05-02T11:52:58.952Z</time></trkpt><trkpt lat="42.9828689" lon="-3.8564304"><ele>854.6666666666667</ele><time>2026-05-02T11:52:59.953Z</time></trkpt><trkpt lat="42.982716" lon="-3.8563763"><ele>855.0</ele><time>2026-05-02T11:53:00.948Z</time></trkpt><trkpt lat="42.9825727" lon="-3.8563213"><ele>854.0</ele><time>2026-05-02T11:53:01.948Z</time></trkpt><trkpt lat="42.9824367" lon="-3.8562659"><ele>853.0</ele><time>2026-05-02T11:53:02.953Z</time></trkpt><trkpt lat="42.9823017" lon="-3.8562017"><ele>852.0</ele><time>2026-05-02T11:53:03.954Z</time></trkpt><trkpt lat="42.9821762" lon="-3.8561368"><ele>851.0</ele><time>2026-05-02T11:53:04.954Z</time></trkpt><trkpt lat="42.9820558" lon="-3.8560616"><ele>851.0</ele><time>2026-05-02T11:53:05.949Z</time></trkpt><trkpt lat="42.9819438" lon="-3.8559805"><ele>851.0</ele><time>2026-05-02T11:53:06.947Z</time></trkpt><trkpt lat="42.9818419" lon="-3.8558938"><ele>851.0</ele><time>2026-05-02T11:53:07.946Z</time></trkpt><trkpt lat="42.9817433" lon="-3.8558073"><ele>851.0</ele><time>2026-05-02T11:53:08.953Z</time></trkpt><trkpt lat="42.9816486" lon="-3.8557242"><ele>852.75</ele><time>2026-05-02T11:53:09.947Z</time></trkpt><trkpt lat="42.9815461" lon="-3.8556454"><ele>854.5</ele><time>2026-05-02T11:53:10.943Z</time></trkpt><trkpt lat="42.9814373" lon="-3.8555614"><ele>856.25</ele><time>2026-05-02T11:53:11.946Z</time></trkpt><trkpt lat="42.9813286" lon="-3.8554801"><ele>858.0</ele><time>2026-05-02T11:53:12.942Z</time></trkpt><trkpt lat="42.9812271" lon="-3.8553965"><ele>858.0</ele><time>2026-05-02T11:53:13.947Z</time></trkpt><trkpt lat="42.9811198" lon="-3.8553104"><ele>858.0</ele><time>2026-05-02T11:53:14.949Z</time></trkpt><trkpt lat="42.9810068" lon="-3.8552225"><ele>858.0</ele><time>2026-05-02T11:53:15.949Z</time></trkpt><trkpt lat="42.9808904" lon="-3.855136"><ele>858.0</ele><time>2026-05-02T11:53:16.951Z</time></trkpt><trkpt lat="42.9807754" lon="-3.8550508"><ele>858.0</ele><time>2026-05-02T11:53:17.955Z</time></trkpt><trkpt lat="42.9806571" lon="-3.8549651"><ele>858.0</ele><time>2026-05-02T11:53:18.954Z</time></trkpt><trkpt lat="42.9805377" lon="-3.8548798"><ele>858.0</ele><time>2026-05-02T11:53:19.953Z</time></trkpt><trkpt lat="42.9804191" lon="-3.8547894"><ele>858.0</ele><time>2026-05-02T11:53:20.952Z</time></trkpt><trkpt lat="42.9803014" lon="-3.8547005"><ele>858.0</ele><time>2026-05-02T11:53:21.959Z</time></trkpt><trkpt lat="42.980178" lon="-3.8546015"><ele>858.0</ele><time>2026-05-02T11:53:22.976Z</time></trkpt><trkpt lat="42.9800721" lon="-3.8545076"><ele>858.0</ele><time>2026-05-02T11:53:23.955Z</time></trkpt><trkpt lat="42.9799476" lon="-3.8544171"><ele>858.0</ele><time>2026-05-02T11:53:24.957Z</time></trkpt><trkpt lat="42.9798396" lon="-3.854331"><ele>858.0</ele><time>2026-05-02T11:53:25.959Z</time></trkpt><trkpt lat="42.9797386" lon="-3.854248"><ele>858.0</ele><time>2026-05-02T11:53:26.959Z</time></trkpt><trkpt lat="42.9796349" lon="-3.8541717"><ele>858.0</ele><time>2026-05-02T11:53:27.96Z</time></trkpt><trkpt lat="42.9795268" lon="-3.8540891"><ele>858.0</ele><time>2026-05-02T11:53:28.964Z</time></trkpt><trkpt lat="42.9794238" lon="-3.8540072"><ele>858.0</ele><time>2026-05-02T11:53:29.96Z</time></trkpt><trkpt lat="42.9793195" lon="-3.8539267"><ele>858.0</ele><time>2026-05-02T11:53:30.961Z</time></trkpt><trkpt lat="42.9792115" lon="-3.8538445"><ele>858.0</ele><time>2026-05-02T11:53:31.956Z</time></trkpt><trkpt lat="42.9791042" lon="-3.8537637"><ele>858.0</ele><time>2026-05-02T11:53:32.963Z</time></trkpt><trkpt lat="42.9789943" lon="-3.853681"><ele>857.0</ele><time>2026-05-02T11:53:33.953Z</time></trkpt><trkpt lat="42.9788864" lon="-3.8535997"><ele>856.0</ele><time>2026-05-02T11:53:34.954Z</time></trkpt><trkpt lat="42.978767" lon="-3.8535194"><ele>855.0</ele><time>2026-05-02T11:53:35.95Z</time></trkpt><trkpt lat="42.9786554" lon="-3.8534347"><ele>854.0</ele><time>2026-05-02T11:53:36.948Z</time></trkpt><trkpt lat="42.9785401" lon="-3.8533533"><ele>855.25</ele><time>2026-05-02T11:53:37.951Z</time></trkpt><trkpt lat="42.9784315" lon="-3.8532698"><ele>856.5</ele><time>2026-05-02T11:53:38.961Z</time></trkpt><trkpt lat="42.9783209" lon="-3.8531884"><ele>857.75</ele><time>2026-05-02T11:53:39.947Z</time></trkpt><trkpt lat="42.9782144" lon="-3.8531155"><ele>859.0</ele><time>2026-05-02T11:53:40.949Z</time></trkpt><trkpt lat="42.9781084" lon="-3.8530398"><ele>859.0</ele><time>2026-05-02T11:53:41.944Z</time></trkpt><trkpt lat="42.9780059" lon="-3.8529635"><ele>859.0000000000001</ele><time>2026-05-02T11:53:42.947Z</time></trkpt><trkpt lat="42.9779077" lon="-3.8528901"><ele>859.0000000000001</ele><time>2026-05-02T11:53:43.948Z</time></trkpt><trkpt lat="42.9778119" lon="-3.8528199"><ele>859.0</ele><time>2026-05-02T11:53:44.947Z</time></trkpt><trkpt lat="42.9777173" lon="-3.8527465"><ele>859.0</ele><time>2026-05-02T11:53:45.95Z</time></trkpt><trkpt lat="42.9776189" lon="-3.8526673"><ele>860.2</ele><time>2026-05-02T11:53:46.95Z</time></trkpt><trkpt lat="42.9775254" lon="-3.8525883"><ele>861.4000000000001</ele><time>2026-05-02T11:53:47.952Z</time></trkpt><trkpt lat="42.9774286" lon="-3.8525123"><ele>862.6</ele><time>2026-05-02T11:53:48.952Z</time></trkpt><trkpt lat="42.9773356" lon="-3.8524291"><ele>863.8</ele><time>2026-05-02T11:53:49.953Z</time></trkpt><trkpt lat="42.9772408" lon="-3.8523458"><ele>865.0</ele><time>2026-05-02T11:53:50.953Z</time></trkpt><trkpt lat="42.9771429" lon="-3.8522611"><ele>865.0</ele><time>2026-05-02T11:53:51.952Z</time></trkpt><trkpt lat="42.97705" lon="-3.8521841"><ele>865.0</ele><time>2026-05-02T11:53:52.953Z</time></trkpt><trkpt lat="42.9769605" lon="-3.8521063"><ele>865.0</ele><time>2026-05-02T11:53:53.962Z</time></trkpt><trkpt lat="42.9768687" lon="-3.8520276"><ele>865.0</ele><time>2026-05-02T11:53:54.955Z</time></trkpt><trkpt lat="42.9767777" lon="-3.8519518"><ele>865.0</ele><time>2026-05-02T11:53:55.959Z</time></trkpt><trkpt lat="42.9766833" lon="-3.8518683"><ele>864.5</ele><time>2026-05-02T11:53:56.961Z</time></trkpt><trkpt lat="42.9765878" lon="-3.8517891"><ele>864.0</ele><time>2026-05-02T11:53:57.958Z</time></trkpt><trkpt lat="42.9764914" lon="-3.8517063"><ele>863.5</ele><time>2026-05-02T11:53:58.968Z</time></trkpt><trkpt lat="42.9763913" lon="-3.8516189"><ele>863.0</ele><time>2026-05-02T11:53:59.958Z</time></trkpt><trkpt lat="42.9762848" lon="-3.8515276"><ele>863.0</ele><time>2026-05-02T11:54:00.957Z</time></trkpt><trkpt lat="42.9761765" lon="-3.8514361"><ele>863.0</ele><time>2026-05-02T11:54:01.957Z</time></trkpt><trkpt lat="42.9760648" lon="-3.8513453"><ele>863.0</ele><time>2026-05-02T11:54:02.954Z</time></trkpt><trkpt lat="42.9759505" lon="-3.8512528"><ele>863.0</ele><time>2026-05-02T11:54:03.963Z</time></trkpt><trkpt lat="42.9758362" lon="-3.85116"><ele>862.75</ele><time>2026-05-02T11:54:04.956Z</time></trkpt><trkpt lat="42.9757226" lon="-3.851067"><ele>862.5</ele><time>2026-05-02T11:54:05.949Z</time></trkpt><trkpt lat="42.9756076" lon="-3.850976"><ele>862.25</ele><time>2026-05-02T11:54:06.956Z</time></trkpt><trkpt lat="42.9754957" lon="-3.8508808"><ele>862.0</ele><time>2026-05-02T11:54:07.956Z</time></trkpt><trkpt lat="42.9753856" lon="-3.850792"><ele>862.0</ele><time>2026-05-02T11:54:08.963Z</time></trkpt><trkpt lat="42.9752713" lon="-3.8507007"><ele>862.0</ele><time>2026-05-02T11:54:09.952Z</time></trkpt><trkpt lat="42.975161" lon="-3.8506097"><ele>862.0</ele><time>2026-05-02T11:54:10.955Z</time></trkpt><trkpt lat="42.9750478" lon="-3.8505239"><ele>862.0</ele><time>2026-05-02T11:54:11.954Z</time></trkpt><trkpt lat="42.9749372" lon="-3.850436"><ele>861.75</ele><time>2026-05-02T11:54:12.963Z</time></trkpt><trkpt lat="42.9748329" lon="-3.8503459"><ele>861.5</ele><time>2026-05-02T11:54:13.958Z</time></trkpt><trkpt lat="42.9747267" lon="-3.8502562"><ele>861.25</ele><time>2026-05-02T11:54:14.956Z</time></trkpt><trkpt lat="42.9746216" lon="-3.85017"><ele>861.0</ele><time>2026-05-02T11:54:15.959Z</time></trkpt><trkpt lat="42.974519" lon="-3.8500864"><ele>861.0</ele><time>2026-05-02T11:54:16.959Z</time></trkpt><trkpt lat="42.974415" lon="-3.849998"><ele>861.0</ele><time>2026-05-02T11:54:17.954Z</time></trkpt><trkpt lat="42.974311" lon="-3.8499144"><ele>861.0</ele><time>2026-05-02T11:54:18.959Z</time></trkpt><trkpt lat="42.9742077" lon="-3.8498257"><ele>861.0</ele><time>2026-05-02T11:54:19.96Z</time></trkpt><trkpt lat="42.9741113" lon="-3.8497345"><ele>862.5</ele><time>2026-05-02T11:54:20.954Z</time></trkpt><trkpt lat="42.9740145" lon="-3.8496482"><ele>864.0</ele><time>2026-05-02T11:54:21.957Z</time></trkpt><trkpt lat="42.9739137" lon="-3.8495651"><ele>865.5</ele><time>2026-05-02T11:54:22.956Z</time></trkpt><trkpt lat="42.9738146" lon="-3.8494856"><ele>867.0</ele><time>2026-05-02T11:54:23.954Z</time></trkpt><trkpt lat="42.9737162" lon="-3.8494061"><ele>867.0</ele><time>2026-05-02T11:54:24.975Z</time></trkpt><trkpt lat="42.9736214" lon="-3.8493277"><ele>867.0</ele><time>2026-05-02T11:54:25.958Z</time></trkpt><trkpt lat="42.9735278" lon="-3.84926"><ele>867.0</ele><time>2026-05-02T11:54:26.963Z</time></trkpt><trkpt lat="42.9734336" lon="-3.8492001"><ele>867.0</ele><time>2026-05-02T11:54:27.959Z</time></trkpt><trkpt lat="42.9733422" lon="-3.8491496"><ele>867.0</ele><time>2026-05-02T11:54:28.961Z</time></trkpt><trkpt lat="42.9732454" lon="-3.8491167"><ele>868.6</ele><time>2026-05-02T11:54:29.957Z</time></trkpt><trkpt lat="42.9731523" lon="-3.8490983"><ele>870.2</ele><time>2026-05-02T11:54:30.956Z</time></trkpt><trkpt lat="42.9730528" lon="-3.8490905"><ele>871.8</ele><time>2026-05-02T11:54:31.962Z</time></trkpt><trkpt lat="42.9729586" lon="-3.849097"><ele>873.4</ele><time>2026-05-02T11:54:32.958Z</time></trkpt><trkpt lat="42.9728625" lon="-3.8491068"><ele>875.0</ele><time>2026-05-02T11:54:33.96Z</time></trkpt><trkpt lat="42.9727662" lon="-3.849115"><ele>875.0</ele><time>2026-05-02T11:54:34.959Z</time></trkpt><trkpt lat="42.9726772" lon="-3.8491196"><ele>875.0</ele><time>2026-05-02T11:54:35.957Z</time></trkpt><trkpt lat="42.9725814" lon="-3.8491271"><ele>875.0</ele><time>2026-05-02T11:54:36.957Z</time></trkpt><trkpt lat="42.9724836" lon="-3.8491331"><ele>875.0</ele><time>2026-05-02T11:54:37.956Z</time></trkpt><trkpt lat="42.9723806" lon="-3.8491464"><ele>875.0</ele><time>2026-05-02T11:54:38.964Z</time></trkpt><trkpt lat="42.9722738" lon="-3.8491602"><ele>874.5</ele><time>2026-05-02T11:54:39.955Z</time></trkpt><trkpt lat="42.9721676" lon="-3.8491687"><ele>874.0</ele><time>2026-05-02T11:54:40.954Z</time></trkpt><trkpt lat="42.9720539" lon="-3.8491791"><ele>873.5</ele><time>2026-05-02T11:54:41.957Z</time></trkpt><trkpt lat="42.9719394" lon="-3.8491888"><ele>873.0</ele><time>2026-05-02T11:54:42.96Z</time></trkpt><trkpt lat="42.9718179" lon="-3.8492028"><ele>873.0</ele><time>2026-05-02T11:54:43.956Z</time></trkpt><trkpt lat="42.9716959" lon="-3.8492178"><ele>873.0</ele><time>2026-05-02T11:54:44.961Z</time></trkpt><trkpt lat="42.9715749" lon="-3.8492311"><ele>873.0</ele><time>2026-05-02T11:54:45.958Z</time></trkpt><trkpt lat="42.9714556" lon="-3.8492487"><ele>873.0</ele><time>2026-05-02T11:54:46.96Z</time></trkpt><trkpt lat="42.971331" lon="-3.8492596"><ele>872.5</ele><time>2026-05-02T11:54:47.969Z</time></trkpt><trkpt lat="42.9712121" lon="-3.8492682"><ele>872.0</ele><time>2026-05-02T11:54:48.966Z</time></trkpt><trkpt lat="42.971085" lon="-3.8492788"><ele>871.5</ele><time>2026-05-02T11:54:49.97Z</time></trkpt><trkpt lat="42.9709571" lon="-3.8492905"><ele>871.0</ele><time>2026-05-02T11:54:50.97Z</time></trkpt><trkpt lat="42.9708237" lon="-3.8493012"><ele>870.5</ele><time>2026-05-02T11:54:51.97Z</time></trkpt><trkpt lat="42.9706899" lon="-3.8493116"><ele>870.0</ele><time>2026-05-02T11:54:52.97Z</time></trkpt><trkpt lat="42.9705536" lon="-3.8493291"><ele>869.5</ele><time>2026-05-02T11:54:53.968Z</time></trkpt><trkpt lat="42.9704131" lon="-3.8493386"><ele>869.0</ele><time>2026-05-02T11:54:54.964Z</time></trkpt><trkpt lat="42.9702713" lon="-3.8493412"><ele>869.0</ele><time>2026-05-02T11:54:55.983Z</time></trkpt><trkpt lat="42.9701324" lon="-3.8493261"><ele>869.0</ele><time>2026-05-02T11:54:56.965Z</time></trkpt><trkpt lat="42.9699931" lon="-3.8492994"><ele>869.0</ele><time>2026-05-02T11:54:57.964Z</time></trkpt><trkpt lat="42.969865" lon="-3.8492753"><ele>869.0</ele><time>2026-05-02T11:54:58.966Z</time></trkpt><trkpt lat="42.9697373" lon="-3.8492422"><ele>867.5</ele><time>2026-05-02T11:54:59.968Z</time></trkpt><trkpt lat="42.9696125" lon="-3.8492176"><ele>866.0</ele><time>2026-05-02T11:55:00.966Z</time></trkpt><trkpt lat="42.9694901" lon="-3.8492007"><ele>864.5</ele><time>2026-05-02T11:55:01.964Z</time></trkpt><trkpt lat="42.9693736" lon="-3.8491744"><ele>863.0</ele><time>2026-05-02T11:55:02.965Z</time></trkpt><trkpt lat="42.9692511" lon="-3.8491504"><ele>862.0</ele><time>2026-05-02T11:55:03.966Z</time></trkpt><trkpt lat="42.9691343" lon="-3.8491254"><ele>861.0</ele><time>2026-05-02T11:55:04.968Z</time></trkpt><trkpt lat="42.9690202" lon="-3.849103"><ele>860.0</ele><time>2026-05-02T11:55:05.964Z</time></trkpt><trkpt lat="42.968912" lon="-3.8490803"><ele>859.0</ele><time>2026-05-02T11:55:06.974Z</time></trkpt><trkpt lat="42.9688028" lon="-3.8490596"><ele>859.0</ele><time>2026-05-02T11:55:07.968Z</time></trkpt><trkpt lat="42.9686984" lon="-3.8490407"><ele>859.0000000000001</ele><time>2026-05-02T11:55:08.979Z</time></trkpt><trkpt lat="42.968588" lon="-3.8490177"><ele>859.0000000000001</ele><time>2026-05-02T11:55:09.97Z</time></trkpt><trkpt lat="42.9684783" lon="-3.8490007"><ele>859.0</ele><time>2026-05-02T11:55:10.968Z</time></trkpt><trkpt lat="42.9683724" lon="-3.8489836"><ele>859.0</ele><time>2026-05-02T11:55:11.966Z</time></trkpt><trkpt lat="42.9682624" lon="-3.8489652"><ele>858.25</ele><time>2026-05-02T11:55:12.971Z</time></trkpt><trkpt lat="42.9681483" lon="-3.8489457"><ele>857.5</ele><time>2026-05-02T11:55:13.97Z</time></trkpt><trkpt lat="42.9680284" lon="-3.8489255"><ele>856.75</ele><time>2026-05-02T11:55:14.969Z</time></trkpt><trkpt lat="42.9679061" lon="-3.8489035"><ele>856.0</ele><time>2026-05-02T11:55:15.967Z</time></trkpt><trkpt lat="42.9677847" lon="-3.8488767"><ele>856.0</ele><time>2026-05-02T11:55:16.97Z</time></trkpt><trkpt lat="42.9676667" lon="-3.8488448"><ele>856.0</ele><time>2026-05-02T11:55:17.97Z</time></trkpt><trkpt lat="42.9675455" lon="-3.8488115"><ele>856.0</ele><time>2026-05-02T11:55:18.967Z</time></trkpt><trkpt lat="42.9674233" lon="-3.8487758"><ele>856.0</ele><time>2026-05-02T11:55:19.964Z</time></trkpt><trkpt lat="42.9672954" lon="-3.8487335"><ele>855.25</ele><time>2026-05-02T11:55:20.973Z</time></trkpt><trkpt lat="42.967168" lon="-3.8486903"><ele>854.5</ele><time>2026-05-02T11:55:21.972Z</time></trkpt><trkpt lat="42.9670439" lon="-3.848644"><ele>853.75</ele><time>2026-05-02T11:55:22.971Z</time></trkpt><trkpt lat="42.9669228" lon="-3.8485937"><ele>853.0</ele><time>2026-05-02T11:55:23.967Z</time></trkpt><trkpt lat="42.9668072" lon="-3.8485427"><ele>852.75</ele><time>2026-05-02T11:55:24.97Z</time></trkpt><trkpt lat="42.9666918" lon="-3.8484875"><ele>852.5</ele><time>2026-05-02T11:55:25.967Z</time></trkpt><trkpt lat="42.966573" lon="-3.8484374"><ele>852.25</ele><time>2026-05-02T11:55:26.981Z</time></trkpt><trkpt lat="42.9664563" lon="-3.8483826"><ele>852.0</ele><time>2026-05-02T11:55:27.968Z</time></trkpt><trkpt lat="42.9663402" lon="-3.8483263"><ele>852.0</ele><time>2026-05-02T11:55:28.971Z</time></trkpt><trkpt lat="42.9662182" lon="-3.8482679"><ele>852.0</ele><time>2026-05-02T11:55:29.969Z</time></trkpt><trkpt lat="42.9660941" lon="-3.8482163"><ele>852.0</ele><time>2026-05-02T11:55:30.97Z</time></trkpt><trkpt lat="42.9659746" lon="-3.8481651"><ele>852.0</ele><time>2026-05-02T11:55:31.967Z</time></trkpt><trkpt lat="42.9658568" lon="-3.848115"><ele>853.25</ele><time>2026-05-02T11:55:32.968Z</time></trkpt><trkpt lat="42.9657367" lon="-3.8480619"><ele>854.5</ele><time>2026-05-02T11:55:33.973Z</time></trkpt><trkpt lat="42.9656163" lon="-3.8480091"><ele>855.75</ele><time>2026-05-02T11:55:34.968Z</time></trkpt><trkpt lat="42.9654964" lon="-3.8479574"><ele>857.0</ele><time>2026-05-02T11:55:35.967Z</time></trkpt><trkpt lat="42.9653766" lon="-3.8479094"><ele>857.0</ele><time>2026-05-02T11:55:36.969Z</time></trkpt><trkpt lat="42.965257" lon="-3.8478632"><ele>857.0</ele><time>2026-05-02T11:55:37.968Z</time></trkpt><trkpt lat="42.9651291" lon="-3.8478308"><ele>857.0</ele><time>2026-05-02T11:55:38.975Z</time></trkpt><trkpt lat="42.9650064" lon="-3.8478026"><ele>857.0</ele><time>2026-05-02T11:55:39.968Z</time></trkpt><trkpt lat="42.964883" lon="-3.8477765"><ele>858.0</ele><time>2026-05-02T11:55:40.969Z</time></trkpt><trkpt lat="42.9647582" lon="-3.8477537"><ele>859.0</ele><time>2026-05-02T11:55:41.969Z</time></trkpt><trkpt lat="42.9646308" lon="-3.8477244"><ele>860.0</ele><time>2026-05-02T11:55:42.977Z</time></trkpt><trkpt lat="42.9645043" lon="-3.8476948"><ele>861.0</ele><time>2026-05-02T11:55:43.974Z</time></trkpt><trkpt lat="42.9643747" lon="-3.8476655"><ele>861.0</ele><time>2026-05-02T11:55:44.971Z</time></trkpt><trkpt lat="42.9642485" lon="-3.8476394"><ele>861.0</ele><time>2026-05-02T11:55:45.972Z</time></trkpt><trkpt lat="42.9641203" lon="-3.8476258"><ele>861.0</ele><time>2026-05-02T11:55:46.973Z</time></trkpt><trkpt lat="42.96399" lon="-3.8476109"><ele>861.0</ele><time>2026-05-02T11:55:47.967Z</time></trkpt><trkpt lat="42.9638518" lon="-3.847596"><ele>860.75</ele><time>2026-05-02T11:55:48.972Z</time></trkpt><trkpt lat="42.9637188" lon="-3.847592"><ele>860.5</ele><time>2026-05-02T11:55:49.969Z</time></trkpt><trkpt lat="42.9635824" lon="-3.8475886"><ele>860.25</ele><time>2026-05-02T11:55:50.97Z</time></trkpt><trkpt lat="42.9634466" lon="-3.8475911"><ele>860.0</ele><time>2026-05-02T11:55:51.971Z</time></trkpt><trkpt lat="42.9633072" lon="-3.8475928"><ele>859.0</ele><time>2026-05-02T11:55:52.975Z</time></trkpt><trkpt lat="42.9631701" lon="-3.8475961"><ele>858.0</ele><time>2026-05-02T11:55:53.971Z</time></trkpt><trkpt lat="42.9630299" lon="-3.8475968"><ele>857.0</ele><time>2026-05-02T11:55:54.973Z</time></trkpt><trkpt lat="42.9628943" lon="-3.8475963"><ele>856.0</ele><time>2026-05-02T11:55:55.972Z</time></trkpt><trkpt lat="42.9627547" lon="-3.8475908"><ele>856.0</ele><time>2026-05-02T11:55:56.972Z</time></trkpt><trkpt lat="42.9626169" lon="-3.8475858"><ele>856.0</ele><time>2026-05-02T11:55:57.993Z</time></trkpt><trkpt lat="42.9624804" lon="-3.8475803"><ele>856.0</ele><time>2026-05-02T11:55:58.974Z</time></trkpt><trkpt lat="42.9623455" lon="-3.8475743"><ele>856.0</ele><time>2026-05-02T11:55:59.972Z</time></trkpt><trkpt lat="42.9622112" lon="-3.8475728"><ele>854.75</ele><time>2026-05-02T11:56:00.974Z</time></trkpt><trkpt lat="42.9620784" lon="-3.8475658"><ele>853.5</ele><time>2026-05-02T11:56:01.974Z</time></trkpt><trkpt lat="42.9619439" lon="-3.8475613"><ele>852.25</ele><time>2026-05-02T11:56:02.983Z</time></trkpt><trkpt lat="42.9618109" lon="-3.8475629"><ele>851.0</ele><time>2026-05-02T11:56:03.965Z</time></trkpt><trkpt lat="42.9616778" lon="-3.8475596"><ele>850.75</ele><time>2026-05-02T11:56:04.965Z</time></trkpt><trkpt lat="42.9615431" lon="-3.8475538"><ele>850.5</ele><time>2026-05-02T11:56:05.972Z</time></trkpt><trkpt lat="42.9614111" lon="-3.8475531"><ele>850.25</ele><time>2026-05-02T11:56:06.966Z</time></trkpt><trkpt lat="42.961278" lon="-3.8475515"><ele>850.0</ele><time>2026-05-02T11:56:07.966Z</time></trkpt><trkpt lat="42.9611446" lon="-3.8475488"><ele>850.0</ele><time>2026-05-02T11:56:08.98Z</time></trkpt><trkpt lat="42.9610131" lon="-3.8475433"><ele>850.0</ele><time>2026-05-02T11:56:09.968Z</time></trkpt><trkpt lat="42.9608823" lon="-3.8475328"><ele>850.0</ele><time>2026-05-02T11:56:10.967Z</time></trkpt><trkpt lat="42.9607525" lon="-3.8475277"><ele>850.0</ele><time>2026-05-02T11:56:11.97Z</time></trkpt><trkpt lat="42.9606232" lon="-3.8475171"><ele>850.25</ele><time>2026-05-02T11:56:12.97Z</time></trkpt><trkpt lat="42.960493" lon="-3.8475039"><ele>850.5</ele><time>2026-05-02T11:56:13.968Z</time></trkpt><trkpt lat="42.9603699" lon="-3.847486"><ele>850.75</ele><time>2026-05-02T11:56:14.969Z</time></trkpt><trkpt lat="42.9602428" lon="-3.8474657"><ele>851.0</ele><time>2026-05-02T11:56:15.971Z</time></trkpt><trkpt lat="42.9601152" lon="-3.8474416"><ele>853.25</ele><time>2026-05-02T11:56:16.971Z</time></trkpt><trkpt lat="42.9599905" lon="-3.847424"><ele>855.5</ele><time>2026-05-02T11:56:17.972Z</time></trkpt><trkpt lat="42.9598669" lon="-3.8474051"><ele>857.75</ele><time>2026-05-02T11:56:18.97Z</time></trkpt><trkpt lat="42.9597434" lon="-3.847385"><ele>860.0</ele><time>2026-05-02T11:56:19.972Z</time></trkpt><trkpt lat="42.9596207" lon="-3.8473599"><ele>860.0</ele><time>2026-05-02T11:56:20.969Z</time></trkpt><trkpt lat="42.9594967" lon="-3.8473301"><ele>860.0</ele><time>2026-05-02T11:56:21.968Z</time></trkpt><trkpt lat="42.9593759" lon="-3.8472961"><ele>860.0</ele><time>2026-05-02T11:56:22.965Z</time></trkpt><trkpt lat="42.9592617" lon="-3.8472557"><ele>860.0</ele><time>2026-05-02T11:56:23.967Z</time></trkpt><trkpt lat="42.9591509" lon="-3.8472078"><ele>861.2</ele><time>2026-05-02T11:56:24.97Z</time></trkpt><trkpt lat="42.9590461" lon="-3.8471616"><ele>862.4</ele><time>2026-05-02T11:56:25.973Z</time></trkpt><trkpt lat="42.9589415" lon="-3.8471145"><ele>863.5999999999999</ele><time>2026-05-02T11:56:26.973Z</time></trkpt><trkpt lat="42.9588343" lon="-3.8470687"><ele>864.8</ele><time>2026-05-02T11:56:27.972Z</time></trkpt><trkpt lat="42.9587305" lon="-3.8470197"><ele>866.0</ele><time>2026-05-02T11:56:28.989Z</time></trkpt><trkpt lat="42.9586287" lon="-3.8469722"><ele>866.0</ele><time>2026-05-02T11:56:29.97Z</time></trkpt><trkpt lat="42.9585291" lon="-3.8469237"><ele>865.9999999999999</ele><time>2026-05-02T11:56:30.971Z</time></trkpt><trkpt lat="42.9584267" lon="-3.8468764"><ele>865.9999999999999</ele><time>2026-05-02T11:56:31.969Z</time></trkpt><trkpt lat="42.9583307" lon="-3.8468298"><ele>866.0</ele><time>2026-05-02T11:56:32.97Z</time></trkpt><trkpt lat="42.9582348" lon="-3.8467856"><ele>866.0</ele><time>2026-05-02T11:56:33.968Z</time></trkpt><trkpt lat="42.9581399" lon="-3.8467446"><ele>867.4</ele><time>2026-05-02T11:56:34.97Z</time></trkpt><trkpt lat="42.9580482" lon="-3.8467056"><ele>868.8</ele><time>2026-05-02T11:56:35.968Z</time></trkpt><trkpt lat="42.9579559" lon="-3.8466619"><ele>870.1999999999999</ele><time>2026-05-02T11:56:36.967Z</time></trkpt><trkpt lat="42.9578619" lon="-3.8466235"><ele>871.5999999999999</ele><time>2026-05-02T11:56:37.969Z</time></trkpt><trkpt lat="42.9577734" lon="-3.8465828"><ele>873.0</ele><time>2026-05-02T11:56:38.976Z</time></trkpt><trkpt lat="42.9576844" lon="-3.8465445"><ele>873.0</ele><time>2026-05-02T11:56:39.966Z</time></trkpt><trkpt lat="42.9575979" lon="-3.8465069"><ele>873.0</ele><time>2026-05-02T11:56:40.968Z</time></trkpt><trkpt lat="42.9575139" lon="-3.8464768"><ele>873.0</ele><time>2026-05-02T11:56:41.969Z</time></trkpt><trkpt lat="42.9574305" lon="-3.8464437"><ele>873.0</ele><time>2026-05-02T11:56:42.97Z</time></trkpt><trkpt lat="42.9573442" lon="-3.8464132"><ele>873.0</ele><time>2026-05-02T11:56:43.97Z</time></trkpt><trkpt lat="42.9572566" lon="-3.8463817"><ele>873.0</ele><time>2026-05-02T11:56:44.97Z</time></trkpt><trkpt lat="42.9571684" lon="-3.8463402"><ele>875.0</ele><time>2026-05-02T11:56:45.965Z</time></trkpt><trkpt lat="42.9570753" lon="-3.8463075"><ele>877.0</ele><time>2026-05-02T11:56:46.971Z</time></trkpt><trkpt lat="42.956981" lon="-3.8462744"><ele>879.0</ele><time>2026-05-02T11:56:47.964Z</time></trkpt><trkpt lat="42.9568738" lon="-3.8462498"><ele>881.0</ele><time>2026-05-02T11:56:48.962Z</time></trkpt><trkpt lat="42.9567683" lon="-3.8462329"><ele>883.0</ele><time>2026-05-02T11:56:49.962Z</time></trkpt><trkpt lat="42.9566616" lon="-3.8462167"><ele>884.0</ele><time>2026-05-02T11:56:50.961Z</time></trkpt><trkpt lat="42.9565573" lon="-3.8462076"><ele>885.0</ele><time>2026-05-02T11:56:51.965Z</time></trkpt><trkpt lat="42.9564508" lon="-3.8462033"><ele>886.0</ele><time>2026-05-02T11:56:52.963Z</time></trkpt><trkpt lat="42.956344" lon="-3.8462003"><ele>887.0</ele><time>2026-05-02T11:56:53.966Z</time></trkpt><trkpt lat="42.9562413" lon="-3.8461991"><ele>888.0</ele><time>2026-05-02T11:56:54.969Z</time></trkpt><trkpt lat="42.9561396" lon="-3.8462066"><ele>888.0</ele><time>2026-05-02T11:56:55.964Z</time></trkpt><trkpt lat="42.9560412" lon="-3.8462146"><ele>888.0</ele><time>2026-05-02T11:56:56.97Z</time></trkpt><trkpt lat="42.9559469" lon="-3.8462256"><ele>888.0</ele><time>2026-05-02T11:56:57.971Z</time></trkpt><trkpt lat="42.9558482" lon="-3.846239"><ele>888.0</ele><time>2026-05-02T11:56:58.974Z</time></trkpt><trkpt lat="42.9557476" lon="-3.8462543"><ele>888.0</ele><time>2026-05-02T11:56:59.987Z</time></trkpt><trkpt lat="42.9556366" lon="-3.8462613"><ele>887.25</ele><time>2026-05-02T11:57:00.971Z</time></trkpt><trkpt lat="42.9555219" lon="-3.8462637"><ele>886.5</ele><time>2026-05-02T11:57:01.969Z</time></trkpt><trkpt lat="42.9554047" lon="-3.846272"><ele>885.75</ele><time>2026-05-02T11:57:02.969Z</time></trkpt><trkpt lat="42.9552858" lon="-3.8462815"><ele>885.0</ele><time>2026-05-02T11:57:03.971Z</time></trkpt><trkpt lat="42.9551675" lon="-3.8462968"><ele>885.0</ele><time>2026-05-02T11:57:04.97Z</time></trkpt><trkpt lat="42.9550462" lon="-3.8463123"><ele>885.0</ele><time>2026-05-02T11:57:05.964Z</time></trkpt><trkpt lat="42.9549238" lon="-3.8463275"><ele>885.0</ele><time>2026-05-02T11:57:06.963Z</time></trkpt><trkpt lat="42.9547993" lon="-3.8463375"><ele>885.0</ele><time>2026-05-02T11:57:07.964Z</time></trkpt><trkpt lat="42.9546731" lon="-3.8463449"><ele>886.5</ele><time>2026-05-02T11:57:08.975Z</time></trkpt><trkpt lat="42.9545445" lon="-3.8463519"><ele>888.0</ele><time>2026-05-02T11:57:09.967Z</time></trkpt><trkpt lat="42.9544186" lon="-3.8463607"><ele>889.5</ele><time>2026-05-02T11:57:10.967Z</time></trkpt><trkpt lat="42.9542913" lon="-3.8463678"><ele>891.0</ele><time>2026-05-02T11:57:11.963Z</time></trkpt><trkpt lat="42.9541604" lon="-3.8463762"><ele>891.75</ele><time>2026-05-02T11:57:12.966Z</time></trkpt><trkpt lat="42.9540304" lon="-3.8463821"><ele>892.5</ele><time>2026-05-02T11:57:13.965Z</time></trkpt><trkpt lat="42.9538985" lon="-3.8463851"><ele>893.25</ele><time>2026-05-02T11:57:14.967Z</time></trkpt><trkpt lat="42.9537647" lon="-3.8463811"><ele>894.0</ele><time>2026-05-02T11:57:15.967Z</time></trkpt><trkpt lat="42.9536299" lon="-3.8463664"><ele>894.0</ele><time>2026-05-02T11:57:16.971Z</time></trkpt><trkpt lat="42.9534991" lon="-3.8463431"><ele>894.0</ele><time>2026-05-02T11:57:17.969Z</time></trkpt><trkpt lat="42.953366" lon="-3.8463125"><ele>894.0</ele><time>2026-05-02T11:57:18.969Z</time></trkpt><trkpt lat="42.953236" lon="-3.8462772"><ele>894.0</ele><time>2026-05-02T11:57:19.967Z</time></trkpt><trkpt lat="42.9531025" lon="-3.8462377"><ele>893.5</ele><time>2026-05-02T11:57:20.969Z</time></trkpt><trkpt lat="42.9529731" lon="-3.8461968"><ele>893.0</ele><time>2026-05-02T11:57:21.971Z</time></trkpt><trkpt lat="42.9528438" lon="-3.846153"><ele>892.5</ele><time>2026-05-02T11:57:22.969Z</time></trkpt><trkpt lat="42.9527128" lon="-3.8461053"><ele>892.0</ele><time>2026-05-02T11:57:23.969Z</time></trkpt><trkpt lat="42.9525874" lon="-3.8460422"><ele>892.75</ele><time>2026-05-02T11:57:24.97Z</time></trkpt><trkpt lat="42.952465" lon="-3.8459774"><ele>893.5</ele><time>2026-05-02T11:57:25.97Z</time></trkpt><trkpt lat="42.9523405" lon="-3.8458997"><ele>894.25</ele><time>2026-05-02T11:57:26.974Z</time></trkpt><trkpt lat="42.9522168" lon="-3.8458168"><ele>895.0</ele><time>2026-05-02T11:57:27.973Z</time></trkpt><trkpt lat="42.9520922" lon="-3.8457337"><ele>895.0</ele><time>2026-05-02T11:57:28.971Z</time></trkpt><trkpt lat="42.9519708" lon="-3.8456506"><ele>895.0</ele><time>2026-05-02T11:57:29.968Z</time></trkpt><trkpt lat="42.9518579" lon="-3.8455607"><ele>895.0</ele><time>2026-05-02T11:57:30.988Z</time></trkpt><trkpt lat="42.9517347" lon="-3.8454651"><ele>895.0</ele><time>2026-05-02T11:57:31.966Z</time></trkpt><trkpt lat="42.9516239" lon="-3.8453665"><ele>897.0</ele><time>2026-05-02T11:57:32.967Z</time></trkpt><trkpt lat="42.9515099" lon="-3.8452629"><ele>899.0</ele><time>2026-05-02T11:57:33.967Z</time></trkpt><trkpt lat="42.9514009" lon="-3.8451628"><ele>901.0</ele><time>2026-05-02T11:57:34.967Z</time></trkpt><trkpt lat="42.9512837" lon="-3.8450658"><ele>903.0</ele><time>2026-05-02T11:57:35.965Z</time></trkpt><trkpt lat="42.951158" lon="-3.8449661"><ele>903.0</ele><time>2026-05-02T11:57:36.963Z</time></trkpt><trkpt lat="42.951038" lon="-3.8448699"><ele>903.0</ele><time>2026-05-02T11:57:37.966Z</time></trkpt><trkpt lat="42.9509217" lon="-3.8447803"><ele>903.0</ele><time>2026-05-02T11:57:38.968Z</time></trkpt><trkpt lat="42.950817" lon="-3.8446809"><ele>903.0</ele><time>2026-05-02T11:57:39.956Z</time></trkpt><trkpt lat="42.9507014" lon="-3.8445868"><ele>903.0</ele><time>2026-05-02T11:57:40.956Z</time></trkpt><trkpt lat="42.9505942" lon="-3.8444882"><ele>903.0</ele><time>2026-05-02T11:57:41.955Z</time></trkpt><trkpt lat="42.9504802" lon="-3.8443947"><ele>903.0</ele><time>2026-05-02T11:57:42.955Z</time></trkpt><trkpt lat="42.950367" lon="-3.8442905"><ele>903.0</ele><time>2026-05-02T11:57:43.957Z</time></trkpt><trkpt lat="42.9502559" lon="-3.8441849"><ele>903.0</ele><time>2026-05-02T11:57:44.957Z</time></trkpt><trkpt lat="42.9501436" lon="-3.8440773"><ele>903.0</ele><time>2026-05-02T11:57:45.953Z</time></trkpt><trkpt lat="42.9500315" lon="-3.8439738"><ele>903.0</ele><time>2026-05-02T11:57:46.948Z</time></trkpt><trkpt lat="42.9499306" lon="-3.8438654"><ele>903.0</ele><time>2026-05-02T11:57:47.947Z</time></trkpt><trkpt lat="42.9498352" lon="-3.843743"><ele>904.25</ele><time>2026-05-02T11:57:48.939Z</time></trkpt><trkpt lat="42.9497435" lon="-3.8436181"><ele>905.5</ele><time>2026-05-02T11:57:49.927Z</time></trkpt><trkpt lat="42.9496578" lon="-3.8434789"><ele>906.75</ele><time>2026-05-02T11:57:50.938Z</time></trkpt><trkpt lat="42.9495787" lon="-3.8433342"><ele>908.0</ele><time>2026-05-02T11:57:51.94Z</time></trkpt><trkpt lat="42.9494978" lon="-3.8431882"><ele>908.0</ele><time>2026-05-02T11:57:52.94Z</time></trkpt><trkpt lat="42.9494165" lon="-3.8430395"><ele>908.0</ele><time>2026-05-02T11:57:53.941Z</time></trkpt><trkpt lat="42.9493418" lon="-3.8428996"><ele>908.0</ele><time>2026-05-02T11:57:54.938Z</time></trkpt><trkpt lat="42.9492539" lon="-3.8427648"><ele>908.0</ele><time>2026-05-02T11:57:55.944Z</time></trkpt><trkpt lat="42.9491668" lon="-3.8426525"><ele>911.25</ele><time>2026-05-02T11:57:56.939Z</time></trkpt><trkpt lat="42.9490665" lon="-3.8425564"><ele>914.5</ele><time>2026-05-02T11:57:57.937Z</time></trkpt><trkpt lat="42.9489608" lon="-3.842493"><ele>917.75</ele><time>2026-05-02T11:57:58.949Z</time></trkpt><trkpt lat="42.9488562" lon="-3.842422"><ele>921.0</ele><time>2026-05-02T11:57:59.938Z</time></trkpt><trkpt lat="42.9487483" lon="-3.8423358"><ele>921.0</ele><time>2026-05-02T11:58:00.936Z</time></trkpt><trkpt lat="42.9486517" lon="-3.8422238"><ele>921.0</ele><time>2026-05-02T11:58:01.955Z</time></trkpt><trkpt lat="42.9485685" lon="-3.8420994"><ele>921.0</ele><time>2026-05-02T11:58:02.94Z</time></trkpt><trkpt lat="42.9485046" lon="-3.8419556"><ele>921.0</ele><time>2026-05-02T11:58:03.942Z</time></trkpt><trkpt lat="42.9484354" lon="-3.8418124"><ele>923.5</ele><time>2026-05-02T11:58:04.942Z</time></trkpt><trkpt lat="42.9483693" lon="-3.8416661"><ele>926.0</ele><time>2026-05-02T11:58:05.947Z</time></trkpt><trkpt lat="42.9482969" lon="-3.8415298"><ele>928.5</ele><time>2026-05-02T11:58:06.943Z</time></trkpt><trkpt lat="42.9482211" lon="-3.8413982"><ele>931.0</ele><time>2026-05-02T11:58:07.94Z</time></trkpt><trkpt lat="42.9481396" lon="-3.8412728"><ele>931.0</ele><time>2026-05-02T11:58:08.95Z</time></trkpt><trkpt lat="42.9480594" lon="-3.8411449"><ele>931.0</ele><time>2026-05-02T11:58:09.942Z</time></trkpt><trkpt lat="42.9479796" lon="-3.8410156"><ele>931.0</ele><time>2026-05-02T11:58:10.94Z</time></trkpt><trkpt lat="42.9478964" lon="-3.840876"><ele>931.0</ele><time>2026-05-02T11:58:11.939Z</time></trkpt><trkpt lat="42.9478205" lon="-3.8407384"><ele>927.25</ele><time>2026-05-02T11:58:12.944Z</time></trkpt><trkpt lat="42.94775" lon="-3.8405948"><ele>923.5</ele><time>2026-05-02T11:58:13.94Z</time></trkpt><trkpt lat="42.9476806" lon="-3.8404421"><ele>919.75</ele><time>2026-05-02T11:58:14.942Z</time></trkpt><trkpt lat="42.9476177" lon="-3.8402858"><ele>916.0</ele><time>2026-05-02T11:58:15.946Z</time></trkpt><trkpt lat="42.9475586" lon="-3.8401284"><ele>922.0</ele><time>2026-05-02T11:58:16.946Z</time></trkpt><trkpt lat="42.9475108" lon="-3.8399656"><ele>928.0</ele><time>2026-05-02T11:58:17.942Z</time></trkpt><trkpt lat="42.9474532" lon="-3.8398044"><ele>934.0</ele><time>2026-05-02T11:58:18.952Z</time></trkpt><trkpt lat="42.9473929" lon="-3.8396483"><ele>940.0</ele><time>2026-05-02T11:58:19.945Z</time></trkpt><trkpt lat="42.9473247" lon="-3.8395032"><ele>940.0</ele><time>2026-05-02T11:58:20.949Z</time></trkpt><trkpt lat="42.9472461" lon="-3.8393807"><ele>940.0</ele><time>2026-05-02T11:58:21.958Z</time></trkpt><trkpt lat="42.9471584" lon="-3.8392717"><ele>940.0</ele><time>2026-05-02T11:58:22.949Z</time></trkpt><trkpt lat="42.9470625" lon="-3.8391874"><ele>940.0</ele><time>2026-05-02T11:58:23.944Z</time></trkpt><trkpt lat="42.9469566" lon="-3.8391192"><ele>943.25</ele><time>2026-05-02T11:58:24.939Z</time></trkpt><trkpt lat="42.946842" lon="-3.8390718"><ele>946.5</ele><time>2026-05-02T11:58:25.939Z</time></trkpt><trkpt lat="42.9467204" lon="-3.8390301"><ele>949.75</ele><time>2026-05-02T11:58:26.939Z</time></trkpt><trkpt lat="42.9466084" lon="-3.8389799"><ele>953.0</ele><time>2026-05-02T11:58:27.94Z</time></trkpt><trkpt lat="42.9465091" lon="-3.8389002"><ele>953.0</ele><time>2026-05-02T11:58:28.933Z</time></trkpt><trkpt lat="42.9464218" lon="-3.8387947"><ele>953.0</ele><time>2026-05-02T11:58:29.931Z</time></trkpt><trkpt lat="42.9463559" lon="-3.8386726"><ele>953.0</ele><time>2026-05-02T11:58:30.932Z</time></trkpt><trkpt lat="42.9463044" lon="-3.838547"><ele>953.0</ele><time>2026-05-02T11:58:31.937Z</time></trkpt><trkpt lat="42.9462546" lon="-3.8384138"><ele>953.0</ele><time>2026-05-02T11:58:32.95Z</time></trkpt><trkpt lat="42.9462018" lon="-3.8382832"><ele>955.5999999999999</ele><time>2026-05-02T11:58:33.935Z</time></trkpt><trkpt lat="42.9461468" lon="-3.8381626"><ele>958.1999999999999</ele><time>2026-05-02T11:58:34.936Z</time></trkpt><trkpt lat="42.9460931" lon="-3.8380535"><ele>960.8</ele><time>2026-05-02T11:58:35.936Z</time></trkpt><trkpt lat="42.9460214" lon="-3.8379529"><ele>963.4</ele><time>2026-05-02T11:58:36.944Z</time></trkpt><trkpt lat="42.9459443" lon="-3.8378587"><ele>966.0</ele><time>2026-05-02T11:58:37.947Z</time></trkpt><trkpt lat="42.9458587" lon="-3.8377794"><ele>966.0</ele><time>2026-05-02T11:58:38.959Z</time></trkpt><trkpt lat="42.94577" lon="-3.8377069"><ele>965.9999999999999</ele><time>2026-05-02T11:58:39.951Z</time></trkpt><trkpt lat="42.9456773" lon="-3.8376545"><ele>965.9999999999999</ele><time>2026-05-02T11:58:40.954Z</time></trkpt><trkpt lat="42.9455735" lon="-3.837636"><ele>966.0</ele><time>2026-05-02T11:58:41.946Z</time></trkpt><trkpt lat="42.9454712" lon="-3.8376226"><ele>966.0</ele><time>2026-05-02T11:58:42.946Z</time></trkpt><trkpt lat="42.9453665" lon="-3.8376236"><ele>966.0</ele><time>2026-05-02T11:58:43.944Z</time></trkpt><trkpt lat="42.9452642" lon="-3.837621"><ele>966.0</ele><time>2026-05-02T11:58:44.939Z</time></trkpt><trkpt lat="42.9451823" lon="-3.8375986"><ele>966.0</ele><time>2026-05-02T11:58:45.946Z</time></trkpt><trkpt lat="42.9451019" lon="-3.8375724"><ele>966.0</ele><time>2026-05-02T11:58:46.94Z</time></trkpt><trkpt lat="42.9450277" lon="-3.8375244"><ele>966.0</ele><time>2026-05-02T11:58:47.942Z</time></trkpt><trkpt lat="42.9449558" lon="-3.8374762"><ele>966.0</ele><time>2026-05-02T11:58:48.931Z</time></trkpt><trkpt lat="42.9448974" lon="-3.8374216"><ele>966.0</ele><time>2026-05-02T11:58:49.935Z</time></trkpt><trkpt lat="42.9448413" lon="-3.8373634"><ele>966.0</ele><time>2026-05-02T11:58:50.933Z</time></trkpt><trkpt lat="42.9447869" lon="-3.8372979"><ele>966.0</ele><time>2026-05-02T11:58:51.94Z</time></trkpt><trkpt lat="42.9447323" lon="-3.8372214"><ele>966.0</ele><time>2026-05-02T11:58:52.935Z</time></trkpt><trkpt lat="42.9446899" lon="-3.8371327"><ele>966.0</ele><time>2026-05-02T11:58:53.938Z</time></trkpt><trkpt lat="42.9446637" lon="-3.8370314"><ele>966.0</ele><time>2026-05-02T11:58:54.943Z</time></trkpt><trkpt lat="42.9446694" lon="-3.836921"><ele>966.0</ele><time>2026-05-02T11:58:55.948Z</time></trkpt><trkpt lat="42.9446981" lon="-3.8368088"><ele>966.0</ele><time>2026-05-02T11:58:56.948Z</time></trkpt><trkpt lat="42.9447356" lon="-3.8366976"><ele>966.0</ele><time>2026-05-02T11:58:57.952Z</time></trkpt><trkpt lat="42.9447723" lon="-3.836585"><ele>966.0</ele><time>2026-05-02T11:58:58.957Z</time></trkpt><trkpt lat="42.944803" lon="-3.8364704"><ele>966.0</ele><time>2026-05-02T11:58:59.956Z</time></trkpt><trkpt lat="42.9448127" lon="-3.8363547"><ele>966.0</ele><time>2026-05-02T11:59:00.955Z</time></trkpt><trkpt lat="42.9448157" lon="-3.8362357"><ele>964.3333333333334</ele><time>2026-05-02T11:59:01.954Z</time></trkpt><trkpt lat="42.9447984" lon="-3.8361266"><ele>962.6666666666667</ele><time>2026-05-02T11:59:02.95Z</time></trkpt><trkpt lat="42.9447685" lon="-3.8360209"><ele>961.0</ele><time>2026-05-02T11:59:03.966Z</time></trkpt><trkpt lat="42.9447307" lon="-3.8359237"><ele>959.3333333333334</ele><time>2026-05-02T11:59:04.956Z</time></trkpt><trkpt lat="42.9446849" lon="-3.8358316"><ele>957.6666666666667</ele><time>2026-05-02T11:59:05.952Z</time></trkpt><trkpt lat="42.9446381" lon="-3.8357369"><ele>956.0</ele><time>2026-05-02T11:59:06.947Z</time></trkpt><trkpt lat="42.9445859" lon="-3.8356419"><ele>955.6666666666667</ele><time>2026-05-02T11:59:07.952Z</time></trkpt><trkpt lat="42.9445331" lon="-3.8355463"><ele>955.3333333333334</ele><time>2026-05-02T11:59:08.96Z</time></trkpt><trkpt lat="42.9444771" lon="-3.8354532"><ele>955.0</ele><time>2026-05-02T11:59:09.947Z</time></trkpt><trkpt lat="42.9444211" lon="-3.8353605"><ele>954.6666666666667</ele><time>2026-05-02T11:59:10.955Z</time></trkpt><trkpt lat="42.9443625" lon="-3.8352646"><ele>954.3333333333334</ele><time>2026-05-02T11:59:11.952Z</time></trkpt><trkpt lat="42.9442968" lon="-3.8351738"><ele>954.0</ele><time>2026-05-02T11:59:12.959Z</time></trkpt><trkpt lat="42.9442272" lon="-3.8350843"><ele>956.8000000000001</ele><time>2026-05-02T11:59:13.951Z</time></trkpt><trkpt lat="42.9441603" lon="-3.8349948"><ele>959.6000000000001</ele><time>2026-05-02T11:59:14.955Z</time></trkpt><trkpt lat="42.9440918" lon="-3.8349"><ele>962.4</ele><time>2026-05-02T11:59:15.949Z</time></trkpt><trkpt lat="42.9440245" lon="-3.8348084"><ele>965.2</ele><time>2026-05-02T11:59:16.956Z</time></trkpt><trkpt lat="42.9439539" lon="-3.8347228"><ele>968.0</ele><time>2026-05-02T11:59:17.942Z</time></trkpt><trkpt lat="42.9438809" lon="-3.8346409"><ele>968.0</ele><time>2026-05-02T11:59:18.952Z</time></trkpt><trkpt lat="42.943807" lon="-3.8345588"><ele>968.0</ele><time>2026-05-02T11:59:19.942Z</time></trkpt><trkpt lat="42.9437267" lon="-3.8344776"><ele>968.0</ele><time>2026-05-02T11:59:20.942Z</time></trkpt><trkpt lat="42.9436413" lon="-3.8344063"><ele>968.0</ele><time>2026-05-02T11:59:21.938Z</time></trkpt><trkpt lat="42.9435505" lon="-3.8343427"><ele>968.0</ele><time>2026-05-02T11:59:22.939Z</time></trkpt><trkpt lat="42.9434534" lon="-3.8342842"><ele>969.2</ele><time>2026-05-02T11:59:23.942Z</time></trkpt><trkpt lat="42.9433565" lon="-3.8342288"><ele>970.4</ele><time>2026-05-02T11:59:24.939Z</time></trkpt><trkpt lat="42.9432587" lon="-3.8341769"><ele>971.6000000000001</ele><time>2026-05-02T11:59:25.94Z</time></trkpt><trkpt lat="42.943169" lon="-3.8341193"><ele>972.8000000000001</ele><time>2026-05-02T11:59:26.938Z</time></trkpt><trkpt lat="42.9430867" lon="-3.8340456"><ele>974.0</ele><time>2026-05-02T11:59:27.94Z</time></trkpt><trkpt lat="42.9430094" lon="-3.833963"><ele>974.0</ele><time>2026-05-02T11:59:28.944Z</time></trkpt><trkpt lat="42.9429435" lon="-3.8338659"><ele>974.0</ele><time>2026-05-02T11:59:29.932Z</time></trkpt><trkpt lat="42.9428884" lon="-3.8337516"><ele>974.0</ele><time>2026-05-02T11:59:30.936Z</time></trkpt><trkpt lat="42.9427997" lon="-3.8335021"><ele>974.0</ele><time>2026-05-02T11:59:32.935Z</time></trkpt><trkpt lat="42.9427636" lon="-3.8333813"><ele>976.8000000000001</ele><time>2026-05-02T11:59:33.944Z</time></trkpt><trkpt lat="42.9427172" lon="-3.8332597"><ele>979.6000000000001</ele><time>2026-05-02T11:59:34.957Z</time></trkpt><trkpt lat="42.9426842" lon="-3.833139"><ele>982.4</ele><time>2026-05-02T11:59:35.943Z</time></trkpt><trkpt lat="42.942636" lon="-3.8330175"><ele>985.2</ele><time>2026-05-02T11:59:36.95Z</time></trkpt><trkpt lat="42.942582" lon="-3.8329077"><ele>988.0</ele><time>2026-05-02T11:59:37.939Z</time></trkpt><trkpt lat="42.9425154" lon="-3.8328035"><ele>988.0</ele><time>2026-05-02T11:59:38.95Z</time></trkpt><trkpt lat="42.9424372" lon="-3.8327179"><ele>988.0</ele><time>2026-05-02T11:59:39.95Z</time></trkpt><trkpt lat="42.9423533" lon="-3.8326493"><ele>988.0</ele><time>2026-05-02T11:59:40.946Z</time></trkpt><trkpt lat="42.9422666" lon="-3.8326083"><ele>988.0</ele><time>2026-05-02T11:59:41.947Z</time></trkpt><trkpt lat="42.9421703" lon="-3.8326017"><ele>988.0</ele><time>2026-05-02T11:59:42.938Z</time></trkpt><trkpt lat="42.9420714" lon="-3.8325934"><ele>988.5999999999999</ele><time>2026-05-02T11:59:43.946Z</time></trkpt><trkpt lat="42.9419706" lon="-3.8325931"><ele>989.1999999999999</ele><time>2026-05-02T11:59:44.938Z</time></trkpt><trkpt lat="42.9418758" lon="-3.8325796"><ele>989.8</ele><time>2026-05-02T11:59:45.944Z</time></trkpt><trkpt lat="42.9417913" lon="-3.8325395"><ele>990.4</ele><time>2026-05-02T11:59:46.951Z</time></trkpt><trkpt lat="42.9417211" lon="-3.832459"><ele>991.0</ele><time>2026-05-02T11:59:47.939Z</time></trkpt><trkpt lat="42.9416637" lon="-3.832361"><ele>991.0</ele><time>2026-05-02T11:59:48.939Z</time></trkpt><trkpt lat="42.9416127" lon="-3.8322516"><ele>990.9999999999999</ele><time>2026-05-02T11:59:49.936Z</time></trkpt><trkpt lat="42.9415632" lon="-3.8321381"><ele>990.9999999999999</ele><time>2026-05-02T11:59:50.945Z</time></trkpt><trkpt lat="42.9415261" lon="-3.8320132"><ele>991.0</ele><time>2026-05-02T11:59:51.942Z</time></trkpt><trkpt lat="42.941487" lon="-3.8318947"><ele>991.0</ele><time>2026-05-02T11:59:52.946Z</time></trkpt><trkpt lat="42.9414536" lon="-3.831774"><ele>988.8</ele><time>2026-05-02T11:59:53.944Z</time></trkpt><trkpt lat="42.9414253" lon="-3.8316454"><ele>986.5999999999999</ele><time>2026-05-02T11:59:54.946Z</time></trkpt><trkpt lat="42.941392" lon="-3.8315226"><ele>984.4</ele><time>2026-05-02T11:59:55.944Z</time></trkpt><trkpt lat="42.9413536" lon="-3.831402"><ele>982.2</ele><time>2026-05-02T11:59:56.943Z</time></trkpt><trkpt lat="42.941312" lon="-3.8312874"><ele>980.0</ele><time>2026-05-02T11:59:57.945Z</time></trkpt><trkpt lat="42.9412658" lon="-3.8311752"><ele>980.0</ele><time>2026-05-02T11:59:58.948Z</time></trkpt><trkpt lat="42.9412139" lon="-3.8310672"><ele>980.0</ele><time>2026-05-02T11:59:59.943Z</time></trkpt><trkpt lat="42.9411525" lon="-3.8309769"><ele>980.0</ele><time>2026-05-02T12:00:00.937Z</time></trkpt><trkpt lat="42.9410829" lon="-3.8308899"><ele>980.0</ele><time>2026-05-02T12:00:01.931Z</time></trkpt><trkpt lat="42.9410155" lon="-3.8308104"><ele>980.0</ele><time>2026-05-02T12:00:02.936Z</time></trkpt><trkpt lat="42.9409417" lon="-3.8307344"><ele>984.1666666666667</ele><time>2026-05-02T12:00:03.933Z</time></trkpt><trkpt lat="42.9408783" lon="-3.8306651"><ele>988.3333333333334</ele><time>2026-05-02T12:00:04.934Z</time></trkpt><trkpt lat="42.9408153" lon="-3.8305924"><ele>992.5</ele><time>2026-05-02T12:00:05.953Z</time></trkpt><trkpt lat="42.9407502" lon="-3.8305165"><ele>996.6666666666667</ele><time>2026-05-02T12:00:06.937Z</time></trkpt><trkpt lat="42.9406878" lon="-3.8304435"><ele>1000.8333333333334</ele><time>2026-05-02T12:00:07.935Z</time></trkpt><trkpt lat="42.9406218" lon="-3.8303693"><ele>1005.0</ele><time>2026-05-02T12:00:08.945Z</time></trkpt><trkpt lat="42.940556" lon="-3.8303039"><ele>1005.0</ele><time>2026-05-02T12:00:09.934Z</time></trkpt><trkpt lat="42.9404943" lon="-3.8302258"><ele>1005.0</ele><time>2026-05-02T12:00:10.934Z</time></trkpt><trkpt lat="42.9404354" lon="-3.8301592"><ele>1005.0</ele><time>2026-05-02T12:00:11.934Z</time></trkpt><trkpt lat="42.9403762" lon="-3.8300916"><ele>1005.0</ele><time>2026-05-02T12:00:12.93Z</time></trkpt><trkpt lat="42.940316" lon="-3.8300198"><ele>1005.0</ele><time>2026-05-02T12:00:13.931Z</time></trkpt><trkpt lat="42.9402532" lon="-3.8299564"><ele>1005.0</ele><time>2026-05-02T12:00:14.935Z</time></trkpt><trkpt lat="42.940184" lon="-3.8298932"><ele>1005.8</ele><time>2026-05-02T12:00:15.935Z</time></trkpt><trkpt lat="42.940105" lon="-3.8298411"><ele>1006.6</ele><time>2026-05-02T12:00:16.936Z</time></trkpt><trkpt lat="42.9400204" lon="-3.8297999"><ele>1007.4000000000001</ele><time>2026-05-02T12:00:17.939Z</time></trkpt><trkpt lat="42.939933" lon="-3.8297627"><ele>1008.2</ele><time>2026-05-02T12:00:18.938Z</time></trkpt><trkpt lat="42.9398431" lon="-3.8297134"><ele>1009.0</ele><time>2026-05-02T12:00:19.932Z</time></trkpt><trkpt lat="42.9397493" lon="-3.8296684"><ele>1009.0</ele><time>2026-05-02T12:00:20.937Z</time></trkpt><trkpt lat="42.9396568" lon="-3.8296273"><ele>1009.0000000000001</ele><time>2026-05-02T12:00:21.935Z</time></trkpt><trkpt lat="42.9395681" lon="-3.8295981"><ele>1009.0000000000001</ele><time>2026-05-02T12:00:22.938Z</time></trkpt><trkpt lat="42.9394737" lon="-3.8295707"><ele>1009.0</ele><time>2026-05-02T12:00:23.937Z</time></trkpt><trkpt lat="42.939375" lon="-3.8295508"><ele>1009.0</ele><time>2026-05-02T12:00:24.933Z</time></trkpt><trkpt lat="42.9392791" lon="-3.8295362"><ele>1011.5</ele><time>2026-05-02T12:00:25.935Z</time></trkpt><trkpt lat="42.9391812" lon="-3.8295173"><ele>1014.0</ele><time>2026-05-02T12:00:26.936Z</time></trkpt><trkpt lat="42.9389823" lon="-3.829501"><ele>1016.5</ele><time>2026-05-02T12:00:28.94Z</time></trkpt><trkpt lat="42.9388773" lon="-3.8294936"><ele>1019.0</ele><time>2026-05-02T12:00:29.942Z</time></trkpt><trkpt lat="42.938775" lon="-3.8294975"><ele>1019.0</ele><time>2026-05-02T12:00:30.95Z</time></trkpt><trkpt lat="42.9386692" lon="-3.8295066"><ele>1019.0000000000001</ele><time>2026-05-02T12:00:31.942Z</time></trkpt><trkpt lat="42.9385573" lon="-3.8295174"><ele>1019.0000000000001</ele><time>2026-05-02T12:00:32.943Z</time></trkpt><trkpt lat="42.9384458" lon="-3.829538"><ele>1019.0</ele><time>2026-05-02T12:00:33.946Z</time></trkpt><trkpt lat="42.938335" lon="-3.8295822"><ele>1019.0</ele><time>2026-05-02T12:00:34.944Z</time></trkpt><trkpt lat="42.9382259" lon="-3.8296296"><ele>1019.0</ele><time>2026-05-02T12:00:35.946Z</time></trkpt><trkpt lat="42.9381191" lon="-3.8296829"><ele>1019.0000000000001</ele><time>2026-05-02T12:00:36.966Z</time></trkpt><trkpt lat="42.9380134" lon="-3.82974"><ele>1019.0000000000001</ele><time>2026-05-02T12:00:37.949Z</time></trkpt><trkpt lat="42.9379134" lon="-3.8297961"><ele>1019.0</ele><time>2026-05-02T12:00:38.96Z</time></trkpt><trkpt lat="42.9378123" lon="-3.8298498"><ele>1019.0</ele><time>2026-05-02T12:00:39.957Z</time></trkpt><trkpt lat="42.9377099" lon="-3.8299023"><ele>1019.0</ele><time>2026-05-02T12:00:40.961Z</time></trkpt><trkpt lat="42.9376048" lon="-3.82995"><ele>1019.0000000000001</ele><time>2026-05-02T12:00:41.961Z</time></trkpt><trkpt lat="42.9374998" lon="-3.8299941"><ele>1019.0000000000001</ele><time>2026-05-02T12:00:42.961Z</time></trkpt><trkpt lat="42.937398" lon="-3.8300274"><ele>1019.0</ele><time>2026-05-02T12:00:43.962Z</time></trkpt><trkpt lat="42.9372941" lon="-3.8300494"><ele>1019.0</ele><time>2026-05-02T12:00:44.96Z</time></trkpt><trkpt lat="42.937189" lon="-3.8300559"><ele>1017.6</ele><time>2026-05-02T12:00:45.961Z</time></trkpt><trkpt lat="42.9370831" lon="-3.8300565"><ele>1016.2</ele><time>2026-05-02T12:00:46.963Z</time></trkpt><trkpt lat="42.9369749" lon="-3.8300426"><ele>1014.8000000000001</ele><time>2026-05-02T12:00:47.963Z</time></trkpt><trkpt lat="42.9368619" lon="-3.8300221"><ele>1013.4000000000001</ele><time>2026-05-02T12:00:48.959Z</time></trkpt><trkpt lat="42.9367513" lon="-3.8299949"><ele>1012.0</ele><time>2026-05-02T12:00:49.956Z</time></trkpt><trkpt lat="42.9366382" lon="-3.8299548"><ele>1009.75</ele><time>2026-05-02T12:00:50.959Z</time></trkpt><trkpt lat="42.936529" lon="-3.8299018"><ele>1007.5</ele><time>2026-05-02T12:00:51.956Z</time></trkpt><trkpt lat="42.9364185" lon="-3.8298386"><ele>1005.25</ele><time>2026-05-02T12:00:52.955Z</time></trkpt><trkpt lat="42.936308" lon="-3.8297732"><ele>1003.0</ele><time>2026-05-02T12:00:53.952Z</time></trkpt><trkpt lat="42.9361965" lon="-3.8297054"><ele>1003.0</ele><time>2026-05-02T12:00:54.953Z</time></trkpt><trkpt lat="42.9360827" lon="-3.8296359"><ele>1003.0</ele><time>2026-05-02T12:00:55.96Z</time></trkpt><trkpt lat="42.9359722" lon="-3.8295688"><ele>1003.0</ele><time>2026-05-02T12:00:56.953Z</time></trkpt><trkpt lat="42.9358519" lon="-3.8295108"><ele>1003.0</ele><time>2026-05-02T12:00:57.957Z</time></trkpt><trkpt lat="42.9357271" lon="-3.8294571"><ele>1000.75</ele><time>2026-05-02T12:00:58.955Z</time></trkpt><trkpt lat="42.9355981" lon="-3.8294155"><ele>998.5</ele><time>2026-05-02T12:00:59.946Z</time></trkpt><trkpt lat="42.9354654" lon="-3.8293854"><ele>996.25</ele><time>2026-05-02T12:01:00.957Z</time></trkpt><trkpt lat="42.9353291" lon="-3.8293645"><ele>994.0</ele><time>2026-05-02T12:01:01.956Z</time></trkpt><trkpt lat="42.9351942" lon="-3.8293557"><ele>994.0</ele><time>2026-05-02T12:01:02.956Z</time></trkpt><trkpt lat="42.9350544" lon="-3.8293522"><ele>994.0</ele><time>2026-05-02T12:01:03.96Z</time></trkpt><trkpt lat="42.9349143" lon="-3.8293483"><ele>994.0</ele><time>2026-05-02T12:01:04.959Z</time></trkpt><trkpt lat="42.9347776" lon="-3.8293466"><ele>994.0</ele><time>2026-05-02T12:01:05.961Z</time></trkpt><trkpt lat="42.9346326" lon="-3.8293364"><ele>993.25</ele><time>2026-05-02T12:01:06.97Z</time></trkpt><trkpt lat="42.9344924" lon="-3.8293276"><ele>992.5</ele><time>2026-05-02T12:01:07.975Z</time></trkpt><trkpt lat="42.9343557" lon="-3.8293026"><ele>991.75</ele><time>2026-05-02T12:01:08.971Z</time></trkpt><trkpt lat="42.9342242" lon="-3.8292581"><ele>991.0</ele><time>2026-05-02T12:01:09.959Z</time></trkpt><trkpt lat="42.9340938" lon="-3.8292048"><ele>993.5</ele><time>2026-05-02T12:01:10.961Z</time></trkpt><trkpt lat="42.9339705" lon="-3.8291371"><ele>996.0</ele><time>2026-05-02T12:01:11.954Z</time></trkpt><trkpt lat="42.9338521" lon="-3.829064"><ele>998.5</ele><time>2026-05-02T12:01:12.953Z</time></trkpt><trkpt lat="42.933736" lon="-3.8289893"><ele>1001.0</ele><time>2026-05-02T12:01:13.957Z</time></trkpt><trkpt lat="42.9336193" lon="-3.828914"><ele>1001.0</ele><time>2026-05-02T12:01:14.953Z</time></trkpt><trkpt lat="42.933499" lon="-3.8288393"><ele>1001.0</ele><time>2026-05-02T12:01:15.954Z</time></trkpt><trkpt lat="42.9333762" lon="-3.8287707"><ele>1001.0</ele><time>2026-05-02T12:01:16.962Z</time></trkpt><trkpt lat="42.9331361" lon="-3.8286619"><ele>997.75</ele><time>2026-05-02T12:01:18.957Z</time></trkpt><trkpt lat="42.9330105" lon="-3.8286169"><ele>994.5</ele><time>2026-05-02T12:01:19.964Z</time></trkpt><trkpt lat="42.9328826" lon="-3.8285767"><ele>991.25</ele><time>2026-05-02T12:01:20.965Z</time></trkpt><trkpt lat="42.9327533" lon="-3.8285359"><ele>988.0</ele><time>2026-05-02T12:01:21.97Z</time></trkpt><trkpt lat="42.9326234" lon="-3.8284971"><ele>989.0</ele><time>2026-05-02T12:01:22.97Z</time></trkpt><trkpt lat="42.9324942" lon="-3.8284545"><ele>990.0</ele><time>2026-05-02T12:01:23.973Z</time></trkpt><trkpt lat="42.9323643" lon="-3.8284177"><ele>991.0</ele><time>2026-05-02T12:01:24.97Z</time></trkpt><trkpt lat="42.9322376" lon="-3.8283732"><ele>992.0</ele><time>2026-05-02T12:01:25.975Z</time></trkpt><trkpt lat="42.9321119" lon="-3.8283164"><ele>992.0</ele><time>2026-05-02T12:01:26.969Z</time></trkpt><trkpt lat="42.9319869" lon="-3.8282431"><ele>992.0</ele><time>2026-05-02T12:01:27.96Z</time></trkpt><trkpt lat="42.9318579" lon="-3.8281719"><ele>992.0</ele><time>2026-05-02T12:01:28.963Z</time></trkpt><trkpt lat="42.9317373" lon="-3.8281023"><ele>992.0</ele><time>2026-05-02T12:01:29.964Z</time></trkpt><trkpt lat="42.9316141" lon="-3.8280428"><ele>991.0</ele><time>2026-05-02T12:01:30.971Z</time></trkpt><trkpt lat="42.93149" lon="-3.8279915"><ele>990.0</ele><time>2026-05-02T12:01:31.959Z</time></trkpt><trkpt lat="42.9313613" lon="-3.827941"><ele>989.0</ele><time>2026-05-02T12:01:32.957Z</time></trkpt><trkpt lat="42.9312239" lon="-3.8279114"><ele>988.0</ele><time>2026-05-02T12:01:33.961Z</time></trkpt><trkpt lat="42.9310927" lon="-3.8278904"><ele>988.0</ele><time>2026-05-02T12:01:34.958Z</time></trkpt><trkpt lat="42.9309549" lon="-3.8278638"><ele>988.0</ele><time>2026-05-02T12:01:35.957Z</time></trkpt><trkpt lat="42.9308192" lon="-3.827841"><ele>988.0</ele><time>2026-05-02T12:01:36.963Z</time></trkpt><trkpt lat="42.9306748" lon="-3.8278288"><ele>988.0</ele><time>2026-05-02T12:01:37.964Z</time></trkpt><trkpt lat="42.9305286" lon="-3.8278209"><ele>985.75</ele><time>2026-05-02T12:01:38.979Z</time></trkpt><trkpt lat="42.9303827" lon="-3.8278091"><ele>983.5</ele><time>2026-05-02T12:01:39.964Z</time></trkpt><trkpt lat="42.930234" lon="-3.8277876"><ele>981.25</ele><time>2026-05-02T12:01:40.963Z</time></trkpt><trkpt lat="42.9300844" lon="-3.8277641"><ele>979.0</ele><time>2026-05-02T12:01:41.966Z</time></trkpt><trkpt lat="42.9299508" lon="-3.827747"><ele>977.0</ele><time>2026-05-02T12:01:42.966Z</time></trkpt><trkpt lat="42.9298256" lon="-3.8277319"><ele>975.0</ele><time>2026-05-02T12:01:43.968Z</time></trkpt><trkpt lat="42.9296865" lon="-3.8277135"><ele>973.0</ele><time>2026-05-02T12:01:44.97Z</time></trkpt><trkpt lat="42.9295407" lon="-3.8276919"><ele>971.0</ele><time>2026-05-02T12:01:45.966Z</time></trkpt><trkpt lat="42.9293987" lon="-3.8276758"><ele>971.0</ele><time>2026-05-02T12:01:46.969Z</time></trkpt><trkpt lat="42.92925" lon="-3.8276523"><ele>971.0</ele><time>2026-05-02T12:01:47.969Z</time></trkpt><trkpt lat="42.9291098" lon="-3.8276363"><ele>971.0</ele><time>2026-05-02T12:01:48.964Z</time></trkpt><trkpt lat="42.9289706" lon="-3.8276197"><ele>971.0</ele><time>2026-05-02T12:01:49.968Z</time></trkpt><trkpt lat="42.9288399" lon="-3.827607"><ele>973.75</ele><time>2026-05-02T12:01:50.972Z</time></trkpt><trkpt lat="42.9287131" lon="-3.8275957"><ele>976.5</ele><time>2026-05-02T12:01:51.976Z</time></trkpt><trkpt lat="42.9285843" lon="-3.827592"><ele>979.25</ele><time>2026-05-02T12:01:52.967Z</time></trkpt><trkpt lat="42.9284532" lon="-3.8275844"><ele>982.0</ele><time>2026-05-02T12:01:53.967Z</time></trkpt><trkpt lat="42.9283122" lon="-3.827571"><ele>983.0</ele><time>2026-05-02T12:01:54.965Z</time></trkpt><trkpt lat="42.9281797" lon="-3.8275649"><ele>984.0</ele><time>2026-05-02T12:01:55.966Z</time></trkpt><trkpt lat="42.928044" lon="-3.8275553"><ele>985.0</ele><time>2026-05-02T12:01:56.96Z</time></trkpt><trkpt lat="42.9279042" lon="-3.8275442"><ele>986.0</ele><time>2026-05-02T12:01:57.964Z</time></trkpt><trkpt lat="42.9277615" lon="-3.8275339"><ele>986.0</ele><time>2026-05-02T12:01:58.963Z</time></trkpt><trkpt lat="42.9276156" lon="-3.8275289"><ele>986.0</ele><time>2026-05-02T12:01:59.959Z</time></trkpt><trkpt lat="42.9274803" lon="-3.8275161"><ele>986.0</ele><time>2026-05-02T12:02:00.956Z</time></trkpt><trkpt lat="42.9273432" lon="-3.8275038"><ele>986.0</ele><time>2026-05-02T12:02:01.948Z</time></trkpt><trkpt lat="42.9272086" lon="-3.8274947"><ele>986.25</ele><time>2026-05-02T12:02:02.951Z</time></trkpt><trkpt lat="42.9270801" lon="-3.8274766"><ele>986.5</ele><time>2026-05-02T12:02:03.949Z</time></trkpt><trkpt lat="42.9269469" lon="-3.8274624"><ele>986.75</ele><time>2026-05-02T12:02:04.943Z</time></trkpt><trkpt lat="42.9268044" lon="-3.8274613"><ele>987.0</ele><time>2026-05-02T12:02:05.947Z</time></trkpt><trkpt lat="42.9266668" lon="-3.827462"><ele>987.25</ele><time>2026-05-02T12:02:06.945Z</time></trkpt><trkpt lat="42.9265339" lon="-3.8274459"><ele>987.5</ele><time>2026-05-02T12:02:07.945Z</time></trkpt><trkpt lat="42.9264042" lon="-3.8274337"><ele>987.75</ele><time>2026-05-02T12:02:08.939Z</time></trkpt><trkpt lat="42.9262702" lon="-3.8274272"><ele>988.0</ele><time>2026-05-02T12:02:09.963Z</time></trkpt><trkpt lat="42.9261376" lon="-3.8274176"><ele>988.0</ele><time>2026-05-02T12:02:10.934Z</time></trkpt><trkpt lat="42.9260019" lon="-3.8274073"><ele>988.0</ele><time>2026-05-02T12:02:11.941Z</time></trkpt><trkpt lat="42.9258765" lon="-3.8274062"><ele>988.0</ele><time>2026-05-02T12:02:12.939Z</time></trkpt><trkpt lat="42.925745" lon="-3.827416"><ele>988.0</ele><time>2026-05-02T12:02:13.942Z</time></trkpt><trkpt lat="42.9256097" lon="-3.827426"><ele>987.0</ele><time>2026-05-02T12:02:14.936Z</time></trkpt><trkpt lat="42.9254715" lon="-3.8274473"><ele>986.0</ele><time>2026-05-02T12:02:15.936Z</time></trkpt><trkpt lat="42.9253374" lon="-3.8274782"><ele>985.0</ele><time>2026-05-02T12:02:16.944Z</time></trkpt><trkpt lat="42.9252004" lon="-3.827511"><ele>984.0</ele><time>2026-05-02T12:02:17.937Z</time></trkpt><trkpt lat="42.9250703" lon="-3.8275423"><ele>982.0</ele><time>2026-05-02T12:02:18.941Z</time></trkpt><trkpt lat="42.9249394" lon="-3.8275803"><ele>980.0</ele><time>2026-05-02T12:02:19.942Z</time></trkpt><trkpt lat="42.9248051" lon="-3.8276233"><ele>978.0</ele><time>2026-05-02T12:02:20.94Z</time></trkpt><trkpt lat="42.9246705" lon="-3.8276499"><ele>976.0</ele><time>2026-05-02T12:02:21.94Z</time></trkpt><trkpt lat="42.9245326" lon="-3.8276705"><ele>986.3333333333333</ele><time>2026-05-02T12:02:22.94Z</time></trkpt><trkpt lat="42.9242591" lon="-3.8277133"><ele>996.6666666666667</ele><time>2026-05-02T12:02:24.94Z</time></trkpt><trkpt lat="42.9241194" lon="-3.8277345"><ele>1007.0</ele><time>2026-05-02T12:02:25.945Z</time></trkpt><trkpt lat="42.9239776" lon="-3.8277539"><ele>1007.0</ele><time>2026-05-02T12:02:26.936Z</time></trkpt><trkpt lat="42.9238497" lon="-3.8277615"><ele>1007.0</ele><time>2026-05-02T12:02:27.944Z</time></trkpt><trkpt lat="42.9237258" lon="-3.8277662"><ele>1007.0</ele><time>2026-05-02T12:02:28.943Z</time></trkpt><trkpt lat="42.923599" lon="-3.827763"><ele>1007.0</ele><time>2026-05-02T12:02:29.941Z</time></trkpt><trkpt lat="42.923477" lon="-3.8277837"><ele>1003.75</ele><time>2026-05-02T12:02:30.944Z</time></trkpt><trkpt lat="42.9233592" lon="-3.8278024"><ele>1000.5</ele><time>2026-05-02T12:02:31.941Z</time></trkpt><trkpt lat="42.9232419" lon="-3.8278169"><ele>997.25</ele><time>2026-05-02T12:02:32.94Z</time></trkpt><trkpt lat="42.9231256" lon="-3.8278445"><ele>994.0</ele><time>2026-05-02T12:02:33.934Z</time></trkpt><trkpt lat="42.9230156" lon="-3.827885"><ele>994.0</ele><time>2026-05-02T12:02:34.942Z</time></trkpt><trkpt lat="42.9229082" lon="-3.8279361"><ele>994.0</ele><time>2026-05-02T12:02:35.94Z</time></trkpt><trkpt lat="42.9227989" lon="-3.8280026"><ele>994.0</ele><time>2026-05-02T12:02:36.944Z</time></trkpt><trkpt lat="42.9226868" lon="-3.8280851"><ele>994.0</ele><time>2026-05-02T12:02:37.942Z</time></trkpt><trkpt lat="42.9225737" lon="-3.8281873"><ele>994.5</ele><time>2026-05-02T12:02:38.95Z</time></trkpt><trkpt lat="42.9224612" lon="-3.8283022"><ele>995.0</ele><time>2026-05-02T12:02:39.954Z</time></trkpt><trkpt lat="42.9223485" lon="-3.8284238"><ele>995.5</ele><time>2026-05-02T12:02:40.94Z</time></trkpt><trkpt lat="42.9222322" lon="-3.8285348"><ele>996.0</ele><time>2026-05-02T12:02:41.939Z</time></trkpt><trkpt lat="42.9221077" lon="-3.8286438"><ele>996.0</ele><time>2026-05-02T12:02:42.946Z</time></trkpt><trkpt lat="42.9219825" lon="-3.8287608"><ele>996.0</ele><time>2026-05-02T12:02:43.948Z</time></trkpt><trkpt lat="42.9218667" lon="-3.8288716"><ele>996.0</ele><time>2026-05-02T12:02:44.942Z</time></trkpt><trkpt lat="42.9217452" lon="-3.8289707"><ele>996.0</ele><time>2026-05-02T12:02:45.947Z</time></trkpt><trkpt lat="42.921619" lon="-3.8290529"><ele>995.5</ele><time>2026-05-02T12:02:46.948Z</time></trkpt><trkpt lat="42.9214899" lon="-3.8291317"><ele>995.0</ele><time>2026-05-02T12:02:47.947Z</time></trkpt><trkpt lat="42.9213651" lon="-3.8292102"><ele>994.5</ele><time>2026-05-02T12:02:48.947Z</time></trkpt><trkpt lat="42.9212326" lon="-3.8292854"><ele>994.0</ele><time>2026-05-02T12:02:49.947Z</time></trkpt><trkpt lat="42.9211006" lon="-3.8293591"><ele>994.0</ele><time>2026-05-02T12:02:50.948Z</time></trkpt><trkpt lat="42.9209701" lon="-3.8294283"><ele>994.0</ele><time>2026-05-02T12:02:51.954Z</time></trkpt><trkpt lat="42.9208455" lon="-3.8294917"><ele>994.0</ele><time>2026-05-02T12:02:52.949Z</time></trkpt><trkpt lat="42.9207213" lon="-3.8295595"><ele>994.0</ele><time>2026-05-02T12:02:53.948Z</time></trkpt><trkpt lat="42.9205953" lon="-3.8296279"><ele>989.5</ele><time>2026-05-02T12:02:54.946Z</time></trkpt><trkpt lat="42.9204673" lon="-3.8297073"><ele>985.0</ele><time>2026-05-02T12:02:55.947Z</time></trkpt><trkpt lat="42.920348" lon="-3.8297999"><ele>980.5</ele><time>2026-05-02T12:02:56.946Z</time></trkpt><trkpt lat="42.9202279" lon="-3.8298999"><ele>976.0</ele><time>2026-05-02T12:02:57.948Z</time></trkpt><trkpt lat="42.9201061" lon="-3.8299983"><ele>976.75</ele><time>2026-05-02T12:02:58.95Z</time></trkpt><trkpt lat="42.9199898" lon="-3.8300934"><ele>977.5</ele><time>2026-05-02T12:02:59.952Z</time></trkpt><trkpt lat="42.9198634" lon="-3.8301772"><ele>978.25</ele><time>2026-05-02T12:03:00.952Z</time></trkpt><trkpt lat="42.9197364" lon="-3.8302587"><ele>979.0</ele><time>2026-05-02T12:03:01.954Z</time></trkpt><trkpt lat="42.9196059" lon="-3.8303335"><ele>979.0</ele><time>2026-05-02T12:03:02.954Z</time></trkpt><trkpt lat="42.9194834" lon="-3.8304049"><ele>979.0</ele><time>2026-05-02T12:03:03.953Z</time></trkpt><trkpt lat="42.9193495" lon="-3.8304761"><ele>979.0</ele><time>2026-05-02T12:03:04.952Z</time></trkpt><trkpt lat="42.9192091" lon="-3.8305447"><ele>979.0</ele><time>2026-05-02T12:03:05.953Z</time></trkpt><trkpt lat="42.9190699" lon="-3.8306105"><ele>973.3333333333333</ele><time>2026-05-02T12:03:06.953Z</time></trkpt><trkpt lat="42.9189333" lon="-3.8306866"><ele>967.6666666666667</ele><time>2026-05-02T12:03:07.947Z</time></trkpt><trkpt lat="42.9187909" lon="-3.8307571"><ele>962.0</ele><time>2026-05-02T12:03:08.949Z</time></trkpt><trkpt lat="42.9186495" lon="-3.8308319"><ele>962.0</ele><time>2026-05-02T12:03:09.948Z</time></trkpt><trkpt lat="42.9185061" lon="-3.8309063"><ele>962.0</ele><time>2026-05-02T12:03:10.971Z</time></trkpt><trkpt lat="42.9183691" lon="-3.8309847"><ele>962.0</ele><time>2026-05-02T12:03:11.958Z</time></trkpt><trkpt lat="42.9182316" lon="-3.8310579"><ele>961.75</ele><time>2026-05-02T12:03:12.96Z</time></trkpt><trkpt lat="42.9180972" lon="-3.8311316"><ele>961.5</ele><time>2026-05-02T12:03:13.957Z</time></trkpt><trkpt lat="42.917953" lon="-3.8311951"><ele>961.25</ele><time>2026-05-02T12:03:14.963Z</time></trkpt><trkpt lat="42.9178114" lon="-3.8312595"><ele>961.0</ele><time>2026-05-02T12:03:15.971Z</time></trkpt><trkpt lat="42.9176643" lon="-3.8313206"><ele>957.5</ele><time>2026-05-02T12:03:16.975Z</time></trkpt><trkpt lat="42.9175238" lon="-3.8313803"><ele>954.0</ele><time>2026-05-02T12:03:17.97Z</time></trkpt><trkpt lat="42.9173864" lon="-3.8314348"><ele>950.5</ele><time>2026-05-02T12:03:18.969Z</time></trkpt><trkpt lat="42.9172476" lon="-3.8314916"><ele>947.0</ele><time>2026-05-02T12:03:19.97Z</time></trkpt><trkpt lat="42.9171041" lon="-3.8315523"><ele>947.0</ele><time>2026-05-02T12:03:20.97Z</time></trkpt><trkpt lat="42.9169665" lon="-3.8316058"><ele>947.0</ele><time>2026-05-02T12:03:21.971Z</time></trkpt><trkpt lat="42.9168288" lon="-3.8316617"><ele>947.0</ele><time>2026-05-02T12:03:22.966Z</time></trkpt><trkpt lat="42.9166886" lon="-3.8317135"><ele>947.0</ele><time>2026-05-02T12:03:23.968Z</time></trkpt><trkpt lat="42.9165541" lon="-3.8317735"><ele>947.25</ele><time>2026-05-02T12:03:24.966Z</time></trkpt><trkpt lat="42.916424" lon="-3.8318471"><ele>947.5</ele><time>2026-05-02T12:03:25.969Z</time></trkpt><trkpt lat="42.9163049" lon="-3.8319202"><ele>947.75</ele><time>2026-05-02T12:03:26.966Z</time></trkpt><trkpt lat="42.9161854" lon="-3.8320076"><ele>948.0</ele><time>2026-05-02T12:03:27.964Z</time></trkpt><trkpt lat="42.9160737" lon="-3.8320991"><ele>948.0</ele><time>2026-05-02T12:03:28.963Z</time></trkpt><trkpt lat="42.9159677" lon="-3.8321949"><ele>948.0</ele><time>2026-05-02T12:03:29.958Z</time></trkpt><trkpt lat="42.9158532" lon="-3.8322849"><ele>948.0</ele><time>2026-05-02T12:03:30.96Z</time></trkpt><trkpt lat="42.9157409" lon="-3.8323771"><ele>948.0</ele><time>2026-05-02T12:03:31.959Z</time></trkpt><trkpt lat="42.9156358" lon="-3.8324768"><ele>949.25</ele><time>2026-05-02T12:03:32.955Z</time></trkpt><trkpt lat="42.9155247" lon="-3.8325743"><ele>950.5</ele><time>2026-05-02T12:03:33.955Z</time></trkpt><trkpt lat="42.9154229" lon="-3.8326814"><ele>951.75</ele><time>2026-05-02T12:03:34.947Z</time></trkpt><trkpt lat="42.9153227" lon="-3.8327934"><ele>953.0</ele><time>2026-05-02T12:03:35.943Z</time></trkpt><trkpt lat="42.9152303" lon="-3.8329106"><ele>953.0</ele><time>2026-05-02T12:03:36.941Z</time></trkpt><trkpt lat="42.9151465" lon="-3.8330275"><ele>953.0</ele><time>2026-05-02T12:03:37.943Z</time></trkpt><trkpt lat="42.9150744" lon="-3.8331394"><ele>953.0</ele><time>2026-05-02T12:03:38.948Z</time></trkpt><trkpt lat="42.9150117" lon="-3.8332472"><ele>953.0</ele><time>2026-05-02T12:03:39.946Z</time></trkpt><trkpt lat="42.9149526" lon="-3.833358"><ele>953.0</ele><time>2026-05-02T12:03:40.949Z</time></trkpt><trkpt lat="42.9148904" lon="-3.8334722"><ele>954.2</ele><time>2026-05-02T12:03:41.965Z</time></trkpt><trkpt lat="42.9148281" lon="-3.8335814"><ele>955.4</ele><time>2026-05-02T12:03:42.945Z</time></trkpt><trkpt lat="42.9147741" lon="-3.8336892"><ele>956.6000000000001</ele><time>2026-05-02T12:03:43.954Z</time></trkpt><trkpt lat="42.9147186" lon="-3.8338035"><ele>957.8000000000001</ele><time>2026-05-02T12:03:44.951Z</time></trkpt><trkpt lat="42.914661" lon="-3.8339192"><ele>959.0</ele><time>2026-05-02T12:03:45.951Z</time></trkpt><trkpt lat="42.9146028" lon="-3.8340337"><ele>959.0</ele><time>2026-05-02T12:03:46.956Z</time></trkpt><trkpt lat="42.9145329" lon="-3.8341488"><ele>959.0000000000001</ele><time>2026-05-02T12:03:47.959Z</time></trkpt><trkpt lat="42.914466" lon="-3.8342587"><ele>959.0000000000001</ele><time>2026-05-02T12:03:48.953Z</time></trkpt><trkpt lat="42.9143972" lon="-3.8343688"><ele>959.0</ele><time>2026-05-02T12:03:49.968Z</time></trkpt><trkpt lat="42.9143333" lon="-3.8344789"><ele>959.0</ele><time>2026-05-02T12:03:50.958Z</time></trkpt><trkpt lat="42.9142687" lon="-3.834587"><ele>960.4000000000001</ele><time>2026-05-02T12:03:51.961Z</time></trkpt><trkpt lat="42.9142052" lon="-3.8346946"><ele>961.8000000000001</ele><time>2026-05-02T12:03:52.962Z</time></trkpt><trkpt lat="42.9141349" lon="-3.8348038"><ele>963.1999999999999</ele><time>2026-05-02T12:03:53.963Z</time></trkpt><trkpt lat="42.9140662" lon="-3.8349066"><ele>964.5999999999999</ele><time>2026-05-02T12:03:54.968Z</time></trkpt><trkpt lat="42.9139901" lon="-3.8349959"><ele>966.0</ele><time>2026-05-02T12:03:55.973Z</time></trkpt><trkpt lat="42.9139087" lon="-3.8350576"><ele>966.0</ele><time>2026-05-02T12:03:56.973Z</time></trkpt><trkpt lat="42.9138208" lon="-3.8351026"><ele>965.9999999999999</ele><time>2026-05-02T12:03:57.97Z</time></trkpt><trkpt lat="42.913727" lon="-3.8351322"><ele>965.9999999999999</ele><time>2026-05-02T12:03:58.97Z</time></trkpt><trkpt lat="42.9136344" lon="-3.8351436"><ele>966.0</ele><time>2026-05-02T12:03:59.971Z</time></trkpt><trkpt lat="42.9135403" lon="-3.8351443"><ele>966.0</ele><time>2026-05-02T12:04:00.972Z</time></trkpt><trkpt lat="42.9134435" lon="-3.8351365"><ele>968.0</ele><time>2026-05-02T12:04:01.966Z</time></trkpt><trkpt lat="42.9133525" lon="-3.8351141"><ele>969.9999999999999</ele><time>2026-05-02T12:04:02.964Z</time></trkpt><trkpt lat="42.9132634" lon="-3.8350841"><ele>971.9999999999999</ele><time>2026-05-02T12:04:03.969Z</time></trkpt><trkpt lat="42.9131698" lon="-3.8350559"><ele>974.0</ele><time>2026-05-02T12:04:04.964Z</time></trkpt><trkpt lat="42.913078" lon="-3.8350259"><ele>976.0</ele><time>2026-05-02T12:04:05.964Z</time></trkpt><trkpt lat="42.9129836" lon="-3.8349966"><ele>976.0</ele><time>2026-05-02T12:04:06.967Z</time></trkpt><trkpt lat="42.9128852" lon="-3.8349606"><ele>975.9999999999999</ele><time>2026-05-02T12:04:07.969Z</time></trkpt><trkpt lat="42.9127899" lon="-3.8349268"><ele>975.9999999999999</ele><time>2026-05-02T12:04:08.97Z</time></trkpt><trkpt lat="42.9126893" lon="-3.8348957"><ele>976.0</ele><time>2026-05-02T12:04:09.967Z</time></trkpt><trkpt lat="42.9125873" lon="-3.8348632"><ele>976.0</ele><time>2026-05-02T12:04:10.965Z</time></trkpt><trkpt lat="42.9124848" lon="-3.8348321"><ele>976.8</ele><time>2026-05-02T12:04:11.966Z</time></trkpt><trkpt lat="42.9123789" lon="-3.8348029"><ele>977.5999999999999</ele><time>2026-05-02T12:04:12.982Z</time></trkpt><trkpt lat="42.9122707" lon="-3.8347752"><ele>978.4</ele><time>2026-05-02T12:04:13.971Z</time></trkpt><trkpt lat="42.9121593" lon="-3.8347439"><ele>979.2</ele><time>2026-05-02T12:04:14.969Z</time></trkpt><trkpt lat="42.9120483" lon="-3.8347111"><ele>980.0</ele><time>2026-05-02T12:04:15.969Z</time></trkpt><trkpt lat="42.9119396" lon="-3.8346815"><ele>980.0</ele><time>2026-05-02T12:04:16.968Z</time></trkpt><trkpt lat="42.911832" lon="-3.8346503"><ele>980.0</ele><time>2026-05-02T12:04:17.965Z</time></trkpt><trkpt lat="42.911724" lon="-3.8346188"><ele>980.0</ele><time>2026-05-02T12:04:18.966Z</time></trkpt><trkpt lat="42.9116184" lon="-3.8345891"><ele>980.0</ele><time>2026-05-02T12:04:19.979Z</time></trkpt><trkpt lat="42.9115129" lon="-3.8345605"><ele>980.0</ele><time>2026-05-02T12:04:20.968Z</time></trkpt><trkpt lat="42.9114055" lon="-3.8345292"><ele>980.4</ele><time>2026-05-02T12:04:21.968Z</time></trkpt><trkpt lat="42.9113003" lon="-3.8344957"><ele>980.8</ele><time>2026-05-02T12:04:22.97Z</time></trkpt><trkpt lat="42.9111983" lon="-3.8344614"><ele>981.2</ele><time>2026-05-02T12:04:23.97Z</time></trkpt><trkpt lat="42.911102" lon="-3.8344303"><ele>981.6</ele><time>2026-05-02T12:04:24.966Z</time></trkpt><trkpt lat="42.9110116" lon="-3.8343994"><ele>982.0</ele><time>2026-05-02T12:04:25.969Z</time></trkpt><trkpt lat="42.9109237" lon="-3.8343735"><ele>981.8333333333333</ele><time>2026-05-02T12:04:26.966Z</time></trkpt><trkpt lat="42.9108359" lon="-3.8343459"><ele>981.6666666666666</ele><time>2026-05-02T12:04:27.972Z</time></trkpt><trkpt lat="42.9107502" lon="-3.8343195"><ele>981.5</ele><time>2026-05-02T12:04:28.969Z</time></trkpt><trkpt lat="42.910669" lon="-3.8342996"><ele>981.3333333333333</ele><time>2026-05-02T12:04:29.976Z</time></trkpt><trkpt lat="42.9105817" lon="-3.8342916"><ele>981.1666666666666</ele><time>2026-05-02T12:04:30.98Z</time></trkpt><trkpt lat="42.910493" lon="-3.8342798"><ele>981.0</ele><time>2026-05-02T12:04:31.968Z</time></trkpt><trkpt lat="42.9104015" lon="-3.8342575"><ele>981.0</ele><time>2026-05-02T12:04:32.965Z</time></trkpt><trkpt lat="42.9103075" lon="-3.8342266"><ele>980.9999999999999</ele><time>2026-05-02T12:04:33.97Z</time></trkpt><trkpt lat="42.9102103" lon="-3.8341941"><ele>980.9999999999999</ele><time>2026-05-02T12:04:34.965Z</time></trkpt><trkpt lat="42.9101175" lon="-3.8341614"><ele>981.0</ele><time>2026-05-02T12:04:35.965Z</time></trkpt><trkpt lat="42.9100248" lon="-3.8341262"><ele>981.0</ele><time>2026-05-02T12:04:36.967Z</time></trkpt><trkpt lat="42.909929" lon="-3.8340985"><ele>981.8</ele><time>2026-05-02T12:04:37.97Z</time></trkpt><trkpt lat="42.9098292" lon="-3.8340746"><ele>982.5999999999999</ele><time>2026-05-02T12:04:38.979Z</time></trkpt><trkpt lat="42.9097303" lon="-3.8340543"><ele>983.4</ele><time>2026-05-02T12:04:39.971Z</time></trkpt><trkpt lat="42.9096298" lon="-3.8340251"><ele>984.2</ele><time>2026-05-02T12:04:40.967Z</time></trkpt><trkpt lat="42.909531" lon="-3.8339947"><ele>985.0</ele><time>2026-05-02T12:04:41.968Z</time></trkpt><trkpt lat="42.9094311" lon="-3.8339674"><ele>985.0</ele><time>2026-05-02T12:04:42.958Z</time></trkpt><trkpt lat="42.9093301" lon="-3.8339401"><ele>985.0</ele><time>2026-05-02T12:04:43.977Z</time></trkpt><trkpt lat="42.9092295" lon="-3.833917"><ele>985.0</ele><time>2026-05-02T12:04:44.961Z</time></trkpt><trkpt lat="42.9091275" lon="-3.8338909"><ele>985.0</ele><time>2026-05-02T12:04:45.964Z</time></trkpt><trkpt lat="42.909022" lon="-3.8338598"><ele>985.0</ele><time>2026-05-02T12:04:46.968Z</time></trkpt><trkpt lat="42.9089181" lon="-3.8338313"><ele>985.2</ele><time>2026-05-02T12:04:47.967Z</time></trkpt><trkpt lat="42.9088137" lon="-3.8337994"><ele>985.4</ele><time>2026-05-02T12:04:48.961Z</time></trkpt><trkpt lat="42.908707" lon="-3.8337653"><ele>985.5999999999999</ele><time>2026-05-02T12:04:49.97Z</time></trkpt><trkpt lat="42.9085949" lon="-3.833733"><ele>985.8</ele><time>2026-05-02T12:04:50.967Z</time></trkpt><trkpt lat="42.9084823" lon="-3.8337032"><ele>986.0</ele><time>2026-05-02T12:04:51.959Z</time></trkpt><trkpt lat="42.9083653" lon="-3.8336684"><ele>985.5</ele><time>2026-05-02T12:04:52.955Z</time></trkpt><trkpt lat="42.908242" lon="-3.8336307"><ele>985.0</ele><time>2026-05-02T12:04:53.953Z</time></trkpt><trkpt lat="42.9081181" lon="-3.8335995"><ele>984.5</ele><time>2026-05-02T12:04:54.968Z</time></trkpt><trkpt lat="42.9079912" lon="-3.8335679"><ele>984.0</ele><time>2026-05-02T12:04:55.959Z</time></trkpt><trkpt lat="42.9078649" lon="-3.8335369"><ele>984.0</ele><time>2026-05-02T12:04:56.965Z</time></trkpt><trkpt lat="42.9077416" lon="-3.8335057"><ele>984.0</ele><time>2026-05-02T12:04:57.96Z</time></trkpt><trkpt lat="42.9076194" lon="-3.8334732"><ele>984.0</ele><time>2026-05-02T12:04:58.968Z</time></trkpt><trkpt lat="42.9074943" lon="-3.8334406"><ele>984.0</ele><time>2026-05-02T12:04:59.963Z</time></trkpt><trkpt lat="42.907369" lon="-3.833406"><ele>983.75</ele><time>2026-05-02T12:05:00.965Z</time></trkpt><trkpt lat="42.9072443" lon="-3.8333724"><ele>983.5</ele><time>2026-05-02T12:05:01.96Z</time></trkpt><trkpt lat="42.9071177" lon="-3.8333351"><ele>983.25</ele><time>2026-05-02T12:05:02.96Z</time></trkpt><trkpt lat="42.9069901" lon="-3.8332994"><ele>983.0</ele><time>2026-05-02T12:05:03.96Z</time></trkpt><trkpt lat="42.9068635" lon="-3.8332606"><ele>983.25</ele><time>2026-05-02T12:05:04.962Z</time></trkpt><trkpt lat="42.9067333" lon="-3.8332252"><ele>983.5</ele><time>2026-05-02T12:05:05.962Z</time></trkpt><trkpt lat="42.9066037" lon="-3.8331899"><ele>983.75</ele><time>2026-05-02T12:05:06.965Z</time></trkpt><trkpt lat="42.9064726" lon="-3.8331518"><ele>984.0</ele><time>2026-05-02T12:05:07.961Z</time></trkpt><trkpt lat="42.9063461" lon="-3.8331115"><ele>984.0</ele><time>2026-05-02T12:05:08.969Z</time></trkpt><trkpt lat="42.9062152" lon="-3.8330736"><ele>984.0</ele><time>2026-05-02T12:05:09.978Z</time></trkpt><trkpt lat="42.9060852" lon="-3.8330354"><ele>984.0</ele><time>2026-05-02T12:05:10.973Z</time></trkpt><trkpt lat="42.9059542" lon="-3.8329959"><ele>984.0</ele><time>2026-05-02T12:05:11.959Z</time></trkpt><trkpt lat="42.9058193" lon="-3.832958"><ele>983.6666666666667</ele><time>2026-05-02T12:05:12.969Z</time></trkpt><trkpt lat="42.9055605" lon="-3.8328913"><ele>983.3333333333334</ele><time>2026-05-02T12:05:14.98Z</time></trkpt><trkpt lat="42.9054392" lon="-3.8328613"><ele>983.0</ele><time>2026-05-02T12:05:15.961Z</time></trkpt><trkpt lat="42.9053195" lon="-3.8328277"><ele>983.0</ele><time>2026-05-02T12:05:16.966Z</time></trkpt><trkpt lat="42.9052047" lon="-3.8327969"><ele>983.0</ele><time>2026-05-02T12:05:17.965Z</time></trkpt><trkpt lat="42.9050917" lon="-3.8327648"><ele>983.0</ele><time>2026-05-02T12:05:18.961Z</time></trkpt><trkpt lat="42.9049803" lon="-3.8327257"><ele>983.0</ele><time>2026-05-02T12:05:19.961Z</time></trkpt><trkpt lat="42.9048769" lon="-3.8326878"><ele>982.4</ele><time>2026-05-02T12:05:20.96Z</time></trkpt><trkpt lat="42.9047696" lon="-3.8326529"><ele>981.8</ele><time>2026-05-02T12:05:21.964Z</time></trkpt><trkpt lat="42.9046712" lon="-3.8326256"><ele>981.2</ele><time>2026-05-02T12:05:22.967Z</time></trkpt><trkpt lat="42.9045682" lon="-3.8325974"><ele>980.6</ele><time>2026-05-02T12:05:23.965Z</time></trkpt><trkpt lat="42.9044649" lon="-3.8325697"><ele>980.0</ele><time>2026-05-02T12:05:24.967Z</time></trkpt><trkpt lat="42.9043604" lon="-3.832541"><ele>979.2</ele><time>2026-05-02T12:05:25.971Z</time></trkpt><trkpt lat="42.904256" lon="-3.8325116"><ele>978.4</ele><time>2026-05-02T12:05:26.966Z</time></trkpt><trkpt lat="42.9041491" lon="-3.8324799"><ele>977.5999999999999</ele><time>2026-05-02T12:05:27.97Z</time></trkpt><trkpt lat="42.9040408" lon="-3.8324488"><ele>976.8</ele><time>2026-05-02T12:05:28.963Z</time></trkpt><trkpt lat="42.9039313" lon="-3.832423"><ele>976.0</ele><time>2026-05-02T12:05:29.967Z</time></trkpt><trkpt lat="42.9038203" lon="-3.8324013"><ele>976.0</ele><time>2026-05-02T12:05:30.969Z</time></trkpt><trkpt lat="42.9037068" lon="-3.8323816"><ele>976.0</ele><time>2026-05-02T12:05:31.967Z</time></trkpt><trkpt lat="42.903585" lon="-3.8323547"><ele>976.0</ele><time>2026-05-02T12:05:32.957Z</time></trkpt><trkpt lat="42.9034615" lon="-3.8323231"><ele>976.0</ele><time>2026-05-02T12:05:33.957Z</time></trkpt><trkpt lat="42.9033374" lon="-3.8322906"><ele>976.25</ele><time>2026-05-02T12:05:34.958Z</time></trkpt><trkpt lat="42.90321" lon="-3.8322525"><ele>976.5</ele><time>2026-05-02T12:05:35.961Z</time></trkpt><trkpt lat="42.9030852" lon="-3.8322154"><ele>976.75</ele><time>2026-05-02T12:05:36.959Z</time></trkpt><trkpt lat="42.9029587" lon="-3.8321759"><ele>977.0</ele><time>2026-05-02T12:05:37.958Z</time></trkpt><trkpt lat="42.9028294" lon="-3.8321388"><ele>977.0</ele><time>2026-05-02T12:05:38.963Z</time></trkpt><trkpt lat="42.9027014" lon="-3.8321048"><ele>977.0</ele><time>2026-05-02T12:05:39.96Z</time></trkpt><trkpt lat="42.9025655" lon="-3.8320692"><ele>977.0</ele><time>2026-05-02T12:05:40.958Z</time></trkpt><trkpt lat="42.9024336" lon="-3.832035"><ele>977.0</ele><time>2026-05-02T12:05:41.961Z</time></trkpt><trkpt lat="42.9022991" lon="-3.8320014"><ele>977.5</ele><time>2026-05-02T12:05:42.959Z</time></trkpt><trkpt lat="42.9021652" lon="-3.8319642"><ele>978.0</ele><time>2026-05-02T12:05:43.965Z</time></trkpt><trkpt lat="42.9020335" lon="-3.8319284"><ele>978.5</ele><time>2026-05-02T12:05:44.959Z</time></trkpt><trkpt lat="42.9019" lon="-3.8318844"><ele>979.0</ele><time>2026-05-02T12:05:45.976Z</time></trkpt><trkpt lat="42.9017678" lon="-3.8318461"><ele>978.25</ele><time>2026-05-02T12:05:46.965Z</time></trkpt><trkpt lat="42.901633" lon="-3.8318002"><ele>977.5</ele><time>2026-05-02T12:05:47.961Z</time></trkpt><trkpt lat="42.9014982" lon="-3.8317618"><ele>976.75</ele><time>2026-05-02T12:05:48.963Z</time></trkpt><trkpt lat="42.9013655" lon="-3.8317304"><ele>976.0</ele><time>2026-05-02T12:05:49.962Z</time></trkpt><trkpt lat="42.9012339" lon="-3.8316897"><ele>976.0</ele><time>2026-05-02T12:05:50.961Z</time></trkpt><trkpt lat="42.9009559" lon="-3.8316177"><ele>976.0</ele><time>2026-05-02T12:05:52.964Z</time></trkpt><trkpt lat="42.9008174" lon="-3.8315722"><ele>976.0</ele><time>2026-05-02T12:05:53.96Z</time></trkpt><trkpt lat="42.9006875" lon="-3.8315361"><ele>975.5</ele><time>2026-05-02T12:05:54.968Z</time></trkpt><trkpt lat="42.9005482" lon="-3.831494"><ele>975.0</ele><time>2026-05-02T12:05:55.961Z</time></trkpt><trkpt lat="42.9004029" lon="-3.8314516"><ele>974.5</ele><time>2026-05-02T12:05:56.962Z</time></trkpt><trkpt lat="42.9002568" lon="-3.8314167"><ele>974.0</ele><time>2026-05-02T12:05:57.965Z</time></trkpt><trkpt lat="42.9001146" lon="-3.8313756"><ele>973.75</ele><time>2026-05-02T12:05:58.971Z</time></trkpt><trkpt lat="42.8999788" lon="-3.8313382"><ele>973.5</ele><time>2026-05-02T12:05:59.961Z</time></trkpt><trkpt lat="42.8998337" lon="-3.8312956"><ele>973.25</ele><time>2026-05-02T12:06:00.963Z</time></trkpt><trkpt lat="42.8996988" lon="-3.8312653"><ele>973.0</ele><time>2026-05-02T12:06:01.959Z</time></trkpt><trkpt lat="42.8995794" lon="-3.8312324"><ele>973.0</ele><time>2026-05-02T12:06:02.96Z</time></trkpt><trkpt lat="42.8994589" lon="-3.8312023"><ele>973.0</ele><time>2026-05-02T12:06:03.959Z</time></trkpt><trkpt lat="42.8993267" lon="-3.8311641"><ele>973.0</ele><time>2026-05-02T12:06:04.96Z</time></trkpt><trkpt lat="42.8991893" lon="-3.831128"><ele>973.0</ele><time>2026-05-02T12:06:05.96Z</time></trkpt><trkpt lat="42.8990561" lon="-3.8310952"><ele>972.75</ele><time>2026-05-02T12:06:06.964Z</time></trkpt><trkpt lat="42.8989165" lon="-3.831056"><ele>972.5</ele><time>2026-05-02T12:06:07.962Z</time></trkpt><trkpt lat="42.8987856" lon="-3.8310124"><ele>972.25</ele><time>2026-05-02T12:06:08.961Z</time></trkpt><trkpt lat="42.8986514" lon="-3.830975"><ele>972.0</ele><time>2026-05-02T12:06:09.96Z</time></trkpt><trkpt lat="42.8985097" lon="-3.8309392"><ele>972.25</ele><time>2026-05-02T12:06:10.964Z</time></trkpt><trkpt lat="42.8983767" lon="-3.8309038"><ele>972.5</ele><time>2026-05-02T12:06:11.959Z</time></trkpt><trkpt lat="42.8982431" lon="-3.830869"><ele>972.75</ele><time>2026-05-02T12:06:12.961Z</time></trkpt><trkpt lat="42.8981085" lon="-3.8308317"><ele>973.0</ele><time>2026-05-02T12:06:13.964Z</time></trkpt><trkpt lat="42.8979655" lon="-3.8307896"><ele>973.0</ele><time>2026-05-02T12:06:14.961Z</time></trkpt><trkpt lat="42.8978264" lon="-3.8307439"><ele>973.0</ele><time>2026-05-02T12:06:15.964Z</time></trkpt><trkpt lat="42.8976907" lon="-3.8307064"><ele>973.0</ele><time>2026-05-02T12:06:16.981Z</time></trkpt><trkpt lat="42.8975536" lon="-3.830661"><ele>973.0</ele><time>2026-05-02T12:06:17.962Z</time></trkpt><trkpt lat="42.8974148" lon="-3.8306199"><ele>973.0</ele><time>2026-05-02T12:06:18.961Z</time></trkpt><trkpt lat="42.8972774" lon="-3.8305818"><ele>973.0</ele><time>2026-05-02T12:06:19.963Z</time></trkpt><trkpt lat="42.8971406" lon="-3.8305454"><ele>973.0</ele><time>2026-05-02T12:06:20.961Z</time></trkpt><trkpt lat="42.8970062" lon="-3.8305083"><ele>973.0</ele><time>2026-05-02T12:06:21.961Z</time></trkpt><trkpt lat="42.896873" lon="-3.8304741"><ele>972.5</ele><time>2026-05-02T12:06:22.962Z</time></trkpt><trkpt lat="42.8967366" lon="-3.8304395"><ele>972.0</ele><time>2026-05-02T12:06:23.962Z</time></trkpt><trkpt lat="42.8966004" lon="-3.8304049"><ele>971.5</ele><time>2026-05-02T12:06:24.964Z</time></trkpt><trkpt lat="42.8964653" lon="-3.8303701"><ele>971.0</ele><time>2026-05-02T12:06:25.967Z</time></trkpt><trkpt lat="42.896334" lon="-3.8303356"><ele>971.0</ele><time>2026-05-02T12:06:26.961Z</time></trkpt><trkpt lat="42.8962127" lon="-3.8302967"><ele>971.0</ele><time>2026-05-02T12:06:27.965Z</time></trkpt><trkpt lat="42.8960832" lon="-3.8302639"><ele>971.0</ele><time>2026-05-02T12:06:28.963Z</time></trkpt><trkpt lat="42.8959513" lon="-3.8302281"><ele>971.0</ele><time>2026-05-02T12:06:29.962Z</time></trkpt><trkpt lat="42.8958237" lon="-3.8301902"><ele>971.5</ele><time>2026-05-02T12:06:30.964Z</time></trkpt><trkpt lat="42.8956893" lon="-3.8301537"><ele>972.0</ele><time>2026-05-02T12:06:31.96Z</time></trkpt><trkpt lat="42.8955563" lon="-3.8301189"><ele>972.5</ele><time>2026-05-02T12:06:32.963Z</time></trkpt><trkpt lat="42.8954257" lon="-3.8300811"><ele>973.0</ele><time>2026-05-02T12:06:33.963Z</time></trkpt><trkpt lat="42.8952966" lon="-3.8300396"><ele>973.75</ele><time>2026-05-02T12:06:34.96Z</time></trkpt><trkpt lat="42.8951662" lon="-3.8300041"><ele>974.5</ele><time>2026-05-02T12:06:35.959Z</time></trkpt><trkpt lat="42.8950324" lon="-3.8299663"><ele>975.25</ele><time>2026-05-02T12:06:36.959Z</time></trkpt><trkpt lat="42.8948996" lon="-3.8299324"><ele>976.0</ele><time>2026-05-02T12:06:37.96Z</time></trkpt><trkpt lat="42.8947667" lon="-3.8298976"><ele>976.25</ele><time>2026-05-02T12:06:38.962Z</time></trkpt><trkpt lat="42.8946338" lon="-3.8298585"><ele>976.5</ele><time>2026-05-02T12:06:39.96Z</time></trkpt><trkpt lat="42.8944995" lon="-3.8298189"><ele>976.75</ele><time>2026-05-02T12:06:40.961Z</time></trkpt><trkpt lat="42.8943605" lon="-3.8297753"><ele>977.0</ele><time>2026-05-02T12:06:41.962Z</time></trkpt><trkpt lat="42.8942227" lon="-3.8297342"><ele>976.5</ele><time>2026-05-02T12:06:42.965Z</time></trkpt><trkpt lat="42.8940893" lon="-3.8296936"><ele>976.0</ele><time>2026-05-02T12:06:43.961Z</time></trkpt><trkpt lat="42.893962" lon="-3.8296587"><ele>975.5</ele><time>2026-05-02T12:06:44.964Z</time></trkpt><trkpt lat="42.8938284" lon="-3.8296286"><ele>975.0</ele><time>2026-05-02T12:06:45.961Z</time></trkpt><trkpt lat="42.8937016" lon="-3.8295985"><ele>975.0</ele><time>2026-05-02T12:06:46.962Z</time></trkpt><trkpt lat="42.8935781" lon="-3.8295578"><ele>975.0</ele><time>2026-05-02T12:06:47.991Z</time></trkpt><trkpt lat="42.8934518" lon="-3.8295223"><ele>975.0</ele><time>2026-05-02T12:06:48.962Z</time></trkpt><trkpt lat="42.8933315" lon="-3.829489"><ele>975.0</ele><time>2026-05-02T12:06:49.963Z</time></trkpt><trkpt lat="42.8932104" lon="-3.8294574"><ele>975.5</ele><time>2026-05-02T12:06:50.961Z</time></trkpt><trkpt lat="42.8930893" lon="-3.8294272"><ele>976.0</ele><time>2026-05-02T12:06:51.964Z</time></trkpt><trkpt lat="42.8929717" lon="-3.829391"><ele>976.5</ele><time>2026-05-02T12:06:52.962Z</time></trkpt><trkpt lat="42.8928518" lon="-3.8293523"><ele>977.0</ele><time>2026-05-02T12:06:53.96Z</time></trkpt><trkpt lat="42.892731" lon="-3.8293087"><ele>978.0</ele><time>2026-05-02T12:06:54.962Z</time></trkpt><trkpt lat="42.8926072" lon="-3.8292567"><ele>979.0</ele><time>2026-05-02T12:06:55.971Z</time></trkpt><trkpt lat="42.8924882" lon="-3.8292014"><ele>980.0</ele><time>2026-05-02T12:06:56.964Z</time></trkpt><trkpt lat="42.8923646" lon="-3.8291366"><ele>981.0</ele><time>2026-05-02T12:06:57.964Z</time></trkpt><trkpt lat="42.8922429" lon="-3.8290623"><ele>981.0</ele><time>2026-05-02T12:06:58.956Z</time></trkpt><trkpt lat="42.89212" lon="-3.8289831"><ele>981.0</ele><time>2026-05-02T12:06:59.958Z</time></trkpt><trkpt lat="42.8920096" lon="-3.8288839"><ele>981.0</ele><time>2026-05-02T12:07:00.956Z</time></trkpt><trkpt lat="42.8919027" lon="-3.828772"><ele>981.0</ele><time>2026-05-02T12:07:01.955Z</time></trkpt><trkpt lat="42.8918033" lon="-3.8286458"><ele>980.5</ele><time>2026-05-02T12:07:02.957Z</time></trkpt><trkpt lat="42.8917091" lon="-3.8285081"><ele>980.0</ele><time>2026-05-02T12:07:03.957Z</time></trkpt><trkpt lat="42.8916231" lon="-3.8283687"><ele>979.5</ele><time>2026-05-02T12:07:04.96Z</time></trkpt><trkpt lat="42.891544" lon="-3.828227"><ele>979.0</ele><time>2026-05-02T12:07:05.963Z</time></trkpt><trkpt lat="42.8914684" lon="-3.8280932"><ele>979.0</ele><time>2026-05-02T12:07:06.965Z</time></trkpt><trkpt lat="42.8914022" lon="-3.8279532"><ele>979.0</ele><time>2026-05-02T12:07:07.964Z</time></trkpt><trkpt lat="42.8913317" lon="-3.8278135"><ele>979.0</ele><time>2026-05-02T12:07:08.966Z</time></trkpt><trkpt lat="42.8912694" lon="-3.8276682"><ele>979.0</ele><time>2026-05-02T12:07:09.963Z</time></trkpt><trkpt lat="42.8912057" lon="-3.8275299"><ele>979.0</ele><time>2026-05-02T12:07:10.963Z</time></trkpt><trkpt lat="42.891136" lon="-3.8273883"><ele>979.0</ele><time>2026-05-02T12:07:11.967Z</time></trkpt><trkpt lat="42.8910691" lon="-3.8272473"><ele>979.0</ele><time>2026-05-02T12:07:12.968Z</time></trkpt><trkpt lat="42.8909989" lon="-3.8271071"><ele>979.0</ele><time>2026-05-02T12:07:13.964Z</time></trkpt><trkpt lat="42.89093" lon="-3.8269684"><ele>977.75</ele><time>2026-05-02T12:07:14.963Z</time></trkpt><trkpt lat="42.8908614" lon="-3.8268318"><ele>976.5</ele><time>2026-05-02T12:07:15.963Z</time></trkpt><trkpt lat="42.8907973" lon="-3.8267016"><ele>975.25</ele><time>2026-05-02T12:07:16.971Z</time></trkpt><trkpt lat="42.8907338" lon="-3.8265749"><ele>974.0</ele><time>2026-05-02T12:07:17.975Z</time></trkpt><trkpt lat="42.8906777" lon="-3.8264441"><ele>973.5</ele><time>2026-05-02T12:07:18.964Z</time></trkpt><trkpt lat="42.8906252" lon="-3.8263044"><ele>973.0</ele><time>2026-05-02T12:07:19.961Z</time></trkpt><trkpt lat="42.8905738" lon="-3.8261559"><ele>972.5</ele><time>2026-05-02T12:07:20.964Z</time></trkpt><trkpt lat="42.8905287" lon="-3.8260051"><ele>972.0</ele><time>2026-05-02T12:07:21.963Z</time></trkpt><trkpt lat="42.8904884" lon="-3.8258554"><ele>971.5</ele><time>2026-05-02T12:07:22.963Z</time></trkpt><trkpt lat="42.8904483" lon="-3.8256959"><ele>971.0</ele><time>2026-05-02T12:07:23.965Z</time></trkpt><trkpt lat="42.8904065" lon="-3.8255339"><ele>970.5</ele><time>2026-05-02T12:07:24.964Z</time></trkpt><trkpt lat="42.8903673" lon="-3.8253656"><ele>970.0</ele><time>2026-05-02T12:07:25.962Z</time></trkpt><trkpt lat="42.8903248" lon="-3.8251868"><ele>969.5</ele><time>2026-05-02T12:07:26.959Z</time></trkpt><trkpt lat="42.8902858" lon="-3.8250021"><ele>969.0</ele><time>2026-05-02T12:07:27.963Z</time></trkpt><trkpt lat="42.8902482" lon="-3.8248055"><ele>968.5</ele><time>2026-05-02T12:07:28.969Z</time></trkpt><trkpt lat="42.8902045" lon="-3.8246066"><ele>968.0</ele><time>2026-05-02T12:07:29.963Z</time></trkpt><trkpt lat="42.8901668" lon="-3.8244134"><ele>967.0</ele><time>2026-05-02T12:07:30.964Z</time></trkpt><trkpt lat="42.8901224" lon="-3.8242302"><ele>966.0</ele><time>2026-05-02T12:07:31.956Z</time></trkpt><trkpt lat="42.8900776" lon="-3.8240386"><ele>965.0</ele><time>2026-05-02T12:07:32.959Z</time></trkpt><trkpt lat="42.8900386" lon="-3.8238415"><ele>964.0</ele><time>2026-05-02T12:07:33.958Z</time></trkpt><trkpt lat="42.8899951" lon="-3.8236495"><ele>962.5</ele><time>2026-05-02T12:07:34.956Z</time></trkpt><trkpt lat="42.8899561" lon="-3.8234568"><ele>961.0</ele><time>2026-05-02T12:07:35.956Z</time></trkpt><trkpt lat="42.8899115" lon="-3.8232771"><ele>959.5</ele><time>2026-05-02T12:07:36.958Z</time></trkpt><trkpt lat="42.8898722" lon="-3.8230914"><ele>958.0</ele><time>2026-05-02T12:07:37.958Z</time></trkpt><trkpt lat="42.8898283" lon="-3.8229113"><ele>958.0</ele><time>2026-05-02T12:07:38.969Z</time></trkpt><trkpt lat="42.8897825" lon="-3.8227391"><ele>958.0</ele><time>2026-05-02T12:07:39.964Z</time></trkpt><trkpt lat="42.889743" lon="-3.8225759"><ele>958.0</ele><time>2026-05-02T12:07:40.955Z</time></trkpt><trkpt lat="42.889692" lon="-3.8224075"><ele>958.0</ele><time>2026-05-02T12:07:41.962Z</time></trkpt><trkpt lat="42.8896361" lon="-3.8222434"><ele>957.75</ele><time>2026-05-02T12:07:42.964Z</time></trkpt><trkpt lat="42.889583" lon="-3.8220825"><ele>957.5</ele><time>2026-05-02T12:07:43.964Z</time></trkpt><trkpt lat="42.8895189" lon="-3.8219295"><ele>957.25</ele><time>2026-05-02T12:07:44.964Z</time></trkpt><trkpt lat="42.8894538" lon="-3.8217791"><ele>957.0</ele><time>2026-05-02T12:07:45.961Z</time></trkpt><trkpt lat="42.8893849" lon="-3.8216439"><ele>956.5</ele><time>2026-05-02T12:07:46.963Z</time></trkpt><trkpt lat="42.8893163" lon="-3.8215047"><ele>956.0</ele><time>2026-05-02T12:07:47.962Z</time></trkpt><trkpt lat="42.8892421" lon="-3.8213637"><ele>955.5</ele><time>2026-05-02T12:07:48.978Z</time></trkpt><trkpt lat="42.8891662" lon="-3.8212237"><ele>955.0</ele><time>2026-05-02T12:07:49.964Z</time></trkpt><trkpt lat="42.8890895" lon="-3.8210831"><ele>953.75</ele><time>2026-05-02T12:07:50.964Z</time></trkpt><trkpt lat="42.8890154" lon="-3.8209466"><ele>952.5</ele><time>2026-05-02T12:07:51.963Z</time></trkpt><trkpt lat="42.8889416" lon="-3.8208101"><ele>951.25</ele><time>2026-05-02T12:07:52.963Z</time></trkpt><trkpt lat="42.8888641" lon="-3.8206686"><ele>950.0</ele><time>2026-05-02T12:07:53.963Z</time></trkpt><trkpt lat="42.888783" lon="-3.8205251"><ele>950.0</ele><time>2026-05-02T12:07:54.964Z</time></trkpt><trkpt lat="42.8886976" lon="-3.8203814"><ele>950.0</ele><time>2026-05-02T12:07:55.964Z</time></trkpt><trkpt lat="42.8886143" lon="-3.8202395"><ele>950.0</ele><time>2026-05-02T12:07:56.963Z</time></trkpt><trkpt lat="42.8885312" lon="-3.820097"><ele>950.0</ele><time>2026-05-02T12:07:57.968Z</time></trkpt><trkpt lat="42.8884473" lon="-3.8199605"><ele>948.75</ele><time>2026-05-02T12:07:58.965Z</time></trkpt><trkpt lat="42.8883678" lon="-3.8198257"><ele>947.5</ele><time>2026-05-02T12:07:59.958Z</time></trkpt><trkpt lat="42.8882894" lon="-3.8196916"><ele>946.25</ele><time>2026-05-02T12:08:00.962Z</time></trkpt><trkpt lat="42.8882105" lon="-3.8195539"><ele>945.0</ele><time>2026-05-02T12:08:01.96Z</time></trkpt><trkpt lat="42.8881339" lon="-3.8194227"><ele>944.25</ele><time>2026-05-02T12:08:02.961Z</time></trkpt><trkpt lat="42.8880582" lon="-3.8192919"><ele>943.5</ele><time>2026-05-02T12:08:03.96Z</time></trkpt><trkpt lat="42.8879822" lon="-3.819161"><ele>942.75</ele><time>2026-05-02T12:08:04.959Z</time></trkpt><trkpt lat="42.8879047" lon="-3.8190305"><ele>942.0</ele><time>2026-05-02T12:08:05.962Z</time></trkpt><trkpt lat="42.8878279" lon="-3.8188981"><ele>942.0</ele><time>2026-05-02T12:08:06.964Z</time></trkpt><trkpt lat="42.8877497" lon="-3.8187634"><ele>942.0</ele><time>2026-05-02T12:08:07.961Z</time></trkpt><trkpt lat="42.8876751" lon="-3.8186292"><ele>942.0</ele><time>2026-05-02T12:08:08.971Z</time></trkpt><trkpt lat="42.8875975" lon="-3.8184913"><ele>942.0</ele><time>2026-05-02T12:08:09.962Z</time></trkpt><trkpt lat="42.8875218" lon="-3.8183496"><ele>940.75</ele><time>2026-05-02T12:08:10.964Z</time></trkpt><trkpt lat="42.8874449" lon="-3.8182143"><ele>939.5</ele><time>2026-05-02T12:08:11.963Z</time></trkpt><trkpt lat="42.8873654" lon="-3.8180845"><ele>938.25</ele><time>2026-05-02T12:08:12.964Z</time></trkpt><trkpt lat="42.887288" lon="-3.817952"><ele>937.0</ele><time>2026-05-02T12:08:13.963Z</time></trkpt><trkpt lat="42.8872055" lon="-3.8178275"><ele>937.0</ele><time>2026-05-02T12:08:14.963Z</time></trkpt><trkpt lat="42.8871254" lon="-3.8177075"><ele>937.0</ele><time>2026-05-02T12:08:15.963Z</time></trkpt><trkpt lat="42.887039" lon="-3.8175825"><ele>937.0</ele><time>2026-05-02T12:08:16.967Z</time></trkpt><trkpt lat="42.8869622" lon="-3.8174563"><ele>937.0</ele><time>2026-05-02T12:08:17.962Z</time></trkpt><trkpt lat="42.8868808" lon="-3.8173267"><ele>937.25</ele><time>2026-05-02T12:08:18.961Z</time></trkpt><trkpt lat="42.8868056" lon="-3.817195"><ele>937.5</ele><time>2026-05-02T12:08:19.981Z</time></trkpt><trkpt lat="42.8867312" lon="-3.8170554"><ele>937.75</ele><time>2026-05-02T12:08:20.965Z</time></trkpt><trkpt lat="42.8866582" lon="-3.8169159"><ele>938.0</ele><time>2026-05-02T12:08:21.965Z</time></trkpt><trkpt lat="42.8865799" lon="-3.8167781"><ele>937.25</ele><time>2026-05-02T12:08:22.964Z</time></trkpt><trkpt lat="42.8864997" lon="-3.8166424"><ele>936.5</ele><time>2026-05-02T12:08:23.967Z</time></trkpt><trkpt lat="42.8864182" lon="-3.816505"><ele>935.75</ele><time>2026-05-02T12:08:24.97Z</time></trkpt><trkpt lat="42.8863414" lon="-3.8163716"><ele>935.0</ele><time>2026-05-02T12:08:25.971Z</time></trkpt><trkpt lat="42.8862619" lon="-3.8162363"><ele>935.0</ele><time>2026-05-02T12:08:26.967Z</time></trkpt><trkpt lat="42.8861829" lon="-3.8161015"><ele>935.0</ele><time>2026-05-02T12:08:27.971Z</time></trkpt><trkpt lat="42.8861024" lon="-3.8159613"><ele>935.0</ele><time>2026-05-02T12:08:28.964Z</time></trkpt><trkpt lat="42.8860198" lon="-3.8158234"><ele>935.0</ele><time>2026-05-02T12:08:29.963Z</time></trkpt><trkpt lat="42.8859418" lon="-3.8156821"><ele>935.75</ele><time>2026-05-02T12:08:30.961Z</time></trkpt><trkpt lat="42.8858665" lon="-3.8155415"><ele>936.5</ele><time>2026-05-02T12:08:31.965Z</time></trkpt><trkpt lat="42.8857877" lon="-3.8153974"><ele>937.25</ele><time>2026-05-02T12:08:32.956Z</time></trkpt><trkpt lat="42.88571" lon="-3.8152623"><ele>938.0</ele><time>2026-05-02T12:08:33.958Z</time></trkpt><trkpt lat="42.8856249" lon="-3.8151206"><ele>936.25</ele><time>2026-05-02T12:08:34.957Z</time></trkpt><trkpt lat="42.8855424" lon="-3.8149756"><ele>934.5</ele><time>2026-05-02T12:08:35.96Z</time></trkpt><trkpt lat="42.8854655" lon="-3.814826"><ele>932.75</ele><time>2026-05-02T12:08:36.959Z</time></trkpt><trkpt lat="42.8854027" lon="-3.8146818"><ele>931.0</ele><time>2026-05-02T12:08:37.959Z</time></trkpt><trkpt lat="42.8853334" lon="-3.8145191"><ele>931.0</ele><time>2026-05-02T12:08:38.971Z</time></trkpt><trkpt lat="42.8852669" lon="-3.8143589"><ele>931.0</ele><time>2026-05-02T12:08:39.966Z</time></trkpt><trkpt lat="42.8851968" lon="-3.8142008"><ele>931.0</ele><time>2026-05-02T12:08:40.97Z</time></trkpt><trkpt lat="42.8851321" lon="-3.8140434"><ele>931.0</ele><time>2026-05-02T12:08:41.968Z</time></trkpt><trkpt lat="42.8850585" lon="-3.8138999"><ele>932.0</ele><time>2026-05-02T12:08:42.968Z</time></trkpt><trkpt lat="42.8849745" lon="-3.8137508"><ele>933.0</ele><time>2026-05-02T12:08:43.971Z</time></trkpt><trkpt lat="42.8848182" lon="-3.8134539"><ele>934.0</ele><time>2026-05-02T12:08:45.974Z</time></trkpt><trkpt lat="42.8847312" lon="-3.8133104"><ele>934.0</ele><time>2026-05-02T12:08:46.971Z</time></trkpt><trkpt lat="42.8846397" lon="-3.8131691"><ele>934.0</ele><time>2026-05-02T12:08:47.967Z</time></trkpt><trkpt lat="42.8845484" lon="-3.8130406"><ele>934.0</ele><time>2026-05-02T12:08:48.975Z</time></trkpt><trkpt lat="42.884459" lon="-3.812905"><ele>934.0</ele><time>2026-05-02T12:08:49.967Z</time></trkpt><trkpt lat="42.8843773" lon="-3.8127683"><ele>933.25</ele><time>2026-05-02T12:08:50.986Z</time></trkpt><trkpt lat="42.8842929" lon="-3.8126431"><ele>932.5</ele><time>2026-05-02T12:08:51.97Z</time></trkpt><trkpt lat="42.8842068" lon="-3.8125249"><ele>931.75</ele><time>2026-05-02T12:08:52.968Z</time></trkpt><trkpt lat="42.8841129" lon="-3.8124037"><ele>931.0</ele><time>2026-05-02T12:08:53.971Z</time></trkpt><trkpt lat="42.8840147" lon="-3.8122792"><ele>931.0</ele><time>2026-05-02T12:08:54.97Z</time></trkpt><trkpt lat="42.8839174" lon="-3.8121487"><ele>931.0</ele><time>2026-05-02T12:08:55.972Z</time></trkpt><trkpt lat="42.8838244" lon="-3.8120111"><ele>931.0</ele><time>2026-05-02T12:08:56.969Z</time></trkpt><trkpt lat="42.883732" lon="-3.8118648"><ele>931.0</ele><time>2026-05-02T12:08:57.969Z</time></trkpt><trkpt lat="42.8836298" lon="-3.8117275"><ele>931.0</ele><time>2026-05-02T12:08:58.968Z</time></trkpt><trkpt lat="42.8835426" lon="-3.8115909"><ele>931.0</ele><time>2026-05-02T12:08:59.97Z</time></trkpt><trkpt lat="42.8834614" lon="-3.8114421"><ele>931.0</ele><time>2026-05-02T12:09:00.972Z</time></trkpt><trkpt lat="42.8833845" lon="-3.8112847"><ele>931.0</ele><time>2026-05-02T12:09:01.97Z</time></trkpt><trkpt lat="42.8833106" lon="-3.8111277"><ele>931.0</ele><time>2026-05-02T12:09:02.968Z</time></trkpt><trkpt lat="42.8832224" lon="-3.8109589"><ele>931.0</ele><time>2026-05-02T12:09:03.967Z</time></trkpt><trkpt lat="42.8831371" lon="-3.8108048"><ele>931.0</ele><time>2026-05-02T12:09:04.972Z</time></trkpt><trkpt lat="42.8830553" lon="-3.810656"><ele>931.0</ele><time>2026-05-02T12:09:05.969Z</time></trkpt><trkpt lat="42.8829756" lon="-3.8105066"><ele>931.0</ele><time>2026-05-02T12:09:06.97Z</time></trkpt><trkpt lat="42.8828948" lon="-3.810354"><ele>931.0</ele><time>2026-05-02T12:09:07.966Z</time></trkpt><trkpt lat="42.8828139" lon="-3.8102041"><ele>931.0</ele><time>2026-05-02T12:09:08.975Z</time></trkpt><trkpt lat="42.8827387" lon="-3.8100452"><ele>931.0</ele><time>2026-05-02T12:09:09.968Z</time></trkpt><trkpt lat="42.8826648" lon="-3.8098905"><ele>931.75</ele><time>2026-05-02T12:09:10.968Z</time></trkpt><trkpt lat="42.8825906" lon="-3.8097397"><ele>932.5</ele><time>2026-05-02T12:09:11.968Z</time></trkpt><trkpt lat="42.8825152" lon="-3.809592"><ele>933.25</ele><time>2026-05-02T12:09:12.97Z</time></trkpt><trkpt lat="42.8824324" lon="-3.809445"><ele>934.0</ele><time>2026-05-02T12:09:13.972Z</time></trkpt><trkpt lat="42.8823539" lon="-3.8092972"><ele>934.5</ele><time>2026-05-02T12:09:14.97Z</time></trkpt><trkpt lat="42.8822788" lon="-3.8091593"><ele>935.0</ele><time>2026-05-02T12:09:15.97Z</time></trkpt><trkpt lat="42.8821953" lon="-3.809022"><ele>935.5</ele><time>2026-05-02T12:09:16.974Z</time></trkpt><trkpt lat="42.8821143" lon="-3.8088949"><ele>936.0</ele><time>2026-05-02T12:09:17.971Z</time></trkpt><trkpt lat="42.882032" lon="-3.8087733"><ele>936.0</ele><time>2026-05-02T12:09:18.973Z</time></trkpt><trkpt lat="42.8819556" lon="-3.8086489"><ele>936.0</ele><time>2026-05-02T12:09:19.969Z</time></trkpt><trkpt lat="42.8818847" lon="-3.8085199"><ele>936.0</ele><time>2026-05-02T12:09:20.972Z</time></trkpt><trkpt lat="42.8818179" lon="-3.8083864"><ele>936.0</ele><time>2026-05-02T12:09:21.987Z</time></trkpt><trkpt lat="42.8817498" lon="-3.808253"><ele>936.5</ele><time>2026-05-02T12:09:22.97Z</time></trkpt><trkpt lat="42.881678" lon="-3.8081206"><ele>937.0</ele><time>2026-05-02T12:09:23.973Z</time></trkpt><trkpt lat="42.881605" lon="-3.8079884"><ele>937.5</ele><time>2026-05-02T12:09:24.972Z</time></trkpt><trkpt lat="42.8815367" lon="-3.8078536"><ele>938.0</ele><time>2026-05-02T12:09:25.974Z</time></trkpt><trkpt lat="42.8814659" lon="-3.8077143"><ele>938.0</ele><time>2026-05-02T12:09:26.969Z</time></trkpt><trkpt lat="42.8813946" lon="-3.8075772"><ele>938.0</ele><time>2026-05-02T12:09:27.972Z</time></trkpt><trkpt lat="42.8813187" lon="-3.8074398"><ele>938.0</ele><time>2026-05-02T12:09:28.971Z</time></trkpt><trkpt lat="42.8812388" lon="-3.8073057"><ele>938.0</ele><time>2026-05-02T12:09:29.972Z</time></trkpt><trkpt lat="42.8811659" lon="-3.8071704"><ele>938.0</ele><time>2026-05-02T12:09:30.969Z</time></trkpt><trkpt lat="42.8810872" lon="-3.8070323"><ele>938.0</ele><time>2026-05-02T12:09:31.967Z</time></trkpt><trkpt lat="42.88101" lon="-3.8068929"><ele>938.0</ele><time>2026-05-02T12:09:32.969Z</time></trkpt><trkpt lat="42.880939" lon="-3.806753"><ele>938.0</ele><time>2026-05-02T12:09:33.968Z</time></trkpt><trkpt lat="42.8808668" lon="-3.8066166"><ele>938.0</ele><time>2026-05-02T12:09:34.969Z</time></trkpt><trkpt lat="42.8807893" lon="-3.8064717"><ele>938.0</ele><time>2026-05-02T12:09:35.967Z</time></trkpt><trkpt lat="42.8807077" lon="-3.8063198"><ele>938.0</ele><time>2026-05-02T12:09:36.97Z</time></trkpt><trkpt lat="42.8806302" lon="-3.8061707"><ele>938.0</ele><time>2026-05-02T12:09:37.968Z</time></trkpt><trkpt lat="42.8805511" lon="-3.8060234"><ele>938.25</ele><time>2026-05-02T12:09:38.972Z</time></trkpt><trkpt lat="42.8804712" lon="-3.8058783"><ele>938.5</ele><time>2026-05-02T12:09:39.968Z</time></trkpt><trkpt lat="42.8803878" lon="-3.8057352"><ele>938.75</ele><time>2026-05-02T12:09:40.968Z</time></trkpt><trkpt lat="42.880305" lon="-3.8055906"><ele>939.0</ele><time>2026-05-02T12:09:41.967Z</time></trkpt><trkpt lat="42.8802252" lon="-3.8054461"><ele>939.0</ele><time>2026-05-02T12:09:42.969Z</time></trkpt><trkpt lat="42.8801431" lon="-3.8053048"><ele>939.0</ele><time>2026-05-02T12:09:43.969Z</time></trkpt><trkpt lat="42.8800643" lon="-3.8051639"><ele>939.0</ele><time>2026-05-02T12:09:44.968Z</time></trkpt><trkpt lat="42.8799873" lon="-3.8050168"><ele>939.0</ele><time>2026-05-02T12:09:45.971Z</time></trkpt><trkpt lat="42.8799117" lon="-3.8048709"><ele>939.0</ele><time>2026-05-02T12:09:46.972Z</time></trkpt><trkpt lat="42.8798333" lon="-3.8047236"><ele>939.0</ele><time>2026-05-02T12:09:47.969Z</time></trkpt><trkpt lat="42.8797547" lon="-3.8045755"><ele>939.0</ele><time>2026-05-02T12:09:48.97Z</time></trkpt><trkpt lat="42.8796772" lon="-3.8044334"><ele>939.0</ele><time>2026-05-02T12:09:49.97Z</time></trkpt><trkpt lat="42.8795999" lon="-3.8042909"><ele>939.0</ele><time>2026-05-02T12:09:50.97Z</time></trkpt><trkpt lat="42.8795252" lon="-3.8041492"><ele>939.0</ele><time>2026-05-02T12:09:51.971Z</time></trkpt><trkpt lat="42.8794475" lon="-3.8040117"><ele>939.0</ele><time>2026-05-02T12:09:52.986Z</time></trkpt><trkpt lat="42.87937" lon="-3.8038754"><ele>939.0</ele><time>2026-05-02T12:09:53.97Z</time></trkpt><trkpt lat="42.8792934" lon="-3.8037373"><ele>939.0</ele><time>2026-05-02T12:09:54.969Z</time></trkpt><trkpt lat="42.8792185" lon="-3.8035971"><ele>939.0</ele><time>2026-05-02T12:09:55.973Z</time></trkpt><trkpt lat="42.8791435" lon="-3.8034576"><ele>939.0</ele><time>2026-05-02T12:09:56.974Z</time></trkpt><trkpt lat="42.8790647" lon="-3.8033137"><ele>939.0</ele><time>2026-05-02T12:09:57.971Z</time></trkpt><trkpt lat="42.8789872" lon="-3.8031692"><ele>939.0</ele><time>2026-05-02T12:09:58.966Z</time></trkpt><trkpt lat="42.878911" lon="-3.8030214"><ele>939.0</ele><time>2026-05-02T12:09:59.973Z</time></trkpt><trkpt lat="42.8788302" lon="-3.8028758"><ele>939.0</ele><time>2026-05-02T12:10:00.971Z</time></trkpt><trkpt lat="42.8787466" lon="-3.8027238"><ele>939.0</ele><time>2026-05-02T12:10:01.968Z</time></trkpt><trkpt lat="42.8786657" lon="-3.8025763"><ele>939.0</ele><time>2026-05-02T12:10:02.968Z</time></trkpt><trkpt lat="42.8785827" lon="-3.8024292"><ele>939.0</ele><time>2026-05-02T12:10:03.966Z</time></trkpt><trkpt lat="42.8784945" lon="-3.8022842"><ele>939.0</ele><time>2026-05-02T12:10:04.968Z</time></trkpt><trkpt lat="42.8784046" lon="-3.802143"><ele>939.0</ele><time>2026-05-02T12:10:05.969Z</time></trkpt><trkpt lat="42.8783102" lon="-3.8020051"><ele>938.5</ele><time>2026-05-02T12:10:06.972Z</time></trkpt><trkpt lat="42.8782005" lon="-3.8018726"><ele>938.0</ele><time>2026-05-02T12:10:07.967Z</time></trkpt><trkpt lat="42.8780935" lon="-3.8017453"><ele>937.5</ele><time>2026-05-02T12:10:08.973Z</time></trkpt><trkpt lat="42.877984" lon="-3.8016221"><ele>937.0</ele><time>2026-05-02T12:10:09.971Z</time></trkpt><trkpt lat="42.8778709" lon="-3.8015045"><ele>937.0</ele><time>2026-05-02T12:10:10.972Z</time></trkpt><trkpt lat="42.8777714" lon="-3.8013785"><ele>937.0</ele><time>2026-05-02T12:10:11.972Z</time></trkpt><trkpt lat="42.8776591" lon="-3.8012456"><ele>937.0</ele><time>2026-05-02T12:10:12.971Z</time></trkpt><trkpt lat="42.877556" lon="-3.8011213"><ele>937.0</ele><time>2026-05-02T12:10:13.971Z</time></trkpt><trkpt lat="42.8774535" lon="-3.8010028"><ele>936.5</ele><time>2026-05-02T12:10:14.971Z</time></trkpt><trkpt lat="42.877358" lon="-3.8008958"><ele>936.0</ele><time>2026-05-02T12:10:15.97Z</time></trkpt><trkpt lat="42.8772646" lon="-3.800787"><ele>935.5</ele><time>2026-05-02T12:10:16.974Z</time></trkpt><trkpt lat="42.8771688" lon="-3.800673"><ele>935.0</ele><time>2026-05-02T12:10:17.972Z</time></trkpt><trkpt lat="42.8770712" lon="-3.8005626"><ele>935.0</ele><time>2026-05-02T12:10:18.971Z</time></trkpt><trkpt lat="42.8769681" lon="-3.8004644"><ele>935.0</ele><time>2026-05-02T12:10:19.971Z</time></trkpt><trkpt lat="42.8768706" lon="-3.8003569"><ele>935.0</ele><time>2026-05-02T12:10:20.974Z</time></trkpt><trkpt lat="42.876772" lon="-3.8002643"><ele>935.0</ele><time>2026-05-02T12:10:21.97Z</time></trkpt><trkpt lat="42.8766663" lon="-3.8001698"><ele>933.4</ele><time>2026-05-02T12:10:22.97Z</time></trkpt><trkpt lat="42.8765676" lon="-3.8000919"><ele>931.8</ele><time>2026-05-02T12:10:23.981Z</time></trkpt><trkpt lat="42.8764728" lon="-3.8000221"><ele>930.2</ele><time>2026-05-02T12:10:24.974Z</time></trkpt><trkpt lat="42.8763767" lon="-3.7999618"><ele>928.6</ele><time>2026-05-02T12:10:25.977Z</time></trkpt><trkpt lat="42.876281" lon="-3.7999133"><ele>927.0</ele><time>2026-05-02T12:10:26.972Z</time></trkpt><trkpt lat="42.8761868" lon="-3.7998708"><ele>927.0</ele><time>2026-05-02T12:10:27.977Z</time></trkpt><trkpt lat="42.8761003" lon="-3.7998235"><ele>927.0</ele><time>2026-05-02T12:10:28.972Z</time></trkpt><trkpt lat="42.8760119" lon="-3.799787"><ele>927.0</ele><time>2026-05-02T12:10:29.976Z</time></trkpt><trkpt lat="42.875925" lon="-3.7997509"><ele>927.0</ele><time>2026-05-02T12:10:30.973Z</time></trkpt><trkpt lat="42.8758398" lon="-3.7997177"><ele>927.0</ele><time>2026-05-02T12:10:31.968Z</time></trkpt><trkpt lat="42.8757517" lon="-3.7996844"><ele>926.2</ele><time>2026-05-02T12:10:32.966Z</time></trkpt><trkpt lat="42.8756602" lon="-3.7996597"><ele>925.4000000000001</ele><time>2026-05-02T12:10:33.965Z</time></trkpt><trkpt lat="42.875562" lon="-3.799638"><ele>924.5999999999999</ele><time>2026-05-02T12:10:34.963Z</time></trkpt><trkpt lat="42.8754569" lon="-3.7996178"><ele>923.8</ele><time>2026-05-02T12:10:35.966Z</time></trkpt><trkpt lat="42.8753395" lon="-3.7996009"><ele>923.0</ele><time>2026-05-02T12:10:36.97Z</time></trkpt><trkpt lat="42.8752209" lon="-3.7995828"><ele>923.0</ele><time>2026-05-02T12:10:37.97Z</time></trkpt><trkpt lat="42.8751059" lon="-3.7995759"><ele>923.0</ele><time>2026-05-02T12:10:38.972Z</time></trkpt><trkpt lat="42.8749926" lon="-3.7995648"><ele>923.0</ele><time>2026-05-02T12:10:39.973Z</time></trkpt><trkpt lat="42.874879" lon="-3.7995468"><ele>923.0</ele><time>2026-05-02T12:10:40.972Z</time></trkpt><trkpt lat="42.8747696" lon="-3.7995295"><ele>922.5999999999999</ele><time>2026-05-02T12:10:41.971Z</time></trkpt><trkpt lat="42.8746563" lon="-3.7995031"><ele>922.1999999999999</ele><time>2026-05-02T12:10:42.973Z</time></trkpt><trkpt lat="42.8745478" lon="-3.7994726"><ele>921.8</ele><time>2026-05-02T12:10:43.974Z</time></trkpt><trkpt lat="42.8744356" lon="-3.7994381"><ele>921.4</ele><time>2026-05-02T12:10:44.97Z</time></trkpt><trkpt lat="42.8743308" lon="-3.7994035"><ele>921.0</ele><time>2026-05-02T12:10:45.971Z</time></trkpt><trkpt lat="42.8742261" lon="-3.7993676"><ele>922.0</ele><time>2026-05-02T12:10:46.971Z</time></trkpt><trkpt lat="42.8741153" lon="-3.7993279"><ele>922.9999999999999</ele><time>2026-05-02T12:10:47.969Z</time></trkpt><trkpt lat="42.8740095" lon="-3.7992905"><ele>923.9999999999999</ele><time>2026-05-02T12:10:48.972Z</time></trkpt><trkpt lat="42.8739013" lon="-3.7992496"><ele>925.0</ele><time>2026-05-02T12:10:49.972Z</time></trkpt><trkpt lat="42.8737923" lon="-3.7992147"><ele>926.0</ele><time>2026-05-02T12:10:50.971Z</time></trkpt><trkpt lat="42.8736888" lon="-3.7991809"><ele>926.0</ele><time>2026-05-02T12:10:51.969Z</time></trkpt><trkpt lat="42.8735867" lon="-3.7991478"><ele>925.9999999999999</ele><time>2026-05-02T12:10:52.967Z</time></trkpt><trkpt lat="42.8734887" lon="-3.7991142"><ele>925.9999999999999</ele><time>2026-05-02T12:10:53.968Z</time></trkpt><trkpt lat="42.8733982" lon="-3.7990866"><ele>926.0</ele><time>2026-05-02T12:10:54.984Z</time></trkpt><trkpt lat="42.873309" lon="-3.7990566"><ele>926.0</ele><time>2026-05-02T12:10:55.969Z</time></trkpt><trkpt lat="42.8732268" lon="-3.7990261"><ele>926.1666666666667</ele><time>2026-05-02T12:10:56.97Z</time></trkpt><trkpt lat="42.8731519" lon="-3.7990004"><ele>926.3333333333334</ele><time>2026-05-02T12:10:57.972Z</time></trkpt><trkpt lat="42.8730714" lon="-3.7989661"><ele>926.5</ele><time>2026-05-02T12:10:58.973Z</time></trkpt><trkpt lat="42.87299" lon="-3.7989306"><ele>926.6666666666667</ele><time>2026-05-02T12:10:59.971Z</time></trkpt><trkpt lat="42.8729047" lon="-3.7989002"><ele>926.8333333333334</ele><time>2026-05-02T12:11:00.972Z</time></trkpt><trkpt lat="42.8728156" lon="-3.7988673"><ele>927.0</ele><time>2026-05-02T12:11:01.971Z</time></trkpt><trkpt lat="42.8727226" lon="-3.7988365"><ele>927.0</ele><time>2026-05-02T12:11:02.97Z</time></trkpt><trkpt lat="42.8726226" lon="-3.7988034"><ele>927.0</ele><time>2026-05-02T12:11:03.97Z</time></trkpt><trkpt lat="42.8725152" lon="-3.7987662"><ele>927.0</ele><time>2026-05-02T12:11:04.967Z</time></trkpt><trkpt lat="42.872402" lon="-3.7987203"><ele>927.0</ele><time>2026-05-02T12:11:05.971Z</time></trkpt><trkpt lat="42.872293" lon="-3.7986779"><ele>927.0</ele><time>2026-05-02T12:11:06.971Z</time></trkpt><trkpt lat="42.8721837" lon="-3.798632"><ele>926.5</ele><time>2026-05-02T12:11:07.971Z</time></trkpt><trkpt lat="42.8720708" lon="-3.7985902"><ele>926.0</ele><time>2026-05-02T12:11:08.973Z</time></trkpt><trkpt lat="42.8719529" lon="-3.7985481"><ele>925.5</ele><time>2026-05-02T12:11:09.973Z</time></trkpt><trkpt lat="42.8718348" lon="-3.7985052"><ele>925.0</ele><time>2026-05-02T12:11:10.972Z</time></trkpt><trkpt lat="42.8717169" lon="-3.7984612"><ele>925.0</ele><time>2026-05-02T12:11:11.971Z</time></trkpt><trkpt lat="42.8716" lon="-3.7984196"><ele>925.0</ele><time>2026-05-02T12:11:12.973Z</time></trkpt><trkpt lat="42.8714817" lon="-3.7983761"><ele>925.0</ele><time>2026-05-02T12:11:13.975Z</time></trkpt><trkpt lat="42.8713668" lon="-3.7983353"><ele>925.0</ele><time>2026-05-02T12:11:14.973Z</time></trkpt><trkpt lat="42.8712528" lon="-3.7982937"><ele>925.0</ele><time>2026-05-02T12:11:15.975Z</time></trkpt><trkpt lat="42.8711337" lon="-3.7982526"><ele>925.0</ele><time>2026-05-02T12:11:16.975Z</time></trkpt><trkpt lat="42.871014" lon="-3.7982085"><ele>925.0</ele><time>2026-05-02T12:11:17.971Z</time></trkpt><trkpt lat="42.87089" lon="-3.7981643"><ele>925.0</ele><time>2026-05-02T12:11:18.971Z</time></trkpt><trkpt lat="42.8707665" lon="-3.7981221"><ele>925.5</ele><time>2026-05-02T12:11:19.973Z</time></trkpt><trkpt lat="42.8706418" lon="-3.7980832"><ele>926.0</ele><time>2026-05-02T12:11:20.971Z</time></trkpt><trkpt lat="42.8705187" lon="-3.7980399"><ele>926.5</ele><time>2026-05-02T12:11:21.973Z</time></trkpt><trkpt lat="42.8703966" lon="-3.7979983"><ele>927.0</ele><time>2026-05-02T12:11:22.977Z</time></trkpt><trkpt lat="42.8702719" lon="-3.7979523"><ele>927.0</ele><time>2026-05-02T12:11:23.973Z</time></trkpt><trkpt lat="42.8701479" lon="-3.7979109"><ele>927.0</ele><time>2026-05-02T12:11:24.975Z</time></trkpt><trkpt lat="42.8700217" lon="-3.7978631"><ele>927.0</ele><time>2026-05-02T12:11:26.011Z</time></trkpt><trkpt lat="42.8698934" lon="-3.7978187"><ele>927.0</ele><time>2026-05-02T12:11:26.976Z</time></trkpt><trkpt lat="42.8697661" lon="-3.7977751"><ele>927.5</ele><time>2026-05-02T12:11:27.98Z</time></trkpt><trkpt lat="42.8696363" lon="-3.7977301"><ele>928.0</ele><time>2026-05-02T12:11:28.985Z</time></trkpt><trkpt lat="42.8695103" lon="-3.7976827"><ele>928.5</ele><time>2026-05-02T12:11:29.985Z</time></trkpt><trkpt lat="42.8693813" lon="-3.7976359"><ele>929.0</ele><time>2026-05-02T12:11:30.982Z</time></trkpt><trkpt lat="42.8692512" lon="-3.7975914"><ele>929.75</ele><time>2026-05-02T12:11:31.979Z</time></trkpt><trkpt lat="42.869123" lon="-3.7975404"><ele>930.5</ele><time>2026-05-02T12:11:32.976Z</time></trkpt><trkpt lat="42.868997" lon="-3.7974891"><ele>931.25</ele><time>2026-05-02T12:11:33.965Z</time></trkpt><trkpt lat="42.8688666" lon="-3.7974404"><ele>932.0</ele><time>2026-05-02T12:11:34.975Z</time></trkpt><trkpt lat="42.8687346" lon="-3.7973949"><ele>932.0</ele><time>2026-05-02T12:11:35.972Z</time></trkpt><trkpt lat="42.8685983" lon="-3.7973501"><ele>932.0</ele><time>2026-05-02T12:11:36.972Z</time></trkpt><trkpt lat="42.8684553" lon="-3.7972944"><ele>932.0</ele><time>2026-05-02T12:11:37.976Z</time></trkpt><trkpt lat="42.8683277" lon="-3.7972454"><ele>932.0</ele><time>2026-05-02T12:11:38.971Z</time></trkpt><trkpt lat="42.8681903" lon="-3.797197"><ele>931.0</ele><time>2026-05-02T12:11:39.969Z</time></trkpt><trkpt lat="42.8680456" lon="-3.7971452"><ele>930.0</ele><time>2026-05-02T12:11:40.967Z</time></trkpt><trkpt lat="42.8679029" lon="-3.7970938"><ele>929.0</ele><time>2026-05-02T12:11:41.969Z</time></trkpt><trkpt lat="42.8677601" lon="-3.797045"><ele>928.0</ele><time>2026-05-02T12:11:42.969Z</time></trkpt><trkpt lat="42.8676219" lon="-3.7969909"><ele>927.75</ele><time>2026-05-02T12:11:43.969Z</time></trkpt><trkpt lat="42.86749" lon="-3.7969402"><ele>927.5</ele><time>2026-05-02T12:11:44.968Z</time></trkpt><trkpt lat="42.867361" lon="-3.7968874"><ele>927.25</ele><time>2026-05-02T12:11:45.969Z</time></trkpt><trkpt lat="42.8672275" lon="-3.796833"><ele>927.0</ele><time>2026-05-02T12:11:46.97Z</time></trkpt><trkpt lat="42.8670994" lon="-3.7967677"><ele>926.75</ele><time>2026-05-02T12:11:47.968Z</time></trkpt><trkpt lat="42.8669708" lon="-3.7967005"><ele>926.5</ele><time>2026-05-02T12:11:48.966Z</time></trkpt><trkpt lat="42.8668415" lon="-3.7966247"><ele>926.25</ele><time>2026-05-02T12:11:49.969Z</time></trkpt><trkpt lat="42.8667085" lon="-3.7965486"><ele>926.0</ele><time>2026-05-02T12:11:50.969Z</time></trkpt><trkpt lat="42.8665835" lon="-3.7964723"><ele>926.0</ele><time>2026-05-02T12:11:51.972Z</time></trkpt><trkpt lat="42.8664603" lon="-3.7963874"><ele>926.0</ele><time>2026-05-02T12:11:52.971Z</time></trkpt><trkpt lat="42.8663221" lon="-3.7963002"><ele>926.0</ele><time>2026-05-02T12:11:53.971Z</time></trkpt><trkpt lat="42.8661914" lon="-3.7962145"><ele>926.0</ele><time>2026-05-02T12:11:54.972Z</time></trkpt><trkpt lat="42.8660633" lon="-3.7961231"><ele>925.25</ele><time>2026-05-02T12:11:55.991Z</time></trkpt><trkpt lat="42.8659267" lon="-3.7960368"><ele>924.5</ele><time>2026-05-02T12:11:56.971Z</time></trkpt><trkpt lat="42.8657916" lon="-3.7959415"><ele>923.75</ele><time>2026-05-02T12:11:57.974Z</time></trkpt><trkpt lat="42.8656631" lon="-3.7958522"><ele>923.0</ele><time>2026-05-02T12:11:58.973Z</time></trkpt><trkpt lat="42.865525" lon="-3.7957606"><ele>923.0</ele><time>2026-05-02T12:11:59.977Z</time></trkpt><trkpt lat="42.8653833" lon="-3.7956691"><ele>923.0</ele><time>2026-05-02T12:12:00.979Z</time></trkpt><trkpt lat="42.865244" lon="-3.7955802"><ele>923.0</ele><time>2026-05-02T12:12:01.972Z</time></trkpt><trkpt lat="42.8651131" lon="-3.7954995"><ele>922.75</ele><time>2026-05-02T12:12:02.973Z</time></trkpt><trkpt lat="42.8649802" lon="-3.7954142"><ele>922.5</ele><time>2026-05-02T12:12:03.976Z</time></trkpt><trkpt lat="42.8648489" lon="-3.7953286"><ele>922.25</ele><time>2026-05-02T12:12:04.973Z</time></trkpt><trkpt lat="42.8647173" lon="-3.7952467"><ele>922.0</ele><time>2026-05-02T12:12:05.969Z</time></trkpt><trkpt lat="42.8645825" lon="-3.7951669"><ele>922.0</ele><time>2026-05-02T12:12:06.975Z</time></trkpt><trkpt lat="42.864454" lon="-3.7950809"><ele>922.0</ele><time>2026-05-02T12:12:07.968Z</time></trkpt><trkpt lat="42.8643198" lon="-3.794991"><ele>922.0</ele><time>2026-05-02T12:12:08.973Z</time></trkpt><trkpt lat="42.8641867" lon="-3.794893"><ele>922.0</ele><time>2026-05-02T12:12:09.976Z</time></trkpt><trkpt lat="42.8640546" lon="-3.7947969"><ele>919.6666666666666</ele><time>2026-05-02T12:12:10.967Z</time></trkpt><trkpt lat="42.8639128" lon="-3.7946978"><ele>917.3333333333333</ele><time>2026-05-02T12:12:11.967Z</time></trkpt><trkpt lat="42.8637709" lon="-3.7946019"><ele>915.0</ele><time>2026-05-02T12:12:12.97Z</time></trkpt><trkpt lat="42.8636315" lon="-3.7945048"><ele>915.0</ele><time>2026-05-02T12:12:13.969Z</time></trkpt><trkpt lat="42.863501" lon="-3.794421"><ele>915.0</ele><time>2026-05-02T12:12:14.974Z</time></trkpt><trkpt lat="42.8633735" lon="-3.7943361"><ele>915.0</ele><time>2026-05-02T12:12:15.981Z</time></trkpt><trkpt lat="42.8632466" lon="-3.7942558"><ele>915.0</ele><time>2026-05-02T12:12:16.978Z</time></trkpt><trkpt lat="42.8631194" lon="-3.7941695"><ele>914.0</ele><time>2026-05-02T12:12:17.975Z</time></trkpt><trkpt lat="42.8629948" lon="-3.7940895"><ele>913.0</ele><time>2026-05-02T12:12:18.975Z</time></trkpt><trkpt lat="42.8628775" lon="-3.7940063"><ele>912.0</ele><time>2026-05-02T12:12:19.976Z</time></trkpt><trkpt lat="42.8627599" lon="-3.7939274"><ele>911.0</ele><time>2026-05-02T12:12:20.973Z</time></trkpt><trkpt lat="42.8626356" lon="-3.7938482"><ele>910.0</ele><time>2026-05-02T12:12:21.977Z</time></trkpt><trkpt lat="42.8625065" lon="-3.7937698"><ele>909.0</ele><time>2026-05-02T12:12:22.974Z</time></trkpt><trkpt lat="42.8623766" lon="-3.7936904"><ele>908.0</ele><time>2026-05-02T12:12:23.978Z</time></trkpt><trkpt lat="42.8622474" lon="-3.7936019"><ele>907.0</ele><time>2026-05-02T12:12:24.977Z</time></trkpt><trkpt lat="42.8621233" lon="-3.7935172"><ele>906.75</ele><time>2026-05-02T12:12:25.98Z</time></trkpt><trkpt lat="42.8619946" lon="-3.7934383"><ele>906.5</ele><time>2026-05-02T12:12:26.993Z</time></trkpt><trkpt lat="42.8618695" lon="-3.7933534"><ele>906.25</ele><time>2026-05-02T12:12:27.98Z</time></trkpt><trkpt lat="42.86174" lon="-3.7932715"><ele>906.0</ele><time>2026-05-02T12:12:28.978Z</time></trkpt><trkpt lat="42.8616123" lon="-3.7931903"><ele>906.0</ele><time>2026-05-02T12:12:29.977Z</time></trkpt><trkpt lat="42.8614884" lon="-3.7931055"><ele>906.0</ele><time>2026-05-02T12:12:30.979Z</time></trkpt><trkpt lat="42.8613595" lon="-3.7930157"><ele>906.0</ele><time>2026-05-02T12:12:31.978Z</time></trkpt><trkpt lat="42.8612281" lon="-3.7929309"><ele>906.0</ele><time>2026-05-02T12:12:32.976Z</time></trkpt><trkpt lat="42.8610889" lon="-3.7928517"><ele>906.0</ele><time>2026-05-02T12:12:33.972Z</time></trkpt><trkpt lat="42.8609531" lon="-3.7927612"><ele>906.0</ele><time>2026-05-02T12:12:34.972Z</time></trkpt><trkpt lat="42.8608183" lon="-3.7926698"><ele>906.0</ele><time>2026-05-02T12:12:35.97Z</time></trkpt><trkpt lat="42.8606758" lon="-3.792589"><ele>904.5</ele><time>2026-05-02T12:12:36.969Z</time></trkpt><trkpt lat="42.860537" lon="-3.7925"><ele>903.0</ele><time>2026-05-02T12:12:37.972Z</time></trkpt><trkpt lat="42.860417" lon="-3.7924095"><ele>901.5</ele><time>2026-05-02T12:12:38.976Z</time></trkpt><trkpt lat="42.8602933" lon="-3.7923248"><ele>900.0</ele><time>2026-05-02T12:12:39.975Z</time></trkpt><trkpt lat="42.8601648" lon="-3.7922419"><ele>898.5</ele><time>2026-05-02T12:12:40.974Z</time></trkpt><trkpt lat="42.8600347" lon="-3.7921601"><ele>897.0</ele><time>2026-05-02T12:12:41.975Z</time></trkpt><trkpt lat="42.8599025" lon="-3.7920788"><ele>895.5</ele><time>2026-05-02T12:12:42.976Z</time></trkpt><trkpt lat="42.8597752" lon="-3.7919917"><ele>894.0</ele><time>2026-05-02T12:12:43.976Z</time></trkpt><trkpt lat="42.8596447" lon="-3.7919049"><ele>894.75</ele><time>2026-05-02T12:12:44.975Z</time></trkpt><trkpt lat="42.8595149" lon="-3.7918179"><ele>895.5</ele><time>2026-05-02T12:12:45.975Z</time></trkpt><trkpt lat="42.859387" lon="-3.7917348"><ele>896.25</ele><time>2026-05-02T12:12:46.979Z</time></trkpt><trkpt lat="42.8592568" lon="-3.7916463"><ele>897.0</ele><time>2026-05-02T12:12:47.973Z</time></trkpt><trkpt lat="42.8591238" lon="-3.7915551"><ele>894.3333333333333</ele><time>2026-05-02T12:12:48.978Z</time></trkpt><trkpt lat="42.8589958" lon="-3.7914577"><ele>891.6666666666666</ele><time>2026-05-02T12:12:49.977Z</time></trkpt><trkpt lat="42.8588504" lon="-3.7913657"><ele>889.0</ele><time>2026-05-02T12:12:50.977Z</time></trkpt><trkpt lat="42.8587011" lon="-3.7912738"><ele>889.0</ele><time>2026-05-02T12:12:51.976Z</time></trkpt><trkpt lat="42.858552" lon="-3.7911768"><ele>889.0</ele><time>2026-05-02T12:12:52.978Z</time></trkpt><trkpt lat="42.8584083" lon="-3.7910779"><ele>889.0</ele><time>2026-05-02T12:12:53.977Z</time></trkpt><trkpt lat="42.8582574" lon="-3.7909844"><ele>888.0</ele><time>2026-05-02T12:12:54.973Z</time></trkpt><trkpt lat="42.8581106" lon="-3.79089"><ele>887.0</ele><time>2026-05-02T12:12:55.977Z</time></trkpt><trkpt lat="42.857967" lon="-3.7908036"><ele>886.0</ele><time>2026-05-02T12:12:56.973Z</time></trkpt><trkpt lat="42.8578328" lon="-3.7907147"><ele>886.0</ele><time>2026-05-02T12:12:57.993Z</time></trkpt><trkpt lat="42.8576934" lon="-3.790627"><ele>886.0</ele><time>2026-05-02T12:12:58.976Z</time></trkpt><trkpt lat="42.8575534" lon="-3.7905372"><ele>886.0</ele><time>2026-05-02T12:12:59.976Z</time></trkpt><trkpt lat="42.8574153" lon="-3.7904477"><ele>885.5</ele><time>2026-05-02T12:13:00.974Z</time></trkpt><trkpt lat="42.857284" lon="-3.7903644"><ele>885.0</ele><time>2026-05-02T12:13:01.975Z</time></trkpt><trkpt lat="42.8571514" lon="-3.790274"><ele>884.5</ele><time>2026-05-02T12:13:02.972Z</time></trkpt><trkpt lat="42.8570129" lon="-3.7901859"><ele>884.0</ele><time>2026-05-02T12:13:03.974Z</time></trkpt><trkpt lat="42.8568783" lon="-3.790098"><ele>881.6666666666667</ele><time>2026-05-02T12:13:04.971Z</time></trkpt><trkpt lat="42.8567485" lon="-3.7900071"><ele>879.3333333333333</ele><time>2026-05-02T12:13:05.974Z</time></trkpt><trkpt lat="42.8566146" lon="-3.789908"><ele>877.0</ele><time>2026-05-02T12:13:06.974Z</time></trkpt><trkpt lat="42.8564681" lon="-3.7898179"><ele>877.0</ele><time>2026-05-02T12:13:07.978Z</time></trkpt><trkpt lat="42.8563339" lon="-3.789735"><ele>877.0</ele><time>2026-05-02T12:13:08.977Z</time></trkpt><trkpt lat="42.8562028" lon="-3.7896456"><ele>877.0</ele><time>2026-05-02T12:13:09.974Z</time></trkpt><trkpt lat="42.8560689" lon="-3.7895627"><ele>877.0</ele><time>2026-05-02T12:13:10.975Z</time></trkpt><trkpt lat="42.855938" lon="-3.7894715"><ele>876.0</ele><time>2026-05-02T12:13:11.976Z</time></trkpt><trkpt lat="42.8558163" lon="-3.7893879"><ele>875.0</ele><time>2026-05-02T12:13:12.976Z</time></trkpt><trkpt lat="42.8556941" lon="-3.7893022"><ele>874.0</ele><time>2026-05-02T12:13:13.976Z</time></trkpt><trkpt lat="42.8555757" lon="-3.7892203"><ele>873.0</ele><time>2026-05-02T12:13:14.975Z</time></trkpt><trkpt lat="42.8554542" lon="-3.7891453"><ele>873.0</ele><time>2026-05-02T12:13:15.975Z</time></trkpt><trkpt lat="42.855343" lon="-3.78907"><ele>873.0</ele><time>2026-05-02T12:13:16.983Z</time></trkpt><trkpt lat="42.8552196" lon="-3.7889927"><ele>873.0</ele><time>2026-05-02T12:13:17.979Z</time></trkpt><trkpt lat="42.8551011" lon="-3.7889125"><ele>873.0</ele><time>2026-05-02T12:13:18.978Z</time></trkpt><trkpt lat="42.8549825" lon="-3.7888367"><ele>871.5</ele><time>2026-05-02T12:13:19.979Z</time></trkpt><trkpt lat="42.854861" lon="-3.7887655"><ele>870.0</ele><time>2026-05-02T12:13:20.978Z</time></trkpt><trkpt lat="42.8547347" lon="-3.7886857"><ele>868.5</ele><time>2026-05-02T12:13:21.977Z</time></trkpt><trkpt lat="42.8546138" lon="-3.788615"><ele>867.0</ele><time>2026-05-02T12:13:22.978Z</time></trkpt><trkpt lat="42.854496" lon="-3.7885384"><ele>866.75</ele><time>2026-05-02T12:13:23.98Z</time></trkpt><trkpt lat="42.8543802" lon="-3.788464"><ele>866.5</ele><time>2026-05-02T12:13:24.977Z</time></trkpt><trkpt lat="42.854264" lon="-3.7883841"><ele>866.25</ele><time>2026-05-02T12:13:25.98Z</time></trkpt><trkpt lat="42.8541482" lon="-3.7883055"><ele>866.0</ele><time>2026-05-02T12:13:26.977Z</time></trkpt><trkpt lat="42.8540303" lon="-3.7882292"><ele>866.0</ele><time>2026-05-02T12:13:27.981Z</time></trkpt><trkpt lat="42.853915" lon="-3.7881566"><ele>866.0</ele><time>2026-05-02T12:13:28.994Z</time></trkpt><trkpt lat="42.8537987" lon="-3.7880823"><ele>866.0</ele><time>2026-05-02T12:13:29.98Z</time></trkpt><trkpt lat="42.8536859" lon="-3.7880072"><ele>866.0</ele><time>2026-05-02T12:13:30.981Z</time></trkpt><trkpt lat="42.8535725" lon="-3.7879307"><ele>866.0</ele><time>2026-05-02T12:13:31.978Z</time></trkpt><trkpt lat="42.8534606" lon="-3.7878625"><ele>866.0</ele><time>2026-05-02T12:13:32.98Z</time></trkpt><trkpt lat="42.8533515" lon="-3.7877955"><ele>866.0</ele><time>2026-05-02T12:13:33.978Z</time></trkpt><trkpt lat="42.8532429" lon="-3.7877266"><ele>866.0</ele><time>2026-05-02T12:13:34.976Z</time></trkpt><trkpt lat="42.853136" lon="-3.7876607"><ele>865.0</ele><time>2026-05-02T12:13:35.976Z</time></trkpt><trkpt lat="42.8530362" lon="-3.7875987"><ele>863.9999999999999</ele><time>2026-05-02T12:13:36.978Z</time></trkpt><trkpt lat="42.85294" lon="-3.7875333"><ele>862.9999999999999</ele><time>2026-05-02T12:13:37.973Z</time></trkpt><trkpt lat="42.8528497" lon="-3.7874664"><ele>862.0</ele><time>2026-05-02T12:13:38.979Z</time></trkpt><trkpt lat="42.8527515" lon="-3.7874028"><ele>861.0</ele><time>2026-05-02T12:13:39.975Z</time></trkpt><trkpt lat="42.8526567" lon="-3.787344"><ele>860.0</ele><time>2026-05-02T12:13:40.972Z</time></trkpt><trkpt lat="42.8525649" lon="-3.7872848"><ele>858.9999999999999</ele><time>2026-05-02T12:13:41.971Z</time></trkpt><trkpt lat="42.8524773" lon="-3.787228"><ele>857.9999999999999</ele><time>2026-05-02T12:13:42.976Z</time></trkpt><trkpt lat="42.8523886" lon="-3.7871697"><ele>857.0</ele><time>2026-05-02T12:13:43.975Z</time></trkpt><trkpt lat="42.8522973" lon="-3.7871154"><ele>856.0</ele><time>2026-05-02T12:13:44.973Z</time></trkpt><trkpt lat="42.8522103" lon="-3.7870582"><ele>856.0</ele><time>2026-05-02T12:13:45.975Z</time></trkpt><trkpt lat="42.8521253" lon="-3.7870039"><ele>855.9999999999999</ele><time>2026-05-02T12:13:46.98Z</time></trkpt><trkpt lat="42.8520399" lon="-3.7869509"><ele>855.9999999999999</ele><time>2026-05-02T12:13:47.974Z</time></trkpt><trkpt lat="42.8519551" lon="-3.7869001"><ele>856.0</ele><time>2026-05-02T12:13:48.976Z</time></trkpt><trkpt lat="42.8518768" lon="-3.7868492"><ele>856.0</ele><time>2026-05-02T12:13:49.972Z</time></trkpt><trkpt lat="42.8518017" lon="-3.7867948"><ele>855.4999999999999</ele><time>2026-05-02T12:13:50.98Z</time></trkpt><trkpt lat="42.8517237" lon="-3.7867468"><ele>855.0</ele><time>2026-05-02T12:13:51.977Z</time></trkpt><trkpt lat="42.8516557" lon="-3.7866956"><ele>854.5</ele><time>2026-05-02T12:13:52.977Z</time></trkpt><trkpt lat="42.8515816" lon="-3.7866451"><ele>854.0</ele><time>2026-05-02T12:13:53.975Z</time></trkpt><trkpt lat="42.8515115" lon="-3.7865942"><ele>853.4999999999999</ele><time>2026-05-02T12:13:54.981Z</time></trkpt><trkpt lat="42.8514365" lon="-3.7865448"><ele>853.0</ele><time>2026-05-02T12:13:55.978Z</time></trkpt><trkpt lat="42.851363" lon="-3.786494"><ele>852.9999999999999</ele><time>2026-05-02T12:13:56.976Z</time></trkpt><trkpt lat="42.8512895" lon="-3.7864466"><ele>853.0</ele><time>2026-05-02T12:13:57.978Z</time></trkpt><trkpt lat="42.8512154" lon="-3.7863986"><ele>853.0</ele><time>2026-05-02T12:13:58.98Z</time></trkpt><trkpt lat="42.8511408" lon="-3.7863506"><ele>853.0</ele><time>2026-05-02T12:13:59.992Z</time></trkpt><trkpt lat="42.8510701" lon="-3.7863008"><ele>852.9999999999999</ele><time>2026-05-02T12:14:00.975Z</time></trkpt><trkpt lat="42.8509954" lon="-3.7862454"><ele>853.0</ele><time>2026-05-02T12:14:01.973Z</time></trkpt><trkpt lat="42.8509171" lon="-3.7861878"><ele>852.9999999999999</ele><time>2026-05-02T12:14:02.969Z</time></trkpt><trkpt lat="42.8508367" lon="-3.7861302"><ele>853.0</ele><time>2026-05-02T12:14:03.973Z</time></trkpt><trkpt lat="42.8507569" lon="-3.7860723"><ele>853.0</ele><time>2026-05-02T12:14:04.974Z</time></trkpt><trkpt lat="42.8506779" lon="-3.7860196"><ele>853.0</ele><time>2026-05-02T12:14:05.974Z</time></trkpt><trkpt lat="42.8506072" lon="-3.7859705"><ele>852.9999999999999</ele><time>2026-05-02T12:14:06.971Z</time></trkpt><trkpt lat="42.850543" lon="-3.7859343"><ele>853.0</ele><time>2026-05-02T12:14:07.973Z</time></trkpt><trkpt lat="42.8504834" lon="-3.7859022"><ele>852.9999999999999</ele><time>2026-05-02T12:14:08.975Z</time></trkpt><trkpt lat="42.8504233" lon="-3.7858726"><ele>853.0</ele><time>2026-05-02T12:14:09.975Z</time></trkpt><trkpt lat="42.8503116" lon="-3.7858248"><ele>853.0</ele><time>2026-05-02T12:14:11.966Z</time></trkpt><trkpt lat="42.8502339" lon="-3.7858059"><ele>853.0</ele><time>2026-05-02T12:14:13.968Z</time></trkpt><trkpt lat="42.8503204" lon="-3.7857666"><ele>852.9999999999999</ele><time>2026-05-02T12:14:21.97Z</time></trkpt><trkpt lat="42.8503823" lon="-3.7858054"><ele>853.0</ele><time>2026-05-02T12:14:22.968Z</time></trkpt><trkpt lat="42.8504564" lon="-3.7858491"><ele>853.0</ele><time>2026-05-02T12:14:23.965Z</time></trkpt><trkpt lat="42.8505312" lon="-3.7859015"><ele>853.0</ele><time>2026-05-02T12:14:24.961Z</time></trkpt><trkpt lat="42.8506229" lon="-3.7859649"><ele>853.0</ele><time>2026-05-02T12:14:25.967Z</time></trkpt><trkpt lat="42.8507221" lon="-3.7860396"><ele>853.0</ele><time>2026-05-02T12:14:26.967Z</time></trkpt><trkpt lat="42.8508404" lon="-3.7861178"><ele>853.0</ele><time>2026-05-02T12:14:27.969Z</time></trkpt><trkpt lat="42.8509604" lon="-3.7862"><ele>853.0</ele><time>2026-05-02T12:14:28.968Z</time></trkpt><trkpt lat="42.8510875" lon="-3.7862889"><ele>853.0</ele><time>2026-05-02T12:14:29.968Z</time></trkpt><trkpt lat="42.8512171" lon="-3.7863794"><ele>853.0</ele><time>2026-05-02T12:14:30.98Z</time></trkpt><trkpt lat="42.8513558" lon="-3.7864736"><ele>853.0</ele><time>2026-05-02T12:14:31.974Z</time></trkpt><trkpt lat="42.8515065" lon="-3.7865676"><ele>853.0</ele><time>2026-05-02T12:14:32.966Z</time></trkpt><trkpt lat="42.851666" lon="-3.7866688"><ele>853.0</ele><time>2026-05-02T12:14:33.97Z</time></trkpt><trkpt lat="42.8518287" lon="-3.7867738"><ele>853.0</ele><time>2026-05-02T12:14:34.97Z</time></trkpt><trkpt lat="42.8519974" lon="-3.7868751"><ele>854.0</ele><time>2026-05-02T12:14:35.973Z</time></trkpt><trkpt lat="42.852172" lon="-3.786976"><ele>855.0</ele><time>2026-05-02T12:14:36.971Z</time></trkpt><trkpt lat="42.8523433" lon="-3.787084"><ele>856.0</ele><time>2026-05-02T12:14:37.972Z</time></trkpt><trkpt lat="42.8525161" lon="-3.7871912"><ele>857.6666666666666</ele><time>2026-05-02T12:14:38.974Z</time></trkpt><trkpt lat="42.8526898" lon="-3.7873005"><ele>859.3333333333333</ele><time>2026-05-02T12:14:39.971Z</time></trkpt><trkpt lat="42.8528529" lon="-3.787418"><ele>861.0</ele><time>2026-05-02T12:14:40.973Z</time></trkpt><trkpt lat="42.8530183" lon="-3.7875313"><ele>861.0</ele><time>2026-05-02T12:14:41.974Z</time></trkpt><trkpt lat="42.8531813" lon="-3.7876333"><ele>861.0</ele><time>2026-05-02T12:14:42.972Z</time></trkpt><trkpt lat="42.8533502" lon="-3.7877476"><ele>861.0</ele><time>2026-05-02T12:14:43.975Z</time></trkpt><trkpt lat="42.8535242" lon="-3.7878552"><ele>862.6666666666667</ele><time>2026-05-02T12:14:44.974Z</time></trkpt><trkpt lat="42.8537012" lon="-3.7879646"><ele>864.3333333333334</ele><time>2026-05-02T12:14:45.972Z</time></trkpt><trkpt lat="42.8538696" lon="-3.7880766"><ele>866.0</ele><time>2026-05-02T12:14:46.98Z</time></trkpt><trkpt lat="42.8540472" lon="-3.7881905"><ele>866.5</ele><time>2026-05-02T12:14:48.177Z</time></trkpt><trkpt lat="42.8543822" lon="-3.7884158"><ele>867.0</ele><time>2026-05-02T12:14:49.967Z</time></trkpt><trkpt lat="42.8545479" lon="-3.7885231"><ele>867.0</ele><time>2026-05-02T12:14:50.962Z</time></trkpt><trkpt lat="42.854704" lon="-3.7886168"><ele>867.0</ele><time>2026-05-02T12:14:51.962Z</time></trkpt><trkpt lat="42.8548433" lon="-3.7886962"><ele>867.0</ele><time>2026-05-02T12:14:52.964Z</time></trkpt><trkpt lat="42.8549751" lon="-3.78878"><ele>867.0</ele><time>2026-05-02T12:14:53.965Z</time></trkpt><trkpt lat="42.8551018" lon="-3.7888647"><ele>867.0</ele><time>2026-05-02T12:14:54.964Z</time></trkpt><trkpt lat="42.8552184" lon="-3.7889491"><ele>867.0</ele><time>2026-05-02T12:14:55.963Z</time></trkpt><trkpt lat="42.8553315" lon="-3.7890194"><ele>867.0</ele><time>2026-05-02T12:14:56.963Z</time></trkpt><trkpt lat="42.8554398" lon="-3.78908"><ele>867.8333333333334</ele><time>2026-05-02T12:14:57.965Z</time></trkpt><trkpt lat="42.8555406" lon="-3.7891416"><ele>868.6666666666667</ele><time>2026-05-02T12:14:58.968Z</time></trkpt><trkpt lat="42.8556235" lon="-3.789207"><ele>869.5</ele><time>2026-05-02T12:14:59.968Z</time></trkpt><trkpt lat="42.8557076" lon="-3.7892472"><ele>870.3333333333334</ele><time>2026-05-02T12:15:00.964Z</time></trkpt><trkpt lat="42.855778" lon="-3.7892977"><ele>871.1666666666667</ele><time>2026-05-02T12:15:01.971Z</time></trkpt><trkpt lat="42.8558389" lon="-3.7893322"><ele>872.0</ele><time>2026-05-02T12:15:02.965Z</time></trkpt><trkpt lat="42.855913" lon="-3.7893749"><ele>872.0</ele><time>2026-05-02T12:15:04.954Z</time></trkpt><trkpt lat="42.8558624" lon="-3.7894374"><ele>872.0</ele><time>2026-05-02T12:15:12.963Z</time></trkpt><trkpt lat="42.8557982" lon="-3.789402"><ele>872.0</ele><time>2026-05-02T12:17:02.956Z</time></trkpt><trkpt lat="42.8557345" lon="-3.7893385"><ele>872.0</ele><time>2026-05-02T12:17:04.968Z</time></trkpt><trkpt lat="42.855675" lon="-3.7892967"><ele>872.0</ele><time>2026-05-02T12:17:05.954Z</time></trkpt><trkpt lat="42.8556117" lon="-3.7892571"><ele>872.0</ele><time>2026-05-02T12:17:06.966Z</time></trkpt><trkpt lat="42.8555472" lon="-3.7892155"><ele>872.0</ele><time>2026-05-02T12:17:07.959Z</time></trkpt><trkpt lat="42.8554794" lon="-3.7891758"><ele>872.1428571428571</ele><time>2026-05-02T12:17:08.964Z</time></trkpt><trkpt lat="42.8554134" lon="-3.789136"><ele>872.2857142857143</ele><time>2026-05-02T12:17:09.965Z</time></trkpt><trkpt lat="42.8553539" lon="-3.7890959"><ele>872.4285714285713</ele><time>2026-05-02T12:17:10.963Z</time></trkpt><trkpt lat="42.8552909" lon="-3.7890566"><ele>872.5714285714286</ele><time>2026-05-02T12:17:11.964Z</time></trkpt><trkpt lat="42.8552222" lon="-3.7890127"><ele>872.7142857142857</ele><time>2026-05-02T12:17:12.963Z</time></trkpt><trkpt lat="42.8551508" lon="-3.7889664"><ele>872.8571428571428</ele><time>2026-05-02T12:17:13.963Z</time></trkpt><trkpt lat="42.8550799" lon="-3.7889159"><ele>873.0</ele><time>2026-05-02T12:17:14.963Z</time></trkpt><trkpt lat="42.8550071" lon="-3.7888644"><ele>872.0</ele><time>2026-05-02T12:17:15.965Z</time></trkpt><trkpt lat="42.85493" lon="-3.7888191"><ele>871.0</ele><time>2026-05-02T12:17:16.972Z</time></trkpt><trkpt lat="42.8548542" lon="-3.7887757"><ele>870.0</ele><time>2026-05-02T12:17:17.964Z</time></trkpt><trkpt lat="42.8547789" lon="-3.7887285"><ele>869.0</ele><time>2026-05-02T12:17:18.971Z</time></trkpt><trkpt lat="42.8547073" lon="-3.7886797"><ele>868.0</ele><time>2026-05-02T12:17:19.964Z</time></trkpt><trkpt lat="42.8546342" lon="-3.7886317"><ele>867.0</ele><time>2026-05-02T12:17:20.964Z</time></trkpt><trkpt lat="42.8545704" lon="-3.788584"><ele>867.0</ele><time>2026-05-02T12:17:21.964Z</time></trkpt><trkpt lat="42.8545044" lon="-3.7885309"><ele>867.0</ele><time>2026-05-02T12:17:22.964Z</time></trkpt><trkpt lat="42.8544363" lon="-3.7884859"><ele>867.0</ele><time>2026-05-02T12:17:23.964Z</time></trkpt><trkpt lat="42.8543696" lon="-3.7884408"><ele>867.0</ele><time>2026-05-02T12:17:24.965Z</time></trkpt><trkpt lat="42.8543059" lon="-3.7883944"><ele>867.0</ele><time>2026-05-02T12:17:25.971Z</time></trkpt><trkpt lat="42.8542403" lon="-3.7883543"><ele>867.0</ele><time>2026-05-02T12:17:26.965Z</time></trkpt><trkpt lat="42.854173" lon="-3.788314"><ele>867.0</ele><time>2026-05-02T12:17:27.968Z</time></trkpt><trkpt lat="42.8541043" lon="-3.7882722"><ele>866.8571428571428</ele><time>2026-05-02T12:17:28.966Z</time></trkpt><trkpt lat="42.8540401" lon="-3.7882324"><ele>866.7142857142858</ele><time>2026-05-02T12:17:29.97Z</time></trkpt><trkpt lat="42.8539757" lon="-3.7881919"><ele>866.5714285714286</ele><time>2026-05-02T12:17:30.965Z</time></trkpt><trkpt lat="42.8539117" lon="-3.7881541"><ele>866.4285714285713</ele><time>2026-05-02T12:17:31.967Z</time></trkpt><trkpt lat="42.8538443" lon="-3.7881157"><ele>866.2857142857142</ele><time>2026-05-02T12:17:32.967Z</time></trkpt><trkpt lat="42.8537764" lon="-3.7880733"><ele>866.1428571428571</ele><time>2026-05-02T12:17:33.958Z</time></trkpt><trkpt lat="42.8537128" lon="-3.7880328"><ele>866.0</ele><time>2026-05-02T12:17:34.973Z</time></trkpt><trkpt lat="42.8536498" lon="-3.7879877"><ele>865.9999999999999</ele><time>2026-05-02T12:17:35.979Z</time></trkpt><trkpt lat="42.8535845" lon="-3.7879438"><ele>866.0</ele><time>2026-05-02T12:17:36.962Z</time></trkpt><trkpt lat="42.8535163" lon="-3.7879006"><ele>866.0</ele><time>2026-05-02T12:17:37.964Z</time></trkpt><trkpt lat="42.8534517" lon="-3.7878597"><ele>866.0</ele><time>2026-05-02T12:17:38.97Z</time></trkpt><trkpt lat="42.8533869" lon="-3.7878196"><ele>866.0</ele><time>2026-05-02T12:17:39.964Z</time></trkpt><trkpt lat="42.8533232" lon="-3.7877747"><ele>865.9999999999999</ele><time>2026-05-02T12:17:40.963Z</time></trkpt><trkpt lat="42.8532601" lon="-3.7877314"><ele>866.0</ele><time>2026-05-02T12:17:41.962Z</time></trkpt><trkpt lat="42.8531988" lon="-3.7876924"><ele>865.1666666666667</ele><time>2026-05-02T12:17:42.966Z</time></trkpt><trkpt lat="42.8531365" lon="-3.7876501"><ele>864.3333333333334</ele><time>2026-05-02T12:17:43.968Z</time></trkpt><trkpt lat="42.8530727" lon="-3.7876094"><ele>863.5</ele><time>2026-05-02T12:17:44.965Z</time></trkpt><trkpt lat="42.8530108" lon="-3.7875682"><ele>862.6666666666667</ele><time>2026-05-02T12:17:45.965Z</time></trkpt><trkpt lat="42.8529501" lon="-3.7875256"><ele>861.8333333333334</ele><time>2026-05-02T12:17:46.968Z</time></trkpt><trkpt lat="42.8528962" lon="-3.7874755"><ele>861.0</ele><time>2026-05-02T12:17:47.961Z</time></trkpt><trkpt lat="42.8528159" lon="-3.7873762"><ele>861.0</ele><time>2026-05-02T12:17:49.966Z</time></trkpt><trkpt lat="42.8527317" lon="-3.7874052"><ele>860.9999999999999</ele><time>2026-05-02T12:19:20.956Z</time></trkpt><trkpt lat="42.8526207" lon="-3.787317"><ele>860.9999999999999</ele><time>2026-05-02T12:19:22.963Z</time></trkpt><trkpt lat="42.8525491" lon="-3.7872655"><ele>861.0</ele><time>2026-05-02T12:19:23.953Z</time></trkpt><trkpt lat="42.8524697" lon="-3.7872143"><ele>861.0</ele><time>2026-05-02T12:19:24.953Z</time></trkpt><trkpt lat="42.8523797" lon="-3.7871533"><ele>859.75</ele><time>2026-05-02T12:19:25.963Z</time></trkpt><trkpt lat="42.8522844" lon="-3.787086"><ele>858.5</ele><time>2026-05-02T12:19:26.955Z</time></trkpt><trkpt lat="42.8521811" lon="-3.7870187"><ele>857.25</ele><time>2026-05-02T12:19:27.956Z</time></trkpt><trkpt lat="42.8520727" lon="-3.7869516"><ele>856.0</ele><time>2026-05-02T12:19:28.958Z</time></trkpt><trkpt lat="42.851957" lon="-3.7868774"><ele>856.25</ele><time>2026-05-02T12:19:29.954Z</time></trkpt><trkpt lat="42.8518342" lon="-3.7867984"><ele>856.5</ele><time>2026-05-02T12:19:30.963Z</time></trkpt><trkpt lat="42.8517074" lon="-3.7867145"><ele>856.75</ele><time>2026-05-02T12:19:31.96Z</time></trkpt><trkpt lat="42.8515772" lon="-3.7866232"><ele>857.0</ele><time>2026-05-02T12:19:32.957Z</time></trkpt><trkpt lat="42.851446" lon="-3.7865246"><ele>855.6666666666667</ele><time>2026-05-02T12:19:33.962Z</time></trkpt><trkpt lat="42.851298" lon="-3.7864318"><ele>854.3333333333333</ele><time>2026-05-02T12:19:34.962Z</time></trkpt><trkpt lat="42.8511557" lon="-3.7863338"><ele>853.0</ele><time>2026-05-02T12:19:35.965Z</time></trkpt><trkpt lat="42.85101" lon="-3.7862338"><ele>853.0</ele><time>2026-05-02T12:19:36.963Z</time></trkpt><trkpt lat="42.8508582" lon="-3.7861371"><ele>853.0</ele><time>2026-05-02T12:19:37.965Z</time></trkpt><trkpt lat="42.8507055" lon="-3.7860435"><ele>853.0</ele><time>2026-05-02T12:19:38.962Z</time></trkpt><trkpt lat="42.8505453" lon="-3.7859476"><ele>853.0</ele><time>2026-05-02T12:19:39.977Z</time></trkpt><trkpt lat="42.8503831" lon="-3.785847"><ele>853.0</ele><time>2026-05-02T12:19:40.956Z</time></trkpt><trkpt lat="42.8502123" lon="-3.7857441"><ele>853.0</ele><time>2026-05-02T12:19:41.96Z</time></trkpt><trkpt lat="42.8500571" lon="-3.7856333"><ele>851.6666666666666</ele><time>2026-05-02T12:19:42.959Z</time></trkpt><trkpt lat="42.849888" lon="-3.7855257"><ele>850.3333333333333</ele><time>2026-05-02T12:19:43.963Z</time></trkpt><trkpt lat="42.8497251" lon="-3.7854065"><ele>849.0</ele><time>2026-05-02T12:19:44.959Z</time></trkpt><trkpt lat="42.8495748" lon="-3.7852903"><ele>850.0</ele><time>2026-05-02T12:19:45.96Z</time></trkpt><trkpt lat="42.849429" lon="-3.785166"><ele>851.0</ele><time>2026-05-02T12:19:46.96Z</time></trkpt><trkpt lat="42.8492841" lon="-3.7850295"><ele>852.0</ele><time>2026-05-02T12:19:47.961Z</time></trkpt><trkpt lat="42.8491303" lon="-3.784898"><ele>850.0</ele><time>2026-05-02T12:19:48.957Z</time></trkpt><trkpt lat="42.8489742" lon="-3.7847445"><ele>848.0</ele><time>2026-05-02T12:19:49.957Z</time></trkpt><trkpt lat="42.8488211" lon="-3.7845871"><ele>846.0</ele><time>2026-05-02T12:19:50.959Z</time></trkpt><trkpt lat="42.8486632" lon="-3.7844354"><ele>846.0</ele><time>2026-05-02T12:19:51.964Z</time></trkpt><trkpt lat="42.848512" lon="-3.7842869"><ele>846.0</ele><time>2026-05-02T12:19:52.96Z</time></trkpt><trkpt lat="42.8483563" lon="-3.7841398"><ele>846.0</ele><time>2026-05-02T12:19:53.962Z</time></trkpt><trkpt lat="42.8481976" lon="-3.7839892"><ele>844.6666666666667</ele><time>2026-05-02T12:19:54.959Z</time></trkpt><trkpt lat="42.8480351" lon="-3.7838428"><ele>843.3333333333334</ele><time>2026-05-02T12:19:55.958Z</time></trkpt><trkpt lat="42.8478603" lon="-3.7837079"><ele>842.0</ele><time>2026-05-02T12:19:56.953Z</time></trkpt><trkpt lat="42.8476906" lon="-3.7835926"><ele>840.3333333333334</ele><time>2026-05-02T12:19:57.955Z</time></trkpt><trkpt lat="42.8475101" lon="-3.7834967"><ele>838.6666666666667</ele><time>2026-05-02T12:19:58.959Z</time></trkpt><trkpt lat="42.8473289" lon="-3.7834133"><ele>837.0</ele><time>2026-05-02T12:19:59.96Z</time></trkpt><trkpt lat="42.8471386" lon="-3.7833374"><ele>837.0</ele><time>2026-05-02T12:20:00.956Z</time></trkpt><trkpt lat="42.8469486" lon="-3.7832788"><ele>837.0</ele><time>2026-05-02T12:20:01.948Z</time></trkpt><trkpt lat="42.8467561" lon="-3.7832324"><ele>837.0</ele><time>2026-05-02T12:20:02.957Z</time></trkpt><trkpt lat="42.8465543" lon="-3.7832083"><ele>835.6666666666667</ele><time>2026-05-02T12:20:03.955Z</time></trkpt><trkpt lat="42.8463588" lon="-3.7832102"><ele>834.3333333333334</ele><time>2026-05-02T12:20:04.953Z</time></trkpt><trkpt lat="42.8461669" lon="-3.7832184"><ele>833.0</ele><time>2026-05-02T12:20:05.956Z</time></trkpt><trkpt lat="42.8459635" lon="-3.7832118"><ele>830.6666666666667</ele><time>2026-05-02T12:20:06.953Z</time></trkpt><trkpt lat="42.8457689" lon="-3.7831949"><ele>828.3333333333333</ele><time>2026-05-02T12:20:07.959Z</time></trkpt><trkpt lat="42.845579" lon="-3.7831887"><ele>826.0</ele><time>2026-05-02T12:20:08.96Z</time></trkpt><trkpt lat="42.8453884" lon="-3.7831903"><ele>826.0</ele><time>2026-05-02T12:20:09.951Z</time></trkpt><trkpt lat="42.8451966" lon="-3.7831721"><ele>826.0</ele><time>2026-05-02T12:20:10.967Z</time></trkpt><trkpt lat="42.8450108" lon="-3.7831338"><ele>826.0</ele><time>2026-05-02T12:20:11.96Z</time></trkpt><trkpt lat="42.8448404" lon="-3.7830805"><ele>829.0</ele><time>2026-05-02T12:20:12.952Z</time></trkpt><trkpt lat="42.8446711" lon="-3.7830095"><ele>832.0</ele><time>2026-05-02T12:20:13.955Z</time></trkpt><trkpt lat="42.8444971" lon="-3.7829243"><ele>835.0</ele><time>2026-05-02T12:20:14.961Z</time></trkpt><trkpt lat="42.8443435" lon="-3.7828018"><ele>837.6666666666666</ele><time>2026-05-02T12:20:15.96Z</time></trkpt><trkpt lat="42.8441897" lon="-3.7826695"><ele>840.3333333333333</ele><time>2026-05-02T12:20:16.966Z</time></trkpt><trkpt lat="42.8440527" lon="-3.7825337"><ele>843.0</ele><time>2026-05-02T12:20:17.961Z</time></trkpt><trkpt lat="42.8439237" lon="-3.7823665"><ele>843.0</ele><time>2026-05-02T12:20:18.953Z</time></trkpt><trkpt lat="42.8437918" lon="-3.7821951"><ele>843.0</ele><time>2026-05-02T12:20:19.958Z</time></trkpt><trkpt lat="42.8436628" lon="-3.7819985"><ele>843.0</ele><time>2026-05-02T12:20:20.954Z</time></trkpt><trkpt lat="42.8435364" lon="-3.7818064"><ele>842.6666666666667</ele><time>2026-05-02T12:20:21.956Z</time></trkpt><trkpt lat="42.8434243" lon="-3.7816177"><ele>842.3333333333334</ele><time>2026-05-02T12:20:22.956Z</time></trkpt><trkpt lat="42.8433172" lon="-3.7814258"><ele>842.0</ele><time>2026-05-02T12:20:23.964Z</time></trkpt><trkpt lat="42.8432101" lon="-3.7812356"><ele>842.0</ele><time>2026-05-02T12:20:24.96Z</time></trkpt><trkpt lat="42.8430945" lon="-3.7810528"><ele>842.0</ele><time>2026-05-02T12:20:25.958Z</time></trkpt><trkpt lat="42.8429639" lon="-3.7808882"><ele>842.0</ele><time>2026-05-02T12:20:26.964Z</time></trkpt><trkpt lat="42.8428176" lon="-3.7807287"><ele>842.3333333333334</ele><time>2026-05-02T12:20:27.969Z</time></trkpt><trkpt lat="42.8426736" lon="-3.7805952"><ele>842.6666666666667</ele><time>2026-05-02T12:20:28.97Z</time></trkpt><trkpt lat="42.8425121" lon="-3.7804805"><ele>843.0</ele><time>2026-05-02T12:20:29.967Z</time></trkpt><trkpt lat="42.8423445" lon="-3.7803918"><ele>843.0</ele><time>2026-05-02T12:20:30.96Z</time></trkpt><trkpt lat="42.8421867" lon="-3.7803183"><ele>843.0</ele><time>2026-05-02T12:20:31.963Z</time></trkpt><trkpt lat="42.8420211" lon="-3.7802611"><ele>843.0</ele><time>2026-05-02T12:20:32.965Z</time></trkpt><trkpt lat="42.8418582" lon="-3.7801923"><ele>846.0</ele><time>2026-05-02T12:20:33.961Z</time></trkpt><trkpt lat="42.8416937" lon="-3.7801218"><ele>849.0</ele><time>2026-05-02T12:20:34.959Z</time></trkpt><trkpt lat="42.8415262" lon="-3.7800466"><ele>852.0</ele><time>2026-05-02T12:20:35.961Z</time></trkpt><trkpt lat="42.8413645" lon="-3.7799595"><ele>852.0</ele><time>2026-05-02T12:20:36.952Z</time></trkpt><trkpt lat="42.8412152" lon="-3.7798612"><ele>852.0</ele><time>2026-05-02T12:20:37.961Z</time></trkpt><trkpt lat="42.8410683" lon="-3.7797423"><ele>852.0</ele><time>2026-05-02T12:20:38.956Z</time></trkpt><trkpt lat="42.8409345" lon="-3.7796151"><ele>852.0</ele><time>2026-05-02T12:20:39.96Z</time></trkpt><trkpt lat="42.8408026" lon="-3.779467"><ele>852.0</ele><time>2026-05-02T12:20:40.961Z</time></trkpt><trkpt lat="42.8406864" lon="-3.7793145"><ele>852.0</ele><time>2026-05-02T12:20:41.976Z</time></trkpt><trkpt lat="42.8405737" lon="-3.7791444"><ele>852.0</ele><time>2026-05-02T12:20:42.962Z</time></trkpt><trkpt lat="42.8404635" lon="-3.7789623"><ele>852.0</ele><time>2026-05-02T12:20:43.963Z</time></trkpt><trkpt lat="42.8403741" lon="-3.7787687"><ele>852.0</ele><time>2026-05-02T12:20:44.959Z</time></trkpt><trkpt lat="42.8402856" lon="-3.7785601"><ele>852.3333333333333</ele><time>2026-05-02T12:20:45.958Z</time></trkpt><trkpt lat="42.8401985" lon="-3.7783401"><ele>852.6666666666666</ele><time>2026-05-02T12:20:46.961Z</time></trkpt><trkpt lat="42.8401153" lon="-3.778123"><ele>853.0</ele><time>2026-05-02T12:20:47.958Z</time></trkpt><trkpt lat="42.8400312" lon="-3.7779148"><ele>849.6666666666666</ele><time>2026-05-02T12:20:48.963Z</time></trkpt><trkpt lat="42.8399484" lon="-3.7777083"><ele>846.3333333333333</ele><time>2026-05-02T12:20:49.956Z</time></trkpt><trkpt lat="42.8398641" lon="-3.7774968"><ele>843.0</ele><time>2026-05-02T12:20:50.956Z</time></trkpt><trkpt lat="42.8397516" lon="-3.7772927"><ele>843.0</ele><time>2026-05-02T12:20:51.964Z</time></trkpt><trkpt lat="42.8396295" lon="-3.7771049"><ele>843.0</ele><time>2026-05-02T12:20:52.947Z</time></trkpt><trkpt lat="42.8395143" lon="-3.7769473"><ele>843.0</ele><time>2026-05-02T12:20:53.957Z</time></trkpt><trkpt lat="42.8393794" lon="-3.7767988"><ele>842.0</ele><time>2026-05-02T12:20:54.945Z</time></trkpt><trkpt lat="42.8392419" lon="-3.7766799"><ele>841.0</ele><time>2026-05-02T12:20:55.961Z</time></trkpt><trkpt lat="42.8390936" lon="-3.776585"><ele>840.0</ele><time>2026-05-02T12:20:56.96Z</time></trkpt><trkpt lat="42.8389446" lon="-3.7765063"><ele>840.0</ele><time>2026-05-02T12:20:57.963Z</time></trkpt><trkpt lat="42.8387949" lon="-3.7764546"><ele>840.0</ele><time>2026-05-02T12:20:58.959Z</time></trkpt><trkpt lat="42.8386499" lon="-3.7764139"><ele>840.0</ele><time>2026-05-02T12:20:59.96Z</time></trkpt><trkpt lat="42.838497" lon="-3.776392"><ele>841.6666666666667</ele><time>2026-05-02T12:21:00.95Z</time></trkpt><trkpt lat="42.8383492" lon="-3.7763892"><ele>843.3333333333334</ele><time>2026-05-02T12:21:01.958Z</time></trkpt><trkpt lat="42.8381928" lon="-3.7763866"><ele>845.0</ele><time>2026-05-02T12:21:02.959Z</time></trkpt><trkpt lat="42.838042" lon="-3.7763983"><ele>845.0</ele><time>2026-05-02T12:21:03.959Z</time></trkpt><trkpt lat="42.8378985" lon="-3.7764218"><ele>845.0</ele><time>2026-05-02T12:21:04.956Z</time></trkpt><trkpt lat="42.8377471" lon="-3.7764375"><ele>845.0</ele><time>2026-05-02T12:21:05.96Z</time></trkpt><trkpt lat="42.837603" lon="-3.7764504"><ele>845.0</ele><time>2026-05-02T12:21:06.963Z</time></trkpt><trkpt lat="42.8374575" lon="-3.7764693"><ele>847.25</ele><time>2026-05-02T12:21:07.96Z</time></trkpt><trkpt lat="42.8373167" lon="-3.7764761"><ele>849.5</ele><time>2026-05-02T12:21:08.964Z</time></trkpt><trkpt lat="42.8371738" lon="-3.7764829"><ele>851.75</ele><time>2026-05-02T12:21:09.96Z</time></trkpt><trkpt lat="42.8370373" lon="-3.7764831"><ele>854.0</ele><time>2026-05-02T12:21:10.96Z</time></trkpt><trkpt lat="42.8368917" lon="-3.7764825"><ele>855.0</ele><time>2026-05-02T12:21:11.958Z</time></trkpt><trkpt lat="42.8367549" lon="-3.7764761"><ele>856.0</ele><time>2026-05-02T12:21:12.969Z</time></trkpt><trkpt lat="42.83662" lon="-3.7764622"><ele>857.0</ele><time>2026-05-02T12:21:13.964Z</time></trkpt><trkpt lat="42.8364789" lon="-3.7764355"><ele>858.0</ele><time>2026-05-02T12:21:14.963Z</time></trkpt><trkpt lat="42.8363462" lon="-3.7764082"><ele>858.0</ele><time>2026-05-02T12:21:15.962Z</time></trkpt><trkpt lat="42.8362081" lon="-3.7763737"><ele>858.0</ele><time>2026-05-02T12:21:16.967Z</time></trkpt><trkpt lat="42.8360667" lon="-3.7763339"><ele>858.0</ele><time>2026-05-02T12:21:17.958Z</time></trkpt><trkpt lat="42.8359245" lon="-3.7762939"><ele>858.0</ele><time>2026-05-02T12:21:18.958Z</time></trkpt><trkpt lat="42.8357815" lon="-3.7762493"><ele>857.75</ele><time>2026-05-02T12:21:19.957Z</time></trkpt><trkpt lat="42.8356465" lon="-3.7762141"><ele>857.5</ele><time>2026-05-02T12:21:20.958Z</time></trkpt><trkpt lat="42.8355091" lon="-3.7761663"><ele>857.25</ele><time>2026-05-02T12:21:21.961Z</time></trkpt><trkpt lat="42.8353805" lon="-3.7761199"><ele>857.0</ele><time>2026-05-02T12:21:22.96Z</time></trkpt><trkpt lat="42.8352458" lon="-3.7760793"><ele>857.25</ele><time>2026-05-02T12:21:23.955Z</time></trkpt><trkpt lat="42.8351047" lon="-3.7760438"><ele>857.5</ele><time>2026-05-02T12:21:24.957Z</time></trkpt><trkpt lat="42.8349746" lon="-3.7760045"><ele>857.75</ele><time>2026-05-02T12:21:25.959Z</time></trkpt><trkpt lat="42.8348399" lon="-3.7759641"><ele>858.0</ele><time>2026-05-02T12:21:26.956Z</time></trkpt><trkpt lat="42.8346993" lon="-3.7759235"><ele>860.5</ele><time>2026-05-02T12:21:27.957Z</time></trkpt><trkpt lat="42.8345623" lon="-3.7758845"><ele>863.0</ele><time>2026-05-02T12:21:28.957Z</time></trkpt><trkpt lat="42.8344262" lon="-3.7758416"><ele>865.5</ele><time>2026-05-02T12:21:29.96Z</time></trkpt><trkpt lat="42.8342913" lon="-3.7757906"><ele>868.0</ele><time>2026-05-02T12:21:30.958Z</time></trkpt><trkpt lat="42.8341604" lon="-3.7757508"><ele>868.0</ele><time>2026-05-02T12:21:31.956Z</time></trkpt><trkpt lat="42.8340241" lon="-3.7757102"><ele>868.0</ele><time>2026-05-02T12:21:32.957Z</time></trkpt><trkpt lat="42.8338912" lon="-3.7756682"><ele>868.0</ele><time>2026-05-02T12:21:33.956Z</time></trkpt><trkpt lat="42.8337628" lon="-3.7756226"><ele>868.0</ele><time>2026-05-02T12:21:34.959Z</time></trkpt><trkpt lat="42.833624" lon="-3.77558"><ele>868.0</ele><time>2026-05-02T12:21:35.957Z</time></trkpt><trkpt lat="42.8334909" lon="-3.7755405"><ele>868.0</ele><time>2026-05-02T12:21:36.96Z</time></trkpt><trkpt lat="42.8333559" lon="-3.7755035"><ele>868.0</ele><time>2026-05-02T12:21:37.958Z</time></trkpt><trkpt lat="42.8332137" lon="-3.7754674"><ele>868.0</ele><time>2026-05-02T12:21:38.966Z</time></trkpt><trkpt lat="42.8330642" lon="-3.7754246"><ele>867.3333333333333</ele><time>2026-05-02T12:21:39.961Z</time></trkpt><trkpt lat="42.8329169" lon="-3.775376"><ele>866.6666666666667</ele><time>2026-05-02T12:21:40.968Z</time></trkpt><trkpt lat="42.8327701" lon="-3.7753335"><ele>866.0</ele><time>2026-05-02T12:21:41.964Z</time></trkpt><trkpt lat="42.8326246" lon="-3.7752956"><ele>866.6666666666667</ele><time>2026-05-02T12:21:42.963Z</time></trkpt><trkpt lat="42.8324803" lon="-3.7752474"><ele>867.3333333333333</ele><time>2026-05-02T12:21:43.977Z</time></trkpt><trkpt lat="42.8323342" lon="-3.7751986"><ele>868.0</ele><time>2026-05-02T12:21:44.965Z</time></trkpt><trkpt lat="42.8321846" lon="-3.7751503"><ele>868.0</ele><time>2026-05-02T12:21:45.965Z</time></trkpt><trkpt lat="42.8320349" lon="-3.7751058"><ele>868.0</ele><time>2026-05-02T12:21:46.97Z</time></trkpt><trkpt lat="42.8318821" lon="-3.7750615"><ele>868.0</ele><time>2026-05-02T12:21:47.966Z</time></trkpt><trkpt lat="42.8317342" lon="-3.7750188"><ele>867.0</ele><time>2026-05-02T12:21:48.965Z</time></trkpt><trkpt lat="42.8315806" lon="-3.7749758"><ele>866.0</ele><time>2026-05-02T12:21:49.964Z</time></trkpt><trkpt lat="42.8314287" lon="-3.7749318"><ele>865.0</ele><time>2026-05-02T12:21:50.965Z</time></trkpt><trkpt lat="42.8312766" lon="-3.7748847"><ele>865.0</ele><time>2026-05-02T12:21:51.961Z</time></trkpt><trkpt lat="42.8311223" lon="-3.7748409"><ele>865.0</ele><time>2026-05-02T12:21:52.964Z</time></trkpt><trkpt lat="42.8309659" lon="-3.7747985"><ele>865.0</ele><time>2026-05-02T12:21:53.954Z</time></trkpt><trkpt lat="42.8308113" lon="-3.7747637"><ele>864.3333333333333</ele><time>2026-05-02T12:21:54.96Z</time></trkpt><trkpt lat="42.8306599" lon="-3.7747136"><ele>863.6666666666667</ele><time>2026-05-02T12:21:55.961Z</time></trkpt><trkpt lat="42.8305042" lon="-3.7746654"><ele>863.0</ele><time>2026-05-02T12:21:56.959Z</time></trkpt><trkpt lat="42.8303451" lon="-3.7746183"><ele>863.0</ele><time>2026-05-02T12:21:57.962Z</time></trkpt><trkpt lat="42.8301904" lon="-3.7745803"><ele>863.0</ele><time>2026-05-02T12:21:58.96Z</time></trkpt><trkpt lat="42.830034" lon="-3.7745378"><ele>863.0</ele><time>2026-05-02T12:21:59.961Z</time></trkpt><trkpt lat="42.8298741" lon="-3.7744991"><ele>861.6666666666667</ele><time>2026-05-02T12:22:00.958Z</time></trkpt><trkpt lat="42.8297145" lon="-3.7744586"><ele>860.3333333333333</ele><time>2026-05-02T12:22:01.953Z</time></trkpt><trkpt lat="42.8295653" lon="-3.7744115"><ele>859.0</ele><time>2026-05-02T12:22:02.956Z</time></trkpt><trkpt lat="42.8294182" lon="-3.7743658"><ele>862.0</ele><time>2026-05-02T12:22:03.958Z</time></trkpt><trkpt lat="42.8292668" lon="-3.7743203"><ele>865.0</ele><time>2026-05-02T12:22:04.953Z</time></trkpt><trkpt lat="42.8291177" lon="-3.7742788"><ele>868.0</ele><time>2026-05-02T12:22:05.956Z</time></trkpt><trkpt lat="42.8289699" lon="-3.7742362"><ele>868.0</ele><time>2026-05-02T12:22:06.951Z</time></trkpt><trkpt lat="42.828829" lon="-3.7741867"><ele>868.0</ele><time>2026-05-02T12:22:07.954Z</time></trkpt><trkpt lat="42.8286846" lon="-3.7741472"><ele>868.0</ele><time>2026-05-02T12:22:08.957Z</time></trkpt><trkpt lat="42.8285441" lon="-3.7741104"><ele>868.0</ele><time>2026-05-02T12:22:09.956Z</time></trkpt><trkpt lat="42.8283956" lon="-3.7740789"><ele>867.5</ele><time>2026-05-02T12:22:10.955Z</time></trkpt><trkpt lat="42.8282512" lon="-3.7740447"><ele>867.0</ele><time>2026-05-02T12:22:11.957Z</time></trkpt><trkpt lat="42.8281061" lon="-3.77401"><ele>866.5</ele><time>2026-05-02T12:22:12.957Z</time></trkpt><trkpt lat="42.8279616" lon="-3.773974"><ele>866.0</ele><time>2026-05-02T12:22:13.957Z</time></trkpt><trkpt lat="42.8278193" lon="-3.7739427"><ele>866.0</ele><time>2026-05-02T12:22:14.974Z</time></trkpt><trkpt lat="42.8276755" lon="-3.7739006"><ele>866.0</ele><time>2026-05-02T12:22:15.958Z</time></trkpt><trkpt lat="42.8275415" lon="-3.7738483"><ele>866.0</ele><time>2026-05-02T12:22:16.958Z</time></trkpt><trkpt lat="42.827407" lon="-3.773777"><ele>866.0</ele><time>2026-05-02T12:22:17.956Z</time></trkpt><trkpt lat="42.8272799" lon="-3.7736861"><ele>866.0</ele><time>2026-05-02T12:22:18.959Z</time></trkpt><trkpt lat="42.827162" lon="-3.7735873"><ele>866.0</ele><time>2026-05-02T12:22:19.955Z</time></trkpt><trkpt lat="42.8270486" lon="-3.7734869"><ele>866.0</ele><time>2026-05-02T12:22:20.957Z</time></trkpt><trkpt lat="42.8269383" lon="-3.7733881"><ele>866.0</ele><time>2026-05-02T12:22:21.953Z</time></trkpt><trkpt lat="42.8268451" lon="-3.7732862"><ele>866.4</ele><time>2026-05-02T12:22:22.952Z</time></trkpt><trkpt lat="42.8267526" lon="-3.7731786"><ele>866.8</ele><time>2026-05-02T12:22:23.955Z</time></trkpt><trkpt lat="42.8266667" lon="-3.7730798"><ele>867.1999999999999</ele><time>2026-05-02T12:22:24.956Z</time></trkpt><trkpt lat="42.8266013" lon="-3.7730019"><ele>867.5999999999999</ele><time>2026-05-02T12:22:25.962Z</time></trkpt><trkpt lat="42.8265474" lon="-3.7729359"><ele>868.0</ele><time>2026-05-02T12:22:26.959Z</time></trkpt><trkpt lat="42.8264722" lon="-3.7728348"><ele>868.0</ele><time>2026-05-02T12:22:28.959Z</time></trkpt><trkpt lat="42.8264153" lon="-3.772779"><ele>868.0</ele><time>2026-05-02T12:22:31.954Z</time></trkpt><trkpt lat="42.8263529" lon="-3.7727017"><ele>868.0</ele><time>2026-05-02T12:22:57.959Z</time></trkpt><trkpt lat="42.8262591" lon="-3.7725754"><ele>868.0</ele><time>2026-05-02T12:22:59.956Z</time></trkpt><trkpt lat="42.826202" lon="-3.772503"><ele>868.0</ele><time>2026-05-02T12:23:00.95Z</time></trkpt><trkpt lat="42.8261364" lon="-3.7724216"><ele>867.8</ele><time>2026-05-02T12:23:01.957Z</time></trkpt><trkpt lat="42.8260682" lon="-3.7723344"><ele>867.5999999999999</ele><time>2026-05-02T12:23:02.956Z</time></trkpt><trkpt lat="42.8259935" lon="-3.7722413"><ele>867.4000000000001</ele><time>2026-05-02T12:23:03.956Z</time></trkpt><trkpt lat="42.8259136" lon="-3.7721456"><ele>867.2</ele><time>2026-05-02T12:23:04.958Z</time></trkpt><trkpt lat="42.8258337" lon="-3.7720479"><ele>867.0</ele><time>2026-05-02T12:23:05.956Z</time></trkpt><trkpt lat="42.8257508" lon="-3.7719477"><ele>867.75</ele><time>2026-05-02T12:23:06.964Z</time></trkpt><trkpt lat="42.8256639" lon="-3.7718447"><ele>868.5</ele><time>2026-05-02T12:23:07.963Z</time></trkpt><trkpt lat="42.8255799" lon="-3.7717397"><ele>869.25</ele><time>2026-05-02T12:23:08.975Z</time></trkpt><trkpt lat="42.8254998" lon="-3.7716313"><ele>870.0</ele><time>2026-05-02T12:23:09.959Z</time></trkpt><trkpt lat="42.8254233" lon="-3.7715162"><ele>870.0</ele><time>2026-05-02T12:23:10.96Z</time></trkpt><trkpt lat="42.8253474" lon="-3.7713942"><ele>870.0</ele><time>2026-05-02T12:23:11.961Z</time></trkpt><trkpt lat="42.8252706" lon="-3.7712737"><ele>870.0</ele><time>2026-05-02T12:23:12.961Z</time></trkpt><trkpt lat="42.8251946" lon="-3.7711493"><ele>870.0</ele><time>2026-05-02T12:23:13.961Z</time></trkpt><trkpt lat="42.8251244" lon="-3.7710238"><ele>869.0</ele><time>2026-05-02T12:23:14.96Z</time></trkpt><trkpt lat="42.8250583" lon="-3.7708959"><ele>868.0</ele><time>2026-05-02T12:23:15.958Z</time></trkpt><trkpt lat="42.8249928" lon="-3.7707679"><ele>867.0</ele><time>2026-05-02T12:23:16.975Z</time></trkpt><trkpt lat="42.8249253" lon="-3.770647"><ele>866.0</ele><time>2026-05-02T12:23:17.959Z</time></trkpt><trkpt lat="42.8248616" lon="-3.7705259"><ele>866.0</ele><time>2026-05-02T12:23:18.958Z</time></trkpt><trkpt lat="42.8247951" lon="-3.7704079"><ele>865.9999999999999</ele><time>2026-05-02T12:23:19.958Z</time></trkpt><trkpt lat="42.8247335" lon="-3.770286"><ele>865.9999999999999</ele><time>2026-05-02T12:23:20.961Z</time></trkpt><trkpt lat="42.8246721" lon="-3.7701638"><ele>866.0</ele><time>2026-05-02T12:23:21.961Z</time></trkpt><trkpt lat="42.8246176" lon="-3.7700425"><ele>866.0</ele><time>2026-05-02T12:23:22.957Z</time></trkpt><trkpt lat="42.8245565" lon="-3.7699267"><ele>865.5999999999999</ele><time>2026-05-02T12:23:23.956Z</time></trkpt><trkpt lat="42.8244958" lon="-3.7698098"><ele>865.1999999999999</ele><time>2026-05-02T12:23:24.967Z</time></trkpt><trkpt lat="42.8244326" lon="-3.7696956"><ele>864.8000000000001</ele><time>2026-05-02T12:23:25.963Z</time></trkpt><trkpt lat="42.8243715" lon="-3.7695836"><ele>864.4000000000001</ele><time>2026-05-02T12:23:26.959Z</time></trkpt><trkpt lat="42.8243096" lon="-3.7694733"><ele>864.0</ele><time>2026-05-02T12:23:27.962Z</time></trkpt><trkpt lat="42.82425" lon="-3.7693635"><ele>863.4000000000001</ele><time>2026-05-02T12:23:28.96Z</time></trkpt><trkpt lat="42.824193" lon="-3.7692587"><ele>862.8000000000001</ele><time>2026-05-02T12:23:29.958Z</time></trkpt><trkpt lat="42.8241299" lon="-3.7691483"><ele>862.1999999999999</ele><time>2026-05-02T12:23:30.956Z</time></trkpt><trkpt lat="42.8240709" lon="-3.7690388"><ele>861.5999999999999</ele><time>2026-05-02T12:23:31.955Z</time></trkpt><trkpt lat="42.8240101" lon="-3.7689324"><ele>861.0</ele><time>2026-05-02T12:23:32.956Z</time></trkpt><trkpt lat="42.8239508" lon="-3.7688248"><ele>861.0</ele><time>2026-05-02T12:23:33.954Z</time></trkpt><trkpt lat="42.8238875" lon="-3.7687115"><ele>860.9999999999999</ele><time>2026-05-02T12:23:34.951Z</time></trkpt><trkpt lat="42.8238272" lon="-3.7685945"><ele>860.9999999999999</ele><time>2026-05-02T12:23:35.952Z</time></trkpt><trkpt lat="42.8237655" lon="-3.7684732"><ele>861.0</ele><time>2026-05-02T12:23:36.951Z</time></trkpt><trkpt lat="42.8236961" lon="-3.7683475"><ele>861.0</ele><time>2026-05-02T12:23:37.954Z</time></trkpt><trkpt lat="42.8236295" lon="-3.7682212"><ele>861.5</ele><time>2026-05-02T12:23:38.96Z</time></trkpt><trkpt lat="42.8235573" lon="-3.7680933"><ele>862.0</ele><time>2026-05-02T12:23:39.955Z</time></trkpt><trkpt lat="42.8234841" lon="-3.7679664"><ele>862.5</ele><time>2026-05-02T12:23:40.956Z</time></trkpt><trkpt lat="42.8234155" lon="-3.767843"><ele>863.0</ele><time>2026-05-02T12:23:41.957Z</time></trkpt><trkpt lat="42.8233477" lon="-3.7677238"><ele>860.8</ele><time>2026-05-02T12:23:42.954Z</time></trkpt><trkpt lat="42.8232808" lon="-3.7675996"><ele>858.5999999999999</ele><time>2026-05-02T12:23:43.956Z</time></trkpt><trkpt lat="42.8232163" lon="-3.7674787"><ele>856.4000000000001</ele><time>2026-05-02T12:23:44.955Z</time></trkpt><trkpt lat="42.8231449" lon="-3.7673634"><ele>854.2</ele><time>2026-05-02T12:23:45.948Z</time></trkpt><trkpt lat="42.823066" lon="-3.7672569"><ele>852.0</ele><time>2026-05-02T12:23:46.956Z</time></trkpt><trkpt lat="42.8229785" lon="-3.7671671"><ele>852.0</ele><time>2026-05-02T12:23:47.969Z</time></trkpt><trkpt lat="42.822882" lon="-3.7671023"><ele>852.0</ele><time>2026-05-02T12:23:48.946Z</time></trkpt><trkpt lat="42.8227803" lon="-3.7670467"><ele>852.0</ele><time>2026-05-02T12:23:49.947Z</time></trkpt><trkpt lat="42.8226715" lon="-3.7670002"><ele>852.0</ele><time>2026-05-02T12:23:50.952Z</time></trkpt><trkpt lat="42.8225641" lon="-3.7669575"><ele>852.0</ele><time>2026-05-02T12:23:51.952Z</time></trkpt><trkpt lat="42.8224545" lon="-3.7669154"><ele>852.2</ele><time>2026-05-02T12:23:52.947Z</time></trkpt><trkpt lat="42.8223515" lon="-3.7668682"><ele>852.4000000000001</ele><time>2026-05-02T12:23:53.951Z</time></trkpt><trkpt lat="42.8222438" lon="-3.7668196"><ele>852.5999999999999</ele><time>2026-05-02T12:23:54.95Z</time></trkpt><trkpt lat="42.8221409" lon="-3.7667717"><ele>852.8</ele><time>2026-05-02T12:23:55.951Z</time></trkpt><trkpt lat="42.8220454" lon="-3.7667232"><ele>853.0</ele><time>2026-05-02T12:23:56.95Z</time></trkpt><trkpt lat="42.8219545" lon="-3.76667"><ele>852.4</ele><time>2026-05-02T12:23:57.953Z</time></trkpt><trkpt lat="42.8218616" lon="-3.7666217"><ele>851.8</ele><time>2026-05-02T12:23:58.954Z</time></trkpt><trkpt lat="42.821765" lon="-3.7665781"><ele>851.2</ele><time>2026-05-02T12:23:59.953Z</time></trkpt><trkpt lat="42.8216689" lon="-3.7665484"><ele>850.6</ele><time>2026-05-02T12:24:00.951Z</time></trkpt><trkpt lat="42.8215712" lon="-3.7665428"><ele>850.0</ele><time>2026-05-02T12:24:01.948Z</time></trkpt><trkpt lat="42.8214671" lon="-3.7665578"><ele>848.5</ele><time>2026-05-02T12:24:02.948Z</time></trkpt><trkpt lat="42.821359" lon="-3.7665993"><ele>847.0</ele><time>2026-05-02T12:24:03.947Z</time></trkpt><trkpt lat="42.8212505" lon="-3.7666551"><ele>845.5</ele><time>2026-05-02T12:24:04.952Z</time></trkpt><trkpt lat="42.8211539" lon="-3.7667381"><ele>844.0</ele><time>2026-05-02T12:24:05.95Z</time></trkpt><trkpt lat="42.8210743" lon="-3.7668515"><ele>845.5</ele><time>2026-05-02T12:24:06.952Z</time></trkpt><trkpt lat="42.8210125" lon="-3.7669901"><ele>847.0</ele><time>2026-05-02T12:24:07.939Z</time></trkpt><trkpt lat="42.8209608" lon="-3.7671342"><ele>848.5</ele><time>2026-05-02T12:24:08.944Z</time></trkpt><trkpt lat="42.8209159" lon="-3.7672726"><ele>850.0</ele><time>2026-05-02T12:24:09.952Z</time></trkpt><trkpt lat="42.8208696" lon="-3.7674068"><ele>848.6</ele><time>2026-05-02T12:24:10.948Z</time></trkpt><trkpt lat="42.8208208" lon="-3.76753"><ele>847.2</ele><time>2026-05-02T12:24:11.95Z</time></trkpt><trkpt lat="42.8207577" lon="-3.7676378"><ele>845.8</ele><time>2026-05-02T12:24:12.944Z</time></trkpt><trkpt lat="42.8206811" lon="-3.7677311"><ele>844.4</ele><time>2026-05-02T12:24:13.948Z</time></trkpt><trkpt lat="42.8205925" lon="-3.767802"><ele>843.0</ele><time>2026-05-02T12:24:14.95Z</time></trkpt><trkpt lat="42.8204993" lon="-3.7678601"><ele>843.0</ele><time>2026-05-02T12:24:15.951Z</time></trkpt><trkpt lat="42.8203984" lon="-3.7678969"><ele>843.0</ele><time>2026-05-02T12:24:16.954Z</time></trkpt><trkpt lat="42.8202909" lon="-3.7679139"><ele>843.0</ele><time>2026-05-02T12:24:17.956Z</time></trkpt><trkpt lat="42.8201775" lon="-3.7679085"><ele>843.0</ele><time>2026-05-02T12:24:18.966Z</time></trkpt><trkpt lat="42.8200588" lon="-3.767884"><ele>843.0</ele><time>2026-05-02T12:24:19.951Z</time></trkpt><trkpt lat="42.8199361" lon="-3.7678553"><ele>841.75</ele><time>2026-05-02T12:24:20.951Z</time></trkpt><trkpt lat="42.8198142" lon="-3.7678434"><ele>840.5</ele><time>2026-05-02T12:24:21.95Z</time></trkpt><trkpt lat="42.8196864" lon="-3.7678462"><ele>839.25</ele><time>2026-05-02T12:24:22.956Z</time></trkpt><trkpt lat="42.8195553" lon="-3.7678687"><ele>838.0</ele><time>2026-05-02T12:24:23.95Z</time></trkpt><trkpt lat="42.8194276" lon="-3.7679148"><ele>835.0</ele><time>2026-05-02T12:24:24.946Z</time></trkpt><trkpt lat="42.8192994" lon="-3.7679758"><ele>832.0</ele><time>2026-05-02T12:24:25.953Z</time></trkpt><trkpt lat="42.8191753" lon="-3.7680472"><ele>829.0</ele><time>2026-05-02T12:24:26.947Z</time></trkpt><trkpt lat="42.8190471" lon="-3.7681302"><ele>826.0</ele><time>2026-05-02T12:24:27.948Z</time></trkpt><trkpt lat="42.8189306" lon="-3.7682353"><ele>826.0</ele><time>2026-05-02T12:24:28.95Z</time></trkpt><trkpt lat="42.8187226" lon="-3.7684952"><ele>826.0</ele><time>2026-05-02T12:24:30.955Z</time></trkpt><trkpt lat="42.8186283" lon="-3.7686369"><ele>826.0</ele><time>2026-05-02T12:24:31.945Z</time></trkpt><trkpt lat="42.8185466" lon="-3.7687829"><ele>824.4</ele><time>2026-05-02T12:24:32.95Z</time></trkpt><trkpt lat="42.8184792" lon="-3.7689287"><ele>822.8</ele><time>2026-05-02T12:24:33.953Z</time></trkpt><trkpt lat="42.8184127" lon="-3.7690592"><ele>821.1999999999999</ele><time>2026-05-02T12:24:34.949Z</time></trkpt><trkpt lat="42.8183577" lon="-3.769171"><ele>819.5999999999999</ele><time>2026-05-02T12:24:35.947Z</time></trkpt><trkpt lat="42.8182975" lon="-3.7692727"><ele>818.0</ele><time>2026-05-02T12:24:36.949Z</time></trkpt><trkpt lat="42.8182294" lon="-3.7693548"><ele>819.1666666666667</ele><time>2026-05-02T12:24:37.955Z</time></trkpt><trkpt lat="42.818166" lon="-3.7694191"><ele>820.3333333333334</ele><time>2026-05-02T12:24:38.958Z</time></trkpt><trkpt lat="42.8180945" lon="-3.7694754"><ele>821.5</ele><time>2026-05-02T12:24:39.954Z</time></trkpt><trkpt lat="42.8180159" lon="-3.7695176"><ele>822.6666666666667</ele><time>2026-05-02T12:24:40.959Z</time></trkpt><trkpt lat="42.8179266" lon="-3.7695586"><ele>823.8333333333334</ele><time>2026-05-02T12:24:41.95Z</time></trkpt><trkpt lat="42.8178323" lon="-3.7696006"><ele>825.0</ele><time>2026-05-02T12:24:42.951Z</time></trkpt><trkpt lat="42.8177311" lon="-3.7696461"><ele>819.75</ele><time>2026-05-02T12:24:43.949Z</time></trkpt><trkpt lat="42.8176254" lon="-3.7696903"><ele>814.5</ele><time>2026-05-02T12:24:44.954Z</time></trkpt><trkpt lat="42.8175232" lon="-3.7697338"><ele>809.25</ele><time>2026-05-02T12:24:45.95Z</time></trkpt><trkpt lat="42.8174198" lon="-3.7697924"><ele>804.0</ele><time>2026-05-02T12:24:46.955Z</time></trkpt><trkpt lat="42.8172052" lon="-3.7699389"><ele>804.0</ele><time>2026-05-02T12:24:48.947Z</time></trkpt><trkpt lat="42.8171112" lon="-3.7700338"><ele>804.0</ele><time>2026-05-02T12:24:49.954Z</time></trkpt><trkpt lat="42.8170393" lon="-3.7701268"><ele>804.0</ele><time>2026-05-02T12:24:50.94Z</time></trkpt><trkpt lat="42.8169737" lon="-3.7701972"><ele>804.0</ele><time>2026-05-02T12:24:51.942Z</time></trkpt><trkpt lat="42.8168963" lon="-3.7702931"><ele>804.0</ele><time>2026-05-02T12:24:53.943Z</time></trkpt><trkpt lat="42.8168488" lon="-3.7703507"><ele>803.4000000000001</ele><time>2026-05-02T12:25:48.946Z</time></trkpt><trkpt lat="42.8167629" lon="-3.770463"><ele>802.8</ele><time>2026-05-02T12:25:50.96Z</time></trkpt><trkpt lat="42.8166969" lon="-3.7705436"><ele>802.2</ele><time>2026-05-02T12:25:51.942Z</time></trkpt><trkpt lat="42.8166228" lon="-3.7706357"><ele>801.5999999999999</ele><time>2026-05-02T12:25:52.938Z</time></trkpt><trkpt lat="42.816538" lon="-3.7707334"><ele>801.0</ele><time>2026-05-02T12:25:53.937Z</time></trkpt><trkpt lat="42.8164493" lon="-3.7708371"><ele>801.0</ele><time>2026-05-02T12:25:54.939Z</time></trkpt><trkpt lat="42.8163596" lon="-3.7709502"><ele>801.0</ele><time>2026-05-02T12:25:55.943Z</time></trkpt><trkpt lat="42.8162589" lon="-3.7710645"><ele>801.0</ele><time>2026-05-02T12:25:56.943Z</time></trkpt><trkpt lat="42.8161487" lon="-3.7711718"><ele>801.0</ele><time>2026-05-02T12:25:57.947Z</time></trkpt><trkpt lat="42.8160405" lon="-3.7712689"><ele>796.5</ele><time>2026-05-02T12:25:58.946Z</time></trkpt><trkpt lat="42.8159247" lon="-3.7713635"><ele>792.0</ele><time>2026-05-02T12:25:59.947Z</time></trkpt><trkpt lat="42.8158058" lon="-3.771455"><ele>787.5</ele><time>2026-05-02T12:26:00.938Z</time></trkpt><trkpt lat="42.8156786" lon="-3.7715502"><ele>783.0</ele><time>2026-05-02T12:26:01.937Z</time></trkpt><trkpt lat="42.8155331" lon="-3.7716278"><ele>783.0</ele><time>2026-05-02T12:26:02.936Z</time></trkpt><trkpt lat="42.8153775" lon="-3.77167"><ele>783.0</ele><time>2026-05-02T12:26:03.941Z</time></trkpt><trkpt lat="42.8152201" lon="-3.7716786"><ele>783.0</ele><time>2026-05-02T12:26:04.936Z</time></trkpt><trkpt lat="42.8150691" lon="-3.7716938"><ele>784.0</ele><time>2026-05-02T12:26:05.94Z</time></trkpt><trkpt lat="42.8149244" lon="-3.7717084"><ele>785.0</ele><time>2026-05-02T12:26:06.939Z</time></trkpt><trkpt lat="42.8147899" lon="-3.7717103"><ele>786.0</ele><time>2026-05-02T12:26:07.942Z</time></trkpt><trkpt lat="42.8146464" lon="-3.7717002"><ele>787.0</ele><time>2026-05-02T12:26:08.947Z</time></trkpt><trkpt lat="42.8145091" lon="-3.7716685"><ele>787.0</ele><time>2026-05-02T12:26:09.943Z</time></trkpt><trkpt lat="42.814357" lon="-3.7716095"><ele>787.0</ele><time>2026-05-02T12:26:10.956Z</time></trkpt><trkpt lat="42.8142165" lon="-3.7715295"><ele>787.0</ele><time>2026-05-02T12:26:11.945Z</time></trkpt><trkpt lat="42.814077" lon="-3.7714711"><ele>784.0</ele><time>2026-05-02T12:26:12.944Z</time></trkpt><trkpt lat="42.8139399" lon="-3.7714049"><ele>781.0</ele><time>2026-05-02T12:26:13.942Z</time></trkpt><trkpt lat="42.8138132" lon="-3.7713396"><ele>778.0</ele><time>2026-05-02T12:26:14.943Z</time></trkpt><trkpt lat="42.8136848" lon="-3.7712829"><ele>775.0</ele><time>2026-05-02T12:26:15.945Z</time></trkpt><trkpt lat="42.8135626" lon="-3.7712321"><ele>773.5</ele><time>2026-05-02T12:26:16.947Z</time></trkpt><trkpt lat="42.813437" lon="-3.7712069"><ele>772.0</ele><time>2026-05-02T12:26:17.942Z</time></trkpt><trkpt lat="42.8133157" lon="-3.771209"><ele>770.5</ele><time>2026-05-02T12:26:18.945Z</time></trkpt><trkpt lat="42.8132068" lon="-3.7712296"><ele>769.0</ele><time>2026-05-02T12:26:19.937Z</time></trkpt><trkpt lat="42.81311" lon="-3.7712594"><ele>768.9999999999999</ele><time>2026-05-02T12:26:20.937Z</time></trkpt><trkpt lat="42.8130224" lon="-3.7712873"><ele>769.0</ele><time>2026-05-02T12:26:21.955Z</time></trkpt><trkpt lat="42.8129386" lon="-3.7713057"><ele>769.0</ele><time>2026-05-02T12:26:22.932Z</time></trkpt><trkpt lat="42.8128529" lon="-3.771323"><ele>769.0</ele><time>2026-05-02T12:26:23.931Z</time></trkpt><trkpt lat="42.8127716" lon="-3.7713392"><ele>768.9999999999999</ele><time>2026-05-02T12:26:24.93Z</time></trkpt><trkpt lat="42.8126938" lon="-3.7713516"><ele>769.0</ele><time>2026-05-02T12:26:25.935Z</time></trkpt><trkpt lat="42.812618" lon="-3.7713672"><ele>770.1666666666666</ele><time>2026-05-02T12:26:26.926Z</time></trkpt><trkpt lat="42.8125521" lon="-3.7713959"><ele>771.3333333333333</ele><time>2026-05-02T12:26:27.925Z</time></trkpt><trkpt lat="42.8124959" lon="-3.7714508"><ele>772.5</ele><time>2026-05-02T12:26:28.931Z</time></trkpt><trkpt lat="42.8124776" lon="-3.7715388"><ele>773.6666666666667</ele><time>2026-05-02T12:26:29.934Z</time></trkpt><trkpt lat="42.8124989" lon="-3.7716393"><ele>774.8333333333334</ele><time>2026-05-02T12:26:30.931Z</time></trkpt><trkpt lat="42.8125593" lon="-3.7717316"><ele>776.0</ele><time>2026-05-02T12:26:31.933Z</time></trkpt><trkpt lat="42.8126376" lon="-3.7717733"><ele>774.5999999999999</ele><time>2026-05-02T12:26:32.937Z</time></trkpt><trkpt lat="42.8127214" lon="-3.7717487"><ele>773.2</ele><time>2026-05-02T12:26:33.937Z</time></trkpt><trkpt lat="42.8128129" lon="-3.7716984"><ele>771.8</ele><time>2026-05-02T12:26:34.932Z</time></trkpt><trkpt lat="42.8129158" lon="-3.7716571"><ele>770.4000000000001</ele><time>2026-05-02T12:26:35.931Z</time></trkpt><trkpt lat="42.8130325" lon="-3.7716141"><ele>769.0</ele><time>2026-05-02T12:26:36.93Z</time></trkpt><trkpt lat="42.8131587" lon="-3.7715746"><ele>769.0</ele><time>2026-05-02T12:26:37.931Z</time></trkpt><trkpt lat="42.8132997" lon="-3.7715436"><ele>769.0</ele><time>2026-05-02T12:26:38.941Z</time></trkpt><trkpt lat="42.81346" lon="-3.7715306"><ele>769.0</ele><time>2026-05-02T12:26:39.938Z</time></trkpt><trkpt lat="42.8136316" lon="-3.7715695"><ele>771.0</ele><time>2026-05-02T12:26:40.938Z</time></trkpt><trkpt lat="42.8138205" lon="-3.7716533"><ele>773.0</ele><time>2026-05-02T12:26:41.934Z</time></trkpt><trkpt lat="42.8139725" lon="-3.7717461"><ele>775.0</ele><time>2026-05-02T12:26:42.935Z</time></trkpt><trkpt lat="42.8141185" lon="-3.7718456"><ele>767.0</ele><time>2026-05-02T12:26:43.934Z</time></trkpt><trkpt lat="42.8142704" lon="-3.7719403"><ele>759.0</ele><time>2026-05-02T12:26:44.939Z</time></trkpt><trkpt lat="42.814429" lon="-3.7720281"><ele>751.0</ele><time>2026-05-02T12:26:45.935Z</time></trkpt><trkpt lat="42.8145923" lon="-3.7720865"><ele>751.0</ele><time>2026-05-02T12:26:46.942Z</time></trkpt><trkpt lat="42.8147572" lon="-3.7721255"><ele>751.0</ele><time>2026-05-02T12:26:47.938Z</time></trkpt><trkpt lat="42.8149168" lon="-3.7721393"><ele>751.0</ele><time>2026-05-02T12:26:48.936Z</time></trkpt><trkpt lat="42.8150959" lon="-3.7721097"><ele>749.6666666666667</ele><time>2026-05-02T12:26:49.931Z</time></trkpt><trkpt lat="42.8152709" lon="-3.7720692"><ele>748.3333333333334</ele><time>2026-05-02T12:26:50.931Z</time></trkpt><trkpt lat="42.8154431" lon="-3.7720271"><ele>747.0</ele><time>2026-05-02T12:26:51.935Z</time></trkpt><trkpt lat="42.8156154" lon="-3.772016"><ele>747.0</ele><time>2026-05-02T12:26:52.943Z</time></trkpt><trkpt lat="42.81578" lon="-3.7720147"><ele>747.0</ele><time>2026-05-02T12:26:53.933Z</time></trkpt><trkpt lat="42.8159449" lon="-3.7720173"><ele>747.0</ele><time>2026-05-02T12:26:54.927Z</time></trkpt><trkpt lat="42.8160971" lon="-3.7719934"><ele>747.75</ele><time>2026-05-02T12:26:55.934Z</time></trkpt><trkpt lat="42.8162395" lon="-3.7719585"><ele>748.5</ele><time>2026-05-02T12:26:56.928Z</time></trkpt><trkpt lat="42.8163747" lon="-3.7719162"><ele>749.25</ele><time>2026-05-02T12:26:57.929Z</time></trkpt><trkpt lat="42.8165036" lon="-3.7718616"><ele>750.0</ele><time>2026-05-02T12:26:58.932Z</time></trkpt><trkpt lat="42.8166193" lon="-3.771797"><ele>752.0</ele><time>2026-05-02T12:26:59.931Z</time></trkpt><trkpt lat="42.8167293" lon="-3.7717267"><ele>754.0</ele><time>2026-05-02T12:27:00.932Z</time></trkpt><trkpt lat="42.8168296" lon="-3.7716584"><ele>756.0</ele><time>2026-05-02T12:27:01.931Z</time></trkpt><trkpt lat="42.8169058" lon="-3.7716057"><ele>758.0</ele><time>2026-05-02T12:27:02.93Z</time></trkpt><trkpt lat="42.8169822" lon="-3.7715744"><ele>760.0</ele><time>2026-05-02T12:27:03.929Z</time></trkpt><trkpt lat="42.8170576" lon="-3.771558"><ele>763.8</ele><time>2026-05-02T12:27:04.93Z</time></trkpt><trkpt lat="42.8171406" lon="-3.7715662"><ele>767.6</ele><time>2026-05-02T12:27:05.937Z</time></trkpt><trkpt lat="42.817217" lon="-3.7716116"><ele>771.4000000000001</ele><time>2026-05-02T12:27:06.941Z</time></trkpt><trkpt lat="42.8172812" lon="-3.7716929"><ele>775.2</ele><time>2026-05-02T12:27:07.941Z</time></trkpt><trkpt lat="42.8173274" lon="-3.7717985"><ele>779.0</ele><time>2026-05-02T12:27:08.942Z</time></trkpt><trkpt lat="42.8173505" lon="-3.7720517"><ele>780.0</ele><time>2026-05-02T12:27:10.932Z</time></trkpt><trkpt lat="42.8173303" lon="-3.7721825"><ele>781.0</ele><time>2026-05-02T12:27:11.942Z</time></trkpt><trkpt lat="42.8172839" lon="-3.7723039"><ele>782.0</ele><time>2026-05-02T12:27:12.934Z</time></trkpt><trkpt lat="42.8172103" lon="-3.7723843"><ele>783.0</ele><time>2026-05-02T12:27:13.94Z</time></trkpt><trkpt lat="42.8171235" lon="-3.7724181"><ele>784.0</ele><time>2026-05-02T12:27:14.94Z</time></trkpt><trkpt lat="42.8170395" lon="-3.772422"><ele>783.9999999999999</ele><time>2026-05-02T12:27:15.941Z</time></trkpt><trkpt lat="42.8169277" lon="-3.7724269"><ele>784.0</ele><time>2026-05-02T12:27:17.939Z</time></trkpt><trkpt lat="42.8168651" lon="-3.7723951"><ele>784.0</ele><time>2026-05-02T12:27:43.946Z</time></trkpt><trkpt lat="42.8168041" lon="-3.7723499"><ele>784.0</ele><time>2026-05-02T12:27:45.946Z</time></trkpt><trkpt lat="42.8167213" lon="-3.7723392"><ele>783.9999999999999</ele><time>2026-05-02T12:27:47.942Z</time></trkpt><trkpt lat="42.8166562" lon="-3.7723434"><ele>784.0</ele><time>2026-05-02T12:27:50.941Z</time></trkpt><trkpt lat="42.8165387" lon="-3.7723241"><ele>777.2</ele><time>2026-05-02T12:28:02.944Z</time></trkpt><trkpt lat="42.8164645" lon="-3.7723124"><ele>770.4000000000001</ele><time>2026-05-02T12:28:03.945Z</time></trkpt><trkpt lat="42.8163769" lon="-3.7723111"><ele>763.6</ele><time>2026-05-02T12:28:04.943Z</time></trkpt><trkpt lat="42.8162756" lon="-3.7723217"><ele>756.8</ele><time>2026-05-02T12:28:05.949Z</time></trkpt><trkpt lat="42.8161645" lon="-3.7723382"><ele>750.0</ele><time>2026-05-02T12:28:06.942Z</time></trkpt><trkpt lat="42.8160437" lon="-3.7723597"><ele>749.25</ele><time>2026-05-02T12:28:07.948Z</time></trkpt><trkpt lat="42.8159136" lon="-3.7723918"><ele>748.5</ele><time>2026-05-02T12:28:08.941Z</time></trkpt><trkpt lat="42.8157765" lon="-3.7724366"><ele>747.75</ele><time>2026-05-02T12:28:09.945Z</time></trkpt><trkpt lat="42.8156375" lon="-3.772491"><ele>747.0</ele><time>2026-05-02T12:28:10.943Z</time></trkpt><trkpt lat="42.8155039" lon="-3.7725476"><ele>747.0</ele><time>2026-05-02T12:28:11.943Z</time></trkpt><trkpt lat="42.8153675" lon="-3.7726067"><ele>747.0</ele><time>2026-05-02T12:28:12.942Z</time></trkpt><trkpt lat="42.8152341" lon="-3.7726619"><ele>747.0</ele><time>2026-05-02T12:28:13.945Z</time></trkpt><trkpt lat="42.8150939" lon="-3.7727242"><ele>747.0</ele><time>2026-05-02T12:28:14.939Z</time></trkpt><trkpt lat="42.8149524" lon="-3.7727831"><ele>741.0</ele><time>2026-05-02T12:28:15.942Z</time></trkpt><trkpt lat="42.8148121" lon="-3.7728279"><ele>735.0</ele><time>2026-05-02T12:28:16.95Z</time></trkpt><trkpt lat="42.8146664" lon="-3.7728576"><ele>729.0</ele><time>2026-05-02T12:28:17.931Z</time></trkpt><trkpt lat="42.8145316" lon="-3.7728817"><ele>723.0</ele><time>2026-05-02T12:28:18.942Z</time></trkpt><trkpt lat="42.8143927" lon="-3.7728875"><ele>722.75</ele><time>2026-05-02T12:28:19.941Z</time></trkpt><trkpt lat="42.814253" lon="-3.7728813"><ele>722.5</ele><time>2026-05-02T12:28:20.935Z</time></trkpt><trkpt lat="42.814127" lon="-3.772861"><ele>722.25</ele><time>2026-05-02T12:28:21.938Z</time></trkpt><trkpt lat="42.813992" lon="-3.7728519"><ele>722.0</ele><time>2026-05-02T12:28:22.938Z</time></trkpt><trkpt lat="42.813854" lon="-3.7728494"><ele>722.0</ele><time>2026-05-02T12:28:23.939Z</time></trkpt><trkpt lat="42.8137151" lon="-3.7728462"><ele>722.0</ele><time>2026-05-02T12:28:24.939Z</time></trkpt><trkpt lat="42.8135815" lon="-3.7728532"><ele>722.0</ele><time>2026-05-02T12:28:25.953Z</time></trkpt><trkpt lat="42.8134488" lon="-3.7728793"><ele>722.0</ele><time>2026-05-02T12:28:26.932Z</time></trkpt><trkpt lat="42.8133159" lon="-3.7729399"><ele>722.3333333333333</ele><time>2026-05-02T12:28:27.936Z</time></trkpt><trkpt lat="42.8131809" lon="-3.7730196"><ele>722.6666666666666</ele><time>2026-05-02T12:28:28.936Z</time></trkpt><trkpt lat="42.8130416" lon="-3.7730969"><ele>723.0</ele><time>2026-05-02T12:28:29.935Z</time></trkpt><trkpt lat="42.8128983" lon="-3.7731775"><ele>723.0</ele><time>2026-05-02T12:28:30.935Z</time></trkpt><trkpt lat="42.8127535" lon="-3.7732561"><ele>723.0</ele><time>2026-05-02T12:28:31.931Z</time></trkpt><trkpt lat="42.8126145" lon="-3.7733295"><ele>723.0</ele><time>2026-05-02T12:28:32.928Z</time></trkpt><trkpt lat="42.8124762" lon="-3.7734057"><ele>724.25</ele><time>2026-05-02T12:28:33.929Z</time></trkpt><trkpt lat="42.8123442" lon="-3.7734778"><ele>725.5</ele><time>2026-05-02T12:28:34.926Z</time></trkpt><trkpt lat="42.8122124" lon="-3.773546"><ele>726.75</ele><time>2026-05-02T12:28:35.931Z</time></trkpt><trkpt lat="42.8120891" lon="-3.7736255"><ele>728.0</ele><time>2026-05-02T12:28:36.931Z</time></trkpt><trkpt lat="42.8119725" lon="-3.7736956"><ele>723.75</ele><time>2026-05-02T12:28:37.932Z</time></trkpt><trkpt lat="42.8118555" lon="-3.7737743"><ele>719.5</ele><time>2026-05-02T12:28:38.938Z</time></trkpt><trkpt lat="42.8117455" lon="-3.7738364"><ele>715.25</ele><time>2026-05-02T12:28:39.935Z</time></trkpt><trkpt lat="42.811641" lon="-3.7739017"><ele>711.0</ele><time>2026-05-02T12:28:40.933Z</time></trkpt><trkpt lat="42.8115299" lon="-3.773966"><ele>711.0</ele><time>2026-05-02T12:28:41.931Z</time></trkpt><trkpt lat="42.811422" lon="-3.7740127"><ele>711.0</ele><time>2026-05-02T12:28:42.937Z</time></trkpt><trkpt lat="42.8113221" lon="-3.7740669"><ele>711.0</ele><time>2026-05-02T12:28:43.934Z</time></trkpt><trkpt lat="42.8112326" lon="-3.7741173"><ele>711.0</ele><time>2026-05-02T12:28:44.933Z</time></trkpt><trkpt lat="42.8111567" lon="-3.7741588"><ele>711.0</ele><time>2026-05-02T12:28:45.935Z</time></trkpt><trkpt lat="42.8110649" lon="-3.7742128"><ele>711.0</ele><time>2026-05-02T12:28:47.944Z</time></trkpt><trkpt lat="42.8109938" lon="-3.7742541"><ele>711.0</ele><time>2026-05-02T12:28:51.936Z</time></trkpt><trkpt lat="42.810929" lon="-3.7742865"><ele>711.0</ele><time>2026-05-02T12:28:57.935Z</time></trkpt><trkpt lat="42.8108522" lon="-3.7743616"><ele>711.0</ele><time>2026-05-02T12:29:47.935Z</time></trkpt><trkpt lat="42.810767" lon="-3.7743905"><ele>711.0</ele><time>2026-05-02T12:29:49.938Z</time></trkpt><trkpt lat="42.8106823" lon="-3.7744229"><ele>711.0</ele><time>2026-05-02T12:29:51.938Z</time></trkpt><trkpt lat="42.8106078" lon="-3.7744355"><ele>707.6666666666666</ele><time>2026-05-02T12:29:54.936Z</time></trkpt><trkpt lat="42.8105178" lon="-3.7744668"><ele>704.3333333333334</ele><time>2026-05-02T12:30:18.935Z</time></trkpt><trkpt lat="42.8104532" lon="-3.774479"><ele>701.0</ele><time>2026-05-02T12:30:19.937Z</time></trkpt><trkpt lat="42.8103727" lon="-3.7744944"><ele>697.6666666666667</ele><time>2026-05-02T12:30:20.937Z</time></trkpt><trkpt lat="42.8102852" lon="-3.7745106"><ele>694.3333333333334</ele><time>2026-05-02T12:30:21.937Z</time></trkpt><trkpt lat="42.8101892" lon="-3.7745259"><ele>691.0</ele><time>2026-05-02T12:30:22.933Z</time></trkpt><trkpt lat="42.8100851" lon="-3.7745389"><ele>690.5</ele><time>2026-05-02T12:30:23.94Z</time></trkpt><trkpt lat="42.8099706" lon="-3.7745592"><ele>690.0</ele><time>2026-05-02T12:30:24.937Z</time></trkpt><trkpt lat="42.8098529" lon="-3.7745791"><ele>689.5</ele><time>2026-05-02T12:30:25.941Z</time></trkpt><trkpt lat="42.8097322" lon="-3.7746031"><ele>689.0</ele><time>2026-05-02T12:30:26.938Z</time></trkpt><trkpt lat="42.8096065" lon="-3.7746269"><ele>689.0</ele><time>2026-05-02T12:30:27.942Z</time></trkpt><trkpt lat="42.8094814" lon="-3.7746475"><ele>689.0</ele><time>2026-05-02T12:30:28.951Z</time></trkpt><trkpt lat="42.8093568" lon="-3.7746643"><ele>689.0</ele><time>2026-05-02T12:30:29.939Z</time></trkpt><trkpt lat="42.8092305" lon="-3.7746819"><ele>689.0</ele><time>2026-05-02T12:30:30.93Z</time></trkpt><trkpt lat="42.8091005" lon="-3.7747101"><ele>690.0</ele><time>2026-05-02T12:30:31.93Z</time></trkpt><trkpt lat="42.8089683" lon="-3.7747535"><ele>691.0</ele><time>2026-05-02T12:30:32.929Z</time></trkpt><trkpt lat="42.8088323" lon="-3.7748113"><ele>692.0</ele><time>2026-05-02T12:30:33.928Z</time></trkpt><trkpt lat="42.8086985" lon="-3.7748788"><ele>693.0</ele><time>2026-05-02T12:30:34.924Z</time></trkpt><trkpt lat="42.8085622" lon="-3.7749462"><ele>696.0</ele><time>2026-05-02T12:30:35.924Z</time></trkpt><trkpt lat="42.8084266" lon="-3.7750061"><ele>699.0</ele><time>2026-05-02T12:30:36.92Z</time></trkpt><trkpt lat="42.808299" lon="-3.7750634"><ele>702.0</ele><time>2026-05-02T12:30:37.92Z</time></trkpt><trkpt lat="42.8081683" lon="-3.7751162"><ele>705.0</ele><time>2026-05-02T12:30:38.926Z</time></trkpt><trkpt lat="42.8080344" lon="-3.7751396"><ele>705.0</ele><time>2026-05-02T12:30:39.926Z</time></trkpt><trkpt lat="42.8078991" lon="-3.775159"><ele>705.0</ele><time>2026-05-02T12:30:40.925Z</time></trkpt><trkpt lat="42.8077696" lon="-3.7751455"><ele>705.0</ele><time>2026-05-02T12:30:41.931Z</time></trkpt><trkpt lat="42.8076464" lon="-3.775125"><ele>705.0</ele><time>2026-05-02T12:30:42.921Z</time></trkpt><trkpt lat="42.8075194" lon="-3.7751103"><ele>704.8</ele><time>2026-05-02T12:30:43.923Z</time></trkpt><trkpt lat="42.8073981" lon="-3.7750849"><ele>704.6</ele><time>2026-05-02T12:30:44.925Z</time></trkpt><trkpt lat="42.807281" lon="-3.7750608"><ele>704.4000000000001</ele><time>2026-05-02T12:30:45.926Z</time></trkpt><trkpt lat="42.8071827" lon="-3.7750501"><ele>704.2</ele><time>2026-05-02T12:30:46.934Z</time></trkpt><trkpt lat="42.80711" lon="-3.7750399"><ele>704.0</ele><time>2026-05-02T12:30:47.925Z</time></trkpt><trkpt lat="42.8070058" lon="-3.7750448"><ele>704.0</ele><time>2026-05-02T12:30:49.926Z</time></trkpt><trkpt lat="42.8069384" lon="-3.7750431"><ele>704.0</ele><time>2026-05-02T12:30:53.92Z</time></trkpt><trkpt lat="42.8068604" lon="-3.7750077"><ele>704.0</ele><time>2026-05-02T12:30:57.925Z</time></trkpt><trkpt lat="42.8067966" lon="-3.7749883"><ele>704.0</ele><time>2026-05-02T12:30:59.942Z</time></trkpt><trkpt lat="42.8067156" lon="-3.7749714"><ele>704.0</ele><time>2026-05-02T12:31:02.92Z</time></trkpt><trkpt lat="42.8066476" lon="-3.7749467"><ele>704.0</ele><time>2026-05-02T12:31:07.919Z</time></trkpt><trkpt lat="42.80655" lon="-3.774873"><ele>700.0</ele><time>2026-05-02T12:31:09.926Z</time></trkpt><trkpt lat="42.8064889" lon="-3.774806"><ele>696.0</ele><time>2026-05-02T12:31:10.927Z</time></trkpt><trkpt lat="42.8064006" lon="-3.7747422"><ele>692.0</ele><time>2026-05-02T12:31:11.921Z</time></trkpt><trkpt lat="42.8063061" lon="-3.7746689"><ele>688.0</ele><time>2026-05-02T12:31:12.928Z</time></trkpt><trkpt lat="42.8062076" lon="-3.7745795"><ele>684.0</ele><time>2026-05-02T12:31:13.929Z</time></trkpt><trkpt lat="42.806104" lon="-3.7744682"><ele>684.0</ele><time>2026-05-02T12:31:14.933Z</time></trkpt><trkpt lat="42.8059928" lon="-3.7743485"><ele>684.0</ele><time>2026-05-02T12:31:15.931Z</time></trkpt><trkpt lat="42.805889" lon="-3.7742076"><ele>684.0</ele><time>2026-05-02T12:31:16.933Z</time></trkpt><trkpt lat="42.8057716" lon="-3.7740558"><ele>684.0</ele><time>2026-05-02T12:31:17.927Z</time></trkpt><trkpt lat="42.8056813" lon="-3.7738836"><ele>684.0</ele><time>2026-05-02T12:31:18.929Z</time></trkpt><trkpt lat="42.8056066" lon="-3.7737264"><ele>684.0</ele><time>2026-05-02T12:31:19.928Z</time></trkpt><trkpt lat="42.8055408" lon="-3.7735626"><ele>684.0</ele><time>2026-05-02T12:31:20.929Z</time></trkpt><trkpt lat="42.8054695" lon="-3.7733815"><ele>689.3333333333334</ele><time>2026-05-02T12:31:21.935Z</time></trkpt><trkpt lat="42.8053861" lon="-3.7732082"><ele>694.6666666666667</ele><time>2026-05-02T12:31:22.941Z</time></trkpt><trkpt lat="42.8052974" lon="-3.7730268"><ele>700.0</ele><time>2026-05-02T12:31:23.939Z</time></trkpt><trkpt lat="42.8052014" lon="-3.7728298"><ele>691.6666666666667</ele><time>2026-05-02T12:31:24.948Z</time></trkpt><trkpt lat="42.8051014" lon="-3.7726373"><ele>683.3333333333334</ele><time>2026-05-02T12:31:25.942Z</time></trkpt><trkpt lat="42.8049915" lon="-3.7724579"><ele>675.0</ele><time>2026-05-02T12:31:26.945Z</time></trkpt><trkpt lat="42.8048799" lon="-3.7722532"><ele>675.0</ele><time>2026-05-02T12:31:27.943Z</time></trkpt><trkpt lat="42.8047787" lon="-3.7720442"><ele>675.0</ele><time>2026-05-02T12:31:28.942Z</time></trkpt><trkpt lat="42.8046829" lon="-3.7718439"><ele>675.0</ele><time>2026-05-02T12:31:29.94Z</time></trkpt><trkpt lat="42.8045774" lon="-3.7716318"><ele>673.3333333333334</ele><time>2026-05-02T12:31:30.953Z</time></trkpt><trkpt lat="42.804472" lon="-3.7714231"><ele>671.6666666666667</ele><time>2026-05-02T12:31:31.936Z</time></trkpt><trkpt lat="42.8043696" lon="-3.7712123"><ele>670.0</ele><time>2026-05-02T12:31:32.935Z</time></trkpt><trkpt lat="42.8042557" lon="-3.7710088"><ele>670.0</ele><time>2026-05-02T12:31:33.932Z</time></trkpt><trkpt lat="42.8041329" lon="-3.7708166"><ele>670.0</ele><time>2026-05-02T12:31:34.937Z</time></trkpt><trkpt lat="42.8040001" lon="-3.7706494"><ele>670.0</ele><time>2026-05-02T12:31:35.928Z</time></trkpt><trkpt lat="42.8038619" lon="-3.770496"><ele>670.0</ele><time>2026-05-02T12:31:36.927Z</time></trkpt><trkpt lat="42.8037416" lon="-3.7703449"><ele>670.0</ele><time>2026-05-02T12:31:37.927Z</time></trkpt><trkpt lat="42.803622" lon="-3.7702039"><ele>670.0</ele><time>2026-05-02T12:31:38.941Z</time></trkpt><trkpt lat="42.8033629" lon="-3.769935"><ele>669.75</ele><time>2026-05-02T12:31:40.935Z</time></trkpt><trkpt lat="42.8032396" lon="-3.7698053"><ele>669.5</ele><time>2026-05-02T12:31:41.935Z</time></trkpt><trkpt lat="42.8031182" lon="-3.7696867"><ele>669.25</ele><time>2026-05-02T12:31:42.927Z</time></trkpt><trkpt lat="42.8030033" lon="-3.7695739"><ele>669.0</ele><time>2026-05-02T12:31:43.927Z</time></trkpt><trkpt lat="42.8028967" lon="-3.7694673"><ele>669.0</ele><time>2026-05-02T12:31:44.926Z</time></trkpt><trkpt lat="42.8027875" lon="-3.7693627"><ele>669.0</ele><time>2026-05-02T12:31:45.928Z</time></trkpt><trkpt lat="42.8026685" lon="-3.7692584"><ele>669.0</ele><time>2026-05-02T12:31:46.93Z</time></trkpt><trkpt lat="42.802551" lon="-3.7691461"><ele>669.0</ele><time>2026-05-02T12:31:47.924Z</time></trkpt><trkpt lat="42.8024364" lon="-3.7690281"><ele>669.75</ele><time>2026-05-02T12:31:48.925Z</time></trkpt><trkpt lat="42.8023238" lon="-3.7689151"><ele>670.5</ele><time>2026-05-02T12:31:49.924Z</time></trkpt><trkpt lat="42.8022106" lon="-3.768818"><ele>671.25</ele><time>2026-05-02T12:31:50.931Z</time></trkpt><trkpt lat="42.8021003" lon="-3.7687193"><ele>672.0</ele><time>2026-05-02T12:31:51.924Z</time></trkpt><trkpt lat="42.8020118" lon="-3.7686256"><ele>672.0</ele><time>2026-05-02T12:31:52.937Z</time></trkpt><trkpt lat="42.80193" lon="-3.7685484"><ele>672.0</ele><time>2026-05-02T12:31:53.943Z</time></trkpt><trkpt lat="42.8018481" lon="-3.7684728"><ele>672.0</ele><time>2026-05-02T12:31:54.944Z</time></trkpt><trkpt lat="42.8017664" lon="-3.7683853"><ele>672.0</ele><time>2026-05-02T12:31:55.946Z</time></trkpt><trkpt lat="42.8016865" lon="-3.768314"><ele>672.0</ele><time>2026-05-02T12:31:56.944Z</time></trkpt><trkpt lat="42.8016128" lon="-3.7682633"><ele>672.1666666666666</ele><time>2026-05-02T12:31:57.943Z</time></trkpt><trkpt lat="42.8015448" lon="-3.7682267"><ele>672.3333333333334</ele><time>2026-05-02T12:31:58.936Z</time></trkpt><trkpt lat="42.8014723" lon="-3.7682287"><ele>672.5</ele><time>2026-05-02T12:31:59.944Z</time></trkpt><trkpt lat="42.8013991" lon="-3.768278"><ele>672.6666666666667</ele><time>2026-05-02T12:32:00.937Z</time></trkpt><trkpt lat="42.8013503" lon="-3.7683921"><ele>672.8333333333334</ele><time>2026-05-02T12:32:01.953Z</time></trkpt><trkpt lat="42.8013151" lon="-3.7685311"><ele>673.0</ele><time>2026-05-02T12:32:02.939Z</time></trkpt><trkpt lat="42.801276" lon="-3.7686733"><ele>670.5999999999999</ele><time>2026-05-02T12:32:03.934Z</time></trkpt><trkpt lat="42.8012203" lon="-3.7688043"><ele>668.1999999999999</ele><time>2026-05-02T12:32:04.942Z</time></trkpt><trkpt lat="42.8011701" lon="-3.7689311"><ele>665.8</ele><time>2026-05-02T12:32:05.942Z</time></trkpt><trkpt lat="42.8011287" lon="-3.7690418"><ele>663.4</ele><time>2026-05-02T12:32:06.941Z</time></trkpt><trkpt lat="42.8010904" lon="-3.7691417"><ele>661.0</ele><time>2026-05-02T12:32:07.942Z</time></trkpt><trkpt lat="42.8010602" lon="-3.7692365"><ele>661.0</ele><time>2026-05-02T12:32:08.943Z</time></trkpt><trkpt lat="42.8010304" lon="-3.7693304"><ele>661.0</ele><time>2026-05-02T12:32:09.94Z</time></trkpt><trkpt lat="42.8009956" lon="-3.7694288"><ele>661.0</ele><time>2026-05-02T12:32:10.94Z</time></trkpt><trkpt lat="42.8009442" lon="-3.7695217"><ele>661.0</ele><time>2026-05-02T12:32:11.944Z</time></trkpt><trkpt lat="42.8008654" lon="-3.7695958"><ele>661.0</ele><time>2026-05-02T12:32:12.942Z</time></trkpt><trkpt lat="42.8007639" lon="-3.7696555"><ele>661.0</ele><time>2026-05-02T12:32:13.945Z</time></trkpt><trkpt lat="42.8006565" lon="-3.7697032"><ele>661.75</ele><time>2026-05-02T12:32:14.94Z</time></trkpt><trkpt lat="42.8005333" lon="-3.7697383"><ele>662.5</ele><time>2026-05-02T12:32:15.94Z</time></trkpt><trkpt lat="42.8004057" lon="-3.7697536"><ele>663.25</ele><time>2026-05-02T12:32:16.945Z</time></trkpt><trkpt lat="42.8002673" lon="-3.7697504"><ele>664.0</ele><time>2026-05-02T12:32:17.944Z</time></trkpt><trkpt lat="42.8001251" lon="-3.7697446"><ele>664.0</ele><time>2026-05-02T12:32:18.944Z</time></trkpt><trkpt lat="42.7999892" lon="-3.769745"><ele>664.0</ele><time>2026-05-02T12:32:19.942Z</time></trkpt><trkpt lat="42.799853" lon="-3.7697442"><ele>664.0</ele><time>2026-05-02T12:32:20.945Z</time></trkpt><trkpt lat="42.7997163" lon="-3.7697436"><ele>664.0</ele><time>2026-05-02T12:32:21.946Z</time></trkpt><trkpt lat="42.7995708" lon="-3.7697301"><ele>664.0</ele><time>2026-05-02T12:32:22.948Z</time></trkpt><trkpt lat="42.7994229" lon="-3.7697169"><ele>664.0</ele><time>2026-05-02T12:32:23.95Z</time></trkpt><trkpt lat="42.7992637" lon="-3.7697215"><ele>664.0</ele><time>2026-05-02T12:32:24.947Z</time></trkpt><trkpt lat="42.7991191" lon="-3.7697225"><ele>664.5</ele><time>2026-05-02T12:32:25.949Z</time></trkpt><trkpt lat="42.7989746" lon="-3.769716"><ele>665.0</ele><time>2026-05-02T12:32:26.948Z</time></trkpt><trkpt lat="42.7988326" lon="-3.7697118"><ele>665.5</ele><time>2026-05-02T12:32:27.958Z</time></trkpt><trkpt lat="42.798696" lon="-3.7697176"><ele>666.0</ele><time>2026-05-02T12:32:28.948Z</time></trkpt><trkpt lat="42.7985528" lon="-3.7697451"><ele>666.0</ele><time>2026-05-02T12:32:29.954Z</time></trkpt><trkpt lat="42.7984259" lon="-3.7698183"><ele>666.0</ele><time>2026-05-02T12:32:30.943Z</time></trkpt><trkpt lat="42.7982953" lon="-3.7699204"><ele>666.0</ele><time>2026-05-02T12:32:31.944Z</time></trkpt><trkpt lat="42.7981715" lon="-3.7700356"><ele>666.0</ele><time>2026-05-02T12:32:32.959Z</time></trkpt><trkpt lat="42.7980444" lon="-3.7701394"><ele>667.3333333333334</ele><time>2026-05-02T12:32:33.943Z</time></trkpt><trkpt lat="42.7979134" lon="-3.7702593"><ele>668.6666666666667</ele><time>2026-05-02T12:32:34.947Z</time></trkpt><trkpt lat="42.797785" lon="-3.7703729"><ele>670.0</ele><time>2026-05-02T12:32:35.95Z</time></trkpt><trkpt lat="42.7976512" lon="-3.7704912"><ele>670.0</ele><time>2026-05-02T12:32:36.946Z</time></trkpt><trkpt lat="42.7975083" lon="-3.7706129"><ele>670.0</ele><time>2026-05-02T12:32:37.945Z</time></trkpt><trkpt lat="42.7973632" lon="-3.7707358"><ele>670.0</ele><time>2026-05-02T12:32:38.948Z</time></trkpt><trkpt lat="42.7972207" lon="-3.7708551"><ele>670.0</ele><time>2026-05-02T12:32:39.953Z</time></trkpt><trkpt lat="42.7970764" lon="-3.7709747"><ele>670.0</ele><time>2026-05-02T12:32:40.955Z</time></trkpt><trkpt lat="42.7969248" lon="-3.7711001"><ele>670.0</ele><time>2026-05-02T12:32:41.946Z</time></trkpt><trkpt lat="42.7967746" lon="-3.7712234"><ele>670.0</ele><time>2026-05-02T12:32:42.946Z</time></trkpt><trkpt lat="42.7966235" lon="-3.7713448"><ele>670.0</ele><time>2026-05-02T12:32:43.952Z</time></trkpt><trkpt lat="42.7964755" lon="-3.7714682"><ele>670.0</ele><time>2026-05-02T12:32:44.947Z</time></trkpt><trkpt lat="42.7963283" lon="-3.7715927"><ele>670.0</ele><time>2026-05-02T12:32:45.942Z</time></trkpt><trkpt lat="42.7961716" lon="-3.7717186"><ele>670.0</ele><time>2026-05-02T12:32:46.944Z</time></trkpt><trkpt lat="42.7960195" lon="-3.7718557"><ele>670.0</ele><time>2026-05-02T12:32:47.943Z</time></trkpt><trkpt lat="42.7958649" lon="-3.7719818"><ele>670.0</ele><time>2026-05-02T12:32:48.942Z</time></trkpt><trkpt lat="42.7957141" lon="-3.7721145"><ele>670.0</ele><time>2026-05-02T12:32:49.939Z</time></trkpt><trkpt lat="42.7955589" lon="-3.7722427"><ele>670.0</ele><time>2026-05-02T12:32:50.934Z</time></trkpt><trkpt lat="42.7954089" lon="-3.7723605"><ele>670.0</ele><time>2026-05-02T12:32:51.936Z</time></trkpt><trkpt lat="42.7952543" lon="-3.7724673"><ele>670.0</ele><time>2026-05-02T12:32:52.936Z</time></trkpt><trkpt lat="42.7951061" lon="-3.7725558"><ele>670.0</ele><time>2026-05-02T12:32:53.934Z</time></trkpt><trkpt lat="42.7949491" lon="-3.7726239"><ele>667.3333333333334</ele><time>2026-05-02T12:32:54.925Z</time></trkpt><trkpt lat="42.7947904" lon="-3.7726678"><ele>664.6666666666666</ele><time>2026-05-02T12:32:55.929Z</time></trkpt><trkpt lat="42.7946217" lon="-3.7726876"><ele>662.0</ele><time>2026-05-02T12:32:56.924Z</time></trkpt><trkpt lat="42.7944462" lon="-3.7726585"><ele>663.6666666666666</ele><time>2026-05-02T12:32:57.928Z</time></trkpt><trkpt lat="42.7942815" lon="-3.7726105"><ele>665.3333333333334</ele><time>2026-05-02T12:32:58.93Z</time></trkpt><trkpt lat="42.7941278" lon="-3.7725422"><ele>667.0</ele><time>2026-05-02T12:32:59.932Z</time></trkpt><trkpt lat="42.7939725" lon="-3.7724611"><ele>667.0</ele><time>2026-05-02T12:33:00.927Z</time></trkpt><trkpt lat="42.7938259" lon="-3.7723641"><ele>667.0</ele><time>2026-05-02T12:33:01.926Z</time></trkpt><trkpt lat="42.7936851" lon="-3.772251"><ele>667.0</ele><time>2026-05-02T12:33:02.928Z</time></trkpt><trkpt lat="42.7935498" lon="-3.7721509"><ele>672.3333333333334</ele><time>2026-05-02T12:33:03.944Z</time></trkpt><trkpt lat="42.7934059" lon="-3.7720498"><ele>677.6666666666666</ele><time>2026-05-02T12:33:04.936Z</time></trkpt><trkpt lat="42.7932688" lon="-3.7719492"><ele>683.0</ele><time>2026-05-02T12:33:05.934Z</time></trkpt><trkpt lat="42.7931382" lon="-3.7718633"><ele>676.6666666666666</ele><time>2026-05-02T12:33:06.934Z</time></trkpt><trkpt lat="42.7929998" lon="-3.7717702"><ele>670.3333333333334</ele><time>2026-05-02T12:33:07.933Z</time></trkpt><trkpt lat="42.7928631" lon="-3.7716823"><ele>664.0</ele><time>2026-05-02T12:33:08.938Z</time></trkpt><trkpt lat="42.7927306" lon="-3.7715895"><ele>669.0</ele><time>2026-05-02T12:33:09.933Z</time></trkpt><trkpt lat="42.7926044" lon="-3.7714947"><ele>674.0</ele><time>2026-05-02T12:33:10.928Z</time></trkpt><trkpt lat="42.7924797" lon="-3.7713938"><ele>679.0</ele><time>2026-05-02T12:33:11.928Z</time></trkpt><trkpt lat="42.7923548" lon="-3.771284"><ele>684.0</ele><time>2026-05-02T12:33:12.929Z</time></trkpt><trkpt lat="42.7922455" lon="-3.7711443"><ele>678.6666666666666</ele><time>2026-05-02T12:33:13.93Z</time></trkpt><trkpt lat="42.7921443" lon="-3.7709904"><ele>673.3333333333333</ele><time>2026-05-02T12:33:14.931Z</time></trkpt><trkpt lat="42.7920555" lon="-3.7708235"><ele>668.0</ele><time>2026-05-02T12:33:15.937Z</time></trkpt><trkpt lat="42.791976" lon="-3.770637"><ele>668.0</ele><time>2026-05-02T12:33:16.933Z</time></trkpt><trkpt lat="42.7919047" lon="-3.7704414"><ele>668.0</ele><time>2026-05-02T12:33:17.936Z</time></trkpt><trkpt lat="42.7918361" lon="-3.7702562"><ele>668.0</ele><time>2026-05-02T12:33:18.934Z</time></trkpt><trkpt lat="42.7917741" lon="-3.7700527"><ele>673.6666666666666</ele><time>2026-05-02T12:33:19.937Z</time></trkpt><trkpt lat="42.7917048" lon="-3.7698686"><ele>679.3333333333334</ele><time>2026-05-02T12:33:20.937Z</time></trkpt><trkpt lat="42.791641" lon="-3.7696734"><ele>685.0</ele><time>2026-05-02T12:33:21.942Z</time></trkpt><trkpt lat="42.7915719" lon="-3.7694749"><ele>679.6666666666667</ele><time>2026-05-02T12:33:22.945Z</time></trkpt><trkpt lat="42.7915068" lon="-3.7692779"><ele>674.3333333333334</ele><time>2026-05-02T12:33:23.94Z</time></trkpt><trkpt lat="42.791438" lon="-3.769081"><ele>669.0</ele><time>2026-05-02T12:33:24.942Z</time></trkpt><trkpt lat="42.7913653" lon="-3.7688891"><ele>669.0</ele><time>2026-05-02T12:33:25.936Z</time></trkpt><trkpt lat="42.7912945" lon="-3.7687013"><ele>669.0</ele><time>2026-05-02T12:33:26.939Z</time></trkpt><trkpt lat="42.7912205" lon="-3.7685135"><ele>669.0</ele><time>2026-05-02T12:33:27.939Z</time></trkpt><trkpt lat="42.7911353" lon="-3.7683351"><ele>666.25</ele><time>2026-05-02T12:33:28.94Z</time></trkpt><trkpt lat="42.7910498" lon="-3.7681748"><ele>663.5</ele><time>2026-05-02T12:33:29.94Z</time></trkpt><trkpt lat="42.7909574" lon="-3.7680128"><ele>660.75</ele><time>2026-05-02T12:33:30.94Z</time></trkpt><trkpt lat="42.7908633" lon="-3.7678608"><ele>658.0</ele><time>2026-05-02T12:33:31.927Z</time></trkpt><trkpt lat="42.7907567" lon="-3.767733"><ele>661.75</ele><time>2026-05-02T12:33:32.935Z</time></trkpt><trkpt lat="42.7906462" lon="-3.7676018"><ele>665.5</ele><time>2026-05-02T12:33:33.937Z</time></trkpt><trkpt lat="42.7905368" lon="-3.767478"><ele>669.25</ele><time>2026-05-02T12:33:34.948Z</time></trkpt><trkpt lat="42.7904331" lon="-3.7673549"><ele>673.0</ele><time>2026-05-02T12:33:35.935Z</time></trkpt><trkpt lat="42.7903228" lon="-3.7672478"><ele>673.0</ele><time>2026-05-02T12:33:36.937Z</time></trkpt><trkpt lat="42.7902138" lon="-3.7671307"><ele>673.0</ele><time>2026-05-02T12:33:37.936Z</time></trkpt><trkpt lat="42.7901079" lon="-3.7670256"><ele>673.0</ele><time>2026-05-02T12:33:38.938Z</time></trkpt><trkpt lat="42.789994" lon="-3.7669133"><ele>673.0</ele><time>2026-05-02T12:33:39.935Z</time></trkpt><trkpt lat="42.7898852" lon="-3.7668002"><ele>675.25</ele><time>2026-05-02T12:33:40.941Z</time></trkpt><trkpt lat="42.789764" lon="-3.7666828"><ele>677.5</ele><time>2026-05-02T12:33:41.938Z</time></trkpt><trkpt lat="42.7896493" lon="-3.7665619"><ele>679.75</ele><time>2026-05-02T12:33:42.938Z</time></trkpt><trkpt lat="42.7895299" lon="-3.7664422"><ele>682.0</ele><time>2026-05-02T12:33:43.935Z</time></trkpt><trkpt lat="42.7894047" lon="-3.7663317"><ele>678.6666666666667</ele><time>2026-05-02T12:33:44.937Z</time></trkpt><trkpt lat="42.7892784" lon="-3.7662197"><ele>675.3333333333334</ele><time>2026-05-02T12:33:45.937Z</time></trkpt><trkpt lat="42.7891433" lon="-3.7661165"><ele>672.0</ele><time>2026-05-02T12:33:46.941Z</time></trkpt><trkpt lat="42.788996" lon="-3.7660245"><ele>672.0</ele><time>2026-05-02T12:33:47.943Z</time></trkpt><trkpt lat="42.7888525" lon="-3.7659334"><ele>672.0</ele><time>2026-05-02T12:33:48.942Z</time></trkpt><trkpt lat="42.788705" lon="-3.7658558"><ele>672.0</ele><time>2026-05-02T12:33:49.943Z</time></trkpt><trkpt lat="42.7885525" lon="-3.7657861"><ele>677.6666666666666</ele><time>2026-05-02T12:33:50.941Z</time></trkpt><trkpt lat="42.7884004" lon="-3.7657293"><ele>683.3333333333333</ele><time>2026-05-02T12:33:51.945Z</time></trkpt><trkpt lat="42.788242" lon="-3.7656738"><ele>689.0</ele><time>2026-05-02T12:33:52.943Z</time></trkpt><trkpt lat="42.7880814" lon="-3.7656373"><ele>689.0</ele><time>2026-05-02T12:33:53.943Z</time></trkpt><trkpt lat="42.7879197" lon="-3.7656172"><ele>689.0</ele><time>2026-05-02T12:33:54.937Z</time></trkpt><trkpt lat="42.7877451" lon="-3.7655899"><ele>689.0</ele><time>2026-05-02T12:33:55.938Z</time></trkpt><trkpt lat="42.7875756" lon="-3.7655846"><ele>691.0</ele><time>2026-05-02T12:33:56.936Z</time></trkpt><trkpt lat="42.7874248" lon="-3.7655885"><ele>693.0</ele><time>2026-05-02T12:33:57.931Z</time></trkpt><trkpt lat="42.7872678" lon="-3.7656115"><ele>695.0</ele><time>2026-05-02T12:33:58.934Z</time></trkpt><trkpt lat="42.7871111" lon="-3.7656561"><ele>695.0</ele><time>2026-05-02T12:33:59.931Z</time></trkpt><trkpt lat="42.7869472" lon="-3.7657025"><ele>695.0</ele><time>2026-05-02T12:34:00.925Z</time></trkpt><trkpt lat="42.7867823" lon="-3.7657641"><ele>695.0</ele><time>2026-05-02T12:34:01.925Z</time></trkpt><trkpt lat="42.7866261" lon="-3.7658305"><ele>692.6666666666666</ele><time>2026-05-02T12:34:02.925Z</time></trkpt><trkpt lat="42.7864693" lon="-3.7659223"><ele>690.3333333333334</ele><time>2026-05-02T12:34:03.927Z</time></trkpt><trkpt lat="42.7863271" lon="-3.7660055"><ele>688.0</ele><time>2026-05-02T12:34:04.926Z</time></trkpt><trkpt lat="42.7861584" lon="-3.7661001"><ele>691.3333333333334</ele><time>2026-05-02T12:34:05.942Z</time></trkpt><trkpt lat="42.7859964" lon="-3.7661974"><ele>694.6666666666666</ele><time>2026-05-02T12:34:06.922Z</time></trkpt><trkpt lat="42.7858392" lon="-3.7662907"><ele>698.0</ele><time>2026-05-02T12:34:07.93Z</time></trkpt><trkpt lat="42.7856827" lon="-3.7663897"><ele>698.0</ele><time>2026-05-02T12:34:08.928Z</time></trkpt><trkpt lat="42.7855283" lon="-3.7664944"><ele>698.0</ele><time>2026-05-02T12:34:09.928Z</time></trkpt><trkpt lat="42.7853699" lon="-3.7665933"><ele>698.0</ele><time>2026-05-02T12:34:10.925Z</time></trkpt><trkpt lat="42.7852132" lon="-3.7666706"><ele>702.0</ele><time>2026-05-02T12:34:11.928Z</time></trkpt><trkpt lat="42.7850678" lon="-3.7667587"><ele>706.0</ele><time>2026-05-02T12:34:12.926Z</time></trkpt><trkpt lat="42.7849152" lon="-3.7668393"><ele>710.0</ele><time>2026-05-02T12:34:13.929Z</time></trkpt><trkpt lat="42.7847566" lon="-3.766919"><ele>710.0</ele><time>2026-05-02T12:34:14.928Z</time></trkpt><trkpt lat="42.7846158" lon="-3.767005"><ele>710.0</ele><time>2026-05-02T12:34:15.935Z</time></trkpt><trkpt lat="42.7844712" lon="-3.7671016"><ele>710.0</ele><time>2026-05-02T12:34:16.939Z</time></trkpt><trkpt lat="42.7843279" lon="-3.7671916"><ele>705.0</ele><time>2026-05-02T12:34:17.937Z</time></trkpt><trkpt lat="42.7841729" lon="-3.7672746"><ele>700.0</ele><time>2026-05-02T12:34:18.931Z</time></trkpt><trkpt lat="42.7840135" lon="-3.7673182"><ele>695.0</ele><time>2026-05-02T12:34:19.933Z</time></trkpt><trkpt lat="42.7838598" lon="-3.7673585"><ele>695.0</ele><time>2026-05-02T12:34:20.937Z</time></trkpt><trkpt lat="42.7836893" lon="-3.7673923"><ele>695.0</ele><time>2026-05-02T12:34:21.943Z</time></trkpt><trkpt lat="42.7835219" lon="-3.767432"><ele>695.0</ele><time>2026-05-02T12:34:22.939Z</time></trkpt><trkpt lat="42.7833574" lon="-3.7674602"><ele>694.0</ele><time>2026-05-02T12:34:23.94Z</time></trkpt><trkpt lat="42.7832038" lon="-3.7674908"><ele>693.0</ele><time>2026-05-02T12:34:24.939Z</time></trkpt><trkpt lat="42.7830586" lon="-3.7675227"><ele>692.0</ele><time>2026-05-02T12:34:25.946Z</time></trkpt><trkpt lat="42.7829125" lon="-3.7675406"><ele>691.0</ele><time>2026-05-02T12:34:26.943Z</time></trkpt><trkpt lat="42.7827703" lon="-3.7675409"><ele>691.0</ele><time>2026-05-02T12:34:27.943Z</time></trkpt><trkpt lat="42.7826254" lon="-3.7675335"><ele>691.0</ele><time>2026-05-02T12:34:28.937Z</time></trkpt><trkpt lat="42.7824789" lon="-3.767498"><ele>691.0</ele><time>2026-05-02T12:34:29.933Z</time></trkpt><trkpt lat="42.7823331" lon="-3.7674364"><ele>691.0</ele><time>2026-05-02T12:34:30.931Z</time></trkpt><trkpt lat="42.7821946" lon="-3.7673419"><ele>691.0</ele><time>2026-05-02T12:34:31.93Z</time></trkpt><trkpt lat="42.7820552" lon="-3.7672378"><ele>691.0</ele><time>2026-05-02T12:34:32.926Z</time></trkpt><trkpt lat="42.7819284" lon="-3.7671029"><ele>691.0</ele><time>2026-05-02T12:34:33.924Z</time></trkpt><trkpt lat="42.7818163" lon="-3.7669561"><ele>690.6666666666667</ele><time>2026-05-02T12:34:34.93Z</time></trkpt><trkpt lat="42.7816983" lon="-3.766797"><ele>690.3333333333334</ele><time>2026-05-02T12:34:35.934Z</time></trkpt><trkpt lat="42.7815957" lon="-3.7666414"><ele>690.0</ele><time>2026-05-02T12:34:36.961Z</time></trkpt><trkpt lat="42.7814914" lon="-3.7664785"><ele>690.0</ele><time>2026-05-02T12:34:37.93Z</time></trkpt><trkpt lat="42.7813907" lon="-3.7663187"><ele>690.0</ele><time>2026-05-02T12:34:38.931Z</time></trkpt><trkpt lat="42.7812798" lon="-3.7661706"><ele>690.0</ele><time>2026-05-02T12:34:39.93Z</time></trkpt><trkpt lat="42.7811648" lon="-3.7660542"><ele>691.5</ele><time>2026-05-02T12:34:40.93Z</time></trkpt><trkpt lat="42.7810488" lon="-3.7659568"><ele>693.0</ele><time>2026-05-02T12:34:41.934Z</time></trkpt><trkpt lat="42.7809222" lon="-3.7658859"><ele>694.5</ele><time>2026-05-02T12:34:42.936Z</time></trkpt><trkpt lat="42.780786" lon="-3.7658294"><ele>696.0</ele><time>2026-05-02T12:34:43.934Z</time></trkpt><trkpt lat="42.7806374" lon="-3.7657977"><ele>696.0</ele><time>2026-05-02T12:34:44.931Z</time></trkpt><trkpt lat="42.7804848" lon="-3.7657993"><ele>696.0</ele><time>2026-05-02T12:34:45.935Z</time></trkpt><trkpt lat="42.7803264" lon="-3.7658351"><ele>696.0</ele><time>2026-05-02T12:34:46.936Z</time></trkpt><trkpt lat="42.7801876" lon="-3.7658945"><ele>697.0</ele><time>2026-05-02T12:34:47.932Z</time></trkpt><trkpt lat="42.7800546" lon="-3.7659757"><ele>698.0</ele><time>2026-05-02T12:34:48.936Z</time></trkpt><trkpt lat="42.7799312" lon="-3.7660903"><ele>699.0</ele><time>2026-05-02T12:34:49.936Z</time></trkpt><trkpt lat="42.7798113" lon="-3.7662236"><ele>705.3333333333334</ele><time>2026-05-02T12:34:50.93Z</time></trkpt><trkpt lat="42.7796949" lon="-3.7663605"><ele>711.6666666666667</ele><time>2026-05-02T12:34:51.93Z</time></trkpt><trkpt lat="42.7795932" lon="-3.7665322"><ele>718.0</ele><time>2026-05-02T12:34:52.934Z</time></trkpt><trkpt lat="42.7795124" lon="-3.7667046"><ele>713.25</ele><time>2026-05-02T12:34:53.939Z</time></trkpt><trkpt lat="42.7794488" lon="-3.7668883"><ele>708.5</ele><time>2026-05-02T12:34:54.938Z</time></trkpt><trkpt lat="42.7793782" lon="-3.7670663"><ele>703.75</ele><time>2026-05-02T12:34:55.942Z</time></trkpt><trkpt lat="42.7793119" lon="-3.7672398"><ele>699.0</ele><time>2026-05-02T12:34:56.942Z</time></trkpt><trkpt lat="42.7792469" lon="-3.7674179"><ele>699.0</ele><time>2026-05-02T12:34:57.944Z</time></trkpt><trkpt lat="42.7791745" lon="-3.7676019"><ele>699.0</ele><time>2026-05-02T12:34:58.942Z</time></trkpt><trkpt lat="42.7791022" lon="-3.7677787"><ele>699.0</ele><time>2026-05-02T12:34:59.94Z</time></trkpt><trkpt lat="42.7790412" lon="-3.7679617"><ele>699.0</ele><time>2026-05-02T12:35:00.938Z</time></trkpt><trkpt lat="42.778976" lon="-3.7681267"><ele>703.0</ele><time>2026-05-02T12:35:01.938Z</time></trkpt><trkpt lat="42.7789181" lon="-3.7683066"><ele>707.0</ele><time>2026-05-02T12:35:02.939Z</time></trkpt><trkpt lat="42.778859" lon="-3.7684951"><ele>711.0</ele><time>2026-05-02T12:35:03.934Z</time></trkpt><trkpt lat="42.7787889" lon="-3.7686708"><ele>715.0</ele><time>2026-05-02T12:35:04.933Z</time></trkpt><trkpt lat="42.7787246" lon="-3.7688355"><ele>716.25</ele><time>2026-05-02T12:35:05.934Z</time></trkpt><trkpt lat="42.7786534" lon="-3.7690153"><ele>717.5</ele><time>2026-05-02T12:35:06.955Z</time></trkpt><trkpt lat="42.7785822" lon="-3.7691883"><ele>718.75</ele><time>2026-05-02T12:35:07.938Z</time></trkpt><trkpt lat="42.7784971" lon="-3.7693519"><ele>720.0</ele><time>2026-05-02T12:35:08.941Z</time></trkpt><trkpt lat="42.7784007" lon="-3.7695109"><ele>720.0</ele><time>2026-05-02T12:35:09.942Z</time></trkpt><trkpt lat="42.7782933" lon="-3.769651"><ele>720.0</ele><time>2026-05-02T12:35:10.942Z</time></trkpt><trkpt lat="42.7781901" lon="-3.7697885"><ele>720.0</ele><time>2026-05-02T12:35:11.941Z</time></trkpt><trkpt lat="42.7780774" lon="-3.7699254"><ele>720.0</ele><time>2026-05-02T12:35:12.941Z</time></trkpt><trkpt lat="42.7779612" lon="-3.7700433"><ele>720.0</ele><time>2026-05-02T12:35:13.94Z</time></trkpt><trkpt lat="42.7778368" lon="-3.770162"><ele>720.0</ele><time>2026-05-02T12:35:14.94Z</time></trkpt><trkpt lat="42.7777164" lon="-3.7702747"><ele>720.0</ele><time>2026-05-02T12:35:15.945Z</time></trkpt><trkpt lat="42.7775742" lon="-3.7703764"><ele>724.0</ele><time>2026-05-02T12:35:16.938Z</time></trkpt><trkpt lat="42.7774355" lon="-3.7704716"><ele>728.0</ele><time>2026-05-02T12:35:17.933Z</time></trkpt><trkpt lat="42.7772942" lon="-3.7705477"><ele>732.0</ele><time>2026-05-02T12:35:18.929Z</time></trkpt><trkpt lat="42.7771558" lon="-3.7706213"><ele>732.0</ele><time>2026-05-02T12:35:19.931Z</time></trkpt><trkpt lat="42.7770157" lon="-3.7707028"><ele>732.0</ele><time>2026-05-02T12:35:20.932Z</time></trkpt><trkpt lat="42.7768752" lon="-3.7707877"><ele>732.0</ele><time>2026-05-02T12:35:21.934Z</time></trkpt><trkpt lat="42.7767301" lon="-3.7708525"><ele>736.25</ele><time>2026-05-02T12:35:22.932Z</time></trkpt><trkpt lat="42.7765873" lon="-3.7709197"><ele>740.5</ele><time>2026-05-02T12:35:23.938Z</time></trkpt><trkpt lat="42.7764446" lon="-3.7709804"><ele>744.75</ele><time>2026-05-02T12:35:24.939Z</time></trkpt><trkpt lat="42.7763098" lon="-3.7710551"><ele>749.0</ele><time>2026-05-02T12:35:25.945Z</time></trkpt><trkpt lat="42.77617" lon="-3.7711242"><ele>749.0</ele><time>2026-05-02T12:35:26.945Z</time></trkpt><trkpt lat="42.7760308" lon="-3.7712025"><ele>749.0</ele><time>2026-05-02T12:35:27.947Z</time></trkpt><trkpt lat="42.7758918" lon="-3.7712776"><ele>749.0</ele><time>2026-05-02T12:35:28.946Z</time></trkpt><trkpt lat="42.7757517" lon="-3.7713541"><ele>744.25</ele><time>2026-05-02T12:35:29.95Z</time></trkpt><trkpt lat="42.7756161" lon="-3.7714261"><ele>739.5</ele><time>2026-05-02T12:35:30.948Z</time></trkpt><trkpt lat="42.7754782" lon="-3.7714955"><ele>734.75</ele><time>2026-05-02T12:35:31.946Z</time></trkpt><trkpt lat="42.7753464" lon="-3.7715737"><ele>730.0</ele><time>2026-05-02T12:35:32.95Z</time></trkpt><trkpt lat="42.7752238" lon="-3.7716614"><ele>731.25</ele><time>2026-05-02T12:35:33.95Z</time></trkpt><trkpt lat="42.7751108" lon="-3.7717613"><ele>732.5</ele><time>2026-05-02T12:35:34.942Z</time></trkpt><trkpt lat="42.7750061" lon="-3.7718735"><ele>733.75</ele><time>2026-05-02T12:35:35.945Z</time></trkpt><trkpt lat="42.7749081" lon="-3.7719762"><ele>735.0</ele><time>2026-05-02T12:35:36.945Z</time></trkpt><trkpt lat="42.7748001" lon="-3.7720966"><ele>735.0</ele><time>2026-05-02T12:35:37.965Z</time></trkpt><trkpt lat="42.7746953" lon="-3.7722253"><ele>735.0</ele><time>2026-05-02T12:35:38.952Z</time></trkpt><trkpt lat="42.7746038" lon="-3.7723597"><ele>735.0</ele><time>2026-05-02T12:35:39.947Z</time></trkpt><trkpt lat="42.7745172" lon="-3.7725069"><ele>735.0</ele><time>2026-05-02T12:35:40.948Z</time></trkpt><trkpt lat="42.7744307" lon="-3.7726525"><ele>733.0</ele><time>2026-05-02T12:35:41.957Z</time></trkpt><trkpt lat="42.77435" lon="-3.7728121"><ele>731.0</ele><time>2026-05-02T12:35:42.953Z</time></trkpt><trkpt lat="42.7742817" lon="-3.7729831"><ele>729.0</ele><time>2026-05-02T12:35:43.951Z</time></trkpt><trkpt lat="42.7742198" lon="-3.7731543"><ele>727.0</ele><time>2026-05-02T12:35:44.952Z</time></trkpt><trkpt lat="42.774163" lon="-3.773324"><ele>727.0</ele><time>2026-05-02T12:35:45.951Z</time></trkpt><trkpt lat="42.7741175" lon="-3.7735157"><ele>727.0</ele><time>2026-05-02T12:35:46.948Z</time></trkpt><trkpt lat="42.7740888" lon="-3.7737085"><ele>727.0</ele><time>2026-05-02T12:35:47.94Z</time></trkpt><trkpt lat="42.7740623" lon="-3.773912"><ele>727.0</ele><time>2026-05-02T12:35:48.947Z</time></trkpt><trkpt lat="42.7740444" lon="-3.7741188"><ele>726.3333333333334</ele><time>2026-05-02T12:35:49.942Z</time></trkpt><trkpt lat="42.7740244" lon="-3.7743201"><ele>725.6666666666666</ele><time>2026-05-02T12:35:50.945Z</time></trkpt><trkpt lat="42.7740214" lon="-3.7745334"><ele>725.0</ele><time>2026-05-02T12:35:51.942Z</time></trkpt><trkpt lat="42.774025" lon="-3.7747462"><ele>724.6666666666666</ele><time>2026-05-02T12:35:52.941Z</time></trkpt><trkpt lat="42.7740351" lon="-3.7749622"><ele>724.3333333333334</ele><time>2026-05-02T12:35:53.945Z</time></trkpt><trkpt lat="42.7740341" lon="-3.7751891"><ele>724.0</ele><time>2026-05-02T12:35:54.945Z</time></trkpt><trkpt lat="42.7740421" lon="-3.7754136"><ele>725.0</ele><time>2026-05-02T12:35:55.947Z</time></trkpt><trkpt lat="42.7740424" lon="-3.7756389"><ele>726.0</ele><time>2026-05-02T12:35:56.945Z</time></trkpt><trkpt lat="42.7740458" lon="-3.7758627"><ele>727.0</ele><time>2026-05-02T12:35:57.946Z</time></trkpt><trkpt lat="42.7740382" lon="-3.7760949"><ele>728.0</ele><time>2026-05-02T12:35:58.948Z</time></trkpt><trkpt lat="42.7740423" lon="-3.7763245"><ele>729.0</ele><time>2026-05-02T12:35:59.95Z</time></trkpt><trkpt lat="42.774041" lon="-3.7765655"><ele>730.0</ele><time>2026-05-02T12:36:00.946Z</time></trkpt><trkpt lat="42.7740452" lon="-3.7768091"><ele>730.6666666666667</ele><time>2026-05-02T12:36:01.939Z</time></trkpt><trkpt lat="42.7740465" lon="-3.777021"><ele>731.3333333333334</ele><time>2026-05-02T12:36:02.941Z</time></trkpt><trkpt lat="42.7740511" lon="-3.7772442"><ele>732.0</ele><time>2026-05-02T12:36:03.942Z</time></trkpt><trkpt lat="42.7740531" lon="-3.7774629"><ele>732.0</ele><time>2026-05-02T12:36:04.941Z</time></trkpt><trkpt lat="42.7740469" lon="-3.7776819"><ele>732.0</ele><time>2026-05-02T12:36:05.939Z</time></trkpt><trkpt lat="42.774021" lon="-3.7778939"><ele>732.0</ele><time>2026-05-02T12:36:06.942Z</time></trkpt><trkpt lat="42.7739687" lon="-3.7780952"><ele>733.3333333333334</ele><time>2026-05-02T12:36:07.936Z</time></trkpt><trkpt lat="42.773902" lon="-3.7782945"><ele>734.6666666666667</ele><time>2026-05-02T12:36:08.953Z</time></trkpt><trkpt lat="42.7738198" lon="-3.7784804"><ele>736.0</ele><time>2026-05-02T12:36:09.934Z</time></trkpt><trkpt lat="42.7737186" lon="-3.7786559"><ele>731.5</ele><time>2026-05-02T12:36:10.942Z</time></trkpt><trkpt lat="42.7736008" lon="-3.7788158"><ele>727.0</ele><time>2026-05-02T12:36:11.945Z</time></trkpt><trkpt lat="42.7733342" lon="-3.7790666"><ele>727.0</ele><time>2026-05-02T12:36:13.943Z</time></trkpt><trkpt lat="42.7731953" lon="-3.7791738"><ele>727.0</ele><time>2026-05-02T12:36:14.945Z</time></trkpt><trkpt lat="42.7730539" lon="-3.7792667"><ele>727.0</ele><time>2026-05-02T12:36:15.946Z</time></trkpt><trkpt lat="42.7729034" lon="-3.7793513"><ele>727.0</ele><time>2026-05-02T12:36:16.949Z</time></trkpt><trkpt lat="42.7727559" lon="-3.7794305"><ele>727.0</ele><time>2026-05-02T12:36:17.949Z</time></trkpt><trkpt lat="42.7726111" lon="-3.7795229"><ele>727.0</ele><time>2026-05-02T12:36:18.95Z</time></trkpt><trkpt lat="42.7724715" lon="-3.779613"><ele>727.0</ele><time>2026-05-02T12:36:19.954Z</time></trkpt><trkpt lat="42.7723366" lon="-3.7797004"><ele>727.0</ele><time>2026-05-02T12:36:20.941Z</time></trkpt><trkpt lat="42.7722075" lon="-3.7797822"><ele>727.0</ele><time>2026-05-02T12:36:21.942Z</time></trkpt><trkpt lat="42.7720847" lon="-3.7798679"><ele>727.0</ele><time>2026-05-02T12:36:22.943Z</time></trkpt><trkpt lat="42.7719553" lon="-3.7799768"><ele>726.6666666666667</ele><time>2026-05-02T12:36:23.949Z</time></trkpt><trkpt lat="42.7718293" lon="-3.7800908"><ele>726.3333333333334</ele><time>2026-05-02T12:36:24.947Z</time></trkpt><trkpt lat="42.7717014" lon="-3.7802027"><ele>726.0</ele><time>2026-05-02T12:36:25.95Z</time></trkpt><trkpt lat="42.7715801" lon="-3.7803222"><ele>726.0</ele><time>2026-05-02T12:36:26.949Z</time></trkpt><trkpt lat="42.7714553" lon="-3.7804413"><ele>726.0</ele><time>2026-05-02T12:36:27.948Z</time></trkpt><trkpt lat="42.7713309" lon="-3.7805725"><ele>726.0</ele><time>2026-05-02T12:36:28.95Z</time></trkpt><trkpt lat="42.7712127" lon="-3.7807003"><ele>726.0</ele><time>2026-05-02T12:36:29.95Z</time></trkpt><trkpt lat="42.7710968" lon="-3.7808303"><ele>726.0</ele><time>2026-05-02T12:36:30.954Z</time></trkpt><trkpt lat="42.7709727" lon="-3.780966"><ele>726.0</ele><time>2026-05-02T12:36:31.944Z</time></trkpt><trkpt lat="42.7708458" lon="-3.7811127"><ele>728.0</ele><time>2026-05-02T12:36:32.944Z</time></trkpt><trkpt lat="42.7707254" lon="-3.781248"><ele>730.0</ele><time>2026-05-02T12:36:33.945Z</time></trkpt><trkpt lat="42.7705951" lon="-3.781373"><ele>732.0</ele><time>2026-05-02T12:36:34.946Z</time></trkpt><trkpt lat="42.7704595" lon="-3.7814972"><ele>732.0</ele><time>2026-05-02T12:36:35.946Z</time></trkpt><trkpt lat="42.7703232" lon="-3.7816179"><ele>732.0</ele><time>2026-05-02T12:36:36.947Z</time></trkpt><trkpt lat="42.7701805" lon="-3.7817501"><ele>732.0</ele><time>2026-05-02T12:36:37.948Z</time></trkpt><trkpt lat="42.7700378" lon="-3.781875"><ele>730.0</ele><time>2026-05-02T12:36:38.952Z</time></trkpt><trkpt lat="42.7698941" lon="-3.7820023"><ele>728.0</ele><time>2026-05-02T12:36:39.963Z</time></trkpt><trkpt lat="42.769746" lon="-3.782122"><ele>726.0</ele><time>2026-05-02T12:36:40.947Z</time></trkpt><trkpt lat="42.7696011" lon="-3.7822447"><ele>726.0</ele><time>2026-05-02T12:36:41.948Z</time></trkpt><trkpt lat="42.7694542" lon="-3.7823751"><ele>726.0</ele><time>2026-05-02T12:36:42.944Z</time></trkpt><trkpt lat="42.7693096" lon="-3.7824981"><ele>726.0</ele><time>2026-05-02T12:36:43.947Z</time></trkpt><trkpt lat="42.7691539" lon="-3.782633"><ele>727.6666666666666</ele><time>2026-05-02T12:36:44.942Z</time></trkpt><trkpt lat="42.768996" lon="-3.7827564"><ele>729.3333333333333</ele><time>2026-05-02T12:36:45.942Z</time></trkpt><trkpt lat="42.7688426" lon="-3.7828838"><ele>731.0</ele><time>2026-05-02T12:36:46.944Z</time></trkpt><trkpt lat="42.7686886" lon="-3.7830095"><ele>731.0</ele><time>2026-05-02T12:36:47.944Z</time></trkpt><trkpt lat="42.7685389" lon="-3.7831452"><ele>731.0</ele><time>2026-05-02T12:36:48.943Z</time></trkpt><trkpt lat="42.7683923" lon="-3.7832762"><ele>731.0</ele><time>2026-05-02T12:36:49.945Z</time></trkpt><trkpt lat="42.7682503" lon="-3.7834177"><ele>732.3333333333333</ele><time>2026-05-02T12:36:50.947Z</time></trkpt><trkpt lat="42.7681263" lon="-3.7835735"><ele>733.6666666666666</ele><time>2026-05-02T12:36:51.949Z</time></trkpt><trkpt lat="42.7680077" lon="-3.7837336"><ele>735.0</ele><time>2026-05-02T12:36:52.943Z</time></trkpt><trkpt lat="42.7679004" lon="-3.7839178"><ele>735.0</ele><time>2026-05-02T12:36:53.95Z</time></trkpt><trkpt lat="42.7678045" lon="-3.7841032"><ele>735.0</ele><time>2026-05-02T12:36:54.943Z</time></trkpt><trkpt lat="42.7677208" lon="-3.7843136"><ele>735.0</ele><time>2026-05-02T12:36:55.948Z</time></trkpt><trkpt lat="42.767643" lon="-3.7845296"><ele>732.0</ele><time>2026-05-02T12:36:56.947Z</time></trkpt><trkpt lat="42.7675697" lon="-3.7847517"><ele>729.0</ele><time>2026-05-02T12:36:57.951Z</time></trkpt><trkpt lat="42.7674959" lon="-3.7849678"><ele>726.0</ele><time>2026-05-02T12:36:58.947Z</time></trkpt><trkpt lat="42.7674212" lon="-3.7851895"><ele>725.3333333333334</ele><time>2026-05-02T12:36:59.951Z</time></trkpt><trkpt lat="42.7673496" lon="-3.7854127"><ele>724.6666666666667</ele><time>2026-05-02T12:37:00.946Z</time></trkpt><trkpt lat="42.7672673" lon="-3.7856447"><ele>724.0</ele><time>2026-05-02T12:37:01.949Z</time></trkpt><trkpt lat="42.7671896" lon="-3.7858722"><ele>724.3333333333334</ele><time>2026-05-02T12:37:02.946Z</time></trkpt><trkpt lat="42.7671116" lon="-3.7860933"><ele>724.6666666666666</ele><time>2026-05-02T12:37:03.947Z</time></trkpt><trkpt lat="42.7670373" lon="-3.7863117"><ele>725.0</ele><time>2026-05-02T12:37:04.942Z</time></trkpt><trkpt lat="42.7669648" lon="-3.7865349"><ele>725.0</ele><time>2026-05-02T12:37:05.946Z</time></trkpt><trkpt lat="42.7668924" lon="-3.7867427"><ele>725.0</ele><time>2026-05-02T12:37:06.943Z</time></trkpt><trkpt lat="42.7668263" lon="-3.7869463"><ele>725.0</ele><time>2026-05-02T12:37:07.942Z</time></trkpt><trkpt lat="42.7667553" lon="-3.7871564"><ele>720.0</ele><time>2026-05-02T12:37:08.955Z</time></trkpt><trkpt lat="42.7666876" lon="-3.7873711"><ele>715.0</ele><time>2026-05-02T12:37:09.943Z</time></trkpt><trkpt lat="42.7666189" lon="-3.7875841"><ele>710.0</ele><time>2026-05-02T12:37:10.957Z</time></trkpt><trkpt lat="42.7665445" lon="-3.7877928"><ele>710.0</ele><time>2026-05-02T12:37:11.943Z</time></trkpt><trkpt lat="42.7664792" lon="-3.7880069"><ele>710.0</ele><time>2026-05-02T12:37:12.943Z</time></trkpt><trkpt lat="42.7664132" lon="-3.7882252"><ele>710.0</ele><time>2026-05-02T12:37:13.944Z</time></trkpt><trkpt lat="42.7663439" lon="-3.7884377"><ele>712.6666666666666</ele><time>2026-05-02T12:37:14.937Z</time></trkpt><trkpt lat="42.7662674" lon="-3.7886441"><ele>715.3333333333334</ele><time>2026-05-02T12:37:15.937Z</time></trkpt><trkpt lat="42.7661978" lon="-3.7888527"><ele>718.0</ele><time>2026-05-02T12:37:16.935Z</time></trkpt><trkpt lat="42.7661191" lon="-3.7890582"><ele>718.0</ele><time>2026-05-02T12:37:17.933Z</time></trkpt><trkpt lat="42.7660339" lon="-3.7892641"><ele>718.0</ele><time>2026-05-02T12:37:18.938Z</time></trkpt><trkpt lat="42.7659404" lon="-3.7894661"><ele>718.0</ele><time>2026-05-02T12:37:19.939Z</time></trkpt><trkpt lat="42.7658391" lon="-3.7896581"><ele>717.0</ele><time>2026-05-02T12:37:20.942Z</time></trkpt><trkpt lat="42.7657242" lon="-3.7898463"><ele>716.0</ele><time>2026-05-02T12:37:21.943Z</time></trkpt><trkpt lat="42.7656015" lon="-3.7900254"><ele>715.0</ele><time>2026-05-02T12:37:22.94Z</time></trkpt><trkpt lat="42.7654884" lon="-3.7901972"><ele>719.0</ele><time>2026-05-02T12:37:23.939Z</time></trkpt><trkpt lat="42.7653874" lon="-3.7903683"><ele>723.0</ele><time>2026-05-02T12:37:24.922Z</time></trkpt><trkpt lat="42.7652903" lon="-3.7905519"><ele>727.0</ele><time>2026-05-02T12:37:25.939Z</time></trkpt><trkpt lat="42.7651863" lon="-3.7907323"><ele>720.6666666666667</ele><time>2026-05-02T12:37:26.929Z</time></trkpt><trkpt lat="42.7650779" lon="-3.7909105"><ele>714.3333333333334</ele><time>2026-05-02T12:37:27.929Z</time></trkpt><trkpt lat="42.7649809" lon="-3.7910958"><ele>708.0</ele><time>2026-05-02T12:37:28.925Z</time></trkpt><trkpt lat="42.7648941" lon="-3.791288"><ele>708.0</ele><time>2026-05-02T12:37:29.926Z</time></trkpt><trkpt lat="42.7648055" lon="-3.791484"><ele>708.0</ele><time>2026-05-02T12:37:30.926Z</time></trkpt><trkpt lat="42.7647237" lon="-3.7916908"><ele>708.0</ele><time>2026-05-02T12:37:31.925Z</time></trkpt><trkpt lat="42.7646441" lon="-3.7919019"><ele>712.0</ele><time>2026-05-02T12:37:32.923Z</time></trkpt><trkpt lat="42.7645651" lon="-3.7921162"><ele>716.0</ele><time>2026-05-02T12:37:33.925Z</time></trkpt><trkpt lat="42.7645004" lon="-3.7923307"><ele>720.0</ele><time>2026-05-02T12:37:34.928Z</time></trkpt><trkpt lat="42.7644439" lon="-3.792551"><ele>722.3333333333334</ele><time>2026-05-02T12:37:35.93Z</time></trkpt><trkpt lat="42.7643769" lon="-3.7927683"><ele>724.6666666666667</ele><time>2026-05-02T12:37:36.927Z</time></trkpt><trkpt lat="42.7643085" lon="-3.7929809"><ele>727.0</ele><time>2026-05-02T12:37:37.919Z</time></trkpt><trkpt lat="42.7642436" lon="-3.7931943"><ele>716.3333333333334</ele><time>2026-05-02T12:37:38.926Z</time></trkpt><trkpt lat="42.7641776" lon="-3.7934174"><ele>705.6666666666666</ele><time>2026-05-02T12:37:39.922Z</time></trkpt><trkpt lat="42.7641184" lon="-3.79365"><ele>695.0</ele><time>2026-05-02T12:37:40.927Z</time></trkpt><trkpt lat="42.7640537" lon="-3.7938722"><ele>695.0</ele><time>2026-05-02T12:37:41.938Z</time></trkpt><trkpt lat="42.7639852" lon="-3.7940922"><ele>695.0</ele><time>2026-05-02T12:37:42.93Z</time></trkpt><trkpt lat="42.7639054" lon="-3.7943017"><ele>695.0</ele><time>2026-05-02T12:37:43.936Z</time></trkpt><trkpt lat="42.763823" lon="-3.7945072"><ele>698.0</ele><time>2026-05-02T12:37:44.927Z</time></trkpt><trkpt lat="42.763755" lon="-3.7946974"><ele>701.0</ele><time>2026-05-02T12:37:45.927Z</time></trkpt><trkpt lat="42.7636876" lon="-3.7948893"><ele>704.0</ele><time>2026-05-02T12:37:46.935Z</time></trkpt><trkpt lat="42.7636207" lon="-3.7950796"><ele>708.0</ele><time>2026-05-02T12:37:47.933Z</time></trkpt><trkpt lat="42.7635485" lon="-3.7952733"><ele>712.0</ele><time>2026-05-02T12:37:48.933Z</time></trkpt><trkpt lat="42.7634727" lon="-3.7954511"><ele>716.0</ele><time>2026-05-02T12:37:49.929Z</time></trkpt><trkpt lat="42.7634099" lon="-3.7956313"><ele>714.0</ele><time>2026-05-02T12:37:50.927Z</time></trkpt><trkpt lat="42.7633395" lon="-3.7958081"><ele>712.0</ele><time>2026-05-02T12:37:51.933Z</time></trkpt><trkpt lat="42.7632629" lon="-3.7959828"><ele>710.0</ele><time>2026-05-02T12:37:52.934Z</time></trkpt><trkpt lat="42.7631806" lon="-3.7961406"><ele>708.0</ele><time>2026-05-02T12:37:53.925Z</time></trkpt><trkpt lat="42.7630924" lon="-3.7962943"><ele>708.0</ele><time>2026-05-02T12:37:54.933Z</time></trkpt><trkpt lat="42.7629937" lon="-3.7964464"><ele>708.0</ele><time>2026-05-02T12:37:55.934Z</time></trkpt><trkpt lat="42.7628768" lon="-3.7965764"><ele>708.0</ele><time>2026-05-02T12:37:56.935Z</time></trkpt><trkpt lat="42.7627432" lon="-3.796687"><ele>708.3333333333334</ele><time>2026-05-02T12:37:57.935Z</time></trkpt><trkpt lat="42.762595" lon="-3.7967743"><ele>708.6666666666667</ele><time>2026-05-02T12:37:58.929Z</time></trkpt><trkpt lat="42.7624489" lon="-3.7968592"><ele>709.0</ele><time>2026-05-02T12:37:59.933Z</time></trkpt><trkpt lat="42.7623008" lon="-3.7969089"><ele>709.0</ele><time>2026-05-02T12:38:00.934Z</time></trkpt><trkpt lat="42.762153" lon="-3.796947"><ele>709.0</ele><time>2026-05-02T12:38:01.934Z</time></trkpt><trkpt lat="42.7619807" lon="-3.7969812"><ele>709.0</ele><time>2026-05-02T12:38:02.935Z</time></trkpt><trkpt lat="42.7618217" lon="-3.7970328"><ele>702.3333333333334</ele><time>2026-05-02T12:38:03.928Z</time></trkpt><trkpt lat="42.7616508" lon="-3.7970883"><ele>695.6666666666666</ele><time>2026-05-02T12:38:04.929Z</time></trkpt><trkpt lat="42.7614898" lon="-3.7971723"><ele>689.0</ele><time>2026-05-02T12:38:05.931Z</time></trkpt><trkpt lat="42.7613376" lon="-3.7972735"><ele>689.0</ele><time>2026-05-02T12:38:06.93Z</time></trkpt><trkpt lat="42.7611903" lon="-3.797377"><ele>689.0</ele><time>2026-05-02T12:38:07.929Z</time></trkpt><trkpt lat="42.7610517" lon="-3.7974858"><ele>689.0</ele><time>2026-05-02T12:38:08.928Z</time></trkpt><trkpt lat="42.7609025" lon="-3.797605"><ele>687.6666666666666</ele><time>2026-05-02T12:38:09.93Z</time></trkpt><trkpt lat="42.7607663" lon="-3.7977202"><ele>686.3333333333334</ele><time>2026-05-02T12:38:10.932Z</time></trkpt><trkpt lat="42.7606255" lon="-3.797825"><ele>685.0</ele><time>2026-05-02T12:38:11.932Z</time></trkpt><trkpt lat="42.7604876" lon="-3.7979552"><ele>685.0</ele><time>2026-05-02T12:38:12.944Z</time></trkpt><trkpt lat="42.7603563" lon="-3.7980681"><ele>685.0</ele><time>2026-05-02T12:38:13.927Z</time></trkpt><trkpt lat="42.7602186" lon="-3.7981878"><ele>685.0</ele><time>2026-05-02T12:38:14.93Z</time></trkpt><trkpt lat="42.7600712" lon="-3.798308"><ele>683.6666666666667</ele><time>2026-05-02T12:38:15.93Z</time></trkpt><trkpt lat="42.7599306" lon="-3.7984305"><ele>682.3333333333334</ele><time>2026-05-02T12:38:16.941Z</time></trkpt><trkpt lat="42.7598005" lon="-3.7985488"><ele>681.0</ele><time>2026-05-02T12:38:17.935Z</time></trkpt><trkpt lat="42.7596677" lon="-3.7986583"><ele>685.0</ele><time>2026-05-02T12:38:18.933Z</time></trkpt><trkpt lat="42.759536" lon="-3.7987641"><ele>689.0</ele><time>2026-05-02T12:38:19.931Z</time></trkpt><trkpt lat="42.7594053" lon="-3.7988801"><ele>693.0</ele><time>2026-05-02T12:38:20.927Z</time></trkpt><trkpt lat="42.7592781" lon="-3.7989991"><ele>693.0</ele><time>2026-05-02T12:38:21.923Z</time></trkpt><trkpt lat="42.7591483" lon="-3.7991128"><ele>693.0</ele><time>2026-05-02T12:38:22.922Z</time></trkpt><trkpt lat="42.759009" lon="-3.7992271"><ele>693.0</ele><time>2026-05-02T12:38:23.921Z</time></trkpt><trkpt lat="42.7588682" lon="-3.7993421"><ele>694.3333333333334</ele><time>2026-05-02T12:38:24.929Z</time></trkpt><trkpt lat="42.7587203" lon="-3.7994594"><ele>695.6666666666667</ele><time>2026-05-02T12:38:25.924Z</time></trkpt><trkpt lat="42.7585721" lon="-3.7995777"><ele>697.0</ele><time>2026-05-02T12:38:26.921Z</time></trkpt><trkpt lat="42.7584294" lon="-3.7996888"><ele>697.0</ele><time>2026-05-02T12:38:27.923Z</time></trkpt><trkpt lat="42.7583" lon="-3.7998117"><ele>697.0</ele><time>2026-05-02T12:38:28.923Z</time></trkpt><trkpt lat="42.758171" lon="-3.7999298"><ele>697.0</ele><time>2026-05-02T12:38:29.925Z</time></trkpt><trkpt lat="42.7580355" lon="-3.8000535"><ele>701.0</ele><time>2026-05-02T12:38:30.923Z</time></trkpt><trkpt lat="42.7578963" lon="-3.8001737"><ele>705.0</ele><time>2026-05-02T12:38:31.927Z</time></trkpt><trkpt lat="42.7577489" lon="-3.8002688"><ele>709.0</ele><time>2026-05-02T12:38:32.931Z</time></trkpt><trkpt lat="42.7576032" lon="-3.8003424"><ele>709.0</ele><time>2026-05-02T12:38:33.933Z</time></trkpt><trkpt lat="42.7574448" lon="-3.8004071"><ele>709.0</ele><time>2026-05-02T12:38:34.929Z</time></trkpt><trkpt lat="42.757287" lon="-3.8004738"><ele>709.0</ele><time>2026-05-02T12:38:35.928Z</time></trkpt><trkpt lat="42.7571338" lon="-3.8005387"><ele>709.0</ele><time>2026-05-02T12:38:36.925Z</time></trkpt><trkpt lat="42.756985" lon="-3.800629"><ele>709.0</ele><time>2026-05-02T12:38:37.93Z</time></trkpt><trkpt lat="42.7568538" lon="-3.800725"><ele>709.0</ele><time>2026-05-02T12:38:38.931Z</time></trkpt><trkpt lat="42.7567269" lon="-3.8008423"><ele>712.6666666666667</ele><time>2026-05-02T12:38:39.927Z</time></trkpt><trkpt lat="42.7566154" lon="-3.8009807"><ele>716.3333333333334</ele><time>2026-05-02T12:38:40.927Z</time></trkpt><trkpt lat="42.7565124" lon="-3.8011402"><ele>720.0</ele><time>2026-05-02T12:38:41.927Z</time></trkpt><trkpt lat="42.756396" lon="-3.8012878"><ele>720.0</ele><time>2026-05-02T12:38:42.929Z</time></trkpt><trkpt lat="42.7562881" lon="-3.8014486"><ele>720.0</ele><time>2026-05-02T12:38:43.937Z</time></trkpt><trkpt lat="42.7561597" lon="-3.8015883"><ele>720.0</ele><time>2026-05-02T12:38:44.929Z</time></trkpt><trkpt lat="42.7560027" lon="-3.8016918"><ele>714.0</ele><time>2026-05-02T12:38:45.923Z</time></trkpt><trkpt lat="42.755843" lon="-3.8017633"><ele>708.0</ele><time>2026-05-02T12:38:46.93Z</time></trkpt><trkpt lat="42.75568" lon="-3.8018394"><ele>702.0</ele><time>2026-05-02T12:38:47.93Z</time></trkpt><trkpt lat="42.7555127" lon="-3.8019175"><ele>702.0</ele><time>2026-05-02T12:38:48.933Z</time></trkpt><trkpt lat="42.7553403" lon="-3.8019992"><ele>702.0</ele><time>2026-05-02T12:38:49.93Z</time></trkpt><trkpt lat="42.7551784" lon="-3.8020779"><ele>702.0</ele><time>2026-05-02T12:38:50.933Z</time></trkpt><trkpt lat="42.7550244" lon="-3.8021482"><ele>696.6666666666666</ele><time>2026-05-02T12:38:51.937Z</time></trkpt><trkpt lat="42.7548644" lon="-3.802221"><ele>691.3333333333333</ele><time>2026-05-02T12:38:52.937Z</time></trkpt><trkpt lat="42.7547038" lon="-3.8023032"><ele>686.0</ele><time>2026-05-02T12:38:53.94Z</time></trkpt><trkpt lat="42.7545433" lon="-3.8023872"><ele>686.0</ele><time>2026-05-02T12:38:54.944Z</time></trkpt><trkpt lat="42.7543827" lon="-3.8024715"><ele>686.0</ele><time>2026-05-02T12:38:55.947Z</time></trkpt><trkpt lat="42.7542358" lon="-3.8025454"><ele>686.0</ele><time>2026-05-02T12:38:56.942Z</time></trkpt><trkpt lat="42.754101" lon="-3.8026193"><ele>687.25</ele><time>2026-05-02T12:38:57.944Z</time></trkpt><trkpt lat="42.7539564" lon="-3.8026799"><ele>688.5</ele><time>2026-05-02T12:38:58.946Z</time></trkpt><trkpt lat="42.7538267" lon="-3.8027378"><ele>689.75</ele><time>2026-05-02T12:38:59.943Z</time></trkpt><trkpt lat="42.7536937" lon="-3.8027911"><ele>691.0</ele><time>2026-05-02T12:39:00.94Z</time></trkpt><trkpt lat="42.7535528" lon="-3.8028327"><ele>691.25</ele><time>2026-05-02T12:39:01.932Z</time></trkpt><trkpt lat="42.7534075" lon="-3.802844"><ele>691.5</ele><time>2026-05-02T12:39:02.941Z</time></trkpt><trkpt lat="42.753252" lon="-3.8028364"><ele>691.75</ele><time>2026-05-02T12:39:03.936Z</time></trkpt><trkpt lat="42.7531098" lon="-3.8028243"><ele>692.0</ele><time>2026-05-02T12:39:04.935Z</time></trkpt><trkpt lat="42.7529756" lon="-3.8028162"><ele>692.0</ele><time>2026-05-02T12:39:05.934Z</time></trkpt><trkpt lat="42.752839" lon="-3.8027944"><ele>692.0</ele><time>2026-05-02T12:39:06.928Z</time></trkpt><trkpt lat="42.7527036" lon="-3.8027409"><ele>692.0</ele><time>2026-05-02T12:39:07.927Z</time></trkpt><trkpt lat="42.7525851" lon="-3.802673"><ele>692.0</ele><time>2026-05-02T12:39:08.928Z</time></trkpt><trkpt lat="42.7524649" lon="-3.802588"><ele>690.4000000000001</ele><time>2026-05-02T12:39:09.924Z</time></trkpt><trkpt lat="42.7523642" lon="-3.802493"><ele>688.8000000000001</ele><time>2026-05-02T12:39:10.927Z</time></trkpt><trkpt lat="42.7522775" lon="-3.8024099"><ele>687.2</ele><time>2026-05-02T12:39:11.925Z</time></trkpt><trkpt lat="42.7522228" lon="-3.80234"><ele>685.6</ele><time>2026-05-02T12:39:12.924Z</time></trkpt><trkpt lat="42.7521454" lon="-3.8022225"><ele>684.0</ele><time>2026-05-02T12:39:14.952Z</time></trkpt><trkpt lat="42.7521063" lon="-3.8021272"><ele>684.0</ele><time>2026-05-02T12:39:16.927Z</time></trkpt><trkpt lat="42.7521426" lon="-3.8020156"><ele>684.0</ele><time>2026-05-02T12:39:19.93Z</time></trkpt><trkpt lat="42.7522125" lon="-3.8019377"><ele>684.0</ele><time>2026-05-02T12:39:22.93Z</time></trkpt><trkpt lat="42.7522846" lon="-3.8018883"><ele>684.0</ele><time>2026-05-02T12:39:26.928Z</time></trkpt></trkseg><trkseg><trkpt lat="42.7522742" lon="-3.8020326"><ele>684.0</ele><time>2026-05-02T14:56:10.914Z</time></trkpt><trkpt lat="42.752278" lon="-3.8021493"><ele>684.0</ele><time>2026-05-02T14:56:13.916Z</time></trkpt><trkpt lat="42.7522881" lon="-3.8022615"><ele>684.0</ele><time>2026-05-02T14:56:15.918Z</time></trkpt><trkpt lat="42.7523449" lon="-3.8023841"><ele>684.0</ele><time>2026-05-02T14:56:51.918Z</time></trkpt><trkpt lat="42.7523923" lon="-3.8024466"><ele>684.0</ele><time>2026-05-02T14:56:52.919Z</time></trkpt><trkpt lat="42.7524475" lon="-3.8025057"><ele>684.0</ele><time>2026-05-02T14:56:53.921Z</time></trkpt><trkpt lat="42.7525055" lon="-3.8025595"><ele>684.0</ele><time>2026-05-02T14:56:54.912Z</time></trkpt><trkpt lat="42.7525673" lon="-3.802607"><ele>684.0</ele><time>2026-05-02T14:56:55.916Z</time></trkpt><trkpt lat="42.7526339" lon="-3.8026521"><ele>684.0</ele><time>2026-05-02T14:56:56.915Z</time></trkpt><trkpt lat="42.7527079" lon="-3.8026949"><ele>684.0</ele><time>2026-05-02T14:56:57.923Z</time></trkpt><trkpt lat="42.7527926" lon="-3.8027304"><ele>684.0</ele><time>2026-05-02T14:56:58.917Z</time></trkpt><trkpt lat="42.7528801" lon="-3.8027583"><ele>684.0</ele><time>2026-05-02T14:56:59.917Z</time></trkpt><trkpt lat="42.7529709" lon="-3.8027787"><ele>685.6</ele><time>2026-05-02T14:57:00.915Z</time></trkpt><trkpt lat="42.7530653" lon="-3.8027937"><ele>687.2</ele><time>2026-05-02T14:57:01.912Z</time></trkpt><trkpt lat="42.7531643" lon="-3.8028047"><ele>688.8000000000001</ele><time>2026-05-02T14:57:02.909Z</time></trkpt><trkpt lat="42.753265" lon="-3.8028015"><ele>690.4000000000001</ele><time>2026-05-02T14:57:03.924Z</time></trkpt><trkpt lat="42.7533666" lon="-3.8027958"><ele>692.0</ele><time>2026-05-02T14:57:04.923Z</time></trkpt><trkpt lat="42.7534716" lon="-3.8027913"><ele>691.8</ele><time>2026-05-02T14:57:05.909Z</time></trkpt><trkpt lat="42.7535731" lon="-3.802789"><ele>691.6</ele><time>2026-05-02T14:57:06.918Z</time></trkpt><trkpt lat="42.753673" lon="-3.8027787"><ele>691.4</ele><time>2026-05-02T14:57:07.913Z</time></trkpt><trkpt lat="42.7537729" lon="-3.8027541"><ele>691.1999999999999</ele><time>2026-05-02T14:57:08.908Z</time></trkpt><trkpt lat="42.7538732" lon="-3.8027215"><ele>691.0</ele><time>2026-05-02T14:57:09.888Z</time></trkpt><trkpt lat="42.7539729" lon="-3.8026773"><ele>690.0</ele><time>2026-05-02T14:57:10.903Z</time></trkpt><trkpt lat="42.7540659" lon="-3.802628"><ele>689.0</ele><time>2026-05-02T14:57:11.898Z</time></trkpt><trkpt lat="42.7541584" lon="-3.80258"><ele>688.0</ele><time>2026-05-02T14:57:12.897Z</time></trkpt><trkpt lat="42.7542543" lon="-3.8025361"><ele>687.0</ele><time>2026-05-02T14:57:13.896Z</time></trkpt><trkpt lat="42.754355" lon="-3.802487"><ele>686.0</ele><time>2026-05-02T14:57:14.901Z</time></trkpt><trkpt lat="42.7544531" lon="-3.8024332"><ele>686.0</ele><time>2026-05-02T14:57:15.888Z</time></trkpt><trkpt lat="42.7545516" lon="-3.8023772"><ele>686.0</ele><time>2026-05-02T14:57:16.89Z</time></trkpt><trkpt lat="42.7546547" lon="-3.8023253"><ele>686.0</ele><time>2026-05-02T14:57:17.885Z</time></trkpt><trkpt lat="42.7547699" lon="-3.8022691"><ele>686.0</ele><time>2026-05-02T14:57:18.892Z</time></trkpt><trkpt lat="42.7548869" lon="-3.8022137"><ele>686.0</ele><time>2026-05-02T14:57:19.903Z</time></trkpt><trkpt lat="42.7550033" lon="-3.8021568"><ele>686.0</ele><time>2026-05-02T14:57:20.903Z</time></trkpt><trkpt lat="42.7551224" lon="-3.8020974"><ele>686.0</ele><time>2026-05-02T14:57:21.911Z</time></trkpt><trkpt lat="42.7552444" lon="-3.8020376"><ele>686.0</ele><time>2026-05-02T14:57:22.906Z</time></trkpt><trkpt lat="42.755364" lon="-3.8019802"><ele>686.25</ele><time>2026-05-02T14:57:23.908Z</time></trkpt><trkpt lat="42.7554821" lon="-3.8019178"><ele>686.5</ele><time>2026-05-02T14:57:24.904Z</time></trkpt><trkpt lat="42.7555965" lon="-3.8018537"><ele>686.75</ele><time>2026-05-02T14:57:25.903Z</time></trkpt><trkpt lat="42.7557126" lon="-3.801788"><ele>687.0</ele><time>2026-05-02T14:57:26.911Z</time></trkpt><trkpt lat="42.7558308" lon="-3.801725"><ele>687.0</ele><time>2026-05-02T14:57:27.912Z</time></trkpt><trkpt lat="42.7559473" lon="-3.8016606"><ele>687.0</ele><time>2026-05-02T14:57:28.908Z</time></trkpt><trkpt lat="42.7560619" lon="-3.8015886"><ele>687.0</ele><time>2026-05-02T14:57:29.907Z</time></trkpt><trkpt lat="42.7561728" lon="-3.8015062"><ele>687.0</ele><time>2026-05-02T14:57:30.914Z</time></trkpt><trkpt lat="42.7562788" lon="-3.8014089"><ele>688.0</ele><time>2026-05-02T14:57:31.906Z</time></trkpt><trkpt lat="42.7563781" lon="-3.8012962"><ele>689.0</ele><time>2026-05-02T14:57:32.905Z</time></trkpt><trkpt lat="42.7564719" lon="-3.8011807"><ele>690.0</ele><time>2026-05-02T14:57:33.905Z</time></trkpt><trkpt lat="42.756556" lon="-3.8010601"><ele>691.0</ele><time>2026-05-02T14:57:34.898Z</time></trkpt><trkpt lat="42.7566357" lon="-3.8009367"><ele>691.0</ele><time>2026-05-02T14:57:35.899Z</time></trkpt><trkpt lat="42.7567202" lon="-3.8008149"><ele>691.0</ele><time>2026-05-02T14:57:36.906Z</time></trkpt><trkpt lat="42.7568153" lon="-3.800708"><ele>691.0</ele><time>2026-05-02T14:57:37.911Z</time></trkpt><trkpt lat="42.7569154" lon="-3.8006135"><ele>691.0</ele><time>2026-05-02T14:57:38.897Z</time></trkpt><trkpt lat="42.757021" lon="-3.8005304"><ele>695.5</ele><time>2026-05-02T14:57:39.904Z</time></trkpt><trkpt lat="42.7571343" lon="-3.8004585"><ele>700.0</ele><time>2026-05-02T14:57:40.906Z</time></trkpt><trkpt lat="42.7572504" lon="-3.8003905"><ele>704.5</ele><time>2026-05-02T14:57:41.906Z</time></trkpt><trkpt lat="42.7573703" lon="-3.8003296"><ele>709.0</ele><time>2026-05-02T14:57:42.906Z</time></trkpt><trkpt lat="42.7574977" lon="-3.8002759"><ele>709.0</ele><time>2026-05-02T14:57:43.903Z</time></trkpt><trkpt lat="42.7576289" lon="-3.8002219"><ele>709.0</ele><time>2026-05-02T14:57:44.903Z</time></trkpt><trkpt lat="42.757759" lon="-3.8001588"><ele>709.0</ele><time>2026-05-02T14:57:45.907Z</time></trkpt><trkpt lat="42.7578852" lon="-3.8000882"><ele>709.0</ele><time>2026-05-02T14:57:46.901Z</time></trkpt><trkpt lat="42.758007" lon="-3.8000057"><ele>706.0</ele><time>2026-05-02T14:57:47.907Z</time></trkpt><trkpt lat="42.7581233" lon="-3.7999116"><ele>703.0</ele><time>2026-05-02T14:57:48.898Z</time></trkpt><trkpt lat="42.758236" lon="-3.799812"><ele>700.0</ele><time>2026-05-02T14:57:49.895Z</time></trkpt><trkpt lat="42.7583465" lon="-3.7997136"><ele>697.0</ele><time>2026-05-02T14:57:50.899Z</time></trkpt><trkpt lat="42.7584576" lon="-3.7996157"><ele>696.0</ele><time>2026-05-02T14:57:51.897Z</time></trkpt><trkpt lat="42.7585723" lon="-3.7995194"><ele>695.0</ele><time>2026-05-02T14:57:52.901Z</time></trkpt><trkpt lat="42.7586851" lon="-3.7994225"><ele>694.0</ele><time>2026-05-02T14:57:53.905Z</time></trkpt><trkpt lat="42.7587999" lon="-3.7993206"><ele>693.0</ele><time>2026-05-02T14:57:54.902Z</time></trkpt><trkpt lat="42.7589137" lon="-3.7992154"><ele>693.0</ele><time>2026-05-02T14:57:55.906Z</time></trkpt><trkpt lat="42.759028" lon="-3.7991125"><ele>693.0</ele><time>2026-05-02T14:57:56.897Z</time></trkpt><trkpt lat="42.7591443" lon="-3.7990094"><ele>693.0</ele><time>2026-05-02T14:57:57.901Z</time></trkpt><trkpt lat="42.7592639" lon="-3.7989094"><ele>693.0</ele><time>2026-05-02T14:57:58.902Z</time></trkpt><trkpt lat="42.7593868" lon="-3.7988053"><ele>695.75</ele><time>2026-05-02T14:57:59.899Z</time></trkpt><trkpt lat="42.7595111" lon="-3.7986967"><ele>698.5</ele><time>2026-05-02T14:58:00.907Z</time></trkpt><trkpt lat="42.7596399" lon="-3.7985944"><ele>701.25</ele><time>2026-05-02T14:58:01.903Z</time></trkpt><trkpt lat="42.7597688" lon="-3.7984927"><ele>704.0</ele><time>2026-05-02T14:58:02.901Z</time></trkpt><trkpt lat="42.7598967" lon="-3.7983935"><ele>699.25</ele><time>2026-05-02T14:58:03.901Z</time></trkpt><trkpt lat="42.7600292" lon="-3.7982956"><ele>694.5</ele><time>2026-05-02T14:58:04.907Z</time></trkpt><trkpt lat="42.7601544" lon="-3.7981936"><ele>689.75</ele><time>2026-05-02T14:58:05.905Z</time></trkpt><trkpt lat="42.7602797" lon="-3.7980841"><ele>685.0</ele><time>2026-05-02T14:58:06.904Z</time></trkpt><trkpt lat="42.7604025" lon="-3.7979759"><ele>685.0</ele><time>2026-05-02T14:58:07.902Z</time></trkpt><trkpt lat="42.7605268" lon="-3.7978711"><ele>685.0</ele><time>2026-05-02T14:58:08.929Z</time></trkpt><trkpt lat="42.7606429" lon="-3.797773"><ele>685.0</ele><time>2026-05-02T14:58:09.903Z</time></trkpt><trkpt lat="42.7607604" lon="-3.7976726"><ele>685.0</ele><time>2026-05-02T14:58:10.906Z</time></trkpt><trkpt lat="42.7608819" lon="-3.7975753"><ele>686.0</ele><time>2026-05-02T14:58:11.911Z</time></trkpt><trkpt lat="42.7610035" lon="-3.7974685"><ele>687.0</ele><time>2026-05-02T14:58:12.907Z</time></trkpt><trkpt lat="42.7611245" lon="-3.7973608"><ele>688.0</ele><time>2026-05-02T14:58:13.907Z</time></trkpt><trkpt lat="42.7612488" lon="-3.7972647"><ele>689.0</ele><time>2026-05-02T14:58:14.905Z</time></trkpt><trkpt lat="42.7613754" lon="-3.7971776"><ele>689.0</ele><time>2026-05-02T14:58:15.911Z</time></trkpt><trkpt lat="42.7615019" lon="-3.7971"><ele>689.0</ele><time>2026-05-02T14:58:16.917Z</time></trkpt><trkpt lat="42.7616349" lon="-3.7970333"><ele>689.0</ele><time>2026-05-02T14:58:17.906Z</time></trkpt><trkpt lat="42.7617742" lon="-3.7969808"><ele>689.0</ele><time>2026-05-02T14:58:18.902Z</time></trkpt><trkpt lat="42.761917" lon="-3.796943"><ele>687.5</ele><time>2026-05-02T14:58:19.911Z</time></trkpt><trkpt lat="42.7620597" lon="-3.7969147"><ele>686.0</ele><time>2026-05-02T14:58:20.906Z</time></trkpt><trkpt lat="42.762202" lon="-3.7968867"><ele>684.5</ele><time>2026-05-02T14:58:21.904Z</time></trkpt><trkpt lat="42.7623414" lon="-3.7968437"><ele>683.0</ele><time>2026-05-02T14:58:22.907Z</time></trkpt><trkpt lat="42.762479" lon="-3.7967916"><ele>683.0</ele><time>2026-05-02T14:58:23.893Z</time></trkpt><trkpt lat="42.76262" lon="-3.7967302"><ele>683.0</ele><time>2026-05-02T14:58:24.895Z</time></trkpt><trkpt lat="42.7627523" lon="-3.7966488"><ele>683.0</ele><time>2026-05-02T14:58:25.902Z</time></trkpt><trkpt lat="42.7628739" lon="-3.7965417"><ele>683.0</ele><time>2026-05-02T14:58:26.897Z</time></trkpt><trkpt lat="42.7629833" lon="-3.7964164"><ele>684.5</ele><time>2026-05-02T14:58:27.905Z</time></trkpt><trkpt lat="42.7630836" lon="-3.7962828"><ele>686.0</ele><time>2026-05-02T14:58:28.903Z</time></trkpt><trkpt lat="42.7631756" lon="-3.7961448"><ele>687.5</ele><time>2026-05-02T14:58:29.906Z</time></trkpt><trkpt lat="42.7632536" lon="-3.7959965"><ele>689.0</ele><time>2026-05-02T14:58:30.906Z</time></trkpt><trkpt lat="42.7633244" lon="-3.7958343"><ele>689.0</ele><time>2026-05-02T14:58:31.902Z</time></trkpt><trkpt lat="42.7633894" lon="-3.7956699"><ele>689.0</ele><time>2026-05-02T14:58:32.897Z</time></trkpt><trkpt lat="42.7634453" lon="-3.7955046"><ele>689.0</ele><time>2026-05-02T14:58:33.906Z</time></trkpt><trkpt lat="42.7634943" lon="-3.7953435"><ele>689.0</ele><time>2026-05-02T14:58:34.908Z</time></trkpt><trkpt lat="42.7635441" lon="-3.7951882"><ele>692.75</ele><time>2026-05-02T14:58:35.904Z</time></trkpt><trkpt lat="42.7635942" lon="-3.7950339"><ele>696.5</ele><time>2026-05-02T14:58:36.893Z</time></trkpt><trkpt lat="42.7636442" lon="-3.794882"><ele>700.25</ele><time>2026-05-02T14:58:37.904Z</time></trkpt><trkpt lat="42.7637058" lon="-3.7947359"><ele>704.0</ele><time>2026-05-02T14:58:38.9Z</time></trkpt><trkpt lat="42.7637684" lon="-3.7945878"><ele>704.0</ele><time>2026-05-02T14:58:39.918Z</time></trkpt><trkpt lat="42.7638223" lon="-3.7944327"><ele>704.0</ele><time>2026-05-02T14:58:40.907Z</time></trkpt><trkpt lat="42.763877" lon="-3.7942787"><ele>704.0</ele><time>2026-05-02T14:58:41.906Z</time></trkpt><trkpt lat="42.7639303" lon="-3.7941291"><ele>704.0</ele><time>2026-05-02T14:58:42.905Z</time></trkpt><trkpt lat="42.7639811" lon="-3.793977"><ele>701.75</ele><time>2026-05-02T14:58:43.898Z</time></trkpt><trkpt lat="42.7640286" lon="-3.7938188"><ele>699.5</ele><time>2026-05-02T14:58:44.906Z</time></trkpt><trkpt lat="42.7640798" lon="-3.7936608"><ele>697.25</ele><time>2026-05-02T14:58:45.899Z</time></trkpt><trkpt lat="42.7641267" lon="-3.7934981"><ele>695.0</ele><time>2026-05-02T14:58:46.909Z</time></trkpt><trkpt lat="42.7641763" lon="-3.7933377"><ele>693.75</ele><time>2026-05-02T14:58:47.9Z</time></trkpt><trkpt lat="42.7642235" lon="-3.7931799"><ele>692.5</ele><time>2026-05-02T14:58:48.904Z</time></trkpt><trkpt lat="42.7642679" lon="-3.793022"><ele>691.25</ele><time>2026-05-02T14:58:49.9Z</time></trkpt><trkpt lat="42.7643137" lon="-3.7928672"><ele>690.0</ele><time>2026-05-02T14:58:50.902Z</time></trkpt><trkpt lat="42.7643606" lon="-3.7927131"><ele>697.5</ele><time>2026-05-02T14:58:51.905Z</time></trkpt><trkpt lat="42.7644022" lon="-3.7925599"><ele>705.0</ele><time>2026-05-02T14:58:52.9Z</time></trkpt><trkpt lat="42.764447" lon="-3.7924133"><ele>712.5</ele><time>2026-05-02T14:58:53.895Z</time></trkpt><trkpt lat="42.7644918" lon="-3.7922649"><ele>720.0</ele><time>2026-05-02T14:58:54.901Z</time></trkpt><trkpt lat="42.7645382" lon="-3.7921182"><ele>720.0</ele><time>2026-05-02T14:58:55.909Z</time></trkpt><trkpt lat="42.7645828" lon="-3.7919697"><ele>720.0</ele><time>2026-05-02T14:58:56.905Z</time></trkpt><trkpt lat="42.7646309" lon="-3.7918208"><ele>720.0</ele><time>2026-05-02T14:58:57.907Z</time></trkpt><trkpt lat="42.7646815" lon="-3.7916704"><ele>720.0</ele><time>2026-05-02T14:58:58.907Z</time></trkpt><trkpt lat="42.764735" lon="-3.7915268"><ele>717.0</ele><time>2026-05-02T14:58:59.905Z</time></trkpt><trkpt lat="42.7647926" lon="-3.7913789"><ele>714.0</ele><time>2026-05-02T14:59:00.912Z</time></trkpt><trkpt lat="42.7648538" lon="-3.7912405"><ele>711.0</ele><time>2026-05-02T14:59:01.907Z</time></trkpt><trkpt lat="42.7649164" lon="-3.7911033"><ele>708.0</ele><time>2026-05-02T14:59:02.903Z</time></trkpt><trkpt lat="42.7649797" lon="-3.7909679"><ele>705.0</ele><time>2026-05-02T14:59:03.9Z</time></trkpt><trkpt lat="42.7650472" lon="-3.7908343"><ele>702.0</ele><time>2026-05-02T14:59:04.906Z</time></trkpt><trkpt lat="42.7651204" lon="-3.7907039"><ele>699.0</ele><time>2026-05-02T14:59:05.898Z</time></trkpt><trkpt lat="42.7651974" lon="-3.790576"><ele>696.0</ele><time>2026-05-02T14:59:06.897Z</time></trkpt><trkpt lat="42.7652771" lon="-3.7904496"><ele>700.75</ele><time>2026-05-02T14:59:07.892Z</time></trkpt><trkpt lat="42.7653582" lon="-3.7903251"><ele>705.5</ele><time>2026-05-02T14:59:08.896Z</time></trkpt><trkpt lat="42.765443" lon="-3.790204"><ele>710.25</ele><time>2026-05-02T14:59:09.901Z</time></trkpt><trkpt lat="42.7655267" lon="-3.7900871"><ele>715.0</ele><time>2026-05-02T14:59:10.916Z</time></trkpt><trkpt lat="42.7656064" lon="-3.7899663"><ele>715.0</ele><time>2026-05-02T14:59:11.901Z</time></trkpt><trkpt lat="42.7656839" lon="-3.7898321"><ele>715.0</ele><time>2026-05-02T14:59:12.889Z</time></trkpt><trkpt lat="42.7657593" lon="-3.7897018"><ele>715.0</ele><time>2026-05-02T14:59:13.893Z</time></trkpt><trkpt lat="42.7658356" lon="-3.7895734"><ele>715.0</ele><time>2026-05-02T14:59:14.893Z</time></trkpt><trkpt lat="42.7659024" lon="-3.7894306"><ele>715.75</ele><time>2026-05-02T14:59:15.905Z</time></trkpt><trkpt lat="42.7659685" lon="-3.7892973"><ele>716.5</ele><time>2026-05-02T14:59:16.914Z</time></trkpt><trkpt lat="42.7660301" lon="-3.7891665"><ele>717.25</ele><time>2026-05-02T14:59:17.909Z</time></trkpt><trkpt lat="42.7660881" lon="-3.7890278"><ele>718.0</ele><time>2026-05-02T14:59:18.915Z</time></trkpt><trkpt lat="42.7661413" lon="-3.7888882"><ele>718.0</ele><time>2026-05-02T14:59:19.918Z</time></trkpt><trkpt lat="42.7661896" lon="-3.7887446"><ele>718.0</ele><time>2026-05-02T14:59:20.914Z</time></trkpt><trkpt lat="42.7662397" lon="-3.7886047"><ele>718.0</ele><time>2026-05-02T14:59:21.903Z</time></trkpt><trkpt lat="42.7662917" lon="-3.7884625"><ele>718.0</ele><time>2026-05-02T14:59:22.906Z</time></trkpt><trkpt lat="42.7663975" lon="-3.7881806"><ele>716.0</ele><time>2026-05-02T14:59:24.904Z</time></trkpt><trkpt lat="42.7664461" lon="-3.7880312"><ele>714.0</ele><time>2026-05-02T14:59:25.903Z</time></trkpt><trkpt lat="42.7664919" lon="-3.787882"><ele>712.0</ele><time>2026-05-02T14:59:26.903Z</time></trkpt><trkpt lat="42.7665399" lon="-3.7877311"><ele>710.0</ele><time>2026-05-02T14:59:27.906Z</time></trkpt><trkpt lat="42.7665833" lon="-3.7875768"><ele>708.5</ele><time>2026-05-02T14:59:28.907Z</time></trkpt><trkpt lat="42.7666283" lon="-3.787424"><ele>707.0</ele><time>2026-05-02T14:59:29.904Z</time></trkpt><trkpt lat="42.7666787" lon="-3.7872665"><ele>705.5</ele><time>2026-05-02T14:59:30.903Z</time></trkpt><trkpt lat="42.7667322" lon="-3.7871126"><ele>704.0</ele><time>2026-05-02T14:59:31.901Z</time></trkpt><trkpt lat="42.7667827" lon="-3.7869544"><ele>704.0</ele><time>2026-05-02T14:59:32.902Z</time></trkpt><trkpt lat="42.7668317" lon="-3.7868009"><ele>704.0</ele><time>2026-05-02T14:59:33.902Z</time></trkpt><trkpt lat="42.7668819" lon="-3.7866484"><ele>704.0</ele><time>2026-05-02T14:59:34.905Z</time></trkpt><trkpt lat="42.7669313" lon="-3.7864969"><ele>704.0</ele><time>2026-05-02T14:59:35.909Z</time></trkpt><trkpt lat="42.7669777" lon="-3.7863418"><ele>709.0</ele><time>2026-05-02T14:59:36.908Z</time></trkpt><trkpt lat="42.7670274" lon="-3.7861896"><ele>714.0</ele><time>2026-05-02T14:59:37.911Z</time></trkpt><trkpt lat="42.7670783" lon="-3.7860364"><ele>719.0</ele><time>2026-05-02T14:59:38.907Z</time></trkpt><trkpt lat="42.7671306" lon="-3.7858827"><ele>724.0</ele><time>2026-05-02T14:59:39.913Z</time></trkpt><trkpt lat="42.7671806" lon="-3.7857324"><ele>724.0</ele><time>2026-05-02T14:59:40.908Z</time></trkpt><trkpt lat="42.7672342" lon="-3.785582"><ele>724.0</ele><time>2026-05-02T14:59:41.928Z</time></trkpt><trkpt lat="42.7672854" lon="-3.7854304"><ele>724.0</ele><time>2026-05-02T14:59:42.915Z</time></trkpt><trkpt lat="42.7673362" lon="-3.7852771"><ele>724.0</ele><time>2026-05-02T14:59:43.917Z</time></trkpt><trkpt lat="42.767386" lon="-3.7851225"><ele>724.5</ele><time>2026-05-02T14:59:44.911Z</time></trkpt><trkpt lat="42.7674365" lon="-3.7849721"><ele>725.0</ele><time>2026-05-02T14:59:45.917Z</time></trkpt><trkpt lat="42.7674885" lon="-3.7848223"><ele>725.5</ele><time>2026-05-02T14:59:46.916Z</time></trkpt><trkpt lat="42.767536" lon="-3.7846734"><ele>726.0</ele><time>2026-05-02T14:59:47.917Z</time></trkpt><trkpt lat="42.7675861" lon="-3.7845253"><ele>726.0</ele><time>2026-05-02T14:59:48.911Z</time></trkpt><trkpt lat="42.7676377" lon="-3.7843739"><ele>726.0</ele><time>2026-05-02T14:59:49.912Z</time></trkpt><trkpt lat="42.7676936" lon="-3.7842242"><ele>726.0</ele><time>2026-05-02T14:59:50.915Z</time></trkpt><trkpt lat="42.7677499" lon="-3.7840741"><ele>726.0</ele><time>2026-05-02T14:59:51.916Z</time></trkpt><trkpt lat="42.7678094" lon="-3.7839253"><ele>724.5</ele><time>2026-05-02T14:59:52.914Z</time></trkpt><trkpt lat="42.7678763" lon="-3.7837876"><ele>723.0</ele><time>2026-05-02T14:59:53.908Z</time></trkpt><trkpt lat="42.7679545" lon="-3.78365"><ele>721.5</ele><time>2026-05-02T14:59:54.907Z</time></trkpt><trkpt lat="42.7680446" lon="-3.7835249"><ele>720.0</ele><time>2026-05-02T14:59:55.91Z</time></trkpt><trkpt lat="42.7681366" lon="-3.7834102"><ele>720.0</ele><time>2026-05-02T14:59:56.907Z</time></trkpt><trkpt lat="42.7682379" lon="-3.7832968"><ele>720.0</ele><time>2026-05-02T14:59:57.916Z</time></trkpt><trkpt lat="42.7683452" lon="-3.783186"><ele>720.0</ele><time>2026-05-02T14:59:58.911Z</time></trkpt><trkpt lat="42.7684593" lon="-3.7830856"><ele>720.0</ele><time>2026-05-02T14:59:59.914Z</time></trkpt><trkpt lat="42.7685796" lon="-3.7829886"><ele>719.25</ele><time>2026-05-02T15:00:00.915Z</time></trkpt><trkpt lat="42.7687107" lon="-3.7828957"><ele>718.5</ele><time>2026-05-02T15:00:01.909Z</time></trkpt><trkpt lat="42.7688363" lon="-3.7827989"><ele>717.75</ele><time>2026-05-02T15:00:02.913Z</time></trkpt><trkpt lat="42.7689605" lon="-3.7826909"><ele>717.0</ele><time>2026-05-02T15:00:03.913Z</time></trkpt><trkpt lat="42.7690852" lon="-3.7825942"><ele>717.0</ele><time>2026-05-02T15:00:04.913Z</time></trkpt><trkpt lat="42.7692088" lon="-3.7824937"><ele>717.0</ele><time>2026-05-02T15:00:05.915Z</time></trkpt><trkpt lat="42.769331" lon="-3.7824054"><ele>717.0</ele><time>2026-05-02T15:00:06.92Z</time></trkpt><trkpt lat="42.769449" lon="-3.7823151"><ele>717.0</ele><time>2026-05-02T15:00:07.92Z</time></trkpt><trkpt lat="42.7695659" lon="-3.7822271"><ele>716.75</ele><time>2026-05-02T15:00:08.933Z</time></trkpt><trkpt lat="42.7696782" lon="-3.7821366"><ele>716.5</ele><time>2026-05-02T15:00:09.912Z</time></trkpt><trkpt lat="42.7697928" lon="-3.7820379"><ele>716.25</ele><time>2026-05-02T15:00:10.916Z</time></trkpt><trkpt lat="42.7699052" lon="-3.7819359"><ele>716.0</ele><time>2026-05-02T15:00:11.922Z</time></trkpt><trkpt lat="42.7700222" lon="-3.7818348"><ele>716.0</ele><time>2026-05-02T15:00:12.932Z</time></trkpt><trkpt lat="42.770131" lon="-3.7817362"><ele>716.0</ele><time>2026-05-02T15:00:13.922Z</time></trkpt><trkpt lat="42.7702388" lon="-3.7816283"><ele>716.0</ele><time>2026-05-02T15:00:14.917Z</time></trkpt><trkpt lat="42.770349" lon="-3.78153"><ele>716.0</ele><time>2026-05-02T15:00:15.908Z</time></trkpt><trkpt lat="42.7704572" lon="-3.7814259"><ele>716.75</ele><time>2026-05-02T15:00:16.914Z</time></trkpt><trkpt lat="42.7705618" lon="-3.7813207"><ele>717.5</ele><time>2026-05-02T15:00:17.92Z</time></trkpt><trkpt lat="42.7706724" lon="-3.7812138"><ele>718.25</ele><time>2026-05-02T15:00:18.919Z</time></trkpt><trkpt lat="42.77078" lon="-3.7811028"><ele>719.0</ele><time>2026-05-02T15:00:19.912Z</time></trkpt><trkpt lat="42.7708878" lon="-3.780994"><ele>719.0</ele><time>2026-05-02T15:00:20.914Z</time></trkpt><trkpt lat="42.7709967" lon="-3.7808798"><ele>719.0</ele><time>2026-05-02T15:00:21.928Z</time></trkpt><trkpt lat="42.7711062" lon="-3.7807669"><ele>719.0</ele><time>2026-05-02T15:00:22.912Z</time></trkpt><trkpt lat="42.7712136" lon="-3.7806523"><ele>719.0</ele><time>2026-05-02T15:00:23.912Z</time></trkpt><trkpt lat="42.7713255" lon="-3.7805338"><ele>719.0</ele><time>2026-05-02T15:00:24.91Z</time></trkpt><trkpt lat="42.7714324" lon="-3.7804135"><ele>719.0</ele><time>2026-05-02T15:00:25.909Z</time></trkpt><trkpt lat="42.7715463" lon="-3.7803019"><ele>719.0</ele><time>2026-05-02T15:00:26.919Z</time></trkpt><trkpt lat="42.7716592" lon="-3.7801983"><ele>719.0</ele><time>2026-05-02T15:00:27.919Z</time></trkpt><trkpt lat="42.7717721" lon="-3.7800935"><ele>721.0</ele><time>2026-05-02T15:00:28.912Z</time></trkpt><trkpt lat="42.771885" lon="-3.7799939"><ele>723.0</ele><time>2026-05-02T15:00:29.918Z</time></trkpt><trkpt lat="42.7720017" lon="-3.7798925"><ele>725.0</ele><time>2026-05-02T15:00:30.921Z</time></trkpt><trkpt lat="42.7721181" lon="-3.7797946"><ele>727.0</ele><time>2026-05-02T15:00:31.923Z</time></trkpt><trkpt lat="42.7722447" lon="-3.7797065"><ele>727.0</ele><time>2026-05-02T15:00:32.914Z</time></trkpt><trkpt lat="42.7723713" lon="-3.7796132"><ele>727.0</ele><time>2026-05-02T15:00:33.923Z</time></trkpt><trkpt lat="42.7724947" lon="-3.7795346"><ele>727.0</ele><time>2026-05-02T15:00:34.917Z</time></trkpt><trkpt lat="42.7726173" lon="-3.7794455"><ele>727.0</ele><time>2026-05-02T15:00:35.918Z</time></trkpt><trkpt lat="42.772741" lon="-3.7793676"><ele>727.0</ele><time>2026-05-02T15:00:36.917Z</time></trkpt><trkpt lat="42.7728635" lon="-3.7792875"><ele>727.0</ele><time>2026-05-02T15:00:37.915Z</time></trkpt><trkpt lat="42.772987" lon="-3.7792064"><ele>727.0</ele><time>2026-05-02T15:00:38.916Z</time></trkpt><trkpt lat="42.7731049" lon="-3.7791222"><ele>727.0</ele><time>2026-05-02T15:00:39.917Z</time></trkpt><trkpt lat="42.7732234" lon="-3.7790395"><ele>727.0</ele><time>2026-05-02T15:00:40.911Z</time></trkpt><trkpt lat="42.7733397" lon="-3.7789491"><ele>727.0</ele><time>2026-05-02T15:00:41.917Z</time></trkpt><trkpt lat="42.7734503" lon="-3.7788534"><ele>727.0</ele><time>2026-05-02T15:00:42.912Z</time></trkpt><trkpt lat="42.7735654" lon="-3.7787431"><ele>727.0</ele><time>2026-05-02T15:00:43.931Z</time></trkpt><trkpt lat="42.7736577" lon="-3.7786151"><ele>729.25</ele><time>2026-05-02T15:00:44.913Z</time></trkpt><trkpt lat="42.7737453" lon="-3.7784715"><ele>731.5</ele><time>2026-05-02T15:00:45.915Z</time></trkpt><trkpt lat="42.7738252" lon="-3.7783135"><ele>733.75</ele><time>2026-05-02T15:00:46.909Z</time></trkpt><trkpt lat="42.7738873" lon="-3.7781437"><ele>736.0</ele><time>2026-05-02T15:00:47.914Z</time></trkpt><trkpt lat="42.7739343" lon="-3.7779684"><ele>736.0</ele><time>2026-05-02T15:00:48.912Z</time></trkpt><trkpt lat="42.7739763" lon="-3.7778"><ele>736.0</ele><time>2026-05-02T15:00:49.914Z</time></trkpt><trkpt lat="42.7739991" lon="-3.7776238"><ele>736.0</ele><time>2026-05-02T15:00:50.917Z</time></trkpt><trkpt lat="42.7740174" lon="-3.7774405"><ele>736.0</ele><time>2026-05-02T15:00:51.918Z</time></trkpt><trkpt lat="42.7740271" lon="-3.7772549"><ele>735.0</ele><time>2026-05-02T15:00:52.914Z</time></trkpt><trkpt lat="42.7740241" lon="-3.7770739"><ele>734.0</ele><time>2026-05-02T15:00:53.911Z</time></trkpt><trkpt lat="42.774015" lon="-3.7768927"><ele>733.0</ele><time>2026-05-02T15:00:54.91Z</time></trkpt><trkpt lat="42.774009" lon="-3.7767133"><ele>732.0</ele><time>2026-05-02T15:00:55.91Z</time></trkpt><trkpt lat="42.7740012" lon="-3.7765365"><ele>731.5</ele><time>2026-05-02T15:00:56.91Z</time></trkpt><trkpt lat="42.7739953" lon="-3.7763505"><ele>731.0</ele><time>2026-05-02T15:00:57.912Z</time></trkpt><trkpt lat="42.7739922" lon="-3.776158"><ele>730.5</ele><time>2026-05-02T15:00:58.916Z</time></trkpt><trkpt lat="42.7739917" lon="-3.7759644"><ele>730.0</ele><time>2026-05-02T15:00:59.92Z</time></trkpt><trkpt lat="42.7739924" lon="-3.7757754"><ele>729.25</ele><time>2026-05-02T15:01:00.913Z</time></trkpt><trkpt lat="42.7739948" lon="-3.7755841"><ele>728.5</ele><time>2026-05-02T15:01:01.912Z</time></trkpt><trkpt lat="42.7739957" lon="-3.7753863"><ele>727.75</ele><time>2026-05-02T15:01:02.91Z</time></trkpt><trkpt lat="42.7739893" lon="-3.7751874"><ele>727.0</ele><time>2026-05-02T15:01:03.91Z</time></trkpt><trkpt lat="42.7739839" lon="-3.7749952"><ele>726.5</ele><time>2026-05-02T15:01:04.919Z</time></trkpt><trkpt lat="42.7739871" lon="-3.7748033"><ele>726.0</ele><time>2026-05-02T15:01:05.909Z</time></trkpt><trkpt lat="42.7739843" lon="-3.774612"><ele>725.5</ele><time>2026-05-02T15:01:06.913Z</time></trkpt><trkpt lat="42.7739827" lon="-3.7744195"><ele>725.0</ele><time>2026-05-02T15:01:07.914Z</time></trkpt><trkpt lat="42.7739834" lon="-3.7742309"><ele>725.0</ele><time>2026-05-02T15:01:08.919Z</time></trkpt><trkpt lat="42.7739913" lon="-3.7740476"><ele>725.0</ele><time>2026-05-02T15:01:09.914Z</time></trkpt><trkpt lat="42.7740145" lon="-3.7738627"><ele>725.0</ele><time>2026-05-02T15:01:10.913Z</time></trkpt><trkpt lat="42.7740449" lon="-3.7736742"><ele>725.0</ele><time>2026-05-02T15:01:11.915Z</time></trkpt><trkpt lat="42.7740812" lon="-3.7734849"><ele>725.5</ele><time>2026-05-02T15:01:12.913Z</time></trkpt><trkpt lat="42.7741245" lon="-3.7733065"><ele>726.0</ele><time>2026-05-02T15:01:13.915Z</time></trkpt><trkpt lat="42.774181" lon="-3.773128"><ele>726.5</ele><time>2026-05-02T15:01:14.921Z</time></trkpt><trkpt lat="42.7742367" lon="-3.7729477"><ele>727.0</ele><time>2026-05-02T15:01:15.918Z</time></trkpt><trkpt lat="42.7743012" lon="-3.7727732"><ele>729.0</ele><time>2026-05-02T15:01:16.914Z</time></trkpt><trkpt lat="42.7743831" lon="-3.7726077"><ele>731.0</ele><time>2026-05-02T15:01:17.922Z</time></trkpt><trkpt lat="42.7744695" lon="-3.772453"><ele>733.0</ele><time>2026-05-02T15:01:18.916Z</time></trkpt><trkpt lat="42.7745584" lon="-3.7722989"><ele>735.0</ele><time>2026-05-02T15:01:19.92Z</time></trkpt><trkpt lat="42.7746501" lon="-3.7721606"><ele>735.0</ele><time>2026-05-02T15:01:20.914Z</time></trkpt><trkpt lat="42.774753" lon="-3.7720314"><ele>735.0</ele><time>2026-05-02T15:01:21.923Z</time></trkpt><trkpt lat="42.7748624" lon="-3.7719148"><ele>735.0</ele><time>2026-05-02T15:01:22.92Z</time></trkpt><trkpt lat="42.7749708" lon="-3.7718018"><ele>735.0</ele><time>2026-05-02T15:01:23.923Z</time></trkpt><trkpt lat="42.7750853" lon="-3.7717004"><ele>733.75</ele><time>2026-05-02T15:01:24.918Z</time></trkpt><trkpt lat="42.775211" lon="-3.7715987"><ele>732.5</ele><time>2026-05-02T15:01:25.917Z</time></trkpt><trkpt lat="42.7753423" lon="-3.7715077"><ele>731.25</ele><time>2026-05-02T15:01:26.913Z</time></trkpt><trkpt lat="42.7754631" lon="-3.7714273"><ele>730.0</ele><time>2026-05-02T15:01:27.916Z</time></trkpt><trkpt lat="42.7755782" lon="-3.7713476"><ele>730.0</ele><time>2026-05-02T15:01:28.905Z</time></trkpt><trkpt lat="42.7757172" lon="-3.7712619"><ele>730.0</ele><time>2026-05-02T15:01:29.912Z</time></trkpt><trkpt lat="42.775852" lon="-3.7712019"><ele>730.0</ele><time>2026-05-02T15:01:30.913Z</time></trkpt><trkpt lat="42.7759945" lon="-3.77114"><ele>730.0</ele><time>2026-05-02T15:01:31.916Z</time></trkpt><trkpt lat="42.7761375" lon="-3.7710802"><ele>725.25</ele><time>2026-05-02T15:01:32.915Z</time></trkpt><trkpt lat="42.7762716" lon="-3.7710171"><ele>720.5</ele><time>2026-05-02T15:01:33.916Z</time></trkpt><trkpt lat="42.7763977" lon="-3.7709525"><ele>715.75</ele><time>2026-05-02T15:01:34.912Z</time></trkpt><trkpt lat="42.7765325" lon="-3.7708639"><ele>711.0</ele><time>2026-05-02T15:01:35.909Z</time></trkpt><trkpt lat="42.7766699" lon="-3.7707993"><ele>711.0</ele><time>2026-05-02T15:01:36.912Z</time></trkpt><trkpt lat="42.776816" lon="-3.7707337"><ele>711.0</ele><time>2026-05-02T15:01:37.911Z</time></trkpt><trkpt lat="42.7769517" lon="-3.7706543"><ele>711.0</ele><time>2026-05-02T15:01:38.909Z</time></trkpt><trkpt lat="42.7770905" lon="-3.770569"><ele>718.0</ele><time>2026-05-02T15:01:39.911Z</time></trkpt><trkpt lat="42.7772316" lon="-3.7704899"><ele>725.0</ele><time>2026-05-02T15:01:40.904Z</time></trkpt><trkpt lat="42.7773716" lon="-3.770408"><ele>732.0</ele><time>2026-05-02T15:01:41.906Z</time></trkpt><trkpt lat="42.7775111" lon="-3.7703254"><ele>732.0</ele><time>2026-05-02T15:01:42.901Z</time></trkpt><trkpt lat="42.7776426" lon="-3.7702337"><ele>732.0</ele><time>2026-05-02T15:01:43.905Z</time></trkpt><trkpt lat="42.7777699" lon="-3.770133"><ele>732.0</ele><time>2026-05-02T15:01:44.903Z</time></trkpt><trkpt lat="42.7778911" lon="-3.7700212"><ele>732.0</ele><time>2026-05-02T15:01:45.915Z</time></trkpt><trkpt lat="42.7780054" lon="-3.7698967"><ele>729.0</ele><time>2026-05-02T15:01:46.906Z</time></trkpt><trkpt lat="42.7781175" lon="-3.7697691"><ele>726.0</ele><time>2026-05-02T15:01:47.911Z</time></trkpt><trkpt lat="42.7782183" lon="-3.7696373"><ele>723.0</ele><time>2026-05-02T15:01:48.902Z</time></trkpt><trkpt lat="42.7783148" lon="-3.7695036"><ele>720.0</ele><time>2026-05-02T15:01:49.905Z</time></trkpt><trkpt lat="42.7784017" lon="-3.7693439"><ele>725.3333333333334</ele><time>2026-05-02T15:01:50.898Z</time></trkpt><trkpt lat="42.7784853" lon="-3.7691972"><ele>730.6666666666667</ele><time>2026-05-02T15:01:51.91Z</time></trkpt><trkpt lat="42.7785555" lon="-3.7690492"><ele>736.0</ele><time>2026-05-02T15:01:52.907Z</time></trkpt><trkpt lat="42.7786906" lon="-3.7687153"><ele>736.0</ele><time>2026-05-02T15:01:54.908Z</time></trkpt><trkpt lat="42.7787531" lon="-3.7685393"><ele>736.0</ele><time>2026-05-02T15:01:55.903Z</time></trkpt><trkpt lat="42.7788208" lon="-3.7683592"><ele>736.0</ele><time>2026-05-02T15:01:56.907Z</time></trkpt><trkpt lat="42.7788907" lon="-3.7681818"><ele>736.0</ele><time>2026-05-02T15:01:57.905Z</time></trkpt><trkpt lat="42.7789593" lon="-3.7679911"><ele>729.0</ele><time>2026-05-02T15:01:58.91Z</time></trkpt><trkpt lat="42.7790299" lon="-3.7678027"><ele>722.0</ele><time>2026-05-02T15:01:59.908Z</time></trkpt><trkpt lat="42.7790934" lon="-3.7676191"><ele>715.0</ele><time>2026-05-02T15:02:00.908Z</time></trkpt><trkpt lat="42.7791624" lon="-3.7674396"><ele>715.75</ele><time>2026-05-02T15:02:01.902Z</time></trkpt><trkpt lat="42.7792276" lon="-3.7672652"><ele>716.5</ele><time>2026-05-02T15:02:02.907Z</time></trkpt><trkpt lat="42.779289" lon="-3.7670906"><ele>717.25</ele><time>2026-05-02T15:02:03.9Z</time></trkpt><trkpt lat="42.7793502" lon="-3.7669132"><ele>718.0</ele><time>2026-05-02T15:02:04.909Z</time></trkpt><trkpt lat="42.7794117" lon="-3.7667427"><ele>718.0</ele><time>2026-05-02T15:02:05.901Z</time></trkpt><trkpt lat="42.7794734" lon="-3.7665726"><ele>718.0</ele><time>2026-05-02T15:02:06.903Z</time></trkpt><trkpt lat="42.7795432" lon="-3.7664113"><ele>718.0</ele><time>2026-05-02T15:02:07.905Z</time></trkpt><trkpt lat="42.7796231" lon="-3.7662562"><ele>718.0</ele><time>2026-05-02T15:02:08.907Z</time></trkpt><trkpt lat="42.7797158" lon="-3.7661131"><ele>713.25</ele><time>2026-05-02T15:02:09.901Z</time></trkpt><trkpt lat="42.7798206" lon="-3.7660038"><ele>708.5</ele><time>2026-05-02T15:02:10.897Z</time></trkpt><trkpt lat="42.7799362" lon="-3.7659056"><ele>703.75</ele><time>2026-05-02T15:02:11.9Z</time></trkpt><trkpt lat="42.7800666" lon="-3.7658357"><ele>699.0</ele><time>2026-05-02T15:02:12.895Z</time></trkpt><trkpt lat="42.7802125" lon="-3.7657941"><ele>698.25</ele><time>2026-05-02T15:02:13.901Z</time></trkpt><trkpt lat="42.780351" lon="-3.7657705"><ele>697.5</ele><time>2026-05-02T15:02:14.898Z</time></trkpt><trkpt lat="42.7804896" lon="-3.7657527"><ele>696.75</ele><time>2026-05-02T15:02:15.895Z</time></trkpt><trkpt lat="42.7806266" lon="-3.7657448"><ele>696.0</ele><time>2026-05-02T15:02:16.93Z</time></trkpt><trkpt lat="42.7807585" lon="-3.7657603"><ele>696.0</ele><time>2026-05-02T15:02:17.897Z</time></trkpt><trkpt lat="42.7808943" lon="-3.7657971"><ele>696.0</ele><time>2026-05-02T15:02:18.895Z</time></trkpt><trkpt lat="42.781024" lon="-3.7658752"><ele>696.0</ele><time>2026-05-02T15:02:19.892Z</time></trkpt><trkpt lat="42.7811484" lon="-3.7659638"><ele>696.0</ele><time>2026-05-02T15:02:20.894Z</time></trkpt><trkpt lat="42.7812524" lon="-3.766076"><ele>694.5</ele><time>2026-05-02T15:02:21.902Z</time></trkpt><trkpt lat="42.7813465" lon="-3.7662146"><ele>693.0</ele><time>2026-05-02T15:02:22.899Z</time></trkpt><trkpt lat="42.7814417" lon="-3.766359"><ele>691.5</ele><time>2026-05-02T15:02:23.893Z</time></trkpt><trkpt lat="42.7815409" lon="-3.7665031"><ele>690.0</ele><time>2026-05-02T15:02:24.896Z</time></trkpt><trkpt lat="42.7816238" lon="-3.7666408"><ele>690.0</ele><time>2026-05-02T15:02:25.892Z</time></trkpt><trkpt lat="42.7817312" lon="-3.7667774"><ele>690.0</ele><time>2026-05-02T15:02:26.897Z</time></trkpt><trkpt lat="42.7818255" lon="-3.7669141"><ele>690.0</ele><time>2026-05-02T15:02:27.894Z</time></trkpt><trkpt lat="42.7819221" lon="-3.7670446"><ele>690.0</ele><time>2026-05-02T15:02:28.897Z</time></trkpt><trkpt lat="42.7820286" lon="-3.7671691"><ele>690.25</ele><time>2026-05-02T15:02:29.9Z</time></trkpt><trkpt lat="42.7821452" lon="-3.7672782"><ele>690.5</ele><time>2026-05-02T15:02:30.879Z</time></trkpt><trkpt lat="42.7822636" lon="-3.7673774"><ele>690.75</ele><time>2026-05-02T15:02:31.897Z</time></trkpt><trkpt lat="42.7823835" lon="-3.767457"><ele>691.0</ele><time>2026-05-02T15:02:32.89Z</time></trkpt><trkpt lat="42.7825217" lon="-3.7675028"><ele>691.0</ele><time>2026-05-02T15:02:33.897Z</time></trkpt><trkpt lat="42.7826618" lon="-3.7675383"><ele>691.0</ele><time>2026-05-02T15:02:34.891Z</time></trkpt><trkpt lat="42.7828112" lon="-3.767537"><ele>691.0</ele><time>2026-05-02T15:02:35.891Z</time></trkpt><trkpt lat="42.7829692" lon="-3.7675237"><ele>691.0</ele><time>2026-05-02T15:02:36.885Z</time></trkpt><trkpt lat="42.7831268" lon="-3.7674951"><ele>691.0</ele><time>2026-05-02T15:02:37.886Z</time></trkpt><trkpt lat="42.7832733" lon="-3.7674474"><ele>691.0</ele><time>2026-05-02T15:02:38.894Z</time></trkpt><trkpt lat="42.7834134" lon="-3.7674002"><ele>692.3333333333334</ele><time>2026-05-02T15:02:39.891Z</time></trkpt><trkpt lat="42.7835582" lon="-3.7673743"><ele>693.6666666666666</ele><time>2026-05-02T15:02:40.891Z</time></trkpt><trkpt lat="42.7837066" lon="-3.7673469"><ele>695.0</ele><time>2026-05-02T15:02:41.897Z</time></trkpt><trkpt lat="42.7838612" lon="-3.7673057"><ele>695.0</ele><time>2026-05-02T15:02:42.892Z</time></trkpt><trkpt lat="42.7840034" lon="-3.767265"><ele>695.0</ele><time>2026-05-02T15:02:43.902Z</time></trkpt><trkpt lat="42.7841497" lon="-3.7672214"><ele>695.0</ele><time>2026-05-02T15:02:44.897Z</time></trkpt><trkpt lat="42.7843025" lon="-3.7671589"><ele>692.25</ele><time>2026-05-02T15:02:45.898Z</time></trkpt><trkpt lat="42.7844491" lon="-3.7670886"><ele>689.5</ele><time>2026-05-02T15:02:46.905Z</time></trkpt><trkpt lat="42.784586" lon="-3.7670145"><ele>686.75</ele><time>2026-05-02T15:02:47.895Z</time></trkpt><trkpt lat="42.7847173" lon="-3.7669346"><ele>684.0</ele><time>2026-05-02T15:02:48.893Z</time></trkpt><trkpt lat="42.7848433" lon="-3.7668603"><ele>684.0</ele><time>2026-05-02T15:02:49.893Z</time></trkpt><trkpt lat="42.7849812" lon="-3.7667697"><ele>684.0</ele><time>2026-05-02T15:02:50.896Z</time></trkpt><trkpt lat="42.7851224" lon="-3.7666811"><ele>684.0</ele><time>2026-05-02T15:02:51.897Z</time></trkpt><trkpt lat="42.7852655" lon="-3.7666092"><ele>687.5</ele><time>2026-05-02T15:02:52.894Z</time></trkpt><trkpt lat="42.7853815" lon="-3.7665317"><ele>691.0</ele><time>2026-05-02T15:02:53.888Z</time></trkpt><trkpt lat="42.785511" lon="-3.7664528"><ele>694.5</ele><time>2026-05-02T15:02:54.895Z</time></trkpt><trkpt lat="42.7856347" lon="-3.7663756"><ele>698.0</ele><time>2026-05-02T15:02:55.9Z</time></trkpt><trkpt lat="42.78577" lon="-3.7662933"><ele>698.0</ele><time>2026-05-02T15:02:56.903Z</time></trkpt><trkpt lat="42.7859132" lon="-3.766202"><ele>698.0</ele><time>2026-05-02T15:02:57.889Z</time></trkpt><trkpt lat="42.7860529" lon="-3.766118"><ele>698.0</ele><time>2026-05-02T15:02:58.894Z</time></trkpt><trkpt lat="42.7861823" lon="-3.7660265"><ele>695.5</ele><time>2026-05-02T15:02:59.896Z</time></trkpt><trkpt lat="42.7863114" lon="-3.7659439"><ele>693.0</ele><time>2026-05-02T15:03:00.898Z</time></trkpt><trkpt lat="42.7864405" lon="-3.765868"><ele>690.5</ele><time>2026-05-02T15:03:01.895Z</time></trkpt><trkpt lat="42.7865846" lon="-3.7658027"><ele>688.0</ele><time>2026-05-02T15:03:02.899Z</time></trkpt><trkpt lat="42.7867268" lon="-3.7657518"><ele>689.75</ele><time>2026-05-02T15:03:03.9Z</time></trkpt><trkpt lat="42.7868718" lon="-3.765712"><ele>691.5</ele><time>2026-05-02T15:03:04.902Z</time></trkpt><trkpt lat="42.7870177" lon="-3.7656751"><ele>693.25</ele><time>2026-05-02T15:03:05.896Z</time></trkpt><trkpt lat="42.7871482" lon="-3.7656357"><ele>695.0</ele><time>2026-05-02T15:03:06.899Z</time></trkpt><trkpt lat="42.7872927" lon="-3.7656185"><ele>695.0</ele><time>2026-05-02T15:03:07.9Z</time></trkpt><trkpt lat="42.7874475" lon="-3.7656032"><ele>695.0</ele><time>2026-05-02T15:03:08.896Z</time></trkpt><trkpt lat="42.7876044" lon="-3.7655881"><ele>695.0</ele><time>2026-05-02T15:03:09.892Z</time></trkpt><trkpt lat="42.7877381" lon="-3.7655608"><ele>695.0</ele><time>2026-05-02T15:03:10.892Z</time></trkpt><trkpt lat="42.7878743" lon="-3.7655923"><ele>693.0</ele><time>2026-05-02T15:03:11.89Z</time></trkpt><trkpt lat="42.7880332" lon="-3.7656316"><ele>691.0</ele><time>2026-05-02T15:03:12.892Z</time></trkpt><trkpt lat="42.7881824" lon="-3.7656596"><ele>689.0</ele><time>2026-05-02T15:03:13.896Z</time></trkpt><trkpt lat="42.7883293" lon="-3.7656976"><ele>689.0</ele><time>2026-05-02T15:03:14.892Z</time></trkpt><trkpt lat="42.7884789" lon="-3.7657363"><ele>689.0</ele><time>2026-05-02T15:03:15.899Z</time></trkpt><trkpt lat="42.7886201" lon="-3.7657901"><ele>689.0</ele><time>2026-05-02T15:03:16.903Z</time></trkpt><trkpt lat="42.7887534" lon="-3.7658527"><ele>689.0</ele><time>2026-05-02T15:03:17.916Z</time></trkpt><trkpt lat="42.788887" lon="-3.7659198"><ele>690.5</ele><time>2026-05-02T15:03:18.905Z</time></trkpt><trkpt lat="42.7890218" lon="-3.7659927"><ele>692.0</ele><time>2026-05-02T15:03:19.905Z</time></trkpt><trkpt lat="42.7891509" lon="-3.7660723"><ele>693.5</ele><time>2026-05-02T15:03:20.904Z</time></trkpt><trkpt lat="42.7892721" lon="-3.7661759"><ele>695.0</ele><time>2026-05-02T15:03:21.916Z</time></trkpt><trkpt lat="42.7893994" lon="-3.7662851"><ele>691.75</ele><time>2026-05-02T15:03:22.907Z</time></trkpt><trkpt lat="42.7895211" lon="-3.7663922"><ele>688.5</ele><time>2026-05-02T15:03:23.911Z</time></trkpt><trkpt lat="42.7896376" lon="-3.7665031"><ele>685.25</ele><time>2026-05-02T15:03:24.905Z</time></trkpt><trkpt lat="42.7897532" lon="-3.7666119"><ele>682.0</ele><time>2026-05-02T15:03:25.909Z</time></trkpt><trkpt lat="42.7898715" lon="-3.766724"><ele>682.0</ele><time>2026-05-02T15:03:26.903Z</time></trkpt><trkpt lat="42.7899873" lon="-3.7668407"><ele>682.0</ele><time>2026-05-02T15:03:27.908Z</time></trkpt><trkpt lat="42.7901055" lon="-3.7669589"><ele>682.0</ele><time>2026-05-02T15:03:28.908Z</time></trkpt><trkpt lat="42.7902255" lon="-3.7670735"><ele>682.0</ele><time>2026-05-02T15:03:29.904Z</time></trkpt><trkpt lat="42.7903487" lon="-3.7671938"><ele>679.75</ele><time>2026-05-02T15:03:30.907Z</time></trkpt><trkpt lat="42.7904688" lon="-3.7673213"><ele>677.5</ele><time>2026-05-02T15:03:31.907Z</time></trkpt><trkpt lat="42.7905863" lon="-3.767454"><ele>675.25</ele><time>2026-05-02T15:03:32.903Z</time></trkpt><trkpt lat="42.7906924" lon="-3.7675822"><ele>673.0</ele><time>2026-05-02T15:03:33.9Z</time></trkpt><trkpt lat="42.7907972" lon="-3.7677094"><ele>669.25</ele><time>2026-05-02T15:03:34.913Z</time></trkpt><trkpt lat="42.7909008" lon="-3.7678402"><ele>665.5</ele><time>2026-05-02T15:03:35.905Z</time></trkpt><trkpt lat="42.7910011" lon="-3.7679806"><ele>661.75</ele><time>2026-05-02T15:03:36.898Z</time></trkpt><trkpt lat="42.791093" lon="-3.7681265"><ele>658.0</ele><time>2026-05-02T15:03:37.901Z</time></trkpt><trkpt lat="42.7911812" lon="-3.7682784"><ele>658.0</ele><time>2026-05-02T15:03:38.896Z</time></trkpt><trkpt lat="42.7912591" lon="-3.7684459"><ele>658.0</ele><time>2026-05-02T15:03:39.894Z</time></trkpt><trkpt lat="42.7913283" lon="-3.76863"><ele>658.0</ele><time>2026-05-02T15:03:40.896Z</time></trkpt><trkpt lat="42.7913971" lon="-3.7688078"><ele>658.0</ele><time>2026-05-02T15:03:41.898Z</time></trkpt><trkpt lat="42.7914679" lon="-3.7689853"><ele>660.75</ele><time>2026-05-02T15:03:42.895Z</time></trkpt><trkpt lat="42.7915323" lon="-3.7691707"><ele>663.5</ele><time>2026-05-02T15:03:43.889Z</time></trkpt><trkpt lat="42.7915986" lon="-3.7693541"><ele>666.25</ele><time>2026-05-02T15:03:44.894Z</time></trkpt><trkpt lat="42.7916489" lon="-3.7695443"><ele>669.0</ele><time>2026-05-02T15:03:45.891Z</time></trkpt><trkpt lat="42.791709" lon="-3.7697349"><ele>668.75</ele><time>2026-05-02T15:03:46.893Z</time></trkpt><trkpt lat="42.7917694" lon="-3.7699182"><ele>668.5</ele><time>2026-05-02T15:03:47.893Z</time></trkpt><trkpt lat="42.7918323" lon="-3.7701063"><ele>668.25</ele><time>2026-05-02T15:03:48.9Z</time></trkpt><trkpt lat="42.7918963" lon="-3.7702886"><ele>668.0</ele><time>2026-05-02T15:03:49.881Z</time></trkpt><trkpt lat="42.7919578" lon="-3.7704619"><ele>668.0</ele><time>2026-05-02T15:03:50.884Z</time></trkpt><trkpt lat="42.7920188" lon="-3.7706326"><ele>668.0</ele><time>2026-05-02T15:03:51.89Z</time></trkpt><trkpt lat="42.7920978" lon="-3.7708005"><ele>668.0</ele><time>2026-05-02T15:03:52.881Z</time></trkpt><trkpt lat="42.7921721" lon="-3.7709672"><ele>668.0</ele><time>2026-05-02T15:03:53.883Z</time></trkpt><trkpt lat="42.792253" lon="-3.7711188"><ele>667.0</ele><time>2026-05-02T15:03:54.885Z</time></trkpt><trkpt lat="42.792357" lon="-3.7712527"><ele>666.0</ele><time>2026-05-02T15:03:55.88Z</time></trkpt><trkpt lat="42.7924615" lon="-3.7713798"><ele>665.0</ele><time>2026-05-02T15:03:56.881Z</time></trkpt><trkpt lat="42.7925833" lon="-3.7714826"><ele>664.0</ele><time>2026-05-02T15:03:57.882Z</time></trkpt><trkpt lat="42.7927125" lon="-3.7715677"><ele>664.0</ele><time>2026-05-02T15:03:58.887Z</time></trkpt><trkpt lat="42.7928393" lon="-3.7716531"><ele>664.0</ele><time>2026-05-02T15:03:59.891Z</time></trkpt><trkpt lat="42.7929723" lon="-3.771742"><ele>664.0</ele><time>2026-05-02T15:04:00.892Z</time></trkpt><trkpt lat="42.7931019" lon="-3.7718199"><ele>664.0</ele><time>2026-05-02T15:04:01.9Z</time></trkpt><trkpt lat="42.7932321" lon="-3.7719075"><ele>664.75</ele><time>2026-05-02T15:04:02.898Z</time></trkpt><trkpt lat="42.7933642" lon="-3.7719816"><ele>665.5</ele><time>2026-05-02T15:04:03.896Z</time></trkpt><trkpt lat="42.7935021" lon="-3.7720602"><ele>666.25</ele><time>2026-05-02T15:04:04.9Z</time></trkpt><trkpt lat="42.7936344" lon="-3.7721481"><ele>667.0</ele><time>2026-05-02T15:04:05.897Z</time></trkpt><trkpt lat="42.7937603" lon="-3.7722347"><ele>667.0</ele><time>2026-05-02T15:04:06.899Z</time></trkpt><trkpt lat="42.7938912" lon="-3.7723157"><ele>667.0</ele><time>2026-05-02T15:04:07.899Z</time></trkpt><trkpt lat="42.7940231" lon="-3.7723991"><ele>667.0</ele><time>2026-05-02T15:04:08.895Z</time></trkpt><trkpt lat="42.7941537" lon="-3.7724813"><ele>667.0</ele><time>2026-05-02T15:04:09.901Z</time></trkpt><trkpt lat="42.7942975" lon="-3.7725426"><ele>665.75</ele><time>2026-05-02T15:04:10.894Z</time></trkpt><trkpt lat="42.7944403" lon="-3.7725838"><ele>664.5</ele><time>2026-05-02T15:04:11.892Z</time></trkpt><trkpt lat="42.7945859" lon="-3.7726056"><ele>663.25</ele><time>2026-05-02T15:04:12.888Z</time></trkpt><trkpt lat="42.7947299" lon="-3.7726044"><ele>662.0</ele><time>2026-05-02T15:04:13.893Z</time></trkpt><trkpt lat="42.7948755" lon="-3.7725707"><ele>662.0</ele><time>2026-05-02T15:04:14.888Z</time></trkpt><trkpt lat="42.795022" lon="-3.772531"><ele>662.0</ele><time>2026-05-02T15:04:15.889Z</time></trkpt><trkpt lat="42.795172" lon="-3.7724637"><ele>662.0</ele><time>2026-05-02T15:04:16.889Z</time></trkpt><trkpt lat="42.7953073" lon="-3.7723828"><ele>664.0</ele><time>2026-05-02T15:04:17.892Z</time></trkpt><trkpt lat="42.7954276" lon="-3.7722767"><ele>666.0</ele><time>2026-05-02T15:04:18.893Z</time></trkpt><trkpt lat="42.79554" lon="-3.7721669"><ele>668.0</ele><time>2026-05-02T15:04:19.908Z</time></trkpt><trkpt lat="42.7956533" lon="-3.77206"><ele>670.0</ele><time>2026-05-02T15:04:20.898Z</time></trkpt><trkpt lat="42.7957683" lon="-3.7719558"><ele>670.0</ele><time>2026-05-02T15:04:21.906Z</time></trkpt><trkpt lat="42.7958812" lon="-3.7718589"><ele>670.0</ele><time>2026-05-02T15:04:22.899Z</time></trkpt><trkpt lat="42.7960077" lon="-3.7717662"><ele>670.0</ele><time>2026-05-02T15:04:23.896Z</time></trkpt><trkpt lat="42.7961277" lon="-3.7716747"><ele>670.0</ele><time>2026-05-02T15:04:24.892Z</time></trkpt><trkpt lat="42.7962444" lon="-3.7715775"><ele>670.0</ele><time>2026-05-02T15:04:25.897Z</time></trkpt><trkpt lat="42.7963612" lon="-3.7714819"><ele>670.0</ele><time>2026-05-02T15:04:26.903Z</time></trkpt><trkpt lat="42.7964796" lon="-3.7713788"><ele>670.0</ele><time>2026-05-02T15:04:27.908Z</time></trkpt><trkpt lat="42.7965988" lon="-3.7712805"><ele>670.0</ele><time>2026-05-02T15:04:28.907Z</time></trkpt><trkpt lat="42.7967116" lon="-3.7711842"><ele>670.0</ele><time>2026-05-02T15:04:29.905Z</time></trkpt><trkpt lat="42.7968326" lon="-3.7710879"><ele>670.0</ele><time>2026-05-02T15:04:30.905Z</time></trkpt><trkpt lat="42.7969534" lon="-3.7709899"><ele>670.0</ele><time>2026-05-02T15:04:31.9Z</time></trkpt><trkpt lat="42.7970697" lon="-3.7709025"><ele>670.0</ele><time>2026-05-02T15:04:32.904Z</time></trkpt><trkpt lat="42.7971826" lon="-3.7707953"><ele>670.0</ele><time>2026-05-02T15:04:33.912Z</time></trkpt><trkpt lat="42.7973007" lon="-3.7706796"><ele>670.0</ele><time>2026-05-02T15:04:34.904Z</time></trkpt><trkpt lat="42.7974229" lon="-3.7705857"><ele>670.0</ele><time>2026-05-02T15:04:35.911Z</time></trkpt><trkpt lat="42.7975438" lon="-3.7704846"><ele>670.0</ele><time>2026-05-02T15:04:36.905Z</time></trkpt><trkpt lat="42.7976581" lon="-3.7703949"><ele>669.0</ele><time>2026-05-02T15:04:37.904Z</time></trkpt><trkpt lat="42.7977769" lon="-3.7702952"><ele>668.0</ele><time>2026-05-02T15:04:38.901Z</time></trkpt><trkpt lat="42.7978969" lon="-3.7701987"><ele>667.0</ele><time>2026-05-02T15:04:39.895Z</time></trkpt><trkpt lat="42.7980198" lon="-3.770101"><ele>666.0</ele><time>2026-05-02T15:04:40.893Z</time></trkpt><trkpt lat="42.7981421" lon="-3.7700095"><ele>666.0</ele><time>2026-05-02T15:04:41.9Z</time></trkpt><trkpt lat="42.7982577" lon="-3.769923"><ele>666.0</ele><time>2026-05-02T15:04:42.894Z</time></trkpt><trkpt lat="42.798363" lon="-3.7698397"><ele>666.0</ele><time>2026-05-02T15:04:43.895Z</time></trkpt><trkpt lat="42.7984615" lon="-3.7697707"><ele>666.0</ele><time>2026-05-02T15:04:44.892Z</time></trkpt><trkpt lat="42.7985567" lon="-3.7697172"><ele>666.0</ele><time>2026-05-02T15:04:45.893Z</time></trkpt><trkpt lat="42.7986637" lon="-3.7696878"><ele>666.0</ele><time>2026-05-02T15:04:46.891Z</time></trkpt><trkpt lat="42.7987736" lon="-3.7696765"><ele>666.0</ele><time>2026-05-02T15:04:47.898Z</time></trkpt><trkpt lat="42.7988866" lon="-3.7696721"><ele>666.0</ele><time>2026-05-02T15:04:48.897Z</time></trkpt><trkpt lat="42.7989983" lon="-3.7696753"><ele>666.0</ele><time>2026-05-02T15:04:49.898Z</time></trkpt><trkpt lat="42.7991115" lon="-3.7696818"><ele>666.0</ele><time>2026-05-02T15:04:50.913Z</time></trkpt><trkpt lat="42.7992266" lon="-3.7696852"><ele>666.0</ele><time>2026-05-02T15:04:51.901Z</time></trkpt><trkpt lat="42.7993389" lon="-3.769694"><ele>666.0</ele><time>2026-05-02T15:04:52.895Z</time></trkpt><trkpt lat="42.7994456" lon="-3.7696981"><ele>666.0</ele><time>2026-05-02T15:04:53.897Z</time></trkpt><trkpt lat="42.7995572" lon="-3.7696935"><ele>666.0</ele><time>2026-05-02T15:04:54.898Z</time></trkpt><trkpt lat="42.799664" lon="-3.7697046"><ele>665.5</ele><time>2026-05-02T15:04:55.895Z</time></trkpt><trkpt lat="42.7997783" lon="-3.7697089"><ele>665.0</ele><time>2026-05-02T15:04:56.896Z</time></trkpt><trkpt lat="42.7998943" lon="-3.7697113"><ele>664.5</ele><time>2026-05-02T15:04:57.896Z</time></trkpt><trkpt lat="42.8000037" lon="-3.7697122"><ele>664.0</ele><time>2026-05-02T15:04:58.892Z</time></trkpt><trkpt lat="42.8001169" lon="-3.7697137"><ele>664.75</ele><time>2026-05-02T15:04:59.895Z</time></trkpt><trkpt lat="42.8002411" lon="-3.7697088"><ele>665.5</ele><time>2026-05-02T15:05:00.893Z</time></trkpt><trkpt lat="42.8003605" lon="-3.7697036"><ele>666.25</ele><time>2026-05-02T15:05:01.891Z</time></trkpt><trkpt lat="42.8004686" lon="-3.7697057"><ele>667.0</ele><time>2026-05-02T15:05:02.889Z</time></trkpt><trkpt lat="42.800572" lon="-3.7696911"><ele>667.0</ele><time>2026-05-02T15:05:03.887Z</time></trkpt><trkpt lat="42.800673" lon="-3.7696698"><ele>667.0</ele><time>2026-05-02T15:05:04.893Z</time></trkpt><trkpt lat="42.8007747" lon="-3.7696362"><ele>667.0</ele><time>2026-05-02T15:05:05.892Z</time></trkpt><trkpt lat="42.8008702" lon="-3.7695903"><ele>667.0</ele><time>2026-05-02T15:05:06.891Z</time></trkpt><trkpt lat="42.8009591" lon="-3.769531"><ele>667.0</ele><time>2026-05-02T15:05:07.893Z</time></trkpt><trkpt lat="42.8010408" lon="-3.7694441"><ele>665.8</ele><time>2026-05-02T15:05:08.895Z</time></trkpt><trkpt lat="42.8011041" lon="-3.7693357"><ele>664.6</ele><time>2026-05-02T15:05:09.898Z</time></trkpt><trkpt lat="42.801149" lon="-3.7692061"><ele>663.4</ele><time>2026-05-02T15:05:10.892Z</time></trkpt><trkpt lat="42.8011899" lon="-3.7690692"><ele>662.1999999999999</ele><time>2026-05-02T15:05:11.894Z</time></trkpt><trkpt lat="42.8012303" lon="-3.7689387"><ele>661.0</ele><time>2026-05-02T15:05:12.895Z</time></trkpt><trkpt lat="42.8012698" lon="-3.7688098"><ele>661.0</ele><time>2026-05-02T15:05:13.891Z</time></trkpt><trkpt lat="42.8013099" lon="-3.7686787"><ele>661.0</ele><time>2026-05-02T15:05:14.892Z</time></trkpt><trkpt lat="42.801353" lon="-3.768543"><ele>661.0</ele><time>2026-05-02T15:05:15.897Z</time></trkpt><trkpt lat="42.8013898" lon="-3.7684088"><ele>661.0</ele><time>2026-05-02T15:05:16.894Z</time></trkpt><trkpt lat="42.8014281" lon="-3.7682887"><ele>661.0</ele><time>2026-05-02T15:05:17.892Z</time></trkpt><trkpt lat="42.8014739" lon="-3.7681901"><ele>663.0</ele><time>2026-05-02T15:05:18.897Z</time></trkpt><trkpt lat="42.8015353" lon="-3.7681349"><ele>665.0</ele><time>2026-05-02T15:05:19.896Z</time></trkpt><trkpt lat="42.801611" lon="-3.7681358"><ele>667.0</ele><time>2026-05-02T15:05:20.895Z</time></trkpt><trkpt lat="42.8016869" lon="-3.7681779"><ele>669.0</ele><time>2026-05-02T15:05:21.911Z</time></trkpt><trkpt lat="42.8017497" lon="-3.7682798"><ele>671.0</ele><time>2026-05-02T15:05:22.885Z</time></trkpt><trkpt lat="42.8018121" lon="-3.7683698"><ele>673.0</ele><time>2026-05-02T15:05:23.882Z</time></trkpt><trkpt lat="42.8018846" lon="-3.7684603"><ele>672.8</ele><time>2026-05-02T15:05:24.883Z</time></trkpt><trkpt lat="42.8019622" lon="-3.7685433"><ele>672.5999999999999</ele><time>2026-05-02T15:05:25.877Z</time></trkpt><trkpt lat="42.8020391" lon="-3.7686191"><ele>672.4000000000001</ele><time>2026-05-02T15:05:26.876Z</time></trkpt><trkpt lat="42.8021315" lon="-3.7686906"><ele>672.2</ele><time>2026-05-02T15:05:27.883Z</time></trkpt><trkpt lat="42.8022194" lon="-3.768773"><ele>672.0</ele><time>2026-05-02T15:05:28.879Z</time></trkpt><trkpt lat="42.8023123" lon="-3.7688526"><ele>672.0</ele><time>2026-05-02T15:05:29.881Z</time></trkpt><trkpt lat="42.8024074" lon="-3.7689384"><ele>672.0</ele><time>2026-05-02T15:05:30.88Z</time></trkpt><trkpt lat="42.8025047" lon="-3.7690304"><ele>672.0</ele><time>2026-05-02T15:05:31.881Z</time></trkpt><trkpt lat="42.8026003" lon="-3.7691245"><ele>672.0</ele><time>2026-05-02T15:05:32.875Z</time></trkpt><trkpt lat="42.8026965" lon="-3.769219"><ele>671.25</ele><time>2026-05-02T15:05:33.886Z</time></trkpt><trkpt lat="42.8027892" lon="-3.7693165"><ele>670.5</ele><time>2026-05-02T15:05:34.884Z</time></trkpt><trkpt lat="42.8028851" lon="-3.7694126"><ele>669.75</ele><time>2026-05-02T15:05:35.887Z</time></trkpt><trkpt lat="42.8029826" lon="-3.7695042"><ele>669.0</ele><time>2026-05-02T15:05:36.885Z</time></trkpt><trkpt lat="42.8030803" lon="-3.7696006"><ele>669.0</ele><time>2026-05-02T15:05:37.883Z</time></trkpt><trkpt lat="42.8031785" lon="-3.7696984"><ele>669.0</ele><time>2026-05-02T15:05:38.884Z</time></trkpt><trkpt lat="42.8032787" lon="-3.7697985"><ele>669.0</ele><time>2026-05-02T15:05:39.886Z</time></trkpt><trkpt lat="42.8033797" lon="-3.7699002"><ele>669.0</ele><time>2026-05-02T15:05:40.884Z</time></trkpt><trkpt lat="42.8034772" lon="-3.7700071"><ele>669.25</ele><time>2026-05-02T15:05:41.887Z</time></trkpt><trkpt lat="42.8035786" lon="-3.7701181"><ele>669.5</ele><time>2026-05-02T15:05:42.885Z</time></trkpt><trkpt lat="42.8036805" lon="-3.7702271"><ele>669.75</ele><time>2026-05-02T15:05:43.882Z</time></trkpt><trkpt lat="42.8037841" lon="-3.7703418"><ele>670.0</ele><time>2026-05-02T15:05:44.892Z</time></trkpt><trkpt lat="42.8038847" lon="-3.7704605"><ele>670.0</ele><time>2026-05-02T15:05:45.895Z</time></trkpt><trkpt lat="42.8039832" lon="-3.7705847"><ele>670.0</ele><time>2026-05-02T15:05:46.892Z</time></trkpt><trkpt lat="42.8040811" lon="-3.77071"><ele>670.0</ele><time>2026-05-02T15:05:47.895Z</time></trkpt><trkpt lat="42.8041785" lon="-3.7708415"><ele>670.0</ele><time>2026-05-02T15:05:48.896Z</time></trkpt><trkpt lat="42.8042644" lon="-3.7709892"><ele>673.75</ele><time>2026-05-02T15:05:49.892Z</time></trkpt><trkpt lat="42.8043497" lon="-3.7711333"><ele>677.5</ele><time>2026-05-02T15:05:50.897Z</time></trkpt><trkpt lat="42.8044241" lon="-3.7712762"><ele>681.25</ele><time>2026-05-02T15:05:51.9Z</time></trkpt><trkpt lat="42.8045015" lon="-3.7714153"><ele>685.0</ele><time>2026-05-02T15:05:52.923Z</time></trkpt><trkpt lat="42.8045748" lon="-3.7715661"><ele>685.0</ele><time>2026-05-02T15:05:53.905Z</time></trkpt><trkpt lat="42.8046471" lon="-3.7717196"><ele>685.0</ele><time>2026-05-02T15:05:54.903Z</time></trkpt><trkpt lat="42.8047238" lon="-3.7718679"><ele>685.0</ele><time>2026-05-02T15:05:55.903Z</time></trkpt><trkpt lat="42.804796" lon="-3.7720187"><ele>685.0</ele><time>2026-05-02T15:05:56.9Z</time></trkpt><trkpt lat="42.8048684" lon="-3.7721599"><ele>682.5</ele><time>2026-05-02T15:05:57.906Z</time></trkpt><trkpt lat="42.8049442" lon="-3.7723015"><ele>680.0</ele><time>2026-05-02T15:05:58.897Z</time></trkpt><trkpt lat="42.8050223" lon="-3.7724446"><ele>677.5</ele><time>2026-05-02T15:05:59.899Z</time></trkpt><trkpt lat="42.8050953" lon="-3.772587"><ele>675.0</ele><time>2026-05-02T15:06:00.903Z</time></trkpt><trkpt lat="42.8051679" lon="-3.7727323"><ele>681.25</ele><time>2026-05-02T15:06:01.9Z</time></trkpt><trkpt lat="42.8052478" lon="-3.7728789"><ele>687.5</ele><time>2026-05-02T15:06:02.9Z</time></trkpt><trkpt lat="42.8053285" lon="-3.7730221"><ele>693.75</ele><time>2026-05-02T15:06:03.902Z</time></trkpt><trkpt lat="42.805407" lon="-3.7731641"><ele>700.0</ele><time>2026-05-02T15:06:04.904Z</time></trkpt><trkpt lat="42.8054861" lon="-3.773307"><ele>700.0</ele><time>2026-05-02T15:06:05.904Z</time></trkpt><trkpt lat="42.8055687" lon="-3.7734437"><ele>700.0</ele><time>2026-05-02T15:06:06.903Z</time></trkpt><trkpt lat="42.8056469" lon="-3.7735756"><ele>700.0</ele><time>2026-05-02T15:06:07.904Z</time></trkpt><trkpt lat="42.8057228" lon="-3.7737071"><ele>700.0</ele><time>2026-05-02T15:06:08.903Z</time></trkpt><trkpt lat="42.8057994" lon="-3.7738344"><ele>696.0</ele><time>2026-05-02T15:06:09.903Z</time></trkpt><trkpt lat="42.8058721" lon="-3.773965"><ele>692.0</ele><time>2026-05-02T15:06:10.903Z</time></trkpt><trkpt lat="42.8059441" lon="-3.7740935"><ele>688.0</ele><time>2026-05-02T15:06:11.906Z</time></trkpt><trkpt lat="42.8060163" lon="-3.7742249"><ele>684.0</ele><time>2026-05-02T15:06:12.903Z</time></trkpt><trkpt lat="42.8060918" lon="-3.7743514"><ele>684.0</ele><time>2026-05-02T15:06:13.904Z</time></trkpt><trkpt lat="42.8061761" lon="-3.7744699"><ele>684.0</ele><time>2026-05-02T15:06:14.902Z</time></trkpt><trkpt lat="42.8062613" lon="-3.774576"><ele>684.0</ele><time>2026-05-02T15:06:15.905Z</time></trkpt><trkpt lat="42.8063521" lon="-3.7746703"><ele>684.0</ele><time>2026-05-02T15:06:16.899Z</time></trkpt><trkpt lat="42.806446" lon="-3.7747498"><ele>684.0</ele><time>2026-05-02T15:06:17.909Z</time></trkpt><trkpt lat="42.8065436" lon="-3.7748172"><ele>684.0</ele><time>2026-05-02T15:06:18.896Z</time></trkpt><trkpt lat="42.8066392" lon="-3.7748714"><ele>684.0</ele><time>2026-05-02T15:06:19.896Z</time></trkpt><trkpt lat="42.8067257" lon="-3.7749141"><ele>684.0</ele><time>2026-05-02T15:06:20.895Z</time></trkpt><trkpt lat="42.8068084" lon="-3.7749455"><ele>684.0</ele><time>2026-05-02T15:06:21.898Z</time></trkpt><trkpt lat="42.8068941" lon="-3.7749684"><ele>682.8333333333334</ele><time>2026-05-02T15:06:22.895Z</time></trkpt><trkpt lat="42.806973" lon="-3.7749874"><ele>681.6666666666666</ele><time>2026-05-02T15:06:23.9Z</time></trkpt><trkpt lat="42.8070446" lon="-3.7750024"><ele>680.5</ele><time>2026-05-02T15:06:24.88Z</time></trkpt><trkpt lat="42.8071519" lon="-3.7750225"><ele>679.3333333333333</ele><time>2026-05-02T15:06:26.883Z</time></trkpt><trkpt lat="42.807181" lon="-3.7751337"><ele>678.1666666666666</ele><time>2026-05-02T15:06:49.895Z</time></trkpt><trkpt lat="42.8072607" lon="-3.7751982"><ele>677.0</ele><time>2026-05-02T15:06:51.894Z</time></trkpt><trkpt lat="42.807388" lon="-3.7752403"><ele>677.0</ele><time>2026-05-02T15:06:53.894Z</time></trkpt><trkpt lat="42.8074696" lon="-3.7752661"><ele>677.0</ele><time>2026-05-02T15:06:54.92Z</time></trkpt><trkpt lat="42.8075567" lon="-3.7752883"><ele>677.0</ele><time>2026-05-02T15:06:55.898Z</time></trkpt><trkpt lat="42.8076496" lon="-3.7753072"><ele>677.0</ele><time>2026-05-02T15:06:56.895Z</time></trkpt><trkpt lat="42.807748" lon="-3.7753282"><ele>677.0</ele><time>2026-05-02T15:06:57.899Z</time></trkpt><trkpt lat="42.8078457" lon="-3.7753489"><ele>677.4000000000001</ele><time>2026-05-02T15:06:58.894Z</time></trkpt><trkpt lat="42.807942" lon="-3.7753712"><ele>677.8000000000001</ele><time>2026-05-02T15:06:59.898Z</time></trkpt><trkpt lat="42.8080335" lon="-3.7753934"><ele>678.2</ele><time>2026-05-02T15:07:00.9Z</time></trkpt><trkpt lat="42.8081297" lon="-3.775411"><ele>678.6</ele><time>2026-05-02T15:07:01.899Z</time></trkpt><trkpt lat="42.8082254" lon="-3.7754243"><ele>679.0</ele><time>2026-05-02T15:07:02.897Z</time></trkpt><trkpt lat="42.8083228" lon="-3.7754207"><ele>679.0</ele><time>2026-05-02T15:07:03.892Z</time></trkpt><trkpt lat="42.8084218" lon="-3.7754036"><ele>679.0</ele><time>2026-05-02T15:07:04.896Z</time></trkpt><trkpt lat="42.8085182" lon="-3.77538"><ele>679.0</ele><time>2026-05-02T15:07:05.892Z</time></trkpt><trkpt lat="42.8086059" lon="-3.7753545"><ele>679.0</ele><time>2026-05-02T15:07:06.889Z</time></trkpt><trkpt lat="42.8086933" lon="-3.7753215"><ele>679.0</ele><time>2026-05-02T15:07:07.889Z</time></trkpt><trkpt lat="42.8087761" lon="-3.7752911"><ele>678.5</ele><time>2026-05-02T15:07:08.888Z</time></trkpt><trkpt lat="42.8088616" lon="-3.7752616"><ele>678.0</ele><time>2026-05-02T15:07:09.89Z</time></trkpt><trkpt lat="42.8089428" lon="-3.7752344"><ele>677.5</ele><time>2026-05-02T15:07:10.887Z</time></trkpt><trkpt lat="42.80902" lon="-3.7752125"><ele>677.0</ele><time>2026-05-02T15:07:11.893Z</time></trkpt><trkpt lat="42.8090962" lon="-3.7751908"><ele>676.5</ele><time>2026-05-02T15:07:12.892Z</time></trkpt><trkpt lat="42.8091703" lon="-3.7751663"><ele>676.0</ele><time>2026-05-02T15:07:13.894Z</time></trkpt><trkpt lat="42.8092463" lon="-3.7751505"><ele>675.5714285714286</ele><time>2026-05-02T15:07:14.889Z</time></trkpt><trkpt lat="42.8093252" lon="-3.7751402"><ele>675.1428571428571</ele><time>2026-05-02T15:07:15.895Z</time></trkpt><trkpt lat="42.809403" lon="-3.7751434"><ele>674.7142857142858</ele><time>2026-05-02T15:07:16.893Z</time></trkpt><trkpt lat="42.8094809" lon="-3.7751484"><ele>674.2857142857142</ele><time>2026-05-02T15:07:17.895Z</time></trkpt><trkpt lat="42.8095567" lon="-3.7751576"><ele>673.8571428571428</ele><time>2026-05-02T15:07:18.892Z</time></trkpt><trkpt lat="42.8096264" lon="-3.775177"><ele>673.4285714285714</ele><time>2026-05-02T15:07:19.895Z</time></trkpt><trkpt lat="42.8096911" lon="-3.7751865"><ele>673.0</ele><time>2026-05-02T15:07:20.888Z</time></trkpt><trkpt lat="42.8098043" lon="-3.7751945"><ele>673.0</ele><time>2026-05-02T15:07:22.887Z</time></trkpt><trkpt lat="42.8099073" lon="-3.7752051"><ele>673.0</ele><time>2026-05-02T15:07:24.901Z</time></trkpt><trkpt lat="42.8100083" lon="-3.7752232"><ele>673.0</ele><time>2026-05-02T15:07:26.895Z</time></trkpt><trkpt lat="42.8101167" lon="-3.7752554"><ele>673.0</ele><time>2026-05-02T15:07:28.893Z</time></trkpt><trkpt lat="42.8102171" lon="-3.7753011"><ele>673.0</ele><time>2026-05-02T15:07:30.901Z</time></trkpt><trkpt lat="42.8103196" lon="-3.7753169"><ele>672.3333333333334</ele><time>2026-05-02T15:07:32.894Z</time></trkpt><trkpt lat="42.8104487" lon="-3.7753265"><ele>671.6666666666667</ele><time>2026-05-02T15:07:34.892Z</time></trkpt><trkpt lat="42.8105202" lon="-3.7753388"><ele>671.0</ele><time>2026-05-02T15:07:35.894Z</time></trkpt><trkpt lat="42.8105892" lon="-3.7753489"><ele>670.3333333333334</ele><time>2026-05-02T15:07:36.892Z</time></trkpt><trkpt lat="42.8106631" lon="-3.7753612"><ele>669.6666666666666</ele><time>2026-05-02T15:07:37.889Z</time></trkpt><trkpt lat="42.8107302" lon="-3.7753712"><ele>669.0</ele><time>2026-05-02T15:07:38.888Z</time></trkpt><trkpt lat="42.8108551" lon="-3.775374"><ele>669.0</ele><time>2026-05-02T15:07:40.892Z</time></trkpt><trkpt lat="42.8109327" lon="-3.7753796"><ele>669.0</ele><time>2026-05-02T15:07:41.895Z</time></trkpt><trkpt lat="42.811013" lon="-3.7753802"><ele>669.0</ele><time>2026-05-02T15:07:42.896Z</time></trkpt><trkpt lat="42.8110943" lon="-3.7753814"><ele>669.0</ele><time>2026-05-02T15:07:43.894Z</time></trkpt><trkpt lat="42.811186" lon="-3.7753844"><ele>669.0</ele><time>2026-05-02T15:07:44.897Z</time></trkpt><trkpt lat="42.8112807" lon="-3.7753884"><ele>669.0</ele><time>2026-05-02T15:07:45.897Z</time></trkpt><trkpt lat="42.8113736" lon="-3.7753911"><ele>670.0</ele><time>2026-05-02T15:07:46.896Z</time></trkpt><trkpt lat="42.8114704" lon="-3.775399"><ele>671.0</ele><time>2026-05-02T15:07:47.899Z</time></trkpt><trkpt lat="42.8115628" lon="-3.7754135"><ele>672.0</ele><time>2026-05-02T15:07:48.9Z</time></trkpt><trkpt lat="42.8116595" lon="-3.7754251"><ele>673.0</ele><time>2026-05-02T15:07:49.902Z</time></trkpt><trkpt lat="42.8117511" lon="-3.7754397"><ele>674.0</ele><time>2026-05-02T15:07:50.904Z</time></trkpt><trkpt lat="42.8118406" lon="-3.7754614"><ele>674.5</ele><time>2026-05-02T15:07:51.905Z</time></trkpt><trkpt lat="42.8119273" lon="-3.7754772"><ele>675.0</ele><time>2026-05-02T15:07:52.9Z</time></trkpt><trkpt lat="42.8120147" lon="-3.7754936"><ele>675.5</ele><time>2026-05-02T15:07:53.904Z</time></trkpt><trkpt lat="42.8120903" lon="-3.775513"><ele>676.0</ele><time>2026-05-02T15:07:54.899Z</time></trkpt><trkpt lat="42.8121662" lon="-3.775522"><ele>676.5</ele><time>2026-05-02T15:07:55.911Z</time></trkpt><trkpt lat="42.812233" lon="-3.7755325"><ele>677.0</ele><time>2026-05-02T15:07:56.899Z</time></trkpt><trkpt lat="42.8123536" lon="-3.7755467"><ele>677.0</ele><time>2026-05-02T15:07:58.903Z</time></trkpt><trkpt lat="42.8124574" lon="-3.7755669"><ele>677.0</ele><time>2026-05-02T15:08:00.905Z</time></trkpt><trkpt lat="42.8125445" lon="-3.7756163"><ele>677.0</ele><time>2026-05-02T15:08:02.904Z</time></trkpt><trkpt lat="42.8125992" lon="-3.7756695"><ele>677.0</ele><time>2026-05-02T15:08:04.901Z</time></trkpt><trkpt lat="42.812598" lon="-3.7757781"><ele>677.0</ele><time>2026-05-02T15:08:50.907Z</time></trkpt><trkpt lat="42.8126183" lon="-3.7758879"><ele>677.0</ele><time>2026-05-02T15:09:07.889Z</time></trkpt><trkpt lat="42.8126386" lon="-3.7759907"><ele>676.6666666666666</ele><time>2026-05-02T15:09:08.891Z</time></trkpt><trkpt lat="42.8126431" lon="-3.7760994"><ele>676.3333333333333</ele><time>2026-05-02T15:09:09.891Z</time></trkpt><trkpt lat="42.8126298" lon="-3.7762056"><ele>676.0</ele><time>2026-05-02T15:09:10.888Z</time></trkpt><trkpt lat="42.8126091" lon="-3.7763175"><ele>675.6666666666666</ele><time>2026-05-02T15:09:11.89Z</time></trkpt><trkpt lat="42.8125854" lon="-3.7764212"><ele>675.3333333333334</ele><time>2026-05-02T15:09:12.895Z</time></trkpt><trkpt lat="42.8125674" lon="-3.7765371"><ele>675.0</ele><time>2026-05-02T15:09:13.898Z</time></trkpt><trkpt lat="42.812541" lon="-3.7766604"><ele>675.0</ele><time>2026-05-02T15:09:14.901Z</time></trkpt><trkpt lat="42.8125152" lon="-3.7767878"><ele>675.0</ele><time>2026-05-02T15:09:15.905Z</time></trkpt><trkpt lat="42.8124931" lon="-3.7769179"><ele>675.0</ele><time>2026-05-02T15:09:16.907Z</time></trkpt><trkpt lat="42.8124669" lon="-3.7770475"><ele>675.0</ele><time>2026-05-02T15:09:17.905Z</time></trkpt><trkpt lat="42.8124425" lon="-3.7771731"><ele>675.0</ele><time>2026-05-02T15:09:18.908Z</time></trkpt><trkpt lat="42.8124193" lon="-3.7773074"><ele>675.0</ele><time>2026-05-02T15:09:19.913Z</time></trkpt><trkpt lat="42.8123934" lon="-3.7774385"><ele>675.0</ele><time>2026-05-02T15:09:20.904Z</time></trkpt><trkpt lat="42.8123689" lon="-3.7775628"><ele>675.0</ele><time>2026-05-02T15:09:21.913Z</time></trkpt><trkpt lat="42.8123522" lon="-3.7776838"><ele>675.0</ele><time>2026-05-02T15:09:22.905Z</time></trkpt><trkpt lat="42.8123472" lon="-3.7778029"><ele>675.0</ele><time>2026-05-02T15:09:23.904Z</time></trkpt><trkpt lat="42.8123522" lon="-3.777928"><ele>674.8</ele><time>2026-05-02T15:09:24.899Z</time></trkpt><trkpt lat="42.8123713" lon="-3.7780579"><ele>674.6</ele><time>2026-05-02T15:09:25.903Z</time></trkpt><trkpt lat="42.8124007" lon="-3.7781917"><ele>674.4000000000001</ele><time>2026-05-02T15:09:26.9Z</time></trkpt><trkpt lat="42.8124343" lon="-3.7783261"><ele>674.2</ele><time>2026-05-02T15:09:27.9Z</time></trkpt><trkpt lat="42.8124618" lon="-3.7784621"><ele>674.0</ele><time>2026-05-02T15:09:28.915Z</time></trkpt><trkpt lat="42.8124777" lon="-3.7786038"><ele>673.25</ele><time>2026-05-02T15:09:29.898Z</time></trkpt><trkpt lat="42.8124823" lon="-3.778753"><ele>672.5</ele><time>2026-05-02T15:09:30.901Z</time></trkpt><trkpt lat="42.8124771" lon="-3.7789041"><ele>671.75</ele><time>2026-05-02T15:09:31.902Z</time></trkpt><trkpt lat="42.8124627" lon="-3.7790682"><ele>671.0</ele><time>2026-05-02T15:09:32.902Z</time></trkpt><trkpt lat="42.8124472" lon="-3.7792351"><ele>672.0</ele><time>2026-05-02T15:09:33.902Z</time></trkpt><trkpt lat="42.8124274" lon="-3.779398"><ele>673.0</ele><time>2026-05-02T15:09:34.902Z</time></trkpt><trkpt lat="42.8124082" lon="-3.779565"><ele>674.0</ele><time>2026-05-02T15:09:35.9Z</time></trkpt><trkpt lat="42.812388" lon="-3.7797335"><ele>675.0</ele><time>2026-05-02T15:09:36.901Z</time></trkpt><trkpt lat="42.8123719" lon="-3.7799054"><ele>675.0</ele><time>2026-05-02T15:09:37.896Z</time></trkpt><trkpt lat="42.8123562" lon="-3.7800629"><ele>675.0</ele><time>2026-05-02T15:09:38.896Z</time></trkpt><trkpt lat="42.8123359" lon="-3.78022"><ele>675.0</ele><time>2026-05-02T15:09:39.903Z</time></trkpt><trkpt lat="42.8123223" lon="-3.7803718"><ele>675.0</ele><time>2026-05-02T15:09:40.899Z</time></trkpt><trkpt lat="42.8123049" lon="-3.7805261"><ele>675.6</ele><time>2026-05-02T15:09:41.904Z</time></trkpt><trkpt lat="42.8122884" lon="-3.7806781"><ele>676.2</ele><time>2026-05-02T15:09:42.898Z</time></trkpt><trkpt lat="42.8122749" lon="-3.7808319"><ele>676.8</ele><time>2026-05-02T15:09:43.9Z</time></trkpt><trkpt lat="42.8122622" lon="-3.780986"><ele>677.4</ele><time>2026-05-02T15:09:44.902Z</time></trkpt><trkpt lat="42.8122514" lon="-3.7811344"><ele>678.0</ele><time>2026-05-02T15:09:45.899Z</time></trkpt><trkpt lat="42.8122356" lon="-3.7812785"><ele>678.2</ele><time>2026-05-02T15:09:46.902Z</time></trkpt><trkpt lat="42.8122228" lon="-3.7814133"><ele>678.4</ele><time>2026-05-02T15:09:47.905Z</time></trkpt><trkpt lat="42.8122128" lon="-3.7815406"><ele>678.6</ele><time>2026-05-02T15:09:48.901Z</time></trkpt><trkpt lat="42.8122018" lon="-3.7816682"><ele>678.8000000000001</ele><time>2026-05-02T15:09:49.9Z</time></trkpt><trkpt lat="42.8121904" lon="-3.7817913"><ele>679.0</ele><time>2026-05-02T15:09:50.9Z</time></trkpt><trkpt lat="42.8121808" lon="-3.7819144"><ele>680.2</ele><time>2026-05-02T15:09:51.906Z</time></trkpt><trkpt lat="42.8121673" lon="-3.7820355"><ele>681.4000000000001</ele><time>2026-05-02T15:09:52.909Z</time></trkpt><trkpt lat="42.812155" lon="-3.7821677"><ele>682.6</ele><time>2026-05-02T15:09:53.902Z</time></trkpt><trkpt lat="42.8121412" lon="-3.7823126"><ele>683.8</ele><time>2026-05-02T15:09:54.904Z</time></trkpt><trkpt lat="42.8121243" lon="-3.7824594"><ele>685.0</ele><time>2026-05-02T15:09:55.901Z</time></trkpt><trkpt lat="42.8121062" lon="-3.7826085"><ele>685.8</ele><time>2026-05-02T15:09:56.9Z</time></trkpt><trkpt lat="42.8120937" lon="-3.782753"><ele>686.6</ele><time>2026-05-02T15:09:57.902Z</time></trkpt><trkpt lat="42.8120821" lon="-3.7828921"><ele>687.4000000000001</ele><time>2026-05-02T15:09:58.9Z</time></trkpt><trkpt lat="42.8120715" lon="-3.7830303"><ele>688.2</ele><time>2026-05-02T15:09:59.912Z</time></trkpt><trkpt lat="42.8120544" lon="-3.783165"><ele>689.0</ele><time>2026-05-02T15:10:00.9Z</time></trkpt><trkpt lat="42.8120314" lon="-3.7832949"><ele>689.0</ele><time>2026-05-02T15:10:01.898Z</time></trkpt><trkpt lat="42.8120039" lon="-3.783423"><ele>689.0</ele><time>2026-05-02T15:10:02.89Z</time></trkpt><trkpt lat="42.8119716" lon="-3.7835481"><ele>689.0</ele><time>2026-05-02T15:10:03.893Z</time></trkpt><trkpt lat="42.8119443" lon="-3.7836786"><ele>689.0</ele><time>2026-05-02T15:10:04.891Z</time></trkpt><trkpt lat="42.8119046" lon="-3.7838106"><ele>689.0</ele><time>2026-05-02T15:10:05.895Z</time></trkpt><trkpt lat="42.8118576" lon="-3.7839408"><ele>685.75</ele><time>2026-05-02T15:10:06.891Z</time></trkpt><trkpt lat="42.8117987" lon="-3.7840837"><ele>682.5</ele><time>2026-05-02T15:10:07.897Z</time></trkpt><trkpt lat="42.8117387" lon="-3.7842294"><ele>679.25</ele><time>2026-05-02T15:10:08.897Z</time></trkpt><trkpt lat="42.8116804" lon="-3.7843964"><ele>676.0</ele><time>2026-05-02T15:10:09.889Z</time></trkpt><trkpt lat="42.8116259" lon="-3.7845806"><ele>676.0</ele><time>2026-05-02T15:10:10.897Z</time></trkpt><trkpt lat="42.8115701" lon="-3.7847675"><ele>676.0</ele><time>2026-05-02T15:10:11.895Z</time></trkpt><trkpt lat="42.8115144" lon="-3.7849586"><ele>676.0</ele><time>2026-05-02T15:10:12.899Z</time></trkpt><trkpt lat="42.8114597" lon="-3.7851553"><ele>677.75</ele><time>2026-05-02T15:10:13.899Z</time></trkpt><trkpt lat="42.8114034" lon="-3.7853261"><ele>679.5</ele><time>2026-05-02T15:10:14.898Z</time></trkpt><trkpt lat="42.8113472" lon="-3.7854938"><ele>681.25</ele><time>2026-05-02T15:10:15.896Z</time></trkpt><trkpt lat="42.811295" lon="-3.7856577"><ele>683.0</ele><time>2026-05-02T15:10:16.893Z</time></trkpt><trkpt lat="42.8112513" lon="-3.7857998"><ele>683.0</ele><time>2026-05-02T15:10:17.901Z</time></trkpt><trkpt lat="42.8112115" lon="-3.7859287"><ele>683.0</ele><time>2026-05-02T15:10:18.9Z</time></trkpt><trkpt lat="42.8111721" lon="-3.7860645"><ele>683.0</ele><time>2026-05-02T15:10:19.894Z</time></trkpt><trkpt lat="42.8111498" lon="-3.7861927"><ele>683.0</ele><time>2026-05-02T15:10:20.9Z</time></trkpt><trkpt lat="42.8111312" lon="-3.786332"><ele>683.0</ele><time>2026-05-02T15:10:21.905Z</time></trkpt><trkpt lat="42.8111292" lon="-3.7864604"><ele>681.8</ele><time>2026-05-02T15:10:22.905Z</time></trkpt><trkpt lat="42.8111526" lon="-3.7865822"><ele>680.5999999999999</ele><time>2026-05-02T15:10:23.9Z</time></trkpt><trkpt lat="42.8111902" lon="-3.7866929"><ele>679.4000000000001</ele><time>2026-05-02T15:10:24.901Z</time></trkpt><trkpt lat="42.8112467" lon="-3.7867898"><ele>678.2</ele><time>2026-05-02T15:10:25.892Z</time></trkpt><trkpt lat="42.8113081" lon="-3.7868725"><ele>677.0</ele><time>2026-05-02T15:10:26.893Z</time></trkpt><trkpt lat="42.8113848" lon="-3.7869412"><ele>675.4000000000001</ele><time>2026-05-02T15:10:27.903Z</time></trkpt><trkpt lat="42.8114796" lon="-3.7869762"><ele>673.8000000000001</ele><time>2026-05-02T15:10:28.896Z</time></trkpt><trkpt lat="42.8115851" lon="-3.7869915"><ele>672.2</ele><time>2026-05-02T15:10:29.897Z</time></trkpt><trkpt lat="42.8116965" lon="-3.7869905"><ele>670.6</ele><time>2026-05-02T15:10:30.909Z</time></trkpt><trkpt lat="42.8118101" lon="-3.7869749"><ele>669.0</ele><time>2026-05-02T15:10:31.9Z</time></trkpt><trkpt lat="42.8119328" lon="-3.7869577"><ele>668.25</ele><time>2026-05-02T15:10:32.898Z</time></trkpt><trkpt lat="42.8120558" lon="-3.7869458"><ele>667.5</ele><time>2026-05-02T15:10:33.899Z</time></trkpt><trkpt lat="42.8121889" lon="-3.78694"><ele>666.75</ele><time>2026-05-02T15:10:34.895Z</time></trkpt><trkpt lat="42.8123195" lon="-3.7869333"><ele>666.0</ele><time>2026-05-02T15:10:35.896Z</time></trkpt><trkpt lat="42.8124525" lon="-3.7869316"><ele>666.0</ele><time>2026-05-02T15:10:36.89Z</time></trkpt><trkpt lat="42.8125893" lon="-3.7869286"><ele>666.0</ele><time>2026-05-02T15:10:37.896Z</time></trkpt><trkpt lat="42.8127294" lon="-3.7869291"><ele>666.0</ele><time>2026-05-02T15:10:38.893Z</time></trkpt><trkpt lat="42.8128666" lon="-3.7869267"><ele>666.0</ele><time>2026-05-02T15:10:39.889Z</time></trkpt><trkpt lat="42.8130002" lon="-3.7869271"><ele>666.25</ele><time>2026-05-02T15:10:40.893Z</time></trkpt><trkpt lat="42.8131336" lon="-3.7869287"><ele>666.5</ele><time>2026-05-02T15:10:41.894Z</time></trkpt><trkpt lat="42.8132623" lon="-3.7869271"><ele>666.75</ele><time>2026-05-02T15:10:42.892Z</time></trkpt><trkpt lat="42.8133926" lon="-3.786918"><ele>667.0</ele><time>2026-05-02T15:10:43.894Z</time></trkpt><trkpt lat="42.8135219" lon="-3.7869012"><ele>667.25</ele><time>2026-05-02T15:10:44.896Z</time></trkpt><trkpt lat="42.8136444" lon="-3.7868806"><ele>667.5</ele><time>2026-05-02T15:10:45.896Z</time></trkpt><trkpt lat="42.8137673" lon="-3.7868596"><ele>667.75</ele><time>2026-05-02T15:10:46.896Z</time></trkpt><trkpt lat="42.8138892" lon="-3.7868405"><ele>668.0</ele><time>2026-05-02T15:10:47.892Z</time></trkpt><trkpt lat="42.8140082" lon="-3.7868223"><ele>671.0</ele><time>2026-05-02T15:10:48.892Z</time></trkpt><trkpt lat="42.814126" lon="-3.7868127"><ele>674.0</ele><time>2026-05-02T15:10:49.892Z</time></trkpt><trkpt lat="42.8142362" lon="-3.7868048"><ele>677.0</ele><time>2026-05-02T15:10:50.89Z</time></trkpt><trkpt lat="42.8143478" lon="-3.7867898"><ele>680.0</ele><time>2026-05-02T15:10:51.897Z</time></trkpt><trkpt lat="42.8144599" lon="-3.7867782"><ele>680.2</ele><time>2026-05-02T15:10:52.892Z</time></trkpt><trkpt lat="42.8145593" lon="-3.7867758"><ele>680.4</ele><time>2026-05-02T15:10:53.887Z</time></trkpt><trkpt lat="42.8146554" lon="-3.7867653"><ele>680.5999999999999</ele><time>2026-05-02T15:10:54.888Z</time></trkpt><trkpt lat="42.8147481" lon="-3.7867541"><ele>680.8</ele><time>2026-05-02T15:10:55.89Z</time></trkpt><trkpt lat="42.8148414" lon="-3.7867404"><ele>681.0</ele><time>2026-05-02T15:10:56.886Z</time></trkpt><trkpt lat="42.8149416" lon="-3.7867348"><ele>681.0</ele><time>2026-05-02T15:10:57.887Z</time></trkpt><trkpt lat="42.8150414" lon="-3.7867432"><ele>681.0</ele><time>2026-05-02T15:10:58.884Z</time></trkpt><trkpt lat="42.8151377" lon="-3.7867633"><ele>681.0</ele><time>2026-05-02T15:10:59.892Z</time></trkpt><trkpt lat="42.8152314" lon="-3.7867968"><ele>681.0</ele><time>2026-05-02T15:11:00.891Z</time></trkpt><trkpt lat="42.815323" lon="-3.7868474"><ele>681.0</ele><time>2026-05-02T15:11:01.896Z</time></trkpt><trkpt lat="42.8154185" lon="-3.7869098"><ele>679.1999999999999</ele><time>2026-05-02T15:11:02.883Z</time></trkpt><trkpt lat="42.815514" lon="-3.7869885"><ele>677.4</ele><time>2026-05-02T15:11:03.884Z</time></trkpt><trkpt lat="42.8156108" lon="-3.787071"><ele>675.6</ele><time>2026-05-02T15:11:04.889Z</time></trkpt><trkpt lat="42.8157069" lon="-3.7871538"><ele>673.8</ele><time>2026-05-02T15:11:05.888Z</time></trkpt><trkpt lat="42.8157975" lon="-3.7872255"><ele>672.0</ele><time>2026-05-02T15:11:06.891Z</time></trkpt><trkpt lat="42.8158908" lon="-3.7872946"><ele>674.6</ele><time>2026-05-02T15:11:07.892Z</time></trkpt><trkpt lat="42.8159882" lon="-3.7873662"><ele>677.2</ele><time>2026-05-02T15:11:08.889Z</time></trkpt><trkpt lat="42.8160887" lon="-3.7874365"><ele>679.8</ele><time>2026-05-02T15:11:09.892Z</time></trkpt><trkpt lat="42.8161868" lon="-3.7875071"><ele>682.4</ele><time>2026-05-02T15:11:10.892Z</time></trkpt><trkpt lat="42.8162868" lon="-3.7875784"><ele>685.0</ele><time>2026-05-02T15:11:11.888Z</time></trkpt><trkpt lat="42.8163918" lon="-3.7876515"><ele>680.0</ele><time>2026-05-02T15:11:12.883Z</time></trkpt><trkpt lat="42.8164986" lon="-3.7877269"><ele>675.0</ele><time>2026-05-02T15:11:13.893Z</time></trkpt><trkpt lat="42.8166017" lon="-3.7878006"><ele>670.0</ele><time>2026-05-02T15:11:14.884Z</time></trkpt><trkpt lat="42.8167083" lon="-3.7878824"><ele>665.0</ele><time>2026-05-02T15:11:15.887Z</time></trkpt><trkpt lat="42.8168175" lon="-3.7879744"><ele>668.5</ele><time>2026-05-02T15:11:16.886Z</time></trkpt><trkpt lat="42.8169196" lon="-3.7880695"><ele>672.0</ele><time>2026-05-02T15:11:17.889Z</time></trkpt><trkpt lat="42.8170176" lon="-3.7881597"><ele>675.5</ele><time>2026-05-02T15:11:18.891Z</time></trkpt><trkpt lat="42.8171125" lon="-3.788246"><ele>679.0</ele><time>2026-05-02T15:11:19.887Z</time></trkpt><trkpt lat="42.8172042" lon="-3.7883309"><ele>679.0</ele><time>2026-05-02T15:11:20.888Z</time></trkpt><trkpt lat="42.8172929" lon="-3.7884144"><ele>679.0</ele><time>2026-05-02T15:11:21.891Z</time></trkpt><trkpt lat="42.8173791" lon="-3.7884858"><ele>679.0</ele><time>2026-05-02T15:11:22.888Z</time></trkpt><trkpt lat="42.817465" lon="-3.7885634"><ele>679.0</ele><time>2026-05-02T15:11:23.886Z</time></trkpt><trkpt lat="42.8175497" lon="-3.788643"><ele>679.0</ele><time>2026-05-02T15:11:24.888Z</time></trkpt><trkpt lat="42.8176338" lon="-3.7887252"><ele>679.0</ele><time>2026-05-02T15:11:25.889Z</time></trkpt><trkpt lat="42.8178813" lon="-3.7889562"><ele>679.0</ele><time>2026-05-02T15:11:28.889Z</time></trkpt><trkpt lat="42.8179673" lon="-3.7890311"><ele>679.0</ele><time>2026-05-02T15:11:29.884Z</time></trkpt><trkpt lat="42.8180563" lon="-3.7891015"><ele>679.0</ele><time>2026-05-02T15:11:30.881Z</time></trkpt><trkpt lat="42.8182333" lon="-3.789251"><ele>679.0</ele><time>2026-05-02T15:11:32.911Z</time></trkpt><trkpt lat="42.8183147" lon="-3.7893247"><ele>679.0</ele><time>2026-05-02T15:11:33.88Z</time></trkpt><trkpt lat="42.8183868" lon="-3.789402"><ele>679.0</ele><time>2026-05-02T15:11:34.889Z</time></trkpt><trkpt lat="42.8184563" lon="-3.7894832"><ele>680.0</ele><time>2026-05-02T15:11:35.886Z</time></trkpt><trkpt lat="42.8185269" lon="-3.7895622"><ele>681.0</ele><time>2026-05-02T15:11:36.884Z</time></trkpt><trkpt lat="42.8186008" lon="-3.7896485"><ele>682.0</ele><time>2026-05-02T15:11:37.885Z</time></trkpt><trkpt lat="42.8186804" lon="-3.7897405"><ele>683.0</ele><time>2026-05-02T15:11:38.883Z</time></trkpt><trkpt lat="42.8187517" lon="-3.7898339"><ele>684.0</ele><time>2026-05-02T15:11:39.887Z</time></trkpt><trkpt lat="42.8188248" lon="-3.7899315"><ele>684.0</ele><time>2026-05-02T15:11:40.883Z</time></trkpt><trkpt lat="42.818898" lon="-3.7900356"><ele>684.0</ele><time>2026-05-02T15:11:41.885Z</time></trkpt><trkpt lat="42.8189658" lon="-3.7901598"><ele>684.0</ele><time>2026-05-02T15:11:42.891Z</time></trkpt><trkpt lat="42.8190346" lon="-3.7902896"><ele>684.0</ele><time>2026-05-02T15:11:43.892Z</time></trkpt><trkpt lat="42.8191032" lon="-3.7904252"><ele>684.0</ele><time>2026-05-02T15:11:44.893Z</time></trkpt><trkpt lat="42.8191752" lon="-3.7905692"><ele>684.0</ele><time>2026-05-02T15:11:45.886Z</time></trkpt><trkpt lat="42.8192511" lon="-3.7907149"><ele>684.0</ele><time>2026-05-02T15:11:46.887Z</time></trkpt><trkpt lat="42.8193267" lon="-3.7908663"><ele>684.0</ele><time>2026-05-02T15:11:47.879Z</time></trkpt><trkpt lat="42.8193994" lon="-3.7910184"><ele>684.0</ele><time>2026-05-02T15:11:48.888Z</time></trkpt><trkpt lat="42.8194676" lon="-3.7911726"><ele>684.0</ele><time>2026-05-02T15:11:49.89Z</time></trkpt><trkpt lat="42.8195443" lon="-3.7913229"><ele>684.0</ele><time>2026-05-02T15:11:50.889Z</time></trkpt><trkpt lat="42.8196219" lon="-3.7914668"><ele>684.0</ele><time>2026-05-02T15:11:51.885Z</time></trkpt><trkpt lat="42.8197029" lon="-3.7916116"><ele>684.0</ele><time>2026-05-02T15:11:52.888Z</time></trkpt><trkpt lat="42.8197778" lon="-3.791755"><ele>684.0</ele><time>2026-05-02T15:11:53.885Z</time></trkpt><trkpt lat="42.81985" lon="-3.7918925"><ele>684.0</ele><time>2026-05-02T15:11:54.881Z</time></trkpt><trkpt lat="42.8199231" lon="-3.7920257"><ele>684.0</ele><time>2026-05-02T15:11:55.884Z</time></trkpt><trkpt lat="42.8199985" lon="-3.792157"><ele>685.5</ele><time>2026-05-02T15:11:56.887Z</time></trkpt><trkpt lat="42.8200673" lon="-3.7922921"><ele>687.0</ele><time>2026-05-02T15:11:57.883Z</time></trkpt><trkpt lat="42.8201409" lon="-3.7924224"><ele>688.5</ele><time>2026-05-02T15:11:58.886Z</time></trkpt><trkpt lat="42.8202123" lon="-3.7925544"><ele>690.0</ele><time>2026-05-02T15:11:59.886Z</time></trkpt><trkpt lat="42.8202884" lon="-3.7926748"><ele>685.8</ele><time>2026-05-02T15:12:00.887Z</time></trkpt><trkpt lat="42.8203576" lon="-3.7927827"><ele>681.6</ele><time>2026-05-02T15:12:01.879Z</time></trkpt><trkpt lat="42.8204188" lon="-3.792891"><ele>677.4000000000001</ele><time>2026-05-02T15:12:02.891Z</time></trkpt><trkpt lat="42.8204809" lon="-3.7929807"><ele>673.2</ele><time>2026-05-02T15:12:03.881Z</time></trkpt><trkpt lat="42.8205529" lon="-3.7930615"><ele>669.0</ele><time>2026-05-02T15:12:04.881Z</time></trkpt><trkpt lat="42.8206379" lon="-3.79312"><ele>669.0</ele><time>2026-05-02T15:12:05.881Z</time></trkpt><trkpt lat="42.8207285" lon="-3.7931624"><ele>669.0</ele><time>2026-05-02T15:12:06.883Z</time></trkpt><trkpt lat="42.8208249" lon="-3.7931892"><ele>669.0</ele><time>2026-05-02T15:12:07.88Z</time></trkpt><trkpt lat="42.8209225" lon="-3.7932125"><ele>669.0</ele><time>2026-05-02T15:12:08.881Z</time></trkpt><trkpt lat="42.8210241" lon="-3.7932191"><ele>669.0</ele><time>2026-05-02T15:12:09.883Z</time></trkpt><trkpt lat="42.8211198" lon="-3.7932181"><ele>669.8000000000001</ele><time>2026-05-02T15:12:10.874Z</time></trkpt><trkpt lat="42.8212125" lon="-3.7931755"><ele>670.6</ele><time>2026-05-02T15:12:11.875Z</time></trkpt><trkpt lat="42.821297" lon="-3.7931265"><ele>671.4</ele><time>2026-05-02T15:12:12.869Z</time></trkpt><trkpt lat="42.8213934" lon="-3.7930634"><ele>672.2</ele><time>2026-05-02T15:12:13.872Z</time></trkpt><trkpt lat="42.8214935" lon="-3.7929874"><ele>673.0</ele><time>2026-05-02T15:12:14.869Z</time></trkpt><trkpt lat="42.8215958" lon="-3.7929041"><ele>673.0</ele><time>2026-05-02T15:12:15.866Z</time></trkpt><trkpt lat="42.8216882" lon="-3.7928208"><ele>673.0</ele><time>2026-05-02T15:12:16.865Z</time></trkpt><trkpt lat="42.821783" lon="-3.7927378"><ele>673.0</ele><time>2026-05-02T15:12:17.868Z</time></trkpt><trkpt lat="42.8218709" lon="-3.7926614"><ele>673.0</ele><time>2026-05-02T15:12:18.87Z</time></trkpt><trkpt lat="42.8219551" lon="-3.7925995"><ele>673.0</ele><time>2026-05-02T15:12:19.87Z</time></trkpt><trkpt lat="42.8220358" lon="-3.7925354"><ele>672.5999999999999</ele><time>2026-05-02T15:12:20.868Z</time></trkpt><trkpt lat="42.8221154" lon="-3.792469"><ele>672.1999999999999</ele><time>2026-05-02T15:12:21.877Z</time></trkpt><trkpt lat="42.8221934" lon="-3.7924061"><ele>671.8</ele><time>2026-05-02T15:12:22.878Z</time></trkpt><trkpt lat="42.8222853" lon="-3.7923229"><ele>671.4</ele><time>2026-05-02T15:12:23.876Z</time></trkpt><trkpt lat="42.8223789" lon="-3.7922365"><ele>671.0</ele><time>2026-05-02T15:12:24.877Z</time></trkpt><trkpt lat="42.8224671" lon="-3.792154"><ele>671.0</ele><time>2026-05-02T15:12:25.878Z</time></trkpt><trkpt lat="42.8225568" lon="-3.7920768"><ele>671.0</ele><time>2026-05-02T15:12:26.879Z</time></trkpt><trkpt lat="42.8226479" lon="-3.7920101"><ele>671.0</ele><time>2026-05-02T15:12:27.882Z</time></trkpt><trkpt lat="42.8227384" lon="-3.7919463"><ele>671.0</ele><time>2026-05-02T15:12:28.883Z</time></trkpt><trkpt lat="42.8228308" lon="-3.7918817"><ele>671.0</ele><time>2026-05-02T15:12:29.885Z</time></trkpt><trkpt lat="42.822922" lon="-3.7918223"><ele>672.0</ele><time>2026-05-02T15:12:30.883Z</time></trkpt><trkpt lat="42.8230137" lon="-3.7917633"><ele>673.0</ele><time>2026-05-02T15:12:31.884Z</time></trkpt><trkpt lat="42.8231044" lon="-3.7917018"><ele>674.0</ele><time>2026-05-02T15:12:32.884Z</time></trkpt><trkpt lat="42.823201" lon="-3.7916441"><ele>675.0</ele><time>2026-05-02T15:12:33.901Z</time></trkpt><trkpt lat="42.8232991" lon="-3.7915943"><ele>676.0</ele><time>2026-05-02T15:12:34.884Z</time></trkpt><trkpt lat="42.8234028" lon="-3.7915531"><ele>674.4</ele><time>2026-05-02T15:12:35.882Z</time></trkpt><trkpt lat="42.8235073" lon="-3.7915138"><ele>672.8</ele><time>2026-05-02T15:12:36.882Z</time></trkpt><trkpt lat="42.823614" lon="-3.7914762"><ele>671.1999999999999</ele><time>2026-05-02T15:12:37.884Z</time></trkpt><trkpt lat="42.8237213" lon="-3.7914406"><ele>669.5999999999999</ele><time>2026-05-02T15:12:38.885Z</time></trkpt><trkpt lat="42.8238291" lon="-3.7914077"><ele>668.0</ele><time>2026-05-02T15:12:39.885Z</time></trkpt><trkpt lat="42.8239347" lon="-3.7913781"><ele>668.0</ele><time>2026-05-02T15:12:40.885Z</time></trkpt><trkpt lat="42.8240431" lon="-3.7913482"><ele>668.0</ele><time>2026-05-02T15:12:41.884Z</time></trkpt><trkpt lat="42.8241541" lon="-3.791321"><ele>668.0</ele><time>2026-05-02T15:12:42.881Z</time></trkpt><trkpt lat="42.8242675" lon="-3.7912992"><ele>668.0</ele><time>2026-05-02T15:12:43.885Z</time></trkpt><trkpt lat="42.8243807" lon="-3.7912888"><ele>667.75</ele><time>2026-05-02T15:12:44.887Z</time></trkpt><trkpt lat="42.8244919" lon="-3.7912925"><ele>667.5</ele><time>2026-05-02T15:12:45.881Z</time></trkpt><trkpt lat="42.8246114" lon="-3.7912955"><ele>667.25</ele><time>2026-05-02T15:12:46.882Z</time></trkpt><trkpt lat="42.8247289" lon="-3.7912941"><ele>667.0</ele><time>2026-05-02T15:12:47.885Z</time></trkpt><trkpt lat="42.824851" lon="-3.7912921"><ele>667.0</ele><time>2026-05-02T15:12:48.885Z</time></trkpt><trkpt lat="42.8249746" lon="-3.7912951"><ele>667.0</ele><time>2026-05-02T15:12:49.884Z</time></trkpt><trkpt lat="42.8250997" lon="-3.7912957"><ele>667.0</ele><time>2026-05-02T15:12:50.883Z</time></trkpt><trkpt lat="42.8252264" lon="-3.7912989"><ele>667.0</ele><time>2026-05-02T15:12:51.885Z</time></trkpt><trkpt lat="42.8253524" lon="-3.7912999"><ele>667.75</ele><time>2026-05-02T15:12:52.886Z</time></trkpt><trkpt lat="42.8254803" lon="-3.7913009"><ele>668.5</ele><time>2026-05-02T15:12:53.885Z</time></trkpt><trkpt lat="42.8256039" lon="-3.7912992"><ele>669.25</ele><time>2026-05-02T15:12:54.887Z</time></trkpt><trkpt lat="42.8257259" lon="-3.7912956"><ele>670.0</ele><time>2026-05-02T15:12:55.882Z</time></trkpt><trkpt lat="42.8258457" lon="-3.7912933"><ele>670.0</ele><time>2026-05-02T15:12:56.878Z</time></trkpt><trkpt lat="42.8259606" lon="-3.7912928"><ele>670.0</ele><time>2026-05-02T15:12:57.882Z</time></trkpt><trkpt lat="42.8260702" lon="-3.7912965"><ele>670.0</ele><time>2026-05-02T15:12:58.88Z</time></trkpt><trkpt lat="42.8261817" lon="-3.7913089"><ele>670.0</ele><time>2026-05-02T15:12:59.886Z</time></trkpt><trkpt lat="42.8262831" lon="-3.7913247"><ele>670.0</ele><time>2026-05-02T15:13:00.887Z</time></trkpt><trkpt lat="42.8263926" lon="-3.7913389"><ele>670.0</ele><time>2026-05-02T15:13:01.882Z</time></trkpt><trkpt lat="42.8265001" lon="-3.7913592"><ele>670.0</ele><time>2026-05-02T15:13:02.883Z</time></trkpt><trkpt lat="42.8267106" lon="-3.7914095"><ele>670.0</ele><time>2026-05-02T15:13:04.893Z</time></trkpt><trkpt lat="42.8268166" lon="-3.7914332"><ele>670.0</ele><time>2026-05-02T15:13:05.877Z</time></trkpt><trkpt lat="42.8269185" lon="-3.7914635"><ele>670.0</ele><time>2026-05-02T15:13:06.882Z</time></trkpt><trkpt lat="42.8270239" lon="-3.7914804"><ele>670.0</ele><time>2026-05-02T15:13:07.878Z</time></trkpt><trkpt lat="42.8271352" lon="-3.7914977"><ele>670.0</ele><time>2026-05-02T15:13:08.879Z</time></trkpt><trkpt lat="42.8272569" lon="-3.791507"><ele>670.0</ele><time>2026-05-02T15:13:09.877Z</time></trkpt><trkpt lat="42.8273676" lon="-3.7915176"><ele>670.0</ele><time>2026-05-02T15:13:10.888Z</time></trkpt><trkpt lat="42.8274814" lon="-3.7915182"><ele>670.0</ele><time>2026-05-02T15:13:11.886Z</time></trkpt><trkpt lat="42.8275924" lon="-3.7915068"><ele>670.0</ele><time>2026-05-02T15:13:12.883Z</time></trkpt><trkpt lat="42.8277005" lon="-3.7914731"><ele>670.0</ele><time>2026-05-02T15:13:13.886Z</time></trkpt><trkpt lat="42.8278107" lon="-3.7914212"><ele>669.4</ele><time>2026-05-02T15:13:14.887Z</time></trkpt><trkpt lat="42.8279116" lon="-3.7913577"><ele>668.8</ele><time>2026-05-02T15:13:15.892Z</time></trkpt><trkpt lat="42.8280052" lon="-3.7912943"><ele>668.2</ele><time>2026-05-02T15:13:16.888Z</time></trkpt><trkpt lat="42.8280991" lon="-3.7912258"><ele>667.6</ele><time>2026-05-02T15:13:17.89Z</time></trkpt><trkpt lat="42.8281914" lon="-3.7911686"><ele>667.0</ele><time>2026-05-02T15:13:18.881Z</time></trkpt><trkpt lat="42.8282812" lon="-3.7911108"><ele>667.0</ele><time>2026-05-02T15:13:19.884Z</time></trkpt><trkpt lat="42.8283723" lon="-3.7910577"><ele>667.0</ele><time>2026-05-02T15:13:20.884Z</time></trkpt><trkpt lat="42.8285646" lon="-3.7909247"><ele>667.0</ele><time>2026-05-02T15:13:22.89Z</time></trkpt><trkpt lat="42.8286627" lon="-3.7908452"><ele>667.0</ele><time>2026-05-02T15:13:23.886Z</time></trkpt><trkpt lat="42.8287542" lon="-3.7907525"><ele>667.5</ele><time>2026-05-02T15:13:24.897Z</time></trkpt><trkpt lat="42.8288548" lon="-3.7906472"><ele>668.0</ele><time>2026-05-02T15:13:25.884Z</time></trkpt><trkpt lat="42.8289512" lon="-3.7905376"><ele>668.5</ele><time>2026-05-02T15:13:26.887Z</time></trkpt><trkpt lat="42.8290368" lon="-3.7904205"><ele>669.0</ele><time>2026-05-02T15:13:27.888Z</time></trkpt><trkpt lat="42.8291239" lon="-3.7903086"><ele>669.0</ele><time>2026-05-02T15:13:28.888Z</time></trkpt><trkpt lat="42.8292187" lon="-3.7901944"><ele>669.0</ele><time>2026-05-02T15:13:29.887Z</time></trkpt><trkpt lat="42.8293155" lon="-3.7900803"><ele>669.0</ele><time>2026-05-02T15:13:30.886Z</time></trkpt><trkpt lat="42.8294083" lon="-3.7899714"><ele>669.0</ele><time>2026-05-02T15:13:31.884Z</time></trkpt><trkpt lat="42.8294955" lon="-3.7898563"><ele>668.5</ele><time>2026-05-02T15:13:32.887Z</time></trkpt><trkpt lat="42.8295964" lon="-3.7897391"><ele>668.0</ele><time>2026-05-02T15:13:33.887Z</time></trkpt><trkpt lat="42.8296991" lon="-3.7896246"><ele>667.5</ele><time>2026-05-02T15:13:34.886Z</time></trkpt><trkpt lat="42.8298005" lon="-3.7894997"><ele>667.0</ele><time>2026-05-02T15:13:35.895Z</time></trkpt><trkpt lat="42.8299064" lon="-3.7893878"><ele>668.0</ele><time>2026-05-02T15:13:36.877Z</time></trkpt><trkpt lat="42.8300082" lon="-3.78926"><ele>669.0</ele><time>2026-05-02T15:13:37.878Z</time></trkpt><trkpt lat="42.8301005" lon="-3.7891346"><ele>670.0</ele><time>2026-05-02T15:13:38.886Z</time></trkpt><trkpt lat="42.8302084" lon="-3.7890096"><ele>671.0</ele><time>2026-05-02T15:13:39.882Z</time></trkpt><trkpt lat="42.830319" lon="-3.7888899"><ele>671.0</ele><time>2026-05-02T15:13:40.88Z</time></trkpt><trkpt lat="42.8304197" lon="-3.7887654"><ele>671.0</ele><time>2026-05-02T15:13:41.881Z</time></trkpt><trkpt lat="42.8305147" lon="-3.7886463"><ele>671.0</ele><time>2026-05-02T15:13:42.88Z</time></trkpt><trkpt lat="42.8306097" lon="-3.7885223"><ele>671.0</ele><time>2026-05-02T15:13:43.876Z</time></trkpt><trkpt lat="42.8307153" lon="-3.788403"><ele>672.25</ele><time>2026-05-02T15:13:44.876Z</time></trkpt><trkpt lat="42.8308179" lon="-3.7882932"><ele>673.5</ele><time>2026-05-02T15:13:45.878Z</time></trkpt><trkpt lat="42.8309202" lon="-3.7881738"><ele>674.75</ele><time>2026-05-02T15:13:46.877Z</time></trkpt><trkpt lat="42.8310213" lon="-3.7880435"><ele>676.0</ele><time>2026-05-02T15:13:47.876Z</time></trkpt><trkpt lat="42.8311206" lon="-3.7879161"><ele>676.0</ele><time>2026-05-02T15:13:48.879Z</time></trkpt><trkpt lat="42.8312186" lon="-3.7878006"><ele>676.0</ele><time>2026-05-02T15:13:49.874Z</time></trkpt><trkpt lat="42.8313152" lon="-3.7876902"><ele>676.0</ele><time>2026-05-02T15:13:50.882Z</time></trkpt><trkpt lat="42.8314065" lon="-3.7875851"><ele>676.0</ele><time>2026-05-02T15:13:51.876Z</time></trkpt><trkpt lat="42.8314979" lon="-3.7874678"><ele>675.25</ele><time>2026-05-02T15:13:52.878Z</time></trkpt><trkpt lat="42.8315837" lon="-3.787354"><ele>674.5</ele><time>2026-05-02T15:13:53.875Z</time></trkpt><trkpt lat="42.831674" lon="-3.7872538"><ele>673.75</ele><time>2026-05-02T15:13:54.874Z</time></trkpt><trkpt lat="42.8317623" lon="-3.7871637"><ele>673.0</ele><time>2026-05-02T15:13:55.874Z</time></trkpt><trkpt lat="42.8318545" lon="-3.787086"><ele>673.0</ele><time>2026-05-02T15:13:56.875Z</time></trkpt><trkpt lat="42.8319565" lon="-3.7870132"><ele>673.0</ele><time>2026-05-02T15:13:57.876Z</time></trkpt><trkpt lat="42.8320643" lon="-3.7869582"><ele>673.0</ele><time>2026-05-02T15:13:58.877Z</time></trkpt><trkpt lat="42.8321781" lon="-3.786911"><ele>673.0</ele><time>2026-05-02T15:13:59.879Z</time></trkpt><trkpt lat="42.8322954" lon="-3.786865"><ele>673.5</ele><time>2026-05-02T15:14:00.879Z</time></trkpt><trkpt lat="42.8324129" lon="-3.7868142"><ele>674.0</ele><time>2026-05-02T15:14:01.88Z</time></trkpt><trkpt lat="42.8325327" lon="-3.7867724"><ele>674.5</ele><time>2026-05-02T15:14:02.877Z</time></trkpt><trkpt lat="42.8326574" lon="-3.7867276"><ele>675.0</ele><time>2026-05-02T15:14:03.877Z</time></trkpt><trkpt lat="42.8327832" lon="-3.7866875"><ele>675.0</ele><time>2026-05-02T15:14:04.879Z</time></trkpt><trkpt lat="42.8329036" lon="-3.786652"><ele>675.0</ele><time>2026-05-02T15:14:05.88Z</time></trkpt><trkpt lat="42.833024" lon="-3.7866325"><ele>675.0</ele><time>2026-05-02T15:14:06.892Z</time></trkpt><trkpt lat="42.8331452" lon="-3.7865988"><ele>675.0</ele><time>2026-05-02T15:14:07.876Z</time></trkpt><trkpt lat="42.8332674" lon="-3.786568"><ele>675.0</ele><time>2026-05-02T15:14:08.882Z</time></trkpt><trkpt lat="42.8333974" lon="-3.7865431"><ele>675.0</ele><time>2026-05-02T15:14:09.884Z</time></trkpt><trkpt lat="42.8335272" lon="-3.7865153"><ele>675.0</ele><time>2026-05-02T15:14:10.881Z</time></trkpt><trkpt lat="42.8336589" lon="-3.7864854"><ele>675.0</ele><time>2026-05-02T15:14:11.881Z</time></trkpt><trkpt lat="42.8337884" lon="-3.7864645"><ele>675.0</ele><time>2026-05-02T15:14:12.88Z</time></trkpt><trkpt lat="42.8339196" lon="-3.786457"><ele>675.0</ele><time>2026-05-02T15:14:13.88Z</time></trkpt><trkpt lat="42.8340553" lon="-3.7864575"><ele>675.0</ele><time>2026-05-02T15:14:14.878Z</time></trkpt><trkpt lat="42.8341872" lon="-3.7864629"><ele>675.0</ele><time>2026-05-02T15:14:15.88Z</time></trkpt><trkpt lat="42.8343135" lon="-3.7864837"><ele>674.75</ele><time>2026-05-02T15:14:16.881Z</time></trkpt><trkpt lat="42.8344367" lon="-3.7865058"><ele>674.5</ele><time>2026-05-02T15:14:17.883Z</time></trkpt><trkpt lat="42.8345609" lon="-3.7865264"><ele>674.25</ele><time>2026-05-02T15:14:18.884Z</time></trkpt><trkpt lat="42.8346825" lon="-3.7865505"><ele>674.0</ele><time>2026-05-02T15:14:19.885Z</time></trkpt><trkpt lat="42.8347946" lon="-3.7865595"><ele>674.0</ele><time>2026-05-02T15:14:20.88Z</time></trkpt><trkpt lat="42.8348956" lon="-3.7865673"><ele>674.0</ele><time>2026-05-02T15:14:21.894Z</time></trkpt><trkpt lat="42.8349891" lon="-3.7865693"><ele>674.0</ele><time>2026-05-02T15:14:22.889Z</time></trkpt><trkpt lat="42.835067" lon="-3.786562"><ele>674.0</ele><time>2026-05-02T15:14:23.886Z</time></trkpt><trkpt lat="42.8351342" lon="-3.7865495"><ele>674.0</ele><time>2026-05-02T15:14:24.885Z</time></trkpt><trkpt lat="42.8352002" lon="-3.7865403"><ele>674.0</ele><time>2026-05-02T15:14:25.889Z</time></trkpt><trkpt lat="42.8352668" lon="-3.7865356"><ele>675.6666666666666</ele><time>2026-05-02T15:14:26.885Z</time></trkpt><trkpt lat="42.8353333" lon="-3.7865306"><ele>677.3333333333333</ele><time>2026-05-02T15:14:27.883Z</time></trkpt><trkpt lat="42.8354027" lon="-3.7865466"><ele>679.0</ele><time>2026-05-02T15:14:28.877Z</time></trkpt><trkpt lat="42.835476" lon="-3.7865799"><ele>680.6666666666666</ele><time>2026-05-02T15:14:29.888Z</time></trkpt><trkpt lat="42.835554" lon="-3.7866414"><ele>682.3333333333334</ele><time>2026-05-02T15:14:30.887Z</time></trkpt><trkpt lat="42.8356266" lon="-3.7867326"><ele>684.0</ele><time>2026-05-02T15:14:31.882Z</time></trkpt><trkpt lat="42.835703" lon="-3.7868142"><ele>684.5</ele><time>2026-05-02T15:14:32.88Z</time></trkpt><trkpt lat="42.8357889" lon="-3.7869071"><ele>685.0</ele><time>2026-05-02T15:14:33.889Z</time></trkpt><trkpt lat="42.8358777" lon="-3.7870028"><ele>685.5</ele><time>2026-05-02T15:14:34.885Z</time></trkpt><trkpt lat="42.8359658" lon="-3.7871054"><ele>686.0</ele><time>2026-05-02T15:14:35.886Z</time></trkpt><trkpt lat="42.8360556" lon="-3.787208"><ele>686.0</ele><time>2026-05-02T15:14:36.887Z</time></trkpt><trkpt lat="42.8361477" lon="-3.7873115"><ele>686.0</ele><time>2026-05-02T15:14:37.898Z</time></trkpt><trkpt lat="42.8362375" lon="-3.7874189"><ele>686.0</ele><time>2026-05-02T15:14:38.885Z</time></trkpt><trkpt lat="42.8363281" lon="-3.7875267"><ele>686.0</ele><time>2026-05-02T15:14:39.886Z</time></trkpt><trkpt lat="42.8364186" lon="-3.7876372"><ele>682.75</ele><time>2026-05-02T15:14:40.882Z</time></trkpt><trkpt lat="42.8365111" lon="-3.7877519"><ele>679.5</ele><time>2026-05-02T15:14:41.882Z</time></trkpt><trkpt lat="42.8366027" lon="-3.7878732"><ele>676.25</ele><time>2026-05-02T15:14:42.883Z</time></trkpt><trkpt lat="42.8366913" lon="-3.7879932"><ele>673.0</ele><time>2026-05-02T15:14:43.881Z</time></trkpt><trkpt lat="42.8367805" lon="-3.7881145"><ele>676.0</ele><time>2026-05-02T15:14:44.885Z</time></trkpt><trkpt lat="42.8368655" lon="-3.7882328"><ele>679.0</ele><time>2026-05-02T15:14:45.889Z</time></trkpt><trkpt lat="42.8369439" lon="-3.7883512"><ele>682.0</ele><time>2026-05-02T15:14:46.888Z</time></trkpt><trkpt lat="42.8370199" lon="-3.7884652"><ele>685.0</ele><time>2026-05-02T15:14:47.889Z</time></trkpt><trkpt lat="42.8370932" lon="-3.7885822"><ele>685.0</ele><time>2026-05-02T15:14:48.889Z</time></trkpt><trkpt lat="42.8371553" lon="-3.7887088"><ele>685.0</ele><time>2026-05-02T15:14:49.882Z</time></trkpt><trkpt lat="42.8372126" lon="-3.7888376"><ele>685.0</ele><time>2026-05-02T15:14:50.893Z</time></trkpt><trkpt lat="42.8372564" lon="-3.788973"><ele>685.0</ele><time>2026-05-02T15:14:51.893Z</time></trkpt><trkpt lat="42.8372958" lon="-3.7891064"><ele>685.0</ele><time>2026-05-02T15:14:52.89Z</time></trkpt><trkpt lat="42.8373331" lon="-3.7892426"><ele>684.2</ele><time>2026-05-02T15:14:53.888Z</time></trkpt><trkpt lat="42.8373687" lon="-3.789377"><ele>683.4</ele><time>2026-05-02T15:14:54.884Z</time></trkpt><trkpt lat="42.8374044" lon="-3.7895108"><ele>682.5999999999999</ele><time>2026-05-02T15:14:55.884Z</time></trkpt><trkpt lat="42.8374478" lon="-3.7896355"><ele>681.8</ele><time>2026-05-02T15:14:56.882Z</time></trkpt><trkpt lat="42.8374959" lon="-3.7897666"><ele>681.0</ele><time>2026-05-02T15:14:57.884Z</time></trkpt><trkpt lat="42.8375418" lon="-3.7899038"><ele>681.0</ele><time>2026-05-02T15:14:58.888Z</time></trkpt><trkpt lat="42.8375884" lon="-3.7900386"><ele>681.0</ele><time>2026-05-02T15:14:59.897Z</time></trkpt><trkpt lat="42.8376295" lon="-3.7901782"><ele>681.0</ele><time>2026-05-02T15:15:00.891Z</time></trkpt><trkpt lat="42.8376644" lon="-3.7903171"><ele>681.0</ele><time>2026-05-02T15:15:01.888Z</time></trkpt><trkpt lat="42.8376926" lon="-3.7904565"><ele>681.0</ele><time>2026-05-02T15:15:02.887Z</time></trkpt><trkpt lat="42.8377014" lon="-3.7906036"><ele>680.1999999999999</ele><time>2026-05-02T15:15:03.885Z</time></trkpt><trkpt lat="42.8377178" lon="-3.7907404"><ele>679.4</ele><time>2026-05-02T15:15:04.892Z</time></trkpt><trkpt lat="42.8376928" lon="-3.790869"><ele>678.6</ele><time>2026-05-02T15:15:05.882Z</time></trkpt><trkpt lat="42.8376501" lon="-3.7910044"><ele>677.8</ele><time>2026-05-02T15:15:06.885Z</time></trkpt><trkpt lat="42.8376147" lon="-3.791131"><ele>677.0</ele><time>2026-05-02T15:15:07.886Z</time></trkpt><trkpt lat="42.8375779" lon="-3.7912492"><ele>677.0</ele><time>2026-05-02T15:15:08.895Z</time></trkpt><trkpt lat="42.837553" lon="-3.7913605"><ele>677.0</ele><time>2026-05-02T15:15:09.883Z</time></trkpt><trkpt lat="42.8375364" lon="-3.7914712"><ele>677.0</ele><time>2026-05-02T15:15:10.886Z</time></trkpt><trkpt lat="42.8375248" lon="-3.7915796"><ele>677.0</ele><time>2026-05-02T15:15:11.881Z</time></trkpt><trkpt lat="42.8375136" lon="-3.7916906"><ele>677.0</ele><time>2026-05-02T15:15:12.881Z</time></trkpt><trkpt lat="42.8375027" lon="-3.7918007"><ele>677.0</ele><time>2026-05-02T15:15:13.881Z</time></trkpt><trkpt lat="42.8374832" lon="-3.7919124"><ele>679.4000000000001</ele><time>2026-05-02T15:15:14.881Z</time></trkpt><trkpt lat="42.8374525" lon="-3.7920262"><ele>681.8000000000001</ele><time>2026-05-02T15:15:15.881Z</time></trkpt><trkpt lat="42.8374065" lon="-3.7921334"><ele>684.2</ele><time>2026-05-02T15:15:16.882Z</time></trkpt><trkpt lat="42.8373456" lon="-3.7922317"><ele>686.6</ele><time>2026-05-02T15:15:17.882Z</time></trkpt><trkpt lat="42.8372777" lon="-3.7923264"><ele>689.0</ele><time>2026-05-02T15:15:18.881Z</time></trkpt><trkpt lat="42.8372047" lon="-3.7924153"><ele>689.0</ele><time>2026-05-02T15:15:19.879Z</time></trkpt><trkpt lat="42.8371288" lon="-3.7924844"><ele>689.0</ele><time>2026-05-02T15:15:20.883Z</time></trkpt><trkpt lat="42.8370519" lon="-3.7925306"><ele>689.0</ele><time>2026-05-02T15:15:21.884Z</time></trkpt><trkpt lat="42.8369692" lon="-3.7925501"><ele>689.0</ele><time>2026-05-02T15:15:22.888Z</time></trkpt><trkpt lat="42.8368853" lon="-3.7925515"><ele>689.0</ele><time>2026-05-02T15:15:23.89Z</time></trkpt><trkpt lat="42.8367988" lon="-3.7925417"><ele>689.0</ele><time>2026-05-02T15:15:24.889Z</time></trkpt><trkpt lat="42.8367048" lon="-3.7925281"><ele>687.4000000000001</ele><time>2026-05-02T15:15:25.892Z</time></trkpt><trkpt lat="42.8366172" lon="-3.792527"><ele>685.8</ele><time>2026-05-02T15:15:26.889Z</time></trkpt><trkpt lat="42.8365344" lon="-3.7925299"><ele>684.2</ele><time>2026-05-02T15:15:27.889Z</time></trkpt><trkpt lat="42.8364421" lon="-3.7925343"><ele>682.5999999999999</ele><time>2026-05-02T15:15:28.881Z</time></trkpt><trkpt lat="42.8363495" lon="-3.792541"><ele>681.0</ele><time>2026-05-02T15:15:29.889Z</time></trkpt><trkpt lat="42.8362501" lon="-3.7925495"><ele>681.0</ele><time>2026-05-02T15:15:30.89Z</time></trkpt><trkpt lat="42.8361502" lon="-3.7925573"><ele>681.0</ele><time>2026-05-02T15:15:31.89Z</time></trkpt><trkpt lat="42.8360467" lon="-3.7925669"><ele>681.0</ele><time>2026-05-02T15:15:32.888Z</time></trkpt><trkpt lat="42.835939" lon="-3.7925855"><ele>681.0</ele><time>2026-05-02T15:15:33.888Z</time></trkpt><trkpt lat="42.8358347" lon="-3.7925972"><ele>681.0</ele><time>2026-05-02T15:15:34.888Z</time></trkpt><trkpt lat="42.8357343" lon="-3.7926063"><ele>680.8</ele><time>2026-05-02T15:15:35.876Z</time></trkpt><trkpt lat="42.8356334" lon="-3.7926167"><ele>680.5999999999999</ele><time>2026-05-02T15:15:36.88Z</time></trkpt><trkpt lat="42.8355367" lon="-3.7926287"><ele>680.4</ele><time>2026-05-02T15:15:37.882Z</time></trkpt><trkpt lat="42.8354422" lon="-3.7926254"><ele>680.2</ele><time>2026-05-02T15:15:38.88Z</time></trkpt><trkpt lat="42.8353576" lon="-3.7926254"><ele>680.0</ele><time>2026-05-02T15:15:39.892Z</time></trkpt><trkpt lat="42.8352828" lon="-3.7926274"><ele>680.0</ele><time>2026-05-02T15:15:40.879Z</time></trkpt><trkpt lat="42.8352038" lon="-3.7926316"><ele>680.0</ele><time>2026-05-02T15:15:41.877Z</time></trkpt><trkpt lat="42.835128" lon="-3.7926405"><ele>680.0</ele><time>2026-05-02T15:15:42.881Z</time></trkpt><trkpt lat="42.8350606" lon="-3.7926535"><ele>680.0</ele><time>2026-05-02T15:15:43.879Z</time></trkpt><trkpt lat="42.8349916" lon="-3.7926708"><ele>680.0</ele><time>2026-05-02T15:15:44.881Z</time></trkpt><trkpt lat="42.8349227" lon="-3.7926861"><ele>680.0</ele><time>2026-05-02T15:15:45.88Z</time></trkpt><trkpt lat="42.8348561" lon="-3.7927006"><ele>680.0</ele><time>2026-05-02T15:15:46.882Z</time></trkpt><trkpt lat="42.8347481" lon="-3.7927407"><ele>681.2857142857143</ele><time>2026-05-02T15:15:48.88Z</time></trkpt><trkpt lat="42.8346765" lon="-3.7927646"><ele>682.5714285714286</ele><time>2026-05-02T15:15:50.879Z</time></trkpt><trkpt lat="42.8346036" lon="-3.7927845"><ele>683.8571428571429</ele><time>2026-05-02T15:15:52.876Z</time></trkpt><trkpt lat="42.8345377" lon="-3.7927959"><ele>685.1428571428571</ele><time>2026-05-02T15:15:54.882Z</time></trkpt><trkpt lat="42.8344647" lon="-3.7927873"><ele>686.4285714285714</ele><time>2026-05-02T15:15:56.876Z</time></trkpt><trkpt lat="42.834389" lon="-3.7927474"><ele>687.7142857142857</ele><time>2026-05-02T15:15:58.876Z</time></trkpt><trkpt lat="42.8343377" lon="-3.7926891"><ele>689.0</ele><time>2026-05-02T15:16:00.884Z</time></trkpt><trkpt lat="42.834301" lon="-3.7926113"><ele>689.0</ele><time>2026-05-02T15:16:03.886Z</time></trkpt><trkpt lat="42.8342646" lon="-3.7925353"><ele>689.0</ele><time>2026-05-02T15:16:05.886Z</time></trkpt><trkpt lat="42.8342558" lon="-3.7924126"><ele>689.0</ele><time>2026-05-02T15:16:08.89Z</time></trkpt><trkpt lat="42.8342951" lon="-3.7923447"><ele>689.0</ele><time>2026-05-02T15:18:34.9Z</time></trkpt><trkpt lat="42.8342903" lon="-3.7924444"><ele>689.0</ele><time>2026-05-02T16:05:10.884Z</time></trkpt><trkpt lat="42.8343251" lon="-3.7925277"><ele>689.0</ele><time>2026-05-02T16:05:12.885Z</time></trkpt><trkpt lat="42.8343509" lon="-3.7926212"><ele>689.0</ele><time>2026-05-02T16:05:14.887Z</time></trkpt><trkpt lat="42.8342769" lon="-3.7925441"><ele>689.0</ele><time>2026-05-02T16:07:53.915Z</time></trkpt><trkpt lat="42.8342406" lon="-3.7924267"><ele>689.0</ele><time>2026-05-02T16:07:55.899Z</time></trkpt><trkpt lat="42.8341878" lon="-3.7923159"><ele>689.0</ele><time>2026-05-02T16:07:57.906Z</time></trkpt><trkpt lat="42.8341659" lon="-3.7922176"><ele>689.0</ele><time>2026-05-02T16:07:59.906Z</time></trkpt><trkpt lat="42.8342133" lon="-3.7922777"><ele>689.0</ele><time>2026-05-02T16:08:18.909Z</time></trkpt><trkpt lat="42.8342472" lon="-3.7923627"><ele>689.0</ele><time>2026-05-02T16:08:23.904Z</time></trkpt><trkpt lat="42.834291" lon="-3.7924468"><ele>686.6</ele><time>2026-05-02T16:08:26.898Z</time></trkpt><trkpt lat="42.8343409" lon="-3.7925528"><ele>684.2</ele><time>2026-05-02T16:08:29.9Z</time></trkpt><trkpt lat="42.8343834" lon="-3.7926695"><ele>681.8000000000001</ele><time>2026-05-02T16:08:31.908Z</time></trkpt><trkpt lat="42.8344641" lon="-3.7927391"><ele>679.4000000000001</ele><time>2026-05-02T16:08:33.905Z</time></trkpt><trkpt lat="42.8345543" lon="-3.7927733"><ele>677.0</ele><time>2026-05-02T16:08:35.902Z</time></trkpt><trkpt lat="42.8346521" lon="-3.7927825"><ele>677.0</ele><time>2026-05-02T16:08:37.9Z</time></trkpt><trkpt lat="42.8347696" lon="-3.7927657"><ele>677.0</ele><time>2026-05-02T16:08:39.904Z</time></trkpt><trkpt lat="42.8348374" lon="-3.7927246"><ele>677.0</ele><time>2026-05-02T16:08:40.909Z</time></trkpt><trkpt lat="42.8349096" lon="-3.7926899"><ele>677.0</ele><time>2026-05-02T16:08:41.9Z</time></trkpt><trkpt lat="42.8349922" lon="-3.7926573"><ele>677.0</ele><time>2026-05-02T16:08:42.899Z</time></trkpt><trkpt lat="42.8350672" lon="-3.7926361"><ele>677.0</ele><time>2026-05-02T16:08:43.899Z</time></trkpt><trkpt lat="42.8351423" lon="-3.7926198"><ele>677.5</ele><time>2026-05-02T16:08:44.896Z</time></trkpt><trkpt lat="42.8352169" lon="-3.7926073"><ele>678.0</ele><time>2026-05-02T16:08:45.897Z</time></trkpt><trkpt lat="42.8352888" lon="-3.7926013"><ele>678.5</ele><time>2026-05-02T16:08:46.902Z</time></trkpt><trkpt lat="42.8353568" lon="-3.7925922"><ele>679.0</ele><time>2026-05-02T16:08:47.901Z</time></trkpt><trkpt lat="42.835436" lon="-3.7925857"><ele>679.5</ele><time>2026-05-02T16:08:48.9Z</time></trkpt><trkpt lat="42.8355262" lon="-3.7925762"><ele>680.0</ele><time>2026-05-02T16:08:49.894Z</time></trkpt><trkpt lat="42.8356202" lon="-3.7925681"><ele>680.0</ele><time>2026-05-02T16:08:50.897Z</time></trkpt><trkpt lat="42.8357245" lon="-3.7925622"><ele>680.0</ele><time>2026-05-02T16:08:51.901Z</time></trkpt><trkpt lat="42.8358286" lon="-3.7925481"><ele>680.0</ele><time>2026-05-02T16:08:52.9Z</time></trkpt><trkpt lat="42.8359258" lon="-3.7925363"><ele>680.0</ele><time>2026-05-02T16:08:53.901Z</time></trkpt><trkpt lat="42.836027" lon="-3.7925295"><ele>680.0</ele><time>2026-05-02T16:08:54.898Z</time></trkpt><trkpt lat="42.8361284" lon="-3.7925227"><ele>680.2</ele><time>2026-05-02T16:08:55.909Z</time></trkpt><trkpt lat="42.8362232" lon="-3.7925197"><ele>680.4</ele><time>2026-05-02T16:08:56.909Z</time></trkpt><trkpt lat="42.8363259" lon="-3.7925184"><ele>680.5999999999999</ele><time>2026-05-02T16:08:57.911Z</time></trkpt><trkpt lat="42.8364296" lon="-3.792512"><ele>680.8</ele><time>2026-05-02T16:08:58.913Z</time></trkpt><trkpt lat="42.8365273" lon="-3.7925011"><ele>681.0</ele><time>2026-05-02T16:08:59.906Z</time></trkpt><trkpt lat="42.8366241" lon="-3.7924917"><ele>681.0</ele><time>2026-05-02T16:09:00.904Z</time></trkpt><trkpt lat="42.8367254" lon="-3.7924752"><ele>681.0</ele><time>2026-05-02T16:09:01.904Z</time></trkpt><trkpt lat="42.8368244" lon="-3.7924619"><ele>681.0</ele><time>2026-05-02T16:09:02.899Z</time></trkpt><trkpt lat="42.8369158" lon="-3.792445"><ele>681.0</ele><time>2026-05-02T16:09:03.906Z</time></trkpt><trkpt lat="42.8370064" lon="-3.792443"><ele>681.0</ele><time>2026-05-02T16:09:04.907Z</time></trkpt><trkpt lat="42.8370957" lon="-3.7924248"><ele>682.5999999999999</ele><time>2026-05-02T16:09:05.909Z</time></trkpt><trkpt lat="42.8371813" lon="-3.79239"><ele>684.2</ele><time>2026-05-02T16:09:06.91Z</time></trkpt><trkpt lat="42.8372645" lon="-3.7923257"><ele>685.8</ele><time>2026-05-02T16:09:07.908Z</time></trkpt><trkpt lat="42.837331" lon="-3.792242"><ele>687.4000000000001</ele><time>2026-05-02T16:09:08.908Z</time></trkpt><trkpt lat="42.8373899" lon="-3.7921369"><ele>689.0</ele><time>2026-05-02T16:09:09.91Z</time></trkpt><trkpt lat="42.8374428" lon="-3.7920278"><ele>689.0</ele><time>2026-05-02T16:09:10.912Z</time></trkpt><trkpt lat="42.8374875" lon="-3.7919098"><ele>689.0</ele><time>2026-05-02T16:09:11.926Z</time></trkpt><trkpt lat="42.8375151" lon="-3.7917854"><ele>689.0</ele><time>2026-05-02T16:09:12.914Z</time></trkpt><trkpt lat="42.8375278" lon="-3.7916597"><ele>689.0</ele><time>2026-05-02T16:09:13.914Z</time></trkpt><trkpt lat="42.8375322" lon="-3.7915348"><ele>689.0</ele><time>2026-05-02T16:09:14.911Z</time></trkpt><trkpt lat="42.8375319" lon="-3.7914164"><ele>687.0</ele><time>2026-05-02T16:09:15.913Z</time></trkpt><trkpt lat="42.8375358" lon="-3.7912904"><ele>685.0</ele><time>2026-05-02T16:09:16.919Z</time></trkpt><trkpt lat="42.837539" lon="-3.7911618"><ele>683.0</ele><time>2026-05-02T16:09:17.918Z</time></trkpt><trkpt lat="42.8375452" lon="-3.7910329"><ele>681.0</ele><time>2026-05-02T16:09:18.919Z</time></trkpt><trkpt lat="42.8375642" lon="-3.7909131"><ele>679.0</ele><time>2026-05-02T16:09:19.928Z</time></trkpt><trkpt lat="42.8375821" lon="-3.7907927"><ele>679.0</ele><time>2026-05-02T16:09:20.918Z</time></trkpt><trkpt lat="42.8376038" lon="-3.7906734"><ele>679.0</ele><time>2026-05-02T16:09:21.922Z</time></trkpt><trkpt lat="42.8376239" lon="-3.7905502"><ele>679.0</ele><time>2026-05-02T16:09:22.92Z</time></trkpt><trkpt lat="42.8376377" lon="-3.7904241"><ele>679.0</ele><time>2026-05-02T16:09:23.918Z</time></trkpt><trkpt lat="42.8376326" lon="-3.7903007"><ele>679.0</ele><time>2026-05-02T16:09:24.916Z</time></trkpt><trkpt lat="42.8376096" lon="-3.7901801"><ele>679.4000000000001</ele><time>2026-05-02T16:09:25.921Z</time></trkpt><trkpt lat="42.8375748" lon="-3.7900624"><ele>679.8</ele><time>2026-05-02T16:09:26.917Z</time></trkpt><trkpt lat="42.8375341" lon="-3.7899457"><ele>680.2</ele><time>2026-05-02T16:09:27.919Z</time></trkpt><trkpt lat="42.8374886" lon="-3.7898306"><ele>680.5999999999999</ele><time>2026-05-02T16:09:28.917Z</time></trkpt><trkpt lat="42.8374457" lon="-3.7897126"><ele>681.0</ele><time>2026-05-02T16:09:29.92Z</time></trkpt><trkpt lat="42.8374001" lon="-3.7895928"><ele>681.0</ele><time>2026-05-02T16:09:30.931Z</time></trkpt><trkpt lat="42.8373573" lon="-3.789471"><ele>681.0</ele><time>2026-05-02T16:09:31.916Z</time></trkpt><trkpt lat="42.8373156" lon="-3.7893484"><ele>681.0</ele><time>2026-05-02T16:09:32.915Z</time></trkpt><trkpt lat="42.8372723" lon="-3.7892251"><ele>681.0</ele><time>2026-05-02T16:09:33.916Z</time></trkpt><trkpt lat="42.8372296" lon="-3.7890993"><ele>681.0</ele><time>2026-05-02T16:09:34.915Z</time></trkpt><trkpt lat="42.8371872" lon="-3.7889704"><ele>681.8</ele><time>2026-05-02T16:09:35.919Z</time></trkpt><trkpt lat="42.8371414" lon="-3.7888368"><ele>682.5999999999999</ele><time>2026-05-02T16:09:36.915Z</time></trkpt><trkpt lat="42.837097" lon="-3.7887059"><ele>683.4</ele><time>2026-05-02T16:09:37.92Z</time></trkpt><trkpt lat="42.837042" lon="-3.7885772"><ele>684.2</ele><time>2026-05-02T16:09:38.913Z</time></trkpt><trkpt lat="42.836979" lon="-3.788459"><ele>685.0</ele><time>2026-05-02T16:09:39.913Z</time></trkpt><trkpt lat="42.8369095" lon="-3.7883466"><ele>682.0</ele><time>2026-05-02T16:09:40.913Z</time></trkpt><trkpt lat="42.83683" lon="-3.7882365"><ele>679.0</ele><time>2026-05-02T16:09:41.913Z</time></trkpt><trkpt lat="42.8367463" lon="-3.7881284"><ele>676.0</ele><time>2026-05-02T16:09:42.921Z</time></trkpt><trkpt lat="42.8366617" lon="-3.7880151"><ele>673.0</ele><time>2026-05-02T16:09:43.913Z</time></trkpt><trkpt lat="42.8365775" lon="-3.7879"><ele>673.0</ele><time>2026-05-02T16:09:44.913Z</time></trkpt><trkpt lat="42.836496" lon="-3.7877941"><ele>673.0</ele><time>2026-05-02T16:09:45.914Z</time></trkpt><trkpt lat="42.8364143" lon="-3.7876881"><ele>673.0</ele><time>2026-05-02T16:09:46.915Z</time></trkpt><trkpt lat="42.8363257" lon="-3.7875853"><ele>673.0</ele><time>2026-05-02T16:09:47.917Z</time></trkpt><trkpt lat="42.8362378" lon="-3.7874839"><ele>672.5</ele><time>2026-05-02T16:09:48.915Z</time></trkpt><trkpt lat="42.8361498" lon="-3.7873831"><ele>672.0</ele><time>2026-05-02T16:09:49.915Z</time></trkpt><trkpt lat="42.8360604" lon="-3.7872839"><ele>671.5</ele><time>2026-05-02T16:09:50.914Z</time></trkpt><trkpt lat="42.8359694" lon="-3.7871866"><ele>671.0</ele><time>2026-05-02T16:09:51.918Z</time></trkpt><trkpt lat="42.8358811" lon="-3.7870933"><ele>671.0</ele><time>2026-05-02T16:09:52.922Z</time></trkpt><trkpt lat="42.8357933" lon="-3.7870002"><ele>671.0</ele><time>2026-05-02T16:09:53.914Z</time></trkpt><trkpt lat="42.8357042" lon="-3.7869077"><ele>671.0</ele><time>2026-05-02T16:09:54.917Z</time></trkpt><trkpt lat="42.8356196" lon="-3.7868172"><ele>671.0</ele><time>2026-05-02T16:09:55.911Z</time></trkpt><trkpt lat="42.8355372" lon="-3.7867281"><ele>671.0</ele><time>2026-05-02T16:09:56.909Z</time></trkpt><trkpt lat="42.8354526" lon="-3.7866487"><ele>671.5999999999999</ele><time>2026-05-02T16:09:57.916Z</time></trkpt><trkpt lat="42.8353707" lon="-3.7865734"><ele>672.2</ele><time>2026-05-02T16:09:58.908Z</time></trkpt><trkpt lat="42.8352899" lon="-3.7865133"><ele>672.8</ele><time>2026-05-02T16:09:59.92Z</time></trkpt><trkpt lat="42.8352009" lon="-3.7864938"><ele>673.4000000000001</ele><time>2026-05-02T16:10:00.921Z</time></trkpt><trkpt lat="42.8351112" lon="-3.786508"><ele>674.0</ele><time>2026-05-02T16:10:01.911Z</time></trkpt><trkpt lat="42.8350165" lon="-3.7865337"><ele>674.0</ele><time>2026-05-02T16:10:02.909Z</time></trkpt><trkpt lat="42.8349125" lon="-3.7865602"><ele>674.0</ele><time>2026-05-02T16:10:03.908Z</time></trkpt><trkpt lat="42.8348036" lon="-3.7865711"><ele>674.0</ele><time>2026-05-02T16:10:04.906Z</time></trkpt><trkpt lat="42.834689" lon="-3.7865583"><ele>674.0</ele><time>2026-05-02T16:10:05.907Z</time></trkpt><trkpt lat="42.834569" lon="-3.7865452"><ele>674.0</ele><time>2026-05-02T16:10:06.908Z</time></trkpt><trkpt lat="42.8344477" lon="-3.7865236"><ele>674.0</ele><time>2026-05-02T16:10:07.909Z</time></trkpt><trkpt lat="42.8343234" lon="-3.7865047"><ele>674.0</ele><time>2026-05-02T16:10:08.914Z</time></trkpt><trkpt lat="42.8341977" lon="-3.7864909"><ele>674.0</ele><time>2026-05-02T16:10:09.908Z</time></trkpt><trkpt lat="42.8340705" lon="-3.7864738"><ele>674.25</ele><time>2026-05-02T16:10:10.915Z</time></trkpt><trkpt lat="42.8339419" lon="-3.7864644"><ele>674.5</ele><time>2026-05-02T16:10:11.91Z</time></trkpt><trkpt lat="42.8338165" lon="-3.786468"><ele>674.75</ele><time>2026-05-02T16:10:12.914Z</time></trkpt><trkpt lat="42.8336927" lon="-3.7864724"><ele>675.0</ele><time>2026-05-02T16:10:13.928Z</time></trkpt><trkpt lat="42.8335654" lon="-3.7864935"><ele>675.0</ele><time>2026-05-02T16:10:14.915Z</time></trkpt><trkpt lat="42.8334424" lon="-3.7865186"><ele>675.0</ele><time>2026-05-02T16:10:15.912Z</time></trkpt><trkpt lat="42.8333177" lon="-3.7865464"><ele>675.0</ele><time>2026-05-02T16:10:16.918Z</time></trkpt><trkpt lat="42.8331901" lon="-3.7865757"><ele>675.0</ele><time>2026-05-02T16:10:17.916Z</time></trkpt><trkpt lat="42.8330631" lon="-3.7866012"><ele>675.0</ele><time>2026-05-02T16:10:18.913Z</time></trkpt><trkpt lat="42.832935" lon="-3.7866356"><ele>675.0</ele><time>2026-05-02T16:10:19.915Z</time></trkpt><trkpt lat="42.8328055" lon="-3.7866785"><ele>675.0</ele><time>2026-05-02T16:10:20.915Z</time></trkpt><trkpt lat="42.8326774" lon="-3.7867228"><ele>675.0</ele><time>2026-05-02T16:10:21.924Z</time></trkpt><trkpt lat="42.8325521" lon="-3.7867718"><ele>674.5</ele><time>2026-05-02T16:10:22.914Z</time></trkpt><trkpt lat="42.8324225" lon="-3.7868284"><ele>674.0</ele><time>2026-05-02T16:10:23.918Z</time></trkpt><trkpt lat="42.8322916" lon="-3.7868851"><ele>673.5</ele><time>2026-05-02T16:10:24.914Z</time></trkpt><trkpt lat="42.8321645" lon="-3.7869484"><ele>673.0</ele><time>2026-05-02T16:10:25.911Z</time></trkpt><trkpt lat="42.8320417" lon="-3.7870079"><ele>673.0</ele><time>2026-05-02T16:10:26.907Z</time></trkpt><trkpt lat="42.8319245" lon="-3.7870625"><ele>673.0</ele><time>2026-05-02T16:10:27.906Z</time></trkpt><trkpt lat="42.8318115" lon="-3.7871213"><ele>673.0</ele><time>2026-05-02T16:10:28.909Z</time></trkpt><trkpt lat="42.8317088" lon="-3.7871954"><ele>673.0</ele><time>2026-05-02T16:10:29.906Z</time></trkpt><trkpt lat="42.8316171" lon="-3.787287"><ele>672.75</ele><time>2026-05-02T16:10:30.91Z</time></trkpt><trkpt lat="42.8315274" lon="-3.7873934"><ele>672.5</ele><time>2026-05-02T16:10:31.912Z</time></trkpt><trkpt lat="42.8314364" lon="-3.787506"><ele>672.25</ele><time>2026-05-02T16:10:32.908Z</time></trkpt><trkpt lat="42.8313474" lon="-3.7876267"><ele>672.0</ele><time>2026-05-02T16:10:33.905Z</time></trkpt><trkpt lat="42.8312605" lon="-3.7877461"><ele>673.0</ele><time>2026-05-02T16:10:34.905Z</time></trkpt><trkpt lat="42.8311687" lon="-3.7878653"><ele>674.0</ele><time>2026-05-02T16:10:35.905Z</time></trkpt><trkpt lat="42.8310715" lon="-3.7879875"><ele>675.0</ele><time>2026-05-02T16:10:36.907Z</time></trkpt><trkpt lat="42.8309724" lon="-3.7881033"><ele>676.0</ele><time>2026-05-02T16:10:37.906Z</time></trkpt><trkpt lat="42.830875" lon="-3.7882271"><ele>676.0</ele><time>2026-05-02T16:10:38.91Z</time></trkpt><trkpt lat="42.8307722" lon="-3.7883468"><ele>676.0</ele><time>2026-05-02T16:10:39.905Z</time></trkpt><trkpt lat="42.8306692" lon="-3.7884664"><ele>676.0</ele><time>2026-05-02T16:10:40.907Z</time></trkpt><trkpt lat="42.8305679" lon="-3.7885838"><ele>676.0</ele><time>2026-05-02T16:10:41.906Z</time></trkpt><trkpt lat="42.8304663" lon="-3.7887026"><ele>676.0</ele><time>2026-05-02T16:10:42.909Z</time></trkpt><trkpt lat="42.8303649" lon="-3.7888204"><ele>676.0</ele><time>2026-05-02T16:10:43.908Z</time></trkpt><trkpt lat="42.8302647" lon="-3.7889389"><ele>676.0</ele><time>2026-05-02T16:10:44.92Z</time></trkpt><trkpt lat="42.8301652" lon="-3.7890605"><ele>676.0</ele><time>2026-05-02T16:10:45.909Z</time></trkpt><trkpt lat="42.8300652" lon="-3.7891806"><ele>676.0</ele><time>2026-05-02T16:10:46.909Z</time></trkpt><trkpt lat="42.8299655" lon="-3.7893026"><ele>676.0</ele><time>2026-05-02T16:10:47.91Z</time></trkpt><trkpt lat="42.8298645" lon="-3.7894244"><ele>676.0</ele><time>2026-05-02T16:10:48.911Z</time></trkpt><trkpt lat="42.8297641" lon="-3.789545"><ele>676.0</ele><time>2026-05-02T16:10:49.91Z</time></trkpt><trkpt lat="42.8296621" lon="-3.7896633"><ele>675.25</ele><time>2026-05-02T16:10:50.908Z</time></trkpt><trkpt lat="42.8295631" lon="-3.7897804"><ele>674.5</ele><time>2026-05-02T16:10:51.912Z</time></trkpt><trkpt lat="42.829466" lon="-3.7898999"><ele>673.75</ele><time>2026-05-02T16:10:52.911Z</time></trkpt><trkpt lat="42.8293663" lon="-3.7900156"><ele>673.0</ele><time>2026-05-02T16:10:53.917Z</time></trkpt><trkpt lat="42.8292655" lon="-3.790132"><ele>672.0</ele><time>2026-05-02T16:10:54.906Z</time></trkpt><trkpt lat="42.8291655" lon="-3.7902483"><ele>671.0</ele><time>2026-05-02T16:10:55.907Z</time></trkpt><trkpt lat="42.8290666" lon="-3.790362"><ele>670.0</ele><time>2026-05-02T16:10:56.901Z</time></trkpt><trkpt lat="42.8289691" lon="-3.79048"><ele>669.0</ele><time>2026-05-02T16:10:57.902Z</time></trkpt><trkpt lat="42.8288666" lon="-3.7906047"><ele>669.0</ele><time>2026-05-02T16:10:58.902Z</time></trkpt><trkpt lat="42.8287549" lon="-3.7907112"><ele>669.0</ele><time>2026-05-02T16:10:59.903Z</time></trkpt><trkpt lat="42.828649" lon="-3.7908106"><ele>669.0</ele><time>2026-05-02T16:11:00.901Z</time></trkpt><trkpt lat="42.828547" lon="-3.7909096"><ele>669.0</ele><time>2026-05-02T16:11:01.899Z</time></trkpt><trkpt lat="42.8284437" lon="-3.7910021"><ele>668.5</ele><time>2026-05-02T16:11:02.899Z</time></trkpt><trkpt lat="42.828332" lon="-3.7910832"><ele>668.0</ele><time>2026-05-02T16:11:03.898Z</time></trkpt><trkpt lat="42.8282079" lon="-3.7911562"><ele>667.5</ele><time>2026-05-02T16:11:04.899Z</time></trkpt><trkpt lat="42.8280847" lon="-3.7912072"><ele>667.0</ele><time>2026-05-02T16:11:05.9Z</time></trkpt><trkpt lat="42.827967" lon="-3.7912642"><ele>667.0</ele><time>2026-05-02T16:11:06.899Z</time></trkpt><trkpt lat="42.8278492" lon="-3.7913271"><ele>667.0</ele><time>2026-05-02T16:11:07.899Z</time></trkpt><trkpt lat="42.8277315" lon="-3.7913956"><ele>667.0</ele><time>2026-05-02T16:11:08.898Z</time></trkpt><trkpt lat="42.8276175" lon="-3.7914532"><ele>667.0</ele><time>2026-05-02T16:11:09.902Z</time></trkpt><trkpt lat="42.8275028" lon="-3.7915045"><ele>667.75</ele><time>2026-05-02T16:11:10.899Z</time></trkpt><trkpt lat="42.8273828" lon="-3.7915382"><ele>668.5</ele><time>2026-05-02T16:11:11.902Z</time></trkpt><trkpt lat="42.8272625" lon="-3.7915485"><ele>669.25</ele><time>2026-05-02T16:11:12.903Z</time></trkpt><trkpt lat="42.8271471" lon="-3.7915345"><ele>670.0</ele><time>2026-05-02T16:11:13.901Z</time></trkpt><trkpt lat="42.8270306" lon="-3.7915079"><ele>670.0</ele><time>2026-05-02T16:11:14.902Z</time></trkpt><trkpt lat="42.8269185" lon="-3.7914844"><ele>670.0</ele><time>2026-05-02T16:11:15.914Z</time></trkpt><trkpt lat="42.8268082" lon="-3.7914545"><ele>670.0</ele><time>2026-05-02T16:11:16.908Z</time></trkpt><trkpt lat="42.8266977" lon="-3.7914257"><ele>670.0</ele><time>2026-05-02T16:11:17.902Z</time></trkpt><trkpt lat="42.8265879" lon="-3.7914035"><ele>670.0</ele><time>2026-05-02T16:11:18.905Z</time></trkpt><trkpt lat="42.826479" lon="-3.7913823"><ele>670.0</ele><time>2026-05-02T16:11:19.903Z</time></trkpt><trkpt lat="42.8263716" lon="-3.7913634"><ele>670.0</ele><time>2026-05-02T16:11:20.903Z</time></trkpt><trkpt lat="42.8262635" lon="-3.7913457"><ele>670.0</ele><time>2026-05-02T16:11:21.906Z</time></trkpt><trkpt lat="42.8261557" lon="-3.7913261"><ele>670.0</ele><time>2026-05-02T16:11:22.908Z</time></trkpt><trkpt lat="42.8260492" lon="-3.7913048"><ele>670.0</ele><time>2026-05-02T16:11:23.902Z</time></trkpt><trkpt lat="42.8259437" lon="-3.7912917"><ele>670.0</ele><time>2026-05-02T16:11:24.907Z</time></trkpt><trkpt lat="42.8258377" lon="-3.7912862"><ele>670.0</ele><time>2026-05-02T16:11:25.905Z</time></trkpt><trkpt lat="42.8257282" lon="-3.7912891"><ele>670.0</ele><time>2026-05-02T16:11:26.904Z</time></trkpt><trkpt lat="42.8256164" lon="-3.7912953"><ele>670.0</ele><time>2026-05-02T16:11:27.906Z</time></trkpt><trkpt lat="42.8255001" lon="-3.7912959"><ele>670.0</ele><time>2026-05-02T16:11:28.906Z</time></trkpt><trkpt lat="42.8253765" lon="-3.7912909"><ele>670.0</ele><time>2026-05-02T16:11:29.911Z</time></trkpt><trkpt lat="42.825248" lon="-3.7912877"><ele>670.0</ele><time>2026-05-02T16:11:30.913Z</time></trkpt><trkpt lat="42.8251171" lon="-3.7912888"><ele>670.0</ele><time>2026-05-02T16:11:31.906Z</time></trkpt><trkpt lat="42.8249824" lon="-3.7912895"><ele>670.0</ele><time>2026-05-02T16:11:32.908Z</time></trkpt><trkpt lat="42.8248491" lon="-3.7912907"><ele>669.25</ele><time>2026-05-02T16:11:33.909Z</time></trkpt><trkpt lat="42.8247211" lon="-3.7912943"><ele>668.5</ele><time>2026-05-02T16:11:34.903Z</time></trkpt><trkpt lat="42.8245866" lon="-3.7912976"><ele>667.75</ele><time>2026-05-02T16:11:35.902Z</time></trkpt><trkpt lat="42.8244584" lon="-3.7913018"><ele>667.0</ele><time>2026-05-02T16:11:36.902Z</time></trkpt><trkpt lat="42.8243229" lon="-3.7913065"><ele>667.25</ele><time>2026-05-02T16:11:37.903Z</time></trkpt><trkpt lat="42.8241986" lon="-3.791317"><ele>667.5</ele><time>2026-05-02T16:11:38.902Z</time></trkpt><trkpt lat="42.8240722" lon="-3.7913408"><ele>667.75</ele><time>2026-05-02T16:11:39.901Z</time></trkpt><trkpt lat="42.8239472" lon="-3.791373"><ele>668.0</ele><time>2026-05-02T16:11:40.906Z</time></trkpt><trkpt lat="42.8238212" lon="-3.7914079"><ele>668.0</ele><time>2026-05-02T16:11:41.899Z</time></trkpt><trkpt lat="42.8236956" lon="-3.7914527"><ele>668.0</ele><time>2026-05-02T16:11:42.9Z</time></trkpt><trkpt lat="42.8235695" lon="-3.7914985"><ele>668.0</ele><time>2026-05-02T16:11:43.9Z</time></trkpt><trkpt lat="42.8234445" lon="-3.7915375"><ele>668.0</ele><time>2026-05-02T16:11:44.905Z</time></trkpt><trkpt lat="42.823325" lon="-3.7915827"><ele>670.0</ele><time>2026-05-02T16:11:45.901Z</time></trkpt><trkpt lat="42.8232103" lon="-3.7916325"><ele>672.0</ele><time>2026-05-02T16:11:46.925Z</time></trkpt><trkpt lat="42.8230906" lon="-3.7916892"><ele>674.0</ele><time>2026-05-02T16:11:47.906Z</time></trkpt><trkpt lat="42.8229772" lon="-3.7917531"><ele>676.0</ele><time>2026-05-02T16:11:48.904Z</time></trkpt><trkpt lat="42.8228645" lon="-3.7918324"><ele>674.75</ele><time>2026-05-02T16:11:49.904Z</time></trkpt><trkpt lat="42.8227532" lon="-3.7919154"><ele>673.5</ele><time>2026-05-02T16:11:50.904Z</time></trkpt><trkpt lat="42.8226382" lon="-3.7920114"><ele>672.25</ele><time>2026-05-02T16:11:51.904Z</time></trkpt><trkpt lat="42.8225245" lon="-3.7921085"><ele>671.0</ele><time>2026-05-02T16:11:52.904Z</time></trkpt><trkpt lat="42.8224072" lon="-3.7922017"><ele>671.0</ele><time>2026-05-02T16:11:53.91Z</time></trkpt><trkpt lat="42.8222877" lon="-3.7922893"><ele>671.0</ele><time>2026-05-02T16:11:54.903Z</time></trkpt><trkpt lat="42.8221669" lon="-3.7923693"><ele>671.0</ele><time>2026-05-02T16:11:55.901Z</time></trkpt><trkpt lat="42.8220489" lon="-3.7924624"><ele>671.0</ele><time>2026-05-02T16:11:56.898Z</time></trkpt><trkpt lat="42.8219247" lon="-3.792546"><ele>671.5</ele><time>2026-05-02T16:11:57.903Z</time></trkpt><trkpt lat="42.821799" lon="-3.7926317"><ele>672.0</ele><time>2026-05-02T16:11:58.895Z</time></trkpt><trkpt lat="42.8216856" lon="-3.7927236"><ele>672.5</ele><time>2026-05-02T16:11:59.899Z</time></trkpt><trkpt lat="42.8215715" lon="-3.7928057"><ele>673.0</ele><time>2026-05-02T16:12:00.899Z</time></trkpt><trkpt lat="42.8214659" lon="-3.7928895"><ele>673.0</ele><time>2026-05-02T16:12:01.902Z</time></trkpt><trkpt lat="42.821359" lon="-3.7929713"><ele>673.0</ele><time>2026-05-02T16:12:02.899Z</time></trkpt><trkpt lat="42.8212651" lon="-3.7930428"><ele>673.0</ele><time>2026-05-02T16:12:03.9Z</time></trkpt><trkpt lat="42.82118" lon="-3.793102"><ele>673.0</ele><time>2026-05-02T16:12:04.9Z</time></trkpt><trkpt lat="42.8210987" lon="-3.7931626"><ele>673.0</ele><time>2026-05-02T16:12:05.9Z</time></trkpt><trkpt lat="42.8210119" lon="-3.7932028"><ele>672.2</ele><time>2026-05-02T16:12:06.895Z</time></trkpt><trkpt lat="42.8209205" lon="-3.7932295"><ele>671.4</ele><time>2026-05-02T16:12:07.899Z</time></trkpt><trkpt lat="42.8208164" lon="-3.7932323"><ele>670.6</ele><time>2026-05-02T16:12:08.896Z</time></trkpt><trkpt lat="42.8207077" lon="-3.793208"><ele>669.8000000000001</ele><time>2026-05-02T16:12:09.898Z</time></trkpt><trkpt lat="42.820602" lon="-3.793164"><ele>669.0</ele><time>2026-05-02T16:12:10.906Z</time></trkpt><trkpt lat="42.820504" lon="-3.7931081"><ele>669.0</ele><time>2026-05-02T16:12:11.902Z</time></trkpt><trkpt lat="42.8204138" lon="-3.7930338"><ele>669.0</ele><time>2026-05-02T16:12:12.903Z</time></trkpt><trkpt lat="42.820335" lon="-3.7929436"><ele>669.0</ele><time>2026-05-02T16:12:13.906Z</time></trkpt><trkpt lat="42.8202611" lon="-3.7928284"><ele>669.0</ele><time>2026-05-02T16:12:14.915Z</time></trkpt><trkpt lat="42.8201901" lon="-3.7927068"><ele>669.0</ele><time>2026-05-02T16:12:15.904Z</time></trkpt><trkpt lat="42.8201252" lon="-3.7925754"><ele>668.75</ele><time>2026-05-02T16:12:16.921Z</time></trkpt><trkpt lat="42.8200605" lon="-3.7924423"><ele>668.5</ele><time>2026-05-02T16:12:17.909Z</time></trkpt><trkpt lat="42.8199917" lon="-3.7923058"><ele>668.25</ele><time>2026-05-02T16:12:18.913Z</time></trkpt><trkpt lat="42.8199129" lon="-3.7921704"><ele>668.0</ele><time>2026-05-02T16:12:19.91Z</time></trkpt><trkpt lat="42.8198364" lon="-3.7920292"><ele>668.0</ele><time>2026-05-02T16:12:20.911Z</time></trkpt><trkpt lat="42.8197608" lon="-3.7918889"><ele>668.0</ele><time>2026-05-02T16:12:21.91Z</time></trkpt><trkpt lat="42.8196879" lon="-3.791745"><ele>668.0</ele><time>2026-05-02T16:12:22.908Z</time></trkpt><trkpt lat="42.8196137" lon="-3.7916011"><ele>668.0</ele><time>2026-05-02T16:12:23.911Z</time></trkpt><trkpt lat="42.8195423" lon="-3.7914624"><ele>668.5</ele><time>2026-05-02T16:12:24.909Z</time></trkpt><trkpt lat="42.8194683" lon="-3.7913279"><ele>669.0</ele><time>2026-05-02T16:12:25.908Z</time></trkpt><trkpt lat="42.8193953" lon="-3.7911928"><ele>669.5</ele><time>2026-05-02T16:12:26.916Z</time></trkpt><trkpt lat="42.8193249" lon="-3.791062"><ele>670.0</ele><time>2026-05-02T16:12:27.924Z</time></trkpt><trkpt lat="42.8192593" lon="-3.7909279"><ele>670.0</ele><time>2026-05-02T16:12:28.912Z</time></trkpt><trkpt lat="42.8191932" lon="-3.7907904"><ele>670.0</ele><time>2026-05-02T16:12:29.91Z</time></trkpt><trkpt lat="42.8191313" lon="-3.7906507"><ele>670.0</ele><time>2026-05-02T16:12:30.92Z</time></trkpt><trkpt lat="42.8190693" lon="-3.7905116"><ele>670.0</ele><time>2026-05-02T16:12:31.909Z</time></trkpt><trkpt lat="42.8190097" lon="-3.7903752"><ele>670.0</ele><time>2026-05-02T16:12:32.906Z</time></trkpt><trkpt lat="42.8189441" lon="-3.7902344"><ele>670.0</ele><time>2026-05-02T16:12:33.912Z</time></trkpt><trkpt lat="42.8188768" lon="-3.7900924"><ele>670.0</ele><time>2026-05-02T16:12:34.913Z</time></trkpt><trkpt lat="42.8188058" lon="-3.7899565"><ele>670.0</ele><time>2026-05-02T16:12:35.918Z</time></trkpt><trkpt lat="42.8187216" lon="-3.7898307"><ele>670.25</ele><time>2026-05-02T16:12:36.917Z</time></trkpt><trkpt lat="42.8186284" lon="-3.7897155"><ele>670.5</ele><time>2026-05-02T16:12:37.916Z</time></trkpt><trkpt lat="42.818534" lon="-3.7896076"><ele>670.75</ele><time>2026-05-02T16:12:38.914Z</time></trkpt><trkpt lat="42.8184417" lon="-3.7894956"><ele>671.0</ele><time>2026-05-02T16:12:39.921Z</time></trkpt><trkpt lat="42.8183438" lon="-3.7893847"><ele>673.0</ele><time>2026-05-02T16:12:40.915Z</time></trkpt><trkpt lat="42.8182404" lon="-3.7892758"><ele>675.0</ele><time>2026-05-02T16:12:41.915Z</time></trkpt><trkpt lat="42.8181329" lon="-3.7891715"><ele>677.0</ele><time>2026-05-02T16:12:42.907Z</time></trkpt><trkpt lat="42.8180252" lon="-3.7890754"><ele>679.0</ele><time>2026-05-02T16:12:43.906Z</time></trkpt><trkpt lat="42.8179166" lon="-3.7889824"><ele>679.0</ele><time>2026-05-02T16:12:44.908Z</time></trkpt><trkpt lat="42.817807" lon="-3.7888888"><ele>679.0</ele><time>2026-05-02T16:12:45.929Z</time></trkpt><trkpt lat="42.8177037" lon="-3.7887932"><ele>679.0</ele><time>2026-05-02T16:12:46.927Z</time></trkpt><trkpt lat="42.8175962" lon="-3.7886945"><ele>679.0</ele><time>2026-05-02T16:12:47.938Z</time></trkpt><trkpt lat="42.8174856" lon="-3.7885991"><ele>679.0</ele><time>2026-05-02T16:12:48.927Z</time></trkpt><trkpt lat="42.817377" lon="-3.7885015"><ele>679.0</ele><time>2026-05-02T16:12:49.927Z</time></trkpt><trkpt lat="42.8172622" lon="-3.7884059"><ele>679.0</ele><time>2026-05-02T16:12:50.917Z</time></trkpt><trkpt lat="42.8171477" lon="-3.7883095"><ele>679.0</ele><time>2026-05-02T16:12:51.926Z</time></trkpt><trkpt lat="42.817036" lon="-3.7882113"><ele>679.0</ele><time>2026-05-02T16:12:52.925Z</time></trkpt><trkpt lat="42.8169263" lon="-3.7881122"><ele>679.0</ele><time>2026-05-02T16:12:53.92Z</time></trkpt><trkpt lat="42.8168107" lon="-3.7880153"><ele>679.0</ele><time>2026-05-02T16:12:54.919Z</time></trkpt><trkpt lat="42.8166968" lon="-3.7879183"><ele>679.0</ele><time>2026-05-02T16:12:55.919Z</time></trkpt><trkpt lat="42.81658" lon="-3.7878206"><ele>680.5</ele><time>2026-05-02T16:12:56.913Z</time></trkpt><trkpt lat="42.8164612" lon="-3.787727"><ele>682.0</ele><time>2026-05-02T16:12:57.918Z</time></trkpt><trkpt lat="42.816342" lon="-3.7876339"><ele>683.5</ele><time>2026-05-02T16:12:58.915Z</time></trkpt><trkpt lat="42.8162261" lon="-3.7875462"><ele>685.0</ele><time>2026-05-02T16:12:59.916Z</time></trkpt><trkpt lat="42.8161064" lon="-3.7874579"><ele>685.0</ele><time>2026-05-02T16:13:00.919Z</time></trkpt><trkpt lat="42.8159876" lon="-3.787373"><ele>685.0</ele><time>2026-05-02T16:13:01.913Z</time></trkpt><trkpt lat="42.8158706" lon="-3.7872912"><ele>685.0</ele><time>2026-05-02T16:13:02.917Z</time></trkpt><trkpt lat="42.8157538" lon="-3.7872103"><ele>685.0</ele><time>2026-05-02T16:13:03.913Z</time></trkpt><trkpt lat="42.8156397" lon="-3.7871313"><ele>681.75</ele><time>2026-05-02T16:13:04.912Z</time></trkpt><trkpt lat="42.8155305" lon="-3.7870536"><ele>678.5</ele><time>2026-05-02T16:13:05.921Z</time></trkpt><trkpt lat="42.8154215" lon="-3.7869831"><ele>675.25</ele><time>2026-05-02T16:13:06.909Z</time></trkpt><trkpt lat="42.8153187" lon="-3.7869173"><ele>672.0</ele><time>2026-05-02T16:13:07.913Z</time></trkpt><trkpt lat="42.8152242" lon="-3.7868551"><ele>673.8</ele><time>2026-05-02T16:13:08.913Z</time></trkpt><trkpt lat="42.8151276" lon="-3.7867893"><ele>675.6</ele><time>2026-05-02T16:13:09.92Z</time></trkpt><trkpt lat="42.8150311" lon="-3.786742"><ele>677.4</ele><time>2026-05-02T16:13:10.914Z</time></trkpt><trkpt lat="42.8149363" lon="-3.7867135"><ele>679.1999999999999</ele><time>2026-05-02T16:13:11.917Z</time></trkpt><trkpt lat="42.8148297" lon="-3.7866949"><ele>681.0</ele><time>2026-05-02T16:13:12.916Z</time></trkpt><trkpt lat="42.8147196" lon="-3.7866897"><ele>681.0</ele><time>2026-05-02T16:13:13.921Z</time></trkpt><trkpt lat="42.8146074" lon="-3.786701"><ele>681.0</ele><time>2026-05-02T16:13:14.917Z</time></trkpt><trkpt lat="42.814488" lon="-3.7867169"><ele>681.0</ele><time>2026-05-02T16:13:15.913Z</time></trkpt><trkpt lat="42.814368" lon="-3.7867417"><ele>681.0</ele><time>2026-05-02T16:13:16.916Z</time></trkpt><trkpt lat="42.8142519" lon="-3.7867628"><ele>680.8</ele><time>2026-05-02T16:13:17.92Z</time></trkpt><trkpt lat="42.8141377" lon="-3.7867862"><ele>680.5999999999999</ele><time>2026-05-02T16:13:18.929Z</time></trkpt><trkpt lat="42.8140289" lon="-3.7868046"><ele>680.4</ele><time>2026-05-02T16:13:19.918Z</time></trkpt><trkpt lat="42.8139196" lon="-3.7868231"><ele>680.2</ele><time>2026-05-02T16:13:20.917Z</time></trkpt><trkpt lat="42.8138072" lon="-3.7868462"><ele>680.0</ele><time>2026-05-02T16:13:21.917Z</time></trkpt><trkpt lat="42.8136853" lon="-3.7868618"><ele>677.0</ele><time>2026-05-02T16:13:22.917Z</time></trkpt><trkpt lat="42.8135667" lon="-3.7868775"><ele>674.0</ele><time>2026-05-02T16:13:23.917Z</time></trkpt><trkpt lat="42.8134475" lon="-3.7868942"><ele>671.0</ele><time>2026-05-02T16:13:24.916Z</time></trkpt><trkpt lat="42.8133268" lon="-3.7869114"><ele>668.0</ele><time>2026-05-02T16:13:25.919Z</time></trkpt><trkpt lat="42.8132071" lon="-3.7869271"><ele>667.75</ele><time>2026-05-02T16:13:26.917Z</time></trkpt><trkpt lat="42.8130828" lon="-3.7869393"><ele>667.5</ele><time>2026-05-02T16:13:27.917Z</time></trkpt><trkpt lat="42.812957" lon="-3.7869403"><ele>667.25</ele><time>2026-05-02T16:13:28.919Z</time></trkpt><trkpt lat="42.8128298" lon="-3.7869322"><ele>667.0</ele><time>2026-05-02T16:13:29.917Z</time></trkpt><trkpt lat="42.8127015" lon="-3.7869241"><ele>666.75</ele><time>2026-05-02T16:13:30.919Z</time></trkpt><trkpt lat="42.8125811" lon="-3.7869207"><ele>666.5</ele><time>2026-05-02T16:13:31.915Z</time></trkpt><trkpt lat="42.8124513" lon="-3.7869127"><ele>666.25</ele><time>2026-05-02T16:13:32.919Z</time></trkpt><trkpt lat="42.8123225" lon="-3.7869046"><ele>666.0</ele><time>2026-05-02T16:13:33.917Z</time></trkpt><trkpt lat="42.8122006" lon="-3.786895"><ele>666.0</ele><time>2026-05-02T16:13:34.915Z</time></trkpt><trkpt lat="42.8120776" lon="-3.7868945"><ele>666.0</ele><time>2026-05-02T16:13:35.911Z</time></trkpt><trkpt lat="42.8119566" lon="-3.7868901"><ele>666.0</ele><time>2026-05-02T16:13:36.917Z</time></trkpt><trkpt lat="42.811842" lon="-3.7868811"><ele>666.0</ele><time>2026-05-02T16:13:37.914Z</time></trkpt><trkpt lat="42.8117279" lon="-3.7868806"><ele>666.5999999999999</ele><time>2026-05-02T16:13:38.914Z</time></trkpt><trkpt lat="42.8116156" lon="-3.7868735"><ele>667.2</ele><time>2026-05-02T16:13:39.919Z</time></trkpt><trkpt lat="42.811509" lon="-3.786868"><ele>667.8</ele><time>2026-05-02T16:13:40.917Z</time></trkpt><trkpt lat="42.8114082" lon="-3.7868498"><ele>668.4000000000001</ele><time>2026-05-02T16:13:41.92Z</time></trkpt><trkpt lat="42.8113175" lon="-3.7868156"><ele>669.0</ele><time>2026-05-02T16:13:42.917Z</time></trkpt><trkpt lat="42.8112387" lon="-3.7867663"><ele>670.3333333333334</ele><time>2026-05-02T16:13:43.914Z</time></trkpt><trkpt lat="42.8111704" lon="-3.7866941"><ele>671.6666666666666</ele><time>2026-05-02T16:13:44.916Z</time></trkpt><trkpt lat="42.8111181" lon="-3.7866048"><ele>673.0</ele><time>2026-05-02T16:13:45.927Z</time></trkpt><trkpt lat="42.8110864" lon="-3.7864994"><ele>674.3333333333333</ele><time>2026-05-02T16:13:46.929Z</time></trkpt><trkpt lat="42.8110677" lon="-3.7863838"><ele>675.6666666666666</ele><time>2026-05-02T16:13:47.923Z</time></trkpt><trkpt lat="42.8110688" lon="-3.7862614"><ele>677.0</ele><time>2026-05-02T16:13:48.92Z</time></trkpt><trkpt lat="42.8110856" lon="-3.7861243"><ele>678.5</ele><time>2026-05-02T16:13:49.929Z</time></trkpt><trkpt lat="42.8111202" lon="-3.7859772"><ele>680.0</ele><time>2026-05-02T16:13:50.918Z</time></trkpt><trkpt lat="42.8111738" lon="-3.7858231"><ele>681.5</ele><time>2026-05-02T16:13:51.92Z</time></trkpt><trkpt lat="42.8112354" lon="-3.7856596"><ele>683.0</ele><time>2026-05-02T16:13:52.92Z</time></trkpt><trkpt lat="42.8112982" lon="-3.7854916"><ele>683.0</ele><time>2026-05-02T16:13:53.916Z</time></trkpt><trkpt lat="42.8113621" lon="-3.7853169"><ele>683.0</ele><time>2026-05-02T16:13:54.914Z</time></trkpt><trkpt lat="42.8114235" lon="-3.7851466"><ele>683.0</ele><time>2026-05-02T16:13:55.912Z</time></trkpt><trkpt lat="42.8114844" lon="-3.7849686"><ele>683.0</ele><time>2026-05-02T16:13:56.913Z</time></trkpt><trkpt lat="42.8115346" lon="-3.7847906"><ele>681.25</ele><time>2026-05-02T16:13:57.916Z</time></trkpt><trkpt lat="42.8115932" lon="-3.7846117"><ele>679.5</ele><time>2026-05-02T16:13:58.908Z</time></trkpt><trkpt lat="42.8116543" lon="-3.7844327"><ele>677.75</ele><time>2026-05-02T16:13:59.913Z</time></trkpt><trkpt lat="42.8117159" lon="-3.7842459"><ele>676.0</ele><time>2026-05-02T16:14:00.919Z</time></trkpt><trkpt lat="42.8117684" lon="-3.7840714"><ele>680.3333333333334</ele><time>2026-05-02T16:14:01.913Z</time></trkpt><trkpt lat="42.8118237" lon="-3.7838988"><ele>684.6666666666666</ele><time>2026-05-02T16:14:02.912Z</time></trkpt><trkpt lat="42.8119108" lon="-3.783588"><ele>689.0</ele><time>2026-05-02T16:14:04.917Z</time></trkpt><trkpt lat="42.8119615" lon="-3.7834158"><ele>689.0</ele><time>2026-05-02T16:14:05.913Z</time></trkpt><trkpt lat="42.8120131" lon="-3.7832582"><ele>689.0</ele><time>2026-05-02T16:14:06.914Z</time></trkpt><trkpt lat="42.8120475" lon="-3.7831002"><ele>689.0</ele><time>2026-05-02T16:14:07.915Z</time></trkpt><trkpt lat="42.8120689" lon="-3.7829268"><ele>689.0</ele><time>2026-05-02T16:14:08.92Z</time></trkpt><trkpt lat="42.8120902" lon="-3.7827528"><ele>688.0</ele><time>2026-05-02T16:14:09.915Z</time></trkpt><trkpt lat="42.8121106" lon="-3.7825796"><ele>687.0</ele><time>2026-05-02T16:14:10.912Z</time></trkpt><trkpt lat="42.8121231" lon="-3.7824017"><ele>686.0</ele><time>2026-05-02T16:14:11.918Z</time></trkpt><trkpt lat="42.8121355" lon="-3.7822173"><ele>685.0</ele><time>2026-05-02T16:14:12.919Z</time></trkpt><trkpt lat="42.8121501" lon="-3.7820371"><ele>685.0</ele><time>2026-05-02T16:14:13.923Z</time></trkpt><trkpt lat="42.8121676" lon="-3.7818522"><ele>685.0</ele><time>2026-05-02T16:14:14.923Z</time></trkpt><trkpt lat="42.8121775" lon="-3.7816592"><ele>685.0</ele><time>2026-05-02T16:14:15.924Z</time></trkpt><trkpt lat="42.8121875" lon="-3.7814739"><ele>685.0</ele><time>2026-05-02T16:14:16.923Z</time></trkpt><trkpt lat="42.812206" lon="-3.7812801"><ele>683.5</ele><time>2026-05-02T16:14:17.923Z</time></trkpt><trkpt lat="42.8122308" lon="-3.7810986"><ele>682.0</ele><time>2026-05-02T16:14:18.922Z</time></trkpt><trkpt lat="42.8122503" lon="-3.7809201"><ele>680.5</ele><time>2026-05-02T16:14:19.922Z</time></trkpt><trkpt lat="42.8122673" lon="-3.780742"><ele>679.0</ele><time>2026-05-02T16:14:20.934Z</time></trkpt><trkpt lat="42.8122826" lon="-3.7805573"><ele>678.75</ele><time>2026-05-02T16:14:21.924Z</time></trkpt><trkpt lat="42.8123026" lon="-3.7803814"><ele>678.5</ele><time>2026-05-02T16:14:22.926Z</time></trkpt><trkpt lat="42.8123126" lon="-3.7802018"><ele>678.25</ele><time>2026-05-02T16:14:23.924Z</time></trkpt><trkpt lat="42.8123291" lon="-3.7800251"><ele>678.0</ele><time>2026-05-02T16:14:24.927Z</time></trkpt><trkpt lat="42.8123509" lon="-3.7798447"><ele>677.25</ele><time>2026-05-02T16:14:25.925Z</time></trkpt><trkpt lat="42.8123664" lon="-3.7796674"><ele>676.5</ele><time>2026-05-02T16:14:26.927Z</time></trkpt><trkpt lat="42.8123834" lon="-3.7794905"><ele>675.75</ele><time>2026-05-02T16:14:27.928Z</time></trkpt><trkpt lat="42.8124048" lon="-3.7793187"><ele>675.0</ele><time>2026-05-02T16:14:28.927Z</time></trkpt><trkpt lat="42.8124226" lon="-3.7791613"><ele>674.8</ele><time>2026-05-02T16:14:29.93Z</time></trkpt><trkpt lat="42.8124392" lon="-3.779005"><ele>674.6</ele><time>2026-05-02T16:14:30.939Z</time></trkpt><trkpt lat="42.8124564" lon="-3.7788579"><ele>674.4000000000001</ele><time>2026-05-02T16:14:31.922Z</time></trkpt><trkpt lat="42.8124668" lon="-3.7787195"><ele>674.2</ele><time>2026-05-02T16:14:32.923Z</time></trkpt><trkpt lat="42.812478" lon="-3.7785907"><ele>674.0</ele><time>2026-05-02T16:14:33.922Z</time></trkpt><trkpt lat="42.8124796" lon="-3.7784657"><ele>674.0</ele><time>2026-05-02T16:14:34.92Z</time></trkpt><trkpt lat="42.8124746" lon="-3.7783453"><ele>674.0</ele><time>2026-05-02T16:14:35.924Z</time></trkpt><trkpt lat="42.8124573" lon="-3.7782271"><ele>674.0</ele><time>2026-05-02T16:14:36.925Z</time></trkpt><trkpt lat="42.8124329" lon="-3.7781083"><ele>674.0</ele><time>2026-05-02T16:14:37.926Z</time></trkpt><trkpt lat="42.8123993" lon="-3.7779885"><ele>674.0</ele><time>2026-05-02T16:14:38.93Z</time></trkpt><trkpt lat="42.8123661" lon="-3.7778737"><ele>674.0</ele><time>2026-05-02T16:14:39.926Z</time></trkpt><trkpt lat="42.8123387" lon="-3.7777547"><ele>674.0</ele><time>2026-05-02T16:14:40.929Z</time></trkpt><trkpt lat="42.8123307" lon="-3.7776357"><ele>674.0</ele><time>2026-05-02T16:14:41.92Z</time></trkpt><trkpt lat="42.8123302" lon="-3.7775175"><ele>674.0</ele><time>2026-05-02T16:14:42.928Z</time></trkpt><trkpt lat="42.8123467" lon="-3.777401"><ele>674.0</ele><time>2026-05-02T16:14:44.125Z</time></trkpt><trkpt lat="42.8124008" lon="-3.7771716"><ele>674.2</ele><time>2026-05-02T16:14:45.898Z</time></trkpt><trkpt lat="42.8124304" lon="-3.7770592"><ele>674.4000000000001</ele><time>2026-05-02T16:14:46.902Z</time></trkpt><trkpt lat="42.8124596" lon="-3.776938"><ele>674.6</ele><time>2026-05-02T16:14:47.903Z</time></trkpt><trkpt lat="42.8124915" lon="-3.776813"><ele>674.8</ele><time>2026-05-02T16:14:48.9Z</time></trkpt><trkpt lat="42.8125235" lon="-3.7766847"><ele>675.0</ele><time>2026-05-02T16:14:49.901Z</time></trkpt><trkpt lat="42.8125515" lon="-3.7765551"><ele>675.0</ele><time>2026-05-02T16:14:50.902Z</time></trkpt><trkpt lat="42.812579" lon="-3.7764318"><ele>675.0</ele><time>2026-05-02T16:14:51.914Z</time></trkpt><trkpt lat="42.8126092" lon="-3.7763113"><ele>675.0</ele><time>2026-05-02T16:14:52.897Z</time></trkpt><trkpt lat="42.8126319" lon="-3.7761937"><ele>675.0</ele><time>2026-05-02T16:14:53.902Z</time></trkpt><trkpt lat="42.8126527" lon="-3.7760762"><ele>675.0</ele><time>2026-05-02T16:14:54.891Z</time></trkpt><trkpt lat="42.8126547" lon="-3.7759798"><ele>675.0</ele><time>2026-05-02T16:14:55.892Z</time></trkpt><trkpt lat="42.8126562" lon="-3.7758842"><ele>675.3333333333334</ele><time>2026-05-02T16:14:56.89Z</time></trkpt><trkpt lat="42.8126467" lon="-3.7757928"><ele>675.6666666666666</ele><time>2026-05-02T16:14:57.896Z</time></trkpt><trkpt lat="42.8126136" lon="-3.7756424"><ele>676.0</ele><time>2026-05-02T16:14:59.89Z</time></trkpt><trkpt lat="42.8125777" lon="-3.7755504"><ele>676.3333333333333</ele><time>2026-05-02T16:15:01.897Z</time></trkpt><trkpt lat="42.8124889" lon="-3.7755638"><ele>676.6666666666666</ele><time>2026-05-02T16:16:02.89Z</time></trkpt><trkpt lat="42.8123887" lon="-3.7755584"><ele>677.0</ele><time>2026-05-02T16:16:04.892Z</time></trkpt><trkpt lat="42.8123169" lon="-3.7755469"><ele>677.0</ele><time>2026-05-02T16:16:05.888Z</time></trkpt><trkpt lat="42.8122458" lon="-3.775535"><ele>677.0</ele><time>2026-05-02T16:16:06.891Z</time></trkpt><trkpt lat="42.8121718" lon="-3.7755208"><ele>677.0</ele><time>2026-05-02T16:16:07.891Z</time></trkpt><trkpt lat="42.8120872" lon="-3.7755139"><ele>677.0</ele><time>2026-05-02T16:16:08.89Z</time></trkpt><trkpt lat="42.8119994" lon="-3.775501"><ele>677.0</ele><time>2026-05-02T16:16:09.892Z</time></trkpt><trkpt lat="42.811916" lon="-3.7754895"><ele>677.0</ele><time>2026-05-02T16:16:10.893Z</time></trkpt><trkpt lat="42.811836" lon="-3.7754766"><ele>676.5</ele><time>2026-05-02T16:16:11.894Z</time></trkpt><trkpt lat="42.8117545" lon="-3.7754642"><ele>676.0</ele><time>2026-05-02T16:16:12.892Z</time></trkpt><trkpt lat="42.8116719" lon="-3.7754467"><ele>675.5</ele><time>2026-05-02T16:16:13.893Z</time></trkpt><trkpt lat="42.8115818" lon="-3.7754276"><ele>675.0</ele><time>2026-05-02T16:16:14.893Z</time></trkpt><trkpt lat="42.8114875" lon="-3.7754143"><ele>674.5</ele><time>2026-05-02T16:16:15.891Z</time></trkpt><trkpt lat="42.8113901" lon="-3.7754012"><ele>674.0</ele><time>2026-05-02T16:16:16.892Z</time></trkpt><trkpt lat="42.8112883" lon="-3.7753821"><ele>674.0</ele><time>2026-05-02T16:16:17.893Z</time></trkpt><trkpt lat="42.8111866" lon="-3.7753744"><ele>674.0</ele><time>2026-05-02T16:16:18.89Z</time></trkpt><trkpt lat="42.8110791" lon="-3.7753646"><ele>674.0</ele><time>2026-05-02T16:16:19.893Z</time></trkpt><trkpt lat="42.8109716" lon="-3.7753622"><ele>674.0</ele><time>2026-05-02T16:16:20.892Z</time></trkpt><trkpt lat="42.8108637" lon="-3.7753592"><ele>674.0</ele><time>2026-05-02T16:16:21.894Z</time></trkpt><trkpt lat="42.8107537" lon="-3.7753529"><ele>673.0</ele><time>2026-05-02T16:16:22.893Z</time></trkpt><trkpt lat="42.8106484" lon="-3.7753452"><ele>672.0</ele><time>2026-05-02T16:16:23.896Z</time></trkpt><trkpt lat="42.8105462" lon="-3.7753302"><ele>671.0</ele><time>2026-05-02T16:16:24.919Z</time></trkpt><trkpt lat="42.8104402" lon="-3.7753161"><ele>670.0</ele><time>2026-05-02T16:16:25.9Z</time></trkpt><trkpt lat="42.8103294" lon="-3.7753012"><ele>669.0</ele><time>2026-05-02T16:16:26.9Z</time></trkpt><trkpt lat="42.8102169" lon="-3.775282"><ele>670.0</ele><time>2026-05-02T16:16:27.902Z</time></trkpt><trkpt lat="42.8101047" lon="-3.775265"><ele>671.0</ele><time>2026-05-02T16:16:28.901Z</time></trkpt><trkpt lat="42.8099905" lon="-3.7752452"><ele>672.0</ele><time>2026-05-02T16:16:29.9Z</time></trkpt><trkpt lat="42.809877" lon="-3.7752249"><ele>673.0</ele><time>2026-05-02T16:16:30.904Z</time></trkpt><trkpt lat="42.8097627" lon="-3.7752012"><ele>677.0</ele><time>2026-05-02T16:16:31.898Z</time></trkpt><trkpt lat="42.8096429" lon="-3.7751821"><ele>681.0</ele><time>2026-05-02T16:16:32.896Z</time></trkpt><trkpt lat="42.8095236" lon="-3.7751609"><ele>685.0</ele><time>2026-05-02T16:16:33.896Z</time></trkpt><trkpt lat="42.8094039" lon="-3.7751404"><ele>689.0</ele><time>2026-05-02T16:16:34.9Z</time></trkpt><trkpt lat="42.8092856" lon="-3.775128"><ele>690.0</ele><time>2026-05-02T16:16:35.896Z</time></trkpt><trkpt lat="42.8091647" lon="-3.7751358"><ele>691.0</ele><time>2026-05-02T16:16:36.896Z</time></trkpt><trkpt lat="42.8090416" lon="-3.7751625"><ele>692.0</ele><time>2026-05-02T16:16:37.895Z</time></trkpt><trkpt lat="42.8089196" lon="-3.7752023"><ele>693.0</ele><time>2026-05-02T16:16:38.896Z</time></trkpt><trkpt lat="42.808804" lon="-3.7752434"><ele>689.5</ele><time>2026-05-02T16:16:39.895Z</time></trkpt><trkpt lat="42.8086899" lon="-3.7752925"><ele>686.0</ele><time>2026-05-02T16:16:40.902Z</time></trkpt><trkpt lat="42.8085778" lon="-3.7753354"><ele>682.5</ele><time>2026-05-02T16:16:41.895Z</time></trkpt><trkpt lat="42.8084683" lon="-3.7753761"><ele>679.0</ele><time>2026-05-02T16:16:42.905Z</time></trkpt><trkpt lat="42.8083598" lon="-3.7754151"><ele>679.0</ele><time>2026-05-02T16:16:43.901Z</time></trkpt><trkpt lat="42.8082515" lon="-3.7754448"><ele>679.0</ele><time>2026-05-02T16:16:44.902Z</time></trkpt><trkpt lat="42.8081407" lon="-3.775453"><ele>679.0</ele><time>2026-05-02T16:16:45.896Z</time></trkpt><trkpt lat="42.8080294" lon="-3.7754424"><ele>679.0</ele><time>2026-05-02T16:16:46.898Z</time></trkpt><trkpt lat="42.8079186" lon="-3.7754071"><ele>679.0</ele><time>2026-05-02T16:16:47.899Z</time></trkpt><trkpt lat="42.8078093" lon="-3.775369"><ele>679.0</ele><time>2026-05-02T16:16:48.898Z</time></trkpt><trkpt lat="42.8076953" lon="-3.7753279"><ele>679.0</ele><time>2026-05-02T16:16:49.899Z</time></trkpt><trkpt lat="42.8075781" lon="-3.7752922"><ele>679.0</ele><time>2026-05-02T16:16:50.897Z</time></trkpt><trkpt lat="42.8074624" lon="-3.7752484"><ele>679.0</ele><time>2026-05-02T16:16:51.894Z</time></trkpt><trkpt lat="42.807356" lon="-3.7752133"><ele>683.1666666666667</ele><time>2026-05-02T16:16:52.899Z</time></trkpt><trkpt lat="42.8072595" lon="-3.7751764"><ele>687.3333333333334</ele><time>2026-05-02T16:16:53.891Z</time></trkpt><trkpt lat="42.8071763" lon="-3.7751474"><ele>691.5</ele><time>2026-05-02T16:16:54.901Z</time></trkpt><trkpt lat="42.8071035" lon="-3.7751207"><ele>695.6666666666666</ele><time>2026-05-02T16:16:55.894Z</time></trkpt><trkpt lat="42.8070431" lon="-3.7750893"><ele>699.8333333333333</ele><time>2026-05-02T16:16:56.894Z</time></trkpt><trkpt lat="42.8069873" lon="-3.7750437"><ele>704.0</ele><time>2026-05-02T16:16:57.9Z</time></trkpt><trkpt lat="42.8068782" lon="-3.7749603"><ele>700.0</ele><time>2026-05-02T16:16:59.899Z</time></trkpt><trkpt lat="42.8068047" lon="-3.7749325"><ele>696.0</ele><time>2026-05-02T16:17:00.904Z</time></trkpt><trkpt lat="42.8067145" lon="-3.7748997"><ele>692.0</ele><time>2026-05-02T16:17:01.902Z</time></trkpt><trkpt lat="42.8066182" lon="-3.7748562"><ele>688.0</ele><time>2026-05-02T16:17:02.899Z</time></trkpt><trkpt lat="42.8065127" lon="-3.7748034"><ele>684.0</ele><time>2026-05-02T16:17:03.901Z</time></trkpt><trkpt lat="42.8064001" lon="-3.7747379"><ele>684.0</ele><time>2026-05-02T16:17:04.903Z</time></trkpt><trkpt lat="42.8062849" lon="-3.7746547"><ele>684.0</ele><time>2026-05-02T16:17:05.9Z</time></trkpt><trkpt lat="42.8061697" lon="-3.7745526"><ele>684.0</ele><time>2026-05-02T16:17:06.897Z</time></trkpt><trkpt lat="42.806054" lon="-3.7744384"><ele>684.0</ele><time>2026-05-02T16:17:07.902Z</time></trkpt><trkpt lat="42.8059464" lon="-3.7743024"><ele>684.0</ele><time>2026-05-02T16:17:08.898Z</time></trkpt><trkpt lat="42.8058521" lon="-3.7741288"><ele>684.0</ele><time>2026-05-02T16:17:09.902Z</time></trkpt><trkpt lat="42.8057632" lon="-3.7739378"><ele>684.0</ele><time>2026-05-02T16:17:10.905Z</time></trkpt><trkpt lat="42.8056675" lon="-3.7737506"><ele>684.0</ele><time>2026-05-02T16:17:11.9Z</time></trkpt><trkpt lat="42.8055703" lon="-3.7735707"><ele>684.0</ele><time>2026-05-02T16:17:12.904Z</time></trkpt><trkpt lat="42.8054598" lon="-3.773393"><ele>684.0</ele><time>2026-05-02T16:17:13.905Z</time></trkpt><trkpt lat="42.8053547" lon="-3.773205"><ele>681.0</ele><time>2026-05-02T16:17:14.899Z</time></trkpt><trkpt lat="42.8052427" lon="-3.7730055"><ele>678.0</ele><time>2026-05-02T16:17:15.901Z</time></trkpt><trkpt lat="42.805138" lon="-3.7727968"><ele>675.0</ele><time>2026-05-02T16:17:16.904Z</time></trkpt><trkpt lat="42.805032" lon="-3.7725937"><ele>675.0</ele><time>2026-05-02T16:17:17.904Z</time></trkpt><trkpt lat="42.8049239" lon="-3.7723817"><ele>675.0</ele><time>2026-05-02T16:17:18.904Z</time></trkpt><trkpt lat="42.8048161" lon="-3.7721615"><ele>675.0</ele><time>2026-05-02T16:17:19.905Z</time></trkpt><trkpt lat="42.8047136" lon="-3.7719436"><ele>678.3333333333334</ele><time>2026-05-02T16:17:20.907Z</time></trkpt><trkpt lat="42.8046102" lon="-3.7717309"><ele>681.6666666666667</ele><time>2026-05-02T16:17:21.904Z</time></trkpt><trkpt lat="42.804505" lon="-3.7715143"><ele>685.0</ele><time>2026-05-02T16:17:22.903Z</time></trkpt><trkpt lat="42.8044028" lon="-3.7713028"><ele>680.0</ele><time>2026-05-02T16:17:23.905Z</time></trkpt><trkpt lat="42.8042942" lon="-3.7710978"><ele>675.0</ele><time>2026-05-02T16:17:24.909Z</time></trkpt><trkpt lat="42.8041803" lon="-3.7708983"><ele>670.0</ele><time>2026-05-02T16:17:25.914Z</time></trkpt><trkpt lat="42.8040469" lon="-3.7707089"><ele>670.0</ele><time>2026-05-02T16:17:26.904Z</time></trkpt><trkpt lat="42.8039077" lon="-3.7705351"><ele>670.0</ele><time>2026-05-02T16:17:27.905Z</time></trkpt><trkpt lat="42.8037642" lon="-3.7703748"><ele>670.0</ele><time>2026-05-02T16:17:28.906Z</time></trkpt><trkpt lat="42.8036223" lon="-3.7702154"><ele>669.6666666666667</ele><time>2026-05-02T16:17:29.914Z</time></trkpt><trkpt lat="42.8034752" lon="-3.7700617"><ele>669.3333333333334</ele><time>2026-05-02T16:17:30.929Z</time></trkpt><trkpt lat="42.8033321" lon="-3.769912"><ele>669.0</ele><time>2026-05-02T16:17:31.905Z</time></trkpt><trkpt lat="42.8031875" lon="-3.7697578"><ele>669.0</ele><time>2026-05-02T16:17:32.9Z</time></trkpt><trkpt lat="42.8030327" lon="-3.7696151"><ele>669.0</ele><time>2026-05-02T16:17:33.901Z</time></trkpt><trkpt lat="42.8028826" lon="-3.7694743"><ele>669.0</ele><time>2026-05-02T16:17:34.902Z</time></trkpt><trkpt lat="42.8027437" lon="-3.7693507"><ele>669.75</ele><time>2026-05-02T16:17:35.9Z</time></trkpt><trkpt lat="42.8026335" lon="-3.769236"><ele>670.5</ele><time>2026-05-02T16:17:36.901Z</time></trkpt><trkpt lat="42.8025338" lon="-3.7691309"><ele>671.25</ele><time>2026-05-02T16:17:37.905Z</time></trkpt><trkpt lat="42.8024468" lon="-3.7690452"><ele>672.0</ele><time>2026-05-02T16:17:38.902Z</time></trkpt><trkpt lat="42.8023645" lon="-3.7689732"><ele>672.0</ele><time>2026-05-02T16:17:39.904Z</time></trkpt><trkpt lat="42.8022928" lon="-3.7689063"><ele>672.0</ele><time>2026-05-02T16:17:40.894Z</time></trkpt><trkpt lat="42.8022316" lon="-3.7688623"><ele>672.0</ele><time>2026-05-02T16:17:41.893Z</time></trkpt><trkpt lat="42.8021197" lon="-3.7688163"><ele>672.0</ele><time>2026-05-02T16:17:43.897Z</time></trkpt><trkpt lat="42.8020235" lon="-3.76879"><ele>672.0</ele><time>2026-05-02T16:17:45.901Z</time></trkpt><trkpt lat="42.8019297" lon="-3.7687481"><ele>672.0</ele><time>2026-05-02T16:17:47.898Z</time></trkpt><trkpt lat="42.8018496" lon="-3.7686968"><ele>672.0</ele><time>2026-05-02T16:17:49.91Z</time></trkpt><trkpt lat="42.8017934" lon="-3.7686389"><ele>672.0</ele><time>2026-05-02T16:17:52.904Z</time></trkpt><trkpt lat="42.8017536" lon="-3.7685699"><ele>672.0</ele><time>2026-05-02T16:24:23.904Z</time></trkpt><trkpt lat="42.8017023" lon="-3.7685018"><ele>672.0</ele><time>2026-05-02T16:24:26.899Z</time></trkpt><trkpt lat="42.8017004" lon="-3.7684"><ele>672.0</ele><time>2026-05-02T16:27:24.901Z</time></trkpt><trkpt lat="42.8016445" lon="-3.7683253"><ele>672.0</ele><time>2026-05-02T16:27:27.902Z</time></trkpt><trkpt lat="42.8015358" lon="-3.7682527"><ele>672.2</ele><time>2026-05-02T16:27:29.897Z</time></trkpt><trkpt lat="42.8014695" lon="-3.7682585"><ele>672.4000000000001</ele><time>2026-05-02T16:27:30.907Z</time></trkpt><trkpt lat="42.8013979" lon="-3.7683085"><ele>672.5999999999999</ele><time>2026-05-02T16:27:31.9Z</time></trkpt><trkpt lat="42.8013344" lon="-3.7684055"><ele>672.8</ele><time>2026-05-02T16:27:32.901Z</time></trkpt><trkpt lat="42.8012836" lon="-3.7685416"><ele>673.0</ele><time>2026-05-02T16:27:33.893Z</time></trkpt><trkpt lat="42.8012459" lon="-3.768679"><ele>670.0</ele><time>2026-05-02T16:27:34.892Z</time></trkpt><trkpt lat="42.801204" lon="-3.7688313"><ele>667.0</ele><time>2026-05-02T16:27:35.893Z</time></trkpt><trkpt lat="42.801158" lon="-3.7689819"><ele>664.0</ele><time>2026-05-02T16:27:36.894Z</time></trkpt><trkpt lat="42.8011086" lon="-3.7691318"><ele>661.0</ele><time>2026-05-02T16:27:37.898Z</time></trkpt><trkpt lat="42.8010611" lon="-3.769273"><ele>661.4</ele><time>2026-05-02T16:27:38.897Z</time></trkpt><trkpt lat="42.8010087" lon="-3.769403"><ele>661.8</ele><time>2026-05-02T16:27:39.892Z</time></trkpt><trkpt lat="42.8009461" lon="-3.7695185"><ele>662.1999999999999</ele><time>2026-05-02T16:27:40.902Z</time></trkpt><trkpt lat="42.800859" lon="-3.7696053"><ele>662.5999999999999</ele><time>2026-05-02T16:27:41.9Z</time></trkpt><trkpt lat="42.8007615" lon="-3.7696741"><ele>663.0</ele><time>2026-05-02T16:27:42.892Z</time></trkpt><trkpt lat="42.8006517" lon="-3.7697212"><ele>663.25</ele><time>2026-05-02T16:27:43.906Z</time></trkpt><trkpt lat="42.8005269" lon="-3.7697565"><ele>663.5</ele><time>2026-05-02T16:27:44.897Z</time></trkpt><trkpt lat="42.8003913" lon="-3.7697717"><ele>663.75</ele><time>2026-05-02T16:27:45.898Z</time></trkpt><trkpt lat="42.8002453" lon="-3.7697693"><ele>664.0</ele><time>2026-05-02T16:27:46.89Z</time></trkpt><trkpt lat="42.8000898" lon="-3.7697568"><ele>664.0</ele><time>2026-05-02T16:27:47.896Z</time></trkpt><trkpt lat="42.7999179" lon="-3.7697278"><ele>664.0</ele><time>2026-05-02T16:27:48.888Z</time></trkpt><trkpt lat="42.7997388" lon="-3.7697167"><ele>664.0</ele><time>2026-05-02T16:27:49.899Z</time></trkpt><trkpt lat="42.7995534" lon="-3.7697177"><ele>664.0</ele><time>2026-05-02T16:27:50.898Z</time></trkpt><trkpt lat="42.7993674" lon="-3.7697204"><ele>664.0</ele><time>2026-05-02T16:27:51.9Z</time></trkpt><trkpt lat="42.7991989" lon="-3.7697186"><ele>664.0</ele><time>2026-05-02T16:27:52.899Z</time></trkpt><trkpt lat="42.7990382" lon="-3.7697196"><ele>664.5</ele><time>2026-05-02T16:27:53.899Z</time></trkpt><trkpt lat="42.7988821" lon="-3.7697114"><ele>665.0</ele><time>2026-05-02T16:27:54.896Z</time></trkpt><trkpt lat="42.7987354" lon="-3.7697014"><ele>665.5</ele><time>2026-05-02T16:27:55.896Z</time></trkpt><trkpt lat="42.7985931" lon="-3.769714"><ele>666.0</ele><time>2026-05-02T16:27:56.894Z</time></trkpt><trkpt lat="42.7984536" lon="-3.7697726"><ele>666.0</ele><time>2026-05-02T16:27:57.898Z</time></trkpt><trkpt lat="42.7983238" lon="-3.7698699"><ele>666.0</ele><time>2026-05-02T16:27:58.897Z</time></trkpt><trkpt lat="42.7982042" lon="-3.7699825"><ele>666.0</ele><time>2026-05-02T16:27:59.893Z</time></trkpt><trkpt lat="42.7980819" lon="-3.770086"><ele>666.0</ele><time>2026-05-02T16:28:00.898Z</time></trkpt><trkpt lat="42.7979655" lon="-3.7701927"><ele>667.0</ele><time>2026-05-02T16:28:01.898Z</time></trkpt><trkpt lat="42.7978486" lon="-3.7702992"><ele>668.0</ele><time>2026-05-02T16:28:02.898Z</time></trkpt><trkpt lat="42.7977246" lon="-3.7704035"><ele>669.0</ele><time>2026-05-02T16:28:03.897Z</time></trkpt><trkpt lat="42.7975947" lon="-3.770512"><ele>670.0</ele><time>2026-05-02T16:28:04.896Z</time></trkpt><trkpt lat="42.797459" lon="-3.7706285"><ele>670.0</ele><time>2026-05-02T16:28:05.895Z</time></trkpt><trkpt lat="42.7973206" lon="-3.7707446"><ele>670.0</ele><time>2026-05-02T16:28:06.896Z</time></trkpt><trkpt lat="42.7971799" lon="-3.770857"><ele>670.0</ele><time>2026-05-02T16:28:07.895Z</time></trkpt><trkpt lat="42.797041" lon="-3.7709704"><ele>670.0</ele><time>2026-05-02T16:28:08.898Z</time></trkpt><trkpt lat="42.7969008" lon="-3.7710892"><ele>670.0</ele><time>2026-05-02T16:28:09.896Z</time></trkpt><trkpt lat="42.7967636" lon="-3.7712158"><ele>670.0</ele><time>2026-05-02T16:28:10.898Z</time></trkpt><trkpt lat="42.7966183" lon="-3.7713398"><ele>670.0</ele><time>2026-05-02T16:28:11.899Z</time></trkpt><trkpt lat="42.7964704" lon="-3.7714593"><ele>670.0</ele><time>2026-05-02T16:28:12.895Z</time></trkpt><trkpt lat="42.7963201" lon="-3.7715774"><ele>670.0</ele><time>2026-05-02T16:28:13.895Z</time></trkpt><trkpt lat="42.7961768" lon="-3.7717012"><ele>670.0</ele><time>2026-05-02T16:28:14.906Z</time></trkpt><trkpt lat="42.7960248" lon="-3.7718294"><ele>670.0</ele><time>2026-05-02T16:28:15.896Z</time></trkpt><trkpt lat="42.7958715" lon="-3.7719549"><ele>670.0</ele><time>2026-05-02T16:28:16.895Z</time></trkpt><trkpt lat="42.7957234" lon="-3.7720833"><ele>670.0</ele><time>2026-05-02T16:28:17.896Z</time></trkpt><trkpt lat="42.7955697" lon="-3.7722118"><ele>670.0</ele><time>2026-05-02T16:28:18.897Z</time></trkpt><trkpt lat="42.7954185" lon="-3.7723264"><ele>670.0</ele><time>2026-05-02T16:28:19.897Z</time></trkpt><trkpt lat="42.7952735" lon="-3.7724278"><ele>667.3333333333334</ele><time>2026-05-02T16:28:20.898Z</time></trkpt><trkpt lat="42.7951201" lon="-3.7725125"><ele>664.6666666666666</ele><time>2026-05-02T16:28:21.895Z</time></trkpt><trkpt lat="42.7949684" lon="-3.7725793"><ele>662.0</ele><time>2026-05-02T16:28:22.893Z</time></trkpt><trkpt lat="42.7948052" lon="-3.7726305"><ele>662.0</ele><time>2026-05-02T16:28:23.892Z</time></trkpt><trkpt lat="42.7946474" lon="-3.7726518"><ele>662.0</ele><time>2026-05-02T16:28:24.894Z</time></trkpt><trkpt lat="42.7944774" lon="-3.7726453"><ele>662.0</ele><time>2026-05-02T16:28:25.888Z</time></trkpt><trkpt lat="42.7943147" lon="-3.7726083"><ele>663.6666666666666</ele><time>2026-05-02T16:28:26.891Z</time></trkpt><trkpt lat="42.7941566" lon="-3.7725421"><ele>665.3333333333334</ele><time>2026-05-02T16:28:27.889Z</time></trkpt><trkpt lat="42.7940035" lon="-3.7724608"><ele>667.0</ele><time>2026-05-02T16:28:28.887Z</time></trkpt><trkpt lat="42.7938555" lon="-3.7723671"><ele>667.0</ele><time>2026-05-02T16:28:29.892Z</time></trkpt><trkpt lat="42.793713" lon="-3.7722624"><ele>667.0</ele><time>2026-05-02T16:28:30.895Z</time></trkpt><trkpt lat="42.7935783" lon="-3.7721773"><ele>667.0</ele><time>2026-05-02T16:28:31.889Z</time></trkpt><trkpt lat="42.7934354" lon="-3.7720895"><ele>666.25</ele><time>2026-05-02T16:28:32.89Z</time></trkpt><trkpt lat="42.7932976" lon="-3.7720045"><ele>665.5</ele><time>2026-05-02T16:28:33.893Z</time></trkpt><trkpt lat="42.7931721" lon="-3.7719125"><ele>664.75</ele><time>2026-05-02T16:28:34.89Z</time></trkpt><trkpt lat="42.7930454" lon="-3.7718226"><ele>664.0</ele><time>2026-05-02T16:28:35.888Z</time></trkpt><trkpt lat="42.7929137" lon="-3.7717305"><ele>664.0</ele><time>2026-05-02T16:28:36.895Z</time></trkpt><trkpt lat="42.7927825" lon="-3.7716464"><ele>664.0</ele><time>2026-05-02T16:28:37.89Z</time></trkpt><trkpt lat="42.7926606" lon="-3.7715642"><ele>664.0</ele><time>2026-05-02T16:28:38.892Z</time></trkpt><trkpt lat="42.7925422" lon="-3.7714866"><ele>664.0</ele><time>2026-05-02T16:28:39.889Z</time></trkpt><trkpt lat="42.7924314" lon="-3.7713922"><ele>665.0</ele><time>2026-05-02T16:28:40.896Z</time></trkpt><trkpt lat="42.7923325" lon="-3.7712851"><ele>666.0</ele><time>2026-05-02T16:28:41.887Z</time></trkpt><trkpt lat="42.79224" lon="-3.7711582"><ele>667.0</ele><time>2026-05-02T16:28:42.885Z</time></trkpt><trkpt lat="42.7921544" lon="-3.7710255"><ele>668.0</ele><time>2026-05-02T16:28:43.887Z</time></trkpt><trkpt lat="42.7920841" lon="-3.7708754"><ele>668.0</ele><time>2026-05-02T16:28:44.885Z</time></trkpt><trkpt lat="42.7920203" lon="-3.7707207"><ele>668.0</ele><time>2026-05-02T16:28:45.897Z</time></trkpt><trkpt lat="42.7919469" lon="-3.7705693"><ele>668.0</ele><time>2026-05-02T16:28:46.887Z</time></trkpt><trkpt lat="42.7918887" lon="-3.7704194"><ele>668.0</ele><time>2026-05-02T16:28:47.888Z</time></trkpt><trkpt lat="42.7918363" lon="-3.7702607"><ele>672.25</ele><time>2026-05-02T16:28:48.885Z</time></trkpt><trkpt lat="42.7917773" lon="-3.7701047"><ele>676.5</ele><time>2026-05-02T16:28:49.89Z</time></trkpt><trkpt lat="42.7917167" lon="-3.7699446"><ele>680.75</ele><time>2026-05-02T16:28:50.881Z</time></trkpt><trkpt lat="42.7916604" lon="-3.7697808"><ele>685.0</ele><time>2026-05-02T16:28:51.892Z</time></trkpt><trkpt lat="42.7916047" lon="-3.7696158"><ele>685.0</ele><time>2026-05-02T16:28:52.893Z</time></trkpt><trkpt lat="42.7915449" lon="-3.7694561"><ele>685.0</ele><time>2026-05-02T16:28:53.894Z</time></trkpt><trkpt lat="42.7914825" lon="-3.7692947"><ele>685.0</ele><time>2026-05-02T16:28:54.89Z</time></trkpt><trkpt lat="42.7914166" lon="-3.7691347"><ele>685.0</ele><time>2026-05-02T16:28:55.891Z</time></trkpt><trkpt lat="42.7913546" lon="-3.7689678"><ele>681.0</ele><time>2026-05-02T16:28:56.889Z</time></trkpt><trkpt lat="42.7912936" lon="-3.7688008"><ele>677.0</ele><time>2026-05-02T16:28:57.896Z</time></trkpt><trkpt lat="42.791227" lon="-3.7686362"><ele>673.0</ele><time>2026-05-02T16:28:58.888Z</time></trkpt><trkpt lat="42.7911655" lon="-3.7684634"><ele>669.0</ele><time>2026-05-02T16:28:59.897Z</time></trkpt><trkpt lat="42.7910944" lon="-3.7683016"><ele>666.25</ele><time>2026-05-02T16:29:00.892Z</time></trkpt><trkpt lat="42.7910195" lon="-3.7681514"><ele>663.5</ele><time>2026-05-02T16:29:01.889Z</time></trkpt><trkpt lat="42.7909316" lon="-3.7680071"><ele>660.75</ele><time>2026-05-02T16:29:02.896Z</time></trkpt><trkpt lat="42.7908534" lon="-3.7678645"><ele>658.0</ele><time>2026-05-02T16:29:03.893Z</time></trkpt><trkpt lat="42.7907617" lon="-3.7677351"><ele>661.75</ele><time>2026-05-02T16:29:04.896Z</time></trkpt><trkpt lat="42.7906687" lon="-3.7676139"><ele>665.5</ele><time>2026-05-02T16:29:05.894Z</time></trkpt><trkpt lat="42.7905681" lon="-3.7674974"><ele>669.25</ele><time>2026-05-02T16:29:06.891Z</time></trkpt><trkpt lat="42.7904716" lon="-3.7673826"><ele>673.0</ele><time>2026-05-02T16:29:07.889Z</time></trkpt><trkpt lat="42.790376" lon="-3.767282"><ele>673.0</ele><time>2026-05-02T16:29:08.887Z</time></trkpt><trkpt lat="42.7902736" lon="-3.76718"><ele>673.0</ele><time>2026-05-02T16:29:09.889Z</time></trkpt><trkpt lat="42.7901711" lon="-3.767072"><ele>673.0</ele><time>2026-05-02T16:29:10.89Z</time></trkpt><trkpt lat="42.79007" lon="-3.7669687"><ele>673.0</ele><time>2026-05-02T16:29:11.888Z</time></trkpt><trkpt lat="42.7899728" lon="-3.7668714"><ele>675.25</ele><time>2026-05-02T16:29:12.887Z</time></trkpt><trkpt lat="42.7898721" lon="-3.7667721"><ele>677.5</ele><time>2026-05-02T16:29:13.889Z</time></trkpt><trkpt lat="42.7897667" lon="-3.7666753"><ele>679.75</ele><time>2026-05-02T16:29:14.895Z</time></trkpt><trkpt lat="42.7896635" lon="-3.7665794"><ele>682.0</ele><time>2026-05-02T16:29:15.89Z</time></trkpt><trkpt lat="42.7895594" lon="-3.7664805"><ele>682.0</ele><time>2026-05-02T16:29:16.902Z</time></trkpt><trkpt lat="42.7894512" lon="-3.7663868"><ele>682.0</ele><time>2026-05-02T16:29:17.892Z</time></trkpt><trkpt lat="42.7893367" lon="-3.7662912"><ele>682.0</ele><time>2026-05-02T16:29:18.89Z</time></trkpt><trkpt lat="42.7892225" lon="-3.766197"><ele>682.0</ele><time>2026-05-02T16:29:19.89Z</time></trkpt><trkpt lat="42.7891052" lon="-3.7661066"><ele>679.5</ele><time>2026-05-02T16:29:20.887Z</time></trkpt><trkpt lat="42.788985" lon="-3.766019"><ele>677.0</ele><time>2026-05-02T16:29:21.892Z</time></trkpt><trkpt lat="42.7888579" lon="-3.7659351"><ele>674.5</ele><time>2026-05-02T16:29:22.892Z</time></trkpt><trkpt lat="42.7887273" lon="-3.7658691"><ele>672.0</ele><time>2026-05-02T16:29:23.893Z</time></trkpt><trkpt lat="42.7885936" lon="-3.7658088"><ele>676.25</ele><time>2026-05-02T16:29:24.893Z</time></trkpt><trkpt lat="42.7884553" lon="-3.7657548"><ele>680.5</ele><time>2026-05-02T16:29:25.892Z</time></trkpt><trkpt lat="42.7883103" lon="-3.7657008"><ele>684.75</ele><time>2026-05-02T16:29:26.891Z</time></trkpt><trkpt lat="42.7881671" lon="-3.7656534"><ele>689.0</ele><time>2026-05-02T16:29:27.894Z</time></trkpt><trkpt lat="42.7880281" lon="-3.7656236"><ele>689.0</ele><time>2026-05-02T16:29:28.89Z</time></trkpt><trkpt lat="42.7878782" lon="-3.765598"><ele>689.0</ele><time>2026-05-02T16:29:29.892Z</time></trkpt><trkpt lat="42.7877278" lon="-3.7655865"><ele>689.0</ele><time>2026-05-02T16:29:30.892Z</time></trkpt><trkpt lat="42.7875811" lon="-3.7655912"><ele>689.0</ele><time>2026-05-02T16:29:31.887Z</time></trkpt><trkpt lat="42.7874444" lon="-3.7656071"><ele>690.5</ele><time>2026-05-02T16:29:32.891Z</time></trkpt><trkpt lat="42.7873009" lon="-3.765624"><ele>692.0</ele><time>2026-05-02T16:29:33.893Z</time></trkpt><trkpt lat="42.7871616" lon="-3.7656517"><ele>693.5</ele><time>2026-05-02T16:29:34.891Z</time></trkpt><trkpt lat="42.7870236" lon="-3.7656932"><ele>695.0</ele><time>2026-05-02T16:29:35.889Z</time></trkpt><trkpt lat="42.7868889" lon="-3.765745"><ele>693.25</ele><time>2026-05-02T16:29:36.885Z</time></trkpt><trkpt lat="42.7867486" lon="-3.765798"><ele>691.5</ele><time>2026-05-02T16:29:37.886Z</time></trkpt><trkpt lat="42.7866086" lon="-3.7658484"><ele>689.75</ele><time>2026-05-02T16:29:38.888Z</time></trkpt><trkpt lat="42.7864774" lon="-3.7659115"><ele>688.0</ele><time>2026-05-02T16:29:39.889Z</time></trkpt><trkpt lat="42.786346" lon="-3.7659803"><ele>690.5</ele><time>2026-05-02T16:29:40.889Z</time></trkpt><trkpt lat="42.7862132" lon="-3.7660605"><ele>693.0</ele><time>2026-05-02T16:29:41.888Z</time></trkpt><trkpt lat="42.7860833" lon="-3.7661346"><ele>695.5</ele><time>2026-05-02T16:29:42.888Z</time></trkpt><trkpt lat="42.7859508" lon="-3.7662006"><ele>698.0</ele><time>2026-05-02T16:29:43.892Z</time></trkpt><trkpt lat="42.7858331" lon="-3.7662785"><ele>698.0</ele><time>2026-05-02T16:29:44.893Z</time></trkpt><trkpt lat="42.7857109" lon="-3.7663499"><ele>698.0</ele><time>2026-05-02T16:29:45.876Z</time></trkpt><trkpt lat="42.7856071" lon="-3.7664269"><ele>698.0</ele><time>2026-05-02T16:29:46.897Z</time></trkpt><trkpt lat="42.785495" lon="-3.7665027"><ele>698.0</ele><time>2026-05-02T16:29:47.899Z</time></trkpt><trkpt lat="42.7853848" lon="-3.7665704"><ele>698.0</ele><time>2026-05-02T16:29:48.886Z</time></trkpt><trkpt lat="42.7852763" lon="-3.7666325"><ele>698.0</ele><time>2026-05-02T16:29:49.889Z</time></trkpt><trkpt lat="42.7851642" lon="-3.7666885"><ele>698.0</ele><time>2026-05-02T16:29:50.89Z</time></trkpt><trkpt lat="42.7850576" lon="-3.7667502"><ele>698.0</ele><time>2026-05-02T16:29:51.891Z</time></trkpt><trkpt lat="42.7849517" lon="-3.7668173"><ele>701.0</ele><time>2026-05-02T16:29:52.891Z</time></trkpt><trkpt lat="42.7848418" lon="-3.7668879"><ele>704.0</ele><time>2026-05-02T16:29:53.893Z</time></trkpt><trkpt lat="42.784721" lon="-3.7669634"><ele>707.0</ele><time>2026-05-02T16:29:54.891Z</time></trkpt><trkpt lat="42.7845943" lon="-3.7670442"><ele>710.0</ele><time>2026-05-02T16:29:55.887Z</time></trkpt><trkpt lat="42.7844566" lon="-3.7671187"><ele>705.0</ele><time>2026-05-02T16:29:56.887Z</time></trkpt><trkpt lat="42.7842913" lon="-3.767203"><ele>700.0</ele><time>2026-05-02T16:29:57.894Z</time></trkpt><trkpt lat="42.784127" lon="-3.7672748"><ele>695.0</ele><time>2026-05-02T16:29:58.884Z</time></trkpt><trkpt lat="42.7839537" lon="-3.7673342"><ele>695.0</ele><time>2026-05-02T16:29:59.884Z</time></trkpt><trkpt lat="42.7837578" lon="-3.7673835"><ele>695.0</ele><time>2026-05-02T16:30:00.89Z</time></trkpt><trkpt lat="42.7835685" lon="-3.7674239"><ele>695.0</ele><time>2026-05-02T16:30:01.887Z</time></trkpt><trkpt lat="42.783404" lon="-3.767456"><ele>694.0</ele><time>2026-05-02T16:30:02.892Z</time></trkpt><trkpt lat="42.7832534" lon="-3.7674857"><ele>693.0</ele><time>2026-05-02T16:30:03.89Z</time></trkpt><trkpt lat="42.7831153" lon="-3.7675129"><ele>692.0</ele><time>2026-05-02T16:30:04.894Z</time></trkpt><trkpt lat="42.7829853" lon="-3.7675348"><ele>691.0</ele><time>2026-05-02T16:30:05.892Z</time></trkpt><trkpt lat="42.7828677" lon="-3.7675486"><ele>691.0</ele><time>2026-05-02T16:30:06.89Z</time></trkpt><trkpt lat="42.7827467" lon="-3.7675528"><ele>691.0</ele><time>2026-05-02T16:30:07.891Z</time></trkpt><trkpt lat="42.7826279" lon="-3.7675472"><ele>691.0</ele><time>2026-05-02T16:30:08.891Z</time></trkpt><trkpt lat="42.7825106" lon="-3.7675251"><ele>691.0</ele><time>2026-05-02T16:30:09.89Z</time></trkpt><trkpt lat="42.7823972" lon="-3.7674835"><ele>691.0</ele><time>2026-05-02T16:30:10.89Z</time></trkpt><trkpt lat="42.7822828" lon="-3.7674185"><ele>691.0</ele><time>2026-05-02T16:30:11.891Z</time></trkpt><trkpt lat="42.7821738" lon="-3.7673481"><ele>691.0</ele><time>2026-05-02T16:30:12.893Z</time></trkpt><trkpt lat="42.7820701" lon="-3.7672689"><ele>691.0</ele><time>2026-05-02T16:30:13.897Z</time></trkpt><trkpt lat="42.7819653" lon="-3.7671757"><ele>691.0</ele><time>2026-05-02T16:30:14.89Z</time></trkpt><trkpt lat="42.781864" lon="-3.7670712"><ele>691.0</ele><time>2026-05-02T16:30:15.893Z</time></trkpt><trkpt lat="42.7817709" lon="-3.7669493"><ele>691.0</ele><time>2026-05-02T16:30:16.891Z</time></trkpt><trkpt lat="42.78168" lon="-3.7668167"><ele>691.0</ele><time>2026-05-02T16:30:17.889Z</time></trkpt><trkpt lat="42.7815882" lon="-3.7666821"><ele>690.75</ele><time>2026-05-02T16:30:18.918Z</time></trkpt><trkpt lat="42.7814987" lon="-3.7665441"><ele>690.5</ele><time>2026-05-02T16:30:19.895Z</time></trkpt><trkpt lat="42.7814093" lon="-3.7664052"><ele>690.25</ele><time>2026-05-02T16:30:20.893Z</time></trkpt><trkpt lat="42.7813083" lon="-3.7662737"><ele>690.0</ele><time>2026-05-02T16:30:21.889Z</time></trkpt><trkpt lat="42.7812063" lon="-3.7661398"><ele>691.5</ele><time>2026-05-02T16:30:22.891Z</time></trkpt><trkpt lat="42.7810926" lon="-3.7660239"><ele>693.0</ele><time>2026-05-02T16:30:23.893Z</time></trkpt><trkpt lat="42.7809642" lon="-3.7659305"><ele>694.5</ele><time>2026-05-02T16:30:24.89Z</time></trkpt><trkpt lat="42.7808225" lon="-3.7658676"><ele>696.0</ele><time>2026-05-02T16:30:25.892Z</time></trkpt><trkpt lat="42.7806623" lon="-3.7658365"><ele>696.0</ele><time>2026-05-02T16:30:26.892Z</time></trkpt><trkpt lat="42.7805036" lon="-3.7658298"><ele>696.0</ele><time>2026-05-02T16:30:27.895Z</time></trkpt><trkpt lat="42.7803499" lon="-3.765846"><ele>696.0</ele><time>2026-05-02T16:30:28.892Z</time></trkpt><trkpt lat="42.7802028" lon="-3.7658957"><ele>697.0</ele><time>2026-05-02T16:30:29.895Z</time></trkpt><trkpt lat="42.780051" lon="-3.7659634"><ele>698.0</ele><time>2026-05-02T16:30:30.9Z</time></trkpt><trkpt lat="42.7799015" lon="-3.7660582"><ele>699.0</ele><time>2026-05-02T16:30:31.896Z</time></trkpt><trkpt lat="42.7797787" lon="-3.7661895"><ele>705.3333333333334</ele><time>2026-05-02T16:30:32.888Z</time></trkpt><trkpt lat="42.779674" lon="-3.7663382"><ele>711.6666666666667</ele><time>2026-05-02T16:30:33.888Z</time></trkpt><trkpt lat="42.7795749" lon="-3.766511"><ele>718.0</ele><time>2026-05-02T16:30:34.89Z</time></trkpt><trkpt lat="42.7794918" lon="-3.7666832"><ele>718.0</ele><time>2026-05-02T16:30:35.885Z</time></trkpt><trkpt lat="42.7794201" lon="-3.7668575"><ele>718.0</ele><time>2026-05-02T16:30:36.887Z</time></trkpt><trkpt lat="42.7793538" lon="-3.7670265"><ele>718.0</ele><time>2026-05-02T16:30:37.888Z</time></trkpt><trkpt lat="42.7792912" lon="-3.7671911"><ele>718.0</ele><time>2026-05-02T16:30:38.893Z</time></trkpt><trkpt lat="42.7792367" lon="-3.7673454"><ele>717.25</ele><time>2026-05-02T16:30:39.886Z</time></trkpt><trkpt lat="42.7791778" lon="-3.7674987"><ele>716.5</ele><time>2026-05-02T16:30:40.887Z</time></trkpt><trkpt lat="42.7791184" lon="-3.7676525"><ele>715.75</ele><time>2026-05-02T16:30:41.887Z</time></trkpt><trkpt lat="42.7790653" lon="-3.767805"><ele>715.0</ele><time>2026-05-02T16:30:42.888Z</time></trkpt><trkpt lat="42.7790058" lon="-3.7679549"><ele>715.0</ele><time>2026-05-02T16:30:43.89Z</time></trkpt><trkpt lat="42.7789568" lon="-3.7681016"><ele>715.0</ele><time>2026-05-02T16:30:44.89Z</time></trkpt><trkpt lat="42.7789043" lon="-3.7682491"><ele>715.0</ele><time>2026-05-02T16:30:45.89Z</time></trkpt><trkpt lat="42.7788499" lon="-3.7683957"><ele>715.0</ele><time>2026-05-02T16:30:46.888Z</time></trkpt><trkpt lat="42.7787997" lon="-3.7685423"><ele>720.25</ele><time>2026-05-02T16:30:47.89Z</time></trkpt><trkpt lat="42.7787491" lon="-3.7686849"><ele>725.5</ele><time>2026-05-02T16:30:48.902Z</time></trkpt><trkpt lat="42.778697" lon="-3.7688243"><ele>730.75</ele><time>2026-05-02T16:30:49.893Z</time></trkpt><trkpt lat="42.7786412" lon="-3.7689656"><ele>736.0</ele><time>2026-05-02T16:30:50.889Z</time></trkpt><trkpt lat="42.7785885" lon="-3.7691012"><ele>736.0</ele><time>2026-05-02T16:30:51.891Z</time></trkpt><trkpt lat="42.7785314" lon="-3.7692324"><ele>736.0</ele><time>2026-05-02T16:30:52.887Z</time></trkpt><trkpt lat="42.7784695" lon="-3.7693589"><ele>736.0</ele><time>2026-05-02T16:30:53.891Z</time></trkpt><trkpt lat="42.7784015" lon="-3.7694792"><ele>736.0</ele><time>2026-05-02T16:30:54.89Z</time></trkpt><trkpt lat="42.7783324" lon="-3.7695992"><ele>736.0</ele><time>2026-05-02T16:30:55.892Z</time></trkpt><trkpt lat="42.7782547" lon="-3.7697147"><ele>732.0</ele><time>2026-05-02T16:30:56.894Z</time></trkpt><trkpt lat="42.7781753" lon="-3.7698261"><ele>728.0</ele><time>2026-05-02T16:30:57.893Z</time></trkpt><trkpt lat="42.7780968" lon="-3.7699348"><ele>724.0</ele><time>2026-05-02T16:30:58.89Z</time></trkpt><trkpt lat="42.7780162" lon="-3.7700455"><ele>720.0</ele><time>2026-05-02T16:30:59.888Z</time></trkpt><trkpt lat="42.7779284" lon="-3.7701461"><ele>723.0</ele><time>2026-05-02T16:31:00.894Z</time></trkpt><trkpt lat="42.7778382" lon="-3.7702365"><ele>726.0</ele><time>2026-05-02T16:31:01.889Z</time></trkpt><trkpt lat="42.7777411" lon="-3.7703183"><ele>729.0</ele><time>2026-05-02T16:31:02.887Z</time></trkpt><trkpt lat="42.7776416" lon="-3.7703968"><ele>732.0</ele><time>2026-05-02T16:31:03.89Z</time></trkpt><trkpt lat="42.777537" lon="-3.7704639"><ele>732.0</ele><time>2026-05-02T16:31:04.888Z</time></trkpt><trkpt lat="42.7773197" lon="-3.7705865"><ele>732.0</ele><time>2026-05-02T16:31:06.891Z</time></trkpt><trkpt lat="42.7772094" lon="-3.7706428"><ele>732.0</ele><time>2026-05-02T16:31:07.894Z</time></trkpt><trkpt lat="42.7770976" lon="-3.7706982"><ele>732.0</ele><time>2026-05-02T16:31:08.892Z</time></trkpt><trkpt lat="42.7769847" lon="-3.7707532"><ele>732.0</ele><time>2026-05-02T16:31:09.892Z</time></trkpt><trkpt lat="42.7768707" lon="-3.7708087"><ele>732.0</ele><time>2026-05-02T16:31:10.889Z</time></trkpt><trkpt lat="42.7767573" lon="-3.7708599"><ele>732.0</ele><time>2026-05-02T16:31:11.886Z</time></trkpt><trkpt lat="42.7766429" lon="-3.7709098"><ele>736.25</ele><time>2026-05-02T16:31:12.893Z</time></trkpt><trkpt lat="42.7765281" lon="-3.7709652"><ele>740.5</ele><time>2026-05-02T16:31:13.892Z</time></trkpt><trkpt lat="42.7764151" lon="-3.7710246"><ele>744.75</ele><time>2026-05-02T16:31:14.896Z</time></trkpt><trkpt lat="42.7763026" lon="-3.7710824"><ele>749.0</ele><time>2026-05-02T16:31:15.896Z</time></trkpt><trkpt lat="42.7761899" lon="-3.7711377"><ele>749.0</ele><time>2026-05-02T16:31:16.895Z</time></trkpt><trkpt lat="42.7760784" lon="-3.771194"><ele>749.0</ele><time>2026-05-02T16:31:17.898Z</time></trkpt><trkpt lat="42.7759653" lon="-3.7712507"><ele>749.0</ele><time>2026-05-02T16:31:18.893Z</time></trkpt><trkpt lat="42.7758516" lon="-3.7713119"><ele>749.0</ele><time>2026-05-02T16:31:19.908Z</time></trkpt><trkpt lat="42.7757362" lon="-3.7713693"><ele>744.25</ele><time>2026-05-02T16:31:20.896Z</time></trkpt><trkpt lat="42.7756223" lon="-3.7714273"><ele>739.5</ele><time>2026-05-02T16:31:21.897Z</time></trkpt><trkpt lat="42.7755087" lon="-3.7714853"><ele>734.75</ele><time>2026-05-02T16:31:22.898Z</time></trkpt><trkpt lat="42.7753927" lon="-3.7715473"><ele>730.0</ele><time>2026-05-02T16:31:23.899Z</time></trkpt><trkpt lat="42.7752841" lon="-3.7716182"><ele>731.25</ele><time>2026-05-02T16:31:24.898Z</time></trkpt><trkpt lat="42.7751749" lon="-3.7716905"><ele>732.5</ele><time>2026-05-02T16:31:25.904Z</time></trkpt><trkpt lat="42.7750688" lon="-3.7717712"><ele>733.75</ele><time>2026-05-02T16:31:26.898Z</time></trkpt><trkpt lat="42.7749671" lon="-3.7718652"><ele>735.0</ele><time>2026-05-02T16:31:27.902Z</time></trkpt><trkpt lat="42.7748681" lon="-3.771964"><ele>735.0</ele><time>2026-05-02T16:31:28.897Z</time></trkpt><trkpt lat="42.774768" lon="-3.7720713"><ele>735.0</ele><time>2026-05-02T16:31:29.906Z</time></trkpt><trkpt lat="42.7746728" lon="-3.7721871"><ele>735.0</ele><time>2026-05-02T16:31:30.911Z</time></trkpt><trkpt lat="42.7745884" lon="-3.7723141"><ele>735.0</ele><time>2026-05-02T16:31:31.897Z</time></trkpt><trkpt lat="42.7745101" lon="-3.772446"><ele>735.0</ele><time>2026-05-02T16:31:32.897Z</time></trkpt><trkpt lat="42.7744356" lon="-3.7725898"><ele>735.0</ele><time>2026-05-02T16:31:33.896Z</time></trkpt><trkpt lat="42.774365" lon="-3.7727383"><ele>735.0</ele><time>2026-05-02T16:31:34.903Z</time></trkpt><trkpt lat="42.7742984" lon="-3.7728941"><ele>735.0</ele><time>2026-05-02T16:31:35.894Z</time></trkpt><trkpt lat="42.774237" lon="-3.7730611"><ele>733.0</ele><time>2026-05-02T16:31:36.903Z</time></trkpt><trkpt lat="42.7741797" lon="-3.7732316"><ele>731.0</ele><time>2026-05-02T16:31:37.9Z</time></trkpt><trkpt lat="42.7741317" lon="-3.7734062"><ele>729.0</ele><time>2026-05-02T16:31:38.899Z</time></trkpt><trkpt lat="42.7741015" lon="-3.7735967"><ele>727.0</ele><time>2026-05-02T16:31:39.898Z</time></trkpt><trkpt lat="42.7740815" lon="-3.7737925"><ele>726.3333333333334</ele><time>2026-05-02T16:31:40.903Z</time></trkpt><trkpt lat="42.7740675" lon="-3.7739872"><ele>725.6666666666666</ele><time>2026-05-02T16:31:41.903Z</time></trkpt><trkpt lat="42.7740494" lon="-3.7741976"><ele>725.0</ele><time>2026-05-02T16:31:42.903Z</time></trkpt><trkpt lat="42.7740368" lon="-3.7744027"><ele>724.6666666666666</ele><time>2026-05-02T16:31:43.9Z</time></trkpt><trkpt lat="42.774035" lon="-3.7746049"><ele>724.3333333333334</ele><time>2026-05-02T16:31:44.901Z</time></trkpt><trkpt lat="42.7740347" lon="-3.7748113"><ele>724.0</ele><time>2026-05-02T16:31:45.906Z</time></trkpt><trkpt lat="42.7740386" lon="-3.7750153"><ele>724.75</ele><time>2026-05-02T16:31:46.908Z</time></trkpt><trkpt lat="42.7740461" lon="-3.7752111"><ele>725.5</ele><time>2026-05-02T16:31:47.908Z</time></trkpt><trkpt lat="42.7740471" lon="-3.7754035"><ele>726.25</ele><time>2026-05-02T16:31:48.904Z</time></trkpt><trkpt lat="42.7740428" lon="-3.7755991"><ele>727.0</ele><time>2026-05-02T16:31:49.905Z</time></trkpt><trkpt lat="42.7740458" lon="-3.7757973"><ele>727.0</ele><time>2026-05-02T16:31:50.917Z</time></trkpt><trkpt lat="42.7740471" lon="-3.7759976"><ele>727.0</ele><time>2026-05-02T16:31:51.897Z</time></trkpt><trkpt lat="42.7740511" lon="-3.7761939"><ele>727.0</ele><time>2026-05-02T16:31:52.897Z</time></trkpt><trkpt lat="42.7740488" lon="-3.7763914"><ele>727.0</ele><time>2026-05-02T16:31:53.9Z</time></trkpt><trkpt lat="42.7740458" lon="-3.776589"><ele>727.75</ele><time>2026-05-02T16:31:54.898Z</time></trkpt><trkpt lat="42.7740439" lon="-3.7767925"><ele>728.5</ele><time>2026-05-02T16:31:55.895Z</time></trkpt><trkpt lat="42.7740474" lon="-3.7769881"><ele>729.25</ele><time>2026-05-02T16:31:56.893Z</time></trkpt><trkpt lat="42.7740519" lon="-3.7771751"><ele>730.0</ele><time>2026-05-02T16:31:57.903Z</time></trkpt><trkpt lat="42.7740504" lon="-3.7773592"><ele>730.5</ele><time>2026-05-02T16:31:58.898Z</time></trkpt><trkpt lat="42.774041" lon="-3.7775474"><ele>731.0</ele><time>2026-05-02T16:31:59.897Z</time></trkpt><trkpt lat="42.774029" lon="-3.777737"><ele>731.5</ele><time>2026-05-02T16:32:00.901Z</time></trkpt><trkpt lat="42.7739981" lon="-3.7779196"><ele>732.0</ele><time>2026-05-02T16:32:01.893Z</time></trkpt><trkpt lat="42.7739511" lon="-3.7781024"><ele>733.0</ele><time>2026-05-02T16:32:02.893Z</time></trkpt><trkpt lat="42.7738916" lon="-3.778274"><ele>734.0</ele><time>2026-05-02T16:32:03.89Z</time></trkpt><trkpt lat="42.7738157" lon="-3.778439"><ele>735.0</ele><time>2026-05-02T16:32:04.889Z</time></trkpt><trkpt lat="42.7737312" lon="-3.778604"><ele>736.0</ele><time>2026-05-02T16:32:05.891Z</time></trkpt><trkpt lat="42.7736346" lon="-3.7787464"><ele>733.75</ele><time>2026-05-02T16:32:06.888Z</time></trkpt><trkpt lat="42.7735205" lon="-3.7788785"><ele>731.5</ele><time>2026-05-02T16:32:07.894Z</time></trkpt><trkpt lat="42.7734034" lon="-3.778995"><ele>729.25</ele><time>2026-05-02T16:32:08.888Z</time></trkpt><trkpt lat="42.7732785" lon="-3.779104"><ele>727.0</ele><time>2026-05-02T16:32:09.893Z</time></trkpt><trkpt lat="42.7731508" lon="-3.7791913"><ele>727.0</ele><time>2026-05-02T16:32:10.891Z</time></trkpt><trkpt lat="42.7730179" lon="-3.7792742"><ele>727.0</ele><time>2026-05-02T16:32:11.89Z</time></trkpt><trkpt lat="42.7728812" lon="-3.7793551"><ele>727.0</ele><time>2026-05-02T16:32:12.892Z</time></trkpt><trkpt lat="42.7727455" lon="-3.7794332"><ele>727.0</ele><time>2026-05-02T16:32:13.893Z</time></trkpt><trkpt lat="42.7726083" lon="-3.7795176"><ele>727.0</ele><time>2026-05-02T16:32:14.893Z</time></trkpt><trkpt lat="42.77247" lon="-3.7796068"><ele>727.0</ele><time>2026-05-02T16:32:15.893Z</time></trkpt><trkpt lat="42.7723251" lon="-3.7797036"><ele>727.0</ele><time>2026-05-02T16:32:16.895Z</time></trkpt><trkpt lat="42.7721862" lon="-3.779793"><ele>727.0</ele><time>2026-05-02T16:32:17.894Z</time></trkpt><trkpt lat="42.7720531" lon="-3.7798919"><ele>727.0</ele><time>2026-05-02T16:32:18.899Z</time></trkpt><trkpt lat="42.7719253" lon="-3.7799971"><ele>727.0</ele><time>2026-05-02T16:32:19.895Z</time></trkpt><trkpt lat="42.7717971" lon="-3.7801125"><ele>726.75</ele><time>2026-05-02T16:32:20.896Z</time></trkpt><trkpt lat="42.77168" lon="-3.7802257"><ele>726.5</ele><time>2026-05-02T16:32:21.909Z</time></trkpt><trkpt lat="42.7715698" lon="-3.7803385"><ele>726.25</ele><time>2026-05-02T16:32:22.896Z</time></trkpt><trkpt lat="42.7714544" lon="-3.7804493"><ele>726.0</ele><time>2026-05-02T16:32:23.899Z</time></trkpt><trkpt lat="42.771338" lon="-3.7805652"><ele>726.0</ele><time>2026-05-02T16:32:24.898Z</time></trkpt><trkpt lat="42.7712245" lon="-3.7806867"><ele>726.0</ele><time>2026-05-02T16:32:25.898Z</time></trkpt><trkpt lat="42.7711137" lon="-3.7807995"><ele>726.0</ele><time>2026-05-02T16:32:26.896Z</time></trkpt><trkpt lat="42.7710066" lon="-3.7809108"><ele>726.0</ele><time>2026-05-02T16:32:27.895Z</time></trkpt><trkpt lat="42.7709023" lon="-3.7810289"><ele>727.5</ele><time>2026-05-02T16:32:28.892Z</time></trkpt><trkpt lat="42.7707944" lon="-3.7811461"><ele>729.0</ele><time>2026-05-02T16:32:29.9Z</time></trkpt><trkpt lat="42.770682" lon="-3.7812617"><ele>730.5</ele><time>2026-05-02T16:32:30.899Z</time></trkpt><trkpt lat="42.7705647" lon="-3.7813783"><ele>732.0</ele><time>2026-05-02T16:32:31.899Z</time></trkpt><trkpt lat="42.770457" lon="-3.7814923"><ele>732.0</ele><time>2026-05-02T16:32:32.897Z</time></trkpt><trkpt lat="42.7703503" lon="-3.7815995"><ele>732.0</ele><time>2026-05-02T16:32:33.899Z</time></trkpt><trkpt lat="42.7702349" lon="-3.7817028"><ele>732.0</ele><time>2026-05-02T16:32:34.901Z</time></trkpt><trkpt lat="42.7701159" lon="-3.7818033"><ele>732.0</ele><time>2026-05-02T16:32:35.902Z</time></trkpt><trkpt lat="42.7699917" lon="-3.7819037"><ele>730.5</ele><time>2026-05-02T16:32:36.896Z</time></trkpt><trkpt lat="42.7698704" lon="-3.7820068"><ele>729.0</ele><time>2026-05-02T16:32:37.898Z</time></trkpt><trkpt lat="42.7697543" lon="-3.7821112"><ele>727.5</ele><time>2026-05-02T16:32:38.9Z</time></trkpt><trkpt lat="42.7696318" lon="-3.7822211"><ele>726.0</ele><time>2026-05-02T16:32:39.897Z</time></trkpt><trkpt lat="42.7695029" lon="-3.7823248"><ele>726.0</ele><time>2026-05-02T16:32:40.899Z</time></trkpt><trkpt lat="42.7693722" lon="-3.7824293"><ele>726.0</ele><time>2026-05-02T16:32:41.897Z</time></trkpt><trkpt lat="42.7692488" lon="-3.7825308"><ele>726.0</ele><time>2026-05-02T16:32:42.9Z</time></trkpt><trkpt lat="42.7691257" lon="-3.7826363"><ele>726.0</ele><time>2026-05-02T16:32:43.901Z</time></trkpt><trkpt lat="42.7690108" lon="-3.7827378"><ele>727.25</ele><time>2026-05-02T16:32:44.898Z</time></trkpt><trkpt lat="42.7688917" lon="-3.7828433"><ele>728.5</ele><time>2026-05-02T16:32:45.897Z</time></trkpt><trkpt lat="42.7687716" lon="-3.782947"><ele>729.75</ele><time>2026-05-02T16:32:46.906Z</time></trkpt><trkpt lat="42.7686513" lon="-3.7830449"><ele>731.0</ele><time>2026-05-02T16:32:47.905Z</time></trkpt><trkpt lat="42.768532" lon="-3.7831407"><ele>732.0</ele><time>2026-05-02T16:32:48.899Z</time></trkpt><trkpt lat="42.7684155" lon="-3.7832398"><ele>733.0</ele><time>2026-05-02T16:32:49.903Z</time></trkpt><trkpt lat="42.7683071" lon="-3.7833386"><ele>734.0</ele><time>2026-05-02T16:32:50.904Z</time></trkpt><trkpt lat="42.7681982" lon="-3.7834543"><ele>735.0</ele><time>2026-05-02T16:32:51.9Z</time></trkpt><trkpt lat="42.7681035" lon="-3.7835798"><ele>735.0</ele><time>2026-05-02T16:32:52.906Z</time></trkpt><trkpt lat="42.7680086" lon="-3.7837127"><ele>735.0</ele><time>2026-05-02T16:32:53.898Z</time></trkpt><trkpt lat="42.7679181" lon="-3.7838534"><ele>735.0</ele><time>2026-05-02T16:32:54.904Z</time></trkpt><trkpt lat="42.7678431" lon="-3.7840015"><ele>735.0</ele><time>2026-05-02T16:32:55.898Z</time></trkpt><trkpt lat="42.7677743" lon="-3.7841604"><ele>735.0</ele><time>2026-05-02T16:32:56.897Z</time></trkpt><trkpt lat="42.7677111" lon="-3.784319"><ele>735.0</ele><time>2026-05-02T16:32:57.899Z</time></trkpt><trkpt lat="42.7676487" lon="-3.7844892"><ele>735.0</ele><time>2026-05-02T16:32:58.902Z</time></trkpt><trkpt lat="42.7675946" lon="-3.7846632"><ele>735.0</ele><time>2026-05-02T16:32:59.903Z</time></trkpt><trkpt lat="42.7675351" lon="-3.7848451"><ele>732.0</ele><time>2026-05-02T16:33:00.905Z</time></trkpt><trkpt lat="42.767474" lon="-3.7850351"><ele>729.0</ele><time>2026-05-02T16:33:01.896Z</time></trkpt><trkpt lat="42.7674081" lon="-3.7852202"><ele>726.0</ele><time>2026-05-02T16:33:02.896Z</time></trkpt><trkpt lat="42.7673472" lon="-3.7854084"><ele>725.3333333333334</ele><time>2026-05-02T16:33:03.894Z</time></trkpt><trkpt lat="42.7672844" lon="-3.7856071"><ele>724.6666666666667</ele><time>2026-05-02T16:33:04.897Z</time></trkpt><trkpt lat="42.7672157" lon="-3.7858002"><ele>724.0</ele><time>2026-05-02T16:33:05.895Z</time></trkpt><trkpt lat="42.7671467" lon="-3.7859954"><ele>724.3333333333334</ele><time>2026-05-02T16:33:06.898Z</time></trkpt><trkpt lat="42.7670787" lon="-3.7861898"><ele>724.6666666666666</ele><time>2026-05-02T16:33:07.899Z</time></trkpt><trkpt lat="42.7670134" lon="-3.78638"><ele>725.0</ele><time>2026-05-02T16:33:08.898Z</time></trkpt><trkpt lat="42.7669512" lon="-3.7865768"><ele>725.0</ele><time>2026-05-02T16:33:09.908Z</time></trkpt><trkpt lat="42.7668832" lon="-3.7867719"><ele>725.0</ele><time>2026-05-02T16:33:10.908Z</time></trkpt><trkpt lat="42.7668183" lon="-3.7869588"><ele>725.0</ele><time>2026-05-02T16:33:11.914Z</time></trkpt><trkpt lat="42.7667591" lon="-3.7871406"><ele>721.25</ele><time>2026-05-02T16:33:12.911Z</time></trkpt><trkpt lat="42.7667023" lon="-3.7873173"><ele>717.5</ele><time>2026-05-02T16:33:13.91Z</time></trkpt><trkpt lat="42.7666452" lon="-3.7874938"><ele>713.75</ele><time>2026-05-02T16:33:14.911Z</time></trkpt><trkpt lat="42.7665875" lon="-3.7876708"><ele>710.0</ele><time>2026-05-02T16:33:15.915Z</time></trkpt><trkpt lat="42.7665248" lon="-3.7878543"><ele>710.0</ele><time>2026-05-02T16:33:16.91Z</time></trkpt><trkpt lat="42.7664657" lon="-3.7880349"><ele>710.0</ele><time>2026-05-02T16:33:17.919Z</time></trkpt><trkpt lat="42.7664026" lon="-3.7882181"><ele>710.0</ele><time>2026-05-02T16:33:18.915Z</time></trkpt><trkpt lat="42.7663482" lon="-3.7884012"><ele>710.0</ele><time>2026-05-02T16:33:19.919Z</time></trkpt><trkpt lat="42.7662838" lon="-3.7885867"><ele>712.6666666666666</ele><time>2026-05-02T16:33:20.904Z</time></trkpt><trkpt lat="42.7662162" lon="-3.7887813"><ele>715.3333333333334</ele><time>2026-05-02T16:33:21.908Z</time></trkpt><trkpt lat="42.7661433" lon="-3.7889759"><ele>718.0</ele><time>2026-05-02T16:33:22.904Z</time></trkpt><trkpt lat="42.7660641" lon="-3.7891732"><ele>717.0</ele><time>2026-05-02T16:33:23.919Z</time></trkpt><trkpt lat="42.7659875" lon="-3.7893652"><ele>716.0</ele><time>2026-05-02T16:33:24.907Z</time></trkpt><trkpt lat="42.765903" lon="-3.7895417"><ele>715.0</ele><time>2026-05-02T16:33:25.898Z</time></trkpt><trkpt lat="42.7658144" lon="-3.789719"><ele>715.0</ele><time>2026-05-02T16:33:26.896Z</time></trkpt><trkpt lat="42.7657188" lon="-3.7898834"><ele>715.0</ele><time>2026-05-02T16:33:27.89Z</time></trkpt><trkpt lat="42.7656174" lon="-3.7900483"><ele>715.0</ele><time>2026-05-02T16:33:28.893Z</time></trkpt><trkpt lat="42.7655124" lon="-3.7902069"><ele>719.0</ele><time>2026-05-02T16:33:29.889Z</time></trkpt><trkpt lat="42.7654053" lon="-3.790364"><ele>723.0</ele><time>2026-05-02T16:33:30.898Z</time></trkpt><trkpt lat="42.7653027" lon="-3.7905271"><ele>727.0</ele><time>2026-05-02T16:33:31.889Z</time></trkpt><trkpt lat="42.7651982" lon="-3.7906934"><ele>720.6666666666667</ele><time>2026-05-02T16:33:32.883Z</time></trkpt><trkpt lat="42.7650954" lon="-3.7908548"><ele>714.3333333333334</ele><time>2026-05-02T16:33:33.881Z</time></trkpt><trkpt lat="42.764999" lon="-3.7910295"><ele>708.0</ele><time>2026-05-02T16:33:34.879Z</time></trkpt><trkpt lat="42.7649179" lon="-3.7912054"><ele>708.0</ele><time>2026-05-02T16:33:35.884Z</time></trkpt><trkpt lat="42.7648312" lon="-3.7913961"><ele>708.0</ele><time>2026-05-02T16:33:36.882Z</time></trkpt><trkpt lat="42.7647574" lon="-3.7915868"><ele>708.0</ele><time>2026-05-02T16:33:37.881Z</time></trkpt><trkpt lat="42.7646922" lon="-3.7917732"><ele>712.0</ele><time>2026-05-02T16:33:38.887Z</time></trkpt><trkpt lat="42.7646299" lon="-3.7919627"><ele>716.0</ele><time>2026-05-02T16:33:39.888Z</time></trkpt><trkpt lat="42.764567" lon="-3.7921603"><ele>720.0</ele><time>2026-05-02T16:33:40.884Z</time></trkpt><trkpt lat="42.7645067" lon="-3.7923572"><ele>720.0</ele><time>2026-05-02T16:33:41.884Z</time></trkpt><trkpt lat="42.7644454" lon="-3.7925562"><ele>720.0</ele><time>2026-05-02T16:33:42.889Z</time></trkpt><trkpt lat="42.7643847" lon="-3.7927547"><ele>720.0</ele><time>2026-05-02T16:33:43.884Z</time></trkpt><trkpt lat="42.7643194" lon="-3.7929546"><ele>711.6666666666666</ele><time>2026-05-02T16:33:44.89Z</time></trkpt><trkpt lat="42.7642568" lon="-3.793163"><ele>703.3333333333333</ele><time>2026-05-02T16:33:45.885Z</time></trkpt><trkpt lat="42.7641976" lon="-3.7933755"><ele>695.0</ele><time>2026-05-02T16:33:46.884Z</time></trkpt><trkpt lat="42.7641338" lon="-3.7935885"><ele>695.0</ele><time>2026-05-02T16:33:47.885Z</time></trkpt><trkpt lat="42.764069" lon="-3.7938037"><ele>695.0</ele><time>2026-05-02T16:33:48.889Z</time></trkpt><trkpt lat="42.7640026" lon="-3.7940202"><ele>695.0</ele><time>2026-05-02T16:33:49.892Z</time></trkpt><trkpt lat="42.7639348" lon="-3.7942235"><ele>698.0</ele><time>2026-05-02T16:33:50.887Z</time></trkpt><trkpt lat="42.7638704" lon="-3.7944293"><ele>701.0</ele><time>2026-05-02T16:33:51.893Z</time></trkpt><trkpt lat="42.7638005" lon="-3.7946236"><ele>704.0</ele><time>2026-05-02T16:33:52.891Z</time></trkpt><trkpt lat="42.7637285" lon="-3.7948133"><ele>704.0</ele><time>2026-05-02T16:33:53.89Z</time></trkpt><trkpt lat="42.7636564" lon="-3.7949993"><ele>704.0</ele><time>2026-05-02T16:33:54.9Z</time></trkpt><trkpt lat="42.7635891" lon="-3.7951768"><ele>704.0</ele><time>2026-05-02T16:33:55.888Z</time></trkpt><trkpt lat="42.7635175" lon="-3.7953492"><ele>704.0</ele><time>2026-05-02T16:33:56.885Z</time></trkpt><trkpt lat="42.7634447" lon="-3.7955169"><ele>705.0</ele><time>2026-05-02T16:33:57.887Z</time></trkpt><trkpt lat="42.7633753" lon="-3.7956936"><ele>706.0</ele><time>2026-05-02T16:33:58.885Z</time></trkpt><trkpt lat="42.7633014" lon="-3.7958651"><ele>707.0</ele><time>2026-05-02T16:33:59.886Z</time></trkpt><trkpt lat="42.7632281" lon="-3.7960357"><ele>708.0</ele><time>2026-05-02T16:34:00.89Z</time></trkpt><trkpt lat="42.7631426" lon="-3.7961993"><ele>708.0</ele><time>2026-05-02T16:34:01.884Z</time></trkpt><trkpt lat="42.763046" lon="-3.7963512"><ele>708.0</ele><time>2026-05-02T16:34:02.883Z</time></trkpt><trkpt lat="42.7629394" lon="-3.7964907"><ele>708.0</ele><time>2026-05-02T16:34:03.885Z</time></trkpt><trkpt lat="42.7628208" lon="-3.7966164"><ele>708.0</ele><time>2026-05-02T16:34:04.883Z</time></trkpt><trkpt lat="42.7626903" lon="-3.7967145"><ele>708.25</ele><time>2026-05-02T16:34:05.882Z</time></trkpt><trkpt lat="42.7625613" lon="-3.7968107"><ele>708.5</ele><time>2026-05-02T16:34:06.886Z</time></trkpt><trkpt lat="42.7624246" lon="-3.7968746"><ele>708.75</ele><time>2026-05-02T16:34:07.892Z</time></trkpt><trkpt lat="42.762285" lon="-3.7969324"><ele>709.0</ele><time>2026-05-02T16:34:08.894Z</time></trkpt><trkpt lat="42.7621336" lon="-3.7969771"><ele>709.0</ele><time>2026-05-02T16:34:09.897Z</time></trkpt><trkpt lat="42.7619761" lon="-3.7970139"><ele>709.0</ele><time>2026-05-02T16:34:10.894Z</time></trkpt><trkpt lat="42.7618204" lon="-3.797047"><ele>709.0</ele><time>2026-05-02T16:34:11.896Z</time></trkpt><trkpt lat="42.7616665" lon="-3.7970964"><ele>702.3333333333334</ele><time>2026-05-02T16:34:12.896Z</time></trkpt><trkpt lat="42.7615214" lon="-3.7971568"><ele>695.6666666666666</ele><time>2026-05-02T16:34:13.9Z</time></trkpt><trkpt lat="42.7613817" lon="-3.7972421"><ele>689.0</ele><time>2026-05-02T16:34:14.896Z</time></trkpt><trkpt lat="42.7612392" lon="-3.7973467"><ele>689.0</ele><time>2026-05-02T16:34:15.896Z</time></trkpt><trkpt lat="42.7611065" lon="-3.7974475"><ele>689.0</ele><time>2026-05-02T16:34:16.897Z</time></trkpt><trkpt lat="42.7609722" lon="-3.7975468"><ele>689.0</ele><time>2026-05-02T16:34:17.902Z</time></trkpt><trkpt lat="42.7608409" lon="-3.7976478"><ele>688.0</ele><time>2026-05-02T16:34:18.888Z</time></trkpt><trkpt lat="42.7607089" lon="-3.7977543"><ele>687.0</ele><time>2026-05-02T16:34:19.905Z</time></trkpt><trkpt lat="42.7605836" lon="-3.7978653"><ele>686.0</ele><time>2026-05-02T16:34:20.893Z</time></trkpt><trkpt lat="42.7604605" lon="-3.7979725"><ele>685.0</ele><time>2026-05-02T16:34:21.896Z</time></trkpt><trkpt lat="42.7603388" lon="-3.7980789"><ele>685.0</ele><time>2026-05-02T16:34:22.892Z</time></trkpt><trkpt lat="42.7602198" lon="-3.7981827"><ele>685.0</ele><time>2026-05-02T16:34:23.896Z</time></trkpt><trkpt lat="42.7600961" lon="-3.7982857"><ele>685.0</ele><time>2026-05-02T16:34:24.895Z</time></trkpt><trkpt lat="42.7599751" lon="-3.7983942"><ele>685.0</ele><time>2026-05-02T16:34:25.907Z</time></trkpt><trkpt lat="42.7598507" lon="-3.7984997"><ele>687.0</ele><time>2026-05-02T16:34:26.894Z</time></trkpt><trkpt lat="42.7597228" lon="-3.798599"><ele>689.0</ele><time>2026-05-02T16:34:27.898Z</time></trkpt><trkpt lat="42.7595991" lon="-3.7986962"><ele>691.0</ele><time>2026-05-02T16:34:28.892Z</time></trkpt><trkpt lat="42.7594664" lon="-3.7987878"><ele>693.0</ele><time>2026-05-02T16:34:29.895Z</time></trkpt><trkpt lat="42.7593443" lon="-3.798888"><ele>693.0</ele><time>2026-05-02T16:34:30.897Z</time></trkpt><trkpt lat="42.7592259" lon="-3.7989939"><ele>693.0</ele><time>2026-05-02T16:34:31.895Z</time></trkpt><trkpt lat="42.759108" lon="-3.7991008"><ele>693.0</ele><time>2026-05-02T16:34:32.89Z</time></trkpt><trkpt lat="42.7589869" lon="-3.7992039"><ele>693.0</ele><time>2026-05-02T16:34:33.884Z</time></trkpt><trkpt lat="42.7588706" lon="-3.7992997"><ele>694.0</ele><time>2026-05-02T16:34:34.888Z</time></trkpt><trkpt lat="42.758753" lon="-3.7993991"><ele>695.0</ele><time>2026-05-02T16:34:35.885Z</time></trkpt><trkpt lat="42.7586423" lon="-3.7995"><ele>696.0</ele><time>2026-05-02T16:34:36.892Z</time></trkpt><trkpt lat="42.7585366" lon="-3.7996079"><ele>697.0</ele><time>2026-05-02T16:34:37.891Z</time></trkpt><trkpt lat="42.7584286" lon="-3.7997053"><ele>697.0</ele><time>2026-05-02T16:34:38.889Z</time></trkpt><trkpt lat="42.7583133" lon="-3.7998042"><ele>697.0</ele><time>2026-05-02T16:34:39.89Z</time></trkpt><trkpt lat="42.7582013" lon="-3.7999043"><ele>697.0</ele><time>2026-05-02T16:34:40.887Z</time></trkpt><trkpt lat="42.7580872" lon="-3.7999953"><ele>697.0</ele><time>2026-05-02T16:34:41.894Z</time></trkpt><trkpt lat="42.7579794" lon="-3.8000968"><ele>700.0</ele><time>2026-05-02T16:34:42.886Z</time></trkpt><trkpt lat="42.7578601" lon="-3.8001756"><ele>703.0</ele><time>2026-05-02T16:34:43.888Z</time></trkpt><trkpt lat="42.7577465" lon="-3.8002558"><ele>706.0</ele><time>2026-05-02T16:34:44.891Z</time></trkpt><trkpt lat="42.7576282" lon="-3.8003338"><ele>709.0</ele><time>2026-05-02T16:34:45.888Z</time></trkpt><trkpt lat="42.7575023" lon="-3.8003944"><ele>709.0</ele><time>2026-05-02T16:34:46.886Z</time></trkpt><trkpt lat="42.7573782" lon="-3.8004465"><ele>709.0</ele><time>2026-05-02T16:34:47.892Z</time></trkpt><trkpt lat="42.7572512" lon="-3.80049"><ele>709.0</ele><time>2026-05-02T16:34:48.889Z</time></trkpt><trkpt lat="42.7571254" lon="-3.8005465"><ele>709.0</ele><time>2026-05-02T16:34:49.896Z</time></trkpt><trkpt lat="42.7570014" lon="-3.8006097"><ele>709.0</ele><time>2026-05-02T16:34:50.889Z</time></trkpt><trkpt lat="42.7568734" lon="-3.8006802"><ele>709.0</ele><time>2026-05-02T16:34:51.888Z</time></trkpt><trkpt lat="42.7567509" lon="-3.8007624"><ele>709.0</ele><time>2026-05-02T16:34:52.886Z</time></trkpt><trkpt lat="42.7566348" lon="-3.8008594"><ele>709.0</ele><time>2026-05-02T16:34:53.889Z</time></trkpt><trkpt lat="42.7565373" lon="-3.8009843"><ele>711.75</ele><time>2026-05-02T16:34:54.888Z</time></trkpt><trkpt lat="42.756451" lon="-3.8011224"><ele>714.5</ele><time>2026-05-02T16:34:55.887Z</time></trkpt><trkpt lat="42.756361" lon="-3.8012601"><ele>717.25</ele><time>2026-05-02T16:34:56.901Z</time></trkpt><trkpt lat="42.7562709" lon="-3.8014036"><ele>720.0</ele><time>2026-05-02T16:34:57.893Z</time></trkpt><trkpt lat="42.7561567" lon="-3.8015255"><ele>720.0</ele><time>2026-05-02T16:34:58.886Z</time></trkpt><trkpt lat="42.7560371" lon="-3.8016303"><ele>720.0</ele><time>2026-05-02T16:34:59.891Z</time></trkpt><trkpt lat="42.7559074" lon="-3.8017136"><ele>720.0</ele><time>2026-05-02T16:35:00.893Z</time></trkpt><trkpt lat="42.7557758" lon="-3.8017884"><ele>720.0</ele><time>2026-05-02T16:35:01.886Z</time></trkpt><trkpt lat="42.7556459" lon="-3.8018529"><ele>715.5</ele><time>2026-05-02T16:35:02.891Z</time></trkpt><trkpt lat="42.7555121" lon="-3.8019198"><ele>711.0</ele><time>2026-05-02T16:35:03.889Z</time></trkpt><trkpt lat="42.7553748" lon="-3.8019877"><ele>706.5</ele><time>2026-05-02T16:35:04.891Z</time></trkpt><trkpt lat="42.7552437" lon="-3.8020445"><ele>702.0</ele><time>2026-05-02T16:35:05.891Z</time></trkpt><trkpt lat="42.7551129" lon="-3.8021065"><ele>698.0</ele><time>2026-05-02T16:35:06.894Z</time></trkpt><trkpt lat="42.75498" lon="-3.8021692"><ele>694.0</ele><time>2026-05-02T16:35:07.889Z</time></trkpt><trkpt lat="42.754845" lon="-3.8022367"><ele>690.0</ele><time>2026-05-02T16:35:08.895Z</time></trkpt><trkpt lat="42.7547215" lon="-3.8023024"><ele>686.0</ele><time>2026-05-02T16:35:09.894Z</time></trkpt><trkpt lat="42.7545882" lon="-3.8023724"><ele>686.0</ele><time>2026-05-02T16:35:10.892Z</time></trkpt><trkpt lat="42.7544565" lon="-3.8024461"><ele>686.0</ele><time>2026-05-02T16:35:11.893Z</time></trkpt><trkpt lat="42.7543321" lon="-3.8025072"><ele>686.0</ele><time>2026-05-02T16:35:12.892Z</time></trkpt><trkpt lat="42.7542089" lon="-3.8025632"><ele>686.0</ele><time>2026-05-02T16:35:13.893Z</time></trkpt><trkpt lat="42.7540879" lon="-3.802624"><ele>687.25</ele><time>2026-05-02T16:35:14.895Z</time></trkpt><trkpt lat="42.7539571" lon="-3.8026823"><ele>688.5</ele><time>2026-05-02T16:35:15.895Z</time></trkpt><trkpt lat="42.753829" lon="-3.8027429"><ele>689.75</ele><time>2026-05-02T16:35:16.896Z</time></trkpt><trkpt lat="42.7537009" lon="-3.8027968"><ele>691.0</ele><time>2026-05-02T16:35:17.894Z</time></trkpt><trkpt lat="42.7535661" lon="-3.8028341"><ele>691.25</ele><time>2026-05-02T16:35:18.894Z</time></trkpt><trkpt lat="42.7534359" lon="-3.8028645"><ele>691.5</ele><time>2026-05-02T16:35:19.889Z</time></trkpt><trkpt lat="42.7532977" lon="-3.8028566"><ele>691.75</ele><time>2026-05-02T16:35:20.892Z</time></trkpt><trkpt lat="42.7531514" lon="-3.802835"><ele>692.0</ele><time>2026-05-02T16:35:21.892Z</time></trkpt><trkpt lat="42.7530189" lon="-3.8028183"><ele>692.0</ele><time>2026-05-02T16:35:22.89Z</time></trkpt><trkpt lat="42.7528741" lon="-3.8027777"><ele>692.0</ele><time>2026-05-02T16:35:23.895Z</time></trkpt><trkpt lat="42.7527439" lon="-3.8027389"><ele>692.0</ele><time>2026-05-02T16:35:24.893Z</time></trkpt><trkpt lat="42.7526123" lon="-3.8026788"><ele>692.0</ele><time>2026-05-02T16:35:25.892Z</time></trkpt><trkpt lat="42.7524863" lon="-3.8025881"><ele>690.0</ele><time>2026-05-02T16:35:26.892Z</time></trkpt><trkpt lat="42.7523658" lon="-3.8024727"><ele>688.0</ele><time>2026-05-02T16:35:27.912Z</time></trkpt><trkpt lat="42.7522575" lon="-3.8023589"><ele>686.0</ele><time>2026-05-02T16:35:28.896Z</time></trkpt><trkpt lat="42.7521624" lon="-3.8022403"><ele>684.0</ele><time>2026-05-02T16:35:29.897Z</time></trkpt><trkpt lat="42.7520611" lon="-3.8021196"><ele>684.0</ele><time>2026-05-02T16:35:30.901Z</time></trkpt><trkpt lat="42.751955" lon="-3.8020051"><ele>684.0</ele><time>2026-05-02T16:35:31.893Z</time></trkpt><trkpt lat="42.7518511" lon="-3.8018892"><ele>684.0</ele><time>2026-05-02T16:35:32.895Z</time></trkpt><trkpt lat="42.7517516" lon="-3.8017721"><ele>684.0</ele><time>2026-05-02T16:35:33.89Z</time></trkpt><trkpt lat="42.7516547" lon="-3.8016535"><ele>684.25</ele><time>2026-05-02T16:35:34.893Z</time></trkpt><trkpt lat="42.7515493" lon="-3.801524"><ele>684.5</ele><time>2026-05-02T16:35:35.891Z</time></trkpt><trkpt lat="42.7514425" lon="-3.8014027"><ele>684.75</ele><time>2026-05-02T16:35:36.894Z</time></trkpt><trkpt lat="42.7513345" lon="-3.8012869"><ele>685.0</ele><time>2026-05-02T16:35:37.886Z</time></trkpt><trkpt lat="42.751221" lon="-3.8011813"><ele>685.0</ele><time>2026-05-02T16:35:38.889Z</time></trkpt><trkpt lat="42.7511157" lon="-3.8010657"><ele>685.0</ele><time>2026-05-02T16:35:39.886Z</time></trkpt><trkpt lat="42.751015" lon="-3.8009586"><ele>685.0</ele><time>2026-05-02T16:35:40.885Z</time></trkpt><trkpt lat="42.7509074" lon="-3.8008518"><ele>685.0</ele><time>2026-05-02T16:35:41.884Z</time></trkpt><trkpt lat="42.7508043" lon="-3.8007378"><ele>686.25</ele><time>2026-05-02T16:35:42.883Z</time></trkpt><trkpt lat="42.7507024" lon="-3.8006267"><ele>687.5</ele><time>2026-05-02T16:35:43.881Z</time></trkpt><trkpt lat="42.75059" lon="-3.8005149"><ele>688.75</ele><time>2026-05-02T16:35:44.89Z</time></trkpt><trkpt lat="42.7504789" lon="-3.8004032"><ele>690.0</ele><time>2026-05-02T16:35:45.884Z</time></trkpt><trkpt lat="42.7503705" lon="-3.8003001"><ele>690.0</ele><time>2026-05-02T16:35:46.885Z</time></trkpt><trkpt lat="42.75025" lon="-3.8001977"><ele>690.0</ele><time>2026-05-02T16:35:47.883Z</time></trkpt><trkpt lat="42.7501328" lon="-3.8001062"><ele>690.0</ele><time>2026-05-02T16:35:48.889Z</time></trkpt><trkpt lat="42.7500168" lon="-3.8000142"><ele>690.0</ele><time>2026-05-02T16:35:49.891Z</time></trkpt><trkpt lat="42.7499006" lon="-3.7999284"><ele>691.0</ele><time>2026-05-02T16:35:50.893Z</time></trkpt><trkpt lat="42.7497718" lon="-3.7998575"><ele>692.0</ele><time>2026-05-02T16:35:51.896Z</time></trkpt><trkpt lat="42.7496387" lon="-3.7997868"><ele>693.0</ele><time>2026-05-02T16:35:52.9Z</time></trkpt><trkpt lat="42.7495072" lon="-3.7997353"><ele>694.0</ele><time>2026-05-02T16:35:53.89Z</time></trkpt><trkpt lat="42.7493636" lon="-3.7996878"><ele>696.75</ele><time>2026-05-02T16:35:54.89Z</time></trkpt><trkpt lat="42.7492212" lon="-3.7996643"><ele>699.5</ele><time>2026-05-02T16:35:55.891Z</time></trkpt><trkpt lat="42.7490819" lon="-3.7996382"><ele>702.25</ele><time>2026-05-02T16:35:56.896Z</time></trkpt><trkpt lat="42.7489396" lon="-3.7996196"><ele>705.0</ele><time>2026-05-02T16:35:57.894Z</time></trkpt><trkpt lat="42.7487896" lon="-3.7996055"><ele>705.0</ele><time>2026-05-02T16:35:58.903Z</time></trkpt><trkpt lat="42.7486531" lon="-3.7996134"><ele>705.0</ele><time>2026-05-02T16:35:59.892Z</time></trkpt><trkpt lat="42.7485061" lon="-3.7996298"><ele>705.0</ele><time>2026-05-02T16:36:00.897Z</time></trkpt><trkpt lat="42.7483644" lon="-3.7996562"><ele>705.0</ele><time>2026-05-02T16:36:01.896Z</time></trkpt><trkpt lat="42.7482251" lon="-3.7997019"><ele>704.5</ele><time>2026-05-02T16:36:02.897Z</time></trkpt><trkpt lat="42.748084" lon="-3.7997639"><ele>704.0</ele><time>2026-05-02T16:36:03.896Z</time></trkpt><trkpt lat="42.747948" lon="-3.7998339"><ele>703.5</ele><time>2026-05-02T16:36:04.901Z</time></trkpt><trkpt lat="42.7478106" lon="-3.7999127"><ele>703.0</ele><time>2026-05-02T16:36:05.898Z</time></trkpt><trkpt lat="42.7476764" lon="-3.8000029"><ele>705.0</ele><time>2026-05-02T16:36:06.902Z</time></trkpt><trkpt lat="42.747539" lon="-3.8000894"><ele>707.0</ele><time>2026-05-02T16:36:07.895Z</time></trkpt><trkpt lat="42.7474155" lon="-3.8001836"><ele>709.0</ele><time>2026-05-02T16:36:08.893Z</time></trkpt><trkpt lat="42.7472941" lon="-3.8002874"><ele>711.0</ele><time>2026-05-02T16:36:09.894Z</time></trkpt><trkpt lat="42.7471695" lon="-3.80039"><ele>711.0</ele><time>2026-05-02T16:36:10.893Z</time></trkpt><trkpt lat="42.7470426" lon="-3.8004951"><ele>711.0</ele><time>2026-05-02T16:36:11.895Z</time></trkpt><trkpt lat="42.7469265" lon="-3.8006057"><ele>711.0</ele><time>2026-05-02T16:36:12.898Z</time></trkpt><trkpt lat="42.746816" lon="-3.8007292"><ele>711.0</ele><time>2026-05-02T16:36:13.892Z</time></trkpt><trkpt lat="42.7467102" lon="-3.800864"><ele>708.0</ele><time>2026-05-02T16:36:14.894Z</time></trkpt><trkpt lat="42.7466128" lon="-3.8010105"><ele>705.0</ele><time>2026-05-02T16:36:15.891Z</time></trkpt><trkpt lat="42.7465207" lon="-3.801161"><ele>702.0</ele><time>2026-05-02T16:36:16.897Z</time></trkpt><trkpt lat="42.746443" lon="-3.8013234"><ele>699.0</ele><time>2026-05-02T16:36:17.892Z</time></trkpt><trkpt lat="42.7463695" lon="-3.8014932"><ele>699.0</ele><time>2026-05-02T16:36:18.892Z</time></trkpt><trkpt lat="42.7463127" lon="-3.8016743"><ele>699.0</ele><time>2026-05-02T16:36:19.894Z</time></trkpt><trkpt lat="42.7462535" lon="-3.8018541"><ele>699.0</ele><time>2026-05-02T16:36:20.89Z</time></trkpt><trkpt lat="42.7462069" lon="-3.8020382"><ele>699.0</ele><time>2026-05-02T16:36:21.906Z</time></trkpt><trkpt lat="42.746173" lon="-3.8022273"><ele>700.0</ele><time>2026-05-02T16:36:22.902Z</time></trkpt><trkpt lat="42.7461578" lon="-3.8024165"><ele>701.0</ele><time>2026-05-02T16:36:23.909Z</time></trkpt><trkpt lat="42.7461459" lon="-3.8026163"><ele>702.0</ele><time>2026-05-02T16:36:24.898Z</time></trkpt><trkpt lat="42.7461294" lon="-3.8028172"><ele>703.0</ele><time>2026-05-02T16:36:25.9Z</time></trkpt><trkpt lat="42.746114" lon="-3.8030204"><ele>703.0</ele><time>2026-05-02T16:36:26.9Z</time></trkpt><trkpt lat="42.7461039" lon="-3.803229"><ele>703.0</ele><time>2026-05-02T16:36:27.907Z</time></trkpt><trkpt lat="42.7460887" lon="-3.8034325"><ele>703.0</ele><time>2026-05-02T16:36:28.899Z</time></trkpt><trkpt lat="42.7460733" lon="-3.8036327"><ele>707.3333333333334</ele><time>2026-05-02T16:36:29.913Z</time></trkpt><trkpt lat="42.7460537" lon="-3.8038404"><ele>711.6666666666666</ele><time>2026-05-02T16:36:30.903Z</time></trkpt><trkpt lat="42.7460272" lon="-3.8040441"><ele>716.0</ele><time>2026-05-02T16:36:31.896Z</time></trkpt><trkpt lat="42.745994" lon="-3.8042545"><ele>712.5</ele><time>2026-05-02T16:36:32.893Z</time></trkpt><trkpt lat="42.7459398" lon="-3.8044406"><ele>709.0</ele><time>2026-05-02T16:36:33.894Z</time></trkpt><trkpt lat="42.7458763" lon="-3.804622"><ele>705.5</ele><time>2026-05-02T16:36:34.893Z</time></trkpt><trkpt lat="42.7458047" lon="-3.8048015"><ele>702.0</ele><time>2026-05-02T16:36:35.896Z</time></trkpt><trkpt lat="42.7457266" lon="-3.8049702"><ele>702.0</ele><time>2026-05-02T16:36:36.898Z</time></trkpt><trkpt lat="42.7456513" lon="-3.8051437"><ele>702.0</ele><time>2026-05-02T16:36:37.894Z</time></trkpt><trkpt lat="42.7455705" lon="-3.8053139"><ele>702.0</ele><time>2026-05-02T16:36:38.897Z</time></trkpt><trkpt lat="42.7454893" lon="-3.8054835"><ele>702.0</ele><time>2026-05-02T16:36:39.897Z</time></trkpt><trkpt lat="42.7454102" lon="-3.8056469"><ele>702.5</ele><time>2026-05-02T16:36:40.895Z</time></trkpt><trkpt lat="42.7453359" lon="-3.8058128"><ele>703.0</ele><time>2026-05-02T16:36:41.897Z</time></trkpt><trkpt lat="42.7452502" lon="-3.8059667"><ele>703.5</ele><time>2026-05-02T16:36:42.892Z</time></trkpt><trkpt lat="42.7451489" lon="-3.8061334"><ele>704.0</ele><time>2026-05-02T16:36:43.891Z</time></trkpt><trkpt lat="42.7450443" lon="-3.8062767"><ele>704.0</ele><time>2026-05-02T16:36:44.888Z</time></trkpt><trkpt lat="42.744929" lon="-3.8064067"><ele>704.0</ele><time>2026-05-02T16:36:45.897Z</time></trkpt><trkpt lat="42.744815" lon="-3.8065261"><ele>704.0</ele><time>2026-05-02T16:36:46.897Z</time></trkpt><trkpt lat="42.7446866" lon="-3.8066243"><ele>704.0</ele><time>2026-05-02T16:36:47.893Z</time></trkpt><trkpt lat="42.7445575" lon="-3.8067144"><ele>704.0</ele><time>2026-05-02T16:36:48.894Z</time></trkpt><trkpt lat="42.7444232" lon="-3.8067854"><ele>704.0</ele><time>2026-05-02T16:36:49.894Z</time></trkpt><trkpt lat="42.744282" lon="-3.8068476"><ele>704.0</ele><time>2026-05-02T16:36:50.891Z</time></trkpt><trkpt lat="42.7441238" lon="-3.8068859"><ele>710.6666666666666</ele><time>2026-05-02T16:36:51.894Z</time></trkpt><trkpt lat="42.7439695" lon="-3.8069177"><ele>717.3333333333334</ele><time>2026-05-02T16:36:52.893Z</time></trkpt><trkpt lat="42.7438132" lon="-3.8069282"><ele>724.0</ele><time>2026-05-02T16:36:53.899Z</time></trkpt><trkpt lat="42.7436573" lon="-3.8069206"><ele>725.3333333333334</ele><time>2026-05-02T16:36:54.898Z</time></trkpt><trkpt lat="42.7435019" lon="-3.8068839"><ele>726.6666666666666</ele><time>2026-05-02T16:36:55.899Z</time></trkpt><trkpt lat="42.7433498" lon="-3.8068255"><ele>728.0</ele><time>2026-05-02T16:36:56.899Z</time></trkpt><trkpt lat="42.7431889" lon="-3.806756"><ele>716.3333333333333</ele><time>2026-05-02T16:36:57.904Z</time></trkpt><trkpt lat="42.7430475" lon="-3.8066749"><ele>704.6666666666666</ele><time>2026-05-02T16:36:58.901Z</time></trkpt><trkpt lat="42.7429133" lon="-3.806579"><ele>693.0</ele><time>2026-05-02T16:36:59.901Z</time></trkpt><trkpt lat="42.742769" lon="-3.8064579"><ele>699.3333333333334</ele><time>2026-05-02T16:37:00.914Z</time></trkpt><trkpt lat="42.7426339" lon="-3.8063422"><ele>705.6666666666667</ele><time>2026-05-02T16:37:01.898Z</time></trkpt><trkpt lat="42.7425057" lon="-3.8062208"><ele>712.0</ele><time>2026-05-02T16:37:02.897Z</time></trkpt><trkpt lat="42.7423793" lon="-3.8060998"><ele>706.25</ele><time>2026-05-02T16:37:03.896Z</time></trkpt><trkpt lat="42.7422478" lon="-3.8059845"><ele>700.5</ele><time>2026-05-02T16:37:04.896Z</time></trkpt><trkpt lat="42.7421306" lon="-3.8058807"><ele>694.75</ele><time>2026-05-02T16:37:05.892Z</time></trkpt><trkpt lat="42.7420161" lon="-3.805778"><ele>689.0</ele><time>2026-05-02T16:37:06.897Z</time></trkpt><trkpt lat="42.7419115" lon="-3.8056901"><ele>695.0</ele><time>2026-05-02T16:37:07.895Z</time></trkpt><trkpt lat="42.7418053" lon="-3.8055981"><ele>701.0</ele><time>2026-05-02T16:37:08.892Z</time></trkpt><trkpt lat="42.7417053" lon="-3.8055026"><ele>707.0</ele><time>2026-05-02T16:37:09.895Z</time></trkpt><trkpt lat="42.7415927" lon="-3.805407"><ele>713.0</ele><time>2026-05-02T16:37:10.894Z</time></trkpt><trkpt lat="42.7414852" lon="-3.8053049"><ele>713.0</ele><time>2026-05-02T16:37:11.893Z</time></trkpt><trkpt lat="42.7413786" lon="-3.8052069"><ele>713.0</ele><time>2026-05-02T16:37:12.894Z</time></trkpt><trkpt lat="42.7412691" lon="-3.8051057"><ele>713.0</ele><time>2026-05-02T16:37:13.894Z</time></trkpt><trkpt lat="42.7411586" lon="-3.8050035"><ele>713.0</ele><time>2026-05-02T16:37:14.899Z</time></trkpt><trkpt lat="42.7410504" lon="-3.8048919"><ele>712.75</ele><time>2026-05-02T16:37:15.895Z</time></trkpt><trkpt lat="42.7409454" lon="-3.8047754"><ele>712.5</ele><time>2026-05-02T16:37:16.894Z</time></trkpt><trkpt lat="42.7408427" lon="-3.8046381"><ele>712.25</ele><time>2026-05-02T16:37:17.894Z</time></trkpt><trkpt lat="42.7407626" lon="-3.8044887"><ele>712.0</ele><time>2026-05-02T16:37:18.905Z</time></trkpt><trkpt lat="42.7406747" lon="-3.8043306"><ele>707.25</ele><time>2026-05-02T16:37:19.896Z</time></trkpt><trkpt lat="42.7405899" lon="-3.8041797"><ele>702.5</ele><time>2026-05-02T16:37:20.894Z</time></trkpt><trkpt lat="42.7405112" lon="-3.8040282"><ele>697.75</ele><time>2026-05-02T16:37:21.895Z</time></trkpt><trkpt lat="42.7404336" lon="-3.8038679"><ele>693.0</ele><time>2026-05-02T16:37:22.897Z</time></trkpt><trkpt lat="42.740359" lon="-3.8037139"><ele>693.0</ele><time>2026-05-02T16:37:23.897Z</time></trkpt><trkpt lat="42.7402863" lon="-3.8035643"><ele>693.0</ele><time>2026-05-02T16:37:24.896Z</time></trkpt><trkpt lat="42.740216" lon="-3.8034166"><ele>693.0</ele><time>2026-05-02T16:37:25.895Z</time></trkpt><trkpt lat="42.7401476" lon="-3.8032788"><ele>693.0</ele><time>2026-05-02T16:37:26.893Z</time></trkpt><trkpt lat="42.7400811" lon="-3.8031499"><ele>693.2</ele><time>2026-05-02T16:37:27.9Z</time></trkpt><trkpt lat="42.740018" lon="-3.8030252"><ele>693.4</ele><time>2026-05-02T16:37:28.894Z</time></trkpt><trkpt lat="42.7399472" lon="-3.8029073"><ele>693.6</ele><time>2026-05-02T16:37:29.894Z</time></trkpt><trkpt lat="42.739885" lon="-3.8027857"><ele>693.8000000000001</ele><time>2026-05-02T16:37:30.901Z</time></trkpt><trkpt lat="42.7398268" lon="-3.8026706"><ele>694.0</ele><time>2026-05-02T16:37:31.907Z</time></trkpt><trkpt lat="42.739774" lon="-3.8025627"><ele>694.0</ele><time>2026-05-02T16:37:32.893Z</time></trkpt><trkpt lat="42.7397261" lon="-3.8024472"><ele>694.0</ele><time>2026-05-02T16:37:33.889Z</time></trkpt><trkpt lat="42.7396782" lon="-3.8023266"><ele>694.0</ele><time>2026-05-02T16:37:34.894Z</time></trkpt><trkpt lat="42.7396283" lon="-3.8022127"><ele>694.0</ele><time>2026-05-02T16:37:35.894Z</time></trkpt><trkpt lat="42.7395847" lon="-3.8020955"><ele>694.0</ele><time>2026-05-02T16:37:36.896Z</time></trkpt><trkpt lat="42.7395427" lon="-3.8019745"><ele>694.0</ele><time>2026-05-02T16:37:37.896Z</time></trkpt><trkpt lat="42.7395003" lon="-3.8018565"><ele>694.0</ele><time>2026-05-02T16:37:38.897Z</time></trkpt><trkpt lat="42.7394626" lon="-3.8017322"><ele>694.0</ele><time>2026-05-02T16:37:39.898Z</time></trkpt><trkpt lat="42.7394233" lon="-3.8016023"><ele>694.0</ele><time>2026-05-02T16:37:40.898Z</time></trkpt><trkpt lat="42.7393831" lon="-3.8014717"><ele>694.0</ele><time>2026-05-02T16:37:41.899Z</time></trkpt><trkpt lat="42.7393415" lon="-3.8013391"><ele>694.2</ele><time>2026-05-02T16:37:42.9Z</time></trkpt><trkpt lat="42.7392985" lon="-3.8012055"><ele>694.4000000000001</ele><time>2026-05-02T16:37:43.907Z</time></trkpt><trkpt lat="42.7392537" lon="-3.801076"><ele>694.6</ele><time>2026-05-02T16:37:44.901Z</time></trkpt><trkpt lat="42.7392037" lon="-3.8009492"><ele>694.8</ele><time>2026-05-02T16:37:45.905Z</time></trkpt><trkpt lat="42.7391459" lon="-3.8008286"><ele>695.0</ele><time>2026-05-02T16:37:46.902Z</time></trkpt><trkpt lat="42.7390803" lon="-3.8007125"><ele>695.0</ele><time>2026-05-02T16:37:47.901Z</time></trkpt><trkpt lat="42.7390079" lon="-3.8006052"><ele>695.0</ele><time>2026-05-02T16:37:48.9Z</time></trkpt><trkpt lat="42.7389207" lon="-3.8005016"><ele>695.0</ele><time>2026-05-02T16:37:49.907Z</time></trkpt><trkpt lat="42.7388258" lon="-3.8004099"><ele>695.0</ele><time>2026-05-02T16:37:50.901Z</time></trkpt><trkpt lat="42.7387245" lon="-3.8003338"><ele>695.0</ele><time>2026-05-02T16:37:51.903Z</time></trkpt><trkpt lat="42.7386162" lon="-3.8002695"><ele>695.0</ele><time>2026-05-02T16:37:52.903Z</time></trkpt><trkpt lat="42.7385013" lon="-3.8002195"><ele>695.0</ele><time>2026-05-02T16:37:53.905Z</time></trkpt><trkpt lat="42.7383874" lon="-3.800183"><ele>695.0</ele><time>2026-05-02T16:37:54.901Z</time></trkpt><trkpt lat="42.738276" lon="-3.8001604"><ele>695.0</ele><time>2026-05-02T16:37:55.902Z</time></trkpt><trkpt lat="42.7381661" lon="-3.8001524"><ele>695.0</ele><time>2026-05-02T16:37:56.908Z</time></trkpt><trkpt lat="42.7380599" lon="-3.800155"><ele>695.0</ele><time>2026-05-02T16:37:57.902Z</time></trkpt><trkpt lat="42.7379556" lon="-3.8001693"><ele>695.0</ele><time>2026-05-02T16:37:58.901Z</time></trkpt><trkpt lat="42.7378516" lon="-3.8001937"><ele>695.0</ele><time>2026-05-02T16:37:59.898Z</time></trkpt><trkpt lat="42.7377498" lon="-3.8002206"><ele>696.4</ele><time>2026-05-02T16:38:00.903Z</time></trkpt><trkpt lat="42.7376511" lon="-3.8002554"><ele>697.8</ele><time>2026-05-02T16:38:01.897Z</time></trkpt><trkpt lat="42.7375546" lon="-3.8002991"><ele>699.2</ele><time>2026-05-02T16:38:02.909Z</time></trkpt><trkpt lat="42.737463" lon="-3.8003496"><ele>700.6</ele><time>2026-05-02T16:38:03.904Z</time></trkpt><trkpt lat="42.7373755" lon="-3.800408"><ele>702.0</ele><time>2026-05-02T16:38:04.9Z</time></trkpt><trkpt lat="42.7372886" lon="-3.8004674"><ele>702.0</ele><time>2026-05-02T16:38:05.902Z</time></trkpt><trkpt lat="42.7372023" lon="-3.8005277"><ele>702.0</ele><time>2026-05-02T16:38:06.9Z</time></trkpt><trkpt lat="42.7371168" lon="-3.8005857"><ele>702.0</ele><time>2026-05-02T16:38:07.898Z</time></trkpt><trkpt lat="42.7370333" lon="-3.8006426"><ele>702.0</ele><time>2026-05-02T16:38:08.912Z</time></trkpt><trkpt lat="42.7369573" lon="-3.8006933"><ele>702.0</ele><time>2026-05-02T16:38:09.9Z</time></trkpt><trkpt lat="42.7368939" lon="-3.8007387"><ele>702.0</ele><time>2026-05-02T16:38:10.899Z</time></trkpt><trkpt lat="42.736811" lon="-3.8008043"><ele>701.6</ele><time>2026-05-02T16:38:12.904Z</time></trkpt><trkpt lat="42.736756" lon="-3.8008658"><ele>701.2</ele><time>2026-05-02T16:40:13.899Z</time></trkpt><trkpt lat="42.7366406" lon="-3.8009514"><ele>700.8</ele><time>2026-05-02T16:40:15.898Z</time></trkpt><trkpt lat="42.7365637" lon="-3.8010216"><ele>700.4</ele><time>2026-05-02T16:40:16.901Z</time></trkpt><trkpt lat="42.7364805" lon="-3.8011103"><ele>700.0</ele><time>2026-05-02T16:40:17.896Z</time></trkpt><trkpt lat="42.7363924" lon="-3.8012156"><ele>700.0</ele><time>2026-05-02T16:40:18.897Z</time></trkpt><trkpt lat="42.7363113" lon="-3.8013364"><ele>700.0</ele><time>2026-05-02T16:40:19.9Z</time></trkpt><trkpt lat="42.7361748" lon="-3.8016363"><ele>700.0</ele><time>2026-05-02T16:40:21.899Z</time></trkpt><trkpt lat="42.7361082" lon="-3.8018049"><ele>699.25</ele><time>2026-05-02T16:40:22.9Z</time></trkpt><trkpt lat="42.7360363" lon="-3.8019738"><ele>698.5</ele><time>2026-05-02T16:40:23.905Z</time></trkpt><trkpt lat="42.7359626" lon="-3.8021385"><ele>697.75</ele><time>2026-05-02T16:40:24.904Z</time></trkpt><trkpt lat="42.7358834" lon="-3.8022966"><ele>697.0</ele><time>2026-05-02T16:40:25.899Z</time></trkpt><trkpt lat="42.7357998" lon="-3.8024457"><ele>697.0</ele><time>2026-05-02T16:40:26.898Z</time></trkpt><trkpt lat="42.7357115" lon="-3.8025906"><ele>697.0</ele><time>2026-05-02T16:40:27.906Z</time></trkpt><trkpt lat="42.7356213" lon="-3.8027121"><ele>697.0</ele><time>2026-05-02T16:40:28.901Z</time></trkpt><trkpt lat="42.7355288" lon="-3.8028275"><ele>697.0</ele><time>2026-05-02T16:40:29.905Z</time></trkpt><trkpt lat="42.7354352" lon="-3.8029243"><ele>697.75</ele><time>2026-05-02T16:40:30.907Z</time></trkpt><trkpt lat="42.7353472" lon="-3.803019"><ele>698.5</ele><time>2026-05-02T16:40:31.9Z</time></trkpt><trkpt lat="42.7352558" lon="-3.8031112"><ele>699.25</ele><time>2026-05-02T16:40:32.897Z</time></trkpt><trkpt lat="42.7351646" lon="-3.8032031"><ele>700.0</ele><time>2026-05-02T16:40:33.898Z</time></trkpt><trkpt lat="42.7350721" lon="-3.8032954"><ele>700.0</ele><time>2026-05-02T16:40:34.897Z</time></trkpt><trkpt lat="42.7349776" lon="-3.8033858"><ele>700.0</ele><time>2026-05-02T16:40:35.897Z</time></trkpt><trkpt lat="42.7348773" lon="-3.8034723"><ele>700.0</ele><time>2026-05-02T16:40:36.909Z</time></trkpt><trkpt lat="42.7347766" lon="-3.8035513"><ele>700.0</ele><time>2026-05-02T16:40:37.9Z</time></trkpt><trkpt lat="42.7346774" lon="-3.8036273"><ele>701.0</ele><time>2026-05-02T16:40:38.895Z</time></trkpt><trkpt lat="42.7345672" lon="-3.8036987"><ele>702.0</ele><time>2026-05-02T16:40:39.896Z</time></trkpt><trkpt lat="42.7344513" lon="-3.8037643"><ele>703.0</ele><time>2026-05-02T16:40:40.899Z</time></trkpt><trkpt lat="42.7343298" lon="-3.8038204"><ele>704.0</ele><time>2026-05-02T16:40:41.901Z</time></trkpt><trkpt lat="42.734202" lon="-3.8038634"><ele>704.0</ele><time>2026-05-02T16:40:42.9Z</time></trkpt><trkpt lat="42.7340691" lon="-3.8038905"><ele>704.0</ele><time>2026-05-02T16:40:43.899Z</time></trkpt><trkpt lat="42.7339275" lon="-3.8039009"><ele>704.0</ele><time>2026-05-02T16:40:44.901Z</time></trkpt><trkpt lat="42.7337736" lon="-3.8038901"><ele>704.0</ele><time>2026-05-02T16:40:45.903Z</time></trkpt><trkpt lat="42.7336162" lon="-3.8038686"><ele>701.6666666666666</ele><time>2026-05-02T16:40:46.902Z</time></trkpt><trkpt lat="42.733454" lon="-3.8038358"><ele>699.3333333333334</ele><time>2026-05-02T16:40:47.899Z</time></trkpt><trkpt lat="42.7332842" lon="-3.8038098"><ele>697.0</ele><time>2026-05-02T16:40:48.902Z</time></trkpt><trkpt lat="42.7331142" lon="-3.8037886"><ele>697.0</ele><time>2026-05-02T16:40:49.905Z</time></trkpt><trkpt lat="42.7329379" lon="-3.8037831"><ele>697.0</ele><time>2026-05-02T16:40:50.902Z</time></trkpt><trkpt lat="42.7327674" lon="-3.8037843"><ele>697.0</ele><time>2026-05-02T16:40:51.904Z</time></trkpt><trkpt lat="42.7325949" lon="-3.8037742"><ele>696.3333333333334</ele><time>2026-05-02T16:40:52.904Z</time></trkpt><trkpt lat="42.7324292" lon="-3.803762"><ele>695.6666666666666</ele><time>2026-05-02T16:40:53.908Z</time></trkpt><trkpt lat="42.7322826" lon="-3.8037428"><ele>695.0</ele><time>2026-05-02T16:40:54.907Z</time></trkpt><trkpt lat="42.7321452" lon="-3.8037239"><ele>695.0</ele><time>2026-05-02T16:40:55.912Z</time></trkpt><trkpt lat="42.7320231" lon="-3.8036872"><ele>695.0</ele><time>2026-05-02T16:40:56.908Z</time></trkpt><trkpt lat="42.7318928" lon="-3.8036321"><ele>695.0</ele><time>2026-05-02T16:40:57.909Z</time></trkpt><trkpt lat="42.7317712" lon="-3.8035551"><ele>695.0</ele><time>2026-05-02T16:40:58.902Z</time></trkpt><trkpt lat="42.7316618" lon="-3.8034536"><ele>696.25</ele><time>2026-05-02T16:40:59.902Z</time></trkpt><trkpt lat="42.7315547" lon="-3.8033391"><ele>697.5</ele><time>2026-05-02T16:41:00.905Z</time></trkpt><trkpt lat="42.7314579" lon="-3.8032076"><ele>698.75</ele><time>2026-05-02T16:41:01.898Z</time></trkpt><trkpt lat="42.7313619" lon="-3.8030619"><ele>700.0</ele><time>2026-05-02T16:41:02.896Z</time></trkpt><trkpt lat="42.7312739" lon="-3.8029008"><ele>700.0</ele><time>2026-05-02T16:41:03.897Z</time></trkpt><trkpt lat="42.7312031" lon="-3.8027345"><ele>700.0</ele><time>2026-05-02T16:41:04.9Z</time></trkpt><trkpt lat="42.7311339" lon="-3.8025659"><ele>700.0</ele><time>2026-05-02T16:41:05.901Z</time></trkpt><trkpt lat="42.7310722" lon="-3.8023971"><ele>700.0</ele><time>2026-05-02T16:41:06.9Z</time></trkpt><trkpt lat="42.731002" lon="-3.8022144"><ele>700.3333333333334</ele><time>2026-05-02T16:41:07.912Z</time></trkpt><trkpt lat="42.7309299" lon="-3.8020266"><ele>700.6666666666666</ele><time>2026-05-02T16:41:08.9Z</time></trkpt><trkpt lat="42.7308557" lon="-3.8018323"><ele>701.0</ele><time>2026-05-02T16:41:09.9Z</time></trkpt><trkpt lat="42.73078" lon="-3.8016321"><ele>701.0</ele><time>2026-05-02T16:41:10.899Z</time></trkpt><trkpt lat="42.7306997" lon="-3.8014387"><ele>701.0</ele><time>2026-05-02T16:41:11.907Z</time></trkpt><trkpt lat="42.7306248" lon="-3.8012362"><ele>701.0</ele><time>2026-05-02T16:41:12.9Z</time></trkpt><trkpt lat="42.7305427" lon="-3.8010441"><ele>704.6666666666666</ele><time>2026-05-02T16:41:13.9Z</time></trkpt><trkpt lat="42.7304676" lon="-3.8008488"><ele>708.3333333333334</ele><time>2026-05-02T16:41:14.9Z</time></trkpt><trkpt lat="42.7303748" lon="-3.8006591"><ele>712.0</ele><time>2026-05-02T16:41:15.902Z</time></trkpt><trkpt lat="42.7302787" lon="-3.8004706"><ele>708.3333333333334</ele><time>2026-05-02T16:41:16.902Z</time></trkpt><trkpt lat="42.730178" lon="-3.8002811"><ele>704.6666666666666</ele><time>2026-05-02T16:41:17.903Z</time></trkpt><trkpt lat="42.7300734" lon="-3.8001048"><ele>701.0</ele><time>2026-05-02T16:41:18.902Z</time></trkpt><trkpt lat="42.7299649" lon="-3.799944"><ele>701.0</ele><time>2026-05-02T16:41:19.904Z</time></trkpt><trkpt lat="42.729853" lon="-3.7997862"><ele>701.0</ele><time>2026-05-02T16:41:20.902Z</time></trkpt><trkpt lat="42.7297301" lon="-3.7996328"><ele>701.0</ele><time>2026-05-02T16:41:21.903Z</time></trkpt><trkpt lat="42.729603" lon="-3.7994832"><ele>701.0</ele><time>2026-05-02T16:41:22.903Z</time></trkpt><trkpt lat="42.7294692" lon="-3.7993414"><ele>701.0</ele><time>2026-05-02T16:41:23.904Z</time></trkpt><trkpt lat="42.7293366" lon="-3.7992119"><ele>701.0</ele><time>2026-05-02T16:41:24.902Z</time></trkpt><trkpt lat="42.7291927" lon="-3.7990839"><ele>700.3333333333333</ele><time>2026-05-02T16:41:25.9Z</time></trkpt><trkpt lat="42.7290427" lon="-3.7989721"><ele>699.6666666666666</ele><time>2026-05-02T16:41:26.898Z</time></trkpt><trkpt lat="42.7288856" lon="-3.7988674"><ele>699.0</ele><time>2026-05-02T16:41:27.902Z</time></trkpt><trkpt lat="42.7287315" lon="-3.7987766"><ele>699.0</ele><time>2026-05-02T16:41:28.906Z</time></trkpt><trkpt lat="42.728564" lon="-3.7986966"><ele>699.0</ele><time>2026-05-02T16:41:29.906Z</time></trkpt><trkpt lat="42.7283934" lon="-3.7986263"><ele>699.0</ele><time>2026-05-02T16:41:30.907Z</time></trkpt><trkpt lat="42.7282209" lon="-3.7985648"><ele>697.6666666666666</ele><time>2026-05-02T16:41:31.9Z</time></trkpt><trkpt lat="42.7280463" lon="-3.7985142"><ele>696.3333333333333</ele><time>2026-05-02T16:41:32.901Z</time></trkpt><trkpt lat="42.7278712" lon="-3.7984803"><ele>695.0</ele><time>2026-05-02T16:41:33.909Z</time></trkpt><trkpt lat="42.7276942" lon="-3.7984608"><ele>698.0</ele><time>2026-05-02T16:41:34.899Z</time></trkpt><trkpt lat="42.7275078" lon="-3.798444"><ele>701.0</ele><time>2026-05-02T16:41:35.892Z</time></trkpt><trkpt lat="42.7273335" lon="-3.7984445"><ele>704.0</ele><time>2026-05-02T16:41:36.894Z</time></trkpt><trkpt lat="42.7271676" lon="-3.7984684"><ele>701.6666666666666</ele><time>2026-05-02T16:41:37.897Z</time></trkpt><trkpt lat="42.7270099" lon="-3.7985098"><ele>699.3333333333334</ele><time>2026-05-02T16:41:38.907Z</time></trkpt><trkpt lat="42.7268409" lon="-3.7985633"><ele>697.0</ele><time>2026-05-02T16:41:39.898Z</time></trkpt><trkpt lat="42.7266724" lon="-3.798608"><ele>697.0</ele><time>2026-05-02T16:41:40.898Z</time></trkpt><trkpt lat="42.7265045" lon="-3.7986588"><ele>697.0</ele><time>2026-05-02T16:41:41.9Z</time></trkpt><trkpt lat="42.7263401" lon="-3.7987297"><ele>697.0</ele><time>2026-05-02T16:41:42.897Z</time></trkpt><trkpt lat="42.7261685" lon="-3.7987973"><ele>698.3333333333334</ele><time>2026-05-02T16:41:43.901Z</time></trkpt><trkpt lat="42.726005" lon="-3.798857"><ele>699.6666666666666</ele><time>2026-05-02T16:41:44.898Z</time></trkpt><trkpt lat="42.7258393" lon="-3.7989206"><ele>701.0</ele><time>2026-05-02T16:41:45.9Z</time></trkpt><trkpt lat="42.7256744" lon="-3.7989835"><ele>701.0</ele><time>2026-05-02T16:41:46.903Z</time></trkpt><trkpt lat="42.7255155" lon="-3.7990525"><ele>701.0</ele><time>2026-05-02T16:41:47.904Z</time></trkpt><trkpt lat="42.7253606" lon="-3.7991327"><ele>701.0</ele><time>2026-05-02T16:41:48.902Z</time></trkpt><trkpt lat="42.725203" lon="-3.7992268"><ele>700.6666666666666</ele><time>2026-05-02T16:41:49.902Z</time></trkpt><trkpt lat="42.7250543" lon="-3.7993316"><ele>700.3333333333334</ele><time>2026-05-02T16:41:50.901Z</time></trkpt><trkpt lat="42.7249009" lon="-3.799444"><ele>700.0</ele><time>2026-05-02T16:41:51.902Z</time></trkpt><trkpt lat="42.7247552" lon="-3.7995607"><ele>700.0</ele><time>2026-05-02T16:41:52.904Z</time></trkpt><trkpt lat="42.7246118" lon="-3.7996796"><ele>700.0</ele><time>2026-05-02T16:41:53.908Z</time></trkpt><trkpt lat="42.7244669" lon="-3.7998086"><ele>700.0</ele><time>2026-05-02T16:41:54.903Z</time></trkpt><trkpt lat="42.7241958" lon="-3.8000612"><ele>700.0</ele><time>2026-05-02T16:41:56.906Z</time></trkpt><trkpt lat="42.7240477" lon="-3.8001843"><ele>700.0</ele><time>2026-05-02T16:41:57.91Z</time></trkpt><trkpt lat="42.723904" lon="-3.8003086"><ele>700.0</ele><time>2026-05-02T16:41:58.904Z</time></trkpt><trkpt lat="42.7237604" lon="-3.8004389"><ele>700.0</ele><time>2026-05-02T16:41:59.908Z</time></trkpt><trkpt lat="42.7236158" lon="-3.800567"><ele>700.0</ele><time>2026-05-02T16:42:00.908Z</time></trkpt><trkpt lat="42.7234708" lon="-3.800686"><ele>700.0</ele><time>2026-05-02T16:42:01.905Z</time></trkpt><trkpt lat="42.723324" lon="-3.8008097"><ele>699.0</ele><time>2026-05-02T16:42:02.913Z</time></trkpt><trkpt lat="42.7231886" lon="-3.8009269"><ele>698.0</ele><time>2026-05-02T16:42:03.908Z</time></trkpt><trkpt lat="42.7230414" lon="-3.801039"><ele>697.0</ele><time>2026-05-02T16:42:04.906Z</time></trkpt><trkpt lat="42.7228932" lon="-3.8011314"><ele>697.0</ele><time>2026-05-02T16:42:05.903Z</time></trkpt><trkpt lat="42.7227423" lon="-3.8012019"><ele>697.0</ele><time>2026-05-02T16:42:06.908Z</time></trkpt><trkpt lat="42.7225879" lon="-3.8012576"><ele>697.0</ele><time>2026-05-02T16:42:07.908Z</time></trkpt><trkpt lat="42.722422" lon="-3.8012938"><ele>701.3333333333334</ele><time>2026-05-02T16:42:08.905Z</time></trkpt><trkpt lat="42.7222645" lon="-3.8013225"><ele>705.6666666666666</ele><time>2026-05-02T16:42:09.923Z</time></trkpt><trkpt lat="42.7221119" lon="-3.8013195"><ele>710.0</ele><time>2026-05-02T16:42:10.905Z</time></trkpt><trkpt lat="42.7219481" lon="-3.8012967"><ele>710.6666666666666</ele><time>2026-05-02T16:42:11.904Z</time></trkpt><trkpt lat="42.7217941" lon="-3.80127"><ele>711.3333333333334</ele><time>2026-05-02T16:42:12.907Z</time></trkpt><trkpt lat="42.7216377" lon="-3.8012239"><ele>712.0</ele><time>2026-05-02T16:42:13.908Z</time></trkpt><trkpt lat="42.7214869" lon="-3.8011771"><ele>712.0</ele><time>2026-05-02T16:42:14.904Z</time></trkpt><trkpt lat="42.7213337" lon="-3.8011252"><ele>712.0</ele><time>2026-05-02T16:42:15.91Z</time></trkpt><trkpt lat="42.7211849" lon="-3.8010755"><ele>712.0</ele><time>2026-05-02T16:42:16.904Z</time></trkpt><trkpt lat="42.7210321" lon="-3.8010181"><ele>716.6666666666667</ele><time>2026-05-02T16:42:17.904Z</time></trkpt><trkpt lat="42.7208825" lon="-3.800969"><ele>721.3333333333334</ele><time>2026-05-02T16:42:18.918Z</time></trkpt><trkpt lat="42.7207383" lon="-3.8009116"><ele>726.0</ele><time>2026-05-02T16:42:19.908Z</time></trkpt><trkpt lat="42.7205973" lon="-3.8008624"><ele>726.0</ele><time>2026-05-02T16:42:20.905Z</time></trkpt><trkpt lat="42.7204546" lon="-3.8008108"><ele>726.0</ele><time>2026-05-02T16:42:21.903Z</time></trkpt><trkpt lat="42.7203058" lon="-3.8007662"><ele>726.0</ele><time>2026-05-02T16:42:22.906Z</time></trkpt><trkpt lat="42.7201563" lon="-3.8007169"><ele>725.6666666666666</ele><time>2026-05-02T16:42:23.912Z</time></trkpt><trkpt lat="42.7200058" lon="-3.8006712"><ele>725.3333333333333</ele><time>2026-05-02T16:42:24.9Z</time></trkpt><trkpt lat="42.7198523" lon="-3.8006363"><ele>725.0</ele><time>2026-05-02T16:42:25.904Z</time></trkpt><trkpt lat="42.7196973" lon="-3.8006065"><ele>725.0</ele><time>2026-05-02T16:42:26.905Z</time></trkpt><trkpt lat="42.7195368" lon="-3.8005738"><ele>725.0</ele><time>2026-05-02T16:42:27.912Z</time></trkpt><trkpt lat="42.7193816" lon="-3.8005583"><ele>725.0</ele><time>2026-05-02T16:42:28.906Z</time></trkpt><trkpt lat="42.7192208" lon="-3.8005552"><ele>725.0</ele><time>2026-05-02T16:42:29.907Z</time></trkpt><trkpt lat="42.719053" lon="-3.8005521"><ele>725.0</ele><time>2026-05-02T16:42:30.912Z</time></trkpt><trkpt lat="42.7188896" lon="-3.800559"><ele>725.0</ele><time>2026-05-02T16:42:31.904Z</time></trkpt><trkpt lat="42.7187298" lon="-3.8005743"><ele>725.0</ele><time>2026-05-02T16:42:32.906Z</time></trkpt><trkpt lat="42.7185703" lon="-3.8005894"><ele>725.0</ele><time>2026-05-02T16:42:33.908Z</time></trkpt><trkpt lat="42.7184058" lon="-3.8006149"><ele>725.0</ele><time>2026-05-02T16:42:34.906Z</time></trkpt><trkpt lat="42.7182379" lon="-3.8006414"><ele>727.0</ele><time>2026-05-02T16:42:35.903Z</time></trkpt><trkpt lat="42.7180695" lon="-3.8006656"><ele>729.0</ele><time>2026-05-02T16:42:36.905Z</time></trkpt><trkpt lat="42.7179024" lon="-3.8006959"><ele>731.0</ele><time>2026-05-02T16:42:37.904Z</time></trkpt><trkpt lat="42.7177304" lon="-3.8007313"><ele>734.0</ele><time>2026-05-02T16:42:38.899Z</time></trkpt><trkpt lat="42.7175552" lon="-3.8007671"><ele>737.0</ele><time>2026-05-02T16:42:39.901Z</time></trkpt><trkpt lat="42.7173739" lon="-3.8007901"><ele>740.0</ele><time>2026-05-02T16:42:40.913Z</time></trkpt><trkpt lat="42.7171922" lon="-3.8008146"><ele>740.0</ele><time>2026-05-02T16:42:41.906Z</time></trkpt><trkpt lat="42.7170122" lon="-3.8008402"><ele>740.0</ele><time>2026-05-02T16:42:42.905Z</time></trkpt><trkpt lat="42.7168306" lon="-3.8008668"><ele>740.0</ele><time>2026-05-02T16:42:43.913Z</time></trkpt><trkpt lat="42.7166443" lon="-3.8009001"><ele>740.3333333333333</ele><time>2026-05-02T16:42:44.905Z</time></trkpt><trkpt lat="42.7164606" lon="-3.8009355"><ele>740.6666666666666</ele><time>2026-05-02T16:42:45.905Z</time></trkpt><trkpt lat="42.716272" lon="-3.8009795"><ele>741.0</ele><time>2026-05-02T16:42:46.907Z</time></trkpt><trkpt lat="42.7160879" lon="-3.8010316"><ele>738.3333333333334</ele><time>2026-05-02T16:42:47.909Z</time></trkpt><trkpt lat="42.7158986" lon="-3.8010965"><ele>735.6666666666667</ele><time>2026-05-02T16:42:48.913Z</time></trkpt><trkpt lat="42.7157085" lon="-3.8011666"><ele>733.0</ele><time>2026-05-02T16:42:49.905Z</time></trkpt><trkpt lat="42.7155278" lon="-3.8012625"><ele>733.0</ele><time>2026-05-02T16:42:50.902Z</time></trkpt><trkpt lat="42.7153513" lon="-3.8013735"><ele>733.0</ele><time>2026-05-02T16:42:51.906Z</time></trkpt><trkpt lat="42.7151735" lon="-3.8014836"><ele>733.0</ele><time>2026-05-02T16:42:52.908Z</time></trkpt><trkpt lat="42.7149918" lon="-3.8015982"><ele>728.6666666666667</ele><time>2026-05-02T16:42:53.909Z</time></trkpt><trkpt lat="42.7148153" lon="-3.8017119"><ele>724.3333333333334</ele><time>2026-05-02T16:42:54.908Z</time></trkpt><trkpt lat="42.7146329" lon="-3.8018274"><ele>720.0</ele><time>2026-05-02T16:42:55.902Z</time></trkpt><trkpt lat="42.7144577" lon="-3.8019483"><ele>728.0</ele><time>2026-05-02T16:42:56.907Z</time></trkpt><trkpt lat="42.7142719" lon="-3.8020615"><ele>736.0</ele><time>2026-05-02T16:42:57.912Z</time></trkpt><trkpt lat="42.714094" lon="-3.8021722"><ele>744.0</ele><time>2026-05-02T16:42:58.911Z</time></trkpt><trkpt lat="42.713911" lon="-3.8022702"><ele>744.0</ele><time>2026-05-02T16:42:59.909Z</time></trkpt><trkpt lat="42.7137264" lon="-3.8023697"><ele>744.0</ele><time>2026-05-02T16:43:00.914Z</time></trkpt><trkpt lat="42.713546" lon="-3.80247"><ele>744.0</ele><time>2026-05-02T16:43:01.907Z</time></trkpt><trkpt lat="42.7133565" lon="-3.8025581"><ele>742.0</ele><time>2026-05-02T16:43:02.907Z</time></trkpt><trkpt lat="42.7131637" lon="-3.8026246"><ele>740.0</ele><time>2026-05-02T16:43:03.909Z</time></trkpt><trkpt lat="42.7129702" lon="-3.8026698"><ele>738.0</ele><time>2026-05-02T16:43:04.908Z</time></trkpt><trkpt lat="42.7127689" lon="-3.8026921"><ele>746.0</ele><time>2026-05-02T16:43:05.906Z</time></trkpt><trkpt lat="42.7125838" lon="-3.8027041"><ele>754.0</ele><time>2026-05-02T16:43:06.91Z</time></trkpt><trkpt lat="42.7124075" lon="-3.8027007"><ele>762.0</ele><time>2026-05-02T16:43:07.894Z</time></trkpt><trkpt lat="42.7122454" lon="-3.8026823"><ele>763.75</ele><time>2026-05-02T16:43:08.906Z</time></trkpt><trkpt lat="42.7120965" lon="-3.8026612"><ele>765.5</ele><time>2026-05-02T16:43:09.904Z</time></trkpt><trkpt lat="42.7119529" lon="-3.8026381"><ele>767.25</ele><time>2026-05-02T16:43:10.901Z</time></trkpt><trkpt lat="42.7118127" lon="-3.8025937"><ele>769.0</ele><time>2026-05-02T16:43:11.913Z</time></trkpt><trkpt lat="42.7116759" lon="-3.8025579"><ele>770.25</ele><time>2026-05-02T16:43:12.898Z</time></trkpt><trkpt lat="42.7115497" lon="-3.8025121"><ele>771.5</ele><time>2026-05-02T16:43:13.899Z</time></trkpt><trkpt lat="42.7114263" lon="-3.8024613"><ele>772.75</ele><time>2026-05-02T16:43:14.9Z</time></trkpt><trkpt lat="42.7113131" lon="-3.8023972"><ele>774.0</ele><time>2026-05-02T16:43:15.898Z</time></trkpt><trkpt lat="42.711208" lon="-3.80234"><ele>774.0</ele><time>2026-05-02T16:43:16.902Z</time></trkpt><trkpt lat="42.7111055" lon="-3.8022857"><ele>774.0</ele><time>2026-05-02T16:43:17.905Z</time></trkpt><trkpt lat="42.7110126" lon="-3.8022383"><ele>774.0</ele><time>2026-05-02T16:43:18.904Z</time></trkpt><trkpt lat="42.7109196" lon="-3.8021862"><ele>774.0</ele><time>2026-05-02T16:43:19.908Z</time></trkpt><trkpt lat="42.710828" lon="-3.8021332"><ele>774.0</ele><time>2026-05-02T16:43:20.904Z</time></trkpt><trkpt lat="42.7107337" lon="-3.8020794"><ele>773.4000000000001</ele><time>2026-05-02T16:43:21.912Z</time></trkpt><trkpt lat="42.7106398" lon="-3.8020253"><ele>772.8</ele><time>2026-05-02T16:43:22.916Z</time></trkpt><trkpt lat="42.7105453" lon="-3.801972"><ele>772.2</ele><time>2026-05-02T16:43:23.914Z</time></trkpt><trkpt lat="42.7104529" lon="-3.8019155"><ele>771.5999999999999</ele><time>2026-05-02T16:43:24.913Z</time></trkpt><trkpt lat="42.7103625" lon="-3.8018557"><ele>771.0</ele><time>2026-05-02T16:43:25.912Z</time></trkpt><trkpt lat="42.7102694" lon="-3.8017984"><ele>771.0</ele><time>2026-05-02T16:43:26.913Z</time></trkpt><trkpt lat="42.7101762" lon="-3.8017451"><ele>771.0</ele><time>2026-05-02T16:43:27.915Z</time></trkpt><trkpt lat="42.7100824" lon="-3.8016966"><ele>771.0</ele><time>2026-05-02T16:43:28.914Z</time></trkpt><trkpt lat="42.7099913" lon="-3.8016611"><ele>771.0</ele><time>2026-05-02T16:43:29.921Z</time></trkpt><trkpt lat="42.7098966" lon="-3.8016408"><ele>771.0</ele><time>2026-05-02T16:43:30.923Z</time></trkpt><trkpt lat="42.7098017" lon="-3.8016373"><ele>771.0</ele><time>2026-05-02T16:43:31.907Z</time></trkpt><trkpt lat="42.7097052" lon="-3.8016587"><ele>771.0</ele><time>2026-05-02T16:43:32.908Z</time></trkpt><trkpt lat="42.7096118" lon="-3.8017017"><ele>771.0</ele><time>2026-05-02T16:43:33.908Z</time></trkpt><trkpt lat="42.7095204" lon="-3.801759"><ele>771.0</ele><time>2026-05-02T16:43:34.91Z</time></trkpt><trkpt lat="42.7094393" lon="-3.8018278"><ele>771.0</ele><time>2026-05-02T16:43:35.907Z</time></trkpt><trkpt lat="42.7093671" lon="-3.8019134"><ele>770.8333333333334</ele><time>2026-05-02T16:43:36.908Z</time></trkpt><trkpt lat="42.7093039" lon="-3.8020087"><ele>770.6666666666667</ele><time>2026-05-02T16:43:37.905Z</time></trkpt><trkpt lat="42.7092555" lon="-3.802114"><ele>770.5</ele><time>2026-05-02T16:43:38.909Z</time></trkpt><trkpt lat="42.709212" lon="-3.8022237"><ele>770.3333333333334</ele><time>2026-05-02T16:43:39.919Z</time></trkpt><trkpt lat="42.7091734" lon="-3.8023265"><ele>770.1666666666667</ele><time>2026-05-02T16:43:40.91Z</time></trkpt><trkpt lat="42.7091276" lon="-3.8024274"><ele>770.0</ele><time>2026-05-02T16:43:41.909Z</time></trkpt><trkpt lat="42.7090772" lon="-3.8025247"><ele>770.0</ele><time>2026-05-02T16:43:42.921Z</time></trkpt><trkpt lat="42.709028" lon="-3.802621"><ele>770.0</ele><time>2026-05-02T16:43:43.91Z</time></trkpt><trkpt lat="42.7089789" lon="-3.8027074"><ele>770.0</ele><time>2026-05-02T16:43:44.907Z</time></trkpt><trkpt lat="42.7089203" lon="-3.8027783"><ele>770.0</ele><time>2026-05-02T16:43:45.912Z</time></trkpt><trkpt lat="42.7088641" lon="-3.8028381"><ele>770.0</ele><time>2026-05-02T16:43:46.904Z</time></trkpt><trkpt lat="42.7088074" lon="-3.8028867"><ele>770.0</ele><time>2026-05-02T16:43:47.911Z</time></trkpt><trkpt lat="42.7087505" lon="-3.8029296"><ele>770.0</ele><time>2026-05-02T16:43:48.907Z</time></trkpt><trkpt lat="42.708686" lon="-3.8029638"><ele>769.5000000000001</ele><time>2026-05-02T16:43:49.916Z</time></trkpt><trkpt lat="42.7086204" lon="-3.8029979"><ele>769.0</ele><time>2026-05-02T16:43:50.909Z</time></trkpt><trkpt lat="42.708547" lon="-3.8030228"><ele>768.5</ele><time>2026-05-02T16:43:51.911Z</time></trkpt><trkpt lat="42.7084696" lon="-3.803039"><ele>768.0</ele><time>2026-05-02T16:43:52.91Z</time></trkpt><trkpt lat="42.7083905" lon="-3.8030578"><ele>767.5</ele><time>2026-05-02T16:43:53.916Z</time></trkpt><trkpt lat="42.7083067" lon="-3.8030737"><ele>767.0</ele><time>2026-05-02T16:43:54.906Z</time></trkpt><trkpt lat="42.7082221" lon="-3.8030864"><ele>769.0</ele><time>2026-05-02T16:43:55.912Z</time></trkpt><trkpt lat="42.7081337" lon="-3.8031018"><ele>771.0</ele><time>2026-05-02T16:43:56.909Z</time></trkpt><trkpt lat="42.7080449" lon="-3.8031219"><ele>773.0</ele><time>2026-05-02T16:43:57.915Z</time></trkpt><trkpt lat="42.7079482" lon="-3.8031406"><ele>775.0</ele><time>2026-05-02T16:43:58.91Z</time></trkpt><trkpt lat="42.7078465" lon="-3.803164"><ele>777.0</ele><time>2026-05-02T16:43:59.915Z</time></trkpt><trkpt lat="42.7077409" lon="-3.8031864"><ele>778.4000000000001</ele><time>2026-05-02T16:44:00.917Z</time></trkpt><trkpt lat="42.7076421" lon="-3.8032124"><ele>779.8000000000001</ele><time>2026-05-02T16:44:01.911Z</time></trkpt><trkpt lat="42.70754" lon="-3.8032293"><ele>781.2</ele><time>2026-05-02T16:44:02.904Z</time></trkpt><trkpt lat="42.7074366" lon="-3.8032359"><ele>782.6</ele><time>2026-05-02T16:44:03.912Z</time></trkpt><trkpt lat="42.707328" lon="-3.803227"><ele>784.0</ele><time>2026-05-02T16:44:04.908Z</time></trkpt><trkpt lat="42.7072191" lon="-3.8032079"><ele>784.0</ele><time>2026-05-02T16:44:05.905Z</time></trkpt><trkpt lat="42.7071138" lon="-3.80318"><ele>784.0</ele><time>2026-05-02T16:44:06.904Z</time></trkpt><trkpt lat="42.7070143" lon="-3.8031448"><ele>784.0</ele><time>2026-05-02T16:44:07.904Z</time></trkpt><trkpt lat="42.7069149" lon="-3.8031106"><ele>784.0</ele><time>2026-05-02T16:44:08.907Z</time></trkpt><trkpt lat="42.7068156" lon="-3.8030746"><ele>784.0</ele><time>2026-05-02T16:44:09.899Z</time></trkpt><trkpt lat="42.7067156" lon="-3.803035"><ele>787.2</ele><time>2026-05-02T16:44:10.902Z</time></trkpt><trkpt lat="42.7066183" lon="-3.8029899"><ele>790.4000000000001</ele><time>2026-05-02T16:44:11.901Z</time></trkpt><trkpt lat="42.7065194" lon="-3.8029412"><ele>793.6</ele><time>2026-05-02T16:44:12.903Z</time></trkpt><trkpt lat="42.7064245" lon="-3.8028974"><ele>796.8</ele><time>2026-05-02T16:44:13.926Z</time></trkpt><trkpt lat="42.7063325" lon="-3.8028524"><ele>800.0</ele><time>2026-05-02T16:44:14.906Z</time></trkpt><trkpt lat="42.7062407" lon="-3.8028068"><ele>800.0</ele><time>2026-05-02T16:44:15.903Z</time></trkpt><trkpt lat="42.7061482" lon="-3.8027627"><ele>800.0</ele><time>2026-05-02T16:44:16.903Z</time></trkpt><trkpt lat="42.7060586" lon="-3.8027156"><ele>800.0</ele><time>2026-05-02T16:44:17.901Z</time></trkpt><trkpt lat="42.7059692" lon="-3.8026741"><ele>800.0</ele><time>2026-05-02T16:44:18.904Z</time></trkpt><trkpt lat="42.7058818" lon="-3.8026267"><ele>800.0</ele><time>2026-05-02T16:44:19.897Z</time></trkpt><trkpt lat="42.7057955" lon="-3.8025808"><ele>798.0</ele><time>2026-05-02T16:44:20.904Z</time></trkpt><trkpt lat="42.7057135" lon="-3.8025322"><ele>796.0</ele><time>2026-05-02T16:44:21.906Z</time></trkpt><trkpt lat="42.70563" lon="-3.8024876"><ele>794.0</ele><time>2026-05-02T16:44:22.899Z</time></trkpt><trkpt lat="42.7055462" lon="-3.8024367"><ele>792.0</ele><time>2026-05-02T16:44:23.903Z</time></trkpt><trkpt lat="42.7054626" lon="-3.8023827"><ele>790.0</ele><time>2026-05-02T16:44:24.901Z</time></trkpt><trkpt lat="42.7053821" lon="-3.8023314"><ele>789.9999999999999</ele><time>2026-05-02T16:44:25.901Z</time></trkpt><trkpt lat="42.7053041" lon="-3.8022796"><ele>790.0</ele><time>2026-05-02T16:44:26.898Z</time></trkpt><trkpt lat="42.7052252" lon="-3.802228"><ele>790.0</ele><time>2026-05-02T16:44:27.911Z</time></trkpt><trkpt lat="42.7051471" lon="-3.802177"><ele>790.0</ele><time>2026-05-02T16:44:28.901Z</time></trkpt><trkpt lat="42.7050665" lon="-3.8021263"><ele>789.9999999999999</ele><time>2026-05-02T16:44:29.903Z</time></trkpt><trkpt lat="42.7049826" lon="-3.8020772"><ele>790.0</ele><time>2026-05-02T16:44:30.904Z</time></trkpt><trkpt lat="42.7049008" lon="-3.8020301"><ele>796.5</ele><time>2026-05-02T16:44:31.905Z</time></trkpt><trkpt lat="42.7048142" lon="-3.8019837"><ele>803.0</ele><time>2026-05-02T16:44:32.9Z</time></trkpt><trkpt lat="42.7046418" lon="-3.8019122"><ele>809.5</ele><time>2026-05-02T16:44:34.896Z</time></trkpt><trkpt lat="42.7045503" lon="-3.8018888"><ele>816.0</ele><time>2026-05-02T16:44:35.899Z</time></trkpt><trkpt lat="42.7044614" lon="-3.801874"><ele>819.5999999999999</ele><time>2026-05-02T16:44:36.899Z</time></trkpt><trkpt lat="42.7043693" lon="-3.8018682"><ele>823.2</ele><time>2026-05-02T16:44:37.907Z</time></trkpt><trkpt lat="42.7042704" lon="-3.8018717"><ele>826.8</ele><time>2026-05-02T16:44:38.905Z</time></trkpt><trkpt lat="42.7041761" lon="-3.8018846"><ele>830.4000000000001</ele><time>2026-05-02T16:44:39.901Z</time></trkpt><trkpt lat="42.7040784" lon="-3.8019021"><ele>834.0</ele><time>2026-05-02T16:44:40.898Z</time></trkpt><trkpt lat="42.7039842" lon="-3.8019294"><ele>834.0</ele><time>2026-05-02T16:44:41.895Z</time></trkpt><trkpt lat="42.7038956" lon="-3.8019594"><ele>834.0</ele><time>2026-05-02T16:44:42.893Z</time></trkpt><trkpt lat="42.7038072" lon="-3.8019928"><ele>834.0</ele><time>2026-05-02T16:44:43.901Z</time></trkpt><trkpt lat="42.7037207" lon="-3.8020376"><ele>834.0</ele><time>2026-05-02T16:44:44.888Z</time></trkpt><trkpt lat="42.7036373" lon="-3.8020919"><ele>834.0</ele><time>2026-05-02T16:44:45.894Z</time></trkpt><trkpt lat="42.7035561" lon="-3.8021466"><ele>831.0</ele><time>2026-05-02T16:44:46.887Z</time></trkpt><trkpt lat="42.7034802" lon="-3.8022073"><ele>828.0</ele><time>2026-05-02T16:44:47.889Z</time></trkpt><trkpt lat="42.7034065" lon="-3.8022779"><ele>825.0</ele><time>2026-05-02T16:44:48.888Z</time></trkpt><trkpt lat="42.7033369" lon="-3.802349"><ele>822.0</ele><time>2026-05-02T16:44:49.89Z</time></trkpt><trkpt lat="42.7032683" lon="-3.8024226"><ele>819.0</ele><time>2026-05-02T16:44:50.888Z</time></trkpt><trkpt lat="42.703198" lon="-3.8025002"><ele>816.0</ele><time>2026-05-02T16:44:51.89Z</time></trkpt><trkpt lat="42.7031282" lon="-3.8025749"><ele>816.0</ele><time>2026-05-02T16:44:52.888Z</time></trkpt><trkpt lat="42.7030639" lon="-3.8026558"><ele>816.0</ele><time>2026-05-02T16:44:53.89Z</time></trkpt><trkpt lat="42.7029943" lon="-3.8027383"><ele>816.0</ele><time>2026-05-02T16:44:54.888Z</time></trkpt><trkpt lat="42.7029276" lon="-3.8028208"><ele>816.0</ele><time>2026-05-02T16:44:55.891Z</time></trkpt><trkpt lat="42.7028617" lon="-3.8029037"><ele>816.0</ele><time>2026-05-02T16:44:56.89Z</time></trkpt><trkpt lat="42.7027945" lon="-3.8029847"><ele>816.4</ele><time>2026-05-02T16:44:57.896Z</time></trkpt><trkpt lat="42.702718" lon="-3.8030659"><ele>816.8</ele><time>2026-05-02T16:44:58.89Z</time></trkpt><trkpt lat="42.7026418" lon="-3.8031537"><ele>817.1999999999999</ele><time>2026-05-02T16:44:59.892Z</time></trkpt><trkpt lat="42.702564" lon="-3.8032462"><ele>817.5999999999999</ele><time>2026-05-02T16:45:00.896Z</time></trkpt><trkpt lat="42.702482" lon="-3.8033384"><ele>818.0</ele><time>2026-05-02T16:45:01.891Z</time></trkpt><trkpt lat="42.7023973" lon="-3.8034312"><ele>827.0</ele><time>2026-05-02T16:45:02.892Z</time></trkpt><trkpt lat="42.7023078" lon="-3.8035303"><ele>836.0</ele><time>2026-05-02T16:45:03.898Z</time></trkpt><trkpt lat="42.7022126" lon="-3.8036276"><ele>845.0</ele><time>2026-05-02T16:45:04.893Z</time></trkpt><trkpt lat="42.70211" lon="-3.8037265"><ele>854.0</ele><time>2026-05-02T16:45:05.896Z</time></trkpt><trkpt lat="42.7020004" lon="-3.8038185"><ele>847.25</ele><time>2026-05-02T16:45:06.897Z</time></trkpt><trkpt lat="42.7018848" lon="-3.8039078"><ele>840.5</ele><time>2026-05-02T16:45:07.894Z</time></trkpt><trkpt lat="42.7017638" lon="-3.8039865"><ele>833.75</ele><time>2026-05-02T16:45:08.892Z</time></trkpt><trkpt lat="42.7016396" lon="-3.8040476"><ele>827.0</ele><time>2026-05-02T16:45:09.894Z</time></trkpt><trkpt lat="42.7015145" lon="-3.8040969"><ele>827.0</ele><time>2026-05-02T16:45:10.888Z</time></trkpt><trkpt lat="42.7013882" lon="-3.8041274"><ele>827.0</ele><time>2026-05-02T16:45:11.893Z</time></trkpt><trkpt lat="42.7012606" lon="-3.8041491"><ele>827.0</ele><time>2026-05-02T16:45:12.897Z</time></trkpt><trkpt lat="42.7011294" lon="-3.8041603"><ele>827.0</ele><time>2026-05-02T16:45:13.896Z</time></trkpt><trkpt lat="42.7009945" lon="-3.8041692"><ele>825.25</ele><time>2026-05-02T16:45:14.907Z</time></trkpt><trkpt lat="42.7008568" lon="-3.8041754"><ele>823.5</ele><time>2026-05-02T16:45:15.899Z</time></trkpt><trkpt lat="42.7007202" lon="-3.8041802"><ele>821.75</ele><time>2026-05-02T16:45:16.892Z</time></trkpt><trkpt lat="42.7005834" lon="-3.8041874"><ele>820.0</ele><time>2026-05-02T16:45:17.898Z</time></trkpt><trkpt lat="42.7004472" lon="-3.8041927"><ele>820.0</ele><time>2026-05-02T16:45:18.897Z</time></trkpt><trkpt lat="42.7003089" lon="-3.8041979"><ele>820.0</ele><time>2026-05-02T16:45:19.898Z</time></trkpt><trkpt lat="42.700172" lon="-3.8042072"><ele>820.0</ele><time>2026-05-02T16:45:20.896Z</time></trkpt><trkpt lat="42.7000323" lon="-3.8042117"><ele>820.0</ele><time>2026-05-02T16:45:21.899Z</time></trkpt><trkpt lat="42.6998896" lon="-3.8042122"><ele>821.5</ele><time>2026-05-02T16:45:22.894Z</time></trkpt><trkpt lat="42.6997501" lon="-3.8042204"><ele>823.0</ele><time>2026-05-02T16:45:23.897Z</time></trkpt><trkpt lat="42.6996096" lon="-3.8042317"><ele>824.5</ele><time>2026-05-02T16:45:24.896Z</time></trkpt><trkpt lat="42.6994722" lon="-3.804246"><ele>826.0</ele><time>2026-05-02T16:45:25.899Z</time></trkpt><trkpt lat="42.6993291" lon="-3.8042554"><ele>827.75</ele><time>2026-05-02T16:45:26.893Z</time></trkpt><trkpt lat="42.6991876" lon="-3.8042739"><ele>829.5</ele><time>2026-05-02T16:45:27.901Z</time></trkpt><trkpt lat="42.6990475" lon="-3.8042919"><ele>831.25</ele><time>2026-05-02T16:45:28.892Z</time></trkpt><trkpt lat="42.6989087" lon="-3.8043145"><ele>833.0</ele><time>2026-05-02T16:45:29.897Z</time></trkpt><trkpt lat="42.6987641" lon="-3.8043397"><ele>839.75</ele><time>2026-05-02T16:45:30.907Z</time></trkpt><trkpt lat="42.6986237" lon="-3.8043689"><ele>846.5</ele><time>2026-05-02T16:45:31.895Z</time></trkpt><trkpt lat="42.6984859" lon="-3.8043982"><ele>853.25</ele><time>2026-05-02T16:45:32.893Z</time></trkpt><trkpt lat="42.6983427" lon="-3.8044326"><ele>860.0</ele><time>2026-05-02T16:45:33.895Z</time></trkpt><trkpt lat="42.6982025" lon="-3.8044702"><ele>860.0</ele><time>2026-05-02T16:45:34.893Z</time></trkpt><trkpt lat="42.6980594" lon="-3.8045071"><ele>860.0</ele><time>2026-05-02T16:45:35.891Z</time></trkpt><trkpt lat="42.6979122" lon="-3.8045386"><ele>860.0</ele><time>2026-05-02T16:45:36.899Z</time></trkpt><trkpt lat="42.6977708" lon="-3.8045718"><ele>860.0</ele><time>2026-05-02T16:45:37.898Z</time></trkpt><trkpt lat="42.6976253" lon="-3.804604"><ele>859.5</ele><time>2026-05-02T16:45:38.902Z</time></trkpt><trkpt lat="42.6974815" lon="-3.8046227"><ele>859.0</ele><time>2026-05-02T16:45:39.903Z</time></trkpt><trkpt lat="42.6973392" lon="-3.8046345"><ele>858.5</ele><time>2026-05-02T16:45:40.901Z</time></trkpt><trkpt lat="42.6971959" lon="-3.8046179"><ele>858.0</ele><time>2026-05-02T16:45:41.903Z</time></trkpt><trkpt lat="42.6970498" lon="-3.8045754"><ele>858.25</ele><time>2026-05-02T16:45:42.898Z</time></trkpt><trkpt lat="42.6969056" lon="-3.8045189"><ele>858.5</ele><time>2026-05-02T16:45:43.9Z</time></trkpt><trkpt lat="42.6967762" lon="-3.8044554"><ele>858.75</ele><time>2026-05-02T16:45:44.897Z</time></trkpt><trkpt lat="42.696652" lon="-3.8043854"><ele>859.0</ele><time>2026-05-02T16:45:45.907Z</time></trkpt><trkpt lat="42.6965224" lon="-3.8042932"><ele>856.3333333333333</ele><time>2026-05-02T16:45:46.897Z</time></trkpt><trkpt lat="42.6963964" lon="-3.8041825"><ele>853.6666666666667</ele><time>2026-05-02T16:45:47.899Z</time></trkpt><trkpt lat="42.6962709" lon="-3.8040643"><ele>851.0</ele><time>2026-05-02T16:45:48.899Z</time></trkpt><trkpt lat="42.6961372" lon="-3.8039483"><ele>855.0</ele><time>2026-05-02T16:45:49.899Z</time></trkpt><trkpt lat="42.6959952" lon="-3.803827"><ele>859.0</ele><time>2026-05-02T16:45:50.901Z</time></trkpt><trkpt lat="42.6958542" lon="-3.8037106"><ele>863.0</ele><time>2026-05-02T16:45:51.894Z</time></trkpt><trkpt lat="42.6957069" lon="-3.8035867"><ele>862.3333333333334</ele><time>2026-05-02T16:45:52.894Z</time></trkpt><trkpt lat="42.695556" lon="-3.8034581"><ele>861.6666666666667</ele><time>2026-05-02T16:45:53.894Z</time></trkpt><trkpt lat="42.695395" lon="-3.8033278"><ele>861.0</ele><time>2026-05-02T16:45:54.896Z</time></trkpt><trkpt lat="42.6952364" lon="-3.8032039"><ele>862.6666666666667</ele><time>2026-05-02T16:45:55.891Z</time></trkpt><trkpt lat="42.6950687" lon="-3.8030762"><ele>864.3333333333334</ele><time>2026-05-02T16:45:56.894Z</time></trkpt><trkpt lat="42.6949035" lon="-3.802969"><ele>866.0</ele><time>2026-05-02T16:45:57.894Z</time></trkpt><trkpt lat="42.694739" lon="-3.8028746"><ele>866.0</ele><time>2026-05-02T16:45:58.894Z</time></trkpt><trkpt lat="42.6945681" lon="-3.8027921"><ele>866.0</ele><time>2026-05-02T16:45:59.893Z</time></trkpt><trkpt lat="42.6943959" lon="-3.8027189"><ele>866.0</ele><time>2026-05-02T16:46:00.898Z</time></trkpt><trkpt lat="42.6942175" lon="-3.802645"><ele>865.6666666666667</ele><time>2026-05-02T16:46:01.89Z</time></trkpt><trkpt lat="42.694041" lon="-3.8025788"><ele>865.3333333333333</ele><time>2026-05-02T16:46:02.894Z</time></trkpt><trkpt lat="42.6938632" lon="-3.8025186"><ele>865.0</ele><time>2026-05-02T16:46:03.892Z</time></trkpt><trkpt lat="42.6936909" lon="-3.8024727"><ele>867.0</ele><time>2026-05-02T16:46:04.89Z</time></trkpt><trkpt lat="42.6935104" lon="-3.8024358"><ele>869.0</ele><time>2026-05-02T16:46:05.892Z</time></trkpt><trkpt lat="42.6933307" lon="-3.802399"><ele>871.0</ele><time>2026-05-02T16:46:06.89Z</time></trkpt><trkpt lat="42.6931543" lon="-3.8023748"><ele>871.0</ele><time>2026-05-02T16:46:07.894Z</time></trkpt><trkpt lat="42.6929727" lon="-3.8023434"><ele>871.0</ele><time>2026-05-02T16:46:08.897Z</time></trkpt><trkpt lat="42.692792" lon="-3.8023067"><ele>871.0</ele><time>2026-05-02T16:46:09.896Z</time></trkpt><trkpt lat="42.6926087" lon="-3.8022734"><ele>873.3333333333333</ele><time>2026-05-02T16:46:10.896Z</time></trkpt><trkpt lat="42.692425" lon="-3.8022366"><ele>875.6666666666667</ele><time>2026-05-02T16:46:11.899Z</time></trkpt><trkpt lat="42.6922375" lon="-3.8021995"><ele>878.0</ele><time>2026-05-02T16:46:12.899Z</time></trkpt><trkpt lat="42.6920491" lon="-3.8021624"><ele>877.6666666666667</ele><time>2026-05-02T16:46:13.902Z</time></trkpt><trkpt lat="42.6918598" lon="-3.8021326"><ele>877.3333333333333</ele><time>2026-05-02T16:46:14.9Z</time></trkpt><trkpt lat="42.6916723" lon="-3.8020977"><ele>877.0</ele><time>2026-05-02T16:46:15.905Z</time></trkpt><trkpt lat="42.6914857" lon="-3.8020619"><ele>877.0</ele><time>2026-05-02T16:46:16.911Z</time></trkpt><trkpt lat="42.6912986" lon="-3.8020248"><ele>877.0</ele><time>2026-05-02T16:46:17.898Z</time></trkpt><trkpt lat="42.6911101" lon="-3.8019908"><ele>877.0</ele><time>2026-05-02T16:46:18.899Z</time></trkpt><trkpt lat="42.6909195" lon="-3.8019529"><ele>876.6666666666666</ele><time>2026-05-02T16:46:19.901Z</time></trkpt><trkpt lat="42.6907241" lon="-3.8019081"><ele>876.3333333333333</ele><time>2026-05-02T16:46:20.901Z</time></trkpt><trkpt lat="42.6905324" lon="-3.8018557"><ele>876.0</ele><time>2026-05-02T16:46:21.904Z</time></trkpt><trkpt lat="42.6903453" lon="-3.8017776"><ele>877.3333333333333</ele><time>2026-05-02T16:46:22.899Z</time></trkpt><trkpt lat="42.6901626" lon="-3.801681"><ele>878.6666666666666</ele><time>2026-05-02T16:46:23.899Z</time></trkpt><trkpt lat="42.6899844" lon="-3.8015607"><ele>880.0</ele><time>2026-05-02T16:46:24.896Z</time></trkpt><trkpt lat="42.6898191" lon="-3.8014149"><ele>880.0</ele><time>2026-05-02T16:46:25.9Z</time></trkpt><trkpt lat="42.6896592" lon="-3.8012471"><ele>880.0</ele><time>2026-05-02T16:46:26.895Z</time></trkpt><trkpt lat="42.6895093" lon="-3.8010676"><ele>880.0</ele><time>2026-05-02T16:46:27.898Z</time></trkpt><trkpt lat="42.6893649" lon="-3.8008796"><ele>884.0</ele><time>2026-05-02T16:46:28.898Z</time></trkpt><trkpt lat="42.689232" lon="-3.8006694"><ele>888.0</ele><time>2026-05-02T16:46:29.899Z</time></trkpt><trkpt lat="42.6891249" lon="-3.8004474"><ele>892.0</ele><time>2026-05-02T16:46:30.902Z</time></trkpt><trkpt lat="42.6890238" lon="-3.8002115"><ele>890.6666666666666</ele><time>2026-05-02T16:46:31.896Z</time></trkpt><trkpt lat="42.6889297" lon="-3.7999717"><ele>889.3333333333333</ele><time>2026-05-02T16:46:32.898Z</time></trkpt><trkpt lat="42.6888501" lon="-3.7997234"><ele>888.0</ele><time>2026-05-02T16:46:33.903Z</time></trkpt><trkpt lat="42.6887788" lon="-3.7994766"><ele>889.6666666666667</ele><time>2026-05-02T16:46:34.907Z</time></trkpt><trkpt lat="42.6887086" lon="-3.7992207"><ele>891.3333333333334</ele><time>2026-05-02T16:46:35.901Z</time></trkpt><trkpt lat="42.6886334" lon="-3.7989718"><ele>893.0</ele><time>2026-05-02T16:46:36.905Z</time></trkpt><trkpt lat="42.688555" lon="-3.7987295"><ele>892.3333333333334</ele><time>2026-05-02T16:46:37.901Z</time></trkpt><trkpt lat="42.6884696" lon="-3.7984849"><ele>891.6666666666667</ele><time>2026-05-02T16:46:38.902Z</time></trkpt><trkpt lat="42.6883849" lon="-3.7982355"><ele>891.0</ele><time>2026-05-02T16:46:39.904Z</time></trkpt><trkpt lat="42.688299" lon="-3.7979871"><ele>891.0</ele><time>2026-05-02T16:46:40.91Z</time></trkpt><trkpt lat="42.6882092" lon="-3.7977471"><ele>891.0</ele><time>2026-05-02T16:46:41.906Z</time></trkpt><trkpt lat="42.6881113" lon="-3.7975142"><ele>891.0</ele><time>2026-05-02T16:46:42.907Z</time></trkpt><trkpt lat="42.687995" lon="-3.7972908"><ele>893.0</ele><time>2026-05-02T16:46:43.903Z</time></trkpt><trkpt lat="42.6878683" lon="-3.7970864"><ele>895.0</ele><time>2026-05-02T16:46:44.905Z</time></trkpt><trkpt lat="42.6877286" lon="-3.7969007"><ele>897.0</ele><time>2026-05-02T16:46:45.907Z</time></trkpt><trkpt lat="42.6875794" lon="-3.7967383"><ele>901.3333333333333</ele><time>2026-05-02T16:46:46.901Z</time></trkpt><trkpt lat="42.6874169" lon="-3.7965944"><ele>905.6666666666666</ele><time>2026-05-02T16:46:47.909Z</time></trkpt><trkpt lat="42.6872446" lon="-3.7964599"><ele>910.0</ele><time>2026-05-02T16:46:48.896Z</time></trkpt><trkpt lat="42.6870721" lon="-3.7963485"><ele>908.0</ele><time>2026-05-02T16:46:49.898Z</time></trkpt><trkpt lat="42.686897" lon="-3.7962557"><ele>906.0</ele><time>2026-05-02T16:46:50.898Z</time></trkpt><trkpt lat="42.6867126" lon="-3.7961894"><ele>904.0</ele><time>2026-05-02T16:46:51.9Z</time></trkpt><trkpt lat="42.6865253" lon="-3.7961429"><ele>904.0</ele><time>2026-05-02T16:46:52.898Z</time></trkpt><trkpt lat="42.6863364" lon="-3.7961305"><ele>904.0</ele><time>2026-05-02T16:46:53.896Z</time></trkpt><trkpt lat="42.6861548" lon="-3.7961372"><ele>904.0</ele><time>2026-05-02T16:46:54.898Z</time></trkpt><trkpt lat="42.6859693" lon="-3.7961584"><ele>904.0</ele><time>2026-05-02T16:46:55.9Z</time></trkpt><trkpt lat="42.6857871" lon="-3.7961906"><ele>904.0</ele><time>2026-05-02T16:46:56.903Z</time></trkpt><trkpt lat="42.685609" lon="-3.7962445"><ele>904.0</ele><time>2026-05-02T16:46:57.907Z</time></trkpt><trkpt lat="42.6854336" lon="-3.796307"><ele>908.0</ele><time>2026-05-02T16:46:58.903Z</time></trkpt><trkpt lat="42.6852622" lon="-3.7963899"><ele>912.0</ele><time>2026-05-02T16:46:59.907Z</time></trkpt><trkpt lat="42.6850982" lon="-3.7964809"><ele>916.0</ele><time>2026-05-02T16:47:00.91Z</time></trkpt><trkpt lat="42.6849381" lon="-3.7965882"><ele>916.0</ele><time>2026-05-02T16:47:01.906Z</time></trkpt><trkpt lat="42.6847944" lon="-3.7966939"><ele>916.0</ele><time>2026-05-02T16:47:02.905Z</time></trkpt><trkpt lat="42.6846512" lon="-3.7967957"><ele>916.0</ele><time>2026-05-02T16:47:03.91Z</time></trkpt><trkpt lat="42.6845022" lon="-3.7968992"><ele>919.6666666666666</ele><time>2026-05-02T16:47:04.908Z</time></trkpt><trkpt lat="42.6843538" lon="-3.7969993"><ele>923.3333333333333</ele><time>2026-05-02T16:47:05.913Z</time></trkpt><trkpt lat="42.6842038" lon="-3.7971037"><ele>927.0</ele><time>2026-05-02T16:47:06.913Z</time></trkpt><trkpt lat="42.6840532" lon="-3.7971984"><ele>927.0</ele><time>2026-05-02T16:47:07.911Z</time></trkpt><trkpt lat="42.6839044" lon="-3.7973028"><ele>927.0</ele><time>2026-05-02T16:47:08.914Z</time></trkpt><trkpt lat="42.6837569" lon="-3.7974"><ele>927.0</ele><time>2026-05-02T16:47:09.916Z</time></trkpt><trkpt lat="42.6836091" lon="-3.797488"><ele>925.6666666666667</ele><time>2026-05-02T16:47:10.913Z</time></trkpt><trkpt lat="42.6834636" lon="-3.7975794"><ele>924.3333333333334</ele><time>2026-05-02T16:47:11.909Z</time></trkpt><trkpt lat="42.6833123" lon="-3.7976648"><ele>923.0</ele><time>2026-05-02T16:47:12.915Z</time></trkpt><trkpt lat="42.6831567" lon="-3.7977477"><ele>923.0</ele><time>2026-05-02T16:47:13.914Z</time></trkpt><trkpt lat="42.6829973" lon="-3.7978306"><ele>923.0</ele><time>2026-05-02T16:47:14.91Z</time></trkpt><trkpt lat="42.6828307" lon="-3.7979042"><ele>923.0</ele><time>2026-05-02T16:47:15.911Z</time></trkpt><trkpt lat="42.6826672" lon="-3.7979778"><ele>926.0</ele><time>2026-05-02T16:47:16.91Z</time></trkpt><trkpt lat="42.6825079" lon="-3.798047"><ele>929.0</ele><time>2026-05-02T16:47:17.909Z</time></trkpt><trkpt lat="42.6823501" lon="-3.7981229"><ele>932.0</ele><time>2026-05-02T16:47:18.919Z</time></trkpt><trkpt lat="42.6821896" lon="-3.7981972"><ele>932.0</ele><time>2026-05-02T16:47:19.909Z</time></trkpt><trkpt lat="42.682031" lon="-3.798263"><ele>932.0</ele><time>2026-05-02T16:47:20.908Z</time></trkpt><trkpt lat="42.6818693" lon="-3.7983024"><ele>932.0</ele><time>2026-05-02T16:47:21.908Z</time></trkpt><trkpt lat="42.6817059" lon="-3.798318"><ele>935.0</ele><time>2026-05-02T16:47:22.907Z</time></trkpt><trkpt lat="42.6815505" lon="-3.7983103"><ele>938.0</ele><time>2026-05-02T16:47:23.908Z</time></trkpt><trkpt lat="42.6813848" lon="-3.7982663"><ele>941.0</ele><time>2026-05-02T16:47:24.908Z</time></trkpt><trkpt lat="42.6812236" lon="-3.7982097"><ele>941.3333333333334</ele><time>2026-05-02T16:47:25.907Z</time></trkpt><trkpt lat="42.6810769" lon="-3.7981368"><ele>941.6666666666667</ele><time>2026-05-02T16:47:26.911Z</time></trkpt><trkpt lat="42.6809274" lon="-3.7980477"><ele>942.0</ele><time>2026-05-02T16:47:27.913Z</time></trkpt><trkpt lat="42.6807823" lon="-3.797947"><ele>942.0</ele><time>2026-05-02T16:47:28.912Z</time></trkpt><trkpt lat="42.680638" lon="-3.7978468"><ele>942.0</ele><time>2026-05-02T16:47:29.915Z</time></trkpt><trkpt lat="42.6804958" lon="-3.7977541"><ele>942.0</ele><time>2026-05-02T16:47:30.92Z</time></trkpt><trkpt lat="42.6803535" lon="-3.7976649"><ele>945.0</ele><time>2026-05-02T16:47:31.91Z</time></trkpt><trkpt lat="42.6802206" lon="-3.7975804"><ele>948.0</ele><time>2026-05-02T16:47:32.907Z</time></trkpt><trkpt lat="42.6800877" lon="-3.7974835"><ele>951.0</ele><time>2026-05-02T16:47:33.907Z</time></trkpt><trkpt lat="42.6799618" lon="-3.79737"><ele>954.0</ele><time>2026-05-02T16:47:34.904Z</time></trkpt><trkpt lat="42.6798457" lon="-3.7972483"><ele>954.0</ele><time>2026-05-02T16:47:35.907Z</time></trkpt><trkpt lat="42.6797305" lon="-3.7971043"><ele>954.0</ele><time>2026-05-02T16:47:36.908Z</time></trkpt><trkpt lat="42.6796342" lon="-3.7969407"><ele>954.0</ele><time>2026-05-02T16:47:37.905Z</time></trkpt><trkpt lat="42.6795445" lon="-3.7967661"><ele>954.0</ele><time>2026-05-02T16:47:38.904Z</time></trkpt><trkpt lat="42.679463" lon="-3.796582"><ele>954.0</ele><time>2026-05-02T16:47:39.904Z</time></trkpt><trkpt lat="42.6794087" lon="-3.7963943"><ele>954.0</ele><time>2026-05-02T16:47:40.905Z</time></trkpt><trkpt lat="42.6793671" lon="-3.7961927"><ele>956.0</ele><time>2026-05-02T16:47:41.907Z</time></trkpt><trkpt lat="42.6793399" lon="-3.7959848"><ele>958.0</ele><time>2026-05-02T16:47:42.905Z</time></trkpt><trkpt lat="42.6793211" lon="-3.7957708"><ele>960.0</ele><time>2026-05-02T16:47:43.907Z</time></trkpt><trkpt lat="42.6793188" lon="-3.7955547"><ele>960.0</ele><time>2026-05-02T16:47:44.905Z</time></trkpt><trkpt lat="42.6793077" lon="-3.7953374"><ele>960.0</ele><time>2026-05-02T16:47:45.906Z</time></trkpt><trkpt lat="42.6792976" lon="-3.7951194"><ele>960.0</ele><time>2026-05-02T16:47:46.904Z</time></trkpt><trkpt lat="42.679282" lon="-3.7949029"><ele>961.6666666666667</ele><time>2026-05-02T16:47:47.905Z</time></trkpt><trkpt lat="42.6792751" lon="-3.7946867"><ele>963.3333333333334</ele><time>2026-05-02T16:47:48.904Z</time></trkpt><trkpt lat="42.6792642" lon="-3.7944676"><ele>965.0</ele><time>2026-05-02T16:47:49.916Z</time></trkpt><trkpt lat="42.6792519" lon="-3.7942555"><ele>966.3333333333334</ele><time>2026-05-02T16:47:50.895Z</time></trkpt><trkpt lat="42.6792432" lon="-3.7940338"><ele>967.6666666666667</ele><time>2026-05-02T16:47:51.912Z</time></trkpt><trkpt lat="42.6792303" lon="-3.7938122"><ele>969.0</ele><time>2026-05-02T16:47:52.908Z</time></trkpt><trkpt lat="42.6792135" lon="-3.7935928"><ele>970.3333333333333</ele><time>2026-05-02T16:47:53.911Z</time></trkpt><trkpt lat="42.6792017" lon="-3.7933801"><ele>971.6666666666666</ele><time>2026-05-02T16:47:54.905Z</time></trkpt><trkpt lat="42.6791777" lon="-3.7931669"><ele>973.0</ele><time>2026-05-02T16:47:55.9Z</time></trkpt><trkpt lat="42.6791413" lon="-3.7929576"><ele>973.0</ele><time>2026-05-02T16:47:56.905Z</time></trkpt><trkpt lat="42.6790903" lon="-3.792747"><ele>973.0</ele><time>2026-05-02T16:47:57.903Z</time></trkpt><trkpt lat="42.6790164" lon="-3.7925586"><ele>973.0</ele><time>2026-05-02T16:47:58.903Z</time></trkpt><trkpt lat="42.6789277" lon="-3.7923696"><ele>973.6666666666666</ele><time>2026-05-02T16:47:59.903Z</time></trkpt><trkpt lat="42.6788169" lon="-3.7922"><ele>974.3333333333333</ele><time>2026-05-02T16:48:00.907Z</time></trkpt><trkpt lat="42.6786972" lon="-3.7920524"><ele>975.0</ele><time>2026-05-02T16:48:01.905Z</time></trkpt><trkpt lat="42.67857" lon="-3.7919166"><ele>978.0</ele><time>2026-05-02T16:48:02.902Z</time></trkpt><trkpt lat="42.6784324" lon="-3.7918008"><ele>981.0</ele><time>2026-05-02T16:48:03.905Z</time></trkpt><trkpt lat="42.6782894" lon="-3.7917058"><ele>984.0</ele><time>2026-05-02T16:48:04.908Z</time></trkpt><trkpt lat="42.6781304" lon="-3.7916425"><ele>984.0</ele><time>2026-05-02T16:48:05.906Z</time></trkpt><trkpt lat="42.6779712" lon="-3.7915999"><ele>984.0</ele><time>2026-05-02T16:48:06.91Z</time></trkpt><trkpt lat="42.6778118" lon="-3.7915809"><ele>984.0</ele><time>2026-05-02T16:48:07.911Z</time></trkpt><trkpt lat="42.6776539" lon="-3.7915988"><ele>984.6666666666667</ele><time>2026-05-02T16:48:08.906Z</time></trkpt><trkpt lat="42.6775012" lon="-3.7916283"><ele>985.3333333333334</ele><time>2026-05-02T16:48:09.911Z</time></trkpt><trkpt lat="42.6773523" lon="-3.7916607"><ele>986.0</ele><time>2026-05-02T16:48:10.91Z</time></trkpt><trkpt lat="42.6772003" lon="-3.7916994"><ele>986.0</ele><time>2026-05-02T16:48:11.912Z</time></trkpt><trkpt lat="42.6770479" lon="-3.7917423"><ele>986.0</ele><time>2026-05-02T16:48:12.912Z</time></trkpt><trkpt lat="42.6768939" lon="-3.7917837"><ele>986.0</ele><time>2026-05-02T16:48:13.916Z</time></trkpt><trkpt lat="42.6767425" lon="-3.7918291"><ele>987.3333333333334</ele><time>2026-05-02T16:48:14.911Z</time></trkpt><trkpt lat="42.6765916" lon="-3.7918796"><ele>988.6666666666667</ele><time>2026-05-02T16:48:15.91Z</time></trkpt><trkpt lat="42.6764413" lon="-3.7919346"><ele>990.0</ele><time>2026-05-02T16:48:16.912Z</time></trkpt><trkpt lat="42.6762888" lon="-3.7919888"><ele>990.0</ele><time>2026-05-02T16:48:17.911Z</time></trkpt><trkpt lat="42.6761351" lon="-3.7920391"><ele>990.0</ele><time>2026-05-02T16:48:18.918Z</time></trkpt><trkpt lat="42.6759812" lon="-3.7920924"><ele>990.0</ele><time>2026-05-02T16:48:19.912Z</time></trkpt><trkpt lat="42.675835" lon="-3.7921363"><ele>992.25</ele><time>2026-05-02T16:48:20.922Z</time></trkpt><trkpt lat="42.6756845" lon="-3.7921781"><ele>994.5</ele><time>2026-05-02T16:48:21.914Z</time></trkpt><trkpt lat="42.6755371" lon="-3.7922166"><ele>996.75</ele><time>2026-05-02T16:48:22.915Z</time></trkpt><trkpt lat="42.6753953" lon="-3.7922508"><ele>999.0</ele><time>2026-05-02T16:48:23.912Z</time></trkpt><trkpt lat="42.675261" lon="-3.7922747"><ele>999.6666666666666</ele><time>2026-05-02T16:48:24.91Z</time></trkpt><trkpt lat="42.675144" lon="-3.7922876"><ele>1000.3333333333333</ele><time>2026-05-02T16:48:25.909Z</time></trkpt><trkpt lat="42.6750521" lon="-3.7922965"><ele>1001.0</ele><time>2026-05-02T16:48:26.913Z</time></trkpt><trkpt lat="42.6749846" lon="-3.7923061"><ele>1001.6666666666666</ele><time>2026-05-02T16:48:27.915Z</time></trkpt><trkpt lat="42.6749015" lon="-3.7922979"><ele>1002.3333333333333</ele><time>2026-05-02T16:48:29.91Z</time></trkpt><trkpt lat="42.674832" lon="-3.7922487"><ele>1003.0</ele><time>2026-05-02T16:52:08.913Z</time></trkpt><trkpt lat="42.6747129" lon="-3.7922269"><ele>1002.9999999999999</ele><time>2026-05-02T16:52:10.911Z</time></trkpt><trkpt lat="42.6746464" lon="-3.7922106"><ele>1003.0</ele><time>2026-05-02T16:52:11.913Z</time></trkpt><trkpt lat="42.674574" lon="-3.792189"><ele>1003.0</ele><time>2026-05-02T16:52:12.909Z</time></trkpt><trkpt lat="42.6744917" lon="-3.792164"><ele>1003.0</ele><time>2026-05-02T16:52:13.917Z</time></trkpt><trkpt lat="42.6743968" lon="-3.7921296"><ele>1002.9999999999999</ele><time>2026-05-02T16:52:14.912Z</time></trkpt><trkpt lat="42.6742949" lon="-3.7920864"><ele>1003.0</ele><time>2026-05-02T16:52:15.912Z</time></trkpt><trkpt lat="42.6741944" lon="-3.7920363"><ele>1003.5999999999999</ele><time>2026-05-02T16:52:16.912Z</time></trkpt><trkpt lat="42.6740921" lon="-3.7919803"><ele>1004.1999999999999</ele><time>2026-05-02T16:52:17.912Z</time></trkpt><trkpt lat="42.6739913" lon="-3.7919185"><ele>1004.8</ele><time>2026-05-02T16:52:18.912Z</time></trkpt><trkpt lat="42.6738917" lon="-3.7918495"><ele>1005.4</ele><time>2026-05-02T16:52:19.915Z</time></trkpt><trkpt lat="42.6737924" lon="-3.791773"><ele>1006.0</ele><time>2026-05-02T16:52:20.911Z</time></trkpt><trkpt lat="42.6736912" lon="-3.7916872"><ele>1005.8</ele><time>2026-05-02T16:52:21.913Z</time></trkpt><trkpt lat="42.6735881" lon="-3.7915994"><ele>1005.5999999999999</ele><time>2026-05-02T16:52:22.916Z</time></trkpt><trkpt lat="42.6734931" lon="-3.7915163"><ele>1005.4</ele><time>2026-05-02T16:52:23.909Z</time></trkpt><trkpt lat="42.6734015" lon="-3.7914406"><ele>1005.2</ele><time>2026-05-02T16:52:24.912Z</time></trkpt><trkpt lat="42.673316" lon="-3.7913757"><ele>1005.0</ele><time>2026-05-02T16:52:25.912Z</time></trkpt><trkpt lat="42.6732319" lon="-3.7913112"><ele>1005.0</ele><time>2026-05-02T16:52:26.915Z</time></trkpt><trkpt lat="42.6731527" lon="-3.7912525"><ele>1005.0</ele><time>2026-05-02T16:52:27.924Z</time></trkpt><trkpt lat="42.6730792" lon="-3.7911972"><ele>1005.0</ele><time>2026-05-02T16:52:28.913Z</time></trkpt><trkpt lat="42.673004" lon="-3.7911378"><ele>1005.0</ele><time>2026-05-02T16:52:29.912Z</time></trkpt><trkpt lat="42.6729336" lon="-3.7910841"><ele>1005.0</ele><time>2026-05-02T16:52:30.917Z</time></trkpt><trkpt lat="42.672866" lon="-3.7910238"><ele>1005.0</ele><time>2026-05-02T16:52:31.912Z</time></trkpt><trkpt lat="42.6727996" lon="-3.7909679"><ele>1005.4</ele><time>2026-05-02T16:52:32.91Z</time></trkpt><trkpt lat="42.6727262" lon="-3.7909108"><ele>1005.8</ele><time>2026-05-02T16:52:33.91Z</time></trkpt><trkpt lat="42.6726452" lon="-3.7908574"><ele>1006.2</ele><time>2026-05-02T16:52:34.912Z</time></trkpt><trkpt lat="42.6725625" lon="-3.7907947"><ele>1006.6</ele><time>2026-05-02T16:52:35.913Z</time></trkpt><trkpt lat="42.6724778" lon="-3.7907251"><ele>1007.0</ele><time>2026-05-02T16:52:36.914Z</time></trkpt><trkpt lat="42.6723913" lon="-3.7906504"><ele>1007.0</ele><time>2026-05-02T16:52:37.912Z</time></trkpt><trkpt lat="42.6723018" lon="-3.790577"><ele>1007.0</ele><time>2026-05-02T16:52:38.91Z</time></trkpt><trkpt lat="42.6722022" lon="-3.7905017"><ele>1007.0</ele><time>2026-05-02T16:52:39.91Z</time></trkpt><trkpt lat="42.6720931" lon="-3.790422"><ele>1007.0</ele><time>2026-05-02T16:52:40.91Z</time></trkpt><trkpt lat="42.6719811" lon="-3.7903413"><ele>1006.75</ele><time>2026-05-02T16:52:41.911Z</time></trkpt><trkpt lat="42.6718609" lon="-3.7902572"><ele>1006.5</ele><time>2026-05-02T16:52:42.906Z</time></trkpt><trkpt lat="42.6717373" lon="-3.7901673"><ele>1006.25</ele><time>2026-05-02T16:52:43.913Z</time></trkpt><trkpt lat="42.671609" lon="-3.7900753"><ele>1006.0</ele><time>2026-05-02T16:52:44.911Z</time></trkpt><trkpt lat="42.6714757" lon="-3.7899802"><ele>1005.3333333333333</ele><time>2026-05-02T16:52:45.916Z</time></trkpt><trkpt lat="42.6713295" lon="-3.7898782"><ele>1004.6666666666667</ele><time>2026-05-02T16:52:46.914Z</time></trkpt><trkpt lat="42.6711925" lon="-3.7897708"><ele>1004.0</ele><time>2026-05-02T16:52:47.914Z</time></trkpt><trkpt lat="42.6710526" lon="-3.7896605"><ele>1003.3333333333334</ele><time>2026-05-02T16:52:48.913Z</time></trkpt><trkpt lat="42.6709168" lon="-3.7895472"><ele>1002.6666666666667</ele><time>2026-05-02T16:52:49.911Z</time></trkpt><trkpt lat="42.6707728" lon="-3.7894216"><ele>1002.0</ele><time>2026-05-02T16:52:50.91Z</time></trkpt><trkpt lat="42.6706281" lon="-3.7892869"><ele>1002.0</ele><time>2026-05-02T16:52:51.916Z</time></trkpt><trkpt lat="42.6704815" lon="-3.7891612"><ele>1002.0</ele><time>2026-05-02T16:52:52.912Z</time></trkpt><trkpt lat="42.6703311" lon="-3.7890376"><ele>1002.0</ele><time>2026-05-02T16:52:53.913Z</time></trkpt><trkpt lat="42.6701763" lon="-3.7889124"><ele>1002.0</ele><time>2026-05-02T16:52:54.907Z</time></trkpt><trkpt lat="42.6700219" lon="-3.7887802"><ele>1002.0</ele><time>2026-05-02T16:52:55.905Z</time></trkpt><trkpt lat="42.6698775" lon="-3.7886438"><ele>1002.0</ele><time>2026-05-02T16:52:56.908Z</time></trkpt><trkpt lat="42.6697269" lon="-3.7885012"><ele>1002.0</ele><time>2026-05-02T16:52:57.912Z</time></trkpt><trkpt lat="42.6695763" lon="-3.7883544"><ele>1002.0</ele><time>2026-05-02T16:52:58.916Z</time></trkpt><trkpt lat="42.6694303" lon="-3.7882033"><ele>1002.0</ele><time>2026-05-02T16:52:59.913Z</time></trkpt><trkpt lat="42.6692778" lon="-3.7880506"><ele>1000.3333333333333</ele><time>2026-05-02T16:53:00.915Z</time></trkpt><trkpt lat="42.6691305" lon="-3.7878876"><ele>998.6666666666666</ele><time>2026-05-02T16:53:01.908Z</time></trkpt><trkpt lat="42.6689835" lon="-3.7877301"><ele>997.0</ele><time>2026-05-02T16:53:02.909Z</time></trkpt><trkpt lat="42.6688336" lon="-3.7875806"><ele>997.0</ele><time>2026-05-02T16:53:03.913Z</time></trkpt><trkpt lat="42.6686858" lon="-3.7874306"><ele>997.0</ele><time>2026-05-02T16:53:04.911Z</time></trkpt><trkpt lat="42.6685434" lon="-3.7872827"><ele>997.0</ele><time>2026-05-02T16:53:05.913Z</time></trkpt><trkpt lat="42.6684033" lon="-3.7871425"><ele>997.6666666666666</ele><time>2026-05-02T16:53:06.915Z</time></trkpt><trkpt lat="42.6682597" lon="-3.7870016"><ele>998.3333333333333</ele><time>2026-05-02T16:53:07.913Z</time></trkpt><trkpt lat="42.6681133" lon="-3.7868611"><ele>999.0</ele><time>2026-05-02T16:53:08.914Z</time></trkpt><trkpt lat="42.6679671" lon="-3.7867149"><ele>999.0</ele><time>2026-05-02T16:53:09.915Z</time></trkpt><trkpt lat="42.6678225" lon="-3.78657"><ele>999.0</ele><time>2026-05-02T16:53:10.908Z</time></trkpt><trkpt lat="42.6676783" lon="-3.7864236"><ele>999.0</ele><time>2026-05-02T16:53:11.909Z</time></trkpt><trkpt lat="42.6675349" lon="-3.7862709"><ele>999.0</ele><time>2026-05-02T16:53:12.91Z</time></trkpt><trkpt lat="42.6673917" lon="-3.7861204"><ele>999.0</ele><time>2026-05-02T16:53:13.915Z</time></trkpt><trkpt lat="42.6672529" lon="-3.785973"><ele>999.0</ele><time>2026-05-02T16:53:14.913Z</time></trkpt><trkpt lat="42.6671125" lon="-3.7858256"><ele>999.0</ele><time>2026-05-02T16:53:15.915Z</time></trkpt><trkpt lat="42.6669709" lon="-3.7856822"><ele>999.0</ele><time>2026-05-02T16:53:16.915Z</time></trkpt><trkpt lat="42.6668243" lon="-3.785534"><ele>999.0</ele><time>2026-05-02T16:53:17.917Z</time></trkpt><trkpt lat="42.66668" lon="-3.7853891"><ele>998.6666666666667</ele><time>2026-05-02T16:53:18.913Z</time></trkpt><trkpt lat="42.6665346" lon="-3.7852355"><ele>998.3333333333334</ele><time>2026-05-02T16:53:19.915Z</time></trkpt><trkpt lat="42.6663854" lon="-3.7850842"><ele>998.0</ele><time>2026-05-02T16:53:20.909Z</time></trkpt><trkpt lat="42.6662391" lon="-3.7849346"><ele>998.0</ele><time>2026-05-02T16:53:21.91Z</time></trkpt><trkpt lat="42.6660947" lon="-3.7847917"><ele>998.0</ele><time>2026-05-02T16:53:22.912Z</time></trkpt><trkpt lat="42.6659506" lon="-3.7846541"><ele>998.0</ele><time>2026-05-02T16:53:23.908Z</time></trkpt><trkpt lat="42.6658003" lon="-3.7845145"><ele>998.0</ele><time>2026-05-02T16:53:24.907Z</time></trkpt><trkpt lat="42.6656504" lon="-3.7843599"><ele>998.0</ele><time>2026-05-02T16:53:25.912Z</time></trkpt><trkpt lat="42.6655099" lon="-3.7842098"><ele>998.0</ele><time>2026-05-02T16:53:26.907Z</time></trkpt><trkpt lat="42.6653818" lon="-3.7840619"><ele>997.0</ele><time>2026-05-02T16:53:27.91Z</time></trkpt><trkpt lat="42.665249" lon="-3.7839081"><ele>996.0</ele><time>2026-05-02T16:53:28.906Z</time></trkpt><trkpt lat="42.6651231" lon="-3.7837426"><ele>995.0</ele><time>2026-05-02T16:53:29.93Z</time></trkpt><trkpt lat="42.6650033" lon="-3.783577"><ele>996.6666666666667</ele><time>2026-05-02T16:53:30.91Z</time></trkpt><trkpt lat="42.6648797" lon="-3.7834125"><ele>998.3333333333333</ele><time>2026-05-02T16:53:31.906Z</time></trkpt><trkpt lat="42.6647597" lon="-3.7832317"><ele>1000.0</ele><time>2026-05-02T16:53:32.914Z</time></trkpt><trkpt lat="42.6646462" lon="-3.7830498"><ele>1000.0</ele><time>2026-05-02T16:53:33.914Z</time></trkpt><trkpt lat="42.6645237" lon="-3.7828586"><ele>1000.0</ele><time>2026-05-02T16:53:34.903Z</time></trkpt><trkpt lat="42.6644132" lon="-3.7826697"><ele>1000.0</ele><time>2026-05-02T16:53:35.912Z</time></trkpt><trkpt lat="42.6643149" lon="-3.7824862"><ele>998.3333333333333</ele><time>2026-05-02T16:53:36.913Z</time></trkpt><trkpt lat="42.6642098" lon="-3.7823076"><ele>996.6666666666667</ele><time>2026-05-02T16:53:37.914Z</time></trkpt><trkpt lat="42.6640974" lon="-3.7821074"><ele>995.0</ele><time>2026-05-02T16:53:38.912Z</time></trkpt><trkpt lat="42.663988" lon="-3.781925"><ele>995.3333333333334</ele><time>2026-05-02T16:53:39.91Z</time></trkpt><trkpt lat="42.6638858" lon="-3.7817485"><ele>995.6666666666667</ele><time>2026-05-02T16:53:40.908Z</time></trkpt><trkpt lat="42.6637808" lon="-3.781562"><ele>996.0</ele><time>2026-05-02T16:53:41.907Z</time></trkpt><trkpt lat="42.6636795" lon="-3.7813799"><ele>996.3333333333333</ele><time>2026-05-02T16:53:42.912Z</time></trkpt><trkpt lat="42.6635687" lon="-3.7811934"><ele>996.6666666666666</ele><time>2026-05-02T16:53:43.91Z</time></trkpt><trkpt lat="42.6634598" lon="-3.7810142"><ele>997.0</ele><time>2026-05-02T16:53:44.899Z</time></trkpt><trkpt lat="42.6633487" lon="-3.7808221"><ele>995.6666666666666</ele><time>2026-05-02T16:53:45.903Z</time></trkpt><trkpt lat="42.6632368" lon="-3.7806386"><ele>994.3333333333333</ele><time>2026-05-02T16:53:46.904Z</time></trkpt><trkpt lat="42.6631199" lon="-3.7804504"><ele>993.0</ele><time>2026-05-02T16:53:47.907Z</time></trkpt><trkpt lat="42.663002" lon="-3.7802658"><ele>992.6666666666667</ele><time>2026-05-02T16:53:48.903Z</time></trkpt><trkpt lat="42.6628822" lon="-3.780067"><ele>992.3333333333334</ele><time>2026-05-02T16:53:49.913Z</time></trkpt><trkpt lat="42.6627607" lon="-3.779863"><ele>992.0</ele><time>2026-05-02T16:53:50.911Z</time></trkpt><trkpt lat="42.6626392" lon="-3.7796626"><ele>992.0</ele><time>2026-05-02T16:53:51.914Z</time></trkpt><trkpt lat="42.6625142" lon="-3.77946"><ele>992.0</ele><time>2026-05-02T16:53:52.914Z</time></trkpt><trkpt lat="42.6623911" lon="-3.7792562"><ele>992.0</ele><time>2026-05-02T16:53:53.915Z</time></trkpt><trkpt lat="42.6622688" lon="-3.7790572"><ele>992.3333333333334</ele><time>2026-05-02T16:53:54.914Z</time></trkpt><trkpt lat="42.6621436" lon="-3.7788505"><ele>992.6666666666667</ele><time>2026-05-02T16:53:55.912Z</time></trkpt><trkpt lat="42.6620162" lon="-3.778639"><ele>993.0</ele><time>2026-05-02T16:53:56.912Z</time></trkpt><trkpt lat="42.6618846" lon="-3.7784257"><ele>994.3333333333333</ele><time>2026-05-02T16:53:57.912Z</time></trkpt><trkpt lat="42.6617565" lon="-3.7782097"><ele>995.6666666666666</ele><time>2026-05-02T16:53:58.908Z</time></trkpt><trkpt lat="42.6616221" lon="-3.777988"><ele>997.0</ele><time>2026-05-02T16:53:59.925Z</time></trkpt><trkpt lat="42.6614794" lon="-3.7777613"><ele>997.0</ele><time>2026-05-02T16:54:00.913Z</time></trkpt><trkpt lat="42.6613431" lon="-3.7775343"><ele>997.0</ele><time>2026-05-02T16:54:01.907Z</time></trkpt><trkpt lat="42.6612193" lon="-3.7773158"><ele>997.0</ele><time>2026-05-02T16:54:02.906Z</time></trkpt><trkpt lat="42.6610886" lon="-3.7770931"><ele>997.0</ele><time>2026-05-02T16:54:03.907Z</time></trkpt><trkpt lat="42.6609473" lon="-3.7768656"><ele>997.0</ele><time>2026-05-02T16:54:04.906Z</time></trkpt><trkpt lat="42.6608118" lon="-3.7766365"><ele>997.0</ele><time>2026-05-02T16:54:05.908Z</time></trkpt><trkpt lat="42.6606725" lon="-3.7764074"><ele>997.6666666666666</ele><time>2026-05-02T16:54:06.907Z</time></trkpt><trkpt lat="42.6605389" lon="-3.7761768"><ele>998.3333333333333</ele><time>2026-05-02T16:54:07.909Z</time></trkpt><trkpt lat="42.6603982" lon="-3.7759477"><ele>999.0</ele><time>2026-05-02T16:54:08.91Z</time></trkpt><trkpt lat="42.6602596" lon="-3.7757235"><ele>999.3333333333333</ele><time>2026-05-02T16:54:09.911Z</time></trkpt><trkpt lat="42.6601165" lon="-3.7754917"><ele>999.6666666666666</ele><time>2026-05-02T16:54:10.907Z</time></trkpt><trkpt lat="42.6599764" lon="-3.7752551"><ele>1000.0</ele><time>2026-05-02T16:54:11.91Z</time></trkpt><trkpt lat="42.6598362" lon="-3.7750176"><ele>1000.0</ele><time>2026-05-02T16:54:12.911Z</time></trkpt><trkpt lat="42.6596945" lon="-3.7747696"><ele>1000.0</ele><time>2026-05-02T16:54:13.909Z</time></trkpt><trkpt lat="42.6595542" lon="-3.774525"><ele>1001.5</ele><time>2026-05-02T16:54:14.909Z</time></trkpt><trkpt lat="42.6594121" lon="-3.7742803"><ele>1003.0</ele><time>2026-05-02T16:54:15.909Z</time></trkpt><trkpt lat="42.6592636" lon="-3.7740389"><ele>1003.0</ele><time>2026-05-02T16:54:16.909Z</time></trkpt><trkpt lat="42.6591165" lon="-3.7738086"><ele>1003.0</ele><time>2026-05-02T16:54:17.911Z</time></trkpt><trkpt lat="42.65897" lon="-3.7735709"><ele>1004.0</ele><time>2026-05-02T16:54:18.913Z</time></trkpt><trkpt lat="42.6588193" lon="-3.7733376"><ele>1005.0</ele><time>2026-05-02T16:54:19.914Z</time></trkpt><trkpt lat="42.6586736" lon="-3.7730933"><ele>1005.5</ele><time>2026-05-02T16:54:20.909Z</time></trkpt><trkpt lat="42.6585357" lon="-3.7728558"><ele>1006.0</ele><time>2026-05-02T16:54:21.907Z</time></trkpt><trkpt lat="42.6583899" lon="-3.7726175"><ele>1005.0</ele><time>2026-05-02T16:54:22.903Z</time></trkpt><trkpt lat="42.6582487" lon="-3.7723712"><ele>1004.0</ele><time>2026-05-02T16:54:23.906Z</time></trkpt><trkpt lat="42.6581062" lon="-3.7721252"><ele>1004.0</ele><time>2026-05-02T16:54:24.905Z</time></trkpt><trkpt lat="42.6579579" lon="-3.7718787"><ele>1004.0</ele><time>2026-05-02T16:54:25.909Z</time></trkpt><trkpt lat="42.6578161" lon="-3.7716359"><ele>1006.5</ele><time>2026-05-02T16:54:26.909Z</time></trkpt><trkpt lat="42.657672" lon="-3.7713913"><ele>1009.0</ele><time>2026-05-02T16:54:27.91Z</time></trkpt><trkpt lat="42.6575292" lon="-3.7711504"><ele>1009.0</ele><time>2026-05-02T16:54:28.908Z</time></trkpt><trkpt lat="42.6573859" lon="-3.7709063"><ele>1009.0</ele><time>2026-05-02T16:54:29.912Z</time></trkpt><trkpt lat="42.6572422" lon="-3.7706714"><ele>1009.0</ele><time>2026-05-02T16:54:30.926Z</time></trkpt><trkpt lat="42.6569595" lon="-3.7702052"><ele>1009.0</ele><time>2026-05-02T16:54:32.906Z</time></trkpt><trkpt lat="42.6568148" lon="-3.7699682"><ele>1012.0</ele><time>2026-05-02T16:54:33.906Z</time></trkpt><trkpt lat="42.6566704" lon="-3.7697302"><ele>1015.0</ele><time>2026-05-02T16:54:34.908Z</time></trkpt><trkpt lat="42.6565241" lon="-3.7694825"><ele>1014.0</ele><time>2026-05-02T16:54:35.909Z</time></trkpt><trkpt lat="42.656371" lon="-3.7692419"><ele>1013.0</ele><time>2026-05-02T16:54:36.908Z</time></trkpt><trkpt lat="42.6562333" lon="-3.7689999"><ele>1014.5</ele><time>2026-05-02T16:54:37.908Z</time></trkpt><trkpt lat="42.656083" lon="-3.768756"><ele>1016.0</ele><time>2026-05-02T16:54:38.908Z</time></trkpt><trkpt lat="42.6559341" lon="-3.7685145"><ele>1016.5</ele><time>2026-05-02T16:54:39.909Z</time></trkpt><trkpt lat="42.6557818" lon="-3.7682673"><ele>1017.0</ele><time>2026-05-02T16:54:40.908Z</time></trkpt><trkpt lat="42.6556348" lon="-3.7680262"><ele>1017.0</ele><time>2026-05-02T16:54:41.911Z</time></trkpt><trkpt lat="42.6554938" lon="-3.7677879"><ele>1017.0</ele><time>2026-05-02T16:54:42.909Z</time></trkpt><trkpt lat="42.6553479" lon="-3.7675568"><ele>1017.0</ele><time>2026-05-02T16:54:43.912Z</time></trkpt><trkpt lat="42.6552077" lon="-3.7673223"><ele>1019.5</ele><time>2026-05-02T16:54:44.909Z</time></trkpt><trkpt lat="42.6550645" lon="-3.7670841"><ele>1022.0</ele><time>2026-05-02T16:54:45.921Z</time></trkpt><trkpt lat="42.654924" lon="-3.7668455"><ele>1022.5</ele><time>2026-05-02T16:54:46.921Z</time></trkpt><trkpt lat="42.6547803" lon="-3.7666018"><ele>1023.0</ele><time>2026-05-02T16:54:47.921Z</time></trkpt><trkpt lat="42.6546386" lon="-3.7663647"><ele>1023.0</ele><time>2026-05-02T16:54:48.922Z</time></trkpt><trkpt lat="42.6544961" lon="-3.7661277"><ele>1023.0</ele><time>2026-05-02T16:54:49.923Z</time></trkpt><trkpt lat="42.6543528" lon="-3.7658859"><ele>1024.0</ele><time>2026-05-02T16:54:50.918Z</time></trkpt><trkpt lat="42.6542088" lon="-3.7656444"><ele>1025.0</ele><time>2026-05-02T16:54:51.928Z</time></trkpt><trkpt lat="42.6540617" lon="-3.7653982"><ele>1025.0</ele><time>2026-05-02T16:54:52.922Z</time></trkpt><trkpt lat="42.6539077" lon="-3.7651522"><ele>1025.0</ele><time>2026-05-02T16:54:53.921Z</time></trkpt><trkpt lat="42.6537592" lon="-3.7649044"><ele>1025.5</ele><time>2026-05-02T16:54:54.92Z</time></trkpt><trkpt lat="42.6536096" lon="-3.7646599"><ele>1026.0</ele><time>2026-05-02T16:54:55.921Z</time></trkpt><trkpt lat="42.6534603" lon="-3.7644144"><ele>1027.0</ele><time>2026-05-02T16:54:56.923Z</time></trkpt><trkpt lat="42.6533093" lon="-3.7641728"><ele>1028.0</ele><time>2026-05-02T16:54:57.923Z</time></trkpt><trkpt lat="42.6531614" lon="-3.7639273"><ele>1029.0</ele><time>2026-05-02T16:54:58.918Z</time></trkpt><trkpt lat="42.6528704" lon="-3.763438"><ele>1030.0</ele><time>2026-05-02T16:55:00.932Z</time></trkpt><trkpt lat="42.6527217" lon="-3.7631903"><ele>1031.0</ele><time>2026-05-02T16:55:01.927Z</time></trkpt><trkpt lat="42.6525744" lon="-3.7629466"><ele>1031.0</ele><time>2026-05-02T16:55:02.918Z</time></trkpt><trkpt lat="42.6524249" lon="-3.762703"><ele>1031.0</ele><time>2026-05-02T16:55:03.921Z</time></trkpt><trkpt lat="42.65228" lon="-3.7624599"><ele>1031.5</ele><time>2026-05-02T16:55:04.922Z</time></trkpt><trkpt lat="42.6521307" lon="-3.762211"><ele>1032.0</ele><time>2026-05-02T16:55:05.921Z</time></trkpt><trkpt lat="42.6519801" lon="-3.7619565"><ele>1031.0</ele><time>2026-05-02T16:55:06.921Z</time></trkpt><trkpt lat="42.6518222" lon="-3.7617014"><ele>1030.0</ele><time>2026-05-02T16:55:07.923Z</time></trkpt><trkpt lat="42.6516703" lon="-3.7614401"><ele>1030.0</ele><time>2026-05-02T16:55:08.923Z</time></trkpt><trkpt lat="42.6515135" lon="-3.7611796"><ele>1030.0</ele><time>2026-05-02T16:55:09.925Z</time></trkpt><trkpt lat="42.6513584" lon="-3.7609227"><ele>1030.0</ele><time>2026-05-02T16:55:10.923Z</time></trkpt><trkpt lat="42.6512055" lon="-3.7606677"><ele>1030.0</ele><time>2026-05-02T16:55:11.928Z</time></trkpt><trkpt lat="42.6510536" lon="-3.7604142"><ele>1030.5</ele><time>2026-05-02T16:55:12.922Z</time></trkpt><trkpt lat="42.6508974" lon="-3.7601517"><ele>1031.0</ele><time>2026-05-02T16:55:13.924Z</time></trkpt><trkpt lat="42.6507434" lon="-3.7598929"><ele>1031.0</ele><time>2026-05-02T16:55:14.926Z</time></trkpt><trkpt lat="42.6505921" lon="-3.7596414"><ele>1031.0</ele><time>2026-05-02T16:55:15.924Z</time></trkpt><trkpt lat="42.6504396" lon="-3.7593896"><ele>1033.0</ele><time>2026-05-02T16:55:16.923Z</time></trkpt><trkpt lat="42.6502824" lon="-3.7591392"><ele>1035.0</ele><time>2026-05-02T16:55:17.924Z</time></trkpt><trkpt lat="42.650129" lon="-3.7588864"><ele>1035.0</ele><time>2026-05-02T16:55:18.918Z</time></trkpt><trkpt lat="42.649978" lon="-3.7586309"><ele>1035.0</ele><time>2026-05-02T16:55:19.925Z</time></trkpt><trkpt lat="42.6498236" lon="-3.7583822"><ele>1035.5</ele><time>2026-05-02T16:55:20.918Z</time></trkpt><trkpt lat="42.6496756" lon="-3.7581329"><ele>1036.0</ele><time>2026-05-02T16:55:21.925Z</time></trkpt><trkpt lat="42.6495317" lon="-3.7578921"><ele>1038.0</ele><time>2026-05-02T16:55:22.923Z</time></trkpt><trkpt lat="42.6493902" lon="-3.7576516"><ele>1040.0</ele><time>2026-05-02T16:55:23.924Z</time></trkpt><trkpt lat="42.649247" lon="-3.7574096"><ele>1040.0</ele><time>2026-05-02T16:55:24.924Z</time></trkpt><trkpt lat="42.6490976" lon="-3.7571666"><ele>1040.0</ele><time>2026-05-02T16:55:25.927Z</time></trkpt><trkpt lat="42.6489509" lon="-3.7569272"><ele>1040.0</ele><time>2026-05-02T16:55:26.922Z</time></trkpt><trkpt lat="42.6488108" lon="-3.7566926"><ele>1040.0</ele><time>2026-05-02T16:55:27.929Z</time></trkpt><trkpt lat="42.6486659" lon="-3.7564586"><ele>1040.0</ele><time>2026-05-02T16:55:28.921Z</time></trkpt><trkpt lat="42.6485265" lon="-3.7562203"><ele>1040.0</ele><time>2026-05-02T16:55:29.925Z</time></trkpt><trkpt lat="42.6483873" lon="-3.7559893"><ele>1040.0</ele><time>2026-05-02T16:55:30.928Z</time></trkpt><trkpt lat="42.6482502" lon="-3.7557579"><ele>1040.0</ele><time>2026-05-02T16:55:31.92Z</time></trkpt><trkpt lat="42.6481079" lon="-3.7555311"><ele>1040.0</ele><time>2026-05-02T16:55:32.929Z</time></trkpt><trkpt lat="42.647967" lon="-3.7552979"><ele>1040.0</ele><time>2026-05-02T16:55:33.918Z</time></trkpt><trkpt lat="42.6478316" lon="-3.7550652"><ele>1040.0</ele><time>2026-05-02T16:55:34.923Z</time></trkpt><trkpt lat="42.6476958" lon="-3.7548391"><ele>1041.0</ele><time>2026-05-02T16:55:35.918Z</time></trkpt><trkpt lat="42.6475605" lon="-3.7546181"><ele>1042.0</ele><time>2026-05-02T16:55:36.924Z</time></trkpt><trkpt lat="42.647427" lon="-3.7544038"><ele>1043.0</ele><time>2026-05-02T16:55:37.916Z</time></trkpt><trkpt lat="42.6472962" lon="-3.7541842"><ele>1043.6666666666667</ele><time>2026-05-02T16:55:38.917Z</time></trkpt><trkpt lat="42.6471621" lon="-3.7539656"><ele>1044.3333333333333</ele><time>2026-05-02T16:55:39.918Z</time></trkpt><trkpt lat="42.6470344" lon="-3.7537476"><ele>1045.0</ele><time>2026-05-02T16:55:40.914Z</time></trkpt><trkpt lat="42.6469031" lon="-3.7535279"><ele>1045.0</ele><time>2026-05-02T16:55:41.916Z</time></trkpt><trkpt lat="42.6467741" lon="-3.7533088"><ele>1045.0</ele><time>2026-05-02T16:55:42.917Z</time></trkpt><trkpt lat="42.6466437" lon="-3.7530914"><ele>1045.0</ele><time>2026-05-02T16:55:43.921Z</time></trkpt><trkpt lat="42.646514" lon="-3.7528738"><ele>1045.6666666666665</ele><time>2026-05-02T16:55:44.916Z</time></trkpt><trkpt lat="42.6463816" lon="-3.7526644"><ele>1046.3333333333333</ele><time>2026-05-02T16:55:45.918Z</time></trkpt><trkpt lat="42.6462551" lon="-3.7524514"><ele>1047.0</ele><time>2026-05-02T16:55:46.916Z</time></trkpt><trkpt lat="42.6461293" lon="-3.7522417"><ele>1047.3333333333333</ele><time>2026-05-02T16:55:47.923Z</time></trkpt><trkpt lat="42.6460019" lon="-3.7520324"><ele>1047.6666666666665</ele><time>2026-05-02T16:55:48.923Z</time></trkpt><trkpt lat="42.6458777" lon="-3.7518265"><ele>1048.0</ele><time>2026-05-02T16:55:49.92Z</time></trkpt><trkpt lat="42.6457486" lon="-3.7516217"><ele>1048.3333333333333</ele><time>2026-05-02T16:55:50.919Z</time></trkpt><trkpt lat="42.6456239" lon="-3.7514154"><ele>1048.6666666666667</ele><time>2026-05-02T16:55:51.923Z</time></trkpt><trkpt lat="42.6454963" lon="-3.7512064"><ele>1049.0</ele><time>2026-05-02T16:55:52.921Z</time></trkpt><trkpt lat="42.6453731" lon="-3.7509998"><ele>1048.6666666666667</ele><time>2026-05-02T16:55:53.923Z</time></trkpt><trkpt lat="42.6452476" lon="-3.750789"><ele>1048.3333333333333</ele><time>2026-05-02T16:55:54.92Z</time></trkpt><trkpt lat="42.6451193" lon="-3.7505753"><ele>1048.0</ele><time>2026-05-02T16:55:55.92Z</time></trkpt><trkpt lat="42.6449949" lon="-3.7503672"><ele>1048.0</ele><time>2026-05-02T16:55:56.923Z</time></trkpt><trkpt lat="42.6448713" lon="-3.7501571"><ele>1048.0</ele><time>2026-05-02T16:55:57.926Z</time></trkpt><trkpt lat="42.6447469" lon="-3.7499461"><ele>1048.0</ele><time>2026-05-02T16:55:58.924Z</time></trkpt><trkpt lat="42.6446199" lon="-3.7497363"><ele>1048.0</ele><time>2026-05-02T16:55:59.924Z</time></trkpt><trkpt lat="42.6444932" lon="-3.7495266"><ele>1048.0</ele><time>2026-05-02T16:56:00.926Z</time></trkpt><trkpt lat="42.6443683" lon="-3.7493255"><ele>1048.0</ele><time>2026-05-02T16:56:01.923Z</time></trkpt><trkpt lat="42.6442391" lon="-3.7491152"><ele>1048.0</ele><time>2026-05-02T16:56:02.922Z</time></trkpt><trkpt lat="42.6441105" lon="-3.7489055"><ele>1048.0</ele><time>2026-05-02T16:56:03.935Z</time></trkpt><trkpt lat="42.6439861" lon="-3.7487014"><ele>1048.0</ele><time>2026-05-02T16:56:04.921Z</time></trkpt><trkpt lat="42.6438614" lon="-3.7484936"><ele>1048.0</ele><time>2026-05-02T16:56:05.922Z</time></trkpt><trkpt lat="42.6437363" lon="-3.7482828"><ele>1048.0</ele><time>2026-05-02T16:56:06.922Z</time></trkpt><trkpt lat="42.643609" lon="-3.7480726"><ele>1048.0</ele><time>2026-05-02T16:56:07.921Z</time></trkpt><trkpt lat="42.6434899" lon="-3.747872"><ele>1049.6666666666665</ele><time>2026-05-02T16:56:08.921Z</time></trkpt><trkpt lat="42.6433786" lon="-3.7476815"><ele>1051.3333333333333</ele><time>2026-05-02T16:56:09.924Z</time></trkpt><trkpt lat="42.6432679" lon="-3.7474961"><ele>1053.0</ele><time>2026-05-02T16:56:10.922Z</time></trkpt><trkpt lat="42.643158" lon="-3.7473135"><ele>1053.0</ele><time>2026-05-02T16:56:11.921Z</time></trkpt><trkpt lat="42.6430455" lon="-3.747134"><ele>1053.0</ele><time>2026-05-02T16:56:12.924Z</time></trkpt><trkpt lat="42.6429371" lon="-3.746954"><ele>1053.0</ele><time>2026-05-02T16:56:13.922Z</time></trkpt><trkpt lat="42.642826" lon="-3.746778"><ele>1052.3333333333333</ele><time>2026-05-02T16:56:14.925Z</time></trkpt><trkpt lat="42.642721" lon="-3.7465944"><ele>1051.6666666666665</ele><time>2026-05-02T16:56:15.923Z</time></trkpt><trkpt lat="42.6426145" lon="-3.7464211"><ele>1051.0</ele><time>2026-05-02T16:56:16.923Z</time></trkpt><trkpt lat="42.6425046" lon="-3.7462405"><ele>1051.0</ele><time>2026-05-02T16:56:17.926Z</time></trkpt><trkpt lat="42.6423951" lon="-3.7460618"><ele>1051.0</ele><time>2026-05-02T16:56:18.922Z</time></trkpt><trkpt lat="42.642288" lon="-3.7458828"><ele>1051.0</ele><time>2026-05-02T16:56:19.925Z</time></trkpt><trkpt lat="42.6421769" lon="-3.7457066"><ele>1050.3333333333333</ele><time>2026-05-02T16:56:20.922Z</time></trkpt><trkpt lat="42.6420601" lon="-3.7455211"><ele>1049.6666666666667</ele><time>2026-05-02T16:56:21.93Z</time></trkpt><trkpt lat="42.6419564" lon="-3.7453453"><ele>1049.0</ele><time>2026-05-02T16:56:22.922Z</time></trkpt><trkpt lat="42.6418481" lon="-3.7451754"><ele>1048.0</ele><time>2026-05-02T16:56:23.922Z</time></trkpt><trkpt lat="42.6417401" lon="-3.744997"><ele>1047.0</ele><time>2026-05-02T16:56:24.924Z</time></trkpt><trkpt lat="42.641636" lon="-3.744822"><ele>1046.0</ele><time>2026-05-02T16:56:25.922Z</time></trkpt><trkpt lat="42.6415259" lon="-3.7446441"><ele>1046.0</ele><time>2026-05-02T16:56:26.924Z</time></trkpt><trkpt lat="42.641416" lon="-3.7444695"><ele>1046.0</ele><time>2026-05-02T16:56:27.927Z</time></trkpt><trkpt lat="42.6413094" lon="-3.7442956"><ele>1046.0</ele><time>2026-05-02T16:56:28.921Z</time></trkpt><trkpt lat="42.6412018" lon="-3.7441232"><ele>1044.6666666666667</ele><time>2026-05-02T16:56:29.928Z</time></trkpt><trkpt lat="42.6410974" lon="-3.743956"><ele>1043.3333333333333</ele><time>2026-05-02T16:56:30.928Z</time></trkpt><trkpt lat="42.6409934" lon="-3.7437882"><ele>1042.0</ele><time>2026-05-02T16:56:31.923Z</time></trkpt><trkpt lat="42.6408909" lon="-3.7436229"><ele>1042.6666666666665</ele><time>2026-05-02T16:56:32.923Z</time></trkpt><trkpt lat="42.6407879" lon="-3.7434547"><ele>1043.3333333333333</ele><time>2026-05-02T16:56:33.923Z</time></trkpt><trkpt lat="42.640689" lon="-3.7432908"><ele>1044.0</ele><time>2026-05-02T16:56:34.931Z</time></trkpt><trkpt lat="42.6405904" lon="-3.7431322"><ele>1044.0</ele><time>2026-05-02T16:56:35.921Z</time></trkpt><trkpt lat="42.6404966" lon="-3.7429763"><ele>1044.0</ele><time>2026-05-02T16:56:36.924Z</time></trkpt><trkpt lat="42.6404046" lon="-3.7428263"><ele>1044.0</ele><time>2026-05-02T16:56:37.922Z</time></trkpt><trkpt lat="42.6403142" lon="-3.7426743"><ele>1044.0</ele><time>2026-05-02T16:56:38.922Z</time></trkpt><trkpt lat="42.6402246" lon="-3.7425237"><ele>1043.3333333333333</ele><time>2026-05-02T16:56:39.927Z</time></trkpt><trkpt lat="42.640129" lon="-3.7423732"><ele>1042.6666666666665</ele><time>2026-05-02T16:56:40.919Z</time></trkpt><trkpt lat="42.6399645" lon="-3.7420636"><ele>1042.0</ele><time>2026-05-02T16:56:42.917Z</time></trkpt><trkpt lat="42.6398865" lon="-3.7418872"><ele>1040.6666666666665</ele><time>2026-05-02T16:56:43.92Z</time></trkpt><trkpt lat="42.6398092" lon="-3.741703"><ele>1039.3333333333333</ele><time>2026-05-02T16:56:44.918Z</time></trkpt><trkpt lat="42.6397312" lon="-3.7415137"><ele>1038.0</ele><time>2026-05-02T16:56:45.921Z</time></trkpt><trkpt lat="42.6396526" lon="-3.7413153"><ele>1038.0</ele><time>2026-05-02T16:56:46.919Z</time></trkpt><trkpt lat="42.6395703" lon="-3.7411127"><ele>1038.0</ele><time>2026-05-02T16:56:47.922Z</time></trkpt><trkpt lat="42.6394915" lon="-3.74091"><ele>1038.0</ele><time>2026-05-02T16:56:48.917Z</time></trkpt><trkpt lat="42.6394157" lon="-3.7407028"><ele>1036.0</ele><time>2026-05-02T16:56:49.928Z</time></trkpt><trkpt lat="42.6393356" lon="-3.7404917"><ele>1034.0</ele><time>2026-05-02T16:56:50.915Z</time></trkpt><trkpt lat="42.6392525" lon="-3.7402836"><ele>1032.0</ele><time>2026-05-02T16:56:51.92Z</time></trkpt><trkpt lat="42.6391693" lon="-3.7400756"><ele>1031.6666666666667</ele><time>2026-05-02T16:56:52.911Z</time></trkpt><trkpt lat="42.6390898" lon="-3.7398663"><ele>1031.3333333333335</ele><time>2026-05-02T16:56:53.919Z</time></trkpt><trkpt lat="42.6390055" lon="-3.7396475"><ele>1031.0</ele><time>2026-05-02T16:56:54.913Z</time></trkpt><trkpt lat="42.6389242" lon="-3.7394343"><ele>1030.0</ele><time>2026-05-02T16:56:55.922Z</time></trkpt><trkpt lat="42.6388412" lon="-3.739226"><ele>1029.0</ele><time>2026-05-02T16:56:56.916Z</time></trkpt><trkpt lat="42.6387642" lon="-3.7390242"><ele>1028.0</ele><time>2026-05-02T16:56:57.921Z</time></trkpt><trkpt lat="42.6386834" lon="-3.7388193"><ele>1025.6666666666667</ele><time>2026-05-02T16:56:58.914Z</time></trkpt><trkpt lat="42.6386047" lon="-3.7386167"><ele>1023.3333333333333</ele><time>2026-05-02T16:56:59.919Z</time></trkpt><trkpt lat="42.6385257" lon="-3.7384074"><ele>1021.0</ele><time>2026-05-02T16:57:00.929Z</time></trkpt><trkpt lat="42.6384412" lon="-3.7381987"><ele>1021.0</ele><time>2026-05-02T16:57:01.92Z</time></trkpt><trkpt lat="42.6383552" lon="-3.7379926"><ele>1021.0</ele><time>2026-05-02T16:57:02.922Z</time></trkpt><trkpt lat="42.6382838" lon="-3.7377817"><ele>1021.0</ele><time>2026-05-02T16:57:03.926Z</time></trkpt><trkpt lat="42.6382071" lon="-3.7375772"><ele>1020.3333333333333</ele><time>2026-05-02T16:57:04.923Z</time></trkpt><trkpt lat="42.6381251" lon="-3.7373667"><ele>1019.6666666666667</ele><time>2026-05-02T16:57:05.935Z</time></trkpt><trkpt lat="42.6380495" lon="-3.7371541"><ele>1019.0</ele><time>2026-05-02T16:57:06.924Z</time></trkpt><trkpt lat="42.6379744" lon="-3.7369433"><ele>1018.0</ele><time>2026-05-02T16:57:07.925Z</time></trkpt><trkpt lat="42.6378952" lon="-3.7367324"><ele>1017.0</ele><time>2026-05-02T16:57:08.925Z</time></trkpt><trkpt lat="42.6378168" lon="-3.736527"><ele>1016.0</ele><time>2026-05-02T16:57:09.924Z</time></trkpt><trkpt lat="42.6377325" lon="-3.7363243"><ele>1016.0</ele><time>2026-05-02T16:57:10.92Z</time></trkpt><trkpt lat="42.6376526" lon="-3.736124"><ele>1016.0</ele><time>2026-05-02T16:57:11.916Z</time></trkpt><trkpt lat="42.6375659" lon="-3.7359282"><ele>1016.0</ele><time>2026-05-02T16:57:12.919Z</time></trkpt><trkpt lat="42.6374758" lon="-3.7357352"><ele>1015.3333333333334</ele><time>2026-05-02T16:57:13.922Z</time></trkpt><trkpt lat="42.63739" lon="-3.7355405"><ele>1014.6666666666667</ele><time>2026-05-02T16:57:14.917Z</time></trkpt><trkpt lat="42.6372913" lon="-3.7353525"><ele>1014.0</ele><time>2026-05-02T16:57:15.921Z</time></trkpt><trkpt lat="42.6371907" lon="-3.735167"><ele>1014.3333333333333</ele><time>2026-05-02T16:57:16.922Z</time></trkpt><trkpt lat="42.6370927" lon="-3.7349807"><ele>1014.6666666666666</ele><time>2026-05-02T16:57:17.923Z</time></trkpt><trkpt lat="42.6369871" lon="-3.7348"><ele>1015.0</ele><time>2026-05-02T16:57:18.921Z</time></trkpt><trkpt lat="42.6368767" lon="-3.7346294"><ele>1015.0</ele><time>2026-05-02T16:57:19.92Z</time></trkpt><trkpt lat="42.6367527" lon="-3.7344574"><ele>1015.0</ele><time>2026-05-02T16:57:20.922Z</time></trkpt><trkpt lat="42.6366347" lon="-3.7342859"><ele>1015.0</ele><time>2026-05-02T16:57:21.929Z</time></trkpt><trkpt lat="42.6365177" lon="-3.7341231"><ele>1014.6666666666666</ele><time>2026-05-02T16:57:22.918Z</time></trkpt><trkpt lat="42.6363921" lon="-3.7339641"><ele>1014.3333333333333</ele><time>2026-05-02T16:57:23.922Z</time></trkpt><trkpt lat="42.6362657" lon="-3.7338126"><ele>1014.0</ele><time>2026-05-02T16:57:24.918Z</time></trkpt><trkpt lat="42.6361344" lon="-3.7336693"><ele>1012.0</ele><time>2026-05-02T16:57:25.921Z</time></trkpt><trkpt lat="42.6359985" lon="-3.7335258"><ele>1010.0</ele><time>2026-05-02T16:57:26.919Z</time></trkpt><trkpt lat="42.635861" lon="-3.7333894"><ele>1008.0</ele><time>2026-05-02T16:57:27.922Z</time></trkpt><trkpt lat="42.6357156" lon="-3.7332543"><ele>1008.0</ele><time>2026-05-02T16:57:28.918Z</time></trkpt><trkpt lat="42.6355738" lon="-3.7331328"><ele>1008.0</ele><time>2026-05-02T16:57:29.922Z</time></trkpt><trkpt lat="42.6354373" lon="-3.7330163"><ele>1008.0</ele><time>2026-05-02T16:57:30.92Z</time></trkpt><trkpt lat="42.6352897" lon="-3.7328951"><ele>1008.0</ele><time>2026-05-02T16:57:31.918Z</time></trkpt><trkpt lat="42.6351382" lon="-3.7327867"><ele>1008.0</ele><time>2026-05-02T16:57:32.917Z</time></trkpt><trkpt lat="42.6349852" lon="-3.7326771"><ele>1008.0</ele><time>2026-05-02T16:57:33.919Z</time></trkpt><trkpt lat="42.6348311" lon="-3.7325745"><ele>1007.0</ele><time>2026-05-02T16:57:34.92Z</time></trkpt><trkpt lat="42.6346781" lon="-3.7324803"><ele>1006.0</ele><time>2026-05-02T16:57:35.92Z</time></trkpt><trkpt lat="42.6345218" lon="-3.7323879"><ele>1005.0</ele><time>2026-05-02T16:57:36.928Z</time></trkpt><trkpt lat="42.6343632" lon="-3.7322932"><ele>1003.6666666666667</ele><time>2026-05-02T16:57:37.915Z</time></trkpt><trkpt lat="42.6342029" lon="-3.7322007"><ele>1002.3333333333334</ele><time>2026-05-02T16:57:38.915Z</time></trkpt><trkpt lat="42.6340472" lon="-3.732112"><ele>1001.0</ele><time>2026-05-02T16:57:39.924Z</time></trkpt><trkpt lat="42.6338958" lon="-3.7320239"><ele>1001.0</ele><time>2026-05-02T16:57:40.912Z</time></trkpt><trkpt lat="42.6337426" lon="-3.7319344"><ele>1001.0</ele><time>2026-05-02T16:57:41.913Z</time></trkpt><trkpt lat="42.6335861" lon="-3.7318307"><ele>1001.0</ele><time>2026-05-02T16:57:42.916Z</time></trkpt><trkpt lat="42.6334378" lon="-3.7317085"><ele>1001.3333333333334</ele><time>2026-05-02T16:57:43.912Z</time></trkpt><trkpt lat="42.6332975" lon="-3.7315687"><ele>1001.6666666666667</ele><time>2026-05-02T16:57:44.917Z</time></trkpt><trkpt lat="42.633161" lon="-3.7314128"><ele>1002.0</ele><time>2026-05-02T16:57:45.915Z</time></trkpt><trkpt lat="42.6330262" lon="-3.7312517"><ele>1002.0</ele><time>2026-05-02T16:57:46.911Z</time></trkpt><trkpt lat="42.6328892" lon="-3.731095"><ele>1002.0</ele><time>2026-05-02T16:57:47.914Z</time></trkpt><trkpt lat="42.6327654" lon="-3.7309238"><ele>1002.0</ele><time>2026-05-02T16:57:48.911Z</time></trkpt><trkpt lat="42.6326593" lon="-3.7307522"><ele>1000.0</ele><time>2026-05-02T16:57:49.911Z</time></trkpt><trkpt lat="42.6325429" lon="-3.7305715"><ele>998.0</ele><time>2026-05-02T16:57:50.912Z</time></trkpt><trkpt lat="42.6324208" lon="-3.730393"><ele>996.0</ele><time>2026-05-02T16:57:51.912Z</time></trkpt><trkpt lat="42.6323041" lon="-3.7302297"><ele>995.3333333333333</ele><time>2026-05-02T16:57:52.904Z</time></trkpt><trkpt lat="42.6321929" lon="-3.7300813"><ele>994.6666666666666</ele><time>2026-05-02T16:57:53.911Z</time></trkpt><trkpt lat="42.6320745" lon="-3.7299183"><ele>994.0</ele><time>2026-05-02T16:57:54.911Z</time></trkpt><trkpt lat="42.6319609" lon="-3.7297614"><ele>994.0</ele><time>2026-05-02T16:57:55.906Z</time></trkpt><trkpt lat="42.6318489" lon="-3.7296"><ele>994.0</ele><time>2026-05-02T16:57:56.91Z</time></trkpt><trkpt lat="42.6317334" lon="-3.7294384"><ele>994.0</ele><time>2026-05-02T16:57:57.926Z</time></trkpt><trkpt lat="42.6316167" lon="-3.7292775"><ele>992.0</ele><time>2026-05-02T16:57:58.911Z</time></trkpt><trkpt lat="42.6314974" lon="-3.7291243"><ele>990.0</ele><time>2026-05-02T16:57:59.91Z</time></trkpt><trkpt lat="42.6313641" lon="-3.7289749"><ele>988.0</ele><time>2026-05-02T16:58:00.917Z</time></trkpt><trkpt lat="42.6312202" lon="-3.7288372"><ele>986.6666666666666</ele><time>2026-05-02T16:58:01.916Z</time></trkpt><trkpt lat="42.6310836" lon="-3.7287223"><ele>985.3333333333333</ele><time>2026-05-02T16:58:02.913Z</time></trkpt><trkpt lat="42.6309347" lon="-3.7286204"><ele>984.0</ele><time>2026-05-02T16:58:03.914Z</time></trkpt><trkpt lat="42.6307804" lon="-3.728535"><ele>984.0</ele><time>2026-05-02T16:58:04.921Z</time></trkpt><trkpt lat="42.6306188" lon="-3.7284707"><ele>984.0</ele><time>2026-05-02T16:58:05.914Z</time></trkpt><trkpt lat="42.6304496" lon="-3.7284171"><ele>984.0</ele><time>2026-05-02T16:58:06.912Z</time></trkpt><trkpt lat="42.6302747" lon="-3.7283749"><ele>982.6666666666667</ele><time>2026-05-02T16:58:07.933Z</time></trkpt><trkpt lat="42.6301011" lon="-3.7283449"><ele>981.3333333333334</ele><time>2026-05-02T16:58:08.914Z</time></trkpt><trkpt lat="42.6299292" lon="-3.7283286"><ele>980.0</ele><time>2026-05-02T16:58:09.913Z</time></trkpt><trkpt lat="42.6297503" lon="-3.7283052"><ele>980.0</ele><time>2026-05-02T16:58:10.911Z</time></trkpt><trkpt lat="42.6295758" lon="-3.728283"><ele>980.0</ele><time>2026-05-02T16:58:11.917Z</time></trkpt><trkpt lat="42.6293978" lon="-3.7282641"><ele>980.0</ele><time>2026-05-02T16:58:12.915Z</time></trkpt><trkpt lat="42.6292183" lon="-3.7282377"><ele>977.6666666666667</ele><time>2026-05-02T16:58:13.908Z</time></trkpt><trkpt lat="42.6290326" lon="-3.7282181"><ele>975.3333333333333</ele><time>2026-05-02T16:58:14.913Z</time></trkpt><trkpt lat="42.6288504" lon="-3.728191"><ele>973.0</ele><time>2026-05-02T16:58:15.914Z</time></trkpt><trkpt lat="42.6286677" lon="-3.7281647"><ele>972.6666666666666</ele><time>2026-05-02T16:58:16.916Z</time></trkpt><trkpt lat="42.6284895" lon="-3.7281385"><ele>972.3333333333333</ele><time>2026-05-02T16:58:17.916Z</time></trkpt><trkpt lat="42.6283048" lon="-3.7281094"><ele>972.0</ele><time>2026-05-02T16:58:18.905Z</time></trkpt><trkpt lat="42.6281239" lon="-3.7280853"><ele>972.0</ele><time>2026-05-02T16:58:19.914Z</time></trkpt><trkpt lat="42.6279538" lon="-3.7280733"><ele>972.0</ele><time>2026-05-02T16:58:20.91Z</time></trkpt><trkpt lat="42.6277862" lon="-3.7280487"><ele>972.0</ele><time>2026-05-02T16:58:21.928Z</time></trkpt><trkpt lat="42.6276197" lon="-3.7280277"><ele>972.0</ele><time>2026-05-02T16:58:22.918Z</time></trkpt><trkpt lat="42.6274518" lon="-3.7280122"><ele>972.0</ele><time>2026-05-02T16:58:23.906Z</time></trkpt><trkpt lat="42.6272877" lon="-3.7279956"><ele>972.0</ele><time>2026-05-02T16:58:24.911Z</time></trkpt><trkpt lat="42.6271119" lon="-3.727973"><ele>973.0</ele><time>2026-05-02T16:58:25.924Z</time></trkpt><trkpt lat="42.6269454" lon="-3.727954"><ele>974.0</ele><time>2026-05-02T16:58:26.913Z</time></trkpt><trkpt lat="42.6267756" lon="-3.7279217"><ele>975.0</ele><time>2026-05-02T16:58:27.917Z</time></trkpt><trkpt lat="42.6266164" lon="-3.7278914"><ele>975.0</ele><time>2026-05-02T16:58:28.914Z</time></trkpt><trkpt lat="42.6264527" lon="-3.7278672"><ele>975.0</ele><time>2026-05-02T16:58:29.917Z</time></trkpt><trkpt lat="42.626292" lon="-3.7278441"><ele>975.0</ele><time>2026-05-02T16:58:30.92Z</time></trkpt><trkpt lat="42.6261309" lon="-3.7278234"><ele>975.3333333333333</ele><time>2026-05-02T16:58:31.914Z</time></trkpt><trkpt lat="42.6259646" lon="-3.7278028"><ele>975.6666666666666</ele><time>2026-05-02T16:58:32.916Z</time></trkpt><trkpt lat="42.625801" lon="-3.727786"><ele>976.0</ele><time>2026-05-02T16:58:33.918Z</time></trkpt><trkpt lat="42.6256338" lon="-3.7277736"><ele>976.0</ele><time>2026-05-02T16:58:34.915Z</time></trkpt><trkpt lat="42.6254648" lon="-3.7277538"><ele>976.0</ele><time>2026-05-02T16:58:35.917Z</time></trkpt><trkpt lat="42.6253239" lon="-3.7277351"><ele>976.0</ele><time>2026-05-02T16:58:36.911Z</time></trkpt><trkpt lat="42.6251804" lon="-3.727716"><ele>976.75</ele><time>2026-05-02T16:58:37.919Z</time></trkpt><trkpt lat="42.6250393" lon="-3.7276824"><ele>977.5</ele><time>2026-05-02T16:58:38.913Z</time></trkpt><trkpt lat="42.6249062" lon="-3.7276617"><ele>978.25</ele><time>2026-05-02T16:58:39.911Z</time></trkpt><trkpt lat="42.6247861" lon="-3.7276533"><ele>979.0</ele><time>2026-05-02T16:58:40.91Z</time></trkpt><trkpt lat="42.624664" lon="-3.7276343"><ele>979.0</ele><time>2026-05-02T16:58:41.914Z</time></trkpt><trkpt lat="42.6245471" lon="-3.7276139"><ele>979.0000000000001</ele><time>2026-05-02T16:58:42.916Z</time></trkpt><trkpt lat="42.6244404" lon="-3.7276013"><ele>979.0000000000001</ele><time>2026-05-02T16:58:43.916Z</time></trkpt><trkpt lat="42.6243526" lon="-3.7275918"><ele>979.0</ele><time>2026-05-02T16:58:44.919Z</time></trkpt><trkpt lat="42.6242815" lon="-3.7275848"><ele>979.0</ele><time>2026-05-02T16:58:45.912Z</time></trkpt><trkpt lat="42.6241985" lon="-3.7275735"><ele>979.6</ele><time>2026-05-02T16:58:47.917Z</time></trkpt><trkpt lat="42.6241651" lon="-3.7277064"><ele>980.2</ele><time>2026-05-02T16:59:36.916Z</time></trkpt><trkpt lat="42.6241358" lon="-3.7278571"><ele>980.8000000000001</ele><time>2026-05-02T16:59:38.916Z</time></trkpt><trkpt lat="42.6241048" lon="-3.7280203"><ele>981.4000000000001</ele><time>2026-05-02T16:59:40.915Z</time></trkpt><trkpt lat="42.6240877" lon="-3.728112"><ele>982.0</ele><time>2026-05-02T16:59:41.922Z</time></trkpt><trkpt lat="42.6240627" lon="-3.7282049"><ele>982.4000000000001</ele><time>2026-05-02T16:59:42.915Z</time></trkpt><trkpt lat="42.6240335" lon="-3.7283074"><ele>982.8000000000001</ele><time>2026-05-02T16:59:43.922Z</time></trkpt><trkpt lat="42.6240006" lon="-3.72842"><ele>983.2</ele><time>2026-05-02T16:59:44.917Z</time></trkpt><trkpt lat="42.6239647" lon="-3.7285408"><ele>983.6</ele><time>2026-05-02T16:59:45.925Z</time></trkpt><trkpt lat="42.62393" lon="-3.7286603"><ele>984.0</ele><time>2026-05-02T16:59:46.922Z</time></trkpt><trkpt lat="42.6238997" lon="-3.7287799"><ele>984.8000000000001</ele><time>2026-05-02T16:59:47.926Z</time></trkpt><trkpt lat="42.623875" lon="-3.7289029"><ele>985.6000000000001</ele><time>2026-05-02T16:59:48.922Z</time></trkpt><trkpt lat="42.6238495" lon="-3.7290274"><ele>986.4</ele><time>2026-05-02T16:59:49.925Z</time></trkpt><trkpt lat="42.6238211" lon="-3.7291525"><ele>987.2</ele><time>2026-05-02T16:59:50.925Z</time></trkpt><trkpt lat="42.6237912" lon="-3.7292757"><ele>988.0</ele><time>2026-05-02T16:59:51.924Z</time></trkpt><trkpt lat="42.6237603" lon="-3.7294029"><ele>988.4</ele><time>2026-05-02T16:59:52.934Z</time></trkpt><trkpt lat="42.6237298" lon="-3.7295316"><ele>988.8</ele><time>2026-05-02T16:59:53.923Z</time></trkpt><trkpt lat="42.6236966" lon="-3.7296598"><ele>989.2</ele><time>2026-05-02T16:59:54.917Z</time></trkpt><trkpt lat="42.6236667" lon="-3.7297848"><ele>989.6</ele><time>2026-05-02T16:59:55.923Z</time></trkpt><trkpt lat="42.6236387" lon="-3.7299105"><ele>990.0</ele><time>2026-05-02T16:59:56.922Z</time></trkpt><trkpt lat="42.623609" lon="-3.7300363"><ele>990.4</ele><time>2026-05-02T16:59:57.925Z</time></trkpt><trkpt lat="42.623579" lon="-3.7301617"><ele>990.8</ele><time>2026-05-02T16:59:58.933Z</time></trkpt><trkpt lat="42.6235474" lon="-3.730288"><ele>991.2</ele><time>2026-05-02T16:59:59.927Z</time></trkpt><trkpt lat="42.6235136" lon="-3.7304148"><ele>991.6</ele><time>2026-05-02T17:00:00.927Z</time></trkpt><trkpt lat="42.6234809" lon="-3.7305391"><ele>992.0</ele><time>2026-05-02T17:00:01.928Z</time></trkpt><trkpt lat="42.623449" lon="-3.7306647"><ele>992.0</ele><time>2026-05-02T17:00:02.928Z</time></trkpt><trkpt lat="42.6234164" lon="-3.7307967"><ele>992.0</ele><time>2026-05-02T17:00:03.932Z</time></trkpt><trkpt lat="42.6233846" lon="-3.7309415"><ele>992.0</ele><time>2026-05-02T17:00:04.925Z</time></trkpt><trkpt lat="42.623352" lon="-3.7310848"><ele>992.0</ele><time>2026-05-02T17:00:05.927Z</time></trkpt><trkpt lat="42.6233155" lon="-3.7312306"><ele>992.0</ele><time>2026-05-02T17:00:06.923Z</time></trkpt><trkpt lat="42.6232798" lon="-3.7313834"><ele>991.5</ele><time>2026-05-02T17:00:07.928Z</time></trkpt><trkpt lat="42.6232474" lon="-3.7315354"><ele>991.0</ele><time>2026-05-02T17:00:08.927Z</time></trkpt><trkpt lat="42.6232133" lon="-3.7316838"><ele>990.5</ele><time>2026-05-02T17:00:09.929Z</time></trkpt><trkpt lat="42.6231777" lon="-3.731831"><ele>990.0</ele><time>2026-05-02T17:00:10.935Z</time></trkpt><trkpt lat="42.6231418" lon="-3.7319847"><ele>989.5</ele><time>2026-05-02T17:00:11.927Z</time></trkpt><trkpt lat="42.6231049" lon="-3.7321416"><ele>989.0</ele><time>2026-05-02T17:00:12.923Z</time></trkpt><trkpt lat="42.6230681" lon="-3.7322978"><ele>988.5</ele><time>2026-05-02T17:00:13.924Z</time></trkpt><trkpt lat="42.623031" lon="-3.7324579"><ele>988.0</ele><time>2026-05-02T17:00:14.917Z</time></trkpt><trkpt lat="42.6229562" lon="-3.7327783"><ele>987.5</ele><time>2026-05-02T17:00:16.928Z</time></trkpt><trkpt lat="42.6229145" lon="-3.7329391"><ele>987.0</ele><time>2026-05-02T17:00:17.913Z</time></trkpt><trkpt lat="42.6228731" lon="-3.7331017"><ele>986.5</ele><time>2026-05-02T17:00:18.924Z</time></trkpt><trkpt lat="42.6228264" lon="-3.7332628"><ele>986.0</ele><time>2026-05-02T17:00:19.935Z</time></trkpt><trkpt lat="42.6227687" lon="-3.7334212"><ele>985.0</ele><time>2026-05-02T17:00:20.915Z</time></trkpt><trkpt lat="42.6227032" lon="-3.7335774"><ele>984.0</ele><time>2026-05-02T17:00:21.918Z</time></trkpt><trkpt lat="42.6226316" lon="-3.7337307"><ele>983.0</ele><time>2026-05-02T17:00:22.929Z</time></trkpt><trkpt lat="42.6225492" lon="-3.7338756"><ele>982.0</ele><time>2026-05-02T17:00:23.928Z</time></trkpt><trkpt lat="42.6224601" lon="-3.734023"><ele>982.0</ele><time>2026-05-02T17:00:24.917Z</time></trkpt><trkpt lat="42.622357" lon="-3.73416"><ele>982.0</ele><time>2026-05-02T17:00:25.934Z</time></trkpt><trkpt lat="42.6222425" lon="-3.7342862"><ele>982.0</ele><time>2026-05-02T17:00:26.921Z</time></trkpt><trkpt lat="42.6221265" lon="-3.7344028"><ele>982.0</ele><time>2026-05-02T17:00:27.924Z</time></trkpt><trkpt lat="42.6220069" lon="-3.7345178"><ele>982.75</ele><time>2026-05-02T17:00:28.923Z</time></trkpt><trkpt lat="42.6218873" lon="-3.7346343"><ele>983.5</ele><time>2026-05-02T17:00:29.924Z</time></trkpt><trkpt lat="42.6217661" lon="-3.7347428"><ele>984.25</ele><time>2026-05-02T17:00:30.947Z</time></trkpt><trkpt lat="42.6216445" lon="-3.7348527"><ele>985.0</ele><time>2026-05-02T17:00:31.926Z</time></trkpt><trkpt lat="42.6215265" lon="-3.7349817"><ele>985.0</ele><time>2026-05-02T17:00:32.928Z</time></trkpt><trkpt lat="42.6214083" lon="-3.7350985"><ele>985.0</ele><time>2026-05-02T17:00:33.924Z</time></trkpt><trkpt lat="42.6212971" lon="-3.735194"><ele>985.0</ele><time>2026-05-02T17:00:34.924Z</time></trkpt><trkpt lat="42.6211781" lon="-3.7353006"><ele>985.0</ele><time>2026-05-02T17:00:35.928Z</time></trkpt><trkpt lat="42.6210636" lon="-3.7354106"><ele>986.5</ele><time>2026-05-02T17:00:36.927Z</time></trkpt><trkpt lat="42.6209445" lon="-3.7355193"><ele>988.0</ele><time>2026-05-02T17:00:37.926Z</time></trkpt><trkpt lat="42.6208263" lon="-3.7356279"><ele>989.5</ele><time>2026-05-02T17:00:38.931Z</time></trkpt><trkpt lat="42.6207114" lon="-3.7357384"><ele>991.0</ele><time>2026-05-02T17:00:39.933Z</time></trkpt><trkpt lat="42.6205957" lon="-3.7358511"><ele>991.0</ele><time>2026-05-02T17:00:40.926Z</time></trkpt><trkpt lat="42.6204841" lon="-3.7359627"><ele>991.0</ele><time>2026-05-02T17:00:41.945Z</time></trkpt><trkpt lat="42.620366" lon="-3.736069"><ele>991.0</ele><time>2026-05-02T17:00:42.928Z</time></trkpt><trkpt lat="42.6202479" lon="-3.7361705"><ele>991.0</ele><time>2026-05-02T17:00:43.925Z</time></trkpt><trkpt lat="42.6201266" lon="-3.7362725"><ele>992.0</ele><time>2026-05-02T17:00:44.924Z</time></trkpt><trkpt lat="42.6200115" lon="-3.7363805"><ele>993.0</ele><time>2026-05-02T17:00:45.923Z</time></trkpt><trkpt lat="42.619903" lon="-3.7364935"><ele>994.0</ele><time>2026-05-02T17:00:46.916Z</time></trkpt><trkpt lat="42.619794" lon="-3.7366027"><ele>995.0</ele><time>2026-05-02T17:00:47.924Z</time></trkpt><trkpt lat="42.619689" lon="-3.7367161"><ele>995.0</ele><time>2026-05-02T17:00:48.925Z</time></trkpt><trkpt lat="42.6195928" lon="-3.7368387"><ele>995.0</ele><time>2026-05-02T17:00:49.92Z</time></trkpt><trkpt lat="42.619509" lon="-3.7369739"><ele>995.0</ele><time>2026-05-02T17:00:50.92Z</time></trkpt><trkpt lat="42.6194267" lon="-3.7371194"><ele>995.0</ele><time>2026-05-02T17:00:51.924Z</time></trkpt><trkpt lat="42.6193536" lon="-3.7372703"><ele>996.0</ele><time>2026-05-02T17:00:52.927Z</time></trkpt><trkpt lat="42.6193071" lon="-3.7374354"><ele>997.0</ele><time>2026-05-02T17:00:53.929Z</time></trkpt><trkpt lat="42.6192808" lon="-3.7376022"><ele>998.0</ele><time>2026-05-02T17:00:54.928Z</time></trkpt><trkpt lat="42.6192591" lon="-3.737762"><ele>999.0</ele><time>2026-05-02T17:00:55.929Z</time></trkpt><trkpt lat="42.6192452" lon="-3.7379428"><ele>999.75</ele><time>2026-05-02T17:00:56.919Z</time></trkpt><trkpt lat="42.6192244" lon="-3.7381035"><ele>1000.5</ele><time>2026-05-02T17:00:57.928Z</time></trkpt><trkpt lat="42.6192142" lon="-3.7382559"><ele>1001.25</ele><time>2026-05-02T17:00:58.934Z</time></trkpt><trkpt lat="42.6192041" lon="-3.7384058"><ele>1002.0</ele><time>2026-05-02T17:00:59.94Z</time></trkpt><trkpt lat="42.6191886" lon="-3.738562"><ele>1002.75</ele><time>2026-05-02T17:01:00.941Z</time></trkpt><trkpt lat="42.6191727" lon="-3.7387177"><ele>1003.5</ele><time>2026-05-02T17:01:01.932Z</time></trkpt><trkpt lat="42.6191579" lon="-3.7388764"><ele>1004.25</ele><time>2026-05-02T17:01:02.931Z</time></trkpt><trkpt lat="42.6191438" lon="-3.7390351"><ele>1005.0</ele><time>2026-05-02T17:01:03.933Z</time></trkpt><trkpt lat="42.6191295" lon="-3.7391924"><ele>1005.0</ele><time>2026-05-02T17:01:04.933Z</time></trkpt><trkpt lat="42.6191173" lon="-3.7393505"><ele>1005.0</ele><time>2026-05-02T17:01:05.935Z</time></trkpt><trkpt lat="42.6191007" lon="-3.7395093"><ele>1005.0</ele><time>2026-05-02T17:01:06.933Z</time></trkpt><trkpt lat="42.619083" lon="-3.7396621"><ele>1005.0</ele><time>2026-05-02T17:01:07.933Z</time></trkpt><trkpt lat="42.6190706" lon="-3.7398222"><ele>1005.75</ele><time>2026-05-02T17:01:08.94Z</time></trkpt><trkpt lat="42.6190563" lon="-3.7399822"><ele>1006.5</ele><time>2026-05-02T17:01:09.937Z</time></trkpt><trkpt lat="42.6190424" lon="-3.7401461"><ele>1007.25</ele><time>2026-05-02T17:01:10.935Z</time></trkpt><trkpt lat="42.6190252" lon="-3.7403097"><ele>1008.0</ele><time>2026-05-02T17:01:11.926Z</time></trkpt><trkpt lat="42.6190072" lon="-3.7404681"><ele>1008.5</ele><time>2026-05-02T17:01:12.944Z</time></trkpt><trkpt lat="42.6189904" lon="-3.7406279"><ele>1009.0</ele><time>2026-05-02T17:01:13.936Z</time></trkpt><trkpt lat="42.6189707" lon="-3.7407863"><ele>1009.5</ele><time>2026-05-02T17:01:14.932Z</time></trkpt><trkpt lat="42.6189417" lon="-3.7409471"><ele>1010.0</ele><time>2026-05-02T17:01:15.933Z</time></trkpt><trkpt lat="42.6189038" lon="-3.741105"><ele>1010.0</ele><time>2026-05-02T17:01:16.934Z</time></trkpt><trkpt lat="42.6188548" lon="-3.7412604"><ele>1010.0</ele><time>2026-05-02T17:01:17.932Z</time></trkpt><trkpt lat="42.6187993" lon="-3.7414118"><ele>1010.0</ele><time>2026-05-02T17:01:18.928Z</time></trkpt><trkpt lat="42.618731" lon="-3.7415585"><ele>1010.0</ele><time>2026-05-02T17:01:19.927Z</time></trkpt><trkpt lat="42.6186588" lon="-3.7416977"><ele>1010.75</ele><time>2026-05-02T17:01:20.926Z</time></trkpt><trkpt lat="42.6185782" lon="-3.7418325"><ele>1011.5</ele><time>2026-05-02T17:01:21.931Z</time></trkpt><trkpt lat="42.6184931" lon="-3.7419633"><ele>1012.25</ele><time>2026-05-02T17:01:22.927Z</time></trkpt><trkpt lat="42.6184045" lon="-3.7420929"><ele>1013.0</ele><time>2026-05-02T17:01:23.931Z</time></trkpt><trkpt lat="42.6183184" lon="-3.7422256"><ele>1013.0</ele><time>2026-05-02T17:01:24.929Z</time></trkpt><trkpt lat="42.618235" lon="-3.7423613"><ele>1013.0</ele><time>2026-05-02T17:01:25.94Z</time></trkpt><trkpt lat="42.6181511" lon="-3.7425"><ele>1013.0</ele><time>2026-05-02T17:01:26.935Z</time></trkpt><trkpt lat="42.6180625" lon="-3.742645"><ele>1013.0</ele><time>2026-05-02T17:01:27.924Z</time></trkpt><trkpt lat="42.6179699" lon="-3.7427886"><ele>1013.5</ele><time>2026-05-02T17:01:28.922Z</time></trkpt><trkpt lat="42.6178876" lon="-3.7429214"><ele>1014.0</ele><time>2026-05-02T17:01:29.928Z</time></trkpt><trkpt lat="42.6177997" lon="-3.7430577"><ele>1014.5</ele><time>2026-05-02T17:01:30.936Z</time></trkpt><trkpt lat="42.6177088" lon="-3.7432036"><ele>1015.0</ele><time>2026-05-02T17:01:31.938Z</time></trkpt><trkpt lat="42.617624" lon="-3.7433453"><ele>1015.25</ele><time>2026-05-02T17:01:32.928Z</time></trkpt><trkpt lat="42.6175343" lon="-3.7434847"><ele>1015.5</ele><time>2026-05-02T17:01:33.933Z</time></trkpt><trkpt lat="42.6174445" lon="-3.7436217"><ele>1015.75</ele><time>2026-05-02T17:01:34.928Z</time></trkpt><trkpt lat="42.6173622" lon="-3.7437679"><ele>1016.0</ele><time>2026-05-02T17:01:35.925Z</time></trkpt><trkpt lat="42.61728" lon="-3.7439202"><ele>1016.0</ele><time>2026-05-02T17:01:36.915Z</time></trkpt><trkpt lat="42.6170899" lon="-3.7442193"><ele>1016.0</ele><time>2026-05-02T17:01:38.925Z</time></trkpt><trkpt lat="42.616994" lon="-3.7443732"><ele>1016.0</ele><time>2026-05-02T17:01:39.929Z</time></trkpt><trkpt lat="42.6168952" lon="-3.7445314"><ele>1017.6666666666667</ele><time>2026-05-02T17:01:40.928Z</time></trkpt><trkpt lat="42.6168017" lon="-3.7446939"><ele>1019.3333333333333</ele><time>2026-05-02T17:01:41.928Z</time></trkpt><trkpt lat="42.6167068" lon="-3.7448577"><ele>1021.0</ele><time>2026-05-02T17:01:42.925Z</time></trkpt><trkpt lat="42.6166087" lon="-3.745016"><ele>1021.0</ele><time>2026-05-02T17:01:43.936Z</time></trkpt><trkpt lat="42.6165122" lon="-3.7451767"><ele>1021.0</ele><time>2026-05-02T17:01:44.924Z</time></trkpt><trkpt lat="42.6164143" lon="-3.7453336"><ele>1021.0</ele><time>2026-05-02T17:01:45.923Z</time></trkpt><trkpt lat="42.616317" lon="-3.7454941"><ele>1021.3333333333333</ele><time>2026-05-02T17:01:46.927Z</time></trkpt><trkpt lat="42.6162148" lon="-3.7456581"><ele>1021.6666666666667</ele><time>2026-05-02T17:01:47.932Z</time></trkpt><trkpt lat="42.6161117" lon="-3.7458209"><ele>1022.0</ele><time>2026-05-02T17:01:48.932Z</time></trkpt><trkpt lat="42.6159992" lon="-3.7460013"><ele>1022.0</ele><time>2026-05-02T17:01:49.929Z</time></trkpt><trkpt lat="42.6158935" lon="-3.7461689"><ele>1022.0</ele><time>2026-05-02T17:01:50.93Z</time></trkpt><trkpt lat="42.6157905" lon="-3.7463373"><ele>1022.0</ele><time>2026-05-02T17:01:51.931Z</time></trkpt><trkpt lat="42.6156932" lon="-3.7464939"><ele>1022.0</ele><time>2026-05-02T17:01:52.933Z</time></trkpt><trkpt lat="42.6155954" lon="-3.746657"><ele>1022.0</ele><time>2026-05-02T17:01:53.933Z</time></trkpt><trkpt lat="42.6154977" lon="-3.7468123"><ele>1022.0</ele><time>2026-05-02T17:01:54.922Z</time></trkpt><trkpt lat="42.6154072" lon="-3.7469587"><ele>1022.0</ele><time>2026-05-02T17:01:55.932Z</time></trkpt><trkpt lat="42.6153068" lon="-3.7471157"><ele>1023.0</ele><time>2026-05-02T17:01:56.922Z</time></trkpt><trkpt lat="42.6152124" lon="-3.7472718"><ele>1024.0</ele><time>2026-05-02T17:01:57.928Z</time></trkpt><trkpt lat="42.6151151" lon="-3.7474286"><ele>1025.0</ele><time>2026-05-02T17:01:58.927Z</time></trkpt><trkpt lat="42.6150204" lon="-3.7475847"><ele>1026.0</ele><time>2026-05-02T17:01:59.936Z</time></trkpt><trkpt lat="42.6149274" lon="-3.7477456"><ele>1026.0</ele><time>2026-05-02T17:02:00.937Z</time></trkpt><trkpt lat="42.6148301" lon="-3.7479012"><ele>1026.0</ele><time>2026-05-02T17:02:01.934Z</time></trkpt><trkpt lat="42.6147337" lon="-3.7480596"><ele>1026.0</ele><time>2026-05-02T17:02:02.931Z</time></trkpt><trkpt lat="42.6146374" lon="-3.7482094"><ele>1026.0</ele><time>2026-05-02T17:02:03.93Z</time></trkpt><trkpt lat="42.6145409" lon="-3.7483666"><ele>1026.6666666666667</ele><time>2026-05-02T17:02:04.932Z</time></trkpt><trkpt lat="42.6144428" lon="-3.7485313"><ele>1027.3333333333335</ele><time>2026-05-02T17:02:05.937Z</time></trkpt><trkpt lat="42.6143282" lon="-3.7486977"><ele>1028.0</ele><time>2026-05-02T17:02:06.932Z</time></trkpt><trkpt lat="42.6142356" lon="-3.7488521"><ele>1028.25</ele><time>2026-05-02T17:02:07.926Z</time></trkpt><trkpt lat="42.6141458" lon="-3.7490129"><ele>1028.5</ele><time>2026-05-02T17:02:08.933Z</time></trkpt><trkpt lat="42.6140517" lon="-3.7491725"><ele>1028.75</ele><time>2026-05-02T17:02:09.938Z</time></trkpt><trkpt lat="42.6139621" lon="-3.7493292"><ele>1029.0</ele><time>2026-05-02T17:02:10.932Z</time></trkpt><trkpt lat="42.6138674" lon="-3.7494824"><ele>1029.25</ele><time>2026-05-02T17:02:11.936Z</time></trkpt><trkpt lat="42.6137763" lon="-3.749635"><ele>1029.5</ele><time>2026-05-02T17:02:12.933Z</time></trkpt><trkpt lat="42.6136875" lon="-3.7497915"><ele>1029.75</ele><time>2026-05-02T17:02:13.937Z</time></trkpt><trkpt lat="42.6135966" lon="-3.7499487"><ele>1030.0</ele><time>2026-05-02T17:02:14.943Z</time></trkpt><trkpt lat="42.6135035" lon="-3.7500993"><ele>1030.75</ele><time>2026-05-02T17:02:15.936Z</time></trkpt><trkpt lat="42.6134134" lon="-3.7502501"><ele>1031.5</ele><time>2026-05-02T17:02:16.934Z</time></trkpt><trkpt lat="42.6133208" lon="-3.7504091"><ele>1032.25</ele><time>2026-05-02T17:02:17.936Z</time></trkpt><trkpt lat="42.6132283" lon="-3.7505614"><ele>1033.0</ele><time>2026-05-02T17:02:18.942Z</time></trkpt><trkpt lat="42.6131359" lon="-3.750726"><ele>1033.0</ele><time>2026-05-02T17:02:19.936Z</time></trkpt><trkpt lat="42.613047" lon="-3.7508771"><ele>1033.0</ele><time>2026-05-02T17:02:20.932Z</time></trkpt><trkpt lat="42.6129531" lon="-3.7510384"><ele>1033.0</ele><time>2026-05-02T17:02:21.933Z</time></trkpt><trkpt lat="42.6128616" lon="-3.7512033"><ele>1033.0</ele><time>2026-05-02T17:02:22.936Z</time></trkpt><trkpt lat="42.6127757" lon="-3.751371"><ele>1032.0</ele><time>2026-05-02T17:02:23.939Z</time></trkpt><trkpt lat="42.6126856" lon="-3.7515313"><ele>1031.0</ele><time>2026-05-02T17:02:24.935Z</time></trkpt><trkpt lat="42.6125948" lon="-3.7516967"><ele>1030.0</ele><time>2026-05-02T17:02:25.935Z</time></trkpt><trkpt lat="42.6124985" lon="-3.7518637"><ele>1030.0</ele><time>2026-05-02T17:02:26.941Z</time></trkpt><trkpt lat="42.6124067" lon="-3.752034"><ele>1030.0</ele><time>2026-05-02T17:02:27.932Z</time></trkpt><trkpt lat="42.612315" lon="-3.7522071"><ele>1030.0</ele><time>2026-05-02T17:02:28.935Z</time></trkpt><trkpt lat="42.6122155" lon="-3.7523678"><ele>1030.0</ele><time>2026-05-02T17:02:29.937Z</time></trkpt><trkpt lat="42.612113" lon="-3.7525267"><ele>1030.0</ele><time>2026-05-02T17:02:30.942Z</time></trkpt><trkpt lat="42.6120121" lon="-3.75269"><ele>1030.0</ele><time>2026-05-02T17:02:31.932Z</time></trkpt><trkpt lat="42.6119229" lon="-3.7528482"><ele>1030.5</ele><time>2026-05-02T17:02:32.931Z</time></trkpt><trkpt lat="42.6118329" lon="-3.7530125"><ele>1031.0</ele><time>2026-05-02T17:02:33.929Z</time></trkpt><trkpt lat="42.6117398" lon="-3.7531733"><ele>1031.5</ele><time>2026-05-02T17:02:34.93Z</time></trkpt><trkpt lat="42.6116529" lon="-3.7533328"><ele>1032.0</ele><time>2026-05-02T17:02:35.933Z</time></trkpt><trkpt lat="42.6115646" lon="-3.7534977"><ele>1032.25</ele><time>2026-05-02T17:02:36.942Z</time></trkpt><trkpt lat="42.6114714" lon="-3.7536506"><ele>1032.5</ele><time>2026-05-02T17:02:37.918Z</time></trkpt><trkpt lat="42.6113888" lon="-3.753807"><ele>1032.75</ele><time>2026-05-02T17:02:38.942Z</time></trkpt><trkpt lat="42.6113082" lon="-3.7539542"><ele>1033.0</ele><time>2026-05-02T17:02:39.939Z</time></trkpt><trkpt lat="42.6112254" lon="-3.7540975"><ele>1033.5</ele><time>2026-05-02T17:02:40.94Z</time></trkpt><trkpt lat="42.6111413" lon="-3.754244"><ele>1034.0</ele><time>2026-05-02T17:02:41.94Z</time></trkpt><trkpt lat="42.6110617" lon="-3.7543871"><ele>1034.5</ele><time>2026-05-02T17:02:42.94Z</time></trkpt><trkpt lat="42.6109883" lon="-3.7545319"><ele>1035.0</ele><time>2026-05-02T17:02:43.94Z</time></trkpt><trkpt lat="42.6109217" lon="-3.7546807"><ele>1035.5</ele><time>2026-05-02T17:02:44.935Z</time></trkpt><trkpt lat="42.610869" lon="-3.7548377"><ele>1036.0</ele><time>2026-05-02T17:02:45.954Z</time></trkpt><trkpt lat="42.6108193" lon="-3.7549993"><ele>1036.5</ele><time>2026-05-02T17:02:46.935Z</time></trkpt><trkpt lat="42.6107667" lon="-3.7551549"><ele>1037.0</ele><time>2026-05-02T17:02:47.934Z</time></trkpt><trkpt lat="42.610716" lon="-3.7553226"><ele>1037.25</ele><time>2026-05-02T17:02:48.933Z</time></trkpt><trkpt lat="42.610672" lon="-3.7554857"><ele>1037.5</ele><time>2026-05-02T17:02:49.941Z</time></trkpt><trkpt lat="42.6106284" lon="-3.7556496"><ele>1037.75</ele><time>2026-05-02T17:02:50.937Z</time></trkpt><trkpt lat="42.6105861" lon="-3.7558195"><ele>1038.0</ele><time>2026-05-02T17:02:51.937Z</time></trkpt><trkpt lat="42.6105398" lon="-3.7559894"><ele>1038.5</ele><time>2026-05-02T17:02:52.936Z</time></trkpt><trkpt lat="42.6104957" lon="-3.7561692"><ele>1039.0</ele><time>2026-05-02T17:02:53.941Z</time></trkpt><trkpt lat="42.6104502" lon="-3.7563531"><ele>1039.5</ele><time>2026-05-02T17:02:54.935Z</time></trkpt><trkpt lat="42.6104096" lon="-3.7565425"><ele>1040.0</ele><time>2026-05-02T17:02:55.937Z</time></trkpt><trkpt lat="42.61036" lon="-3.7567324"><ele>1039.25</ele><time>2026-05-02T17:02:56.934Z</time></trkpt><trkpt lat="42.6103107" lon="-3.7569172"><ele>1038.5</ele><time>2026-05-02T17:02:57.93Z</time></trkpt><trkpt lat="42.6102599" lon="-3.7571078"><ele>1037.75</ele><time>2026-05-02T17:02:58.928Z</time></trkpt><trkpt lat="42.6102195" lon="-3.7572841"><ele>1037.0</ele><time>2026-05-02T17:02:59.931Z</time></trkpt><trkpt lat="42.6101719" lon="-3.7574642"><ele>1037.0</ele><time>2026-05-02T17:03:00.93Z</time></trkpt><trkpt lat="42.6101211" lon="-3.7576474"><ele>1037.0</ele><time>2026-05-02T17:03:01.93Z</time></trkpt><trkpt lat="42.6100725" lon="-3.7578465"><ele>1037.0</ele><time>2026-05-02T17:03:02.929Z</time></trkpt><trkpt lat="42.6100198" lon="-3.7580462"><ele>1036.3333333333335</ele><time>2026-05-02T17:03:03.929Z</time></trkpt><trkpt lat="42.60996" lon="-3.7582344"><ele>1035.6666666666667</ele><time>2026-05-02T17:03:04.929Z</time></trkpt><trkpt lat="42.6099026" lon="-3.7584307"><ele>1035.0</ele><time>2026-05-02T17:03:05.933Z</time></trkpt><trkpt lat="42.6098467" lon="-3.7586149"><ele>1035.0</ele><time>2026-05-02T17:03:06.934Z</time></trkpt><trkpt lat="42.6097978" lon="-3.7588101"><ele>1035.0</ele><time>2026-05-02T17:03:07.934Z</time></trkpt><trkpt lat="42.6097476" lon="-3.7590133"><ele>1035.0</ele><time>2026-05-02T17:03:08.928Z</time></trkpt><trkpt lat="42.6096973" lon="-3.7592188"><ele>1036.0</ele><time>2026-05-02T17:03:09.939Z</time></trkpt><trkpt lat="42.6096426" lon="-3.7594162"><ele>1037.0</ele><time>2026-05-02T17:03:10.935Z</time></trkpt><trkpt lat="42.6095902" lon="-3.7596207"><ele>1038.0</ele><time>2026-05-02T17:03:11.937Z</time></trkpt><trkpt lat="42.6095405" lon="-3.759822"><ele>1038.0</ele><time>2026-05-02T17:03:12.936Z</time></trkpt><trkpt lat="42.609501" lon="-3.7600341"><ele>1038.0</ele><time>2026-05-02T17:03:13.931Z</time></trkpt><trkpt lat="42.6094694" lon="-3.7602463"><ele>1038.0</ele><time>2026-05-02T17:03:14.929Z</time></trkpt><trkpt lat="42.6094625" lon="-3.7604603"><ele>1034.0</ele><time>2026-05-02T17:03:15.941Z</time></trkpt><trkpt lat="42.6094581" lon="-3.7606691"><ele>1030.0</ele><time>2026-05-02T17:03:16.928Z</time></trkpt><trkpt lat="42.6094668" lon="-3.7608832"><ele>1026.0</ele><time>2026-05-02T17:03:17.931Z</time></trkpt><trkpt lat="42.6094825" lon="-3.7610931"><ele>1030.0</ele><time>2026-05-02T17:03:18.932Z</time></trkpt><trkpt lat="42.6095059" lon="-3.761309"><ele>1034.0</ele><time>2026-05-02T17:03:19.932Z</time></trkpt><trkpt lat="42.6095297" lon="-3.7615343"><ele>1038.0</ele><time>2026-05-02T17:03:20.931Z</time></trkpt><trkpt lat="42.6095508" lon="-3.7617544"><ele>1037.0</ele><time>2026-05-02T17:03:21.934Z</time></trkpt><trkpt lat="42.6095709" lon="-3.7619759"><ele>1036.0</ele><time>2026-05-02T17:03:22.932Z</time></trkpt><trkpt lat="42.6095896" lon="-3.7621944"><ele>1035.0</ele><time>2026-05-02T17:03:23.93Z</time></trkpt><trkpt lat="42.6096116" lon="-3.7624129"><ele>1035.0</ele><time>2026-05-02T17:03:24.927Z</time></trkpt><trkpt lat="42.6096279" lon="-3.7626312"><ele>1035.0</ele><time>2026-05-02T17:03:25.929Z</time></trkpt><trkpt lat="42.6096492" lon="-3.7628572"><ele>1035.0</ele><time>2026-05-02T17:03:26.923Z</time></trkpt><trkpt lat="42.6096678" lon="-3.7630743"><ele>1033.6666666666667</ele><time>2026-05-02T17:03:27.929Z</time></trkpt><trkpt lat="42.609685" lon="-3.7632967"><ele>1032.3333333333335</ele><time>2026-05-02T17:03:28.919Z</time></trkpt><trkpt lat="42.6096953" lon="-3.7635259"><ele>1031.0</ele><time>2026-05-02T17:03:29.928Z</time></trkpt><trkpt lat="42.6097198" lon="-3.7637474"><ele>1029.0</ele><time>2026-05-02T17:03:30.933Z</time></trkpt><trkpt lat="42.6097485" lon="-3.7639763"><ele>1027.0</ele><time>2026-05-02T17:03:31.926Z</time></trkpt><trkpt lat="42.6097739" lon="-3.7641941"><ele>1025.0</ele><time>2026-05-02T17:03:32.927Z</time></trkpt><trkpt lat="42.6098112" lon="-3.764414"><ele>1025.0</ele><time>2026-05-02T17:03:33.933Z</time></trkpt><trkpt lat="42.6098572" lon="-3.7646258"><ele>1025.0</ele><time>2026-05-02T17:03:34.933Z</time></trkpt><trkpt lat="42.6099111" lon="-3.7648276"><ele>1025.0</ele><time>2026-05-02T17:03:35.918Z</time></trkpt><trkpt lat="42.609966" lon="-3.7650333"><ele>1024.0</ele><time>2026-05-02T17:03:36.918Z</time></trkpt><trkpt lat="42.6100295" lon="-3.7652415"><ele>1023.0</ele><time>2026-05-02T17:03:37.918Z</time></trkpt><trkpt lat="42.6100956" lon="-3.765438"><ele>1022.0</ele><time>2026-05-02T17:03:38.922Z</time></trkpt><trkpt lat="42.6101527" lon="-3.7656398"><ele>1022.0</ele><time>2026-05-02T17:03:39.928Z</time></trkpt><trkpt lat="42.6102164" lon="-3.7658476"><ele>1022.0</ele><time>2026-05-02T17:03:40.921Z</time></trkpt><trkpt lat="42.610285" lon="-3.7660507"><ele>1022.0</ele><time>2026-05-02T17:03:41.925Z</time></trkpt><trkpt lat="42.6103527" lon="-3.766261"><ele>1021.3333333333334</ele><time>2026-05-02T17:03:42.924Z</time></trkpt><trkpt lat="42.6104216" lon="-3.7664703"><ele>1020.6666666666667</ele><time>2026-05-02T17:03:43.926Z</time></trkpt><trkpt lat="42.610488" lon="-3.7666847"><ele>1020.0</ele><time>2026-05-02T17:03:44.923Z</time></trkpt><trkpt lat="42.6105555" lon="-3.7668985"><ele>1019.3333333333333</ele><time>2026-05-02T17:03:45.932Z</time></trkpt><trkpt lat="42.6106263" lon="-3.7671155"><ele>1018.6666666666666</ele><time>2026-05-02T17:03:46.944Z</time></trkpt><trkpt lat="42.6106961" lon="-3.7673281"><ele>1018.0</ele><time>2026-05-02T17:03:47.932Z</time></trkpt><trkpt lat="42.6107628" lon="-3.7675488"><ele>1016.0</ele><time>2026-05-02T17:03:48.934Z</time></trkpt><trkpt lat="42.6108306" lon="-3.767759"><ele>1014.0</ele><time>2026-05-02T17:03:49.936Z</time></trkpt><trkpt lat="42.6109029" lon="-3.7679681"><ele>1012.0</ele><time>2026-05-02T17:03:50.929Z</time></trkpt><trkpt lat="42.6109786" lon="-3.7681784"><ele>1012.0</ele><time>2026-05-02T17:03:51.938Z</time></trkpt><trkpt lat="42.611054" lon="-3.7683831"><ele>1012.0</ele><time>2026-05-02T17:03:52.936Z</time></trkpt><trkpt lat="42.6111299" lon="-3.768581"><ele>1012.0</ele><time>2026-05-02T17:03:53.937Z</time></trkpt><trkpt lat="42.6111961" lon="-3.7687739"><ele>1011.6666666666666</ele><time>2026-05-02T17:03:54.936Z</time></trkpt><trkpt lat="42.6112591" lon="-3.768966"><ele>1011.3333333333333</ele><time>2026-05-02T17:03:55.934Z</time></trkpt><trkpt lat="42.6113161" lon="-3.7691718"><ele>1011.0</ele><time>2026-05-02T17:03:56.922Z</time></trkpt><trkpt lat="42.6113655" lon="-3.7693775"><ele>1008.3333333333333</ele><time>2026-05-02T17:03:57.932Z</time></trkpt><trkpt lat="42.6114057" lon="-3.7695917"><ele>1005.6666666666666</ele><time>2026-05-02T17:03:58.922Z</time></trkpt><trkpt lat="42.6114396" lon="-3.769794"><ele>1003.0</ele><time>2026-05-02T17:03:59.922Z</time></trkpt><trkpt lat="42.611476" lon="-3.7699927"><ele>1003.0</ele><time>2026-05-02T17:04:00.939Z</time></trkpt><trkpt lat="42.6115127" lon="-3.7701775"><ele>1003.0</ele><time>2026-05-02T17:04:01.925Z</time></trkpt><trkpt lat="42.6115523" lon="-3.770366"><ele>1003.0</ele><time>2026-05-02T17:04:02.923Z</time></trkpt><trkpt lat="42.6116036" lon="-3.7705557"><ele>1003.0</ele><time>2026-05-02T17:04:03.926Z</time></trkpt><trkpt lat="42.6116619" lon="-3.7707486"><ele>1001.3333333333333</ele><time>2026-05-02T17:04:04.927Z</time></trkpt><trkpt lat="42.6117318" lon="-3.7709364"><ele>999.6666666666667</ele><time>2026-05-02T17:04:05.925Z</time></trkpt><trkpt lat="42.6117997" lon="-3.7711237"><ele>998.0</ele><time>2026-05-02T17:04:06.925Z</time></trkpt><trkpt lat="42.6118712" lon="-3.7713139"><ele>997.6666666666667</ele><time>2026-05-02T17:04:07.922Z</time></trkpt><trkpt lat="42.6119405" lon="-3.7715094"><ele>997.3333333333333</ele><time>2026-05-02T17:04:08.929Z</time></trkpt><trkpt lat="42.6120081" lon="-3.7717025"><ele>997.0</ele><time>2026-05-02T17:04:09.927Z</time></trkpt><trkpt lat="42.6120699" lon="-3.7718957"><ele>995.5</ele><time>2026-05-02T17:04:10.925Z</time></trkpt><trkpt lat="42.612137" lon="-3.7720848"><ele>994.0</ele><time>2026-05-02T17:04:11.927Z</time></trkpt><trkpt lat="42.6121924" lon="-3.7722631"><ele>992.5</ele><time>2026-05-02T17:04:12.927Z</time></trkpt><trkpt lat="42.612238" lon="-3.772438"><ele>991.0</ele><time>2026-05-02T17:04:13.911Z</time></trkpt><trkpt lat="42.6122736" lon="-3.7726119"><ele>990.5</ele><time>2026-05-02T17:04:14.917Z</time></trkpt><trkpt lat="42.6122935" lon="-3.7728027"><ele>990.0</ele><time>2026-05-02T17:04:15.916Z</time></trkpt><trkpt lat="42.6123011" lon="-3.7729965"><ele>989.5</ele><time>2026-05-02T17:04:16.917Z</time></trkpt><trkpt lat="42.6122917" lon="-3.7731892"><ele>989.0</ele><time>2026-05-02T17:04:17.924Z</time></trkpt><trkpt lat="42.6122641" lon="-3.7733821"><ele>989.75</ele><time>2026-05-02T17:04:18.915Z</time></trkpt><trkpt lat="42.612229" lon="-3.7735753"><ele>990.5</ele><time>2026-05-02T17:04:19.909Z</time></trkpt><trkpt lat="42.6121678" lon="-3.773756"><ele>991.25</ele><time>2026-05-02T17:04:20.916Z</time></trkpt><trkpt lat="42.6120929" lon="-3.7739374"><ele>992.0</ele><time>2026-05-02T17:04:21.916Z</time></trkpt><trkpt lat="42.612013" lon="-3.7741213"><ele>988.75</ele><time>2026-05-02T17:04:22.913Z</time></trkpt><trkpt lat="42.6119269" lon="-3.7742868"><ele>985.5</ele><time>2026-05-02T17:04:23.919Z</time></trkpt><trkpt lat="42.6118304" lon="-3.7744414"><ele>982.25</ele><time>2026-05-02T17:04:24.921Z</time></trkpt><trkpt lat="42.6117398" lon="-3.7745998"><ele>979.0</ele><time>2026-05-02T17:04:25.924Z</time></trkpt><trkpt lat="42.611655" lon="-3.7747622"><ele>979.0</ele><time>2026-05-02T17:04:26.907Z</time></trkpt><trkpt lat="42.6115672" lon="-3.7749159"><ele>979.0</ele><time>2026-05-02T17:04:27.914Z</time></trkpt><trkpt lat="42.6114845" lon="-3.7750789"><ele>979.0</ele><time>2026-05-02T17:04:28.917Z</time></trkpt><trkpt lat="42.6114022" lon="-3.7752476"><ele>979.0</ele><time>2026-05-02T17:04:29.913Z</time></trkpt><trkpt lat="42.6113381" lon="-3.7754296"><ele>979.5</ele><time>2026-05-02T17:04:30.926Z</time></trkpt><trkpt lat="42.611291" lon="-3.7756227"><ele>980.0</ele><time>2026-05-02T17:04:31.917Z</time></trkpt><trkpt lat="42.6112556" lon="-3.7758171"><ele>980.5</ele><time>2026-05-02T17:04:32.92Z</time></trkpt><trkpt lat="42.6112368" lon="-3.7760119"><ele>981.0</ele><time>2026-05-02T17:04:33.918Z</time></trkpt><trkpt lat="42.6112232" lon="-3.7762072"><ele>981.0</ele><time>2026-05-02T17:04:34.924Z</time></trkpt><trkpt lat="42.6112052" lon="-3.7763976"><ele>981.0</ele><time>2026-05-02T17:04:35.922Z</time></trkpt><trkpt lat="42.6112039" lon="-3.7765905"><ele>981.0</ele><time>2026-05-02T17:04:36.924Z</time></trkpt><trkpt lat="42.6112141" lon="-3.7767673"><ele>981.0</ele><time>2026-05-02T17:04:37.907Z</time></trkpt><trkpt lat="42.6111962" lon="-3.7769858"><ele>978.3333333333333</ele><time>2026-05-02T17:04:38.905Z</time></trkpt><trkpt lat="42.6111743" lon="-3.7771903"><ele>975.6666666666666</ele><time>2026-05-02T17:04:39.905Z</time></trkpt><trkpt lat="42.6111302" lon="-3.7773919"><ele>973.0</ele><time>2026-05-02T17:04:40.912Z</time></trkpt><trkpt lat="42.6110781" lon="-3.7775877"><ele>966.6666666666666</ele><time>2026-05-02T17:04:41.917Z</time></trkpt><trkpt lat="42.6110186" lon="-3.777789"><ele>960.3333333333333</ele><time>2026-05-02T17:04:42.91Z</time></trkpt><trkpt lat="42.610965" lon="-3.7779976"><ele>954.0</ele><time>2026-05-02T17:04:43.913Z</time></trkpt><trkpt lat="42.6108911" lon="-3.7781927"><ele>954.0</ele><time>2026-05-02T17:04:44.906Z</time></trkpt><trkpt lat="42.6108054" lon="-3.7783719"><ele>954.0</ele><time>2026-05-02T17:04:45.901Z</time></trkpt><trkpt lat="42.6107242" lon="-3.7785607"><ele>954.0</ele><time>2026-05-02T17:04:46.9Z</time></trkpt><trkpt lat="42.6106294" lon="-3.7787557"><ele>952.0</ele><time>2026-05-02T17:04:47.902Z</time></trkpt><trkpt lat="42.6105326" lon="-3.7789441"><ele>950.0</ele><time>2026-05-02T17:04:48.911Z</time></trkpt><trkpt lat="42.6104366" lon="-3.7791289"><ele>948.0</ele><time>2026-05-02T17:04:49.904Z</time></trkpt><trkpt lat="42.61034" lon="-3.779313"><ele>946.3333333333333</ele><time>2026-05-02T17:04:50.9Z</time></trkpt><trkpt lat="42.6102399" lon="-3.7794954"><ele>944.6666666666666</ele><time>2026-05-02T17:04:51.905Z</time></trkpt><trkpt lat="42.6101476" lon="-3.7796774"><ele>943.0</ele><time>2026-05-02T17:04:52.904Z</time></trkpt><trkpt lat="42.6100579" lon="-3.7798544"><ele>943.0</ele><time>2026-05-02T17:04:53.909Z</time></trkpt><trkpt lat="42.6099715" lon="-3.7800358"><ele>943.0</ele><time>2026-05-02T17:04:54.903Z</time></trkpt><trkpt lat="42.6098829" lon="-3.7802095"><ele>943.0</ele><time>2026-05-02T17:04:55.908Z</time></trkpt><trkpt lat="42.6097898" lon="-3.7803733"><ele>942.75</ele><time>2026-05-02T17:04:56.902Z</time></trkpt><trkpt lat="42.6097029" lon="-3.7805369"><ele>942.5</ele><time>2026-05-02T17:04:57.906Z</time></trkpt><trkpt lat="42.6096175" lon="-3.780706"><ele>942.25</ele><time>2026-05-02T17:04:58.906Z</time></trkpt><trkpt lat="42.6095364" lon="-3.7808724"><ele>942.0</ele><time>2026-05-02T17:04:59.908Z</time></trkpt><trkpt lat="42.609457" lon="-3.7810492"><ele>941.5</ele><time>2026-05-02T17:05:00.91Z</time></trkpt><trkpt lat="42.6093764" lon="-3.7812174"><ele>941.0</ele><time>2026-05-02T17:05:01.905Z</time></trkpt><trkpt lat="42.6092927" lon="-3.7813815"><ele>940.5</ele><time>2026-05-02T17:05:02.906Z</time></trkpt><trkpt lat="42.6092106" lon="-3.7815419"><ele>940.0</ele><time>2026-05-02T17:05:03.908Z</time></trkpt><trkpt lat="42.6091325" lon="-3.7817022"><ele>939.6</ele><time>2026-05-02T17:05:04.91Z</time></trkpt><trkpt lat="42.6090597" lon="-3.7818644"><ele>939.2</ele><time>2026-05-02T17:05:05.909Z</time></trkpt><trkpt lat="42.6089992" lon="-3.7820071"><ele>938.8</ele><time>2026-05-02T17:05:06.904Z</time></trkpt><trkpt lat="42.6089439" lon="-3.782131"><ele>938.4</ele><time>2026-05-02T17:05:07.882Z</time></trkpt><trkpt lat="42.6089003" lon="-3.7822049"><ele>938.0</ele><time>2026-05-02T17:05:08.897Z</time></trkpt><trkpt lat="42.6088237" lon="-3.7823226"><ele>938.0</ele><time>2026-05-02T17:05:10.903Z</time></trkpt><trkpt lat="42.608776" lon="-3.7824311"><ele>938.0</ele><time>2026-05-02T17:05:12.907Z</time></trkpt><trkpt lat="42.6087287" lon="-3.782522"><ele>938.0</ele><time>2026-05-02T17:05:14.905Z</time></trkpt><trkpt lat="42.6086819" lon="-3.7826123"><ele>938.0</ele><time>2026-05-02T17:05:17.905Z</time></trkpt><trkpt lat="42.6086401" lon="-3.7827222"><ele>938.0</ele><time>2026-05-02T17:06:21.916Z</time></trkpt><trkpt lat="42.608567" lon="-3.7828508"><ele>937.5000000000001</ele><time>2026-05-02T17:06:23.908Z</time></trkpt><trkpt lat="42.6085255" lon="-3.7829345"><ele>937.0</ele><time>2026-05-02T17:06:24.906Z</time></trkpt><trkpt lat="42.6084814" lon="-3.7830268"><ele>936.5</ele><time>2026-05-02T17:06:25.905Z</time></trkpt><trkpt lat="42.608432" lon="-3.7831289"><ele>936.0</ele><time>2026-05-02T17:06:26.905Z</time></trkpt><trkpt lat="42.6083755" lon="-3.7832332"><ele>935.5000000000001</ele><time>2026-05-02T17:06:27.907Z</time></trkpt><trkpt lat="42.6083185" lon="-3.7833402"><ele>935.0</ele><time>2026-05-02T17:06:28.906Z</time></trkpt><trkpt lat="42.6082604" lon="-3.7834521"><ele>934.5</ele><time>2026-05-02T17:06:29.907Z</time></trkpt><trkpt lat="42.6081984" lon="-3.7835729"><ele>934.0</ele><time>2026-05-02T17:06:30.913Z</time></trkpt><trkpt lat="42.6081354" lon="-3.7836969"><ele>933.5</ele><time>2026-05-02T17:06:31.905Z</time></trkpt><trkpt lat="42.608068" lon="-3.7838282"><ele>933.0</ele><time>2026-05-02T17:06:32.907Z</time></trkpt><trkpt lat="42.6080018" lon="-3.7839632"><ele>933.0</ele><time>2026-05-02T17:06:33.905Z</time></trkpt><trkpt lat="42.6079326" lon="-3.7841038"><ele>933.0</ele><time>2026-05-02T17:06:34.905Z</time></trkpt><trkpt lat="42.6078594" lon="-3.7842479"><ele>933.0</ele><time>2026-05-02T17:06:35.906Z</time></trkpt><trkpt lat="42.6077829" lon="-3.7843964"><ele>933.0</ele><time>2026-05-02T17:06:36.906Z</time></trkpt><trkpt lat="42.6077089" lon="-3.7845514"><ele>933.75</ele><time>2026-05-02T17:06:37.905Z</time></trkpt><trkpt lat="42.6076348" lon="-3.7846988"><ele>934.5</ele><time>2026-05-02T17:06:38.909Z</time></trkpt><trkpt lat="42.6075603" lon="-3.7848413"><ele>935.25</ele><time>2026-05-02T17:06:39.913Z</time></trkpt><trkpt lat="42.6074885" lon="-3.7849864"><ele>936.0</ele><time>2026-05-02T17:06:40.906Z</time></trkpt><trkpt lat="42.6074171" lon="-3.7851318"><ele>935.5</ele><time>2026-05-02T17:06:41.906Z</time></trkpt><trkpt lat="42.6073454" lon="-3.7852782"><ele>935.0</ele><time>2026-05-02T17:06:42.909Z</time></trkpt><trkpt lat="42.6072705" lon="-3.7854254"><ele>934.5</ele><time>2026-05-02T17:06:43.909Z</time></trkpt><trkpt lat="42.6071956" lon="-3.7855771"><ele>934.0</ele><time>2026-05-02T17:06:44.906Z</time></trkpt><trkpt lat="42.6071178" lon="-3.7857325"><ele>934.0</ele><time>2026-05-02T17:06:45.902Z</time></trkpt><trkpt lat="42.6070366" lon="-3.7858954"><ele>934.0</ele><time>2026-05-02T17:06:46.904Z</time></trkpt><trkpt lat="42.6069565" lon="-3.7860592"><ele>934.0</ele><time>2026-05-02T17:06:47.903Z</time></trkpt><trkpt lat="42.6068714" lon="-3.7862289"><ele>934.0</ele><time>2026-05-02T17:06:48.899Z</time></trkpt><trkpt lat="42.6067809" lon="-3.7863991"><ele>934.3333333333333</ele><time>2026-05-02T17:06:49.901Z</time></trkpt><trkpt lat="42.6066982" lon="-3.7865698"><ele>934.6666666666667</ele><time>2026-05-02T17:06:50.902Z</time></trkpt><trkpt lat="42.6066119" lon="-3.7867407"><ele>935.0</ele><time>2026-05-02T17:06:51.905Z</time></trkpt><trkpt lat="42.606523" lon="-3.7869131"><ele>934.3333333333334</ele><time>2026-05-02T17:06:52.921Z</time></trkpt><trkpt lat="42.6064325" lon="-3.7870886"><ele>933.6666666666667</ele><time>2026-05-02T17:06:53.909Z</time></trkpt><trkpt lat="42.6063495" lon="-3.787262"><ele>933.0</ele><time>2026-05-02T17:06:54.904Z</time></trkpt><trkpt lat="42.6062619" lon="-3.7874362"><ele>933.0</ele><time>2026-05-02T17:06:55.905Z</time></trkpt><trkpt lat="42.6061775" lon="-3.7876152"><ele>933.0</ele><time>2026-05-02T17:06:56.903Z</time></trkpt><trkpt lat="42.606089" lon="-3.7877865"><ele>933.0</ele><time>2026-05-02T17:06:57.909Z</time></trkpt><trkpt lat="42.6060016" lon="-3.7879585"><ele>932.6666666666667</ele><time>2026-05-02T17:06:58.903Z</time></trkpt><trkpt lat="42.6059102" lon="-3.7881347"><ele>932.3333333333334</ele><time>2026-05-02T17:06:59.904Z</time></trkpt><trkpt lat="42.6058216" lon="-3.7883137"><ele>932.0</ele><time>2026-05-02T17:07:00.915Z</time></trkpt><trkpt lat="42.6057321" lon="-3.788495"><ele>931.3333333333334</ele><time>2026-05-02T17:07:01.904Z</time></trkpt><trkpt lat="42.6056413" lon="-3.7886916"><ele>930.6666666666667</ele><time>2026-05-02T17:07:02.897Z</time></trkpt><trkpt lat="42.605543" lon="-3.7888715"><ele>930.0</ele><time>2026-05-02T17:07:03.901Z</time></trkpt><trkpt lat="42.6054524" lon="-3.7890422"><ele>930.0</ele><time>2026-05-02T17:07:04.898Z</time></trkpt><trkpt lat="42.6053739" lon="-3.7892121"><ele>930.0</ele><time>2026-05-02T17:07:05.902Z</time></trkpt><trkpt lat="42.6052847" lon="-3.7893832"><ele>930.0</ele><time>2026-05-02T17:07:06.895Z</time></trkpt><trkpt lat="42.6051999" lon="-3.7895543"><ele>930.0</ele><time>2026-05-02T17:07:07.905Z</time></trkpt><trkpt lat="42.6051154" lon="-3.7897283"><ele>930.0</ele><time>2026-05-02T17:07:08.903Z</time></trkpt><trkpt lat="42.6050281" lon="-3.7899006"><ele>930.0</ele><time>2026-05-02T17:07:09.906Z</time></trkpt><trkpt lat="42.6049437" lon="-3.7900797"><ele>930.0</ele><time>2026-05-02T17:07:10.903Z</time></trkpt><trkpt lat="42.6048564" lon="-3.7902535"><ele>930.0</ele><time>2026-05-02T17:07:11.902Z</time></trkpt><trkpt lat="42.6047655" lon="-3.7904278"><ele>930.0</ele><time>2026-05-02T17:07:12.903Z</time></trkpt><trkpt lat="42.6046799" lon="-3.7906108"><ele>930.0</ele><time>2026-05-02T17:07:13.893Z</time></trkpt><trkpt lat="42.6046034" lon="-3.7907983"><ele>930.0</ele><time>2026-05-02T17:07:14.894Z</time></trkpt><trkpt lat="42.6045126" lon="-3.7909891"><ele>930.0</ele><time>2026-05-02T17:07:15.9Z</time></trkpt><trkpt lat="42.6044267" lon="-3.7911631"><ele>930.0</ele><time>2026-05-02T17:07:16.896Z</time></trkpt><trkpt lat="42.6043352" lon="-3.7913336"><ele>930.0</ele><time>2026-05-02T17:07:17.902Z</time></trkpt><trkpt lat="42.6042401" lon="-3.7914997"><ele>930.0</ele><time>2026-05-02T17:07:18.902Z</time></trkpt><trkpt lat="42.6041479" lon="-3.7916737"><ele>930.6666666666667</ele><time>2026-05-02T17:07:19.908Z</time></trkpt><trkpt lat="42.604062" lon="-3.7918475"><ele>931.3333333333334</ele><time>2026-05-02T17:07:20.907Z</time></trkpt><trkpt lat="42.6039751" lon="-3.7920106"><ele>932.0</ele><time>2026-05-02T17:07:21.909Z</time></trkpt><trkpt lat="42.6038938" lon="-3.7921842"><ele>932.0</ele><time>2026-05-02T17:07:22.91Z</time></trkpt><trkpt lat="42.6038069" lon="-3.7923579"><ele>932.0</ele><time>2026-05-02T17:07:23.937Z</time></trkpt><trkpt lat="42.6037264" lon="-3.792536"><ele>932.0</ele><time>2026-05-02T17:07:24.908Z</time></trkpt><trkpt lat="42.603653" lon="-3.7927178"><ele>931.5</ele><time>2026-05-02T17:07:25.911Z</time></trkpt><trkpt lat="42.60358" lon="-3.7928958"><ele>931.0</ele><time>2026-05-02T17:07:26.909Z</time></trkpt><trkpt lat="42.6035188" lon="-3.7930648"><ele>930.5</ele><time>2026-05-02T17:07:27.91Z</time></trkpt><trkpt lat="42.6034671" lon="-3.7932313"><ele>930.0</ele><time>2026-05-02T17:07:28.912Z</time></trkpt><trkpt lat="42.6034121" lon="-3.7933912"><ele>930.25</ele><time>2026-05-02T17:07:29.91Z</time></trkpt><trkpt lat="42.6033572" lon="-3.7935472"><ele>930.5</ele><time>2026-05-02T17:07:30.914Z</time></trkpt><trkpt lat="42.6033146" lon="-3.7937063"><ele>930.75</ele><time>2026-05-02T17:07:31.91Z</time></trkpt><trkpt lat="42.6032687" lon="-3.7938574"><ele>931.0</ele><time>2026-05-02T17:07:32.911Z</time></trkpt><trkpt lat="42.6032271" lon="-3.7939983"><ele>931.0</ele><time>2026-05-02T17:07:33.916Z</time></trkpt><trkpt lat="42.6031818" lon="-3.7941294"><ele>930.9999999999999</ele><time>2026-05-02T17:07:34.911Z</time></trkpt><trkpt lat="42.6031376" lon="-3.794257"><ele>930.9999999999999</ele><time>2026-05-02T17:07:35.911Z</time></trkpt><trkpt lat="42.6030983" lon="-3.7943827"><ele>931.0</ele><time>2026-05-02T17:07:36.911Z</time></trkpt><trkpt lat="42.6030597" lon="-3.7945061"><ele>931.0</ele><time>2026-05-02T17:07:37.909Z</time></trkpt><trkpt lat="42.6030225" lon="-3.7946256"><ele>930.6666666666666</ele><time>2026-05-02T17:07:38.911Z</time></trkpt><trkpt lat="42.6029883" lon="-3.7947479"><ele>930.3333333333333</ele><time>2026-05-02T17:07:39.91Z</time></trkpt><trkpt lat="42.6029525" lon="-3.7948674"><ele>930.0</ele><time>2026-05-02T17:07:40.91Z</time></trkpt><trkpt lat="42.6029174" lon="-3.794976"><ele>929.6666666666667</ele><time>2026-05-02T17:07:41.912Z</time></trkpt><trkpt lat="42.6028868" lon="-3.7950772"><ele>929.3333333333334</ele><time>2026-05-02T17:07:42.911Z</time></trkpt><trkpt lat="42.6028545" lon="-3.795174"><ele>929.0</ele><time>2026-05-02T17:07:43.915Z</time></trkpt><trkpt lat="42.6028247" lon="-3.7952745"><ele>928.0000000000001</ele><time>2026-05-02T17:07:44.91Z</time></trkpt><trkpt lat="42.6027974" lon="-3.7953765"><ele>927.0</ele><time>2026-05-02T17:07:45.898Z</time></trkpt><trkpt lat="42.602773" lon="-3.7954719"><ele>926.0</ele><time>2026-05-02T17:07:46.919Z</time></trkpt><trkpt lat="42.6027527" lon="-3.7955569"><ele>925.0</ele><time>2026-05-02T17:07:47.907Z</time></trkpt><trkpt lat="42.602716" lon="-3.7957099"><ele>924.0000000000001</ele><time>2026-05-02T17:07:49.91Z</time></trkpt><trkpt lat="42.6026951" lon="-3.7957919"><ele>923.0</ele><time>2026-05-02T17:07:50.908Z</time></trkpt><trkpt lat="42.602648" lon="-3.7958831"><ele>923.0</ele><time>2026-05-02T17:07:52.912Z</time></trkpt><trkpt lat="42.6025701" lon="-3.7958943"><ele>923.0</ele><time>2026-05-02T17:07:54.901Z</time></trkpt><trkpt lat="42.6024594" lon="-3.7958166"><ele>923.0</ele><time>2026-05-02T17:07:56.908Z</time></trkpt><trkpt lat="42.6023999" lon="-3.795747"><ele>923.0</ele><time>2026-05-02T17:07:57.913Z</time></trkpt><trkpt lat="42.6023354" lon="-3.7956601"><ele>923.0</ele><time>2026-05-02T17:07:58.909Z</time></trkpt><trkpt lat="42.602265" lon="-3.7955642"><ele>923.0</ele><time>2026-05-02T17:07:59.909Z</time></trkpt><trkpt lat="42.6021871" lon="-3.7954661"><ele>923.0</ele><time>2026-05-02T17:08:00.916Z</time></trkpt><trkpt lat="42.6021035" lon="-3.7953693"><ele>923.0</ele><time>2026-05-02T17:08:01.912Z</time></trkpt><trkpt lat="42.6020146" lon="-3.7952636"><ele>923.0</ele><time>2026-05-02T17:08:02.911Z</time></trkpt><trkpt lat="42.6019216" lon="-3.7951544"><ele>922.75</ele><time>2026-05-02T17:08:03.915Z</time></trkpt><trkpt lat="42.601821" lon="-3.7950381"><ele>922.5</ele><time>2026-05-02T17:08:04.907Z</time></trkpt><trkpt lat="42.601716" lon="-3.7949184"><ele>922.25</ele><time>2026-05-02T17:08:05.911Z</time></trkpt><trkpt lat="42.6016082" lon="-3.7947973"><ele>922.0</ele><time>2026-05-02T17:08:06.915Z</time></trkpt><trkpt lat="42.601501" lon="-3.7946776"><ele>922.0</ele><time>2026-05-02T17:08:07.911Z</time></trkpt><trkpt lat="42.6013935" lon="-3.7945562"><ele>922.0</ele><time>2026-05-02T17:08:08.913Z</time></trkpt><trkpt lat="42.6012802" lon="-3.7944318"><ele>922.0</ele><time>2026-05-02T17:08:09.906Z</time></trkpt><trkpt lat="42.6011669" lon="-3.7942985"><ele>922.0</ele><time>2026-05-02T17:08:10.905Z</time></trkpt><trkpt lat="42.6010503" lon="-3.7941797"><ele>921.3333333333333</ele><time>2026-05-02T17:08:11.912Z</time></trkpt><trkpt lat="42.6009397" lon="-3.7940619"><ele>920.6666666666667</ele><time>2026-05-02T17:08:12.921Z</time></trkpt><trkpt lat="42.6007137" lon="-3.7938351"><ele>920.0</ele><time>2026-05-02T17:08:14.913Z</time></trkpt><trkpt lat="42.600604" lon="-3.7937157"><ele>920.0</ele><time>2026-05-02T17:08:15.914Z</time></trkpt><trkpt lat="42.6004954" lon="-3.7935956"><ele>920.0</ele><time>2026-05-02T17:08:16.91Z</time></trkpt><trkpt lat="42.6003778" lon="-3.7934738"><ele>920.0</ele><time>2026-05-02T17:08:17.914Z</time></trkpt><trkpt lat="42.600264" lon="-3.7933555"><ele>920.0</ele><time>2026-05-02T17:08:18.912Z</time></trkpt><trkpt lat="42.6001474" lon="-3.7932325"><ele>920.75</ele><time>2026-05-02T17:08:19.917Z</time></trkpt><trkpt lat="42.6000359" lon="-3.7931069"><ele>921.5</ele><time>2026-05-02T17:08:20.905Z</time></trkpt><trkpt lat="42.599928" lon="-3.7929788"><ele>922.25</ele><time>2026-05-02T17:08:21.904Z</time></trkpt><trkpt lat="42.599806" lon="-3.7928716"><ele>923.0</ele><time>2026-05-02T17:08:22.905Z</time></trkpt><trkpt lat="42.5996863" lon="-3.7927467"><ele>923.3333333333334</ele><time>2026-05-02T17:08:23.902Z</time></trkpt><trkpt lat="42.5995664" lon="-3.7926177"><ele>923.6666666666667</ele><time>2026-05-02T17:08:24.916Z</time></trkpt><trkpt lat="42.5994398" lon="-3.7924847"><ele>924.0</ele><time>2026-05-02T17:08:25.905Z</time></trkpt><trkpt lat="42.5993128" lon="-3.7923589"><ele>924.6666666666667</ele><time>2026-05-02T17:08:26.903Z</time></trkpt><trkpt lat="42.5991881" lon="-3.7922232"><ele>925.3333333333334</ele><time>2026-05-02T17:08:27.903Z</time></trkpt><trkpt lat="42.5990625" lon="-3.7920894"><ele>926.0</ele><time>2026-05-02T17:08:28.907Z</time></trkpt><trkpt lat="42.5989399" lon="-3.7919552"><ele>926.6666666666667</ele><time>2026-05-02T17:08:29.905Z</time></trkpt><trkpt lat="42.5988108" lon="-3.7918118"><ele>927.3333333333333</ele><time>2026-05-02T17:08:30.909Z</time></trkpt><trkpt lat="42.5986831" lon="-3.7916756"><ele>928.0</ele><time>2026-05-02T17:08:31.904Z</time></trkpt><trkpt lat="42.5985579" lon="-3.7915385"><ele>928.0</ele><time>2026-05-02T17:08:32.907Z</time></trkpt><trkpt lat="42.5984211" lon="-3.7913978"><ele>928.0</ele><time>2026-05-02T17:08:33.909Z</time></trkpt><trkpt lat="42.5982898" lon="-3.7912564"><ele>928.0</ele><time>2026-05-02T17:08:34.91Z</time></trkpt><trkpt lat="42.5981584" lon="-3.7911154"><ele>928.3333333333333</ele><time>2026-05-02T17:08:35.906Z</time></trkpt><trkpt lat="42.5980176" lon="-3.7909742"><ele>928.6666666666667</ele><time>2026-05-02T17:08:36.902Z</time></trkpt><trkpt lat="42.5978906" lon="-3.7908313"><ele>929.0</ele><time>2026-05-02T17:08:37.908Z</time></trkpt><trkpt lat="42.5977711" lon="-3.7907028"><ele>929.0</ele><time>2026-05-02T17:08:38.9Z</time></trkpt><trkpt lat="42.5976257" lon="-3.7905558"><ele>929.0</ele><time>2026-05-02T17:08:39.905Z</time></trkpt><trkpt lat="42.5974934" lon="-3.7904115"><ele>929.0</ele><time>2026-05-02T17:08:40.902Z</time></trkpt><trkpt lat="42.5973624" lon="-3.7902672"><ele>929.0</ele><time>2026-05-02T17:08:41.912Z</time></trkpt><trkpt lat="42.597228" lon="-3.7901283"><ele>929.0</ele><time>2026-05-02T17:08:42.903Z</time></trkpt><trkpt lat="42.597097" lon="-3.7899849"><ele>929.0</ele><time>2026-05-02T17:08:43.907Z</time></trkpt><trkpt lat="42.5969651" lon="-3.7898414"><ele>929.0</ele><time>2026-05-02T17:08:44.904Z</time></trkpt><trkpt lat="42.5968346" lon="-3.7896972"><ele>929.0</ele><time>2026-05-02T17:08:45.909Z</time></trkpt><trkpt lat="42.5967052" lon="-3.7895475"><ele>929.0</ele><time>2026-05-02T17:08:46.906Z</time></trkpt><trkpt lat="42.5965693" lon="-3.7893989"><ele>930.3333333333334</ele><time>2026-05-02T17:08:47.906Z</time></trkpt><trkpt lat="42.5964321" lon="-3.7892541"><ele>931.6666666666667</ele><time>2026-05-02T17:08:48.904Z</time></trkpt><trkpt lat="42.5962959" lon="-3.7891127"><ele>933.0</ele><time>2026-05-02T17:08:49.908Z</time></trkpt><trkpt lat="42.5961557" lon="-3.7889718"><ele>933.0</ele><time>2026-05-02T17:08:50.907Z</time></trkpt><trkpt lat="42.5960217" lon="-3.7888382"><ele>933.0</ele><time>2026-05-02T17:08:51.909Z</time></trkpt><trkpt lat="42.5958822" lon="-3.7887008"><ele>933.0</ele><time>2026-05-02T17:08:52.912Z</time></trkpt><trkpt lat="42.5957563" lon="-3.788559"><ele>934.6666666666667</ele><time>2026-05-02T17:08:53.905Z</time></trkpt><trkpt lat="42.5956221" lon="-3.7884182"><ele>936.3333333333334</ele><time>2026-05-02T17:08:54.903Z</time></trkpt><trkpt lat="42.5954905" lon="-3.7882764"><ele>938.0</ele><time>2026-05-02T17:08:55.915Z</time></trkpt><trkpt lat="42.5953559" lon="-3.7881371"><ele>937.6666666666667</ele><time>2026-05-02T17:08:56.905Z</time></trkpt><trkpt lat="42.5952218" lon="-3.7879984"><ele>937.3333333333333</ele><time>2026-05-02T17:08:57.905Z</time></trkpt><trkpt lat="42.5950835" lon="-3.7878674"><ele>937.0</ele><time>2026-05-02T17:08:58.906Z</time></trkpt><trkpt lat="42.5949443" lon="-3.787729"><ele>937.0</ele><time>2026-05-02T17:08:59.905Z</time></trkpt><trkpt lat="42.5948138" lon="-3.7875975"><ele>937.0</ele><time>2026-05-02T17:09:00.904Z</time></trkpt><trkpt lat="42.5946812" lon="-3.7874578"><ele>937.0</ele><time>2026-05-02T17:09:01.899Z</time></trkpt><trkpt lat="42.5945438" lon="-3.7873119"><ele>937.3333333333333</ele><time>2026-05-02T17:09:02.901Z</time></trkpt><trkpt lat="42.5944057" lon="-3.7871738"><ele>937.6666666666667</ele><time>2026-05-02T17:09:03.902Z</time></trkpt><trkpt lat="42.594267" lon="-3.7870452"><ele>938.0</ele><time>2026-05-02T17:09:04.902Z</time></trkpt><trkpt lat="42.594132" lon="-3.7869179"><ele>936.6666666666667</ele><time>2026-05-02T17:09:05.905Z</time></trkpt><trkpt lat="42.5940018" lon="-3.7868065"><ele>935.3333333333333</ele><time>2026-05-02T17:09:06.896Z</time></trkpt><trkpt lat="42.5938567" lon="-3.7867012"><ele>934.0</ele><time>2026-05-02T17:09:07.9Z</time></trkpt><trkpt lat="42.593709" lon="-3.7865728"><ele>935.6666666666666</ele><time>2026-05-02T17:09:08.908Z</time></trkpt><trkpt lat="42.5935618" lon="-3.7864503"><ele>937.3333333333333</ele><time>2026-05-02T17:09:09.901Z</time></trkpt><trkpt lat="42.5934102" lon="-3.7863386"><ele>939.0</ele><time>2026-05-02T17:09:10.9Z</time></trkpt><trkpt lat="42.5932599" lon="-3.7862382"><ele>939.0</ele><time>2026-05-02T17:09:11.891Z</time></trkpt><trkpt lat="42.5931172" lon="-3.7861366"><ele>939.0</ele><time>2026-05-02T17:09:12.89Z</time></trkpt><trkpt lat="42.592971" lon="-3.7860378"><ele>939.0</ele><time>2026-05-02T17:09:13.888Z</time></trkpt><trkpt lat="42.5928157" lon="-3.7859417"><ele>936.3333333333333</ele><time>2026-05-02T17:09:14.898Z</time></trkpt><trkpt lat="42.592649" lon="-3.7858513"><ele>933.6666666666666</ele><time>2026-05-02T17:09:15.903Z</time></trkpt><trkpt lat="42.5924918" lon="-3.7857749"><ele>931.0</ele><time>2026-05-02T17:09:16.904Z</time></trkpt><trkpt lat="42.5923315" lon="-3.7857001"><ele>931.0</ele><time>2026-05-02T17:09:17.901Z</time></trkpt><trkpt lat="42.5921796" lon="-3.7856369"><ele>931.0</ele><time>2026-05-02T17:09:18.9Z</time></trkpt><trkpt lat="42.5920165" lon="-3.7855745"><ele>931.0</ele><time>2026-05-02T17:09:19.902Z</time></trkpt><trkpt lat="42.5918527" lon="-3.7855218"><ele>930.6666666666666</ele><time>2026-05-02T17:09:20.903Z</time></trkpt><trkpt lat="42.5916951" lon="-3.7854785"><ele>930.3333333333333</ele><time>2026-05-02T17:09:21.909Z</time></trkpt><trkpt lat="42.5915428" lon="-3.7854339"><ele>930.0</ele><time>2026-05-02T17:09:22.909Z</time></trkpt><trkpt lat="42.591387" lon="-3.785395"><ele>930.0</ele><time>2026-05-02T17:09:23.904Z</time></trkpt><trkpt lat="42.5912274" lon="-3.7853657"><ele>930.0</ele><time>2026-05-02T17:09:24.904Z</time></trkpt><trkpt lat="42.5910719" lon="-3.7853422"><ele>930.0</ele><time>2026-05-02T17:09:25.907Z</time></trkpt><trkpt lat="42.5909141" lon="-3.7853131"><ele>928.3333333333333</ele><time>2026-05-02T17:09:26.914Z</time></trkpt><trkpt lat="42.5907619" lon="-3.7852876"><ele>926.6666666666666</ele><time>2026-05-02T17:09:27.908Z</time></trkpt><trkpt lat="42.5906033" lon="-3.7852771"><ele>925.0</ele><time>2026-05-02T17:09:28.901Z</time></trkpt><trkpt lat="42.5904454" lon="-3.7852756"><ele>926.6666666666666</ele><time>2026-05-02T17:09:29.903Z</time></trkpt><trkpt lat="42.5902853" lon="-3.7852739"><ele>928.3333333333333</ele><time>2026-05-02T17:09:30.906Z</time></trkpt><trkpt lat="42.5901288" lon="-3.7852618"><ele>930.0</ele><time>2026-05-02T17:09:31.905Z</time></trkpt><trkpt lat="42.589979" lon="-3.7852619"><ele>930.0</ele><time>2026-05-02T17:09:32.902Z</time></trkpt><trkpt lat="42.589827" lon="-3.7852672"><ele>930.0</ele><time>2026-05-02T17:09:33.901Z</time></trkpt><trkpt lat="42.5896822" lon="-3.7852827"><ele>930.0</ele><time>2026-05-02T17:09:34.901Z</time></trkpt><trkpt lat="42.5895329" lon="-3.7853006"><ele>930.0</ele><time>2026-05-02T17:09:35.904Z</time></trkpt><trkpt lat="42.5893854" lon="-3.7853266"><ele>933.0</ele><time>2026-05-02T17:09:36.904Z</time></trkpt><trkpt lat="42.589235" lon="-3.7853521"><ele>936.0</ele><time>2026-05-02T17:09:37.908Z</time></trkpt><trkpt lat="42.5890927" lon="-3.7853815"><ele>939.0</ele><time>2026-05-02T17:09:38.91Z</time></trkpt><trkpt lat="42.5889457" lon="-3.7854131"><ele>942.0</ele><time>2026-05-02T17:09:39.908Z</time></trkpt><trkpt lat="42.5888042" lon="-3.7854456"><ele>943.0</ele><time>2026-05-02T17:09:40.911Z</time></trkpt><trkpt lat="42.5886656" lon="-3.7854815"><ele>944.0</ele><time>2026-05-02T17:09:41.907Z</time></trkpt><trkpt lat="42.5885267" lon="-3.7855174"><ele>945.0</ele><time>2026-05-02T17:09:42.907Z</time></trkpt><trkpt lat="42.5883815" lon="-3.7855492"><ele>946.0</ele><time>2026-05-02T17:09:43.905Z</time></trkpt><trkpt lat="42.5882331" lon="-3.7855804"><ele>946.0</ele><time>2026-05-02T17:09:44.907Z</time></trkpt><trkpt lat="42.5880846" lon="-3.7856132"><ele>946.0</ele><time>2026-05-02T17:09:45.905Z</time></trkpt><trkpt lat="42.587924" lon="-3.7856434"><ele>946.0</ele><time>2026-05-02T17:09:46.894Z</time></trkpt><trkpt lat="42.5877647" lon="-3.7856587"><ele>944.3333333333333</ele><time>2026-05-02T17:09:47.895Z</time></trkpt><trkpt lat="42.5876149" lon="-3.7856753"><ele>942.6666666666667</ele><time>2026-05-02T17:09:48.899Z</time></trkpt><trkpt lat="42.5874627" lon="-3.7856854"><ele>941.0</ele><time>2026-05-02T17:09:49.903Z</time></trkpt><trkpt lat="42.5873121" lon="-3.7856806"><ele>941.0</ele><time>2026-05-02T17:09:50.905Z</time></trkpt><trkpt lat="42.5871649" lon="-3.7856712"><ele>941.0</ele><time>2026-05-02T17:09:51.906Z</time></trkpt><trkpt lat="42.5870168" lon="-3.7856579"><ele>941.0</ele><time>2026-05-02T17:09:52.912Z</time></trkpt><trkpt lat="42.5868723" lon="-3.7856426"><ele>941.0</ele><time>2026-05-02T17:09:53.916Z</time></trkpt><trkpt lat="42.5867187" lon="-3.7856302"><ele>938.3333333333334</ele><time>2026-05-02T17:09:54.919Z</time></trkpt><trkpt lat="42.5865646" lon="-3.7856063"><ele>935.6666666666667</ele><time>2026-05-02T17:09:55.914Z</time></trkpt><trkpt lat="42.586411" lon="-3.785579"><ele>933.0</ele><time>2026-05-02T17:09:56.909Z</time></trkpt><trkpt lat="42.5862615" lon="-3.7855554"><ele>929.0</ele><time>2026-05-02T17:09:57.921Z</time></trkpt><trkpt lat="42.5861002" lon="-3.7854972"><ele>925.0</ele><time>2026-05-02T17:09:58.9Z</time></trkpt><trkpt lat="42.5859456" lon="-3.7854352"><ele>921.0</ele><time>2026-05-02T17:09:59.902Z</time></trkpt><trkpt lat="42.5857931" lon="-3.7853801"><ele>921.0</ele><time>2026-05-02T17:10:00.901Z</time></trkpt><trkpt lat="42.5856379" lon="-3.7853215"><ele>921.0</ele><time>2026-05-02T17:10:01.898Z</time></trkpt><trkpt lat="42.5854794" lon="-3.7852643"><ele>921.0</ele><time>2026-05-02T17:10:02.898Z</time></trkpt><trkpt lat="42.5853169" lon="-3.7851991"><ele>923.0</ele><time>2026-05-02T17:10:03.906Z</time></trkpt><trkpt lat="42.5851529" lon="-3.7851394"><ele>925.0</ele><time>2026-05-02T17:10:04.903Z</time></trkpt><trkpt lat="42.584987" lon="-3.7850789"><ele>927.0</ele><time>2026-05-02T17:10:05.904Z</time></trkpt><trkpt lat="42.5848328" lon="-3.7850188"><ele>927.0</ele><time>2026-05-02T17:10:06.903Z</time></trkpt><trkpt lat="42.5846739" lon="-3.7849493"><ele>927.0</ele><time>2026-05-02T17:10:07.905Z</time></trkpt><trkpt lat="42.5845192" lon="-3.7848851"><ele>927.0</ele><time>2026-05-02T17:10:08.904Z</time></trkpt><trkpt lat="42.5843622" lon="-3.7848162"><ele>924.0</ele><time>2026-05-02T17:10:09.904Z</time></trkpt><trkpt lat="42.5842028" lon="-3.784737"><ele>921.0</ele><time>2026-05-02T17:10:10.902Z</time></trkpt><trkpt lat="42.5840449" lon="-3.7846586"><ele>918.0</ele><time>2026-05-02T17:10:11.905Z</time></trkpt><trkpt lat="42.5838756" lon="-3.7845538"><ele>918.0</ele><time>2026-05-02T17:10:12.898Z</time></trkpt><trkpt lat="42.583717" lon="-3.7844579"><ele>918.0</ele><time>2026-05-02T17:10:13.901Z</time></trkpt><trkpt lat="42.5835768" lon="-3.7843597"><ele>918.0</ele><time>2026-05-02T17:10:14.902Z</time></trkpt><trkpt lat="42.5834371" lon="-3.784269"><ele>918.0</ele><time>2026-05-02T17:10:15.902Z</time></trkpt><trkpt lat="42.583301" lon="-3.7841764"><ele>918.0</ele><time>2026-05-02T17:10:16.896Z</time></trkpt><trkpt lat="42.5831649" lon="-3.7840803"><ele>918.0</ele><time>2026-05-02T17:10:17.903Z</time></trkpt><trkpt lat="42.5830304" lon="-3.7839785"><ele>918.0</ele><time>2026-05-02T17:10:18.899Z</time></trkpt><trkpt lat="42.5828977" lon="-3.7838696"><ele>918.0</ele><time>2026-05-02T17:10:19.9Z</time></trkpt><trkpt lat="42.5827608" lon="-3.7837535"><ele>918.0</ele><time>2026-05-02T17:10:20.899Z</time></trkpt><trkpt lat="42.5826285" lon="-3.78364"><ele>918.6666666666667</ele><time>2026-05-02T17:10:21.895Z</time></trkpt><trkpt lat="42.5824955" lon="-3.7835304"><ele>919.3333333333334</ele><time>2026-05-02T17:10:22.898Z</time></trkpt><trkpt lat="42.5823639" lon="-3.7834119"><ele>920.0</ele><time>2026-05-02T17:10:23.902Z</time></trkpt><trkpt lat="42.5822404" lon="-3.7832768"><ele>920.0</ele><time>2026-05-02T17:10:24.894Z</time></trkpt><trkpt lat="42.5821199" lon="-3.7831369"><ele>920.0</ele><time>2026-05-02T17:10:25.893Z</time></trkpt><trkpt lat="42.58199" lon="-3.7829949"><ele>920.0</ele><time>2026-05-02T17:10:26.889Z</time></trkpt><trkpt lat="42.5818655" lon="-3.7828457"><ele>920.0</ele><time>2026-05-02T17:10:27.894Z</time></trkpt><trkpt lat="42.5817372" lon="-3.7826977"><ele>920.0</ele><time>2026-05-02T17:10:28.903Z</time></trkpt><trkpt lat="42.5816016" lon="-3.7825441"><ele>920.0</ele><time>2026-05-02T17:10:29.896Z</time></trkpt><trkpt lat="42.5814748" lon="-3.7823994"><ele>920.0</ele><time>2026-05-02T17:10:30.902Z</time></trkpt><trkpt lat="42.5813508" lon="-3.7822641"><ele>920.0</ele><time>2026-05-02T17:10:31.901Z</time></trkpt><trkpt lat="42.5812216" lon="-3.7821168"><ele>920.0</ele><time>2026-05-02T17:10:32.896Z</time></trkpt><trkpt lat="42.5810998" lon="-3.7819794"><ele>919.0</ele><time>2026-05-02T17:10:33.897Z</time></trkpt><trkpt lat="42.5809801" lon="-3.7818426"><ele>918.0</ele><time>2026-05-02T17:10:34.897Z</time></trkpt><trkpt lat="42.5808573" lon="-3.7817073"><ele>917.0</ele><time>2026-05-02T17:10:35.901Z</time></trkpt><trkpt lat="42.5807379" lon="-3.7815694"><ele>917.0</ele><time>2026-05-02T17:10:36.897Z</time></trkpt><trkpt lat="42.5806114" lon="-3.781428"><ele>917.0</ele><time>2026-05-02T17:10:37.905Z</time></trkpt><trkpt lat="42.5804826" lon="-3.7812762"><ele>917.0</ele><time>2026-05-02T17:10:38.895Z</time></trkpt><trkpt lat="42.5803283" lon="-3.7811245"><ele>916.0</ele><time>2026-05-02T17:10:39.898Z</time></trkpt><trkpt lat="42.5802161" lon="-3.7809786"><ele>915.0</ele><time>2026-05-02T17:10:40.894Z</time></trkpt><trkpt lat="42.5801101" lon="-3.7808422"><ele>914.0</ele><time>2026-05-02T17:10:41.889Z</time></trkpt><trkpt lat="42.5800013" lon="-3.7807051"><ele>914.0</ele><time>2026-05-02T17:10:42.892Z</time></trkpt><trkpt lat="42.5798812" lon="-3.7805637"><ele>914.0</ele><time>2026-05-02T17:10:43.892Z</time></trkpt><trkpt lat="42.5797582" lon="-3.7804297"><ele>914.0</ele><time>2026-05-02T17:10:44.89Z</time></trkpt><trkpt lat="42.579637" lon="-3.7803023"><ele>913.0</ele><time>2026-05-02T17:10:45.896Z</time></trkpt><trkpt lat="42.5795031" lon="-3.7801725"><ele>912.0</ele><time>2026-05-02T17:10:46.902Z</time></trkpt><trkpt lat="42.5793726" lon="-3.7800448"><ele>911.0</ele><time>2026-05-02T17:10:47.898Z</time></trkpt><trkpt lat="42.5792394" lon="-3.7799252"><ele>911.0</ele><time>2026-05-02T17:10:48.895Z</time></trkpt><trkpt lat="42.5791051" lon="-3.7798129"><ele>911.0</ele><time>2026-05-02T17:10:49.899Z</time></trkpt><trkpt lat="42.5789658" lon="-3.7796986"><ele>911.0</ele><time>2026-05-02T17:10:50.896Z</time></trkpt><trkpt lat="42.5788289" lon="-3.7795808"><ele>911.0</ele><time>2026-05-02T17:10:51.899Z</time></trkpt><trkpt lat="42.5786919" lon="-3.7794685"><ele>911.0</ele><time>2026-05-02T17:10:52.903Z</time></trkpt><trkpt lat="42.5785513" lon="-3.779351"><ele>911.0</ele><time>2026-05-02T17:10:53.901Z</time></trkpt><trkpt lat="42.5784108" lon="-3.7792386"><ele>911.6666666666667</ele><time>2026-05-02T17:10:54.9Z</time></trkpt><trkpt lat="42.5782532" lon="-3.7791314"><ele>912.3333333333333</ele><time>2026-05-02T17:10:55.895Z</time></trkpt><trkpt lat="42.5781081" lon="-3.7790341"><ele>913.0</ele><time>2026-05-02T17:10:56.905Z</time></trkpt><trkpt lat="42.5779705" lon="-3.7789198"><ele>912.0</ele><time>2026-05-02T17:10:57.897Z</time></trkpt><trkpt lat="42.5778407" lon="-3.7787925"><ele>911.0</ele><time>2026-05-02T17:10:58.893Z</time></trkpt><trkpt lat="42.577726" lon="-3.7786697"><ele>910.0</ele><time>2026-05-02T17:10:59.906Z</time></trkpt><trkpt lat="42.5776056" lon="-3.7785196"><ele>911.0</ele><time>2026-05-02T17:11:00.897Z</time></trkpt><trkpt lat="42.5774918" lon="-3.778358"><ele>912.0</ele><time>2026-05-02T17:11:01.895Z</time></trkpt><trkpt lat="42.5773744" lon="-3.7782053"><ele>913.0</ele><time>2026-05-02T17:11:02.894Z</time></trkpt><trkpt lat="42.5772584" lon="-3.7780426"><ele>913.0</ele><time>2026-05-02T17:11:03.897Z</time></trkpt><trkpt lat="42.5771494" lon="-3.7778863"><ele>913.0</ele><time>2026-05-02T17:11:04.895Z</time></trkpt><trkpt lat="42.5770477" lon="-3.7777206"><ele>913.0</ele><time>2026-05-02T17:11:05.892Z</time></trkpt><trkpt lat="42.5769426" lon="-3.7775479"><ele>911.6666666666666</ele><time>2026-05-02T17:11:06.893Z</time></trkpt><trkpt lat="42.5768323" lon="-3.7773797"><ele>910.3333333333333</ele><time>2026-05-02T17:11:07.896Z</time></trkpt><trkpt lat="42.5767199" lon="-3.7772125"><ele>909.0</ele><time>2026-05-02T17:11:08.898Z</time></trkpt><trkpt lat="42.5766083" lon="-3.7770385"><ele>909.0</ele><time>2026-05-02T17:11:09.893Z</time></trkpt><trkpt lat="42.576491" lon="-3.7768761"><ele>909.0</ele><time>2026-05-02T17:11:10.895Z</time></trkpt><trkpt lat="42.5763793" lon="-3.7767127"><ele>909.0</ele><time>2026-05-02T17:11:11.896Z</time></trkpt><trkpt lat="42.5762655" lon="-3.776536"><ele>908.0</ele><time>2026-05-02T17:11:12.895Z</time></trkpt><trkpt lat="42.5761504" lon="-3.7763622"><ele>907.0</ele><time>2026-05-02T17:11:13.897Z</time></trkpt><trkpt lat="42.576033" lon="-3.7761957"><ele>906.0</ele><time>2026-05-02T17:11:14.896Z</time></trkpt><trkpt lat="42.5759128" lon="-3.7760299"><ele>907.6666666666667</ele><time>2026-05-02T17:11:15.896Z</time></trkpt><trkpt lat="42.5757842" lon="-3.7758716"><ele>909.3333333333334</ele><time>2026-05-02T17:11:16.894Z</time></trkpt><trkpt lat="42.575659" lon="-3.7757247"><ele>911.0</ele><time>2026-05-02T17:11:17.899Z</time></trkpt><trkpt lat="42.5755271" lon="-3.7755832"><ele>911.0</ele><time>2026-05-02T17:11:18.897Z</time></trkpt><trkpt lat="42.575394" lon="-3.7754513"><ele>911.0</ele><time>2026-05-02T17:11:19.897Z</time></trkpt><trkpt lat="42.5752505" lon="-3.7753304"><ele>911.0</ele><time>2026-05-02T17:11:20.892Z</time></trkpt><trkpt lat="42.5750987" lon="-3.7752172"><ele>910.6666666666667</ele><time>2026-05-02T17:11:21.893Z</time></trkpt><trkpt lat="42.5749526" lon="-3.7750975"><ele>910.3333333333333</ele><time>2026-05-02T17:11:22.893Z</time></trkpt><trkpt lat="42.5748155" lon="-3.7749821"><ele>910.0</ele><time>2026-05-02T17:11:23.888Z</time></trkpt><trkpt lat="42.5746713" lon="-3.7748671"><ele>910.0</ele><time>2026-05-02T17:11:24.899Z</time></trkpt><trkpt lat="42.5745302" lon="-3.7747454"><ele>910.0</ele><time>2026-05-02T17:11:25.895Z</time></trkpt><trkpt lat="42.5743874" lon="-3.7746265"><ele>910.0</ele><time>2026-05-02T17:11:26.895Z</time></trkpt><trkpt lat="42.5742522" lon="-3.7745079"><ele>909.6666666666666</ele><time>2026-05-02T17:11:27.895Z</time></trkpt><trkpt lat="42.5741117" lon="-3.7743861"><ele>909.3333333333333</ele><time>2026-05-02T17:11:28.896Z</time></trkpt><trkpt lat="42.573975" lon="-3.7742682"><ele>909.0</ele><time>2026-05-02T17:11:29.899Z</time></trkpt><trkpt lat="42.5738376" lon="-3.7741537"><ele>908.6666666666667</ele><time>2026-05-02T17:11:30.916Z</time></trkpt><trkpt lat="42.5737072" lon="-3.7740355"><ele>908.3333333333334</ele><time>2026-05-02T17:11:31.891Z</time></trkpt><trkpt lat="42.5735783" lon="-3.773908"><ele>908.0</ele><time>2026-05-02T17:11:32.897Z</time></trkpt><trkpt lat="42.5734539" lon="-3.7737843"><ele>908.0</ele><time>2026-05-02T17:11:33.898Z</time></trkpt><trkpt lat="42.5733264" lon="-3.7736583"><ele>908.0</ele><time>2026-05-02T17:11:34.891Z</time></trkpt><trkpt lat="42.5732089" lon="-3.773531"><ele>908.0</ele><time>2026-05-02T17:11:35.892Z</time></trkpt><trkpt lat="42.5730871" lon="-3.773397"><ele>908.3333333333334</ele><time>2026-05-02T17:11:36.889Z</time></trkpt><trkpt lat="42.5729646" lon="-3.7732637"><ele>908.6666666666667</ele><time>2026-05-02T17:11:37.892Z</time></trkpt><trkpt lat="42.5728376" lon="-3.7731296"><ele>909.0</ele><time>2026-05-02T17:11:38.89Z</time></trkpt><trkpt lat="42.5727038" lon="-3.7730029"><ele>909.0</ele><time>2026-05-02T17:11:39.892Z</time></trkpt><trkpt lat="42.5725747" lon="-3.7728776"><ele>909.0</ele><time>2026-05-02T17:11:40.891Z</time></trkpt><trkpt lat="42.5724452" lon="-3.7727439"><ele>909.0</ele><time>2026-05-02T17:11:41.889Z</time></trkpt><trkpt lat="42.5723149" lon="-3.7726098"><ele>908.0</ele><time>2026-05-02T17:11:42.891Z</time></trkpt><trkpt lat="42.5721868" lon="-3.7724736"><ele>907.0</ele><time>2026-05-02T17:11:43.892Z</time></trkpt><trkpt lat="42.5720613" lon="-3.7723445"><ele>906.0</ele><time>2026-05-02T17:11:44.894Z</time></trkpt><trkpt lat="42.5719351" lon="-3.7722183"><ele>906.0</ele><time>2026-05-02T17:11:45.896Z</time></trkpt><trkpt lat="42.5718063" lon="-3.7720882"><ele>906.0</ele><time>2026-05-02T17:11:46.886Z</time></trkpt><trkpt lat="42.5716762" lon="-3.771959"><ele>906.0</ele><time>2026-05-02T17:11:47.884Z</time></trkpt><trkpt lat="42.5715569" lon="-3.7718222"><ele>906.0</ele><time>2026-05-02T17:11:48.891Z</time></trkpt><trkpt lat="42.5714579" lon="-3.7716912"><ele>906.0</ele><time>2026-05-02T17:11:49.882Z</time></trkpt><trkpt lat="42.5713233" lon="-3.771541"><ele>906.0</ele><time>2026-05-02T17:11:50.884Z</time></trkpt><trkpt lat="42.5711803" lon="-3.7713809"><ele>906.0</ele><time>2026-05-02T17:11:51.89Z</time></trkpt><trkpt lat="42.5710371" lon="-3.7712367"><ele>906.0</ele><time>2026-05-02T17:11:52.893Z</time></trkpt><trkpt lat="42.5709" lon="-3.7710935"><ele>906.0</ele><time>2026-05-02T17:11:53.898Z</time></trkpt><trkpt lat="42.5707618" lon="-3.7709589"><ele>908.6666666666667</ele><time>2026-05-02T17:11:54.891Z</time></trkpt><trkpt lat="42.5706316" lon="-3.7708238"><ele>911.3333333333334</ele><time>2026-05-02T17:11:55.895Z</time></trkpt><trkpt lat="42.5704953" lon="-3.7706972"><ele>914.0</ele><time>2026-05-02T17:11:56.89Z</time></trkpt><trkpt lat="42.5703601" lon="-3.7705757"><ele>911.3333333333334</ele><time>2026-05-02T17:11:57.893Z</time></trkpt><trkpt lat="42.5702221" lon="-3.7704603"><ele>908.6666666666667</ele><time>2026-05-02T17:11:58.895Z</time></trkpt><trkpt lat="42.5700828" lon="-3.7703463"><ele>906.0</ele><time>2026-05-02T17:11:59.894Z</time></trkpt><trkpt lat="42.5699367" lon="-3.7702333"><ele>906.3333333333333</ele><time>2026-05-02T17:12:00.894Z</time></trkpt><trkpt lat="42.5697883" lon="-3.7701467"><ele>906.6666666666666</ele><time>2026-05-02T17:12:01.91Z</time></trkpt><trkpt lat="42.5696293" lon="-3.7700608"><ele>907.0</ele><time>2026-05-02T17:12:02.886Z</time></trkpt><trkpt lat="42.5694657" lon="-3.7699864"><ele>907.0</ele><time>2026-05-02T17:12:03.886Z</time></trkpt><trkpt lat="42.5693095" lon="-3.7699176"><ele>907.0</ele><time>2026-05-02T17:12:04.888Z</time></trkpt><trkpt lat="42.5691433" lon="-3.7698443"><ele>907.0</ele><time>2026-05-02T17:12:05.889Z</time></trkpt><trkpt lat="42.568983" lon="-3.769769"><ele>907.0</ele><time>2026-05-02T17:12:06.893Z</time></trkpt><trkpt lat="42.5688218" lon="-3.7696997"><ele>907.0</ele><time>2026-05-02T17:12:07.885Z</time></trkpt><trkpt lat="42.5686659" lon="-3.7696309"><ele>907.0</ele><time>2026-05-02T17:12:08.896Z</time></trkpt><trkpt lat="42.5685148" lon="-3.7695538"><ele>907.0</ele><time>2026-05-02T17:12:09.894Z</time></trkpt><trkpt lat="42.5683665" lon="-3.7694794"><ele>907.0</ele><time>2026-05-02T17:12:10.883Z</time></trkpt><trkpt lat="42.5682282" lon="-3.7694106"><ele>907.0</ele><time>2026-05-02T17:12:11.899Z</time></trkpt><trkpt lat="42.5680906" lon="-3.7693518"><ele>907.0</ele><time>2026-05-02T17:12:12.897Z</time></trkpt><trkpt lat="42.5679559" lon="-3.7692962"><ele>907.0</ele><time>2026-05-02T17:12:13.901Z</time></trkpt><trkpt lat="42.5678173" lon="-3.7692472"><ele>907.0</ele><time>2026-05-02T17:12:14.899Z</time></trkpt><trkpt lat="42.5676766" lon="-3.7691962"><ele>907.0</ele><time>2026-05-02T17:12:15.897Z</time></trkpt><trkpt lat="42.5675484" lon="-3.7691517"><ele>906.75</ele><time>2026-05-02T17:12:16.895Z</time></trkpt><trkpt lat="42.5674131" lon="-3.7691002"><ele>906.5</ele><time>2026-05-02T17:12:17.902Z</time></trkpt><trkpt lat="42.5672707" lon="-3.7690437"><ele>906.25</ele><time>2026-05-02T17:12:18.892Z</time></trkpt><trkpt lat="42.5671249" lon="-3.7689939"><ele>906.0</ele><time>2026-05-02T17:12:19.9Z</time></trkpt><trkpt lat="42.5669784" lon="-3.7689426"><ele>906.0</ele><time>2026-05-02T17:12:20.895Z</time></trkpt><trkpt lat="42.5668306" lon="-3.768877"><ele>906.0</ele><time>2026-05-02T17:12:21.895Z</time></trkpt><trkpt lat="42.5666859" lon="-3.7688227"><ele>906.0</ele><time>2026-05-02T17:12:22.901Z</time></trkpt><trkpt lat="42.5665383" lon="-3.7687595"><ele>906.0</ele><time>2026-05-02T17:12:23.896Z</time></trkpt><trkpt lat="42.5663862" lon="-3.7686932"><ele>906.0</ele><time>2026-05-02T17:12:24.893Z</time></trkpt><trkpt lat="42.5662403" lon="-3.7686306"><ele>906.0</ele><time>2026-05-02T17:12:25.898Z</time></trkpt><trkpt lat="42.5660932" lon="-3.7685654"><ele>906.0</ele><time>2026-05-02T17:12:26.893Z</time></trkpt><trkpt lat="42.5659464" lon="-3.7685019"><ele>906.0</ele><time>2026-05-02T17:12:27.892Z</time></trkpt><trkpt lat="42.5658018" lon="-3.7684404"><ele>906.0</ele><time>2026-05-02T17:12:28.894Z</time></trkpt><trkpt lat="42.5656579" lon="-3.7683837"><ele>906.0</ele><time>2026-05-02T17:12:29.896Z</time></trkpt><trkpt lat="42.5655175" lon="-3.7683251"><ele>906.0</ele><time>2026-05-02T17:12:30.9Z</time></trkpt><trkpt lat="42.5653682" lon="-3.7682581"><ele>906.0</ele><time>2026-05-02T17:12:31.904Z</time></trkpt><trkpt lat="42.5652214" lon="-3.7681935"><ele>905.3333333333333</ele><time>2026-05-02T17:12:32.894Z</time></trkpt><trkpt lat="42.5650705" lon="-3.7681306"><ele>904.6666666666666</ele><time>2026-05-02T17:12:33.895Z</time></trkpt><trkpt lat="42.5649247" lon="-3.7680663"><ele>904.0</ele><time>2026-05-02T17:12:34.894Z</time></trkpt><trkpt lat="42.5647757" lon="-3.7680075"><ele>904.0</ele><time>2026-05-02T17:12:35.896Z</time></trkpt><trkpt lat="42.5646303" lon="-3.7679417"><ele>904.0</ele><time>2026-05-02T17:12:36.9Z</time></trkpt><trkpt lat="42.5644796" lon="-3.7678775"><ele>904.0</ele><time>2026-05-02T17:12:37.898Z</time></trkpt><trkpt lat="42.5643336" lon="-3.7678176"><ele>904.25</ele><time>2026-05-02T17:12:38.899Z</time></trkpt><trkpt lat="42.5641846" lon="-3.7677662"><ele>904.5</ele><time>2026-05-02T17:12:39.895Z</time></trkpt><trkpt lat="42.5640404" lon="-3.7677067"><ele>904.75</ele><time>2026-05-02T17:12:40.895Z</time></trkpt><trkpt lat="42.5639053" lon="-3.7676547"><ele>905.0</ele><time>2026-05-02T17:12:41.901Z</time></trkpt><trkpt lat="42.5637804" lon="-3.7676136"><ele>906.25</ele><time>2026-05-02T17:12:42.895Z</time></trkpt><trkpt lat="42.5636544" lon="-3.7675862"><ele>907.5</ele><time>2026-05-02T17:12:43.896Z</time></trkpt><trkpt lat="42.5635277" lon="-3.7675883"><ele>908.75</ele><time>2026-05-02T17:12:44.896Z</time></trkpt><trkpt lat="42.5634056" lon="-3.7676123"><ele>910.0</ele><time>2026-05-02T17:12:45.894Z</time></trkpt><trkpt lat="42.5632824" lon="-3.7676691"><ele>909.25</ele><time>2026-05-02T17:12:46.895Z</time></trkpt><trkpt lat="42.5631603" lon="-3.7677395"><ele>908.5</ele><time>2026-05-02T17:12:47.893Z</time></trkpt><trkpt lat="42.5630349" lon="-3.7678191"><ele>907.75</ele><time>2026-05-02T17:12:48.897Z</time></trkpt><trkpt lat="42.5629207" lon="-3.7679122"><ele>907.0</ele><time>2026-05-02T17:12:49.896Z</time></trkpt><trkpt lat="42.5628066" lon="-3.7679972"><ele>908.5</ele><time>2026-05-02T17:12:50.898Z</time></trkpt><trkpt lat="42.5626939" lon="-3.7680836"><ele>910.0</ele><time>2026-05-02T17:12:51.896Z</time></trkpt><trkpt lat="42.5625841" lon="-3.7681617"><ele>911.5</ele><time>2026-05-02T17:12:52.899Z</time></trkpt><trkpt lat="42.5624819" lon="-3.7682409"><ele>913.0</ele><time>2026-05-02T17:12:53.897Z</time></trkpt><trkpt lat="42.5623877" lon="-3.7683244"><ele>913.0</ele><time>2026-05-02T17:12:54.897Z</time></trkpt><trkpt lat="42.5623031" lon="-3.7684175"><ele>913.0</ele><time>2026-05-02T17:12:55.901Z</time></trkpt><trkpt lat="42.5622313" lon="-3.7685392"><ele>913.0</ele><time>2026-05-02T17:12:56.892Z</time></trkpt><trkpt lat="42.5621815" lon="-3.7686776"><ele>913.0</ele><time>2026-05-02T17:12:57.894Z</time></trkpt><trkpt lat="42.562152" lon="-3.7688306"><ele>911.75</ele><time>2026-05-02T17:12:58.888Z</time></trkpt><trkpt lat="42.5621278" lon="-3.7689962"><ele>910.5</ele><time>2026-05-02T17:12:59.892Z</time></trkpt><trkpt lat="42.5620962" lon="-3.7691626"><ele>909.25</ele><time>2026-05-02T17:13:00.895Z</time></trkpt><trkpt lat="42.5620536" lon="-3.7693212"><ele>908.0</ele><time>2026-05-02T17:13:01.887Z</time></trkpt><trkpt lat="42.5620023" lon="-3.7694703"><ele>911.25</ele><time>2026-05-02T17:13:02.901Z</time></trkpt><trkpt lat="42.5619501" lon="-3.7696163"><ele>914.5</ele><time>2026-05-02T17:13:03.895Z</time></trkpt><trkpt lat="42.5619022" lon="-3.769764"><ele>917.75</ele><time>2026-05-02T17:13:04.887Z</time></trkpt><trkpt lat="42.5618629" lon="-3.7699146"><ele>921.0</ele><time>2026-05-02T17:13:05.889Z</time></trkpt><trkpt lat="42.5618432" lon="-3.7700665"><ele>921.0</ele><time>2026-05-02T17:13:06.889Z</time></trkpt><trkpt lat="42.5618481" lon="-3.7702262"><ele>921.0</ele><time>2026-05-02T17:13:07.89Z</time></trkpt><trkpt lat="42.5618619" lon="-3.7703845"><ele>921.0</ele><time>2026-05-02T17:13:08.889Z</time></trkpt><trkpt lat="42.5618857" lon="-3.7705503"><ele>921.0</ele><time>2026-05-02T17:13:09.892Z</time></trkpt><trkpt lat="42.5619134" lon="-3.7707208"><ele>921.0</ele><time>2026-05-02T17:13:10.895Z</time></trkpt><trkpt lat="42.5619442" lon="-3.7708905"><ele>921.0</ele><time>2026-05-02T17:13:11.896Z</time></trkpt><trkpt lat="42.5619777" lon="-3.7710571"><ele>921.0</ele><time>2026-05-02T17:13:12.898Z</time></trkpt><trkpt lat="42.5620173" lon="-3.7712181"><ele>921.0</ele><time>2026-05-02T17:13:13.902Z</time></trkpt><trkpt lat="42.562063" lon="-3.7713791"><ele>919.4</ele><time>2026-05-02T17:13:14.89Z</time></trkpt><trkpt lat="42.5621203" lon="-3.7715177"><ele>917.8</ele><time>2026-05-02T17:13:15.897Z</time></trkpt><trkpt lat="42.5621767" lon="-3.7716421"><ele>916.1999999999999</ele><time>2026-05-02T17:13:16.894Z</time></trkpt><trkpt lat="42.5622237" lon="-3.7717536"><ele>914.5999999999999</ele><time>2026-05-02T17:13:17.897Z</time></trkpt><trkpt lat="42.562253" lon="-3.7718639"><ele>913.0</ele><time>2026-05-02T17:13:18.903Z</time></trkpt><trkpt lat="42.5622466" lon="-3.7719703"><ele>912.9999999999999</ele><time>2026-05-02T17:13:19.903Z</time></trkpt><trkpt lat="42.5622066" lon="-3.7720498"><ele>913.0</ele><time>2026-05-02T17:13:20.895Z</time></trkpt><trkpt lat="42.5621509" lon="-3.7721113"><ele>913.0</ele><time>2026-05-02T17:13:21.899Z</time></trkpt><trkpt lat="42.5620755" lon="-3.7721398"><ele>913.0</ele><time>2026-05-02T17:13:22.903Z</time></trkpt><trkpt lat="42.5619822" lon="-3.7721309"><ele>912.9999999999999</ele><time>2026-05-02T17:13:23.896Z</time></trkpt><trkpt lat="42.5618973" lon="-3.7721106"><ele>913.0</ele><time>2026-05-02T17:13:24.898Z</time></trkpt><trkpt lat="42.5618179" lon="-3.772061"><ele>913.4</ele><time>2026-05-02T17:13:25.894Z</time></trkpt><trkpt lat="42.5617238" lon="-3.7720009"><ele>913.8</ele><time>2026-05-02T17:13:26.891Z</time></trkpt><trkpt lat="42.56163" lon="-3.7719337"><ele>914.2</ele><time>2026-05-02T17:13:27.895Z</time></trkpt><trkpt lat="42.5615371" lon="-3.7718572"><ele>914.6</ele><time>2026-05-02T17:13:28.895Z</time></trkpt><trkpt lat="42.5614423" lon="-3.7717713"><ele>915.0</ele><time>2026-05-02T17:13:29.897Z</time></trkpt><trkpt lat="42.5613526" lon="-3.7716866"><ele>915.0</ele><time>2026-05-02T17:13:30.896Z</time></trkpt><trkpt lat="42.5612697" lon="-3.7715936"><ele>915.0</ele><time>2026-05-02T17:13:31.89Z</time></trkpt><trkpt lat="42.5611882" lon="-3.7714963"><ele>915.0</ele><time>2026-05-02T17:13:32.886Z</time></trkpt><trkpt lat="42.5611103" lon="-3.7713935"><ele>915.0</ele><time>2026-05-02T17:13:33.903Z</time></trkpt><trkpt lat="42.5610408" lon="-3.771288"><ele>915.0</ele><time>2026-05-02T17:13:34.89Z</time></trkpt><trkpt lat="42.5609809" lon="-3.7711763"><ele>914.8</ele><time>2026-05-02T17:13:35.89Z</time></trkpt><trkpt lat="42.560929" lon="-3.771054"><ele>914.6</ele><time>2026-05-02T17:13:36.888Z</time></trkpt><trkpt lat="42.5608781" lon="-3.7709297"><ele>914.4000000000001</ele><time>2026-05-02T17:13:37.884Z</time></trkpt><trkpt lat="42.560828" lon="-3.7708072"><ele>914.2</ele><time>2026-05-02T17:13:38.887Z</time></trkpt><trkpt lat="42.5607787" lon="-3.7706841"><ele>914.0</ele><time>2026-05-02T17:13:39.887Z</time></trkpt><trkpt lat="42.5607312" lon="-3.7705627"><ele>914.0</ele><time>2026-05-02T17:13:40.891Z</time></trkpt><trkpt lat="42.5606852" lon="-3.7704404"><ele>914.0000000000001</ele><time>2026-05-02T17:13:41.889Z</time></trkpt><trkpt lat="42.5606441" lon="-3.7703177"><ele>914.0000000000001</ele><time>2026-05-02T17:13:42.888Z</time></trkpt><trkpt lat="42.5605973" lon="-3.770189"><ele>914.0</ele><time>2026-05-02T17:13:43.889Z</time></trkpt><trkpt lat="42.560548" lon="-3.7700596"><ele>914.0</ele><time>2026-05-02T17:13:44.886Z</time></trkpt><trkpt lat="42.5604913" lon="-3.769928"><ele>915.25</ele><time>2026-05-02T17:13:45.889Z</time></trkpt><trkpt lat="42.5604279" lon="-3.7697996"><ele>916.5</ele><time>2026-05-02T17:13:46.887Z</time></trkpt><trkpt lat="42.5603584" lon="-3.7696662"><ele>917.75</ele><time>2026-05-02T17:13:47.89Z</time></trkpt><trkpt lat="42.5602798" lon="-3.7695263"><ele>919.0</ele><time>2026-05-02T17:13:48.888Z</time></trkpt><trkpt lat="42.5602039" lon="-3.7693901"><ele>916.5</ele><time>2026-05-02T17:13:49.89Z</time></trkpt><trkpt lat="42.5601303" lon="-3.7692578"><ele>914.0</ele><time>2026-05-02T17:13:50.888Z</time></trkpt><trkpt lat="42.5600537" lon="-3.7691278"><ele>911.5</ele><time>2026-05-02T17:13:51.896Z</time></trkpt><trkpt lat="42.559979" lon="-3.7689944"><ele>909.0</ele><time>2026-05-02T17:13:52.895Z</time></trkpt><trkpt lat="42.5598994" lon="-3.7688619"><ele>909.0</ele><time>2026-05-02T17:13:53.893Z</time></trkpt><trkpt lat="42.5598184" lon="-3.7687354"><ele>909.0</ele><time>2026-05-02T17:13:54.885Z</time></trkpt><trkpt lat="42.5597319" lon="-3.768623"><ele>909.0</ele><time>2026-05-02T17:13:55.892Z</time></trkpt><trkpt lat="42.5596358" lon="-3.7685293"><ele>909.0</ele><time>2026-05-02T17:13:56.897Z</time></trkpt><trkpt lat="42.5595279" lon="-3.7684623"><ele>907.25</ele><time>2026-05-02T17:13:57.906Z</time></trkpt><trkpt lat="42.5594114" lon="-3.7684161"><ele>905.5</ele><time>2026-05-02T17:13:58.899Z</time></trkpt><trkpt lat="42.5592867" lon="-3.7683844"><ele>903.75</ele><time>2026-05-02T17:13:59.906Z</time></trkpt><trkpt lat="42.5591681" lon="-3.7683403"><ele>902.0</ele><time>2026-05-02T17:14:00.906Z</time></trkpt><trkpt lat="42.5590364" lon="-3.7683145"><ele>902.0</ele><time>2026-05-02T17:14:01.896Z</time></trkpt><trkpt lat="42.5589063" lon="-3.7682906"><ele>902.0</ele><time>2026-05-02T17:14:02.901Z</time></trkpt><trkpt lat="42.5587761" lon="-3.7682785"><ele>902.0</ele><time>2026-05-02T17:14:03.9Z</time></trkpt><trkpt lat="42.5586507" lon="-3.7682867"><ele>902.0</ele><time>2026-05-02T17:14:04.904Z</time></trkpt><trkpt lat="42.5585268" lon="-3.7682855"><ele>901.75</ele><time>2026-05-02T17:14:05.894Z</time></trkpt><trkpt lat="42.558403" lon="-3.7682989"><ele>901.5</ele><time>2026-05-02T17:14:06.897Z</time></trkpt><trkpt lat="42.5582816" lon="-3.768351"><ele>901.25</ele><time>2026-05-02T17:14:07.898Z</time></trkpt><trkpt lat="42.5581665" lon="-3.7684236"><ele>901.0</ele><time>2026-05-02T17:14:08.888Z</time></trkpt><trkpt lat="42.5580645" lon="-3.7685189"><ele>901.0</ele><time>2026-05-02T17:14:09.892Z</time></trkpt><trkpt lat="42.5579714" lon="-3.7686266"><ele>901.0</ele><time>2026-05-02T17:14:10.891Z</time></trkpt><trkpt lat="42.5578852" lon="-3.7687537"><ele>901.0</ele><time>2026-05-02T17:14:11.891Z</time></trkpt><trkpt lat="42.5578014" lon="-3.7688949"><ele>901.0</ele><time>2026-05-02T17:14:12.889Z</time></trkpt><trkpt lat="42.5577285" lon="-3.7690613"><ele>902.75</ele><time>2026-05-02T17:14:13.893Z</time></trkpt><trkpt lat="42.5576699" lon="-3.76924"><ele>904.5</ele><time>2026-05-02T17:14:14.889Z</time></trkpt><trkpt lat="42.5576229" lon="-3.7694251"><ele>906.25</ele><time>2026-05-02T17:14:15.891Z</time></trkpt><trkpt lat="42.5576047" lon="-3.7696257"><ele>908.0</ele><time>2026-05-02T17:14:16.89Z</time></trkpt><trkpt lat="42.5576074" lon="-3.7698273"><ele>908.0</ele><time>2026-05-02T17:14:17.888Z</time></trkpt><trkpt lat="42.5576116" lon="-3.770035"><ele>908.0</ele><time>2026-05-02T17:14:18.881Z</time></trkpt><trkpt lat="42.5576184" lon="-3.7702458"><ele>908.0</ele><time>2026-05-02T17:14:19.885Z</time></trkpt><trkpt lat="42.5576192" lon="-3.7704597"><ele>908.5</ele><time>2026-05-02T17:14:20.885Z</time></trkpt><trkpt lat="42.5575969" lon="-3.7706501"><ele>909.0</ele><time>2026-05-02T17:14:21.884Z</time></trkpt><trkpt lat="42.5575594" lon="-3.7708303"><ele>909.5</ele><time>2026-05-02T17:14:22.889Z</time></trkpt><trkpt lat="42.5575026" lon="-3.7709978"><ele>910.0</ele><time>2026-05-02T17:14:23.881Z</time></trkpt><trkpt lat="42.5574318" lon="-3.7711613"><ele>911.5</ele><time>2026-05-02T17:14:24.882Z</time></trkpt><trkpt lat="42.5573549" lon="-3.7713224"><ele>913.0</ele><time>2026-05-02T17:14:25.88Z</time></trkpt><trkpt lat="42.5572734" lon="-3.7714796"><ele>914.5</ele><time>2026-05-02T17:14:26.881Z</time></trkpt><trkpt lat="42.5571954" lon="-3.7716413"><ele>916.0</ele><time>2026-05-02T17:14:27.883Z</time></trkpt><trkpt lat="42.5571142" lon="-3.7717975"><ele>916.5</ele><time>2026-05-02T17:14:28.88Z</time></trkpt><trkpt lat="42.5570394" lon="-3.7719596"><ele>917.0</ele><time>2026-05-02T17:14:29.884Z</time></trkpt><trkpt lat="42.5569658" lon="-3.7721169"><ele>917.5</ele><time>2026-05-02T17:14:30.894Z</time></trkpt><trkpt lat="42.5569016" lon="-3.7722669"><ele>918.0</ele><time>2026-05-02T17:14:31.89Z</time></trkpt><trkpt lat="42.5568417" lon="-3.7724085"><ele>915.5999999999999</ele><time>2026-05-02T17:14:32.885Z</time></trkpt><trkpt lat="42.5567804" lon="-3.7725406"><ele>913.1999999999999</ele><time>2026-05-02T17:14:33.888Z</time></trkpt><trkpt lat="42.5567222" lon="-3.7726582"><ele>910.8</ele><time>2026-05-02T17:14:34.882Z</time></trkpt><trkpt lat="42.5566462" lon="-3.772758"><ele>908.4</ele><time>2026-05-02T17:14:35.895Z</time></trkpt><trkpt lat="42.5565511" lon="-3.7728502"><ele>906.0</ele><time>2026-05-02T17:14:36.885Z</time></trkpt><trkpt lat="42.5564423" lon="-3.772934"><ele>906.0</ele><time>2026-05-02T17:14:37.887Z</time></trkpt><trkpt lat="42.5563297" lon="-3.7730178"><ele>906.0</ele><time>2026-05-02T17:14:38.89Z</time></trkpt><trkpt lat="42.5562102" lon="-3.7730979"><ele>906.0</ele><time>2026-05-02T17:14:39.891Z</time></trkpt><trkpt lat="42.5560895" lon="-3.7731859"><ele>906.0</ele><time>2026-05-02T17:14:40.89Z</time></trkpt><trkpt lat="42.5559694" lon="-3.7732791"><ele>905.5</ele><time>2026-05-02T17:14:41.893Z</time></trkpt><trkpt lat="42.5558598" lon="-3.7733886"><ele>905.0</ele><time>2026-05-02T17:14:42.889Z</time></trkpt><trkpt lat="42.5557546" lon="-3.7735056"><ele>904.5</ele><time>2026-05-02T17:14:43.889Z</time></trkpt><trkpt lat="42.5556564" lon="-3.7736214"><ele>904.0</ele><time>2026-05-02T17:14:44.887Z</time></trkpt><trkpt lat="42.5555699" lon="-3.7737348"><ele>903.2</ele><time>2026-05-02T17:14:45.893Z</time></trkpt><trkpt lat="42.555486" lon="-3.7738383"><ele>902.4000000000001</ele><time>2026-05-02T17:14:46.884Z</time></trkpt><trkpt lat="42.5554115" lon="-3.7739446"><ele>901.6</ele><time>2026-05-02T17:14:47.888Z</time></trkpt><trkpt lat="42.5553355" lon="-3.7740432"><ele>900.8</ele><time>2026-05-02T17:14:48.898Z</time></trkpt><trkpt lat="42.5552619" lon="-3.7741287"><ele>900.0</ele><time>2026-05-02T17:14:49.901Z</time></trkpt><trkpt lat="42.5551922" lon="-3.7741969"><ele>900.0</ele><time>2026-05-02T17:14:50.901Z</time></trkpt><trkpt lat="42.555134" lon="-3.7742379"><ele>900.0</ele><time>2026-05-02T17:14:51.897Z</time></trkpt><trkpt lat="42.5550351" lon="-3.7742583"><ele>900.0</ele><time>2026-05-02T17:14:53.898Z</time></trkpt><trkpt lat="42.5549595" lon="-3.7742506"><ele>900.0</ele><time>2026-05-02T17:14:55.9Z</time></trkpt><trkpt lat="42.5548776" lon="-3.7742344"><ele>900.0</ele><time>2026-05-02T17:14:57.897Z</time></trkpt><trkpt lat="42.5547872" lon="-3.7742018"><ele>900.0</ele><time>2026-05-02T17:14:59.9Z</time></trkpt><trkpt lat="42.5547036" lon="-3.7741913"><ele>900.0</ele><time>2026-05-02T17:15:01.897Z</time></trkpt><trkpt lat="42.5546173" lon="-3.7741811"><ele>900.0</ele><time>2026-05-02T17:15:03.9Z</time></trkpt><trkpt lat="42.5545354" lon="-3.7741677"><ele>900.0</ele><time>2026-05-02T17:15:05.894Z</time></trkpt><trkpt lat="42.5544549" lon="-3.7741523"><ele>900.0</ele><time>2026-05-02T17:15:07.894Z</time></trkpt><trkpt lat="42.5543703" lon="-3.7741567"><ele>900.0</ele><time>2026-05-02T17:15:09.897Z</time></trkpt><trkpt lat="42.554298" lon="-3.7741275"><ele>900.0</ele><time>2026-05-02T17:15:11.9Z</time></trkpt><trkpt lat="42.55423" lon="-3.7741136"><ele>899.8333333333334</ele><time>2026-05-02T17:15:13.896Z</time></trkpt><trkpt lat="42.5541356" lon="-3.7741151"><ele>899.6666666666667</ele><time>2026-05-02T17:15:16.892Z</time></trkpt><trkpt lat="42.5540632" lon="-3.7741544"><ele>899.5</ele><time>2026-05-02T17:15:19.901Z</time></trkpt><trkpt lat="42.5539967" lon="-3.7741762"><ele>899.3333333333334</ele><time>2026-05-02T17:15:21.895Z</time></trkpt><trkpt lat="42.5539334" lon="-3.7741908"><ele>899.1666666666667</ele><time>2026-05-02T17:15:23.892Z</time></trkpt><trkpt lat="42.5539895" lon="-3.7741025"><ele>899.0</ele><time>2026-05-02T17:15:28.895Z</time></trkpt><trkpt lat="42.5541043" lon="-3.7741058"><ele>899.0</ele><time>2026-05-02T17:15:30.892Z</time></trkpt><trkpt lat="42.5541794" lon="-3.7741055"><ele>899.0000000000001</ele><time>2026-05-02T17:15:31.894Z</time></trkpt><trkpt lat="42.5542688" lon="-3.7741089"><ele>899.0000000000001</ele><time>2026-05-02T17:15:32.894Z</time></trkpt><trkpt lat="42.554368" lon="-3.7741161"><ele>899.0</ele><time>2026-05-02T17:15:33.894Z</time></trkpt><trkpt lat="42.5544699" lon="-3.7741242"><ele>899.0</ele><time>2026-05-02T17:15:34.891Z</time></trkpt><trkpt lat="42.5545753" lon="-3.7741305"><ele>899.2</ele><time>2026-05-02T17:15:35.898Z</time></trkpt><trkpt lat="42.5546934" lon="-3.7741425"><ele>899.4000000000001</ele><time>2026-05-02T17:15:36.892Z</time></trkpt><trkpt lat="42.5548011" lon="-3.774149"><ele>899.6</ele><time>2026-05-02T17:15:37.904Z</time></trkpt><trkpt lat="42.5549118" lon="-3.7741604"><ele>899.8</ele><time>2026-05-02T17:15:38.897Z</time></trkpt><trkpt lat="42.5550193" lon="-3.774161"><ele>900.0</ele><time>2026-05-02T17:15:39.894Z</time></trkpt><trkpt lat="42.5551261" lon="-3.7741451"><ele>900.0</ele><time>2026-05-02T17:15:40.892Z</time></trkpt><trkpt lat="42.5552281" lon="-3.7741073"><ele>900.0</ele><time>2026-05-02T17:15:41.898Z</time></trkpt><trkpt lat="42.5553336" lon="-3.7740432"><ele>900.0</ele><time>2026-05-02T17:15:42.898Z</time></trkpt><trkpt lat="42.5554295" lon="-3.773958"><ele>900.0</ele><time>2026-05-02T17:15:43.896Z</time></trkpt><trkpt lat="42.555522" lon="-3.7738621"><ele>899.75</ele><time>2026-05-02T17:15:44.895Z</time></trkpt><trkpt lat="42.5556064" lon="-3.7737532"><ele>899.5</ele><time>2026-05-02T17:15:45.89Z</time></trkpt><trkpt lat="42.5556865" lon="-3.7736423"><ele>899.25</ele><time>2026-05-02T17:15:46.896Z</time></trkpt><trkpt lat="42.5557698" lon="-3.7735336"><ele>899.0</ele><time>2026-05-02T17:15:47.893Z</time></trkpt><trkpt lat="42.5558486" lon="-3.7734121"><ele>900.25</ele><time>2026-05-02T17:15:48.894Z</time></trkpt><trkpt lat="42.5559307" lon="-3.7732978"><ele>901.5</ele><time>2026-05-02T17:15:49.897Z</time></trkpt><trkpt lat="42.5560198" lon="-3.7731884"><ele>902.75</ele><time>2026-05-02T17:15:50.893Z</time></trkpt><trkpt lat="42.5561145" lon="-3.7730836"><ele>904.0</ele><time>2026-05-02T17:15:51.901Z</time></trkpt><trkpt lat="42.5562207" lon="-3.772994"><ele>904.5</ele><time>2026-05-02T17:15:52.91Z</time></trkpt><trkpt lat="42.5563248" lon="-3.7729113"><ele>905.0</ele><time>2026-05-02T17:15:53.898Z</time></trkpt><trkpt lat="42.5564335" lon="-3.7728326"><ele>905.5</ele><time>2026-05-02T17:15:54.893Z</time></trkpt><trkpt lat="42.5565378" lon="-3.7727603"><ele>906.0</ele><time>2026-05-02T17:15:55.902Z</time></trkpt><trkpt lat="42.5566424" lon="-3.7726998"><ele>906.0</ele><time>2026-05-02T17:15:56.893Z</time></trkpt><trkpt lat="42.5567214" lon="-3.7726063"><ele>905.9999999999999</ele><time>2026-05-02T17:15:57.892Z</time></trkpt><trkpt lat="42.5567972" lon="-3.7725076"><ele>905.9999999999999</ele><time>2026-05-02T17:15:58.884Z</time></trkpt><trkpt lat="42.5568721" lon="-3.7724133"><ele>906.0</ele><time>2026-05-02T17:15:59.885Z</time></trkpt><trkpt lat="42.5569451" lon="-3.7723102"><ele>906.0</ele><time>2026-05-02T17:16:00.891Z</time></trkpt><trkpt lat="42.5570188" lon="-3.7721972"><ele>908.0</ele><time>2026-05-02T17:16:01.889Z</time></trkpt><trkpt lat="42.5570756" lon="-3.7720743"><ele>909.9999999999999</ele><time>2026-05-02T17:16:02.892Z</time></trkpt><trkpt lat="42.5571328" lon="-3.7719448"><ele>911.9999999999999</ele><time>2026-05-02T17:16:03.893Z</time></trkpt><trkpt lat="42.5571886" lon="-3.7718304"><ele>914.0</ele><time>2026-05-02T17:16:04.892Z</time></trkpt><trkpt lat="42.5572348" lon="-3.7717137"><ele>916.0</ele><time>2026-05-02T17:16:05.895Z</time></trkpt><trkpt lat="42.5572706" lon="-3.7716126"><ele>915.9999999999999</ele><time>2026-05-02T17:16:06.892Z</time></trkpt><trkpt lat="42.5572988" lon="-3.7715235"><ele>916.0</ele><time>2026-05-02T17:16:07.893Z</time></trkpt><trkpt lat="42.5573367" lon="-3.7713848"><ele>916.0</ele><time>2026-05-02T17:16:09.89Z</time></trkpt><trkpt lat="42.5573551" lon="-3.7712937"><ele>916.0</ele><time>2026-05-02T17:16:11.895Z</time></trkpt><trkpt lat="42.5573682" lon="-3.7712056"><ele>915.9999999999999</ele><time>2026-05-02T17:16:14.891Z</time></trkpt><trkpt lat="42.5573624" lon="-3.771311"><ele>916.0</ele><time>2026-05-02T17:16:24.883Z</time></trkpt><trkpt lat="42.5573095" lon="-3.7713857"><ele>915.9999999999999</ele><time>2026-05-02T17:16:26.884Z</time></trkpt><trkpt lat="42.5572764" lon="-3.7714958"><ele>916.0</ele><time>2026-05-02T17:16:38.897Z</time></trkpt><trkpt lat="42.5572268" lon="-3.7716082"><ele>916.0</ele><time>2026-05-02T17:16:40.889Z</time></trkpt><trkpt lat="42.5571857" lon="-3.7716824"><ele>916.0</ele><time>2026-05-02T17:16:41.892Z</time></trkpt><trkpt lat="42.5571352" lon="-3.7717687"><ele>915.9999999999999</ele><time>2026-05-02T17:16:42.894Z</time></trkpt><trkpt lat="42.5570848" lon="-3.7718685"><ele>916.0</ele><time>2026-05-02T17:16:43.894Z</time></trkpt><trkpt lat="42.5570333" lon="-3.7719776"><ele>914.0</ele><time>2026-05-02T17:16:44.894Z</time></trkpt><trkpt lat="42.5569806" lon="-3.7720914"><ele>911.9999999999999</ele><time>2026-05-02T17:16:45.897Z</time></trkpt><trkpt lat="42.5569268" lon="-3.7722113"><ele>909.9999999999999</ele><time>2026-05-02T17:16:46.896Z</time></trkpt><trkpt lat="42.5568661" lon="-3.7723344"><ele>908.0</ele><time>2026-05-02T17:16:47.9Z</time></trkpt><trkpt lat="42.5567997" lon="-3.7724606"><ele>906.0</ele><time>2026-05-02T17:16:48.896Z</time></trkpt><trkpt lat="42.5567368" lon="-3.772598"><ele>906.0</ele><time>2026-05-02T17:16:49.896Z</time></trkpt><trkpt lat="42.5566693" lon="-3.7727263"><ele>906.0</ele><time>2026-05-02T17:16:50.891Z</time></trkpt><trkpt lat="42.5565918" lon="-3.7728378"><ele>906.0</ele><time>2026-05-02T17:16:51.898Z</time></trkpt><trkpt lat="42.5565" lon="-3.7729415"><ele>906.0</ele><time>2026-05-02T17:16:52.9Z</time></trkpt><trkpt lat="42.5564018" lon="-3.7730357"><ele>906.0</ele><time>2026-05-02T17:16:53.893Z</time></trkpt><trkpt lat="42.5562938" lon="-3.7731035"><ele>906.0</ele><time>2026-05-02T17:16:54.893Z</time></trkpt><trkpt lat="42.5561763" lon="-3.7731713"><ele>906.0</ele><time>2026-05-02T17:16:55.903Z</time></trkpt><trkpt lat="42.5560591" lon="-3.7732446"><ele>906.0</ele><time>2026-05-02T17:16:56.901Z</time></trkpt><trkpt lat="42.5559479" lon="-3.7733298"><ele>905.5</ele><time>2026-05-02T17:16:57.9Z</time></trkpt><trkpt lat="42.5558352" lon="-3.7734169"><ele>905.0</ele><time>2026-05-02T17:16:58.894Z</time></trkpt><trkpt lat="42.5557271" lon="-3.7735234"><ele>904.5</ele><time>2026-05-02T17:16:59.898Z</time></trkpt><trkpt lat="42.555623" lon="-3.7736359"><ele>904.0</ele><time>2026-05-02T17:17:00.897Z</time></trkpt><trkpt lat="42.5555273" lon="-3.7737549"><ele>903.0</ele><time>2026-05-02T17:17:01.891Z</time></trkpt><trkpt lat="42.5554349" lon="-3.7738828"><ele>902.0</ele><time>2026-05-02T17:17:02.898Z</time></trkpt><trkpt lat="42.5553488" lon="-3.7740042"><ele>901.0</ele><time>2026-05-02T17:17:03.892Z</time></trkpt><trkpt lat="42.5552656" lon="-3.7741148"><ele>900.0</ele><time>2026-05-02T17:17:04.893Z</time></trkpt><trkpt lat="42.555172" lon="-3.774201"><ele>900.0</ele><time>2026-05-02T17:17:05.891Z</time></trkpt><trkpt lat="42.55507" lon="-3.7742669"><ele>900.0</ele><time>2026-05-02T17:17:06.889Z</time></trkpt><trkpt lat="42.5549624" lon="-3.7742913"><ele>900.0</ele><time>2026-05-02T17:17:07.89Z</time></trkpt><trkpt lat="42.5548595" lon="-3.7742997"><ele>900.0</ele><time>2026-05-02T17:17:08.899Z</time></trkpt><trkpt lat="42.5547432" lon="-3.7742625"><ele>900.0</ele><time>2026-05-02T17:17:09.897Z</time></trkpt><trkpt lat="42.5546208" lon="-3.7742218"><ele>899.75</ele><time>2026-05-02T17:17:10.889Z</time></trkpt><trkpt lat="42.5545003" lon="-3.7741935"><ele>899.5</ele><time>2026-05-02T17:17:11.892Z</time></trkpt><trkpt lat="42.5543815" lon="-3.7741706"><ele>899.25</ele><time>2026-05-02T17:17:12.89Z</time></trkpt><trkpt lat="42.5542642" lon="-3.7741493"><ele>899.0</ele><time>2026-05-02T17:17:13.893Z</time></trkpt><trkpt lat="42.5541493" lon="-3.7741375"><ele>899.0</ele><time>2026-05-02T17:17:14.892Z</time></trkpt><trkpt lat="42.5540433" lon="-3.7741478"><ele>899.0000000000001</ele><time>2026-05-02T17:17:15.898Z</time></trkpt><trkpt lat="42.5539421" lon="-3.7741976"><ele>899.0000000000001</ele><time>2026-05-02T17:17:16.898Z</time></trkpt><trkpt lat="42.5538646" lon="-3.774296"><ele>899.0</ele><time>2026-05-02T17:17:17.888Z</time></trkpt><trkpt lat="42.5538032" lon="-3.7744156"><ele>899.0</ele><time>2026-05-02T17:17:18.884Z</time></trkpt><trkpt lat="42.5537612" lon="-3.774565"><ele>899.25</ele><time>2026-05-02T17:17:19.889Z</time></trkpt><trkpt lat="42.5537278" lon="-3.7747234"><ele>899.5</ele><time>2026-05-02T17:17:20.881Z</time></trkpt><trkpt lat="42.5536964" lon="-3.7748836"><ele>899.75</ele><time>2026-05-02T17:17:21.884Z</time></trkpt><trkpt lat="42.5536614" lon="-3.775049"><ele>900.0</ele><time>2026-05-02T17:17:22.884Z</time></trkpt><trkpt lat="42.5536313" lon="-3.7752212"><ele>902.5</ele><time>2026-05-02T17:17:23.887Z</time></trkpt><trkpt lat="42.5536056" lon="-3.775393"><ele>905.0</ele><time>2026-05-02T17:17:24.883Z</time></trkpt><trkpt lat="42.5535755" lon="-3.775563"><ele>907.5</ele><time>2026-05-02T17:17:25.883Z</time></trkpt><trkpt lat="42.5535442" lon="-3.775735"><ele>910.0</ele><time>2026-05-02T17:17:26.881Z</time></trkpt><trkpt lat="42.5535131" lon="-3.7759097"><ele>907.5</ele><time>2026-05-02T17:17:27.88Z</time></trkpt><trkpt lat="42.5534841" lon="-3.7760915"><ele>905.0</ele><time>2026-05-02T17:17:28.882Z</time></trkpt><trkpt lat="42.5534464" lon="-3.7762698"><ele>902.5</ele><time>2026-05-02T17:17:29.882Z</time></trkpt><trkpt lat="42.553404" lon="-3.7764469"><ele>900.0</ele><time>2026-05-02T17:17:30.884Z</time></trkpt><trkpt lat="42.5533608" lon="-3.7766242"><ele>900.0</ele><time>2026-05-02T17:17:31.879Z</time></trkpt><trkpt lat="42.553317" lon="-3.7767977"><ele>900.0</ele><time>2026-05-02T17:17:32.88Z</time></trkpt><trkpt lat="42.5532922" lon="-3.7769628"><ele>900.0</ele><time>2026-05-02T17:17:33.878Z</time></trkpt><trkpt lat="42.5532911" lon="-3.7771036"><ele>900.0</ele><time>2026-05-02T17:17:34.877Z</time></trkpt><trkpt lat="42.5532979" lon="-3.7772252"><ele>900.1666666666666</ele><time>2026-05-02T17:17:35.882Z</time></trkpt><trkpt lat="42.5533051" lon="-3.7773474"><ele>900.3333333333333</ele><time>2026-05-02T17:17:36.886Z</time></trkpt><trkpt lat="42.5532899" lon="-3.7774592"><ele>900.5</ele><time>2026-05-02T17:17:37.882Z</time></trkpt><trkpt lat="42.5532642" lon="-3.7775512"><ele>900.6666666666666</ele><time>2026-05-02T17:17:38.886Z</time></trkpt><trkpt lat="42.5532201" lon="-3.7776323"><ele>900.8333333333333</ele><time>2026-05-02T17:17:39.889Z</time></trkpt><trkpt lat="42.5531685" lon="-3.7776982"><ele>901.0</ele><time>2026-05-02T17:17:40.901Z</time></trkpt><trkpt lat="42.5531033" lon="-3.7777356"><ele>902.1999999999999</ele><time>2026-05-02T17:17:41.897Z</time></trkpt><trkpt lat="42.5530215" lon="-3.7777304"><ele>903.3999999999999</ele><time>2026-05-02T17:17:42.89Z</time></trkpt><trkpt lat="42.5529421" lon="-3.7777046"><ele>904.6</ele><time>2026-05-02T17:17:43.896Z</time></trkpt><trkpt lat="42.552864" lon="-3.7776426"><ele>905.8</ele><time>2026-05-02T17:17:44.894Z</time></trkpt><trkpt lat="42.5527932" lon="-3.7775443"><ele>907.0</ele><time>2026-05-02T17:17:45.891Z</time></trkpt><trkpt lat="42.5527262" lon="-3.7774245"><ele>907.0</ele><time>2026-05-02T17:17:46.893Z</time></trkpt><trkpt lat="42.5526544" lon="-3.777298"><ele>907.0</ele><time>2026-05-02T17:17:47.896Z</time></trkpt><trkpt lat="42.552573" lon="-3.7771543"><ele>907.0</ele><time>2026-05-02T17:17:48.89Z</time></trkpt><trkpt lat="42.5524897" lon="-3.7770031"><ele>907.0</ele><time>2026-05-02T17:17:49.893Z</time></trkpt><trkpt lat="42.5524036" lon="-3.7768572"><ele>906.0</ele><time>2026-05-02T17:17:50.89Z</time></trkpt><trkpt lat="42.5523057" lon="-3.7767162"><ele>905.0</ele><time>2026-05-02T17:17:51.887Z</time></trkpt><trkpt lat="42.5522088" lon="-3.7765761"><ele>904.0</ele><time>2026-05-02T17:17:52.892Z</time></trkpt><trkpt lat="42.5521085" lon="-3.7764378"><ele>903.0</ele><time>2026-05-02T17:17:53.894Z</time></trkpt><trkpt lat="42.5520074" lon="-3.7762998"><ele>902.3333333333333</ele><time>2026-05-02T17:17:54.886Z</time></trkpt><trkpt lat="42.551909" lon="-3.7761602"><ele>901.6666666666666</ele><time>2026-05-02T17:17:55.889Z</time></trkpt><trkpt lat="42.5518044" lon="-3.7760099"><ele>901.0</ele><time>2026-05-02T17:17:56.894Z</time></trkpt><trkpt lat="42.5516967" lon="-3.7758566"><ele>900.3333333333333</ele><time>2026-05-02T17:17:57.892Z</time></trkpt><trkpt lat="42.5515691" lon="-3.7757346"><ele>899.6666666666667</ele><time>2026-05-02T17:17:58.888Z</time></trkpt><trkpt lat="42.5514369" lon="-3.7756149"><ele>899.0</ele><time>2026-05-02T17:17:59.89Z</time></trkpt><trkpt lat="42.5513184" lon="-3.7754988"><ele>899.25</ele><time>2026-05-02T17:18:00.891Z</time></trkpt><trkpt lat="42.5511982" lon="-3.7753848"><ele>899.5</ele><time>2026-05-02T17:18:01.891Z</time></trkpt><trkpt lat="42.5510697" lon="-3.7752773"><ele>899.75</ele><time>2026-05-02T17:18:02.897Z</time></trkpt><trkpt lat="42.5509393" lon="-3.775195"><ele>900.0</ele><time>2026-05-02T17:18:03.897Z</time></trkpt><trkpt lat="42.5508085" lon="-3.7751374"><ele>900.0</ele><time>2026-05-02T17:18:04.909Z</time></trkpt><trkpt lat="42.5506783" lon="-3.7751308"><ele>900.0</ele><time>2026-05-02T17:18:05.898Z</time></trkpt><trkpt lat="42.5505654" lon="-3.7751564"><ele>900.0</ele><time>2026-05-02T17:18:06.9Z</time></trkpt><trkpt lat="42.5504392" lon="-3.775232"><ele>900.0</ele><time>2026-05-02T17:18:07.899Z</time></trkpt><trkpt lat="42.5503107" lon="-3.7753054"><ele>898.75</ele><time>2026-05-02T17:18:08.89Z</time></trkpt><trkpt lat="42.5501879" lon="-3.7753733"><ele>897.5</ele><time>2026-05-02T17:18:09.893Z</time></trkpt><trkpt lat="42.5500575" lon="-3.7754436"><ele>896.25</ele><time>2026-05-02T17:18:10.892Z</time></trkpt><trkpt lat="42.5499258" lon="-3.7755165"><ele>895.0</ele><time>2026-05-02T17:18:11.905Z</time></trkpt><trkpt lat="42.5497931" lon="-3.7755875"><ele>895.0</ele><time>2026-05-02T17:18:12.894Z</time></trkpt><trkpt lat="42.5496579" lon="-3.775661"><ele>895.0</ele><time>2026-05-02T17:18:13.894Z</time></trkpt><trkpt lat="42.5495139" lon="-3.7757344"><ele>895.0</ele><time>2026-05-02T17:18:14.894Z</time></trkpt><trkpt lat="42.5493765" lon="-3.7758168"><ele>895.25</ele><time>2026-05-02T17:18:15.896Z</time></trkpt><trkpt lat="42.5492449" lon="-3.775905"><ele>895.5</ele><time>2026-05-02T17:18:16.891Z</time></trkpt><trkpt lat="42.5491181" lon="-3.7760037"><ele>895.75</ele><time>2026-05-02T17:18:17.891Z</time></trkpt><trkpt lat="42.5489835" lon="-3.7761002"><ele>896.0</ele><time>2026-05-02T17:18:18.899Z</time></trkpt><trkpt lat="42.5488467" lon="-3.7762079"><ele>896.0</ele><time>2026-05-02T17:18:19.895Z</time></trkpt><trkpt lat="42.5487175" lon="-3.7763299"><ele>896.0</ele><time>2026-05-02T17:18:20.893Z</time></trkpt><trkpt lat="42.5485833" lon="-3.7764546"><ele>896.0</ele><time>2026-05-02T17:18:21.901Z</time></trkpt><trkpt lat="42.5484576" lon="-3.7765907"><ele>896.3333333333334</ele><time>2026-05-02T17:18:22.901Z</time></trkpt><trkpt lat="42.5483242" lon="-3.7767363"><ele>896.6666666666667</ele><time>2026-05-02T17:18:23.893Z</time></trkpt><trkpt lat="42.5481987" lon="-3.7768744"><ele>897.0</ele><time>2026-05-02T17:18:24.893Z</time></trkpt><trkpt lat="42.5480636" lon="-3.7770143"><ele>897.0</ele><time>2026-05-02T17:18:25.891Z</time></trkpt><trkpt lat="42.5479323" lon="-3.777138"><ele>897.0</ele><time>2026-05-02T17:18:26.888Z</time></trkpt><trkpt lat="42.5478109" lon="-3.7772567"><ele>897.0</ele><time>2026-05-02T17:18:27.89Z</time></trkpt><trkpt lat="42.5477071" lon="-3.777377"><ele>897.0</ele><time>2026-05-02T17:18:28.889Z</time></trkpt><trkpt lat="42.5476031" lon="-3.7774807"><ele>897.25</ele><time>2026-05-02T17:18:29.893Z</time></trkpt><trkpt lat="42.5475014" lon="-3.7775989"><ele>897.5</ele><time>2026-05-02T17:18:30.9Z</time></trkpt><trkpt lat="42.5473925" lon="-3.7776977"><ele>897.75</ele><time>2026-05-02T17:18:31.89Z</time></trkpt><trkpt lat="42.5472802" lon="-3.7777922"><ele>898.0</ele><time>2026-05-02T17:18:32.887Z</time></trkpt><trkpt lat="42.5471582" lon="-3.7778578"><ele>897.5</ele><time>2026-05-02T17:18:33.886Z</time></trkpt><trkpt lat="42.5470357" lon="-3.7778903"><ele>897.0</ele><time>2026-05-02T17:18:34.886Z</time></trkpt><trkpt lat="42.5468926" lon="-3.777905"><ele>896.5</ele><time>2026-05-02T17:18:35.889Z</time></trkpt><trkpt lat="42.5467481" lon="-3.7779213"><ele>896.0</ele><time>2026-05-02T17:18:36.889Z</time></trkpt><trkpt lat="42.5466135" lon="-3.7779502"><ele>896.0</ele><time>2026-05-02T17:18:37.892Z</time></trkpt><trkpt lat="42.5464651" lon="-3.7779621"><ele>896.0</ele><time>2026-05-02T17:18:38.89Z</time></trkpt><trkpt lat="42.5463221" lon="-3.7779674"><ele>896.0</ele><time>2026-05-02T17:18:39.897Z</time></trkpt><trkpt lat="42.5461734" lon="-3.7779487"><ele>896.0</ele><time>2026-05-02T17:18:40.898Z</time></trkpt><trkpt lat="42.5460247" lon="-3.7779174"><ele>895.25</ele><time>2026-05-02T17:18:41.897Z</time></trkpt><trkpt lat="42.5458836" lon="-3.777874"><ele>894.5</ele><time>2026-05-02T17:18:42.904Z</time></trkpt><trkpt lat="42.5457532" lon="-3.7777969"><ele>893.75</ele><time>2026-05-02T17:18:43.892Z</time></trkpt><trkpt lat="42.5456289" lon="-3.7777013"><ele>893.0</ele><time>2026-05-02T17:18:44.89Z</time></trkpt><trkpt lat="42.5455069" lon="-3.7775975"><ele>893.0</ele><time>2026-05-02T17:18:45.898Z</time></trkpt><trkpt lat="42.545385" lon="-3.7774908"><ele>893.0</ele><time>2026-05-02T17:18:46.893Z</time></trkpt><trkpt lat="42.54526" lon="-3.7773854"><ele>893.0</ele><time>2026-05-02T17:18:47.894Z</time></trkpt><trkpt lat="42.5451324" lon="-3.7772769"><ele>893.0</ele><time>2026-05-02T17:18:48.891Z</time></trkpt><trkpt lat="42.5450057" lon="-3.7771716"><ele>893.0</ele><time>2026-05-02T17:18:49.891Z</time></trkpt><trkpt lat="42.5448781" lon="-3.7770646"><ele>893.0</ele><time>2026-05-02T17:18:50.895Z</time></trkpt><trkpt lat="42.544747" lon="-3.7769601"><ele>893.0</ele><time>2026-05-02T17:18:51.893Z</time></trkpt><trkpt lat="42.5446192" lon="-3.7768451"><ele>893.3333333333334</ele><time>2026-05-02T17:18:52.895Z</time></trkpt><trkpt lat="42.5444939" lon="-3.7767298"><ele>893.6666666666667</ele><time>2026-05-02T17:18:53.893Z</time></trkpt><trkpt lat="42.5443676" lon="-3.7766194"><ele>894.0</ele><time>2026-05-02T17:18:54.89Z</time></trkpt><trkpt lat="42.5442396" lon="-3.7765072"><ele>894.0</ele><time>2026-05-02T17:18:55.892Z</time></trkpt><trkpt lat="42.5441071" lon="-3.7763923"><ele>894.0</ele><time>2026-05-02T17:18:56.889Z</time></trkpt><trkpt lat="42.5439839" lon="-3.7762932"><ele>894.0</ele><time>2026-05-02T17:18:57.886Z</time></trkpt><trkpt lat="42.5438564" lon="-3.7761933"><ele>894.0</ele><time>2026-05-02T17:18:58.884Z</time></trkpt><trkpt lat="42.5437236" lon="-3.7761181"><ele>894.0</ele><time>2026-05-02T17:18:59.888Z</time></trkpt><trkpt lat="42.5435852" lon="-3.7760715"><ele>894.0</ele><time>2026-05-02T17:19:00.897Z</time></trkpt><trkpt lat="42.543443" lon="-3.7760391"><ele>894.0</ele><time>2026-05-02T17:19:01.886Z</time></trkpt><trkpt lat="42.5433112" lon="-3.776017"><ele>894.0</ele><time>2026-05-02T17:19:02.888Z</time></trkpt><trkpt lat="42.5431558" lon="-3.7760194"><ele>894.25</ele><time>2026-05-02T17:19:03.877Z</time></trkpt><trkpt lat="42.5430116" lon="-3.7760597"><ele>894.5</ele><time>2026-05-02T17:19:04.882Z</time></trkpt><trkpt lat="42.5428734" lon="-3.7761136"><ele>894.75</ele><time>2026-05-02T17:19:05.884Z</time></trkpt><trkpt lat="42.5427419" lon="-3.7761462"><ele>895.0</ele><time>2026-05-02T17:19:06.89Z</time></trkpt><trkpt lat="42.5426118" lon="-3.7761787"><ele>895.0</ele><time>2026-05-02T17:19:07.886Z</time></trkpt><trkpt lat="42.5424972" lon="-3.7762373"><ele>895.0</ele><time>2026-05-02T17:19:08.886Z</time></trkpt><trkpt lat="42.5423977" lon="-3.7763093"><ele>895.0</ele><time>2026-05-02T17:19:09.885Z</time></trkpt><trkpt lat="42.5423085" lon="-3.7764099"><ele>895.0</ele><time>2026-05-02T17:19:10.883Z</time></trkpt><trkpt lat="42.5422313" lon="-3.7765394"><ele>895.0</ele><time>2026-05-02T17:19:11.883Z</time></trkpt><trkpt lat="42.5421609" lon="-3.7766801"><ele>895.0</ele><time>2026-05-02T17:19:12.881Z</time></trkpt><trkpt lat="42.5421041" lon="-3.7768375"><ele>895.0</ele><time>2026-05-02T17:19:13.897Z</time></trkpt><trkpt lat="42.5420558" lon="-3.7770035"><ele>895.0</ele><time>2026-05-02T17:19:14.883Z</time></trkpt><trkpt lat="42.5420106" lon="-3.7771635"><ele>895.25</ele><time>2026-05-02T17:19:15.882Z</time></trkpt><trkpt lat="42.5419556" lon="-3.7773192"><ele>895.5</ele><time>2026-05-02T17:19:16.879Z</time></trkpt><trkpt lat="42.5418924" lon="-3.7774732"><ele>895.75</ele><time>2026-05-02T17:19:17.886Z</time></trkpt><trkpt lat="42.5418215" lon="-3.7776233"><ele>896.0</ele><time>2026-05-02T17:19:18.882Z</time></trkpt><trkpt lat="42.5417377" lon="-3.7777704"><ele>896.0</ele><time>2026-05-02T17:19:19.886Z</time></trkpt><trkpt lat="42.5416428" lon="-3.7779106"><ele>896.0</ele><time>2026-05-02T17:19:20.891Z</time></trkpt><trkpt lat="42.5415367" lon="-3.7780102"><ele>896.0</ele><time>2026-05-02T17:19:21.886Z</time></trkpt><trkpt lat="42.5414182" lon="-3.7780783"><ele>896.0</ele><time>2026-05-02T17:19:22.898Z</time></trkpt><trkpt lat="42.5412905" lon="-3.7781172"><ele>896.75</ele><time>2026-05-02T17:19:23.9Z</time></trkpt><trkpt lat="42.5411612" lon="-3.7781223"><ele>897.5</ele><time>2026-05-02T17:19:24.896Z</time></trkpt><trkpt lat="42.541028" lon="-3.778099"><ele>898.25</ele><time>2026-05-02T17:19:25.897Z</time></trkpt><trkpt lat="42.5408947" lon="-3.7780442"><ele>899.0</ele><time>2026-05-02T17:19:26.898Z</time></trkpt><trkpt lat="42.5407728" lon="-3.7779776"><ele>899.0</ele><time>2026-05-02T17:19:27.898Z</time></trkpt><trkpt lat="42.5406617" lon="-3.7779067"><ele>899.0</ele><time>2026-05-02T17:19:28.895Z</time></trkpt><trkpt lat="42.5405462" lon="-3.7778418"><ele>899.0</ele><time>2026-05-02T17:19:29.889Z</time></trkpt><trkpt lat="42.5404301" lon="-3.7777787"><ele>899.0</ele><time>2026-05-02T17:19:30.896Z</time></trkpt><trkpt lat="42.5403098" lon="-3.7777075"><ele>898.75</ele><time>2026-05-02T17:19:31.895Z</time></trkpt><trkpt lat="42.5401889" lon="-3.7776451"><ele>898.5</ele><time>2026-05-02T17:19:32.894Z</time></trkpt><trkpt lat="42.5400666" lon="-3.7775901"><ele>898.25</ele><time>2026-05-02T17:19:33.894Z</time></trkpt><trkpt lat="42.5399387" lon="-3.7775466"><ele>898.0</ele><time>2026-05-02T17:19:34.891Z</time></trkpt><trkpt lat="42.5396653" lon="-3.7774881"><ele>896.3333333333333</ele><time>2026-05-02T17:19:36.894Z</time></trkpt><trkpt lat="42.5395193" lon="-3.7774764"><ele>894.6666666666667</ele><time>2026-05-02T17:19:37.893Z</time></trkpt><trkpt lat="42.5393609" lon="-3.7774656"><ele>893.0</ele><time>2026-05-02T17:19:38.894Z</time></trkpt><trkpt lat="42.539208" lon="-3.7774727"><ele>893.0</ele><time>2026-05-02T17:19:39.901Z</time></trkpt><trkpt lat="42.5390546" lon="-3.7774707"><ele>893.0</ele><time>2026-05-02T17:19:40.898Z</time></trkpt><trkpt lat="42.5388956" lon="-3.7774606"><ele>893.0</ele><time>2026-05-02T17:19:41.899Z</time></trkpt><trkpt lat="42.5387395" lon="-3.7774531"><ele>892.25</ele><time>2026-05-02T17:19:42.897Z</time></trkpt><trkpt lat="42.5385956" lon="-3.7774373"><ele>891.5</ele><time>2026-05-02T17:19:43.901Z</time></trkpt><trkpt lat="42.5384437" lon="-3.777424"><ele>890.75</ele><time>2026-05-02T17:19:44.907Z</time></trkpt><trkpt lat="42.5382916" lon="-3.7774247"><ele>890.0</ele><time>2026-05-02T17:19:45.903Z</time></trkpt><trkpt lat="42.5381413" lon="-3.7774432"><ele>890.0</ele><time>2026-05-02T17:19:46.903Z</time></trkpt><trkpt lat="42.5379888" lon="-3.7774749"><ele>890.0</ele><time>2026-05-02T17:19:47.908Z</time></trkpt><trkpt lat="42.5378329" lon="-3.7775104"><ele>890.0</ele><time>2026-05-02T17:19:48.903Z</time></trkpt><trkpt lat="42.5376746" lon="-3.7775415"><ele>889.6666666666667</ele><time>2026-05-02T17:19:49.904Z</time></trkpt><trkpt lat="42.5375202" lon="-3.777575"><ele>889.3333333333333</ele><time>2026-05-02T17:19:50.897Z</time></trkpt><trkpt lat="42.5373672" lon="-3.7776169"><ele>889.0</ele><time>2026-05-02T17:19:51.906Z</time></trkpt><trkpt lat="42.5372214" lon="-3.7776507"><ele>889.0</ele><time>2026-05-02T17:19:52.909Z</time></trkpt><trkpt lat="42.5370824" lon="-3.7776704"><ele>889.0</ele><time>2026-05-02T17:19:53.897Z</time></trkpt><trkpt lat="42.5369465" lon="-3.7776655"><ele>889.0</ele><time>2026-05-02T17:19:54.893Z</time></trkpt><trkpt lat="42.5368168" lon="-3.7776391"><ele>889.0</ele><time>2026-05-02T17:19:55.895Z</time></trkpt><trkpt lat="42.5367047" lon="-3.7775894"><ele>889.0</ele><time>2026-05-02T17:19:56.895Z</time></trkpt><trkpt lat="42.5365961" lon="-3.7775158"><ele>889.0</ele><time>2026-05-02T17:19:57.894Z</time></trkpt><trkpt lat="42.536493" lon="-3.7774266"><ele>889.0</ele><time>2026-05-02T17:19:58.894Z</time></trkpt><trkpt lat="42.5363818" lon="-3.7773199"><ele>889.0</ele><time>2026-05-02T17:19:59.904Z</time></trkpt><trkpt lat="42.5362638" lon="-3.777215"><ele>888.5</ele><time>2026-05-02T17:20:00.906Z</time></trkpt><trkpt lat="42.5361449" lon="-3.7771103"><ele>888.0</ele><time>2026-05-02T17:20:01.902Z</time></trkpt><trkpt lat="42.5360237" lon="-3.7769991"><ele>887.5</ele><time>2026-05-02T17:20:02.905Z</time></trkpt><trkpt lat="42.535902" lon="-3.7768906"><ele>887.0</ele><time>2026-05-02T17:20:03.901Z</time></trkpt><trkpt lat="42.5357718" lon="-3.7767955"><ele>888.6666666666667</ele><time>2026-05-02T17:20:04.901Z</time></trkpt><trkpt lat="42.5356471" lon="-3.7766836"><ele>890.3333333333333</ele><time>2026-05-02T17:20:05.9Z</time></trkpt><trkpt lat="42.5355206" lon="-3.776573"><ele>892.0</ele><time>2026-05-02T17:20:06.901Z</time></trkpt><trkpt lat="42.5353937" lon="-3.7764641"><ele>890.25</ele><time>2026-05-02T17:20:07.905Z</time></trkpt><trkpt lat="42.5352631" lon="-3.7763663"><ele>888.5</ele><time>2026-05-02T17:20:08.902Z</time></trkpt><trkpt lat="42.5351427" lon="-3.77626"><ele>886.75</ele><time>2026-05-02T17:20:09.905Z</time></trkpt><trkpt lat="42.5350232" lon="-3.7761633"><ele>885.0</ele><time>2026-05-02T17:20:10.903Z</time></trkpt><trkpt lat="42.5349123" lon="-3.7760778"><ele>885.75</ele><time>2026-05-02T17:20:11.908Z</time></trkpt><trkpt lat="42.534801" lon="-3.775998"><ele>886.5</ele><time>2026-05-02T17:20:12.903Z</time></trkpt><trkpt lat="42.5346832" lon="-3.7759333"><ele>887.25</ele><time>2026-05-02T17:20:13.9Z</time></trkpt><trkpt lat="42.5345529" lon="-3.7758921"><ele>888.0</ele><time>2026-05-02T17:20:14.905Z</time></trkpt><trkpt lat="42.5344208" lon="-3.7758811"><ele>888.0</ele><time>2026-05-02T17:20:15.921Z</time></trkpt><trkpt lat="42.534285" lon="-3.7758963"><ele>888.0</ele><time>2026-05-02T17:20:16.895Z</time></trkpt><trkpt lat="42.5341439" lon="-3.7759044"><ele>888.0</ele><time>2026-05-02T17:20:17.899Z</time></trkpt><trkpt lat="42.5339992" lon="-3.7759572"><ele>888.0</ele><time>2026-05-02T17:20:18.899Z</time></trkpt><trkpt lat="42.5338544" lon="-3.7760157"><ele>887.3333333333333</ele><time>2026-05-02T17:20:19.9Z</time></trkpt><trkpt lat="42.5337045" lon="-3.7760712"><ele>886.6666666666666</ele><time>2026-05-02T17:20:20.897Z</time></trkpt><trkpt lat="42.5335566" lon="-3.7761135"><ele>886.0</ele><time>2026-05-02T17:20:21.903Z</time></trkpt><trkpt lat="42.5334041" lon="-3.7761511"><ele>886.0</ele><time>2026-05-02T17:20:22.911Z</time></trkpt><trkpt lat="42.5332445" lon="-3.7761879"><ele>886.0</ele><time>2026-05-02T17:20:23.901Z</time></trkpt><trkpt lat="42.5330888" lon="-3.7762315"><ele>886.0</ele><time>2026-05-02T17:20:24.9Z</time></trkpt><trkpt lat="42.5329365" lon="-3.7762795"><ele>885.3333333333333</ele><time>2026-05-02T17:20:25.904Z</time></trkpt><trkpt lat="42.5327831" lon="-3.7763347"><ele>884.6666666666667</ele><time>2026-05-02T17:20:26.903Z</time></trkpt><trkpt lat="42.5326234" lon="-3.7763774"><ele>884.0</ele><time>2026-05-02T17:20:27.905Z</time></trkpt><trkpt lat="42.5324671" lon="-3.7764233"><ele>884.0</ele><time>2026-05-02T17:20:28.9Z</time></trkpt><trkpt lat="42.5322991" lon="-3.7764525"><ele>884.0</ele><time>2026-05-02T17:20:29.904Z</time></trkpt><trkpt lat="42.5321388" lon="-3.7764918"><ele>884.0</ele><time>2026-05-02T17:20:30.907Z</time></trkpt><trkpt lat="42.5319797" lon="-3.7765386"><ele>884.6666666666667</ele><time>2026-05-02T17:20:31.904Z</time></trkpt><trkpt lat="42.5318203" lon="-3.7765907"><ele>885.3333333333333</ele><time>2026-05-02T17:20:32.903Z</time></trkpt><trkpt lat="42.5316542" lon="-3.7766405"><ele>886.0</ele><time>2026-05-02T17:20:33.906Z</time></trkpt><trkpt lat="42.5314927" lon="-3.7766901"><ele>886.0</ele><time>2026-05-02T17:20:34.903Z</time></trkpt><trkpt lat="42.5313271" lon="-3.7767384"><ele>886.0</ele><time>2026-05-02T17:20:35.9Z</time></trkpt><trkpt lat="42.531169" lon="-3.7767902"><ele>886.0</ele><time>2026-05-02T17:20:36.899Z</time></trkpt><trkpt lat="42.5310019" lon="-3.7768408"><ele>886.3333333333333</ele><time>2026-05-02T17:20:37.902Z</time></trkpt><trkpt lat="42.5308384" lon="-3.7768895"><ele>886.6666666666667</ele><time>2026-05-02T17:20:38.91Z</time></trkpt><trkpt lat="42.5306756" lon="-3.7769417"><ele>887.0</ele><time>2026-05-02T17:20:39.904Z</time></trkpt><trkpt lat="42.530523" lon="-3.7769973"><ele>887.0</ele><time>2026-05-02T17:20:40.904Z</time></trkpt><trkpt lat="42.5303746" lon="-3.7770428"><ele>887.0</ele><time>2026-05-02T17:20:41.901Z</time></trkpt><trkpt lat="42.530231" lon="-3.7770746"><ele>887.0</ele><time>2026-05-02T17:20:42.903Z</time></trkpt><trkpt lat="42.5300892" lon="-3.7771044"><ele>887.0</ele><time>2026-05-02T17:20:43.904Z</time></trkpt><trkpt lat="42.5299493" lon="-3.7771269"><ele>887.0</ele><time>2026-05-02T17:20:44.9Z</time></trkpt><trkpt lat="42.5298102" lon="-3.7771288"><ele>887.0</ele><time>2026-05-02T17:20:45.908Z</time></trkpt><trkpt lat="42.5296801" lon="-3.7771094"><ele>887.0</ele><time>2026-05-02T17:20:46.916Z</time></trkpt><trkpt lat="42.5295493" lon="-3.7770615"><ele>887.0</ele><time>2026-05-02T17:20:47.904Z</time></trkpt><trkpt lat="42.5294328" lon="-3.7769893"><ele>887.25</ele><time>2026-05-02T17:20:48.908Z</time></trkpt><trkpt lat="42.5293261" lon="-3.7768797"><ele>887.5</ele><time>2026-05-02T17:20:49.906Z</time></trkpt><trkpt lat="42.5292254" lon="-3.7767577"><ele>887.75</ele><time>2026-05-02T17:20:50.903Z</time></trkpt><trkpt lat="42.529123" lon="-3.7766232"><ele>888.0</ele><time>2026-05-02T17:20:51.904Z</time></trkpt><trkpt lat="42.5290189" lon="-3.776485"><ele>888.0</ele><time>2026-05-02T17:20:52.911Z</time></trkpt><trkpt lat="42.5289091" lon="-3.776348"><ele>888.0</ele><time>2026-05-02T17:20:53.907Z</time></trkpt><trkpt lat="42.5288031" lon="-3.776216"><ele>888.0</ele><time>2026-05-02T17:20:54.907Z</time></trkpt><trkpt lat="42.5286983" lon="-3.7760795"><ele>888.0</ele><time>2026-05-02T17:20:55.909Z</time></trkpt><trkpt lat="42.5285911" lon="-3.7759385"><ele>888.3333333333333</ele><time>2026-05-02T17:20:56.906Z</time></trkpt><trkpt lat="42.5284874" lon="-3.775807"><ele>888.6666666666666</ele><time>2026-05-02T17:20:57.909Z</time></trkpt><trkpt lat="42.5283787" lon="-3.7756771"><ele>889.0</ele><time>2026-05-02T17:20:58.893Z</time></trkpt><trkpt lat="42.5282481" lon="-3.7755421"><ele>889.0</ele><time>2026-05-02T17:20:59.893Z</time></trkpt><trkpt lat="42.5281646" lon="-3.7754006"><ele>889.0</ele><time>2026-05-02T17:21:00.901Z</time></trkpt><trkpt lat="42.5280713" lon="-3.7752574"><ele>889.0</ele><time>2026-05-02T17:21:01.894Z</time></trkpt><trkpt lat="42.5279643" lon="-3.775119"><ele>889.0</ele><time>2026-05-02T17:21:02.9Z</time></trkpt><trkpt lat="42.5278563" lon="-3.7749787"><ele>887.6666666666666</ele><time>2026-05-02T17:21:03.906Z</time></trkpt><trkpt lat="42.5277492" lon="-3.7748383"><ele>886.3333333333333</ele><time>2026-05-02T17:21:04.902Z</time></trkpt><trkpt lat="42.5276379" lon="-3.7746873"><ele>885.0</ele><time>2026-05-02T17:21:05.906Z</time></trkpt><trkpt lat="42.5275248" lon="-3.7745355"><ele>885.0</ele><time>2026-05-02T17:21:06.902Z</time></trkpt><trkpt lat="42.5274154" lon="-3.7743895"><ele>885.0</ele><time>2026-05-02T17:21:07.907Z</time></trkpt><trkpt lat="42.5273011" lon="-3.7742353"><ele>885.0</ele><time>2026-05-02T17:21:08.904Z</time></trkpt><trkpt lat="42.5271837" lon="-3.7740886"><ele>884.6666666666667</ele><time>2026-05-02T17:21:09.908Z</time></trkpt><trkpt lat="42.5270615" lon="-3.773935"><ele>884.3333333333334</ele><time>2026-05-02T17:21:10.899Z</time></trkpt><trkpt lat="42.5269335" lon="-3.7737781"><ele>884.0</ele><time>2026-05-02T17:21:11.9Z</time></trkpt><trkpt lat="42.5268123" lon="-3.7736258"><ele>885.75</ele><time>2026-05-02T17:21:12.904Z</time></trkpt><trkpt lat="42.5267029" lon="-3.7734826"><ele>887.5</ele><time>2026-05-02T17:21:13.9Z</time></trkpt><trkpt lat="42.5266077" lon="-3.7733368"><ele>889.25</ele><time>2026-05-02T17:21:14.902Z</time></trkpt><trkpt lat="42.5265069" lon="-3.773198"><ele>891.0</ele><time>2026-05-02T17:21:15.905Z</time></trkpt><trkpt lat="42.5263986" lon="-3.7730599"><ele>891.0</ele><time>2026-05-02T17:21:16.904Z</time></trkpt><trkpt lat="42.5262866" lon="-3.7729125"><ele>891.0</ele><time>2026-05-02T17:21:17.924Z</time></trkpt><trkpt lat="42.5261651" lon="-3.7727739"><ele>891.0</ele><time>2026-05-02T17:21:18.912Z</time></trkpt><trkpt lat="42.5260456" lon="-3.7726536"><ele>890.5</ele><time>2026-05-02T17:21:19.911Z</time></trkpt><trkpt lat="42.5259211" lon="-3.772561"><ele>890.0</ele><time>2026-05-02T17:21:20.91Z</time></trkpt><trkpt lat="42.5257947" lon="-3.7724841"><ele>889.5</ele><time>2026-05-02T17:21:21.912Z</time></trkpt><trkpt lat="42.5256713" lon="-3.77241"><ele>889.0</ele><time>2026-05-02T17:21:22.913Z</time></trkpt><trkpt lat="42.5255466" lon="-3.772331"><ele>889.0</ele><time>2026-05-02T17:21:23.914Z</time></trkpt><trkpt lat="42.5254225" lon="-3.7722476"><ele>889.0</ele><time>2026-05-02T17:21:24.914Z</time></trkpt><trkpt lat="42.5252964" lon="-3.7721597"><ele>889.0</ele><time>2026-05-02T17:21:25.919Z</time></trkpt><trkpt lat="42.5251697" lon="-3.7720822"><ele>889.0</ele><time>2026-05-02T17:21:26.914Z</time></trkpt><trkpt lat="42.5250392" lon="-3.7720017"><ele>889.25</ele><time>2026-05-02T17:21:27.911Z</time></trkpt><trkpt lat="42.524906" lon="-3.7719162"><ele>889.5</ele><time>2026-05-02T17:21:28.913Z</time></trkpt><trkpt lat="42.5247767" lon="-3.7718416"><ele>889.75</ele><time>2026-05-02T17:21:29.909Z</time></trkpt><trkpt lat="42.5246537" lon="-3.7717667"><ele>890.0</ele><time>2026-05-02T17:21:30.915Z</time></trkpt><trkpt lat="42.5245236" lon="-3.7716893"><ele>889.5</ele><time>2026-05-02T17:21:31.911Z</time></trkpt><trkpt lat="42.5244026" lon="-3.7716221"><ele>889.0</ele><time>2026-05-02T17:21:32.912Z</time></trkpt><trkpt lat="42.5242858" lon="-3.7715582"><ele>888.5</ele><time>2026-05-02T17:21:33.913Z</time></trkpt><trkpt lat="42.5241723" lon="-3.7715192"><ele>888.0</ele><time>2026-05-02T17:21:34.907Z</time></trkpt><trkpt lat="42.5239661" lon="-3.7714699"><ele>888.0</ele><time>2026-05-02T17:21:36.914Z</time></trkpt><trkpt lat="42.5238624" lon="-3.771463"><ele>888.0</ele><time>2026-05-02T17:21:37.911Z</time></trkpt><trkpt lat="42.5237627" lon="-3.7714587"><ele>888.0</ele><time>2026-05-02T17:21:38.913Z</time></trkpt><trkpt lat="42.5236636" lon="-3.7714608"><ele>888.0</ele><time>2026-05-02T17:21:39.913Z</time></trkpt><trkpt lat="42.5235666" lon="-3.7714593"><ele>888.0</ele><time>2026-05-02T17:21:40.911Z</time></trkpt><trkpt lat="42.5234684" lon="-3.7714504"><ele>887.4</ele><time>2026-05-02T17:21:41.912Z</time></trkpt><trkpt lat="42.5233685" lon="-3.7714414"><ele>886.8</ele><time>2026-05-02T17:21:42.911Z</time></trkpt><trkpt lat="42.523267" lon="-3.7714351"><ele>886.2</ele><time>2026-05-02T17:21:43.918Z</time></trkpt><trkpt lat="42.5231637" lon="-3.7714317"><ele>885.6</ele><time>2026-05-02T17:21:44.909Z</time></trkpt><trkpt lat="42.5230588" lon="-3.7714277"><ele>885.0</ele><time>2026-05-02T17:21:45.908Z</time></trkpt><trkpt lat="42.522955" lon="-3.7714287"><ele>885.4</ele><time>2026-05-02T17:21:46.914Z</time></trkpt><trkpt lat="42.5228523" lon="-3.7714333"><ele>885.8</ele><time>2026-05-02T17:21:47.921Z</time></trkpt><trkpt lat="42.5227491" lon="-3.7714502"><ele>886.2</ele><time>2026-05-02T17:21:48.907Z</time></trkpt><trkpt lat="42.5226435" lon="-3.7714789"><ele>886.6</ele><time>2026-05-02T17:21:49.916Z</time></trkpt><trkpt lat="42.5225353" lon="-3.7715144"><ele>887.0</ele><time>2026-05-02T17:21:50.916Z</time></trkpt><trkpt lat="42.5224269" lon="-3.7715456"><ele>887.0</ele><time>2026-05-02T17:21:51.912Z</time></trkpt><trkpt lat="42.5223183" lon="-3.7715741"><ele>887.0</ele><time>2026-05-02T17:21:52.912Z</time></trkpt><trkpt lat="42.5222047" lon="-3.7715969"><ele>887.0</ele><time>2026-05-02T17:21:53.915Z</time></trkpt><trkpt lat="42.5220874" lon="-3.7716153"><ele>887.0</ele><time>2026-05-02T17:21:54.907Z</time></trkpt><trkpt lat="42.521967" lon="-3.7716257"><ele>886.75</ele><time>2026-05-02T17:21:55.92Z</time></trkpt><trkpt lat="42.5218461" lon="-3.7716325"><ele>886.5</ele><time>2026-05-02T17:21:56.908Z</time></trkpt><trkpt lat="42.5217242" lon="-3.7716368"><ele>886.25</ele><time>2026-05-02T17:21:57.909Z</time></trkpt><trkpt lat="42.5216042" lon="-3.7716402"><ele>886.0</ele><time>2026-05-02T17:21:58.911Z</time></trkpt><trkpt lat="42.5214818" lon="-3.7716405"><ele>886.0</ele><time>2026-05-02T17:21:59.91Z</time></trkpt><trkpt lat="42.521355" lon="-3.771636"><ele>886.0</ele><time>2026-05-02T17:22:00.916Z</time></trkpt><trkpt lat="42.5212296" lon="-3.7716304"><ele>886.0</ele><time>2026-05-02T17:22:01.913Z</time></trkpt><trkpt lat="42.5211041" lon="-3.7716255"><ele>886.0</ele><time>2026-05-02T17:22:02.913Z</time></trkpt><trkpt lat="42.5209756" lon="-3.7716199"><ele>885.75</ele><time>2026-05-02T17:22:03.914Z</time></trkpt><trkpt lat="42.5208469" lon="-3.7716215"><ele>885.5</ele><time>2026-05-02T17:22:04.913Z</time></trkpt><trkpt lat="42.520716" lon="-3.7716189"><ele>885.25</ele><time>2026-05-02T17:22:05.91Z</time></trkpt><trkpt lat="42.5205779" lon="-3.7716182"><ele>885.0</ele><time>2026-05-02T17:22:06.916Z</time></trkpt><trkpt lat="42.5204387" lon="-3.7716207"><ele>885.0</ele><time>2026-05-02T17:22:07.913Z</time></trkpt><trkpt lat="42.5202994" lon="-3.7716336"><ele>885.0</ele><time>2026-05-02T17:22:08.912Z</time></trkpt><trkpt lat="42.5201533" lon="-3.7716607"><ele>885.0</ele><time>2026-05-02T17:22:09.912Z</time></trkpt><trkpt lat="42.5200136" lon="-3.7717029"><ele>885.0</ele><time>2026-05-02T17:22:10.912Z</time></trkpt><trkpt lat="42.5198675" lon="-3.7717534"><ele>885.0</ele><time>2026-05-02T17:22:11.917Z</time></trkpt><trkpt lat="42.5197209" lon="-3.7718168"><ele>885.0</ele><time>2026-05-02T17:22:12.911Z</time></trkpt><trkpt lat="42.5195628" lon="-3.771882"><ele>885.0</ele><time>2026-05-02T17:22:13.909Z</time></trkpt><trkpt lat="42.519414" lon="-3.7719181"><ele>884.5</ele><time>2026-05-02T17:22:14.912Z</time></trkpt><trkpt lat="42.5192791" lon="-3.7719714"><ele>884.0</ele><time>2026-05-02T17:22:15.889Z</time></trkpt><trkpt lat="42.5191385" lon="-3.772014"><ele>883.5</ele><time>2026-05-02T17:22:16.918Z</time></trkpt><trkpt lat="42.5189945" lon="-3.7720656"><ele>883.0</ele><time>2026-05-02T17:22:17.912Z</time></trkpt><trkpt lat="42.5188473" lon="-3.7721148"><ele>883.0</ele><time>2026-05-02T17:22:18.924Z</time></trkpt><trkpt lat="42.5187007" lon="-3.772162"><ele>883.0</ele><time>2026-05-02T17:22:19.917Z</time></trkpt><trkpt lat="42.5185535" lon="-3.772211"><ele>883.0</ele><time>2026-05-02T17:22:20.918Z</time></trkpt><trkpt lat="42.5184017" lon="-3.7722534"><ele>883.0</ele><time>2026-05-02T17:22:21.918Z</time></trkpt><trkpt lat="42.5182455" lon="-3.7722966"><ele>883.0</ele><time>2026-05-02T17:22:22.919Z</time></trkpt><trkpt lat="42.5180904" lon="-3.7723363"><ele>883.0</ele><time>2026-05-02T17:22:23.918Z</time></trkpt><trkpt lat="42.5179317" lon="-3.7723727"><ele>882.3333333333333</ele><time>2026-05-02T17:22:24.922Z</time></trkpt><trkpt lat="42.5177675" lon="-3.7724124"><ele>881.6666666666667</ele><time>2026-05-02T17:22:25.923Z</time></trkpt><trkpt lat="42.517596" lon="-3.7724532"><ele>881.0</ele><time>2026-05-02T17:22:26.921Z</time></trkpt><trkpt lat="42.5174337" lon="-3.7724903"><ele>881.0</ele><time>2026-05-02T17:22:27.92Z</time></trkpt><trkpt lat="42.5172694" lon="-3.772519"><ele>881.0</ele><time>2026-05-02T17:22:28.922Z</time></trkpt><trkpt lat="42.5171067" lon="-3.7725558"><ele>881.0</ele><time>2026-05-02T17:22:29.927Z</time></trkpt><trkpt lat="42.5169421" lon="-3.7725995"><ele>881.3333333333334</ele><time>2026-05-02T17:22:30.925Z</time></trkpt><trkpt lat="42.5167763" lon="-3.7726294"><ele>881.6666666666667</ele><time>2026-05-02T17:22:31.922Z</time></trkpt><trkpt lat="42.5166112" lon="-3.7726689"><ele>882.0</ele><time>2026-05-02T17:22:32.92Z</time></trkpt><trkpt lat="42.516449" lon="-3.772708"><ele>881.3333333333333</ele><time>2026-05-02T17:22:33.923Z</time></trkpt><trkpt lat="42.5162804" lon="-3.7727498"><ele>880.6666666666666</ele><time>2026-05-02T17:22:34.905Z</time></trkpt><trkpt lat="42.5161129" lon="-3.7727959"><ele>880.0</ele><time>2026-05-02T17:22:35.914Z</time></trkpt><trkpt lat="42.5159522" lon="-3.7728351"><ele>879.6666666666666</ele><time>2026-05-02T17:22:36.919Z</time></trkpt><trkpt lat="42.5157842" lon="-3.7728783"><ele>879.3333333333333</ele><time>2026-05-02T17:22:37.908Z</time></trkpt><trkpt lat="42.5156138" lon="-3.7729052"><ele>879.0</ele><time>2026-05-02T17:22:38.912Z</time></trkpt><trkpt lat="42.5154473" lon="-3.7729376"><ele>878.6666666666667</ele><time>2026-05-02T17:22:39.913Z</time></trkpt><trkpt lat="42.5152725" lon="-3.7729796"><ele>878.3333333333334</ele><time>2026-05-02T17:22:40.916Z</time></trkpt><trkpt lat="42.5151023" lon="-3.7730133"><ele>878.0</ele><time>2026-05-02T17:22:41.92Z</time></trkpt><trkpt lat="42.5149378" lon="-3.7730569"><ele>878.0</ele><time>2026-05-02T17:22:42.92Z</time></trkpt><trkpt lat="42.5147758" lon="-3.7730966"><ele>878.0</ele><time>2026-05-02T17:22:43.919Z</time></trkpt><trkpt lat="42.5146105" lon="-3.7731325"><ele>878.0</ele><time>2026-05-02T17:22:44.92Z</time></trkpt><trkpt lat="42.5144537" lon="-3.7731682"><ele>878.0</ele><time>2026-05-02T17:22:45.921Z</time></trkpt><trkpt lat="42.5142906" lon="-3.7731994"><ele>878.0</ele><time>2026-05-02T17:22:46.919Z</time></trkpt><trkpt lat="42.5141341" lon="-3.7732396"><ele>878.0</ele><time>2026-05-02T17:22:47.921Z</time></trkpt><trkpt lat="42.5139746" lon="-3.7732827"><ele>878.0</ele><time>2026-05-02T17:22:48.925Z</time></trkpt><trkpt lat="42.5138116" lon="-3.7733168"><ele>878.0</ele><time>2026-05-02T17:22:49.936Z</time></trkpt><trkpt lat="42.513654" lon="-3.7733484"><ele>878.0</ele><time>2026-05-02T17:22:50.918Z</time></trkpt><trkpt lat="42.5134972" lon="-3.7733864"><ele>878.3333333333334</ele><time>2026-05-02T17:22:51.922Z</time></trkpt><trkpt lat="42.5133412" lon="-3.7734187"><ele>878.6666666666667</ele><time>2026-05-02T17:22:52.926Z</time></trkpt><trkpt lat="42.5131839" lon="-3.7734447"><ele>879.0</ele><time>2026-05-02T17:22:53.924Z</time></trkpt><trkpt lat="42.5130225" lon="-3.7734789"><ele>879.3333333333333</ele><time>2026-05-02T17:22:54.922Z</time></trkpt><trkpt lat="42.5128641" lon="-3.7735078"><ele>879.6666666666666</ele><time>2026-05-02T17:22:55.929Z</time></trkpt><trkpt lat="42.5127047" lon="-3.7735428"><ele>880.0</ele><time>2026-05-02T17:22:56.926Z</time></trkpt><trkpt lat="42.512545" lon="-3.773581"><ele>879.0</ele><time>2026-05-02T17:22:57.933Z</time></trkpt><trkpt lat="42.5123911" lon="-3.7736194"><ele>878.0</ele><time>2026-05-02T17:22:58.925Z</time></trkpt><trkpt lat="42.5122296" lon="-3.7736552"><ele>877.0</ele><time>2026-05-02T17:22:59.925Z</time></trkpt><trkpt lat="42.5120728" lon="-3.7736959"><ele>877.0</ele><time>2026-05-02T17:23:00.926Z</time></trkpt><trkpt lat="42.5119191" lon="-3.7737354"><ele>877.0</ele><time>2026-05-02T17:23:01.926Z</time></trkpt><trkpt lat="42.5117628" lon="-3.7737719"><ele>877.0</ele><time>2026-05-02T17:23:02.922Z</time></trkpt><trkpt lat="42.5116039" lon="-3.7738081"><ele>877.0</ele><time>2026-05-02T17:23:03.923Z</time></trkpt><trkpt lat="42.5114448" lon="-3.7738436"><ele>877.0</ele><time>2026-05-02T17:23:04.921Z</time></trkpt><trkpt lat="42.5112871" lon="-3.7738797"><ele>877.0</ele><time>2026-05-02T17:23:05.924Z</time></trkpt><trkpt lat="42.5111322" lon="-3.7739099"><ele>877.3333333333333</ele><time>2026-05-02T17:23:06.924Z</time></trkpt><trkpt lat="42.5109796" lon="-3.7739405"><ele>877.6666666666667</ele><time>2026-05-02T17:23:07.926Z</time></trkpt><trkpt lat="42.5108273" lon="-3.7739705"><ele>878.0</ele><time>2026-05-02T17:23:08.927Z</time></trkpt><trkpt lat="42.5106723" lon="-3.7740082"><ele>878.0</ele><time>2026-05-02T17:23:09.927Z</time></trkpt><trkpt lat="42.5105201" lon="-3.7740455"><ele>878.0</ele><time>2026-05-02T17:23:10.926Z</time></trkpt><trkpt lat="42.5103657" lon="-3.774081"><ele>878.0</ele><time>2026-05-02T17:23:11.923Z</time></trkpt><trkpt lat="42.5102157" lon="-3.7741154"><ele>877.6666666666667</ele><time>2026-05-02T17:23:12.925Z</time></trkpt><trkpt lat="42.5100639" lon="-3.7741494"><ele>877.3333333333333</ele><time>2026-05-02T17:23:13.93Z</time></trkpt><trkpt lat="42.5099173" lon="-3.7741816"><ele>877.0</ele><time>2026-05-02T17:23:14.925Z</time></trkpt><trkpt lat="42.5097667" lon="-3.774214"><ele>877.0</ele><time>2026-05-02T17:23:15.927Z</time></trkpt><trkpt lat="42.5096185" lon="-3.7742502"><ele>877.0</ele><time>2026-05-02T17:23:16.928Z</time></trkpt><trkpt lat="42.5094686" lon="-3.7742925"><ele>877.0</ele><time>2026-05-02T17:23:17.928Z</time></trkpt><trkpt lat="42.5093071" lon="-3.7743356"><ele>876.25</ele><time>2026-05-02T17:23:18.922Z</time></trkpt><trkpt lat="42.5091553" lon="-3.7743647"><ele>875.5</ele><time>2026-05-02T17:23:19.921Z</time></trkpt><trkpt lat="42.5090222" lon="-3.7744001"><ele>874.75</ele><time>2026-05-02T17:23:20.93Z</time></trkpt><trkpt lat="42.5088802" lon="-3.774434"><ele>874.0</ele><time>2026-05-02T17:23:21.916Z</time></trkpt><trkpt lat="42.5087301" lon="-3.7744636"><ele>874.0</ele><time>2026-05-02T17:23:22.933Z</time></trkpt><trkpt lat="42.5085811" lon="-3.774496"><ele>874.0</ele><time>2026-05-02T17:23:23.923Z</time></trkpt><trkpt lat="42.5084287" lon="-3.7745301"><ele>874.0</ele><time>2026-05-02T17:23:24.921Z</time></trkpt><trkpt lat="42.50828" lon="-3.7745648"><ele>874.0</ele><time>2026-05-02T17:23:25.926Z</time></trkpt><trkpt lat="42.5081345" lon="-3.7746028"><ele>874.0</ele><time>2026-05-02T17:23:26.919Z</time></trkpt><trkpt lat="42.507986" lon="-3.7746358"><ele>874.0</ele><time>2026-05-02T17:23:27.926Z</time></trkpt><trkpt lat="42.5078452" lon="-3.7746711"><ele>874.0</ele><time>2026-05-02T17:23:28.927Z</time></trkpt><trkpt lat="42.5077055" lon="-3.7747063"><ele>874.0</ele><time>2026-05-02T17:23:29.923Z</time></trkpt><trkpt lat="42.5075629" lon="-3.7747382"><ele>874.0</ele><time>2026-05-02T17:23:30.932Z</time></trkpt><trkpt lat="42.5074181" lon="-3.7747692"><ele>874.0</ele><time>2026-05-02T17:23:31.921Z</time></trkpt><trkpt lat="42.5072687" lon="-3.7747974"><ele>874.0</ele><time>2026-05-02T17:23:32.921Z</time></trkpt><trkpt lat="42.5071264" lon="-3.7748205"><ele>874.25</ele><time>2026-05-02T17:23:33.922Z</time></trkpt><trkpt lat="42.5069832" lon="-3.774852"><ele>874.5</ele><time>2026-05-02T17:23:34.92Z</time></trkpt><trkpt lat="42.5068388" lon="-3.7748835"><ele>874.75</ele><time>2026-05-02T17:23:35.923Z</time></trkpt><trkpt lat="42.5066914" lon="-3.7749132"><ele>875.0</ele><time>2026-05-02T17:23:36.924Z</time></trkpt><trkpt lat="42.5065461" lon="-3.7749533"><ele>875.0</ele><time>2026-05-02T17:23:37.924Z</time></trkpt><trkpt lat="42.5063992" lon="-3.7749894"><ele>875.0</ele><time>2026-05-02T17:23:38.924Z</time></trkpt><trkpt lat="42.506256" lon="-3.7750239"><ele>875.0</ele><time>2026-05-02T17:23:39.926Z</time></trkpt><trkpt lat="42.5061114" lon="-3.7750546"><ele>875.0</ele><time>2026-05-02T17:23:40.922Z</time></trkpt><trkpt lat="42.505967" lon="-3.7750824"><ele>874.75</ele><time>2026-05-02T17:23:41.926Z</time></trkpt><trkpt lat="42.5058244" lon="-3.7751184"><ele>874.5</ele><time>2026-05-02T17:23:42.923Z</time></trkpt><trkpt lat="42.5056831" lon="-3.7751566"><ele>874.25</ele><time>2026-05-02T17:23:43.923Z</time></trkpt><trkpt lat="42.5055447" lon="-3.7751951"><ele>874.0</ele><time>2026-05-02T17:23:44.928Z</time></trkpt><trkpt lat="42.5054052" lon="-3.7752269"><ele>874.0</ele><time>2026-05-02T17:23:45.927Z</time></trkpt><trkpt lat="42.505259" lon="-3.7752643"><ele>874.0</ele><time>2026-05-02T17:23:46.921Z</time></trkpt><trkpt lat="42.5051101" lon="-3.7753005"><ele>874.0</ele><time>2026-05-02T17:23:47.921Z</time></trkpt><trkpt lat="42.5049853" lon="-3.7753264"><ele>874.0</ele><time>2026-05-02T17:23:48.919Z</time></trkpt><trkpt lat="42.5048484" lon="-3.7753634"><ele>874.0</ele><time>2026-05-02T17:23:49.925Z</time></trkpt><trkpt lat="42.5047163" lon="-3.7753854"><ele>874.0</ele><time>2026-05-02T17:23:50.928Z</time></trkpt><trkpt lat="42.5045853" lon="-3.7754104"><ele>874.0</ele><time>2026-05-02T17:23:51.941Z</time></trkpt><trkpt lat="42.5044514" lon="-3.7754383"><ele>874.0</ele><time>2026-05-02T17:23:52.931Z</time></trkpt><trkpt lat="42.5043199" lon="-3.7754681"><ele>873.75</ele><time>2026-05-02T17:23:53.926Z</time></trkpt><trkpt lat="42.5041875" lon="-3.7754976"><ele>873.5</ele><time>2026-05-02T17:23:54.919Z</time></trkpt><trkpt lat="42.5040557" lon="-3.7755264"><ele>873.25</ele><time>2026-05-02T17:23:55.924Z</time></trkpt><trkpt lat="42.5039229" lon="-3.7755653"><ele>873.0</ele><time>2026-05-02T17:23:56.924Z</time></trkpt><trkpt lat="42.5037889" lon="-3.7756013"><ele>873.0</ele><time>2026-05-02T17:23:57.925Z</time></trkpt><trkpt lat="42.5036579" lon="-3.7756344"><ele>873.0</ele><time>2026-05-02T17:23:58.928Z</time></trkpt><trkpt lat="42.5035217" lon="-3.7756595"><ele>873.0</ele><time>2026-05-02T17:23:59.929Z</time></trkpt><trkpt lat="42.5033856" lon="-3.7756946"><ele>873.0</ele><time>2026-05-02T17:24:00.932Z</time></trkpt><trkpt lat="42.5032489" lon="-3.7757204"><ele>873.0</ele><time>2026-05-02T17:24:01.93Z</time></trkpt><trkpt lat="42.5031109" lon="-3.7757496"><ele>873.0</ele><time>2026-05-02T17:24:02.931Z</time></trkpt><trkpt lat="42.5029701" lon="-3.7757821"><ele>873.0</ele><time>2026-05-02T17:24:03.928Z</time></trkpt><trkpt lat="42.5028248" lon="-3.7758169"><ele>873.0</ele><time>2026-05-02T17:24:04.928Z</time></trkpt><trkpt lat="42.5026689" lon="-3.7758551"><ele>873.3333333333333</ele><time>2026-05-02T17:24:05.928Z</time></trkpt><trkpt lat="42.5025148" lon="-3.7758913"><ele>873.6666666666666</ele><time>2026-05-02T17:24:06.926Z</time></trkpt><trkpt lat="42.5023602" lon="-3.7759244"><ele>874.0</ele><time>2026-05-02T17:24:07.928Z</time></trkpt><trkpt lat="42.502204" lon="-3.7759632"><ele>873.6666666666666</ele><time>2026-05-02T17:24:08.926Z</time></trkpt><trkpt lat="42.5020527" lon="-3.7760054"><ele>873.3333333333333</ele><time>2026-05-02T17:24:09.939Z</time></trkpt><trkpt lat="42.5019003" lon="-3.7760485"><ele>873.0</ele><time>2026-05-02T17:24:10.929Z</time></trkpt><trkpt lat="42.5017441" lon="-3.7760863"><ele>873.0</ele><time>2026-05-02T17:24:11.934Z</time></trkpt><trkpt lat="42.5015751" lon="-3.7761242"><ele>873.0</ele><time>2026-05-02T17:24:12.927Z</time></trkpt><trkpt lat="42.5014115" lon="-3.7761672"><ele>873.0</ele><time>2026-05-02T17:24:13.926Z</time></trkpt><trkpt lat="42.5012606" lon="-3.7761935"><ele>872.6666666666667</ele><time>2026-05-02T17:24:14.926Z</time></trkpt><trkpt lat="42.5011044" lon="-3.7762224"><ele>872.3333333333334</ele><time>2026-05-02T17:24:15.927Z</time></trkpt><trkpt lat="42.5009544" lon="-3.7762536"><ele>872.0</ele><time>2026-05-02T17:24:16.933Z</time></trkpt><trkpt lat="42.5008023" lon="-3.7762835"><ele>872.0</ele><time>2026-05-02T17:24:17.935Z</time></trkpt><trkpt lat="42.5006481" lon="-3.7763211"><ele>872.0</ele><time>2026-05-02T17:24:18.93Z</time></trkpt><trkpt lat="42.5004873" lon="-3.7763527"><ele>872.0</ele><time>2026-05-02T17:24:19.931Z</time></trkpt><trkpt lat="42.5003339" lon="-3.7763896"><ele>872.3333333333334</ele><time>2026-05-02T17:24:20.926Z</time></trkpt><trkpt lat="42.5001809" lon="-3.7764274"><ele>872.6666666666667</ele><time>2026-05-02T17:24:21.929Z</time></trkpt><trkpt lat="42.500026" lon="-3.7764657"><ele>873.0</ele><time>2026-05-02T17:24:22.936Z</time></trkpt><trkpt lat="42.4998769" lon="-3.7765231"><ele>873.0</ele><time>2026-05-02T17:24:23.926Z</time></trkpt><trkpt lat="42.4997235" lon="-3.7765713"><ele>873.0</ele><time>2026-05-02T17:24:24.924Z</time></trkpt><trkpt lat="42.4995742" lon="-3.776601"><ele>873.0</ele><time>2026-05-02T17:24:25.924Z</time></trkpt><trkpt lat="42.4994191" lon="-3.7766271"><ele>872.6666666666667</ele><time>2026-05-02T17:24:26.925Z</time></trkpt><trkpt lat="42.4992557" lon="-3.7766517"><ele>872.3333333333334</ele><time>2026-05-02T17:24:27.922Z</time></trkpt><trkpt lat="42.4991006" lon="-3.7766862"><ele>872.0</ele><time>2026-05-02T17:24:28.927Z</time></trkpt><trkpt lat="42.4989411" lon="-3.7767197"><ele>872.0</ele><time>2026-05-02T17:24:29.927Z</time></trkpt><trkpt lat="42.4987839" lon="-3.7767544"><ele>872.0</ele><time>2026-05-02T17:24:30.928Z</time></trkpt><trkpt lat="42.4986306" lon="-3.7767899"><ele>872.0</ele><time>2026-05-02T17:24:31.928Z</time></trkpt><trkpt lat="42.4984718" lon="-3.7768277"><ele>872.3333333333334</ele><time>2026-05-02T17:24:32.921Z</time></trkpt><trkpt lat="42.4983134" lon="-3.7768701"><ele>872.6666666666667</ele><time>2026-05-02T17:24:33.929Z</time></trkpt><trkpt lat="42.4981535" lon="-3.7769057"><ele>873.0</ele><time>2026-05-02T17:24:34.924Z</time></trkpt><trkpt lat="42.4979967" lon="-3.7769335"><ele>873.0</ele><time>2026-05-02T17:24:35.926Z</time></trkpt><trkpt lat="42.4978397" lon="-3.7769641"><ele>873.0</ele><time>2026-05-02T17:24:36.927Z</time></trkpt><trkpt lat="42.497682" lon="-3.7769991"><ele>873.0</ele><time>2026-05-02T17:24:37.929Z</time></trkpt><trkpt lat="42.4975193" lon="-3.7770282"><ele>873.0</ele><time>2026-05-02T17:24:38.925Z</time></trkpt><trkpt lat="42.4973586" lon="-3.7770663"><ele>873.0</ele><time>2026-05-02T17:24:39.92Z</time></trkpt><trkpt lat="42.4971969" lon="-3.7771038"><ele>873.0</ele><time>2026-05-02T17:24:40.925Z</time></trkpt><trkpt lat="42.497046" lon="-3.7771447"><ele>872.3333333333333</ele><time>2026-05-02T17:24:41.925Z</time></trkpt><trkpt lat="42.4969002" lon="-3.7771844"><ele>871.6666666666666</ele><time>2026-05-02T17:24:42.916Z</time></trkpt><trkpt lat="42.4967427" lon="-3.7772235"><ele>871.0</ele><time>2026-05-02T17:24:43.921Z</time></trkpt><trkpt lat="42.4965832" lon="-3.777258"><ele>871.0</ele><time>2026-05-02T17:24:44.923Z</time></trkpt><trkpt lat="42.4964289" lon="-3.7772939"><ele>871.0</ele><time>2026-05-02T17:24:45.924Z</time></trkpt><trkpt lat="42.4962772" lon="-3.7773279"><ele>871.0</ele><time>2026-05-02T17:24:46.928Z</time></trkpt><trkpt lat="42.4961283" lon="-3.7773639"><ele>871.6666666666666</ele><time>2026-05-02T17:24:47.929Z</time></trkpt><trkpt lat="42.4959758" lon="-3.7773976"><ele>872.3333333333333</ele><time>2026-05-02T17:24:48.927Z</time></trkpt><trkpt lat="42.4958235" lon="-3.7774337"><ele>873.0</ele><time>2026-05-02T17:24:49.926Z</time></trkpt><trkpt lat="42.4956756" lon="-3.7774697"><ele>873.0</ele><time>2026-05-02T17:24:50.923Z</time></trkpt><trkpt lat="42.4955185" lon="-3.7775042"><ele>873.0</ele><time>2026-05-02T17:24:51.926Z</time></trkpt><trkpt lat="42.4953652" lon="-3.7775367"><ele>873.0</ele><time>2026-05-02T17:24:52.934Z</time></trkpt><trkpt lat="42.4952106" lon="-3.7775665"><ele>873.0</ele><time>2026-05-02T17:24:53.936Z</time></trkpt><trkpt lat="42.4950523" lon="-3.777609"><ele>873.0</ele><time>2026-05-02T17:24:54.922Z</time></trkpt><trkpt lat="42.4949014" lon="-3.7776479"><ele>873.0</ele><time>2026-05-02T17:24:55.924Z</time></trkpt><trkpt lat="42.4947453" lon="-3.7776869"><ele>872.3333333333333</ele><time>2026-05-02T17:24:56.92Z</time></trkpt><trkpt lat="42.4945903" lon="-3.7777206"><ele>871.6666666666666</ele><time>2026-05-02T17:24:57.921Z</time></trkpt><trkpt lat="42.4944342" lon="-3.7777601"><ele>871.0</ele><time>2026-05-02T17:24:58.917Z</time></trkpt><trkpt lat="42.4942766" lon="-3.7777948"><ele>871.0</ele><time>2026-05-02T17:24:59.918Z</time></trkpt><trkpt lat="42.4941208" lon="-3.7778287"><ele>871.0</ele><time>2026-05-02T17:25:00.928Z</time></trkpt><trkpt lat="42.4939664" lon="-3.7778651"><ele>871.0</ele><time>2026-05-02T17:25:01.92Z</time></trkpt><trkpt lat="42.4938129" lon="-3.7779002"><ele>870.6666666666666</ele><time>2026-05-02T17:25:02.919Z</time></trkpt><trkpt lat="42.4936578" lon="-3.7779317"><ele>870.3333333333333</ele><time>2026-05-02T17:25:03.918Z</time></trkpt><trkpt lat="42.4935053" lon="-3.7779618"><ele>870.0</ele><time>2026-05-02T17:25:04.923Z</time></trkpt><trkpt lat="42.4933564" lon="-3.7779964"><ele>870.0</ele><time>2026-05-02T17:25:05.922Z</time></trkpt><trkpt lat="42.4931999" lon="-3.7780331"><ele>870.0</ele><time>2026-05-02T17:25:06.919Z</time></trkpt><trkpt lat="42.4930423" lon="-3.7780634"><ele>870.0</ele><time>2026-05-02T17:25:07.921Z</time></trkpt><trkpt lat="42.4928864" lon="-3.7780979"><ele>869.6666666666667</ele><time>2026-05-02T17:25:08.928Z</time></trkpt><trkpt lat="42.4927308" lon="-3.7781406"><ele>869.3333333333334</ele><time>2026-05-02T17:25:09.924Z</time></trkpt><trkpt lat="42.4925776" lon="-3.7781709"><ele>869.0</ele><time>2026-05-02T17:25:10.924Z</time></trkpt><trkpt lat="42.4924229" lon="-3.7782112"><ele>869.0</ele><time>2026-05-02T17:25:11.928Z</time></trkpt><trkpt lat="42.4922707" lon="-3.7782426"><ele>869.0</ele><time>2026-05-02T17:25:12.924Z</time></trkpt><trkpt lat="42.4921178" lon="-3.7782771"><ele>869.0</ele><time>2026-05-02T17:25:13.927Z</time></trkpt><trkpt lat="42.4919643" lon="-3.7783096"><ele>869.0</ele><time>2026-05-02T17:25:14.924Z</time></trkpt><trkpt lat="42.4918096" lon="-3.778348"><ele>869.0</ele><time>2026-05-02T17:25:15.927Z</time></trkpt><trkpt lat="42.4916613" lon="-3.7783837"><ele>869.0</ele><time>2026-05-02T17:25:16.928Z</time></trkpt><trkpt lat="42.4915089" lon="-3.7784169"><ele>869.0</ele><time>2026-05-02T17:25:17.931Z</time></trkpt><trkpt lat="42.4913523" lon="-3.7784606"><ele>869.0</ele><time>2026-05-02T17:25:18.925Z</time></trkpt><trkpt lat="42.4911935" lon="-3.778497"><ele>869.0</ele><time>2026-05-02T17:25:19.927Z</time></trkpt><trkpt lat="42.4910328" lon="-3.7785355"><ele>869.0</ele><time>2026-05-02T17:25:20.924Z</time></trkpt><trkpt lat="42.4908813" lon="-3.7785673"><ele>869.0</ele><time>2026-05-02T17:25:21.929Z</time></trkpt><trkpt lat="42.4907231" lon="-3.7786028"><ele>869.0</ele><time>2026-05-02T17:25:22.926Z</time></trkpt><trkpt lat="42.4905715" lon="-3.7786388"><ele>868.6666666666667</ele><time>2026-05-02T17:25:23.935Z</time></trkpt><trkpt lat="42.4904183" lon="-3.7786726"><ele>868.3333333333333</ele><time>2026-05-02T17:25:24.94Z</time></trkpt><trkpt lat="42.4902603" lon="-3.7787043"><ele>868.0</ele><time>2026-05-02T17:25:25.918Z</time></trkpt><trkpt lat="42.4901184" lon="-3.7787452"><ele>868.0</ele><time>2026-05-02T17:25:26.91Z</time></trkpt><trkpt lat="42.4899573" lon="-3.7787741"><ele>868.0</ele><time>2026-05-02T17:25:27.907Z</time></trkpt><trkpt lat="42.489805" lon="-3.7788112"><ele>868.0</ele><time>2026-05-02T17:25:28.916Z</time></trkpt><trkpt lat="42.4896537" lon="-3.7788469"><ele>868.3333333333333</ele><time>2026-05-02T17:25:29.918Z</time></trkpt><trkpt lat="42.4895055" lon="-3.7788865"><ele>868.6666666666667</ele><time>2026-05-02T17:25:30.921Z</time></trkpt><trkpt lat="42.4893499" lon="-3.7789188"><ele>869.0</ele><time>2026-05-02T17:25:31.919Z</time></trkpt><trkpt lat="42.4891999" lon="-3.7789643"><ele>869.0</ele><time>2026-05-02T17:25:32.919Z</time></trkpt><trkpt lat="42.4890474" lon="-3.7790226"><ele>869.0</ele><time>2026-05-02T17:25:33.924Z</time></trkpt><trkpt lat="42.4888985" lon="-3.779083"><ele>869.0</ele><time>2026-05-02T17:25:34.919Z</time></trkpt><trkpt lat="42.488752" lon="-3.7791488"><ele>868.6666666666667</ele><time>2026-05-02T17:25:35.919Z</time></trkpt><trkpt lat="42.4886068" lon="-3.7792223"><ele>868.3333333333333</ele><time>2026-05-02T17:25:36.919Z</time></trkpt><trkpt lat="42.488459" lon="-3.779302"><ele>868.0</ele><time>2026-05-02T17:25:37.921Z</time></trkpt><trkpt lat="42.4883146" lon="-3.7793801"><ele>868.0</ele><time>2026-05-02T17:25:38.916Z</time></trkpt><trkpt lat="42.4881693" lon="-3.7794661"><ele>868.0</ele><time>2026-05-02T17:25:39.923Z</time></trkpt><trkpt lat="42.4880293" lon="-3.7795505"><ele>868.0</ele><time>2026-05-02T17:25:40.927Z</time></trkpt><trkpt lat="42.4878822" lon="-3.7796244"><ele>867.6666666666666</ele><time>2026-05-02T17:25:41.932Z</time></trkpt><trkpt lat="42.487741" lon="-3.7796966"><ele>867.3333333333333</ele><time>2026-05-02T17:25:42.924Z</time></trkpt><trkpt lat="42.4875979" lon="-3.7797702"><ele>867.0</ele><time>2026-05-02T17:25:43.929Z</time></trkpt><trkpt lat="42.4874561" lon="-3.7798459"><ele>867.0</ele><time>2026-05-02T17:25:44.933Z</time></trkpt><trkpt lat="42.4873178" lon="-3.7799264"><ele>867.0</ele><time>2026-05-02T17:25:45.922Z</time></trkpt><trkpt lat="42.4871811" lon="-3.7800131"><ele>867.0</ele><time>2026-05-02T17:25:46.925Z</time></trkpt><trkpt lat="42.4870406" lon="-3.7800935"><ele>867.6666666666667</ele><time>2026-05-02T17:25:47.923Z</time></trkpt><trkpt lat="42.4868944" lon="-3.7801714"><ele>868.3333333333334</ele><time>2026-05-02T17:25:48.926Z</time></trkpt><trkpt lat="42.4867559" lon="-3.7802497"><ele>869.0</ele><time>2026-05-02T17:25:49.929Z</time></trkpt><trkpt lat="42.4866184" lon="-3.7803274"><ele>869.0</ele><time>2026-05-02T17:25:50.927Z</time></trkpt><trkpt lat="42.4863117" lon="-3.7805137"><ele>869.0</ele><time>2026-05-02T17:25:52.923Z</time></trkpt><trkpt lat="42.4861617" lon="-3.7805779"><ele>868.3333333333334</ele><time>2026-05-02T17:25:53.923Z</time></trkpt><trkpt lat="42.4860202" lon="-3.7806526"><ele>867.6666666666667</ele><time>2026-05-02T17:25:54.92Z</time></trkpt><trkpt lat="42.485879" lon="-3.7807346"><ele>867.0</ele><time>2026-05-02T17:25:55.941Z</time></trkpt><trkpt lat="42.4857413" lon="-3.780808"><ele>867.0</ele><time>2026-05-02T17:25:56.926Z</time></trkpt><trkpt lat="42.485607" lon="-3.7808951"><ele>867.0</ele><time>2026-05-02T17:25:57.923Z</time></trkpt><trkpt lat="42.4854875" lon="-3.7809711"><ele>867.0</ele><time>2026-05-02T17:25:58.916Z</time></trkpt><trkpt lat="42.4853582" lon="-3.7810528"><ele>867.0</ele><time>2026-05-02T17:25:59.917Z</time></trkpt><trkpt lat="42.4852209" lon="-3.7811314"><ele>867.0</ele><time>2026-05-02T17:26:00.915Z</time></trkpt><trkpt lat="42.4850813" lon="-3.7812056"><ele>867.0</ele><time>2026-05-02T17:26:01.922Z</time></trkpt><trkpt lat="42.4849407" lon="-3.7812785"><ele>867.0</ele><time>2026-05-02T17:26:02.921Z</time></trkpt><trkpt lat="42.4846557" lon="-3.7814286"><ele>867.0</ele><time>2026-05-02T17:26:04.915Z</time></trkpt><trkpt lat="42.4845185" lon="-3.7815052"><ele>867.0</ele><time>2026-05-02T17:26:05.914Z</time></trkpt><trkpt lat="42.4843754" lon="-3.7815782"><ele>867.0</ele><time>2026-05-02T17:26:06.916Z</time></trkpt><trkpt lat="42.4842338" lon="-3.7816536"><ele>867.0</ele><time>2026-05-02T17:26:07.922Z</time></trkpt><trkpt lat="42.484094" lon="-3.781731"><ele>867.0</ele><time>2026-05-02T17:26:08.92Z</time></trkpt><trkpt lat="42.4839542" lon="-3.7818101"><ele>867.0</ele><time>2026-05-02T17:26:09.921Z</time></trkpt><trkpt lat="42.4838165" lon="-3.781891"><ele>867.3333333333333</ele><time>2026-05-02T17:26:10.92Z</time></trkpt><trkpt lat="42.4836855" lon="-3.7819706"><ele>867.6666666666666</ele><time>2026-05-02T17:26:11.92Z</time></trkpt><trkpt lat="42.4835575" lon="-3.782043"><ele>868.0</ele><time>2026-05-02T17:26:12.921Z</time></trkpt><trkpt lat="42.4833192" lon="-3.7821785"><ele>868.0</ele><time>2026-05-02T17:26:14.922Z</time></trkpt><trkpt lat="42.4832088" lon="-3.782239"><ele>868.0</ele><time>2026-05-02T17:26:15.921Z</time></trkpt><trkpt lat="42.4830959" lon="-3.7823"><ele>868.0</ele><time>2026-05-02T17:26:16.922Z</time></trkpt><trkpt lat="42.4829833" lon="-3.7823603"><ele>868.0</ele><time>2026-05-02T17:26:17.922Z</time></trkpt><trkpt lat="42.4828689" lon="-3.7824232"><ele>868.0</ele><time>2026-05-02T17:26:18.918Z</time></trkpt><trkpt lat="42.4827543" lon="-3.7824873"><ele>868.0</ele><time>2026-05-02T17:26:19.921Z</time></trkpt><trkpt lat="42.4826351" lon="-3.7825554"><ele>868.0</ele><time>2026-05-02T17:26:20.92Z</time></trkpt><trkpt lat="42.4825203" lon="-3.7826136"><ele>868.0</ele><time>2026-05-02T17:26:21.916Z</time></trkpt><trkpt lat="42.4824015" lon="-3.7826815"><ele>867.75</ele><time>2026-05-02T17:26:22.928Z</time></trkpt><trkpt lat="42.4822859" lon="-3.7827479"><ele>867.5</ele><time>2026-05-02T17:26:23.918Z</time></trkpt><trkpt lat="42.482177" lon="-3.7828062"><ele>867.25</ele><time>2026-05-02T17:26:24.913Z</time></trkpt><trkpt lat="42.4820657" lon="-3.7828723"><ele>867.0</ele><time>2026-05-02T17:26:25.927Z</time></trkpt><trkpt lat="42.4819546" lon="-3.7829329"><ele>867.4000000000001</ele><time>2026-05-02T17:26:26.913Z</time></trkpt><trkpt lat="42.4818432" lon="-3.7829938"><ele>867.8000000000001</ele><time>2026-05-02T17:26:27.916Z</time></trkpt><trkpt lat="42.4817348" lon="-3.7830575"><ele>868.2</ele><time>2026-05-02T17:26:28.909Z</time></trkpt><trkpt lat="42.4816312" lon="-3.7831113"><ele>868.6</ele><time>2026-05-02T17:26:29.92Z</time></trkpt><trkpt lat="42.4815431" lon="-3.7831627"><ele>869.0</ele><time>2026-05-02T17:26:30.923Z</time></trkpt><trkpt lat="42.4814625" lon="-3.7832072"><ele>869.0000000000001</ele><time>2026-05-02T17:26:31.918Z</time></trkpt><trkpt lat="42.481388" lon="-3.783245"><ele>869.0</ele><time>2026-05-02T17:26:32.92Z</time></trkpt><trkpt lat="42.4813164" lon="-3.7832882"><ele>869.0</ele><time>2026-05-02T17:26:33.928Z</time></trkpt><trkpt lat="42.4812423" lon="-3.7833322"><ele>869.0</ele><time>2026-05-02T17:26:34.921Z</time></trkpt><trkpt lat="42.4811608" lon="-3.7833774"><ele>869.0000000000001</ele><time>2026-05-02T17:26:35.92Z</time></trkpt><trkpt lat="42.4810753" lon="-3.7834249"><ele>869.0</ele><time>2026-05-02T17:26:36.923Z</time></trkpt><trkpt lat="42.4809892" lon="-3.783476"><ele>868.8000000000001</ele><time>2026-05-02T17:26:37.923Z</time></trkpt><trkpt lat="42.4809019" lon="-3.7835261"><ele>868.6000000000001</ele><time>2026-05-02T17:26:38.924Z</time></trkpt><trkpt lat="42.4808104" lon="-3.7835807"><ele>868.4</ele><time>2026-05-02T17:26:39.913Z</time></trkpt><trkpt lat="42.4807195" lon="-3.7836392"><ele>868.2</ele><time>2026-05-02T17:26:40.908Z</time></trkpt><trkpt lat="42.4806315" lon="-3.7836903"><ele>868.0</ele><time>2026-05-02T17:26:41.91Z</time></trkpt><trkpt lat="42.4805454" lon="-3.7837261"><ele>867.9999999999999</ele><time>2026-05-02T17:26:42.903Z</time></trkpt><trkpt lat="42.4804643" lon="-3.7837578"><ele>868.0</ele><time>2026-05-02T17:26:43.913Z</time></trkpt><trkpt lat="42.4803801" lon="-3.7837814"><ele>868.0</ele><time>2026-05-02T17:26:44.924Z</time></trkpt><trkpt lat="42.480293" lon="-3.7838007"><ele>868.0</ele><time>2026-05-02T17:26:45.909Z</time></trkpt><trkpt lat="42.4802032" lon="-3.783824"><ele>867.9999999999999</ele><time>2026-05-02T17:26:46.916Z</time></trkpt><trkpt lat="42.4801124" lon="-3.7838492"><ele>868.0</ele><time>2026-05-02T17:26:47.913Z</time></trkpt><trkpt lat="42.4800159" lon="-3.783873"><ele>868.5</ele><time>2026-05-02T17:26:48.912Z</time></trkpt><trkpt lat="42.4799057" lon="-3.7838908"><ele>869.0</ele><time>2026-05-02T17:26:49.912Z</time></trkpt><trkpt lat="42.4797931" lon="-3.7839103"><ele>869.5</ele><time>2026-05-02T17:26:50.918Z</time></trkpt><trkpt lat="42.4796761" lon="-3.7839255"><ele>870.0</ele><time>2026-05-02T17:26:51.92Z</time></trkpt><trkpt lat="42.4795523" lon="-3.7839492"><ele>870.0</ele><time>2026-05-02T17:26:52.913Z</time></trkpt><trkpt lat="42.4794257" lon="-3.7839787"><ele>870.0</ele><time>2026-05-02T17:26:53.909Z</time></trkpt><trkpt lat="42.4793022" lon="-3.7840058"><ele>870.0</ele><time>2026-05-02T17:26:54.907Z</time></trkpt><trkpt lat="42.4791903" lon="-3.7840372"><ele>870.0</ele><time>2026-05-02T17:26:55.908Z</time></trkpt><trkpt lat="42.4790892" lon="-3.7840656"><ele>870.0</ele><time>2026-05-02T17:26:56.919Z</time></trkpt><trkpt lat="42.4789979" lon="-3.7840838"><ele>870.0</ele><time>2026-05-02T17:26:57.912Z</time></trkpt><trkpt lat="42.4789133" lon="-3.7841069"><ele>870.0</ele><time>2026-05-02T17:26:58.911Z</time></trkpt><trkpt lat="42.4788323" lon="-3.7841335"><ele>870.0</ele><time>2026-05-02T17:26:59.909Z</time></trkpt><trkpt lat="42.4787487" lon="-3.7841577"><ele>870.0</ele><time>2026-05-02T17:27:00.914Z</time></trkpt><trkpt lat="42.4786598" lon="-3.7841842"><ele>870.0</ele><time>2026-05-02T17:27:01.913Z</time></trkpt><trkpt lat="42.4785693" lon="-3.7842264"><ele>870.25</ele><time>2026-05-02T17:27:02.911Z</time></trkpt><trkpt lat="42.4784777" lon="-3.7842887"><ele>870.5</ele><time>2026-05-02T17:27:03.914Z</time></trkpt><trkpt lat="42.478384" lon="-3.7843717"><ele>870.75</ele><time>2026-05-02T17:27:04.919Z</time></trkpt><trkpt lat="42.4782949" lon="-3.7844726"><ele>871.0</ele><time>2026-05-02T17:27:05.919Z</time></trkpt><trkpt lat="42.4782051" lon="-3.78458"><ele>871.0</ele><time>2026-05-02T17:27:06.918Z</time></trkpt><trkpt lat="42.4781174" lon="-3.7846984"><ele>871.0</ele><time>2026-05-02T17:27:07.918Z</time></trkpt><trkpt lat="42.4780285" lon="-3.78482"><ele>871.0</ele><time>2026-05-02T17:27:08.927Z</time></trkpt><trkpt lat="42.4779332" lon="-3.7849428"><ele>871.0</ele><time>2026-05-02T17:27:09.928Z</time></trkpt><trkpt lat="42.4778348" lon="-3.7850659"><ele>870.25</ele><time>2026-05-02T17:27:10.924Z</time></trkpt><trkpt lat="42.4777307" lon="-3.7851947"><ele>869.5</ele><time>2026-05-02T17:27:11.925Z</time></trkpt><trkpt lat="42.4776239" lon="-3.7853265"><ele>868.75</ele><time>2026-05-02T17:27:12.914Z</time></trkpt><trkpt lat="42.4775136" lon="-3.7854801"><ele>868.0</ele><time>2026-05-02T17:27:13.917Z</time></trkpt><trkpt lat="42.4773965" lon="-3.7856044"><ele>868.0</ele><time>2026-05-02T17:27:14.922Z</time></trkpt><trkpt lat="42.4772739" lon="-3.785746"><ele>868.0</ele><time>2026-05-02T17:27:15.923Z</time></trkpt><trkpt lat="42.4771555" lon="-3.7858913"><ele>868.0</ele><time>2026-05-02T17:27:16.923Z</time></trkpt><trkpt lat="42.477034" lon="-3.7860268"><ele>866.6666666666666</ele><time>2026-05-02T17:27:17.924Z</time></trkpt><trkpt lat="42.4769165" lon="-3.7861636"><ele>865.3333333333333</ele><time>2026-05-02T17:27:18.923Z</time></trkpt><trkpt lat="42.4767959" lon="-3.7862928"><ele>864.0</ele><time>2026-05-02T17:27:19.925Z</time></trkpt><trkpt lat="42.47668" lon="-3.786432"><ele>864.0</ele><time>2026-05-02T17:27:20.926Z</time></trkpt><trkpt lat="42.4765653" lon="-3.7865769"><ele>864.0</ele><time>2026-05-02T17:27:21.928Z</time></trkpt><trkpt lat="42.4764513" lon="-3.7867235"><ele>864.0</ele><time>2026-05-02T17:27:22.931Z</time></trkpt><trkpt lat="42.4763333" lon="-3.7868722"><ele>864.0</ele><time>2026-05-02T17:27:23.914Z</time></trkpt><trkpt lat="42.4762165" lon="-3.7870058"><ele>864.0</ele><time>2026-05-02T17:27:24.914Z</time></trkpt><trkpt lat="42.4761009" lon="-3.7871496"><ele>864.0</ele><time>2026-05-02T17:27:25.913Z</time></trkpt><trkpt lat="42.4759814" lon="-3.7873016"><ele>864.0</ele><time>2026-05-02T17:27:26.913Z</time></trkpt><trkpt lat="42.4758619" lon="-3.7874379"><ele>864.0</ele><time>2026-05-02T17:27:27.928Z</time></trkpt><trkpt lat="42.4757374" lon="-3.7875726"><ele>864.0</ele><time>2026-05-02T17:27:28.913Z</time></trkpt><trkpt lat="42.4756167" lon="-3.7877185"><ele>863.6666666666667</ele><time>2026-05-02T17:27:29.913Z</time></trkpt><trkpt lat="42.4755015" lon="-3.7878612"><ele>863.3333333333334</ele><time>2026-05-02T17:27:30.922Z</time></trkpt><trkpt lat="42.4753837" lon="-3.7880007"><ele>863.0</ele><time>2026-05-02T17:27:31.925Z</time></trkpt><trkpt lat="42.4752665" lon="-3.7881442"><ele>863.6666666666667</ele><time>2026-05-02T17:27:32.92Z</time></trkpt><trkpt lat="42.4751476" lon="-3.7882922"><ele>864.3333333333333</ele><time>2026-05-02T17:27:33.92Z</time></trkpt><trkpt lat="42.4750235" lon="-3.7884393"><ele>865.0</ele><time>2026-05-02T17:27:34.918Z</time></trkpt><trkpt lat="42.4749025" lon="-3.788583"><ele>865.3333333333333</ele><time>2026-05-02T17:27:35.924Z</time></trkpt><trkpt lat="42.4747819" lon="-3.7887156"><ele>865.6666666666667</ele><time>2026-05-02T17:27:36.921Z</time></trkpt><trkpt lat="42.4746628" lon="-3.7888589"><ele>866.0</ele><time>2026-05-02T17:27:37.921Z</time></trkpt><trkpt lat="42.4745434" lon="-3.7890055"><ele>866.0</ele><time>2026-05-02T17:27:38.924Z</time></trkpt><trkpt lat="42.4744213" lon="-3.7891446"><ele>866.0</ele><time>2026-05-02T17:27:39.922Z</time></trkpt><trkpt lat="42.4742988" lon="-3.7892882"><ele>866.0</ele><time>2026-05-02T17:27:40.92Z</time></trkpt><trkpt lat="42.4741765" lon="-3.7894291"><ele>865.0</ele><time>2026-05-02T17:27:41.92Z</time></trkpt><trkpt lat="42.4740549" lon="-3.7895656"><ele>864.0</ele><time>2026-05-02T17:27:42.921Z</time></trkpt><trkpt lat="42.473933" lon="-3.7897041"><ele>863.0</ele><time>2026-05-02T17:27:43.925Z</time></trkpt><trkpt lat="42.4738104" lon="-3.7898476"><ele>864.0</ele><time>2026-05-02T17:27:44.923Z</time></trkpt><trkpt lat="42.4736845" lon="-3.7899902"><ele>865.0</ele><time>2026-05-02T17:27:45.926Z</time></trkpt><trkpt lat="42.4735663" lon="-3.7901357"><ele>866.0</ele><time>2026-05-02T17:27:46.915Z</time></trkpt><trkpt lat="42.4734481" lon="-3.7902931"><ele>866.0</ele><time>2026-05-02T17:27:47.917Z</time></trkpt><trkpt lat="42.4733267" lon="-3.7904512"><ele>866.0</ele><time>2026-05-02T17:27:48.916Z</time></trkpt><trkpt lat="42.4732144" lon="-3.7905797"><ele>866.0</ele><time>2026-05-02T17:27:49.92Z</time></trkpt><trkpt lat="42.4730853" lon="-3.7907284"><ele>866.0</ele><time>2026-05-02T17:27:50.921Z</time></trkpt><trkpt lat="42.4729627" lon="-3.7908728"><ele>866.0</ele><time>2026-05-02T17:27:51.924Z</time></trkpt><trkpt lat="42.4728409" lon="-3.7910162"><ele>866.0</ele><time>2026-05-02T17:27:52.932Z</time></trkpt><trkpt lat="42.4727236" lon="-3.7911533"><ele>866.3333333333334</ele><time>2026-05-02T17:27:53.928Z</time></trkpt><trkpt lat="42.472604" lon="-3.7912922"><ele>866.6666666666667</ele><time>2026-05-02T17:27:54.923Z</time></trkpt><trkpt lat="42.4724811" lon="-3.7914221"><ele>867.0</ele><time>2026-05-02T17:27:55.919Z</time></trkpt><trkpt lat="42.472362" lon="-3.7915515"><ele>867.0</ele><time>2026-05-02T17:27:56.908Z</time></trkpt><trkpt lat="42.4722419" lon="-3.7917088"><ele>867.0</ele><time>2026-05-02T17:27:57.92Z</time></trkpt><trkpt lat="42.4721192" lon="-3.7918509"><ele>867.0</ele><time>2026-05-02T17:27:58.924Z</time></trkpt><trkpt lat="42.4719966" lon="-3.7919928"><ele>866.6666666666667</ele><time>2026-05-02T17:27:59.917Z</time></trkpt><trkpt lat="42.4718735" lon="-3.7921365"><ele>866.3333333333334</ele><time>2026-05-02T17:28:00.918Z</time></trkpt><trkpt lat="42.4717517" lon="-3.7922756"><ele>866.0</ele><time>2026-05-02T17:28:01.917Z</time></trkpt><trkpt lat="42.4716326" lon="-3.7924163"><ele>866.0</ele><time>2026-05-02T17:28:02.914Z</time></trkpt><trkpt lat="42.4715107" lon="-3.7925546"><ele>866.0</ele><time>2026-05-02T17:28:03.914Z</time></trkpt><trkpt lat="42.4713942" lon="-3.7926963"><ele>866.0</ele><time>2026-05-02T17:28:04.912Z</time></trkpt><trkpt lat="42.471277" lon="-3.7928389"><ele>866.3333333333334</ele><time>2026-05-02T17:28:05.915Z</time></trkpt><trkpt lat="42.4711634" lon="-3.7929795"><ele>866.6666666666667</ele><time>2026-05-02T17:28:06.92Z</time></trkpt><trkpt lat="42.471046" lon="-3.7931197"><ele>867.0</ele><time>2026-05-02T17:28:07.918Z</time></trkpt><trkpt lat="42.470923" lon="-3.7932623"><ele>867.0</ele><time>2026-05-02T17:28:08.918Z</time></trkpt><trkpt lat="42.4708042" lon="-3.7934023"><ele>867.0</ele><time>2026-05-02T17:28:09.917Z</time></trkpt><trkpt lat="42.470682" lon="-3.7935426"><ele>867.0</ele><time>2026-05-02T17:28:10.919Z</time></trkpt><trkpt lat="42.4705592" lon="-3.7936815"><ele>866.0</ele><time>2026-05-02T17:28:11.922Z</time></trkpt><trkpt lat="42.4704389" lon="-3.7938374"><ele>865.0</ele><time>2026-05-02T17:28:12.915Z</time></trkpt><trkpt lat="42.4703171" lon="-3.7939873"><ele>864.0</ele><time>2026-05-02T17:28:13.921Z</time></trkpt><trkpt lat="42.4702" lon="-3.7940908"><ele>864.0</ele><time>2026-05-02T17:28:14.909Z</time></trkpt><trkpt lat="42.4700815" lon="-3.7942223"><ele>864.0</ele><time>2026-05-02T17:28:15.903Z</time></trkpt><trkpt lat="42.4699681" lon="-3.7943714"><ele>864.0</ele><time>2026-05-02T17:28:16.916Z</time></trkpt><trkpt lat="42.4698468" lon="-3.7945144"><ele>862.3333333333333</ele><time>2026-05-02T17:28:17.92Z</time></trkpt><trkpt lat="42.4697252" lon="-3.7946561"><ele>860.6666666666666</ele><time>2026-05-02T17:28:18.911Z</time></trkpt><trkpt lat="42.4695968" lon="-3.7947869"><ele>859.0</ele><time>2026-05-02T17:28:19.918Z</time></trkpt><trkpt lat="42.4694623" lon="-3.7949116"><ele>859.0</ele><time>2026-05-02T17:28:20.917Z</time></trkpt><trkpt lat="42.4693246" lon="-3.7950323"><ele>859.0</ele><time>2026-05-02T17:28:21.922Z</time></trkpt><trkpt lat="42.4691832" lon="-3.7951456"><ele>859.0</ele><time>2026-05-02T17:28:22.921Z</time></trkpt><trkpt lat="42.4690467" lon="-3.7952547"><ele>859.6666666666666</ele><time>2026-05-02T17:28:23.925Z</time></trkpt><trkpt lat="42.468902" lon="-3.7953731"><ele>860.3333333333333</ele><time>2026-05-02T17:28:24.913Z</time></trkpt><trkpt lat="42.4687614" lon="-3.7954764"><ele>861.0</ele><time>2026-05-02T17:28:25.915Z</time></trkpt><trkpt lat="42.4686233" lon="-3.7955815"><ele>861.0</ele><time>2026-05-02T17:28:26.912Z</time></trkpt><trkpt lat="42.4684849" lon="-3.7956931"><ele>861.0</ele><time>2026-05-02T17:28:27.91Z</time></trkpt><trkpt lat="42.4683521" lon="-3.7958037"><ele>861.0</ele><time>2026-05-02T17:28:28.917Z</time></trkpt><trkpt lat="42.4682234" lon="-3.7959095"><ele>861.3333333333333</ele><time>2026-05-02T17:28:29.927Z</time></trkpt><trkpt lat="42.4680963" lon="-3.7960199"><ele>861.6666666666666</ele><time>2026-05-02T17:28:30.921Z</time></trkpt><trkpt lat="42.4679672" lon="-3.7961247"><ele>862.0</ele><time>2026-05-02T17:28:31.917Z</time></trkpt><trkpt lat="42.4678421" lon="-3.7962333"><ele>862.0</ele><time>2026-05-02T17:28:32.916Z</time></trkpt><trkpt lat="42.4677183" lon="-3.7963436"><ele>862.0</ele><time>2026-05-02T17:28:33.917Z</time></trkpt><trkpt lat="42.4675925" lon="-3.7964579"><ele>862.0</ele><time>2026-05-02T17:28:34.917Z</time></trkpt><trkpt lat="42.46746" lon="-3.7965708"><ele>862.0</ele><time>2026-05-02T17:28:35.917Z</time></trkpt><trkpt lat="42.4673338" lon="-3.7966761"><ele>862.0</ele><time>2026-05-02T17:28:36.919Z</time></trkpt><trkpt lat="42.4672146" lon="-3.7967711"><ele>862.0</ele><time>2026-05-02T17:28:37.916Z</time></trkpt><trkpt lat="42.4670908" lon="-3.7968459"><ele>862.0</ele><time>2026-05-02T17:28:38.916Z</time></trkpt><trkpt lat="42.4669711" lon="-3.7969113"><ele>861.0</ele><time>2026-05-02T17:28:39.917Z</time></trkpt><trkpt lat="42.4668376" lon="-3.7969647"><ele>860.0</ele><time>2026-05-02T17:28:40.915Z</time></trkpt><trkpt lat="42.4667059" lon="-3.7969995"><ele>859.0</ele><time>2026-05-02T17:28:41.912Z</time></trkpt><trkpt lat="42.466569" lon="-3.7970262"><ele>858.0</ele><time>2026-05-02T17:28:42.916Z</time></trkpt><trkpt lat="42.4664343" lon="-3.7970595"><ele>858.0</ele><time>2026-05-02T17:28:43.915Z</time></trkpt><trkpt lat="42.4663025" lon="-3.79709"><ele>858.0</ele><time>2026-05-02T17:28:44.914Z</time></trkpt><trkpt lat="42.4661681" lon="-3.7971274"><ele>858.0</ele><time>2026-05-02T17:28:45.918Z</time></trkpt><trkpt lat="42.4660356" lon="-3.7971637"><ele>858.0</ele><time>2026-05-02T17:28:46.915Z</time></trkpt><trkpt lat="42.4659006" lon="-3.7971985"><ele>858.0</ele><time>2026-05-02T17:28:47.913Z</time></trkpt><trkpt lat="42.4657735" lon="-3.7972262"><ele>858.0</ele><time>2026-05-02T17:28:48.914Z</time></trkpt><trkpt lat="42.4656503" lon="-3.797255"><ele>858.0</ele><time>2026-05-02T17:28:49.916Z</time></trkpt><trkpt lat="42.4655417" lon="-3.7972813"><ele>858.0</ele><time>2026-05-02T17:28:50.913Z</time></trkpt><trkpt lat="42.4654329" lon="-3.7973074"><ele>859.0</ele><time>2026-05-02T17:28:51.915Z</time></trkpt><trkpt lat="42.4653297" lon="-3.7973301"><ele>860.0</ele><time>2026-05-02T17:28:52.918Z</time></trkpt><trkpt lat="42.4652384" lon="-3.797355"><ele>861.0</ele><time>2026-05-02T17:28:53.915Z</time></trkpt><trkpt lat="42.4651586" lon="-3.7973829"><ele>862.0</ele><time>2026-05-02T17:28:54.911Z</time></trkpt><trkpt lat="42.4650773" lon="-3.7974045"><ele>863.0</ele><time>2026-05-02T17:28:55.919Z</time></trkpt><trkpt lat="42.4649917" lon="-3.7974295"><ele>863.0000000000001</ele><time>2026-05-02T17:28:56.909Z</time></trkpt><trkpt lat="42.4649033" lon="-3.7974548"><ele>863.0</ele><time>2026-05-02T17:28:57.909Z</time></trkpt><trkpt lat="42.4648159" lon="-3.7974761"><ele>863.0</ele><time>2026-05-02T17:28:58.909Z</time></trkpt><trkpt lat="42.4647311" lon="-3.797494"><ele>863.0</ele><time>2026-05-02T17:28:59.909Z</time></trkpt><trkpt lat="42.4646438" lon="-3.7975128"><ele>863.0000000000001</ele><time>2026-05-02T17:29:00.924Z</time></trkpt><trkpt lat="42.4645581" lon="-3.797533"><ele>863.0</ele><time>2026-05-02T17:29:01.91Z</time></trkpt><trkpt lat="42.4644725" lon="-3.7975552"><ele>862.8</ele><time>2026-05-02T17:29:02.906Z</time></trkpt><trkpt lat="42.4643853" lon="-3.7975788"><ele>862.5999999999999</ele><time>2026-05-02T17:29:03.912Z</time></trkpt><trkpt lat="42.4642948" lon="-3.7975995"><ele>862.4000000000001</ele><time>2026-05-02T17:29:04.906Z</time></trkpt><trkpt lat="42.4642048" lon="-3.7976229"><ele>862.2</ele><time>2026-05-02T17:29:05.91Z</time></trkpt><trkpt lat="42.4641176" lon="-3.7976458"><ele>862.0</ele><time>2026-05-02T17:29:06.913Z</time></trkpt><trkpt lat="42.4640251" lon="-3.7976706"><ele>862.0</ele><time>2026-05-02T17:29:07.915Z</time></trkpt><trkpt lat="42.4639361" lon="-3.7976966"><ele>862.0</ele><time>2026-05-02T17:29:08.912Z</time></trkpt><trkpt lat="42.4638448" lon="-3.7977215"><ele>862.0</ele><time>2026-05-02T17:29:09.913Z</time></trkpt><trkpt lat="42.4637509" lon="-3.7977458"><ele>862.0</ele><time>2026-05-02T17:29:10.912Z</time></trkpt><trkpt lat="42.4636498" lon="-3.7977706"><ele>862.0</ele><time>2026-05-02T17:29:11.917Z</time></trkpt><trkpt lat="42.463544" lon="-3.7977953"><ele>862.0</ele><time>2026-05-02T17:29:12.915Z</time></trkpt><trkpt lat="42.4634338" lon="-3.7978315"><ele>862.0</ele><time>2026-05-02T17:29:13.913Z</time></trkpt><trkpt lat="42.4633176" lon="-3.7978675"><ele>862.0</ele><time>2026-05-02T17:29:14.912Z</time></trkpt><trkpt lat="42.4631893" lon="-3.7979038"><ele>862.0</ele><time>2026-05-02T17:29:15.913Z</time></trkpt><trkpt lat="42.4630521" lon="-3.7979416"><ele>862.0</ele><time>2026-05-02T17:29:16.912Z</time></trkpt><trkpt lat="42.4629083" lon="-3.797978"><ele>862.0</ele><time>2026-05-02T17:29:17.915Z</time></trkpt><trkpt lat="42.4627478" lon="-3.7980118"><ele>862.0</ele><time>2026-05-02T17:29:18.916Z</time></trkpt><trkpt lat="42.4625866" lon="-3.798047"><ele>862.0</ele><time>2026-05-02T17:29:19.915Z</time></trkpt><trkpt lat="42.4624342" lon="-3.7980863"><ele>862.0</ele><time>2026-05-02T17:29:20.912Z</time></trkpt><trkpt lat="42.4622846" lon="-3.7981183"><ele>862.0</ele><time>2026-05-02T17:29:21.922Z</time></trkpt><trkpt lat="42.4621225" lon="-3.7981511"><ele>861.3333333333333</ele><time>2026-05-02T17:29:22.922Z</time></trkpt><trkpt lat="42.4619646" lon="-3.7981904"><ele>860.6666666666667</ele><time>2026-05-02T17:29:23.919Z</time></trkpt><trkpt lat="42.4618097" lon="-3.7982308"><ele>860.0</ele><time>2026-05-02T17:29:24.919Z</time></trkpt><trkpt lat="42.461658" lon="-3.7982764"><ele>860.0</ele><time>2026-05-02T17:29:25.919Z</time></trkpt><trkpt lat="42.4615052" lon="-3.798323"><ele>860.0</ele><time>2026-05-02T17:29:26.921Z</time></trkpt><trkpt lat="42.4613456" lon="-3.7983632"><ele>860.0</ele><time>2026-05-02T17:29:27.92Z</time></trkpt><trkpt lat="42.4611892" lon="-3.7984093"><ele>860.3333333333334</ele><time>2026-05-02T17:29:28.916Z</time></trkpt><trkpt lat="42.461023" lon="-3.798445"><ele>860.6666666666667</ele><time>2026-05-02T17:29:29.918Z</time></trkpt><trkpt lat="42.4608564" lon="-3.7984818"><ele>861.0</ele><time>2026-05-02T17:29:30.926Z</time></trkpt><trkpt lat="42.4607002" lon="-3.798516"><ele>861.0</ele><time>2026-05-02T17:29:31.932Z</time></trkpt><trkpt lat="42.4605432" lon="-3.7985467"><ele>861.0</ele><time>2026-05-02T17:29:32.916Z</time></trkpt><trkpt lat="42.4603947" lon="-3.7985911"><ele>861.0</ele><time>2026-05-02T17:29:33.92Z</time></trkpt><trkpt lat="42.4602451" lon="-3.7986302"><ele>862.0</ele><time>2026-05-02T17:29:34.923Z</time></trkpt><trkpt lat="42.4600917" lon="-3.7986641"><ele>863.0</ele><time>2026-05-02T17:29:35.922Z</time></trkpt><trkpt lat="42.4599389" lon="-3.7987022"><ele>864.0</ele><time>2026-05-02T17:29:36.919Z</time></trkpt><trkpt lat="42.4597829" lon="-3.7987391"><ele>864.0</ele><time>2026-05-02T17:29:37.921Z</time></trkpt><trkpt lat="42.4596294" lon="-3.7987809"><ele>864.0</ele><time>2026-05-02T17:29:38.925Z</time></trkpt><trkpt lat="42.4594716" lon="-3.7988211"><ele>864.0</ele><time>2026-05-02T17:29:39.923Z</time></trkpt><trkpt lat="42.459313" lon="-3.7988581"><ele>863.3333333333333</ele><time>2026-05-02T17:29:40.926Z</time></trkpt><trkpt lat="42.4591572" lon="-3.7989047"><ele>862.6666666666666</ele><time>2026-05-02T17:29:41.925Z</time></trkpt><trkpt lat="42.4590049" lon="-3.7989494"><ele>862.0</ele><time>2026-05-02T17:29:42.928Z</time></trkpt><trkpt lat="42.4588448" lon="-3.7989889"><ele>861.6666666666666</ele><time>2026-05-02T17:29:43.921Z</time></trkpt><trkpt lat="42.4586884" lon="-3.7990371"><ele>861.3333333333333</ele><time>2026-05-02T17:29:44.922Z</time></trkpt><trkpt lat="42.4585264" lon="-3.7990746"><ele>861.0</ele><time>2026-05-02T17:29:45.925Z</time></trkpt><trkpt lat="42.4583662" lon="-3.7991144"><ele>861.0</ele><time>2026-05-02T17:29:46.921Z</time></trkpt><trkpt lat="42.4582107" lon="-3.7991599"><ele>861.0</ele><time>2026-05-02T17:29:47.92Z</time></trkpt><trkpt lat="42.4580555" lon="-3.7992013"><ele>861.0</ele><time>2026-05-02T17:29:48.924Z</time></trkpt><trkpt lat="42.4578959" lon="-3.7992429"><ele>860.6666666666667</ele><time>2026-05-02T17:29:49.928Z</time></trkpt><trkpt lat="42.45774" lon="-3.799284"><ele>860.3333333333334</ele><time>2026-05-02T17:29:50.924Z</time></trkpt><trkpt lat="42.4575804" lon="-3.7993268"><ele>860.0</ele><time>2026-05-02T17:29:51.918Z</time></trkpt><trkpt lat="42.4574177" lon="-3.7993666"><ele>860.0</ele><time>2026-05-02T17:29:52.921Z</time></trkpt><trkpt lat="42.4572596" lon="-3.799398"><ele>860.0</ele><time>2026-05-02T17:29:53.924Z</time></trkpt><trkpt lat="42.4570979" lon="-3.799431"><ele>860.0</ele><time>2026-05-02T17:29:54.922Z</time></trkpt><trkpt lat="42.456939" lon="-3.7994694"><ele>860.3333333333334</ele><time>2026-05-02T17:29:55.925Z</time></trkpt><trkpt lat="42.4567799" lon="-3.7995249"><ele>860.6666666666667</ele><time>2026-05-02T17:29:56.922Z</time></trkpt><trkpt lat="42.4566208" lon="-3.7995634"><ele>861.0</ele><time>2026-05-02T17:29:57.928Z</time></trkpt><trkpt lat="42.4564556" lon="-3.7995951"><ele>861.0</ele><time>2026-05-02T17:29:58.921Z</time></trkpt><trkpt lat="42.4562997" lon="-3.7996318"><ele>861.0</ele><time>2026-05-02T17:29:59.93Z</time></trkpt><trkpt lat="42.4561476" lon="-3.7996735"><ele>861.0</ele><time>2026-05-02T17:30:00.926Z</time></trkpt><trkpt lat="42.4559872" lon="-3.7997116"><ele>859.6666666666667</ele><time>2026-05-02T17:30:01.924Z</time></trkpt><trkpt lat="42.4558242" lon="-3.7997529"><ele>858.3333333333334</ele><time>2026-05-02T17:30:02.934Z</time></trkpt><trkpt lat="42.4556582" lon="-3.799792"><ele>857.0</ele><time>2026-05-02T17:30:03.922Z</time></trkpt><trkpt lat="42.4554962" lon="-3.7998299"><ele>858.0</ele><time>2026-05-02T17:30:04.914Z</time></trkpt><trkpt lat="42.4553304" lon="-3.7998758"><ele>859.0</ele><time>2026-05-02T17:30:05.915Z</time></trkpt><trkpt lat="42.4551657" lon="-3.7999207"><ele>860.0</ele><time>2026-05-02T17:30:06.904Z</time></trkpt><trkpt lat="42.4550124" lon="-3.7999705"><ele>860.0</ele><time>2026-05-02T17:30:07.917Z</time></trkpt><trkpt lat="42.4548477" lon="-3.8000114"><ele>860.0</ele><time>2026-05-02T17:30:08.917Z</time></trkpt><trkpt lat="42.4546897" lon="-3.8000505"><ele>860.0</ele><time>2026-05-02T17:30:09.926Z</time></trkpt><trkpt lat="42.4545322" lon="-3.800093"><ele>860.0</ele><time>2026-05-02T17:30:10.917Z</time></trkpt><trkpt lat="42.4543719" lon="-3.8001314"><ele>860.0</ele><time>2026-05-02T17:30:11.92Z</time></trkpt><trkpt lat="42.4542145" lon="-3.8001714"><ele>860.0</ele><time>2026-05-02T17:30:12.919Z</time></trkpt><trkpt lat="42.4540553" lon="-3.8002109"><ele>860.3333333333334</ele><time>2026-05-02T17:30:13.923Z</time></trkpt><trkpt lat="42.4538962" lon="-3.8002534"><ele>860.6666666666667</ele><time>2026-05-02T17:30:14.92Z</time></trkpt><trkpt lat="42.4537382" lon="-3.8003082"><ele>861.0</ele><time>2026-05-02T17:30:15.918Z</time></trkpt><trkpt lat="42.453579" lon="-3.8003675"><ele>861.0</ele><time>2026-05-02T17:30:16.919Z</time></trkpt><trkpt lat="42.4534282" lon="-3.8004134"><ele>861.0</ele><time>2026-05-02T17:30:17.919Z</time></trkpt><trkpt lat="42.4532619" lon="-3.8004429"><ele>861.0</ele><time>2026-05-02T17:30:18.919Z</time></trkpt><trkpt lat="42.4531015" lon="-3.800461"><ele>862.6666666666667</ele><time>2026-05-02T17:30:19.914Z</time></trkpt><trkpt lat="42.4529488" lon="-3.8004918"><ele>864.3333333333334</ele><time>2026-05-02T17:30:20.915Z</time></trkpt><trkpt lat="42.4527931" lon="-3.8005136"><ele>866.0</ele><time>2026-05-02T17:30:21.91Z</time></trkpt><trkpt lat="42.4526415" lon="-3.8005325"><ele>866.0</ele><time>2026-05-02T17:30:22.926Z</time></trkpt><trkpt lat="42.4524841" lon="-3.800541"><ele>866.0</ele><time>2026-05-02T17:30:23.923Z</time></trkpt><trkpt lat="42.4523255" lon="-3.8005439"><ele>866.0</ele><time>2026-05-02T17:30:24.918Z</time></trkpt><trkpt lat="42.4521582" lon="-3.8005242"><ele>866.6666666666667</ele><time>2026-05-02T17:30:25.918Z</time></trkpt><trkpt lat="42.4520016" lon="-3.800501"><ele>867.3333333333333</ele><time>2026-05-02T17:30:26.917Z</time></trkpt><trkpt lat="42.451851" lon="-3.8004617"><ele>868.0</ele><time>2026-05-02T17:30:27.92Z</time></trkpt><trkpt lat="42.451704" lon="-3.8004183"><ele>868.0</ele><time>2026-05-02T17:30:28.919Z</time></trkpt><trkpt lat="42.4515602" lon="-3.8003747"><ele>868.0</ele><time>2026-05-02T17:30:29.922Z</time></trkpt><trkpt lat="42.4514132" lon="-3.8003211"><ele>868.0</ele><time>2026-05-02T17:30:30.931Z</time></trkpt><trkpt lat="42.4512637" lon="-3.8002686"><ele>867.6666666666666</ele><time>2026-05-02T17:30:31.922Z</time></trkpt><trkpt lat="42.4511135" lon="-3.800213"><ele>867.3333333333333</ele><time>2026-05-02T17:30:32.923Z</time></trkpt><trkpt lat="42.4509636" lon="-3.8001584"><ele>867.0</ele><time>2026-05-02T17:30:33.942Z</time></trkpt><trkpt lat="42.4508184" lon="-3.8001008"><ele>867.0</ele><time>2026-05-02T17:30:34.921Z</time></trkpt><trkpt lat="42.4506685" lon="-3.8000362"><ele>867.0</ele><time>2026-05-02T17:30:35.923Z</time></trkpt><trkpt lat="42.4505256" lon="-3.7999707"><ele>867.0</ele><time>2026-05-02T17:30:36.922Z</time></trkpt><trkpt lat="42.4503808" lon="-3.7999033"><ele>867.3333333333333</ele><time>2026-05-02T17:30:37.922Z</time></trkpt><trkpt lat="42.4502319" lon="-3.799824"><ele>867.6666666666666</ele><time>2026-05-02T17:30:38.936Z</time></trkpt><trkpt lat="42.4500886" lon="-3.7997553"><ele>868.0</ele><time>2026-05-02T17:30:39.921Z</time></trkpt><trkpt lat="42.4499448" lon="-3.7996844"><ele>868.0</ele><time>2026-05-02T17:30:40.925Z</time></trkpt><trkpt lat="42.449804" lon="-3.7996099"><ele>868.0</ele><time>2026-05-02T17:30:41.92Z</time></trkpt><trkpt lat="42.4496581" lon="-3.7995327"><ele>868.0</ele><time>2026-05-02T17:30:42.922Z</time></trkpt><trkpt lat="42.449517" lon="-3.7994579"><ele>868.3333333333333</ele><time>2026-05-02T17:30:43.928Z</time></trkpt><trkpt lat="42.4493743" lon="-3.7993825"><ele>868.6666666666667</ele><time>2026-05-02T17:30:44.922Z</time></trkpt><trkpt lat="42.4492298" lon="-3.7993131"><ele>869.0</ele><time>2026-05-02T17:30:45.925Z</time></trkpt><trkpt lat="42.4490878" lon="-3.7992429"><ele>870.25</ele><time>2026-05-02T17:30:46.92Z</time></trkpt><trkpt lat="42.4489521" lon="-3.7991767"><ele>871.5</ele><time>2026-05-02T17:30:47.926Z</time></trkpt><trkpt lat="42.4488097" lon="-3.7991107"><ele>872.75</ele><time>2026-05-02T17:30:48.922Z</time></trkpt><trkpt lat="42.4486653" lon="-3.7990402"><ele>874.0</ele><time>2026-05-02T17:30:49.925Z</time></trkpt><trkpt lat="42.448526" lon="-3.7989707"><ele>874.0</ele><time>2026-05-02T17:30:50.927Z</time></trkpt><trkpt lat="42.4483913" lon="-3.7989015"><ele>874.0</ele><time>2026-05-02T17:30:51.928Z</time></trkpt><trkpt lat="42.4482616" lon="-3.7988204"><ele>874.0</ele><time>2026-05-02T17:30:52.923Z</time></trkpt><trkpt lat="42.44814" lon="-3.7987373"><ele>874.0</ele><time>2026-05-02T17:30:53.918Z</time></trkpt><trkpt lat="42.4480085" lon="-3.7986363"><ele>873.3333333333333</ele><time>2026-05-02T17:30:54.925Z</time></trkpt><trkpt lat="42.4478767" lon="-3.7985155"><ele>872.6666666666667</ele><time>2026-05-02T17:30:55.918Z</time></trkpt><trkpt lat="42.4477552" lon="-3.7983866"><ele>872.0</ele><time>2026-05-02T17:30:56.916Z</time></trkpt><trkpt lat="42.4476481" lon="-3.7982646"><ele>873.75</ele><time>2026-05-02T17:30:57.923Z</time></trkpt><trkpt lat="42.4475284" lon="-3.7981351"><ele>875.5</ele><time>2026-05-02T17:30:58.915Z</time></trkpt><trkpt lat="42.4474199" lon="-3.7980266"><ele>877.25</ele><time>2026-05-02T17:30:59.914Z</time></trkpt><trkpt lat="42.4472987" lon="-3.7979175"><ele>879.0</ele><time>2026-05-02T17:31:00.916Z</time></trkpt><trkpt lat="42.4471837" lon="-3.7977986"><ele>879.75</ele><time>2026-05-02T17:31:01.921Z</time></trkpt><trkpt lat="42.4470663" lon="-3.7976874"><ele>880.5</ele><time>2026-05-02T17:31:02.919Z</time></trkpt><trkpt lat="42.4469525" lon="-3.7975853"><ele>881.25</ele><time>2026-05-02T17:31:03.933Z</time></trkpt><trkpt lat="42.4468441" lon="-3.7974842"><ele>882.0</ele><time>2026-05-02T17:31:04.919Z</time></trkpt><trkpt lat="42.4467323" lon="-3.7973782"><ele>883.0</ele><time>2026-05-02T17:31:05.924Z</time></trkpt><trkpt lat="42.4466164" lon="-3.7972626"><ele>884.0</ele><time>2026-05-02T17:31:06.917Z</time></trkpt><trkpt lat="42.4464978" lon="-3.7971523"><ele>885.0</ele><time>2026-05-02T17:31:07.916Z</time></trkpt><trkpt lat="42.4463841" lon="-3.7970434"><ele>886.0</ele><time>2026-05-02T17:31:08.918Z</time></trkpt><trkpt lat="42.4462692" lon="-3.7969354"><ele>887.25</ele><time>2026-05-02T17:31:09.919Z</time></trkpt><trkpt lat="42.446157" lon="-3.7968349"><ele>888.5</ele><time>2026-05-02T17:31:10.913Z</time></trkpt><trkpt lat="42.4460483" lon="-3.7967347"><ele>889.75</ele><time>2026-05-02T17:31:11.914Z</time></trkpt><trkpt lat="42.4459351" lon="-3.796633"><ele>891.0</ele><time>2026-05-02T17:31:12.906Z</time></trkpt><trkpt lat="42.4458213" lon="-3.796526"><ele>891.0</ele><time>2026-05-02T17:31:13.913Z</time></trkpt><trkpt lat="42.4457039" lon="-3.7964101"><ele>891.0</ele><time>2026-05-02T17:31:14.911Z</time></trkpt><trkpt lat="42.4455786" lon="-3.7962911"><ele>891.0</ele><time>2026-05-02T17:31:15.912Z</time></trkpt><trkpt lat="42.4454584" lon="-3.796168"><ele>891.0</ele><time>2026-05-02T17:31:16.913Z</time></trkpt><trkpt lat="42.4453341" lon="-3.7960374"><ele>889.0</ele><time>2026-05-02T17:31:17.903Z</time></trkpt><trkpt lat="42.4451997" lon="-3.7959224"><ele>887.0</ele><time>2026-05-02T17:31:18.905Z</time></trkpt><trkpt lat="42.445076" lon="-3.7958042"><ele>885.0</ele><time>2026-05-02T17:31:19.917Z</time></trkpt><trkpt lat="42.4449532" lon="-3.7957041"><ele>885.0</ele><time>2026-05-02T17:31:20.911Z</time></trkpt><trkpt lat="42.4448342" lon="-3.7956321"><ele>885.0</ele><time>2026-05-02T17:31:21.911Z</time></trkpt><trkpt lat="42.4447283" lon="-3.7955793"><ele>885.0</ele><time>2026-05-02T17:31:22.923Z</time></trkpt><trkpt lat="42.444635" lon="-3.7955431"><ele>885.0</ele><time>2026-05-02T17:31:23.917Z</time></trkpt><trkpt lat="42.4445533" lon="-3.7955025"><ele>885.0</ele><time>2026-05-02T17:31:24.905Z</time></trkpt><trkpt lat="42.4444685" lon="-3.7954447"><ele>884.6</ele><time>2026-05-02T17:31:25.901Z</time></trkpt><trkpt lat="42.4443958" lon="-3.7953726"><ele>884.2</ele><time>2026-05-02T17:31:26.913Z</time></trkpt><trkpt lat="42.4443497" lon="-3.7952821"><ele>883.8</ele><time>2026-05-02T17:31:27.912Z</time></trkpt><trkpt lat="42.4442998" lon="-3.7951738"><ele>883.4</ele><time>2026-05-02T17:31:28.908Z</time></trkpt><trkpt lat="42.4442577" lon="-3.7950497"><ele>883.0</ele><time>2026-05-02T17:31:29.912Z</time></trkpt><trkpt lat="42.4442189" lon="-3.7949131"><ele>882.0</ele><time>2026-05-02T17:31:30.913Z</time></trkpt><trkpt lat="42.4441839" lon="-3.7947759"><ele>881.0</ele><time>2026-05-02T17:31:31.905Z</time></trkpt><trkpt lat="42.44415" lon="-3.7946455"><ele>880.0</ele><time>2026-05-02T17:31:32.906Z</time></trkpt><trkpt lat="42.4441143" lon="-3.7945138"><ele>879.0</ele><time>2026-05-02T17:31:33.91Z</time></trkpt><trkpt lat="42.4440741" lon="-3.7943862"><ele>878.0</ele><time>2026-05-02T17:31:34.913Z</time></trkpt><trkpt lat="42.4440318" lon="-3.7942634"><ele>878.0</ele><time>2026-05-02T17:31:35.901Z</time></trkpt><trkpt lat="42.4439856" lon="-3.7941437"><ele>878.0</ele><time>2026-05-02T17:31:36.896Z</time></trkpt><trkpt lat="42.443933" lon="-3.7940361"><ele>878.0</ele><time>2026-05-02T17:31:37.887Z</time></trkpt><trkpt lat="42.4438942" lon="-3.7939132"><ele>878.0</ele><time>2026-05-02T17:31:38.901Z</time></trkpt><trkpt lat="42.443855" lon="-3.7937951"><ele>878.0</ele><time>2026-05-02T17:31:39.913Z</time></trkpt><trkpt lat="42.4438139" lon="-3.7936783"><ele>877.0</ele><time>2026-05-02T17:31:40.913Z</time></trkpt><trkpt lat="42.4437745" lon="-3.7935651"><ele>876.0</ele><time>2026-05-02T17:31:41.918Z</time></trkpt><trkpt lat="42.4437395" lon="-3.7934514"><ele>875.0</ele><time>2026-05-02T17:31:42.918Z</time></trkpt><trkpt lat="42.4437096" lon="-3.7933254"><ele>874.0</ele><time>2026-05-02T17:31:43.915Z</time></trkpt><trkpt lat="42.4436899" lon="-3.7931873"><ele>873.0</ele><time>2026-05-02T17:31:44.924Z</time></trkpt><trkpt lat="42.4436977" lon="-3.7930387"><ele>873.0</ele><time>2026-05-02T17:31:45.911Z</time></trkpt><trkpt lat="42.4437114" lon="-3.7928846"><ele>873.0</ele><time>2026-05-02T17:31:46.909Z</time></trkpt><trkpt lat="42.4437235" lon="-3.7927285"><ele>873.0</ele><time>2026-05-02T17:31:47.912Z</time></trkpt><trkpt lat="42.4437324" lon="-3.7925672"><ele>873.0</ele><time>2026-05-02T17:31:48.913Z</time></trkpt><trkpt lat="42.4437377" lon="-3.7924052"><ele>872.5</ele><time>2026-05-02T17:31:49.912Z</time></trkpt><trkpt lat="42.4437396" lon="-3.7922404"><ele>872.0</ele><time>2026-05-02T17:31:50.915Z</time></trkpt><trkpt lat="42.4437422" lon="-3.792079"><ele>871.5</ele><time>2026-05-02T17:31:51.92Z</time></trkpt><trkpt lat="42.443746" lon="-3.791917"><ele>871.0</ele><time>2026-05-02T17:31:52.927Z</time></trkpt><trkpt lat="42.4437482" lon="-3.7917591"><ele>870.1999999999999</ele><time>2026-05-02T17:31:53.921Z</time></trkpt><trkpt lat="42.4437531" lon="-3.7916088"><ele>869.3999999999999</ele><time>2026-05-02T17:31:54.927Z</time></trkpt><trkpt lat="42.4437558" lon="-3.7914561"><ele>868.6</ele><time>2026-05-02T17:31:55.923Z</time></trkpt><trkpt lat="42.4437616" lon="-3.791307"><ele>867.8</ele><time>2026-05-02T17:31:56.921Z</time></trkpt><trkpt lat="42.4437656" lon="-3.7911565"><ele>867.0</ele><time>2026-05-02T17:31:57.921Z</time></trkpt><trkpt lat="42.4437684" lon="-3.7910069"><ele>866.25</ele><time>2026-05-02T17:31:58.921Z</time></trkpt><trkpt lat="42.4437686" lon="-3.7908535"><ele>865.5</ele><time>2026-05-02T17:31:59.929Z</time></trkpt><trkpt lat="42.4437602" lon="-3.7907007"><ele>864.75</ele><time>2026-05-02T17:32:00.921Z</time></trkpt><trkpt lat="42.4437354" lon="-3.7905522"><ele>864.0</ele><time>2026-05-02T17:32:01.917Z</time></trkpt><trkpt lat="42.4436945" lon="-3.7904013"><ele>864.0</ele><time>2026-05-02T17:32:02.922Z</time></trkpt><trkpt lat="42.4436271" lon="-3.7902514"><ele>864.0</ele><time>2026-05-02T17:32:03.922Z</time></trkpt><trkpt lat="42.4435418" lon="-3.7901118"><ele>864.0</ele><time>2026-05-02T17:32:04.923Z</time></trkpt><trkpt lat="42.44344" lon="-3.7899889"><ele>864.0</ele><time>2026-05-02T17:32:05.928Z</time></trkpt><trkpt lat="42.4433236" lon="-3.7898773"><ele>864.25</ele><time>2026-05-02T17:32:06.916Z</time></trkpt><trkpt lat="42.4432018" lon="-3.7897716"><ele>864.5</ele><time>2026-05-02T17:32:07.918Z</time></trkpt><trkpt lat="42.4430707" lon="-3.7896757"><ele>864.75</ele><time>2026-05-02T17:32:08.93Z</time></trkpt><trkpt lat="42.4429475" lon="-3.7895732"><ele>865.0</ele><time>2026-05-02T17:32:09.928Z</time></trkpt><trkpt lat="42.4428193" lon="-3.7894615"><ele>865.0</ele><time>2026-05-02T17:32:10.91Z</time></trkpt><trkpt lat="42.4426919" lon="-3.7893506"><ele>865.0</ele><time>2026-05-02T17:32:11.913Z</time></trkpt><trkpt lat="42.4425821" lon="-3.7892453"><ele>865.0</ele><time>2026-05-02T17:32:12.915Z</time></trkpt><trkpt lat="42.4424652" lon="-3.789143"><ele>865.0</ele><time>2026-05-02T17:32:13.922Z</time></trkpt><trkpt lat="42.4423599" lon="-3.7890497"><ele>865.5</ele><time>2026-05-02T17:32:14.911Z</time></trkpt><trkpt lat="42.4422704" lon="-3.788941"><ele>866.0</ele><time>2026-05-02T17:32:15.915Z</time></trkpt><trkpt lat="42.4421977" lon="-3.788815"><ele>866.5</ele><time>2026-05-02T17:32:16.917Z</time></trkpt><trkpt lat="42.4421512" lon="-3.7886655"><ele>867.0</ele><time>2026-05-02T17:32:17.923Z</time></trkpt><trkpt lat="42.4421346" lon="-3.788504"><ele>868.75</ele><time>2026-05-02T17:32:18.915Z</time></trkpt><trkpt lat="42.4421182" lon="-3.7883504"><ele>870.5</ele><time>2026-05-02T17:32:19.914Z</time></trkpt><trkpt lat="42.4421061" lon="-3.7881927"><ele>872.25</ele><time>2026-05-02T17:32:20.916Z</time></trkpt><trkpt lat="42.4420922" lon="-3.7880303"><ele>874.0</ele><time>2026-05-02T17:32:21.922Z</time></trkpt><trkpt lat="42.4420735" lon="-3.7878633"><ele>874.0</ele><time>2026-05-02T17:32:22.923Z</time></trkpt><trkpt lat="42.4420539" lon="-3.7876986"><ele>874.0</ele><time>2026-05-02T17:32:23.923Z</time></trkpt><trkpt lat="42.4420381" lon="-3.7875328"><ele>874.0</ele><time>2026-05-02T17:32:24.921Z</time></trkpt><trkpt lat="42.4420224" lon="-3.7873679"><ele>874.0</ele><time>2026-05-02T17:32:25.925Z</time></trkpt><trkpt lat="42.4420066" lon="-3.7872044"><ele>874.0</ele><time>2026-05-02T17:32:26.918Z</time></trkpt><trkpt lat="42.4419917" lon="-3.7870423"><ele>874.0</ele><time>2026-05-02T17:32:27.919Z</time></trkpt><trkpt lat="42.4419758" lon="-3.7868783"><ele>874.0</ele><time>2026-05-02T17:32:28.919Z</time></trkpt><trkpt lat="42.4419618" lon="-3.7867165"><ele>874.0</ele><time>2026-05-02T17:32:29.922Z</time></trkpt><trkpt lat="42.4419433" lon="-3.7865595"><ele>874.75</ele><time>2026-05-02T17:32:30.928Z</time></trkpt><trkpt lat="42.441916" lon="-3.7864102"><ele>875.5</ele><time>2026-05-02T17:32:31.926Z</time></trkpt><trkpt lat="42.4418732" lon="-3.7862735"><ele>876.25</ele><time>2026-05-02T17:32:32.923Z</time></trkpt><trkpt lat="42.4418007" lon="-3.7861552"><ele>877.0</ele><time>2026-05-02T17:32:33.912Z</time></trkpt><trkpt lat="42.4417056" lon="-3.7860698"><ele>877.0</ele><time>2026-05-02T17:32:34.922Z</time></trkpt><trkpt lat="42.4416002" lon="-3.7860291"><ele>877.0</ele><time>2026-05-02T17:32:35.919Z</time></trkpt><trkpt lat="42.4414826" lon="-3.7860144"><ele>877.0</ele><time>2026-05-02T17:32:36.928Z</time></trkpt><trkpt lat="42.4413653" lon="-3.7859989"><ele>877.0</ele><time>2026-05-02T17:32:37.92Z</time></trkpt><trkpt lat="42.4412501" lon="-3.7859751"><ele>878.25</ele><time>2026-05-02T17:32:38.919Z</time></trkpt><trkpt lat="42.4411345" lon="-3.7859451"><ele>879.5</ele><time>2026-05-02T17:32:39.918Z</time></trkpt><trkpt lat="42.4410203" lon="-3.7859083"><ele>880.75</ele><time>2026-05-02T17:32:40.917Z</time></trkpt><trkpt lat="42.4409084" lon="-3.7858713"><ele>882.0</ele><time>2026-05-02T17:32:41.918Z</time></trkpt><trkpt lat="42.4407974" lon="-3.7858442"><ele>882.0</ele><time>2026-05-02T17:32:42.92Z</time></trkpt><trkpt lat="42.440685" lon="-3.7858428"><ele>882.0</ele><time>2026-05-02T17:32:43.919Z</time></trkpt><trkpt lat="42.4405747" lon="-3.7858741"><ele>882.0</ele><time>2026-05-02T17:32:44.926Z</time></trkpt><trkpt lat="42.4404682" lon="-3.7859427"><ele>882.0</ele><time>2026-05-02T17:32:45.921Z</time></trkpt><trkpt lat="42.4403728" lon="-3.7860486"><ele>883.5</ele><time>2026-05-02T17:32:46.922Z</time></trkpt><trkpt lat="42.4402976" lon="-3.7861758"><ele>885.0</ele><time>2026-05-02T17:32:47.92Z</time></trkpt><trkpt lat="42.4402383" lon="-3.7863239"><ele>886.5</ele><time>2026-05-02T17:32:48.915Z</time></trkpt><trkpt lat="42.4401848" lon="-3.786481"><ele>888.0</ele><time>2026-05-02T17:32:49.918Z</time></trkpt><trkpt lat="42.4401323" lon="-3.7866412"><ele>888.0</ele><time>2026-05-02T17:32:50.915Z</time></trkpt><trkpt lat="42.4400827" lon="-3.7868025"><ele>888.0</ele><time>2026-05-02T17:32:51.917Z</time></trkpt><trkpt lat="42.4400579" lon="-3.7869679"><ele>888.0</ele><time>2026-05-02T17:32:52.923Z</time></trkpt><trkpt lat="42.4400595" lon="-3.787142"><ele>888.0</ele><time>2026-05-02T17:32:53.92Z</time></trkpt><trkpt lat="42.4400847" lon="-3.7873206"><ele>887.75</ele><time>2026-05-02T17:32:54.915Z</time></trkpt><trkpt lat="42.4401114" lon="-3.787501"><ele>887.5</ele><time>2026-05-02T17:32:55.917Z</time></trkpt><trkpt lat="42.4401373" lon="-3.7876807"><ele>887.25</ele><time>2026-05-02T17:32:56.914Z</time></trkpt><trkpt lat="42.4401621" lon="-3.7878599"><ele>887.0</ele><time>2026-05-02T17:32:57.915Z</time></trkpt><trkpt lat="42.4401859" lon="-3.7880434"><ele>887.0</ele><time>2026-05-02T17:32:58.914Z</time></trkpt><trkpt lat="42.4402105" lon="-3.7882264"><ele>887.0</ele><time>2026-05-02T17:32:59.918Z</time></trkpt><trkpt lat="42.440232" lon="-3.7884081"><ele>887.0</ele><time>2026-05-02T17:33:00.931Z</time></trkpt><trkpt lat="42.4402569" lon="-3.7885859"><ele>887.0</ele><time>2026-05-02T17:33:01.93Z</time></trkpt><trkpt lat="42.4402852" lon="-3.7887676"><ele>887.4000000000001</ele><time>2026-05-02T17:33:02.923Z</time></trkpt><trkpt lat="42.4402972" lon="-3.7889022"><ele>887.8000000000001</ele><time>2026-05-02T17:33:03.911Z</time></trkpt><trkpt lat="42.440298" lon="-3.7890407"><ele>888.2</ele><time>2026-05-02T17:33:04.911Z</time></trkpt><trkpt lat="42.4402795" lon="-3.7891666"><ele>888.6</ele><time>2026-05-02T17:33:05.916Z</time></trkpt><trkpt lat="42.4402418" lon="-3.7892784"><ele>889.0</ele><time>2026-05-02T17:33:06.928Z</time></trkpt><trkpt lat="42.4401742" lon="-3.7893484"><ele>889.0</ele><time>2026-05-02T17:33:07.931Z</time></trkpt><trkpt lat="42.4400932" lon="-3.7894069"><ele>889.0000000000001</ele><time>2026-05-02T17:33:08.919Z</time></trkpt><trkpt lat="42.4400175" lon="-3.7893949"><ele>889.0000000000001</ele><time>2026-05-02T17:33:09.921Z</time></trkpt><trkpt lat="42.4399325" lon="-3.7893428"><ele>889.0</ele><time>2026-05-02T17:33:10.922Z</time></trkpt><trkpt lat="42.4398495" lon="-3.7892457"><ele>889.0</ele><time>2026-05-02T17:33:11.919Z</time></trkpt><trkpt lat="42.4397831" lon="-3.789124"><ele>889.0</ele><time>2026-05-02T17:33:12.92Z</time></trkpt><trkpt lat="42.439738" lon="-3.7889828"><ele>889.0000000000001</ele><time>2026-05-02T17:33:13.917Z</time></trkpt><trkpt lat="42.4397076" lon="-3.7888433"><ele>889.0000000000001</ele><time>2026-05-02T17:33:14.916Z</time></trkpt><trkpt lat="42.4396753" lon="-3.788707"><ele>889.0</ele><time>2026-05-02T17:33:15.914Z</time></trkpt><trkpt lat="42.4396356" lon="-3.7885658"><ele>889.0</ele><time>2026-05-02T17:33:16.917Z</time></trkpt><trkpt lat="42.4396" lon="-3.7884224"><ele>892.0</ele><time>2026-05-02T17:33:17.916Z</time></trkpt><trkpt lat="42.4395626" lon="-3.7882635"><ele>895.0</ele><time>2026-05-02T17:33:18.919Z</time></trkpt><trkpt lat="42.4395256" lon="-3.7881031"><ele>898.0</ele><time>2026-05-02T17:33:19.92Z</time></trkpt><trkpt lat="42.4394857" lon="-3.7879521"><ele>901.0</ele><time>2026-05-02T17:33:20.918Z</time></trkpt><trkpt lat="42.4394461" lon="-3.7878148"><ele>901.0</ele><time>2026-05-02T17:33:21.925Z</time></trkpt><trkpt lat="42.439412" lon="-3.7876813"><ele>900.9999999999999</ele><time>2026-05-02T17:33:22.923Z</time></trkpt><trkpt lat="42.4393769" lon="-3.7875476"><ele>900.9999999999999</ele><time>2026-05-02T17:33:23.93Z</time></trkpt><trkpt lat="42.4393427" lon="-3.787407"><ele>901.0</ele><time>2026-05-02T17:33:24.915Z</time></trkpt><trkpt lat="42.4393133" lon="-3.7872596"><ele>901.0</ele><time>2026-05-02T17:33:25.916Z</time></trkpt><trkpt lat="42.4392994" lon="-3.7871007"><ele>900.5999999999999</ele><time>2026-05-02T17:33:26.911Z</time></trkpt><trkpt lat="42.4392984" lon="-3.7869497"><ele>900.1999999999999</ele><time>2026-05-02T17:33:27.905Z</time></trkpt><trkpt lat="42.4392984" lon="-3.786796"><ele>899.8000000000001</ele><time>2026-05-02T17:33:28.908Z</time></trkpt><trkpt lat="42.4392997" lon="-3.7866428"><ele>899.4000000000001</ele><time>2026-05-02T17:33:29.912Z</time></trkpt><trkpt lat="42.4392939" lon="-3.7864971"><ele>899.0</ele><time>2026-05-02T17:33:30.918Z</time></trkpt><trkpt lat="42.4392828" lon="-3.7863634"><ele>898.9999999999999</ele><time>2026-05-02T17:33:31.913Z</time></trkpt><trkpt lat="42.439268" lon="-3.7862469"><ele>899.0</ele><time>2026-05-02T17:33:32.918Z</time></trkpt><trkpt lat="42.4392489" lon="-3.7861394"><ele>898.9999999999999</ele><time>2026-05-02T17:33:33.917Z</time></trkpt><trkpt lat="42.4392183" lon="-3.7860438"><ele>898.9999999999999</ele><time>2026-05-02T17:33:34.916Z</time></trkpt><trkpt lat="42.4391821" lon="-3.7859646"><ele>899.0</ele><time>2026-05-02T17:33:35.912Z</time></trkpt><trkpt lat="42.4391412" lon="-3.7858917"><ele>898.9999999999999</ele><time>2026-05-02T17:33:36.911Z</time></trkpt><trkpt lat="42.4390957" lon="-3.7858245"><ele>898.9999999999999</ele><time>2026-05-02T17:33:37.916Z</time></trkpt><trkpt lat="42.4390107" lon="-3.7857282"><ele>898.6666666666667</ele><time>2026-05-02T17:33:39.898Z</time></trkpt><trkpt lat="42.438946" lon="-3.7856503"><ele>898.3333333333334</ele><time>2026-05-02T17:33:41.902Z</time></trkpt><trkpt lat="42.438899" lon="-3.785587"><ele>898.0</ele><time>2026-05-02T17:33:43.911Z</time></trkpt><trkpt lat="42.4388468" lon="-3.7855048"><ele>897.6666666666667</ele><time>2026-05-02T17:33:45.913Z</time></trkpt><trkpt lat="42.4389142" lon="-3.7855686"><ele>897.3333333333334</ele><time>2026-05-02T17:33:53.913Z</time></trkpt><trkpt lat="42.4389899" lon="-3.7856816"><ele>897.0</ele><time>2026-05-02T17:33:55.91Z</time></trkpt><trkpt lat="42.4390409" lon="-3.7857562"><ele>897.0</ele><time>2026-05-02T17:33:56.913Z</time></trkpt><trkpt lat="42.4391036" lon="-3.7858466"><ele>897.0</ele><time>2026-05-02T17:33:57.908Z</time></trkpt><trkpt lat="42.4391695" lon="-3.7859515"><ele>897.0</ele><time>2026-05-02T17:33:58.909Z</time></trkpt><trkpt lat="42.4392385" lon="-3.7860702"><ele>897.0</ele><time>2026-05-02T17:33:59.914Z</time></trkpt><trkpt lat="42.4392972" lon="-3.7862106"><ele>897.0</ele><time>2026-05-02T17:34:00.91Z</time></trkpt><trkpt lat="42.439343" lon="-3.7863693"><ele>897.5</ele><time>2026-05-02T17:34:01.917Z</time></trkpt><trkpt lat="42.4393673" lon="-3.7865516"><ele>898.0</ele><time>2026-05-02T17:34:02.918Z</time></trkpt><trkpt lat="42.4393733" lon="-3.786739"><ele>898.5</ele><time>2026-05-02T17:34:03.919Z</time></trkpt><trkpt lat="42.4393763" lon="-3.7869224"><ele>899.0</ele><time>2026-05-02T17:34:04.917Z</time></trkpt><trkpt lat="42.4393784" lon="-3.7870992"><ele>899.0</ele><time>2026-05-02T17:34:05.917Z</time></trkpt><trkpt lat="42.4393822" lon="-3.787264"><ele>899.0</ele><time>2026-05-02T17:34:06.915Z</time></trkpt><trkpt lat="42.4393902" lon="-3.7874262"><ele>899.0</ele><time>2026-05-02T17:34:07.915Z</time></trkpt><trkpt lat="42.4394089" lon="-3.7875738"><ele>899.0</ele><time>2026-05-02T17:34:08.916Z</time></trkpt><trkpt lat="42.4394401" lon="-3.787707"><ele>899.3333333333334</ele><time>2026-05-02T17:34:09.924Z</time></trkpt><trkpt lat="42.4394689" lon="-3.7878198"><ele>899.6666666666667</ele><time>2026-05-02T17:34:10.917Z</time></trkpt><trkpt lat="42.4394973" lon="-3.7879121"><ele>900.0</ele><time>2026-05-02T17:34:11.914Z</time></trkpt><trkpt lat="42.4395254" lon="-3.7879897"><ele>900.3333333333333</ele><time>2026-05-02T17:34:12.917Z</time></trkpt><trkpt lat="42.4395694" lon="-3.7881289"><ele>900.6666666666666</ele><time>2026-05-02T17:34:14.907Z</time></trkpt><trkpt lat="42.4396111" lon="-3.7882029"><ele>901.0</ele><time>2026-05-02T17:34:16.908Z</time></trkpt><trkpt lat="42.4381367" lon="-3.7839975"><ele>926.0</ele><time>2026-05-02T17:43:42.927Z</time></trkpt><trkpt lat="42.4368692" lon="-3.7818271"><ele>950.0</ele><time>2026-05-02T17:43:59.934Z</time></trkpt><trkpt lat="42.4361553" lon="-3.7782037"><ele>964.0</ele><time>2026-05-02T17:44:25.923Z</time></trkpt><trkpt lat="42.4351214" lon="-3.7748162"><ele>970.0</ele><time>2026-05-02T17:44:57.926Z</time></trkpt><trkpt lat="42.4344581" lon="-3.7712678"><ele>970.0</ele><time>2026-05-02T17:45:21.926Z</time></trkpt></trkseg><trkseg><trkpt lat="42.4320415" lon="-3.7607008"><ele>967.0</ele><time>2026-05-02T17:46:34.579Z</time></trkpt><trkpt lat="42.4318956" lon="-3.7606911"><ele>967.0</ele><time>2026-05-02T17:46:35.586Z</time></trkpt><trkpt lat="42.4317642" lon="-3.7606624"><ele>967.0</ele><time>2026-05-02T17:46:36.581Z</time></trkpt><trkpt lat="42.4316348" lon="-3.7606278"><ele>967.0</ele><time>2026-05-02T17:46:37.592Z</time></trkpt><trkpt lat="42.4315059" lon="-3.7605935"><ele>967.0</ele><time>2026-05-02T17:46:38.59Z</time></trkpt><trkpt lat="42.4313763" lon="-3.7605618"><ele>967.0</ele><time>2026-05-02T17:46:39.574Z</time></trkpt><trkpt lat="42.4312461" lon="-3.7605356"><ele>967.0</ele><time>2026-05-02T17:46:40.574Z</time></trkpt><trkpt lat="42.4311162" lon="-3.7605103"><ele>967.0</ele><time>2026-05-02T17:46:41.572Z</time></trkpt><trkpt lat="42.4309849" lon="-3.7604875"><ele>967.3333333333333</ele><time>2026-05-02T17:46:42.574Z</time></trkpt><trkpt lat="42.4308496" lon="-3.7604672"><ele>967.6666666666667</ele><time>2026-05-02T17:46:43.574Z</time></trkpt><trkpt lat="42.4306073" lon="-3.7604286"><ele>968.0</ele><time>2026-05-02T17:46:45.372Z</time></trkpt><trkpt lat="42.4303563" lon="-3.7603892"><ele>970.6666666666667</ele><time>2026-05-02T17:46:47.168Z</time></trkpt><trkpt lat="42.4301108" lon="-3.7603359"><ele>973.3333333333333</ele><time>2026-05-02T17:46:48.965Z</time></trkpt><trkpt lat="42.4299885" lon="-3.7602868"><ele>976.0</ele><time>2026-05-02T17:46:49.919Z</time></trkpt><trkpt lat="42.4298696" lon="-3.7602217"><ele>975.75</ele><time>2026-05-02T17:46:50.921Z</time></trkpt><trkpt lat="42.4297546" lon="-3.7601328"><ele>975.5</ele><time>2026-05-02T17:46:51.953Z</time></trkpt><trkpt lat="42.4296442" lon="-3.7600385"><ele>975.25</ele><time>2026-05-02T17:46:52.929Z</time></trkpt><trkpt lat="42.4295335" lon="-3.7599509"><ele>975.0</ele><time>2026-05-02T17:46:53.918Z</time></trkpt><trkpt lat="42.4294227" lon="-3.7598657"><ele>975.75</ele><time>2026-05-02T17:46:54.924Z</time></trkpt><trkpt lat="42.429317" lon="-3.7597754"><ele>976.5</ele><time>2026-05-02T17:46:55.919Z</time></trkpt><trkpt lat="42.4292089" lon="-3.7596796"><ele>977.25</ele><time>2026-05-02T17:46:56.922Z</time></trkpt><trkpt lat="42.4291018" lon="-3.7595847"><ele>978.0</ele><time>2026-05-02T17:46:57.925Z</time></trkpt><trkpt lat="42.4289951" lon="-3.7594843"><ele>978.0</ele><time>2026-05-02T17:46:58.925Z</time></trkpt><trkpt lat="42.4288861" lon="-3.7593857"><ele>978.0</ele><time>2026-05-02T17:46:59.921Z</time></trkpt><trkpt lat="42.4287787" lon="-3.7592895"><ele>978.0</ele><time>2026-05-02T17:47:00.923Z</time></trkpt><trkpt lat="42.4286741" lon="-3.7591867"><ele>978.0</ele><time>2026-05-02T17:47:01.924Z</time></trkpt><trkpt lat="42.4285747" lon="-3.7590836"><ele>978.25</ele><time>2026-05-02T17:47:02.927Z</time></trkpt><trkpt lat="42.4284754" lon="-3.7589886"><ele>978.5</ele><time>2026-05-02T17:47:03.923Z</time></trkpt><trkpt lat="42.4283762" lon="-3.7588956"><ele>978.75</ele><time>2026-05-02T17:47:04.925Z</time></trkpt><trkpt lat="42.4282727" lon="-3.7588166"><ele>979.0</ele><time>2026-05-02T17:47:05.923Z</time></trkpt><trkpt lat="42.4281727" lon="-3.7587428"><ele>979.0</ele><time>2026-05-02T17:47:06.929Z</time></trkpt><trkpt lat="42.4280703" lon="-3.7586712"><ele>979.0</ele><time>2026-05-02T17:47:07.92Z</time></trkpt><trkpt lat="42.4279655" lon="-3.758605"><ele>979.0</ele><time>2026-05-02T17:47:08.924Z</time></trkpt><trkpt lat="42.4278621" lon="-3.7585421"><ele>979.0</ele><time>2026-05-02T17:47:09.921Z</time></trkpt><trkpt lat="42.4277561" lon="-3.7584769"><ele>977.75</ele><time>2026-05-02T17:47:10.921Z</time></trkpt><trkpt lat="42.4276451" lon="-3.7584114"><ele>976.5</ele><time>2026-05-02T17:47:11.924Z</time></trkpt><trkpt lat="42.4275338" lon="-3.7583405"><ele>975.25</ele><time>2026-05-02T17:47:12.923Z</time></trkpt><trkpt lat="42.4274188" lon="-3.7582649"><ele>974.0</ele><time>2026-05-02T17:47:13.926Z</time></trkpt><trkpt lat="42.4273006" lon="-3.758187"><ele>974.0</ele><time>2026-05-02T17:47:14.927Z</time></trkpt><trkpt lat="42.427182" lon="-3.7581071"><ele>974.0</ele><time>2026-05-02T17:47:15.922Z</time></trkpt><trkpt lat="42.4270571" lon="-3.7580263"><ele>974.0</ele><time>2026-05-02T17:47:16.928Z</time></trkpt><trkpt lat="42.4269308" lon="-3.7579433"><ele>974.0</ele><time>2026-05-02T17:47:17.926Z</time></trkpt><trkpt lat="42.4268063" lon="-3.757855"><ele>973.5</ele><time>2026-05-02T17:47:18.926Z</time></trkpt><trkpt lat="42.4266781" lon="-3.7577656"><ele>973.0</ele><time>2026-05-02T17:47:19.921Z</time></trkpt><trkpt lat="42.4265574" lon="-3.7576759"><ele>972.5</ele><time>2026-05-02T17:47:20.921Z</time></trkpt><trkpt lat="42.4264354" lon="-3.7575882"><ele>972.0</ele><time>2026-05-02T17:47:21.936Z</time></trkpt><trkpt lat="42.4263119" lon="-3.7575015"><ele>970.6</ele><time>2026-05-02T17:47:22.943Z</time></trkpt><trkpt lat="42.4261893" lon="-3.7574101"><ele>969.2</ele><time>2026-05-02T17:47:23.918Z</time></trkpt><trkpt lat="42.4260755" lon="-3.75734"><ele>967.8</ele><time>2026-05-02T17:47:24.915Z</time></trkpt><trkpt lat="42.4259955" lon="-3.757286"><ele>966.4</ele><time>2026-05-02T17:47:25.92Z</time></trkpt><trkpt lat="42.4259157" lon="-3.7572323"><ele>965.0</ele><time>2026-05-02T17:47:26.924Z</time></trkpt><trkpt lat="42.4258313" lon="-3.7571852"><ele>965.0</ele><time>2026-05-02T17:47:27.918Z</time></trkpt><trkpt lat="42.4257418" lon="-3.7571231"><ele>965.0</ele><time>2026-05-02T17:47:28.919Z</time></trkpt><trkpt lat="42.425649" lon="-3.7570605"><ele>965.0</ele><time>2026-05-02T17:47:29.922Z</time></trkpt><trkpt lat="42.4255569" lon="-3.7569953"><ele>965.0</ele><time>2026-05-02T17:47:30.924Z</time></trkpt><trkpt lat="42.4254538" lon="-3.7569317"><ele>965.0</ele><time>2026-05-02T17:47:31.92Z</time></trkpt><trkpt lat="42.4253477" lon="-3.7568681"><ele>961.25</ele><time>2026-05-02T17:47:32.922Z</time></trkpt><trkpt lat="42.4252389" lon="-3.7568076"><ele>957.5</ele><time>2026-05-02T17:47:33.917Z</time></trkpt><trkpt lat="42.425128" lon="-3.7567472"><ele>953.75</ele><time>2026-05-02T17:47:34.919Z</time></trkpt><trkpt lat="42.4250146" lon="-3.7566895"><ele>950.0</ele><time>2026-05-02T17:47:35.919Z</time></trkpt><trkpt lat="42.4248978" lon="-3.75663"><ele>950.0</ele><time>2026-05-02T17:47:36.921Z</time></trkpt><trkpt lat="42.4247769" lon="-3.7565677"><ele>950.0</ele><time>2026-05-02T17:47:37.921Z</time></trkpt><trkpt lat="42.4246564" lon="-3.7565063"><ele>950.0</ele><time>2026-05-02T17:47:38.922Z</time></trkpt><trkpt lat="42.4245379" lon="-3.7564529"><ele>950.0</ele><time>2026-05-02T17:47:39.918Z</time></trkpt><trkpt lat="42.4244139" lon="-3.756403"><ele>949.0</ele><time>2026-05-02T17:47:40.921Z</time></trkpt><trkpt lat="42.4242872" lon="-3.7563737"><ele>948.0</ele><time>2026-05-02T17:47:41.917Z</time></trkpt><trkpt lat="42.424156" lon="-3.7563581"><ele>947.0</ele><time>2026-05-02T17:47:42.92Z</time></trkpt><trkpt lat="42.4240202" lon="-3.7563504"><ele>946.0</ele><time>2026-05-02T17:47:43.922Z</time></trkpt><trkpt lat="42.4238876" lon="-3.7563301"><ele>945.25</ele><time>2026-05-02T17:47:44.917Z</time></trkpt><trkpt lat="42.4237543" lon="-3.756293"><ele>944.5</ele><time>2026-05-02T17:47:45.911Z</time></trkpt><trkpt lat="42.4236269" lon="-3.7562441"><ele>943.75</ele><time>2026-05-02T17:47:46.917Z</time></trkpt><trkpt lat="42.4235006" lon="-3.7561619"><ele>943.0</ele><time>2026-05-02T17:47:47.913Z</time></trkpt><trkpt lat="42.4233782" lon="-3.7560603"><ele>940.25</ele><time>2026-05-02T17:47:48.917Z</time></trkpt><trkpt lat="42.4232524" lon="-3.7559584"><ele>937.5</ele><time>2026-05-02T17:47:49.921Z</time></trkpt><trkpt lat="42.423129" lon="-3.7558565"><ele>934.75</ele><time>2026-05-02T17:47:50.921Z</time></trkpt><trkpt lat="42.4230036" lon="-3.75575"><ele>932.0</ele><time>2026-05-02T17:47:51.933Z</time></trkpt><trkpt lat="42.4228828" lon="-3.7556572"><ele>932.0</ele><time>2026-05-02T17:47:52.925Z</time></trkpt><trkpt lat="42.4227697" lon="-3.7555603"><ele>932.0</ele><time>2026-05-02T17:47:53.938Z</time></trkpt><trkpt lat="42.4226512" lon="-3.7554481"><ele>932.0</ele><time>2026-05-02T17:47:54.924Z</time></trkpt><trkpt lat="42.4225413" lon="-3.7553198"><ele>932.0</ele><time>2026-05-02T17:47:55.922Z</time></trkpt><trkpt lat="42.4224447" lon="-3.755193"><ele>931.75</ele><time>2026-05-02T17:47:56.92Z</time></trkpt><trkpt lat="42.4223473" lon="-3.755056"><ele>931.5</ele><time>2026-05-02T17:47:57.921Z</time></trkpt><trkpt lat="42.4222476" lon="-3.7549092"><ele>931.25</ele><time>2026-05-02T17:47:58.921Z</time></trkpt><trkpt lat="42.4221557" lon="-3.7547453"><ele>931.0</ele><time>2026-05-02T17:47:59.918Z</time></trkpt><trkpt lat="42.4220726" lon="-3.7545725"><ele>931.0</ele><time>2026-05-02T17:48:00.917Z</time></trkpt><trkpt lat="42.4219998" lon="-3.754391"><ele>931.0</ele><time>2026-05-02T17:48:01.917Z</time></trkpt><trkpt lat="42.4219367" lon="-3.7542123"><ele>931.0</ele><time>2026-05-02T17:48:02.919Z</time></trkpt><trkpt lat="42.4218736" lon="-3.7540349"><ele>931.0</ele><time>2026-05-02T17:48:03.919Z</time></trkpt><trkpt lat="42.421815" lon="-3.7538649"><ele>928.75</ele><time>2026-05-02T17:48:04.92Z</time></trkpt><trkpt lat="42.4217564" lon="-3.7536946"><ele>926.5</ele><time>2026-05-02T17:48:05.919Z</time></trkpt><trkpt lat="42.4216948" lon="-3.7535362"><ele>924.25</ele><time>2026-05-02T17:48:06.92Z</time></trkpt><trkpt lat="42.4216372" lon="-3.7533768"><ele>922.0</ele><time>2026-05-02T17:48:07.921Z</time></trkpt><trkpt lat="42.4215808" lon="-3.7532168"><ele>919.25</ele><time>2026-05-02T17:48:08.918Z</time></trkpt><trkpt lat="42.4215191" lon="-3.7530601"><ele>916.5</ele><time>2026-05-02T17:48:09.92Z</time></trkpt><trkpt lat="42.4214579" lon="-3.7529215"><ele>913.75</ele><time>2026-05-02T17:48:10.921Z</time></trkpt><trkpt lat="42.4213858" lon="-3.7527984"><ele>911.0</ele><time>2026-05-02T17:48:11.922Z</time></trkpt><trkpt lat="42.421305" lon="-3.7526864"><ele>909.5</ele><time>2026-05-02T17:48:12.923Z</time></trkpt><trkpt lat="42.4212071" lon="-3.7525886"><ele>908.0</ele><time>2026-05-02T17:48:13.926Z</time></trkpt><trkpt lat="42.4210939" lon="-3.7525202"><ele>906.5</ele><time>2026-05-02T17:48:14.924Z</time></trkpt><trkpt lat="42.4209691" lon="-3.7524843"><ele>905.0</ele><time>2026-05-02T17:48:15.923Z</time></trkpt><trkpt lat="42.4208347" lon="-3.7524621"><ele>905.0</ele><time>2026-05-02T17:48:16.923Z</time></trkpt><trkpt lat="42.4206933" lon="-3.752431"><ele>905.0</ele><time>2026-05-02T17:48:17.918Z</time></trkpt><trkpt lat="42.4205545" lon="-3.7523804"><ele>905.0</ele><time>2026-05-02T17:48:18.925Z</time></trkpt><trkpt lat="42.4204109" lon="-3.7523016"><ele>905.0</ele><time>2026-05-02T17:48:19.922Z</time></trkpt><trkpt lat="42.4202805" lon="-3.7522024"><ele>903.3333333333334</ele><time>2026-05-02T17:48:20.926Z</time></trkpt><trkpt lat="42.4201595" lon="-3.7521004"><ele>901.6666666666667</ele><time>2026-05-02T17:48:21.931Z</time></trkpt><trkpt lat="42.4200269" lon="-3.7519927"><ele>900.0</ele><time>2026-05-02T17:48:22.922Z</time></trkpt><trkpt lat="42.4198956" lon="-3.7518865"><ele>898.75</ele><time>2026-05-02T17:48:23.92Z</time></trkpt><trkpt lat="42.4197767" lon="-3.7517866"><ele>897.5</ele><time>2026-05-02T17:48:24.937Z</time></trkpt><trkpt lat="42.4196397" lon="-3.7516882"><ele>896.25</ele><time>2026-05-02T17:48:25.926Z</time></trkpt><trkpt lat="42.4195077" lon="-3.7516137"><ele>895.0</ele><time>2026-05-02T17:48:26.92Z</time></trkpt><trkpt lat="42.4193645" lon="-3.7515468"><ele>894.0</ele><time>2026-05-02T17:48:27.921Z</time></trkpt><trkpt lat="42.419216" lon="-3.7515154"><ele>893.0</ele><time>2026-05-02T17:48:28.92Z</time></trkpt><trkpt lat="42.4190684" lon="-3.7514798"><ele>892.0</ele><time>2026-05-02T17:48:29.919Z</time></trkpt><trkpt lat="42.4189157" lon="-3.751456"><ele>891.0</ele><time>2026-05-02T17:48:30.923Z</time></trkpt><trkpt lat="42.4187574" lon="-3.7514321"><ele>890.0</ele><time>2026-05-02T17:48:31.922Z</time></trkpt><trkpt lat="42.4185974" lon="-3.7514162"><ele>889.0</ele><time>2026-05-02T17:48:32.921Z</time></trkpt><trkpt lat="42.4184452" lon="-3.751389"><ele>889.0</ele><time>2026-05-02T17:48:33.923Z</time></trkpt><trkpt lat="42.4182841" lon="-3.7513603"><ele>889.0</ele><time>2026-05-02T17:48:34.922Z</time></trkpt><trkpt lat="42.4181244" lon="-3.75133"><ele>889.0</ele><time>2026-05-02T17:48:35.921Z</time></trkpt><trkpt lat="42.4179605" lon="-3.7512985"><ele>887.6666666666666</ele><time>2026-05-02T17:48:36.924Z</time></trkpt><trkpt lat="42.4177982" lon="-3.7512675"><ele>886.3333333333333</ele><time>2026-05-02T17:48:37.924Z</time></trkpt><trkpt lat="42.4176342" lon="-3.751238"><ele>885.0</ele><time>2026-05-02T17:48:38.922Z</time></trkpt><trkpt lat="42.4174732" lon="-3.7512084"><ele>885.0</ele><time>2026-05-02T17:48:39.923Z</time></trkpt><trkpt lat="42.4173194" lon="-3.7511832"><ele>885.0</ele><time>2026-05-02T17:48:40.923Z</time></trkpt><trkpt lat="42.4171596" lon="-3.7511508"><ele>885.0</ele><time>2026-05-02T17:48:41.921Z</time></trkpt><trkpt lat="42.4169989" lon="-3.7511225"><ele>884.3333333333333</ele><time>2026-05-02T17:48:42.925Z</time></trkpt><trkpt lat="42.4168313" lon="-3.7510923"><ele>883.6666666666666</ele><time>2026-05-02T17:48:43.925Z</time></trkpt><trkpt lat="42.4166662" lon="-3.7510664"><ele>883.0</ele><time>2026-05-02T17:48:44.923Z</time></trkpt><trkpt lat="42.4165017" lon="-3.7510341"><ele>883.0</ele><time>2026-05-02T17:48:45.926Z</time></trkpt><trkpt lat="42.4163421" lon="-3.7510083"><ele>883.0</ele><time>2026-05-02T17:48:46.924Z</time></trkpt><trkpt lat="42.4161742" lon="-3.7509776"><ele>883.0</ele><time>2026-05-02T17:48:47.924Z</time></trkpt><trkpt lat="42.4160103" lon="-3.7509518"><ele>881.0</ele><time>2026-05-02T17:48:48.925Z</time></trkpt><trkpt lat="42.4158466" lon="-3.750929"><ele>879.0</ele><time>2026-05-02T17:48:49.932Z</time></trkpt><trkpt lat="42.4156871" lon="-3.7509047"><ele>877.0</ele><time>2026-05-02T17:48:50.923Z</time></trkpt><trkpt lat="42.4155166" lon="-3.7508745"><ele>877.0</ele><time>2026-05-02T17:48:51.938Z</time></trkpt><trkpt lat="42.4153468" lon="-3.7508417"><ele>877.0</ele><time>2026-05-02T17:48:52.928Z</time></trkpt><trkpt lat="42.4151782" lon="-3.7508171"><ele>877.0</ele><time>2026-05-02T17:48:53.925Z</time></trkpt><trkpt lat="42.4150201" lon="-3.750799"><ele>877.0</ele><time>2026-05-02T17:48:54.925Z</time></trkpt><trkpt lat="42.4148643" lon="-3.7507786"><ele>877.0</ele><time>2026-05-02T17:48:55.942Z</time></trkpt><trkpt lat="42.4147142" lon="-3.7507635"><ele>877.0</ele><time>2026-05-02T17:48:56.925Z</time></trkpt><trkpt lat="42.4145634" lon="-3.7507375"><ele>876.75</ele><time>2026-05-02T17:48:57.928Z</time></trkpt><trkpt lat="42.4144144" lon="-3.7507122"><ele>876.5</ele><time>2026-05-02T17:48:58.922Z</time></trkpt><trkpt lat="42.4142718" lon="-3.7506702"><ele>876.25</ele><time>2026-05-02T17:48:59.922Z</time></trkpt><trkpt lat="42.4141327" lon="-3.7505977"><ele>876.0</ele><time>2026-05-02T17:49:00.923Z</time></trkpt><trkpt lat="42.4140018" lon="-3.7505027"><ele>876.0</ele><time>2026-05-02T17:49:01.921Z</time></trkpt><trkpt lat="42.4138881" lon="-3.7503834"><ele>876.0</ele><time>2026-05-02T17:49:02.918Z</time></trkpt><trkpt lat="42.4137691" lon="-3.7502595"><ele>876.0</ele><time>2026-05-02T17:49:03.918Z</time></trkpt><trkpt lat="42.413661" lon="-3.7501359"><ele>876.0</ele><time>2026-05-02T17:49:04.921Z</time></trkpt><trkpt lat="42.4135523" lon="-3.7500256"><ele>876.0</ele><time>2026-05-02T17:49:05.924Z</time></trkpt><trkpt lat="42.4134501" lon="-3.7499294"><ele>876.0</ele><time>2026-05-02T17:49:06.92Z</time></trkpt><trkpt lat="42.4133534" lon="-3.7498352"><ele>876.0</ele><time>2026-05-02T17:49:07.921Z</time></trkpt><trkpt lat="42.4132562" lon="-3.7497439"><ele>876.0</ele><time>2026-05-02T17:49:08.923Z</time></trkpt><trkpt lat="42.4131582" lon="-3.7496552"><ele>876.0</ele><time>2026-05-02T17:49:09.924Z</time></trkpt><trkpt lat="42.4130674" lon="-3.7495699"><ele>875.9999999999999</ele><time>2026-05-02T17:49:10.919Z</time></trkpt><trkpt lat="42.4129795" lon="-3.7494926"><ele>875.9999999999999</ele><time>2026-05-02T17:49:11.92Z</time></trkpt><trkpt lat="42.4128997" lon="-3.7494226"><ele>876.0</ele><time>2026-05-02T17:49:12.919Z</time></trkpt><trkpt lat="42.4128246" lon="-3.7493588"><ele>876.0</ele><time>2026-05-02T17:49:13.914Z</time></trkpt><trkpt lat="42.4127583" lon="-3.7493058"><ele>875.8</ele><time>2026-05-02T17:49:14.922Z</time></trkpt><trkpt lat="42.4126653" lon="-3.7492284"><ele>875.5999999999999</ele><time>2026-05-02T17:49:16.92Z</time></trkpt><trkpt lat="42.4125814" lon="-3.7491555"><ele>875.4</ele><time>2026-05-02T17:49:18.922Z</time></trkpt><trkpt lat="42.412505" lon="-3.7490905"><ele>875.2</ele><time>2026-05-02T17:49:20.918Z</time></trkpt><trkpt lat="42.4124264" lon="-3.7490211"><ele>875.0</ele><time>2026-05-02T17:49:22.92Z</time></trkpt><trkpt lat="42.4123571" lon="-3.7489571"><ele>875.0000000000001</ele><time>2026-05-02T17:49:24.912Z</time></trkpt><trkpt lat="42.4122773" lon="-3.7489139"><ele>875.0</ele><time>2026-05-02T17:49:26.928Z</time></trkpt><trkpt lat="42.4121711" lon="-3.7488621"><ele>875.0</ele><time>2026-05-02T17:49:28.911Z</time></trkpt><trkpt lat="42.4121132" lon="-3.7488265"><ele>875.0</ele><time>2026-05-02T17:49:29.908Z</time></trkpt><trkpt lat="42.412054" lon="-3.7487949"><ele>875.0000000000001</ele><time>2026-05-02T17:49:30.912Z</time></trkpt><trkpt lat="42.4119932" lon="-3.7487661"><ele>875.0</ele><time>2026-05-02T17:49:31.911Z</time></trkpt><trkpt lat="42.4118827" lon="-3.7486973"><ele>875.0</ele><time>2026-05-02T17:49:33.915Z</time></trkpt><trkpt lat="42.4117906" lon="-3.7486018"><ele>875.0</ele><time>2026-05-02T17:49:35.912Z</time></trkpt><trkpt lat="42.4117064" lon="-3.7484868"><ele>875.0</ele><time>2026-05-02T17:49:37.912Z</time></trkpt><trkpt lat="42.4116113" lon="-3.7483792"><ele>875.0</ele><time>2026-05-02T17:49:39.91Z</time></trkpt><trkpt lat="42.4115461" lon="-3.7483285"><ele>875.0</ele><time>2026-05-02T17:49:40.906Z</time></trkpt><trkpt lat="42.4114727" lon="-3.74829"><ele>874.8</ele><time>2026-05-02T17:49:41.909Z</time></trkpt><trkpt lat="42.4113916" lon="-3.7482537"><ele>874.6</ele><time>2026-05-02T17:49:42.915Z</time></trkpt><trkpt lat="42.4113032" lon="-3.7482191"><ele>874.4000000000001</ele><time>2026-05-02T17:49:43.915Z</time></trkpt><trkpt lat="42.411218" lon="-3.7481767"><ele>874.2</ele><time>2026-05-02T17:49:44.917Z</time></trkpt><trkpt lat="42.411126" lon="-3.7481398"><ele>874.0</ele><time>2026-05-02T17:49:45.92Z</time></trkpt><trkpt lat="42.4110388" lon="-3.7481008"><ele>873.6666666666666</ele><time>2026-05-02T17:49:46.916Z</time></trkpt><trkpt lat="42.4109568" lon="-3.7480686"><ele>873.3333333333333</ele><time>2026-05-02T17:49:47.916Z</time></trkpt><trkpt lat="42.4108876" lon="-3.7480438"><ele>873.0</ele><time>2026-05-02T17:49:48.915Z</time></trkpt><trkpt lat="42.4108221" lon="-3.7480119"><ele>872.6666666666667</ele><time>2026-05-02T17:49:49.907Z</time></trkpt><trkpt lat="42.4107537" lon="-3.7479783"><ele>872.3333333333334</ele><time>2026-05-02T17:49:50.913Z</time></trkpt><trkpt lat="42.410683" lon="-3.747935"><ele>872.0</ele><time>2026-05-02T17:49:51.933Z</time></trkpt><trkpt lat="42.4106054" lon="-3.7478782"><ele>872.0</ele><time>2026-05-02T17:49:52.918Z</time></trkpt><trkpt lat="42.4105239" lon="-3.7478157"><ele>872.0</ele><time>2026-05-02T17:49:53.917Z</time></trkpt><trkpt lat="42.4104401" lon="-3.7477462"><ele>872.0</ele><time>2026-05-02T17:49:54.915Z</time></trkpt><trkpt lat="42.4103524" lon="-3.7476728"><ele>872.0</ele><time>2026-05-02T17:49:55.916Z</time></trkpt><trkpt lat="42.4102669" lon="-3.7475941"><ele>872.0</ele><time>2026-05-02T17:49:56.914Z</time></trkpt><trkpt lat="42.4101852" lon="-3.7475177"><ele>872.0000000000001</ele><time>2026-05-02T17:49:57.932Z</time></trkpt><trkpt lat="42.4101045" lon="-3.7474474"><ele>872.0</ele><time>2026-05-02T17:49:58.919Z</time></trkpt><trkpt lat="42.410028" lon="-3.7473813"><ele>872.0</ele><time>2026-05-02T17:49:59.92Z</time></trkpt><trkpt lat="42.4099555" lon="-3.7473246"><ele>872.0</ele><time>2026-05-02T17:50:00.92Z</time></trkpt><trkpt lat="42.4098831" lon="-3.7472675"><ele>872.0000000000001</ele><time>2026-05-02T17:50:01.923Z</time></trkpt><trkpt lat="42.40982" lon="-3.74721"><ele>872.0</ele><time>2026-05-02T17:50:02.92Z</time></trkpt><trkpt lat="42.4097704" lon="-3.7471556"><ele>872.0</ele><time>2026-05-02T17:50:03.916Z</time></trkpt><trkpt lat="42.4097179" lon="-3.7471017"><ele>872.0</ele><time>2026-05-02T17:50:04.914Z</time></trkpt><trkpt lat="42.4096612" lon="-3.7470414"><ele>872.0</ele><time>2026-05-02T17:50:05.912Z</time></trkpt><trkpt lat="42.409601" lon="-3.7469824"><ele>872.0</ele><time>2026-05-02T17:50:06.911Z</time></trkpt><trkpt lat="42.4095385" lon="-3.7469164"><ele>872.0</ele><time>2026-05-02T17:50:07.912Z</time></trkpt><trkpt lat="42.4094749" lon="-3.746851"><ele>872.0</ele><time>2026-05-02T17:50:08.915Z</time></trkpt><trkpt lat="42.4094099" lon="-3.7467951"><ele>872.0</ele><time>2026-05-02T17:50:09.921Z</time></trkpt><trkpt lat="42.4093459" lon="-3.7467379"><ele>871.8333333333334</ele><time>2026-05-02T17:50:10.919Z</time></trkpt><trkpt lat="42.409289" lon="-3.7466773"><ele>871.6666666666667</ele><time>2026-05-02T17:50:11.92Z</time></trkpt><trkpt lat="42.4092307" lon="-3.7466198"><ele>871.5</ele><time>2026-05-02T17:50:12.923Z</time></trkpt><trkpt lat="42.409169" lon="-3.7465586"><ele>871.3333333333333</ele><time>2026-05-02T17:50:13.919Z</time></trkpt><trkpt lat="42.409109" lon="-3.7464947"><ele>871.1666666666666</ele><time>2026-05-02T17:50:14.92Z</time></trkpt><trkpt lat="42.4090442" lon="-3.7464366"><ele>871.0</ele><time>2026-05-02T17:50:15.92Z</time></trkpt><trkpt lat="42.408976" lon="-3.7463806"><ele>870.9999999999999</ele><time>2026-05-02T17:50:16.918Z</time></trkpt><trkpt lat="42.4089031" lon="-3.7463219"><ele>871.0</ele><time>2026-05-02T17:50:17.92Z</time></trkpt><trkpt lat="42.4088315" lon="-3.7462601"><ele>871.0</ele><time>2026-05-02T17:50:18.921Z</time></trkpt><trkpt lat="42.408759" lon="-3.7461972"><ele>871.0</ele><time>2026-05-02T17:50:19.923Z</time></trkpt><trkpt lat="42.408695" lon="-3.7461352"><ele>870.9999999999999</ele><time>2026-05-02T17:50:20.922Z</time></trkpt><trkpt lat="42.4086372" lon="-3.7460713"><ele>871.0</ele><time>2026-05-02T17:50:21.927Z</time></trkpt><trkpt lat="42.4085513" lon="-3.7459888"><ele>870.8333333333333</ele><time>2026-05-02T17:50:23.922Z</time></trkpt><trkpt lat="42.4084903" lon="-3.745955"><ele>870.6666666666666</ele><time>2026-05-02T17:50:26.916Z</time></trkpt><trkpt lat="42.4084174" lon="-3.7459007"><ele>870.5</ele><time>2026-05-02T17:51:01.914Z</time></trkpt><trkpt lat="42.4083544" lon="-3.7458594"><ele>870.3333333333333</ele><time>2026-05-02T17:51:02.919Z</time></trkpt><trkpt lat="42.4082844" lon="-3.7458115"><ele>870.1666666666666</ele><time>2026-05-02T17:51:03.913Z</time></trkpt><trkpt lat="42.4082032" lon="-3.7457608"><ele>870.0</ele><time>2026-05-02T17:51:04.914Z</time></trkpt><trkpt lat="42.4081075" lon="-3.7457083"><ele>870.0</ele><time>2026-05-02T17:51:05.915Z</time></trkpt><trkpt lat="42.408009" lon="-3.7456564"><ele>870.0</ele><time>2026-05-02T17:51:06.914Z</time></trkpt><trkpt lat="42.4079038" lon="-3.7455926"><ele>870.0</ele><time>2026-05-02T17:51:07.913Z</time></trkpt><trkpt lat="42.4077956" lon="-3.7455156"><ele>870.0</ele><time>2026-05-02T17:51:08.915Z</time></trkpt><trkpt lat="42.4076789" lon="-3.7454334"><ele>869.6666666666667</ele><time>2026-05-02T17:51:09.912Z</time></trkpt><trkpt lat="42.4075556" lon="-3.7453383"><ele>869.3333333333334</ele><time>2026-05-02T17:51:10.925Z</time></trkpt><trkpt lat="42.4074227" lon="-3.74524"><ele>869.0</ele><time>2026-05-02T17:51:11.919Z</time></trkpt><trkpt lat="42.4072707" lon="-3.7451232"><ele>867.3333333333334</ele><time>2026-05-02T17:51:12.919Z</time></trkpt><trkpt lat="42.4071085" lon="-3.7449959"><ele>865.6666666666667</ele><time>2026-05-02T17:51:13.921Z</time></trkpt><trkpt lat="42.4069418" lon="-3.744872"><ele>864.0</ele><time>2026-05-02T17:51:14.925Z</time></trkpt><trkpt lat="42.4067718" lon="-3.7447424"><ele>864.0</ele><time>2026-05-02T17:51:15.924Z</time></trkpt><trkpt lat="42.4065985" lon="-3.7446204"><ele>864.0</ele><time>2026-05-02T17:51:16.928Z</time></trkpt><trkpt lat="42.4064269" lon="-3.7444962"><ele>864.0</ele><time>2026-05-02T17:51:17.926Z</time></trkpt><trkpt lat="42.4062524" lon="-3.744365"><ele>864.3333333333333</ele><time>2026-05-02T17:51:18.928Z</time></trkpt><trkpt lat="42.4060799" lon="-3.7442321"><ele>864.6666666666666</ele><time>2026-05-02T17:51:19.927Z</time></trkpt><trkpt lat="42.4059067" lon="-3.7441056"><ele>865.0</ele><time>2026-05-02T17:51:20.926Z</time></trkpt><trkpt lat="42.4057261" lon="-3.7439781"><ele>865.0</ele><time>2026-05-02T17:51:21.935Z</time></trkpt><trkpt lat="42.4055444" lon="-3.7438452"><ele>865.0</ele><time>2026-05-02T17:51:22.93Z</time></trkpt><trkpt lat="42.4053644" lon="-3.7437142"><ele>865.0</ele><time>2026-05-02T17:51:23.923Z</time></trkpt><trkpt lat="42.4051863" lon="-3.743586"><ele>864.6666666666666</ele><time>2026-05-02T17:51:24.924Z</time></trkpt><trkpt lat="42.405002" lon="-3.7434496"><ele>864.3333333333333</ele><time>2026-05-02T17:51:25.923Z</time></trkpt><trkpt lat="42.4048176" lon="-3.7433172"><ele>864.0</ele><time>2026-05-02T17:51:26.926Z</time></trkpt><trkpt lat="42.4046264" lon="-3.7431847"><ele>864.0</ele><time>2026-05-02T17:51:27.924Z</time></trkpt><trkpt lat="42.4044382" lon="-3.7430602"><ele>864.0</ele><time>2026-05-02T17:51:28.925Z</time></trkpt><trkpt lat="42.404246" lon="-3.7429275"><ele>864.0</ele><time>2026-05-02T17:51:29.924Z</time></trkpt><trkpt lat="42.4040641" lon="-3.7427867"><ele>864.0</ele><time>2026-05-02T17:51:30.939Z</time></trkpt><trkpt lat="42.4038746" lon="-3.7426539"><ele>864.0</ele><time>2026-05-02T17:51:31.922Z</time></trkpt><trkpt lat="42.4036873" lon="-3.7425176"><ele>864.0</ele><time>2026-05-02T17:51:32.926Z</time></trkpt><trkpt lat="42.4035041" lon="-3.7423756"><ele>864.0</ele><time>2026-05-02T17:51:33.924Z</time></trkpt><trkpt lat="42.4033202" lon="-3.7422399"><ele>864.0</ele><time>2026-05-02T17:51:34.923Z</time></trkpt><trkpt lat="42.4031408" lon="-3.7421056"><ele>864.0</ele><time>2026-05-02T17:51:35.926Z</time></trkpt><trkpt lat="42.4029563" lon="-3.7419732"><ele>864.0</ele><time>2026-05-02T17:51:36.926Z</time></trkpt><trkpt lat="42.4027704" lon="-3.7418384"><ele>864.0</ele><time>2026-05-02T17:51:37.926Z</time></trkpt><trkpt lat="42.4025867" lon="-3.7417107"><ele>864.0</ele><time>2026-05-02T17:51:38.924Z</time></trkpt><trkpt lat="42.402404" lon="-3.7415742"><ele>864.0</ele><time>2026-05-02T17:51:39.925Z</time></trkpt><trkpt lat="42.4022165" lon="-3.7414353"><ele>864.0</ele><time>2026-05-02T17:51:40.925Z</time></trkpt><trkpt lat="42.4020278" lon="-3.7412954"><ele>864.0</ele><time>2026-05-02T17:51:41.923Z</time></trkpt><trkpt lat="42.4018401" lon="-3.7411671"><ele>864.0</ele><time>2026-05-02T17:51:42.924Z</time></trkpt><trkpt lat="42.4016478" lon="-3.7410384"><ele>864.0</ele><time>2026-05-02T17:51:43.926Z</time></trkpt><trkpt lat="42.4014627" lon="-3.7409076"><ele>864.0</ele><time>2026-05-02T17:51:44.921Z</time></trkpt><trkpt lat="42.4012894" lon="-3.7407884"><ele>864.0</ele><time>2026-05-02T17:51:45.929Z</time></trkpt><trkpt lat="42.4011165" lon="-3.7406754"><ele>864.0</ele><time>2026-05-02T17:51:46.927Z</time></trkpt><trkpt lat="42.4009471" lon="-3.7405627"><ele>864.0</ele><time>2026-05-02T17:51:47.926Z</time></trkpt><trkpt lat="42.4007786" lon="-3.7404404"><ele>864.0</ele><time>2026-05-02T17:51:48.926Z</time></trkpt><trkpt lat="42.4006036" lon="-3.7403197"><ele>864.0</ele><time>2026-05-02T17:51:49.927Z</time></trkpt><trkpt lat="42.4004296" lon="-3.7402089"><ele>864.0</ele><time>2026-05-02T17:51:50.926Z</time></trkpt><trkpt lat="42.4002577" lon="-3.7400933"><ele>864.6666666666667</ele><time>2026-05-02T17:51:51.94Z</time></trkpt><trkpt lat="42.4000816" lon="-3.7399725"><ele>865.3333333333334</ele><time>2026-05-02T17:51:52.929Z</time></trkpt><trkpt lat="42.3999027" lon="-3.7398449"><ele>866.0</ele><time>2026-05-02T17:51:53.921Z</time></trkpt><trkpt lat="42.3997253" lon="-3.7397258"><ele>866.0</ele><time>2026-05-02T17:51:54.923Z</time></trkpt><trkpt lat="42.3995446" lon="-3.739593"><ele>866.0</ele><time>2026-05-02T17:51:55.923Z</time></trkpt><trkpt lat="42.3993672" lon="-3.7394764"><ele>866.0</ele><time>2026-05-02T17:51:56.933Z</time></trkpt><trkpt lat="42.3991915" lon="-3.7393492"><ele>865.3333333333334</ele><time>2026-05-02T17:51:57.923Z</time></trkpt><trkpt lat="42.3990116" lon="-3.7392253"><ele>864.6666666666667</ele><time>2026-05-02T17:51:58.923Z</time></trkpt><trkpt lat="42.3988409" lon="-3.7390937"><ele>864.0</ele><time>2026-05-02T17:51:59.925Z</time></trkpt><trkpt lat="42.3986754" lon="-3.7389592"><ele>864.0</ele><time>2026-05-02T17:52:00.925Z</time></trkpt><trkpt lat="42.398516" lon="-3.7388275"><ele>864.0</ele><time>2026-05-02T17:52:01.941Z</time></trkpt><trkpt lat="42.3983687" lon="-3.738697"><ele>864.0</ele><time>2026-05-02T17:52:02.922Z</time></trkpt><trkpt lat="42.3982233" lon="-3.73857"><ele>863.3333333333333</ele><time>2026-05-02T17:52:03.922Z</time></trkpt><trkpt lat="42.3980847" lon="-3.738454"><ele>862.6666666666666</ele><time>2026-05-02T17:52:04.921Z</time></trkpt><trkpt lat="42.3979549" lon="-3.7383468"><ele>862.0</ele><time>2026-05-02T17:52:05.924Z</time></trkpt><trkpt lat="42.397833" lon="-3.7382356"><ele>862.0</ele><time>2026-05-02T17:52:06.923Z</time></trkpt><trkpt lat="42.397713" lon="-3.7381275"><ele>862.0</ele><time>2026-05-02T17:52:07.925Z</time></trkpt><trkpt lat="42.3975812" lon="-3.7380246"><ele>862.0</ele><time>2026-05-02T17:52:08.92Z</time></trkpt><trkpt lat="42.3974364" lon="-3.7379324"><ele>862.0</ele><time>2026-05-02T17:52:09.92Z</time></trkpt><trkpt lat="42.3972765" lon="-3.737854"><ele>862.0</ele><time>2026-05-02T17:52:10.922Z</time></trkpt><trkpt lat="42.3971115" lon="-3.7377753"><ele>862.0</ele><time>2026-05-02T17:52:11.924Z</time></trkpt><trkpt lat="42.3969558" lon="-3.7377026"><ele>861.3333333333333</ele><time>2026-05-02T17:52:12.926Z</time></trkpt><trkpt lat="42.3968036" lon="-3.7376302"><ele>860.6666666666667</ele><time>2026-05-02T17:52:13.923Z</time></trkpt><trkpt lat="42.3966549" lon="-3.7375707"><ele>860.0</ele><time>2026-05-02T17:52:14.924Z</time></trkpt><trkpt lat="42.3965049" lon="-3.737521"><ele>860.0</ele><time>2026-05-02T17:52:15.922Z</time></trkpt><trkpt lat="42.3963462" lon="-3.7374756"><ele>860.0</ele><time>2026-05-02T17:52:16.925Z</time></trkpt><trkpt lat="42.3961778" lon="-3.7374436"><ele>860.0</ele><time>2026-05-02T17:52:17.925Z</time></trkpt><trkpt lat="42.3960019" lon="-3.7374395"><ele>859.0</ele><time>2026-05-02T17:52:18.921Z</time></trkpt><trkpt lat="42.395828" lon="-3.7374415"><ele>858.0</ele><time>2026-05-02T17:52:19.927Z</time></trkpt><trkpt lat="42.3956563" lon="-3.7374385"><ele>857.0</ele><time>2026-05-02T17:52:20.928Z</time></trkpt><trkpt lat="42.3954862" lon="-3.7374312"><ele>856.0</ele><time>2026-05-02T17:52:21.938Z</time></trkpt><trkpt lat="42.3953095" lon="-3.7374273"><ele>855.0</ele><time>2026-05-02T17:52:22.928Z</time></trkpt><trkpt lat="42.3951396" lon="-3.7374195"><ele>854.0</ele><time>2026-05-02T17:52:23.923Z</time></trkpt><trkpt lat="42.394975" lon="-3.7374083"><ele>854.0</ele><time>2026-05-02T17:52:24.925Z</time></trkpt><trkpt lat="42.3948156" lon="-3.7373967"><ele>854.0</ele><time>2026-05-02T17:52:25.924Z</time></trkpt><trkpt lat="42.394666" lon="-3.73739"><ele>854.0</ele><time>2026-05-02T17:52:26.928Z</time></trkpt><trkpt lat="42.394519" lon="-3.7373871"><ele>854.25</ele><time>2026-05-02T17:52:27.924Z</time></trkpt><trkpt lat="42.3943764" lon="-3.7373847"><ele>854.5</ele><time>2026-05-02T17:52:28.924Z</time></trkpt><trkpt lat="42.3942398" lon="-3.7373875"><ele>854.75</ele><time>2026-05-02T17:52:29.925Z</time></trkpt><trkpt lat="42.3941022" lon="-3.7373931"><ele>855.0</ele><time>2026-05-02T17:52:30.923Z</time></trkpt><trkpt lat="42.3939653" lon="-3.7373908"><ele>854.25</ele><time>2026-05-02T17:52:31.924Z</time></trkpt><trkpt lat="42.3938265" lon="-3.7373948"><ele>853.5</ele><time>2026-05-02T17:52:32.94Z</time></trkpt><trkpt lat="42.3936798" lon="-3.7374019"><ele>852.75</ele><time>2026-05-02T17:52:33.923Z</time></trkpt><trkpt lat="42.3935293" lon="-3.7374009"><ele>852.0</ele><time>2026-05-02T17:52:34.924Z</time></trkpt><trkpt lat="42.3933759" lon="-3.7373946"><ele>852.0</ele><time>2026-05-02T17:52:35.922Z</time></trkpt><trkpt lat="42.3932179" lon="-3.7373884"><ele>852.0</ele><time>2026-05-02T17:52:36.924Z</time></trkpt><trkpt lat="42.3930583" lon="-3.7373873"><ele>852.0</ele><time>2026-05-02T17:52:37.925Z</time></trkpt><trkpt lat="42.3928954" lon="-3.7373825"><ele>852.3333333333333</ele><time>2026-05-02T17:52:38.918Z</time></trkpt><trkpt lat="42.3927282" lon="-3.7373755"><ele>852.6666666666666</ele><time>2026-05-02T17:52:39.93Z</time></trkpt><trkpt lat="42.3925623" lon="-3.7373764"><ele>853.0</ele><time>2026-05-02T17:52:40.93Z</time></trkpt><trkpt lat="42.3923981" lon="-3.7373636"><ele>853.0</ele><time>2026-05-02T17:52:41.927Z</time></trkpt><trkpt lat="42.3922322" lon="-3.7373622"><ele>853.0</ele><time>2026-05-02T17:52:42.926Z</time></trkpt><trkpt lat="42.3920619" lon="-3.7373601"><ele>853.0</ele><time>2026-05-02T17:52:43.927Z</time></trkpt><trkpt lat="42.3918882" lon="-3.7373561"><ele>852.3333333333333</ele><time>2026-05-02T17:52:44.922Z</time></trkpt><trkpt lat="42.3917127" lon="-3.7373494"><ele>851.6666666666667</ele><time>2026-05-02T17:52:45.923Z</time></trkpt><trkpt lat="42.3915325" lon="-3.7373238"><ele>851.0</ele><time>2026-05-02T17:52:46.921Z</time></trkpt><trkpt lat="42.391355" lon="-3.7372968"><ele>851.6666666666667</ele><time>2026-05-02T17:52:47.921Z</time></trkpt><trkpt lat="42.3911739" lon="-3.7372653"><ele>852.3333333333333</ele><time>2026-05-02T17:52:48.925Z</time></trkpt><trkpt lat="42.3909948" lon="-3.7372276"><ele>853.0</ele><time>2026-05-02T17:52:49.925Z</time></trkpt><trkpt lat="42.3908155" lon="-3.7371914"><ele>853.0</ele><time>2026-05-02T17:52:50.924Z</time></trkpt><trkpt lat="42.3906411" lon="-3.7371545"><ele>853.0</ele><time>2026-05-02T17:52:51.939Z</time></trkpt><trkpt lat="42.390467" lon="-3.7371148"><ele>853.0</ele><time>2026-05-02T17:52:52.927Z</time></trkpt><trkpt lat="42.3902946" lon="-3.737072"><ele>852.6666666666666</ele><time>2026-05-02T17:52:53.922Z</time></trkpt><trkpt lat="42.3901198" lon="-3.7370346"><ele>852.3333333333333</ele><time>2026-05-02T17:52:54.921Z</time></trkpt><trkpt lat="42.3899443" lon="-3.7369933"><ele>852.0</ele><time>2026-05-02T17:52:55.923Z</time></trkpt><trkpt lat="42.3897683" lon="-3.7369514"><ele>851.0</ele><time>2026-05-02T17:52:56.927Z</time></trkpt><trkpt lat="42.3895862" lon="-3.7369001"><ele>850.0</ele><time>2026-05-02T17:52:57.924Z</time></trkpt><trkpt lat="42.3894043" lon="-3.7368459"><ele>849.0</ele><time>2026-05-02T17:52:58.923Z</time></trkpt><trkpt lat="42.3892192" lon="-3.7367829"><ele>849.0</ele><time>2026-05-02T17:52:59.923Z</time></trkpt><trkpt lat="42.3890411" lon="-3.7367274"><ele>849.0</ele><time>2026-05-02T17:53:00.925Z</time></trkpt><trkpt lat="42.3888604" lon="-3.7366751"><ele>849.0</ele><time>2026-05-02T17:53:01.921Z</time></trkpt><trkpt lat="42.3886818" lon="-3.7366248"><ele>849.0</ele><time>2026-05-02T17:53:02.925Z</time></trkpt><trkpt lat="42.3884998" lon="-3.7365776"><ele>849.0</ele><time>2026-05-02T17:53:03.939Z</time></trkpt><trkpt lat="42.3883256" lon="-3.7365283"><ele>849.0</ele><time>2026-05-02T17:53:04.922Z</time></trkpt><trkpt lat="42.3881488" lon="-3.7364704"><ele>849.0</ele><time>2026-05-02T17:53:05.922Z</time></trkpt><trkpt lat="42.3879754" lon="-3.7364126"><ele>849.0</ele><time>2026-05-02T17:53:06.925Z</time></trkpt><trkpt lat="42.3877985" lon="-3.7363604"><ele>849.0</ele><time>2026-05-02T17:53:07.921Z</time></trkpt><trkpt lat="42.3876246" lon="-3.7363067"><ele>849.0</ele><time>2026-05-02T17:53:08.921Z</time></trkpt><trkpt lat="42.3874466" lon="-3.7362582"><ele>849.0</ele><time>2026-05-02T17:53:09.923Z</time></trkpt><trkpt lat="42.3872724" lon="-3.736212"><ele>849.0</ele><time>2026-05-02T17:53:10.923Z</time></trkpt><trkpt lat="42.3871115" lon="-3.7361616"><ele>849.0</ele><time>2026-05-02T17:53:11.921Z</time></trkpt><trkpt lat="42.3869601" lon="-3.7361194"><ele>849.0</ele><time>2026-05-02T17:53:12.927Z</time></trkpt><trkpt lat="42.3868106" lon="-3.7360807"><ele>849.0</ele><time>2026-05-02T17:53:13.928Z</time></trkpt><trkpt lat="42.3866698" lon="-3.7360419"><ele>848.75</ele><time>2026-05-02T17:53:14.922Z</time></trkpt><trkpt lat="42.3865432" lon="-3.7359991"><ele>848.5</ele><time>2026-05-02T17:53:15.92Z</time></trkpt><trkpt lat="42.3864258" lon="-3.7359673"><ele>848.25</ele><time>2026-05-02T17:53:16.919Z</time></trkpt><trkpt lat="42.3863175" lon="-3.7359334"><ele>848.0</ele><time>2026-05-02T17:53:17.922Z</time></trkpt><trkpt lat="42.3862259" lon="-3.7358988"><ele>848.0</ele><time>2026-05-02T17:53:18.926Z</time></trkpt><trkpt lat="42.386161" lon="-3.7358535"><ele>848.0</ele><time>2026-05-02T17:53:19.925Z</time></trkpt><trkpt lat="42.3860679" lon="-3.7357625"><ele>848.0</ele><time>2026-05-02T17:53:21.938Z</time></trkpt><trkpt lat="42.386007" lon="-3.7356814"><ele>848.0</ele><time>2026-05-02T17:53:22.92Z</time></trkpt><trkpt lat="42.3859427" lon="-3.7355965"><ele>848.0</ele><time>2026-05-02T17:53:23.918Z</time></trkpt><trkpt lat="42.3858795" lon="-3.7355037"><ele>848.0</ele><time>2026-05-02T17:53:24.917Z</time></trkpt><trkpt lat="42.3858064" lon="-3.7354094"><ele>848.0</ele><time>2026-05-02T17:53:25.916Z</time></trkpt><trkpt lat="42.3857254" lon="-3.7353137"><ele>848.0</ele><time>2026-05-02T17:53:26.912Z</time></trkpt><trkpt lat="42.3856452" lon="-3.7352263"><ele>848.0</ele><time>2026-05-02T17:53:27.917Z</time></trkpt><trkpt lat="42.3855688" lon="-3.7351472"><ele>848.0</ele><time>2026-05-02T17:53:28.915Z</time></trkpt><trkpt lat="42.3855026" lon="-3.7350828"><ele>847.8333333333334</ele><time>2026-05-02T17:53:29.917Z</time></trkpt><trkpt lat="42.3854393" lon="-3.7350288"><ele>847.6666666666667</ele><time>2026-05-02T17:53:30.921Z</time></trkpt><trkpt lat="42.3853736" lon="-3.7349737"><ele>847.5</ele><time>2026-05-02T17:53:31.918Z</time></trkpt><trkpt lat="42.3853064" lon="-3.7349232"><ele>847.3333333333333</ele><time>2026-05-02T17:53:32.915Z</time></trkpt><trkpt lat="42.3852344" lon="-3.7348787"><ele>847.1666666666666</ele><time>2026-05-02T17:53:33.915Z</time></trkpt><trkpt lat="42.3851534" lon="-3.7348413"><ele>847.0</ele><time>2026-05-02T17:53:34.932Z</time></trkpt><trkpt lat="42.3850778" lon="-3.7348015"><ele>846.9999999999999</ele><time>2026-05-02T17:53:35.912Z</time></trkpt><trkpt lat="42.3850045" lon="-3.7347602"><ele>847.0</ele><time>2026-05-02T17:53:36.915Z</time></trkpt><trkpt lat="42.3849296" lon="-3.7347108"><ele>847.0</ele><time>2026-05-02T17:53:37.915Z</time></trkpt><trkpt lat="42.3848603" lon="-3.7346537"><ele>847.0</ele><time>2026-05-02T17:53:38.918Z</time></trkpt><trkpt lat="42.3848" lon="-3.7345874"><ele>846.9999999999999</ele><time>2026-05-02T17:53:39.917Z</time></trkpt><trkpt lat="42.3847384" lon="-3.7345079"><ele>847.0</ele><time>2026-05-02T17:53:40.919Z</time></trkpt><trkpt lat="42.3846787" lon="-3.7344259"><ele>846.6</ele><time>2026-05-02T17:53:41.917Z</time></trkpt><trkpt lat="42.3846186" lon="-3.7343333"><ele>846.2</ele><time>2026-05-02T17:53:42.914Z</time></trkpt><trkpt lat="42.3845525" lon="-3.734225"><ele>845.8</ele><time>2026-05-02T17:53:43.915Z</time></trkpt><trkpt lat="42.3844862" lon="-3.734104"><ele>845.4</ele><time>2026-05-02T17:53:44.916Z</time></trkpt><trkpt lat="42.3844201" lon="-3.7339847"><ele>845.0</ele><time>2026-05-02T17:53:45.916Z</time></trkpt><trkpt lat="42.3843565" lon="-3.7338694"><ele>845.0</ele><time>2026-05-02T17:53:46.915Z</time></trkpt><trkpt lat="42.3842821" lon="-3.7337433"><ele>845.0</ele><time>2026-05-02T17:53:47.917Z</time></trkpt><trkpt lat="42.3841987" lon="-3.733596"><ele>845.0</ele><time>2026-05-02T17:53:48.91Z</time></trkpt><trkpt lat="42.3840985" lon="-3.7334327"><ele>845.0</ele><time>2026-05-02T17:53:49.914Z</time></trkpt><trkpt lat="42.3839805" lon="-3.7332542"><ele>844.0</ele><time>2026-05-02T17:53:50.913Z</time></trkpt><trkpt lat="42.3838476" lon="-3.7330666"><ele>843.0</ele><time>2026-05-02T17:53:51.931Z</time></trkpt><trkpt lat="42.3837262" lon="-3.7328936"><ele>842.0</ele><time>2026-05-02T17:53:52.919Z</time></trkpt><trkpt lat="42.3836085" lon="-3.7327288"><ele>841.3333333333334</ele><time>2026-05-02T17:53:53.919Z</time></trkpt><trkpt lat="42.3834949" lon="-3.7325593"><ele>840.6666666666667</ele><time>2026-05-02T17:53:54.924Z</time></trkpt><trkpt lat="42.3833878" lon="-3.7323968"><ele>840.0</ele><time>2026-05-02T17:53:55.925Z</time></trkpt><trkpt lat="42.3832826" lon="-3.7322237"><ele>840.0</ele><time>2026-05-02T17:53:56.927Z</time></trkpt><trkpt lat="42.3831749" lon="-3.7320569"><ele>840.0</ele><time>2026-05-02T17:53:57.922Z</time></trkpt><trkpt lat="42.3830689" lon="-3.731903"><ele>840.0</ele><time>2026-05-02T17:53:58.923Z</time></trkpt><trkpt lat="42.3829734" lon="-3.7317581"><ele>840.5</ele><time>2026-05-02T17:53:59.921Z</time></trkpt><trkpt lat="42.3828819" lon="-3.7316118"><ele>841.0</ele><time>2026-05-02T17:54:00.92Z</time></trkpt><trkpt lat="42.3827914" lon="-3.73147"><ele>841.5</ele><time>2026-05-02T17:54:01.917Z</time></trkpt><trkpt lat="42.3827014" lon="-3.7313233"><ele>842.0</ele><time>2026-05-02T17:54:02.917Z</time></trkpt><trkpt lat="42.3826038" lon="-3.7311673"><ele>841.3333333333334</ele><time>2026-05-02T17:54:03.917Z</time></trkpt><trkpt lat="42.3825056" lon="-3.7310047"><ele>840.6666666666667</ele><time>2026-05-02T17:54:04.92Z</time></trkpt><trkpt lat="42.3823997" lon="-3.7308409"><ele>840.0</ele><time>2026-05-02T17:54:05.935Z</time></trkpt><trkpt lat="42.3822893" lon="-3.7306795"><ele>838.3333333333333</ele><time>2026-05-02T17:54:06.924Z</time></trkpt><trkpt lat="42.3821669" lon="-3.7305261"><ele>836.6666666666666</ele><time>2026-05-02T17:54:07.921Z</time></trkpt><trkpt lat="42.382048" lon="-3.7303834"><ele>835.0</ele><time>2026-05-02T17:54:08.915Z</time></trkpt><trkpt lat="42.381932" lon="-3.7302521"><ele>835.5</ele><time>2026-05-02T17:54:09.914Z</time></trkpt><trkpt lat="42.3818194" lon="-3.7301361"><ele>836.0</ele><time>2026-05-02T17:54:10.913Z</time></trkpt><trkpt lat="42.3817057" lon="-3.7300257"><ele>836.5</ele><time>2026-05-02T17:54:11.914Z</time></trkpt><trkpt lat="42.3816014" lon="-3.7299239"><ele>837.0</ele><time>2026-05-02T17:54:12.91Z</time></trkpt><trkpt lat="42.3815099" lon="-3.7298182"><ele>837.0</ele><time>2026-05-02T17:54:13.916Z</time></trkpt><trkpt lat="42.3814265" lon="-3.7297146"><ele>837.0</ele><time>2026-05-02T17:54:14.919Z</time></trkpt><trkpt lat="42.3813443" lon="-3.7296354"><ele>837.0</ele><time>2026-05-02T17:54:15.918Z</time></trkpt><trkpt lat="42.3812648" lon="-3.7295787"><ele>837.0</ele><time>2026-05-02T17:54:16.922Z</time></trkpt><trkpt lat="42.3811855" lon="-3.7295303"><ele>837.0</ele><time>2026-05-02T17:54:17.916Z</time></trkpt><trkpt lat="42.3811157" lon="-3.7294731"><ele>837.1428571428571</ele><time>2026-05-02T17:54:18.912Z</time></trkpt><trkpt lat="42.381059" lon="-3.7294066"><ele>837.2857142857143</ele><time>2026-05-02T17:54:19.914Z</time></trkpt><trkpt lat="42.3810207" lon="-3.7293271"><ele>837.4285714285713</ele><time>2026-05-02T17:54:20.912Z</time></trkpt><trkpt lat="42.3809999" lon="-3.729243"><ele>837.5714285714286</ele><time>2026-05-02T17:54:21.923Z</time></trkpt><trkpt lat="42.3809938" lon="-3.7291525"><ele>837.7142857142857</ele><time>2026-05-02T17:54:22.922Z</time></trkpt><trkpt lat="42.3810123" lon="-3.7290594"><ele>837.8571428571428</ele><time>2026-05-02T17:54:23.922Z</time></trkpt><trkpt lat="42.3810622" lon="-3.7289633"><ele>838.0</ele><time>2026-05-02T17:54:24.92Z</time></trkpt><trkpt lat="42.3811322" lon="-3.7288656"><ele>838.0</ele><time>2026-05-02T17:54:25.913Z</time></trkpt><trkpt lat="42.3812091" lon="-3.7287592"><ele>838.0</ele><time>2026-05-02T17:54:26.915Z</time></trkpt><trkpt lat="42.3812829" lon="-3.7286342"><ele>838.0</ele><time>2026-05-02T17:54:27.911Z</time></trkpt><trkpt lat="42.3813494" lon="-3.7284861"><ele>838.0</ele><time>2026-05-02T17:54:28.913Z</time></trkpt><trkpt lat="42.3814006" lon="-3.7283139"><ele>838.5</ele><time>2026-05-02T17:54:29.918Z</time></trkpt><trkpt lat="42.3814373" lon="-3.728137"><ele>839.0</ele><time>2026-05-02T17:54:30.922Z</time></trkpt><trkpt lat="42.3814634" lon="-3.7279422"><ele>839.5</ele><time>2026-05-02T17:54:31.919Z</time></trkpt><trkpt lat="42.3814875" lon="-3.7277413"><ele>840.0</ele><time>2026-05-02T17:54:32.921Z</time></trkpt><trkpt lat="42.3815087" lon="-3.727527"><ele>841.3333333333333</ele><time>2026-05-02T17:54:33.923Z</time></trkpt><trkpt lat="42.3815369" lon="-3.7273131"><ele>842.6666666666666</ele><time>2026-05-02T17:54:34.92Z</time></trkpt><trkpt lat="42.381564" lon="-3.7270979"><ele>844.0</ele><time>2026-05-02T17:54:35.923Z</time></trkpt><trkpt lat="42.3815945" lon="-3.7268866"><ele>844.0</ele><time>2026-05-02T17:54:36.943Z</time></trkpt><trkpt lat="42.3816122" lon="-3.7266686"><ele>844.0</ele><time>2026-05-02T17:54:37.921Z</time></trkpt><trkpt lat="42.3816162" lon="-3.7264549"><ele>844.0</ele><time>2026-05-02T17:54:38.914Z</time></trkpt><trkpt lat="42.3815993" lon="-3.7262285"><ele>844.0</ele><time>2026-05-02T17:54:39.914Z</time></trkpt><trkpt lat="42.3815639" lon="-3.7259959"><ele>844.0</ele><time>2026-05-02T17:54:40.916Z</time></trkpt><trkpt lat="42.3815054" lon="-3.7257644"><ele>844.0</ele><time>2026-05-02T17:54:41.914Z</time></trkpt><trkpt lat="42.3814289" lon="-3.7255524"><ele>843.0</ele><time>2026-05-02T17:54:42.918Z</time></trkpt><trkpt lat="42.3813461" lon="-3.7253495"><ele>842.0</ele><time>2026-05-02T17:54:43.917Z</time></trkpt><trkpt lat="42.3812424" lon="-3.7251734"><ele>841.0</ele><time>2026-05-02T17:54:44.917Z</time></trkpt><trkpt lat="42.3811196" lon="-3.7250158"><ele>840.75</ele><time>2026-05-02T17:54:45.935Z</time></trkpt><trkpt lat="42.3809858" lon="-3.7248801"><ele>840.5</ele><time>2026-05-02T17:54:46.937Z</time></trkpt><trkpt lat="42.3808631" lon="-3.7247736"><ele>840.25</ele><time>2026-05-02T17:54:47.93Z</time></trkpt><trkpt lat="42.380754" lon="-3.7247002"><ele>840.0</ele><time>2026-05-02T17:54:48.93Z</time></trkpt><trkpt lat="42.3806467" lon="-3.7246459"><ele>840.0</ele><time>2026-05-02T17:54:49.936Z</time></trkpt><trkpt lat="42.3805406" lon="-3.7246066"><ele>840.0</ele><time>2026-05-02T17:54:50.934Z</time></trkpt><trkpt lat="42.3804435" lon="-3.7245805"><ele>840.0</ele><time>2026-05-02T17:54:51.942Z</time></trkpt><trkpt lat="42.3803521" lon="-3.7245792"><ele>840.0</ele><time>2026-05-02T17:54:52.935Z</time></trkpt><trkpt lat="42.380276" lon="-3.724627"><ele>840.0</ele><time>2026-05-02T17:54:53.934Z</time></trkpt><trkpt lat="42.3802133" lon="-3.724708"><ele>839.8</ele><time>2026-05-02T17:54:54.932Z</time></trkpt><trkpt lat="42.3801493" lon="-3.7248019"><ele>839.6</ele><time>2026-05-02T17:54:55.938Z</time></trkpt><trkpt lat="42.380085" lon="-3.72489"><ele>839.4000000000001</ele><time>2026-05-02T17:54:56.934Z</time></trkpt><trkpt lat="42.3800126" lon="-3.7249747"><ele>839.2</ele><time>2026-05-02T17:54:57.925Z</time></trkpt><trkpt lat="42.3799358" lon="-3.7250416"><ele>839.0</ele><time>2026-05-02T17:54:58.926Z</time></trkpt><trkpt lat="42.3798482" lon="-3.7250903"><ele>839.0</ele><time>2026-05-02T17:54:59.929Z</time></trkpt><trkpt lat="42.3797562" lon="-3.7251204"><ele>839.0</ele><time>2026-05-02T17:55:00.939Z</time></trkpt><trkpt lat="42.3796547" lon="-3.7251207"><ele>839.0</ele><time>2026-05-02T17:55:01.933Z</time></trkpt><trkpt lat="42.379552" lon="-3.7250991"><ele>839.0</ele><time>2026-05-02T17:55:02.928Z</time></trkpt><trkpt lat="42.3794604" lon="-3.7250626"><ele>839.0</ele><time>2026-05-02T17:55:03.937Z</time></trkpt><trkpt lat="42.3793792" lon="-3.7250055"><ele>840.0</ele><time>2026-05-02T17:55:04.938Z</time></trkpt><trkpt lat="42.3793049" lon="-3.7249206"><ele>841.0</ele><time>2026-05-02T17:55:05.936Z</time></trkpt><trkpt lat="42.3792357" lon="-3.7248205"><ele>842.0</ele><time>2026-05-02T17:55:06.937Z</time></trkpt><trkpt lat="42.3791822" lon="-3.7247114"><ele>843.0</ele><time>2026-05-02T17:55:07.945Z</time></trkpt><trkpt lat="42.3791353" lon="-3.7245897"><ele>844.0</ele><time>2026-05-02T17:55:08.929Z</time></trkpt><trkpt lat="42.3790987" lon="-3.7244604"><ele>843.6</ele><time>2026-05-02T17:55:09.934Z</time></trkpt><trkpt lat="42.3790697" lon="-3.7243342"><ele>843.2</ele><time>2026-05-02T17:55:10.938Z</time></trkpt><trkpt lat="42.3790386" lon="-3.7242116"><ele>842.8000000000001</ele><time>2026-05-02T17:55:11.929Z</time></trkpt><trkpt lat="42.3789934" lon="-3.7241062"><ele>842.4000000000001</ele><time>2026-05-02T17:55:12.926Z</time></trkpt><trkpt lat="42.3789333" lon="-3.7240178"><ele>842.0</ele><time>2026-05-02T17:55:13.926Z</time></trkpt><trkpt lat="42.3788567" lon="-3.7239629"><ele>842.8</ele><time>2026-05-02T17:55:14.929Z</time></trkpt><trkpt lat="42.3787685" lon="-3.7239464"><ele>843.6</ele><time>2026-05-02T17:55:15.929Z</time></trkpt><trkpt lat="42.3786843" lon="-3.7239455"><ele>844.4</ele><time>2026-05-02T17:55:16.924Z</time></trkpt><trkpt lat="42.378595" lon="-3.7239454"><ele>845.1999999999999</ele><time>2026-05-02T17:55:17.927Z</time></trkpt><trkpt lat="42.3785012" lon="-3.7239493"><ele>846.0</ele><time>2026-05-02T17:55:18.928Z</time></trkpt><trkpt lat="42.3784076" lon="-3.723957"><ele>846.0</ele><time>2026-05-02T17:55:19.927Z</time></trkpt><trkpt lat="42.3783067" lon="-3.7239767"><ele>846.0</ele><time>2026-05-02T17:55:20.931Z</time></trkpt><trkpt lat="42.3782049" lon="-3.7240081"><ele>846.0</ele><time>2026-05-02T17:55:21.966Z</time></trkpt><trkpt lat="42.378107" lon="-3.7240446"><ele>846.0</ele><time>2026-05-02T17:55:22.933Z</time></trkpt><trkpt lat="42.3780119" lon="-3.7240834"><ele>846.0</ele><time>2026-05-02T17:55:23.935Z</time></trkpt><trkpt lat="42.3779179" lon="-3.7241193"><ele>845.8</ele><time>2026-05-02T17:55:24.935Z</time></trkpt><trkpt lat="42.3778286" lon="-3.7241454"><ele>845.5999999999999</ele><time>2026-05-02T17:55:25.939Z</time></trkpt><trkpt lat="42.3777333" lon="-3.7241728"><ele>845.4</ele><time>2026-05-02T17:55:26.933Z</time></trkpt><trkpt lat="42.37763" lon="-3.7241943"><ele>845.2</ele><time>2026-05-02T17:55:27.935Z</time></trkpt><trkpt lat="42.3775145" lon="-3.7242079"><ele>845.0</ele><time>2026-05-02T17:55:28.929Z</time></trkpt><trkpt lat="42.3773912" lon="-3.724215"><ele>845.0</ele><time>2026-05-02T17:55:29.928Z</time></trkpt><trkpt lat="42.3772534" lon="-3.7242126"><ele>845.0</ele><time>2026-05-02T17:55:30.926Z</time></trkpt><trkpt lat="42.3771088" lon="-3.7242014"><ele>845.0</ele><time>2026-05-02T17:55:31.928Z</time></trkpt><trkpt lat="42.3769587" lon="-3.7241796"><ele>845.0</ele><time>2026-05-02T17:55:32.924Z</time></trkpt><trkpt lat="42.3768025" lon="-3.7241355"><ele>845.6666666666667</ele><time>2026-05-02T17:55:33.937Z</time></trkpt><trkpt lat="42.3766424" lon="-3.7240682"><ele>846.3333333333333</ele><time>2026-05-02T17:55:34.929Z</time></trkpt><trkpt lat="42.3764948" lon="-3.7239881"><ele>847.0</ele><time>2026-05-02T17:55:35.933Z</time></trkpt><trkpt lat="42.3763664" lon="-3.7239125"><ele>847.75</ele><time>2026-05-02T17:55:36.927Z</time></trkpt><trkpt lat="42.3762423" lon="-3.7238227"><ele>848.5</ele><time>2026-05-02T17:55:37.931Z</time></trkpt><trkpt lat="42.376135" lon="-3.7237392"><ele>849.25</ele><time>2026-05-02T17:55:38.962Z</time></trkpt><trkpt lat="42.3760318" lon="-3.7236447"><ele>850.0</ele><time>2026-05-02T17:55:39.93Z</time></trkpt><trkpt lat="42.3759329" lon="-3.7235509"><ele>850.0</ele><time>2026-05-02T17:55:40.935Z</time></trkpt><trkpt lat="42.3758471" lon="-3.7234497"><ele>850.0</ele><time>2026-05-02T17:55:41.934Z</time></trkpt><trkpt lat="42.3757563" lon="-3.7233458"><ele>850.0</ele><time>2026-05-02T17:55:42.937Z</time></trkpt><trkpt lat="42.3756626" lon="-3.7232431"><ele>850.0</ele><time>2026-05-02T17:55:43.938Z</time></trkpt><trkpt lat="42.3755646" lon="-3.7231527"><ele>849.2</ele><time>2026-05-02T17:55:44.935Z</time></trkpt><trkpt lat="42.3754633" lon="-3.7230808"><ele>848.4</ele><time>2026-05-02T17:55:45.937Z</time></trkpt><trkpt lat="42.3753603" lon="-3.7230364"><ele>847.5999999999999</ele><time>2026-05-02T17:55:46.936Z</time></trkpt><trkpt lat="42.3752612" lon="-3.7230055"><ele>846.8</ele><time>2026-05-02T17:55:47.936Z</time></trkpt><trkpt lat="42.3751734" lon="-3.722968"><ele>846.0</ele><time>2026-05-02T17:55:48.93Z</time></trkpt><trkpt lat="42.3750937" lon="-3.7229149"><ele>846.0</ele><time>2026-05-02T17:55:49.933Z</time></trkpt><trkpt lat="42.3750268" lon="-3.7228268"><ele>846.0</ele><time>2026-05-02T17:55:50.937Z</time></trkpt><trkpt lat="42.3749778" lon="-3.7227135"><ele>846.0</ele><time>2026-05-02T17:55:51.933Z</time></trkpt><trkpt lat="42.3749335" lon="-3.7225845"><ele>846.0</ele><time>2026-05-02T17:55:52.933Z</time></trkpt><trkpt lat="42.3748809" lon="-3.7224427"><ele>846.0</ele><time>2026-05-02T17:55:53.931Z</time></trkpt><trkpt lat="42.3748065" lon="-3.722317"><ele>846.0</ele><time>2026-05-02T17:55:54.934Z</time></trkpt><trkpt lat="42.3747101" lon="-3.7222069"><ele>846.0</ele><time>2026-05-02T17:55:55.924Z</time></trkpt><trkpt lat="42.3746025" lon="-3.7220978"><ele>846.0</ele><time>2026-05-02T17:55:56.918Z</time></trkpt><trkpt lat="42.3744963" lon="-3.7219872"><ele>846.0</ele><time>2026-05-02T17:55:57.93Z</time></trkpt><trkpt lat="42.3743846" lon="-3.7218627"><ele>847.3333333333333</ele><time>2026-05-02T17:55:58.935Z</time></trkpt><trkpt lat="42.3742707" lon="-3.721738"><ele>848.6666666666666</ele><time>2026-05-02T17:55:59.934Z</time></trkpt><trkpt lat="42.3741487" lon="-3.7216079"><ele>850.0</ele><time>2026-05-02T17:56:00.933Z</time></trkpt><trkpt lat="42.3740282" lon="-3.7214751"><ele>850.0</ele><time>2026-05-02T17:56:01.936Z</time></trkpt><trkpt lat="42.3739064" lon="-3.7213385"><ele>850.0</ele><time>2026-05-02T17:56:02.929Z</time></trkpt><trkpt lat="42.3737838" lon="-3.7212069"><ele>850.0</ele><time>2026-05-02T17:56:03.934Z</time></trkpt><trkpt lat="42.373658" lon="-3.7210663"><ele>852.3333333333333</ele><time>2026-05-02T17:56:04.936Z</time></trkpt><trkpt lat="42.373531" lon="-3.7209232"><ele>854.6666666666667</ele><time>2026-05-02T17:56:05.929Z</time></trkpt><trkpt lat="42.3734123" lon="-3.7207885"><ele>857.0</ele><time>2026-05-02T17:56:06.936Z</time></trkpt><trkpt lat="42.3732927" lon="-3.7206596"><ele>857.0</ele><time>2026-05-02T17:56:07.936Z</time></trkpt><trkpt lat="42.373178" lon="-3.7205395"><ele>857.0</ele><time>2026-05-02T17:56:08.95Z</time></trkpt><trkpt lat="42.373061" lon="-3.7204174"><ele>857.0</ele><time>2026-05-02T17:56:09.931Z</time></trkpt><trkpt lat="42.372948" lon="-3.7202942"><ele>857.0</ele><time>2026-05-02T17:56:10.932Z</time></trkpt><trkpt lat="42.3728303" lon="-3.7201818"><ele>856.75</ele><time>2026-05-02T17:56:11.935Z</time></trkpt><trkpt lat="42.3727276" lon="-3.7200569"><ele>856.5</ele><time>2026-05-02T17:56:12.936Z</time></trkpt><trkpt lat="42.3726258" lon="-3.7199417"><ele>856.25</ele><time>2026-05-02T17:56:13.941Z</time></trkpt><trkpt lat="42.3725213" lon="-3.7198143"><ele>856.0</ele><time>2026-05-02T17:56:14.934Z</time></trkpt><trkpt lat="42.3724207" lon="-3.7197115"><ele>856.0</ele><time>2026-05-02T17:56:15.937Z</time></trkpt><trkpt lat="42.3723226" lon="-3.7196055"><ele>856.0</ele><time>2026-05-02T17:56:16.934Z</time></trkpt><trkpt lat="42.3722325" lon="-3.7195139"><ele>856.0</ele><time>2026-05-02T17:56:17.936Z</time></trkpt><trkpt lat="42.372147" lon="-3.7194175"><ele>856.0</ele><time>2026-05-02T17:56:18.934Z</time></trkpt><trkpt lat="42.3720571" lon="-3.719326"><ele>856.8</ele><time>2026-05-02T17:56:19.931Z</time></trkpt><trkpt lat="42.3719821" lon="-3.7192513"><ele>857.5999999999999</ele><time>2026-05-02T17:56:20.929Z</time></trkpt><trkpt lat="42.371908" lon="-3.7191694"><ele>858.4</ele><time>2026-05-02T17:56:21.951Z</time></trkpt><trkpt lat="42.3718228" lon="-3.7190988"><ele>859.2</ele><time>2026-05-02T17:56:22.944Z</time></trkpt><trkpt lat="42.3717405" lon="-3.7190337"><ele>860.0</ele><time>2026-05-02T17:56:23.931Z</time></trkpt><trkpt lat="42.371658" lon="-3.7189568"><ele>860.0000000000001</ele><time>2026-05-02T17:56:24.937Z</time></trkpt><trkpt lat="42.3715747" lon="-3.7188916"><ele>860.0</ele><time>2026-05-02T17:56:25.936Z</time></trkpt><trkpt lat="42.3714965" lon="-3.7188234"><ele>860.0</ele><time>2026-05-02T17:56:26.932Z</time></trkpt><trkpt lat="42.3714355" lon="-3.7187573"><ele>860.0</ele><time>2026-05-02T17:56:27.944Z</time></trkpt><trkpt lat="42.3713674" lon="-3.7186883"><ele>860.0000000000001</ele><time>2026-05-02T17:56:28.942Z</time></trkpt><trkpt lat="42.3713042" lon="-3.7186256"><ele>860.0</ele><time>2026-05-02T17:56:29.944Z</time></trkpt><trkpt lat="42.3712388" lon="-3.718563"><ele>859.3333333333334</ele><time>2026-05-02T17:56:30.945Z</time></trkpt><trkpt lat="42.3711766" lon="-3.7185073"><ele>858.6666666666667</ele><time>2026-05-02T17:56:31.938Z</time></trkpt><trkpt lat="42.371115" lon="-3.7184503"><ele>858.0</ele><time>2026-05-02T17:56:32.94Z</time></trkpt><trkpt lat="42.3710454" lon="-3.7184141"><ele>857.3333333333333</ele><time>2026-05-02T17:56:33.942Z</time></trkpt><trkpt lat="42.3709631" lon="-3.7183964"><ele>856.6666666666666</ele><time>2026-05-02T17:56:34.945Z</time></trkpt><trkpt lat="42.370875" lon="-3.7183905"><ele>856.0</ele><time>2026-05-02T17:56:35.946Z</time></trkpt><trkpt lat="42.3707893" lon="-3.7183787"><ele>855.9999999999999</ele><time>2026-05-02T17:56:36.941Z</time></trkpt><trkpt lat="42.3707078" lon="-3.7183481"><ele>856.0</ele><time>2026-05-02T17:56:37.948Z</time></trkpt><trkpt lat="42.3706352" lon="-3.7182916"><ele>856.0</ele><time>2026-05-02T17:56:38.938Z</time></trkpt><trkpt lat="42.3705696" lon="-3.7182091"><ele>856.0</ele><time>2026-05-02T17:56:39.956Z</time></trkpt><trkpt lat="42.3705143" lon="-3.7181242"><ele>855.9999999999999</ele><time>2026-05-02T17:56:40.943Z</time></trkpt><trkpt lat="42.3704685" lon="-3.7180465"><ele>856.0</ele><time>2026-05-02T17:56:41.952Z</time></trkpt><trkpt lat="42.3704151" lon="-3.7179948"><ele>856.8333333333333</ele><time>2026-05-02T17:56:42.94Z</time></trkpt><trkpt lat="42.3703387" lon="-3.7179255"><ele>857.6666666666666</ele><time>2026-05-02T17:56:44.934Z</time></trkpt><trkpt lat="42.3704154" lon="-3.717902"><ele>858.5</ele><time>2026-05-02T18:00:22.943Z</time></trkpt><trkpt lat="42.3703704" lon="-3.7178078"><ele>859.3333333333333</ele><time>2026-05-02T18:01:25.935Z</time></trkpt><trkpt lat="42.3702923" lon="-3.7177644"><ele>860.1666666666666</ele><time>2026-05-02T18:01:29.934Z</time></trkpt><trkpt lat="42.3702293" lon="-3.7177311"><ele>861.0</ele><time>2026-05-02T18:01:33.945Z</time></trkpt><trkpt lat="42.370155" lon="-3.7176886"><ele>861.0</ele><time>2026-05-02T18:01:37.943Z</time></trkpt><trkpt lat="42.3700932" lon="-3.7176293"><ele>861.0</ele><time>2026-05-02T18:01:40.947Z</time></trkpt><trkpt lat="42.3700358" lon="-3.7175838"><ele>861.0</ele><time>2026-05-02T18:01:42.944Z</time></trkpt><trkpt lat="42.3699743" lon="-3.7175334"><ele>861.0</ele><time>2026-05-02T18:01:44.938Z</time></trkpt><trkpt lat="42.3699015" lon="-3.717473"><ele>861.0</ele><time>2026-05-02T18:01:46.951Z</time></trkpt><trkpt lat="42.3698039" lon="-3.7173995"><ele>861.0</ele><time>2026-05-02T18:01:48.958Z</time></trkpt><trkpt lat="42.3696962" lon="-3.7173319"><ele>861.1999999999999</ele><time>2026-05-02T18:01:50.935Z</time></trkpt><trkpt lat="42.369601" lon="-3.7172738"><ele>861.3999999999999</ele><time>2026-05-02T18:01:52.937Z</time></trkpt><trkpt lat="42.3695062" lon="-3.7172041"><ele>861.6</ele><time>2026-05-02T18:01:54.945Z</time></trkpt><trkpt lat="42.3694022" lon="-3.7171326"><ele>861.8</ele><time>2026-05-02T18:01:56.939Z</time></trkpt><trkpt lat="42.3693469" lon="-3.7170917"><ele>862.0</ele><time>2026-05-02T18:01:57.94Z</time></trkpt><trkpt lat="42.3692883" lon="-3.7170475"><ele>862.0</ele><time>2026-05-02T18:01:58.94Z</time></trkpt><trkpt lat="42.3692276" lon="-3.7170015"><ele>862.0</ele><time>2026-05-02T18:01:59.941Z</time></trkpt><trkpt lat="42.3691708" lon="-3.7169601"><ele>862.0</ele><time>2026-05-02T18:02:00.942Z</time></trkpt><trkpt lat="42.3691122" lon="-3.7169172"><ele>862.0</ele><time>2026-05-02T18:02:01.937Z</time></trkpt><trkpt lat="42.369053" lon="-3.7168741"><ele>862.0</ele><time>2026-05-02T18:02:02.953Z</time></trkpt><trkpt lat="42.3689953" lon="-3.7168324"><ele>862.0</ele><time>2026-05-02T18:02:03.946Z</time></trkpt><trkpt lat="42.3689369" lon="-3.7167872"><ele>862.0</ele><time>2026-05-02T18:02:04.948Z</time></trkpt><trkpt lat="42.3688752" lon="-3.7167386"><ele>862.1666666666666</ele><time>2026-05-02T18:02:05.94Z</time></trkpt><trkpt lat="42.3688142" lon="-3.7166904"><ele>862.3333333333333</ele><time>2026-05-02T18:02:06.939Z</time></trkpt><trkpt lat="42.3687446" lon="-3.7166395"><ele>862.5</ele><time>2026-05-02T18:02:07.941Z</time></trkpt><trkpt lat="42.3686747" lon="-3.7165863"><ele>862.6666666666667</ele><time>2026-05-02T18:02:08.937Z</time></trkpt><trkpt lat="42.3686065" lon="-3.7165312"><ele>862.8333333333334</ele><time>2026-05-02T18:02:09.934Z</time></trkpt><trkpt lat="42.3685377" lon="-3.7164729"><ele>863.0</ele><time>2026-05-02T18:02:10.93Z</time></trkpt><trkpt lat="42.3684681" lon="-3.7164126"><ele>863.0</ele><time>2026-05-02T18:02:11.928Z</time></trkpt><trkpt lat="42.3683857" lon="-3.7163497"><ele>863.0</ele><time>2026-05-02T18:02:12.925Z</time></trkpt><trkpt lat="42.3683033" lon="-3.7162817"><ele>863.0</ele><time>2026-05-02T18:02:13.928Z</time></trkpt><trkpt lat="42.3682247" lon="-3.7162249"><ele>863.0</ele><time>2026-05-02T18:02:14.927Z</time></trkpt><trkpt lat="42.3681479" lon="-3.7161641"><ele>863.0</ele><time>2026-05-02T18:02:15.931Z</time></trkpt><trkpt lat="42.3680727" lon="-3.7161018"><ele>862.5999999999999</ele><time>2026-05-02T18:02:16.936Z</time></trkpt><trkpt lat="42.3679931" lon="-3.7160361"><ele>862.1999999999999</ele><time>2026-05-02T18:02:17.947Z</time></trkpt><trkpt lat="42.3679161" lon="-3.7159684"><ele>861.8</ele><time>2026-05-02T18:02:18.936Z</time></trkpt><trkpt lat="42.3678318" lon="-3.7159024"><ele>861.4</ele><time>2026-05-02T18:02:19.957Z</time></trkpt><trkpt lat="42.3677488" lon="-3.7158238"><ele>861.0</ele><time>2026-05-02T18:02:20.949Z</time></trkpt><trkpt lat="42.3676671" lon="-3.7157492"><ele>861.0</ele><time>2026-05-02T18:02:21.944Z</time></trkpt><trkpt lat="42.3675843" lon="-3.7156751"><ele>860.9999999999999</ele><time>2026-05-02T18:02:22.948Z</time></trkpt><trkpt lat="42.3674999" lon="-3.7156037"><ele>860.9999999999999</ele><time>2026-05-02T18:02:23.94Z</time></trkpt><trkpt lat="42.3674124" lon="-3.7155207"><ele>861.0</ele><time>2026-05-02T18:02:24.937Z</time></trkpt><trkpt lat="42.3673285" lon="-3.7154382"><ele>861.0</ele><time>2026-05-02T18:02:25.934Z</time></trkpt><trkpt lat="42.3672468" lon="-3.7153564"><ele>861.5999999999999</ele><time>2026-05-02T18:02:26.937Z</time></trkpt><trkpt lat="42.3671626" lon="-3.7152728"><ele>862.1999999999999</ele><time>2026-05-02T18:02:27.933Z</time></trkpt><trkpt lat="42.3670774" lon="-3.7151984"><ele>862.8000000000001</ele><time>2026-05-02T18:02:28.933Z</time></trkpt><trkpt lat="42.3669923" lon="-3.715123"><ele>863.4000000000001</ele><time>2026-05-02T18:02:29.934Z</time></trkpt><trkpt lat="42.3669057" lon="-3.7150517"><ele>864.0</ele><time>2026-05-02T18:02:30.938Z</time></trkpt><trkpt lat="42.3668234" lon="-3.7149837"><ele>864.0</ele><time>2026-05-02T18:02:31.937Z</time></trkpt><trkpt lat="42.3667453" lon="-3.7149126"><ele>864.0</ele><time>2026-05-02T18:02:32.933Z</time></trkpt><trkpt lat="42.3666735" lon="-3.7148495"><ele>864.0</ele><time>2026-05-02T18:02:33.942Z</time></trkpt><trkpt lat="42.3666045" lon="-3.7147851"><ele>864.0</ele><time>2026-05-02T18:02:34.938Z</time></trkpt><trkpt lat="42.3665381" lon="-3.7147336"><ele>864.0</ele><time>2026-05-02T18:02:35.934Z</time></trkpt><trkpt lat="42.3664758" lon="-3.7146929"><ele>864.0</ele><time>2026-05-02T18:02:36.939Z</time></trkpt><trkpt lat="42.366408" lon="-3.7146628"><ele>865.0</ele><time>2026-05-02T18:02:37.931Z</time></trkpt><trkpt lat="42.3662906" lon="-3.7146469"><ele>866.0000000000001</ele><time>2026-05-02T18:02:39.936Z</time></trkpt><trkpt lat="42.366181" lon="-3.7146603"><ele>867.0000000000001</ele><time>2026-05-02T18:02:41.933Z</time></trkpt><trkpt lat="42.3660714" lon="-3.7146317"><ele>868.0</ele><time>2026-05-02T18:02:43.947Z</time></trkpt><trkpt lat="42.3659972" lon="-3.714538"><ele>869.0</ele><time>2026-05-02T18:02:45.951Z</time></trkpt><trkpt lat="42.3659444" lon="-3.7144071"><ele>868.8333333333334</ele><time>2026-05-02T18:02:47.949Z</time></trkpt><trkpt lat="42.3659125" lon="-3.7142703"><ele>868.6666666666667</ele><time>2026-05-02T18:02:49.953Z</time></trkpt><trkpt lat="42.3658878" lon="-3.7141815"><ele>868.5</ele><time>2026-05-02T18:02:51.967Z</time></trkpt><trkpt lat="42.3658566" lon="-3.7140794"><ele>868.3333333333333</ele><time>2026-05-02T18:03:03.934Z</time></trkpt><trkpt lat="42.3657954" lon="-3.7140125"><ele>868.1666666666666</ele><time>2026-05-02T18:03:05.933Z</time></trkpt><trkpt lat="42.3657003" lon="-3.7139428"><ele>868.0</ele><time>2026-05-02T18:03:07.936Z</time></trkpt><trkpt lat="42.3655847" lon="-3.713852"><ele>867.9999999999999</ele><time>2026-05-02T18:03:09.94Z</time></trkpt><trkpt lat="42.3655141" lon="-3.7137946"><ele>868.0</ele><time>2026-05-02T18:03:10.945Z</time></trkpt><trkpt lat="42.3654485" lon="-3.7137323"><ele>868.0</ele><time>2026-05-02T18:03:11.941Z</time></trkpt><trkpt lat="42.3653819" lon="-3.7136674"><ele>868.0</ele><time>2026-05-02T18:03:12.945Z</time></trkpt><trkpt lat="42.3653127" lon="-3.7135968"><ele>867.9999999999999</ele><time>2026-05-02T18:03:13.945Z</time></trkpt><trkpt lat="42.3652375" lon="-3.7135292"><ele>868.0</ele><time>2026-05-02T18:03:14.936Z</time></trkpt><trkpt lat="42.3651575" lon="-3.7134579"><ele>867.4</ele><time>2026-05-02T18:03:15.943Z</time></trkpt><trkpt lat="42.3650771" lon="-3.7133862"><ele>866.8</ele><time>2026-05-02T18:03:16.944Z</time></trkpt><trkpt lat="42.3649945" lon="-3.7133059"><ele>866.2</ele><time>2026-05-02T18:03:17.945Z</time></trkpt><trkpt lat="42.3649033" lon="-3.7132215"><ele>865.6</ele><time>2026-05-02T18:03:18.94Z</time></trkpt><trkpt lat="42.3648075" lon="-3.7131344"><ele>865.0</ele><time>2026-05-02T18:03:19.946Z</time></trkpt><trkpt lat="42.3647081" lon="-3.713042"><ele>866.5</ele><time>2026-05-02T18:03:20.943Z</time></trkpt><trkpt lat="42.3646045" lon="-3.7129453"><ele>868.0</ele><time>2026-05-02T18:03:21.961Z</time></trkpt><trkpt lat="42.3645014" lon="-3.712848"><ele>869.5</ele><time>2026-05-02T18:03:22.945Z</time></trkpt><trkpt lat="42.3643938" lon="-3.7127517"><ele>871.0</ele><time>2026-05-02T18:03:23.945Z</time></trkpt><trkpt lat="42.3642937" lon="-3.7126605"><ele>871.0</ele><time>2026-05-02T18:03:24.952Z</time></trkpt><trkpt lat="42.3641942" lon="-3.7125662"><ele>871.0</ele><time>2026-05-02T18:03:25.951Z</time></trkpt><trkpt lat="42.3640972" lon="-3.7124753"><ele>871.0</ele><time>2026-05-02T18:03:26.955Z</time></trkpt><trkpt lat="42.3640033" lon="-3.7123828"><ele>871.0</ele><time>2026-05-02T18:03:27.953Z</time></trkpt><trkpt lat="42.3639115" lon="-3.7122949"><ele>872.0</ele><time>2026-05-02T18:03:28.952Z</time></trkpt><trkpt lat="42.3638222" lon="-3.7122076"><ele>872.9999999999999</ele><time>2026-05-02T18:03:29.955Z</time></trkpt><trkpt lat="42.3637421" lon="-3.7121225"><ele>873.9999999999999</ele><time>2026-05-02T18:03:30.957Z</time></trkpt><trkpt lat="42.3636691" lon="-3.7120362"><ele>875.0</ele><time>2026-05-02T18:03:31.953Z</time></trkpt><trkpt lat="42.3636006" lon="-3.7119555"><ele>876.0</ele><time>2026-05-02T18:03:32.94Z</time></trkpt><trkpt lat="42.3635334" lon="-3.7118768"><ele>876.0</ele><time>2026-05-02T18:03:33.942Z</time></trkpt><trkpt lat="42.3634703" lon="-3.7117992"><ele>876.0</ele><time>2026-05-02T18:03:34.938Z</time></trkpt><trkpt lat="42.363403" lon="-3.7117237"><ele>876.0</ele><time>2026-05-02T18:03:35.933Z</time></trkpt><trkpt lat="42.3633268" lon="-3.7116598"><ele>876.0</ele><time>2026-05-02T18:03:36.936Z</time></trkpt><trkpt lat="42.3632426" lon="-3.7116197"><ele>876.0</ele><time>2026-05-02T18:03:37.942Z</time></trkpt><trkpt lat="42.3631606" lon="-3.71158"><ele>876.0</ele><time>2026-05-02T18:03:38.942Z</time></trkpt><trkpt lat="42.3630816" lon="-3.7115398"><ele>876.3333333333334</ele><time>2026-05-02T18:03:39.934Z</time></trkpt><trkpt lat="42.3630141" lon="-3.7114755"><ele>876.6666666666667</ele><time>2026-05-02T18:03:40.944Z</time></trkpt><trkpt lat="42.3629667" lon="-3.711388"><ele>877.0</ele><time>2026-05-02T18:03:41.941Z</time></trkpt><trkpt lat="42.3629415" lon="-3.7112799"><ele>877.3333333333334</ele><time>2026-05-02T18:03:42.944Z</time></trkpt><trkpt lat="42.3629351" lon="-3.7111573"><ele>877.6666666666667</ele><time>2026-05-02T18:03:43.945Z</time></trkpt><trkpt lat="42.3629333" lon="-3.7110301"><ele>878.0</ele><time>2026-05-02T18:03:44.945Z</time></trkpt><trkpt lat="42.3629183" lon="-3.7109045"><ele>878.0</ele><time>2026-05-02T18:03:45.95Z</time></trkpt><trkpt lat="42.3628758" lon="-3.7107854"><ele>878.0</ele><time>2026-05-02T18:03:46.947Z</time></trkpt><trkpt lat="42.3628178" lon="-3.7106722"><ele>878.0</ele><time>2026-05-02T18:03:47.947Z</time></trkpt><trkpt lat="42.3627479" lon="-3.7105603"><ele>878.0</ele><time>2026-05-02T18:03:48.954Z</time></trkpt><trkpt lat="42.3626754" lon="-3.7104456"><ele>878.0</ele><time>2026-05-02T18:03:49.953Z</time></trkpt><trkpt lat="42.3625944" lon="-3.7103324"><ele>878.0</ele><time>2026-05-02T18:03:50.951Z</time></trkpt><trkpt lat="42.3625085" lon="-3.7102196"><ele>878.0</ele><time>2026-05-02T18:03:51.956Z</time></trkpt><trkpt lat="42.3624185" lon="-3.7101045"><ele>878.0</ele><time>2026-05-02T18:03:52.965Z</time></trkpt><trkpt lat="42.3623266" lon="-3.7099861"><ele>878.0</ele><time>2026-05-02T18:03:53.957Z</time></trkpt><trkpt lat="42.3622272" lon="-3.7098668"><ele>879.0</ele><time>2026-05-02T18:03:54.953Z</time></trkpt><trkpt lat="42.3621225" lon="-3.7097487"><ele>880.0</ele><time>2026-05-02T18:03:55.956Z</time></trkpt><trkpt lat="42.3620103" lon="-3.7096328"><ele>881.0</ele><time>2026-05-02T18:03:56.941Z</time></trkpt><trkpt lat="42.3618932" lon="-3.7095189"><ele>882.0</ele><time>2026-05-02T18:03:57.949Z</time></trkpt><trkpt lat="42.3617568" lon="-3.7094075"><ele>880.0</ele><time>2026-05-02T18:03:58.946Z</time></trkpt><trkpt lat="42.3616262" lon="-3.7093002"><ele>878.0</ele><time>2026-05-02T18:03:59.949Z</time></trkpt><trkpt lat="42.3615068" lon="-3.7092046"><ele>876.0</ele><time>2026-05-02T18:04:00.953Z</time></trkpt><trkpt lat="42.3613851" lon="-3.7091151"><ele>874.0</ele><time>2026-05-02T18:04:01.944Z</time></trkpt><trkpt lat="42.3612544" lon="-3.7090336"><ele>873.75</ele><time>2026-05-02T18:04:02.948Z</time></trkpt><trkpt lat="42.3611241" lon="-3.7089622"><ele>873.5</ele><time>2026-05-02T18:04:03.947Z</time></trkpt><trkpt lat="42.3609861" lon="-3.7088991"><ele>873.25</ele><time>2026-05-02T18:04:04.939Z</time></trkpt><trkpt lat="42.3608481" lon="-3.7088211"><ele>873.0</ele><time>2026-05-02T18:04:05.93Z</time></trkpt><trkpt lat="42.3607015" lon="-3.708754"><ele>873.0</ele><time>2026-05-02T18:04:06.938Z</time></trkpt><trkpt lat="42.360559" lon="-3.7087001"><ele>873.0</ele><time>2026-05-02T18:04:07.931Z</time></trkpt><trkpt lat="42.3604209" lon="-3.7086452"><ele>873.0</ele><time>2026-05-02T18:04:08.937Z</time></trkpt><trkpt lat="42.3602741" lon="-3.708591"><ele>873.0</ele><time>2026-05-02T18:04:09.945Z</time></trkpt><trkpt lat="42.3601255" lon="-3.7085549"><ele>873.0</ele><time>2026-05-02T18:04:10.946Z</time></trkpt><trkpt lat="42.3599827" lon="-3.7085259"><ele>873.0</ele><time>2026-05-02T18:04:11.949Z</time></trkpt><trkpt lat="42.3598295" lon="-3.7085007"><ele>873.0</ele><time>2026-05-02T18:04:12.952Z</time></trkpt><trkpt lat="42.3596692" lon="-3.7084793"><ele>872.0</ele><time>2026-05-02T18:04:13.947Z</time></trkpt><trkpt lat="42.3595035" lon="-3.7084704"><ele>871.0</ele><time>2026-05-02T18:04:14.953Z</time></trkpt><trkpt lat="42.3593388" lon="-3.7084733"><ele>870.0</ele><time>2026-05-02T18:04:15.956Z</time></trkpt><trkpt lat="42.3591822" lon="-3.7084749"><ele>870.0</ele><time>2026-05-02T18:04:16.951Z</time></trkpt><trkpt lat="42.359014" lon="-3.7084908"><ele>870.0</ele><time>2026-05-02T18:04:17.958Z</time></trkpt><trkpt lat="42.3588467" lon="-3.7085068"><ele>870.0</ele><time>2026-05-02T18:04:18.956Z</time></trkpt><trkpt lat="42.358685" lon="-3.7085312"><ele>869.6666666666667</ele><time>2026-05-02T18:04:19.95Z</time></trkpt><trkpt lat="42.3585204" lon="-3.7085719"><ele>869.3333333333334</ele><time>2026-05-02T18:04:20.951Z</time></trkpt><trkpt lat="42.3583663" lon="-3.7086144"><ele>869.0</ele><time>2026-05-02T18:04:21.958Z</time></trkpt><trkpt lat="42.3582123" lon="-3.7086654"><ele>869.0</ele><time>2026-05-02T18:04:22.954Z</time></trkpt><trkpt lat="42.3580596" lon="-3.7087245"><ele>869.0</ele><time>2026-05-02T18:04:23.962Z</time></trkpt><trkpt lat="42.3579075" lon="-3.7087876"><ele>869.0</ele><time>2026-05-02T18:04:24.954Z</time></trkpt><trkpt lat="42.3577579" lon="-3.7088591"><ele>868.6666666666667</ele><time>2026-05-02T18:04:25.951Z</time></trkpt><trkpt lat="42.3576012" lon="-3.7089307"><ele>868.3333333333333</ele><time>2026-05-02T18:04:26.953Z</time></trkpt><trkpt lat="42.3574454" lon="-3.7090075"><ele>868.0</ele><time>2026-05-02T18:04:27.955Z</time></trkpt><trkpt lat="42.357294" lon="-3.7090846"><ele>868.0</ele><time>2026-05-02T18:04:28.945Z</time></trkpt><trkpt lat="42.3571376" lon="-3.7091625"><ele>868.0</ele><time>2026-05-02T18:04:29.958Z</time></trkpt><trkpt lat="42.3569887" lon="-3.7092392"><ele>868.0</ele><time>2026-05-02T18:04:30.956Z</time></trkpt><trkpt lat="42.3568402" lon="-3.7093157"><ele>868.0</ele><time>2026-05-02T18:04:31.95Z</time></trkpt><trkpt lat="42.356692" lon="-3.709392"><ele>868.0</ele><time>2026-05-02T18:04:32.949Z</time></trkpt><trkpt lat="42.3565414" lon="-3.709467"><ele>868.0</ele><time>2026-05-02T18:04:33.955Z</time></trkpt><trkpt lat="42.3563939" lon="-3.7095438"><ele>866.6666666666666</ele><time>2026-05-02T18:04:34.948Z</time></trkpt><trkpt lat="42.3562445" lon="-3.70962"><ele>865.3333333333333</ele><time>2026-05-02T18:04:35.945Z</time></trkpt><trkpt lat="42.3560942" lon="-3.7096922"><ele>864.0</ele><time>2026-05-02T18:04:36.942Z</time></trkpt><trkpt lat="42.3559464" lon="-3.7097763"><ele>864.0</ele><time>2026-05-02T18:04:37.946Z</time></trkpt><trkpt lat="42.3557979" lon="-3.709852"><ele>864.0</ele><time>2026-05-02T18:04:38.941Z</time></trkpt><trkpt lat="42.355654" lon="-3.7099255"><ele>864.0</ele><time>2026-05-02T18:04:39.941Z</time></trkpt><trkpt lat="42.3555009" lon="-3.7100013"><ele>863.6666666666667</ele><time>2026-05-02T18:04:40.947Z</time></trkpt><trkpt lat="42.3553568" lon="-3.7100822"><ele>863.3333333333334</ele><time>2026-05-02T18:04:41.944Z</time></trkpt><trkpt lat="42.3552076" lon="-3.7101565"><ele>863.0</ele><time>2026-05-02T18:04:42.929Z</time></trkpt><trkpt lat="42.3550638" lon="-3.7102326"><ele>863.0</ele><time>2026-05-02T18:04:43.928Z</time></trkpt><trkpt lat="42.3549139" lon="-3.7103092"><ele>863.0</ele><time>2026-05-02T18:04:44.928Z</time></trkpt><trkpt lat="42.3547617" lon="-3.7103803"><ele>863.0</ele><time>2026-05-02T18:04:45.925Z</time></trkpt><trkpt lat="42.3546135" lon="-3.7104519"><ele>863.0</ele><time>2026-05-02T18:04:46.926Z</time></trkpt><trkpt lat="42.3544682" lon="-3.7105182"><ele>863.0</ele><time>2026-05-02T18:04:47.924Z</time></trkpt><trkpt lat="42.3543206" lon="-3.7105871"><ele>863.0</ele><time>2026-05-02T18:04:48.929Z</time></trkpt><trkpt lat="42.3541729" lon="-3.7106515"><ele>863.0</ele><time>2026-05-02T18:04:49.934Z</time></trkpt><trkpt lat="42.3540257" lon="-3.7107177"><ele>863.0</ele><time>2026-05-02T18:04:50.942Z</time></trkpt><trkpt lat="42.3538868" lon="-3.7107873"><ele>863.0</ele><time>2026-05-02T18:04:51.94Z</time></trkpt><trkpt lat="42.3537525" lon="-3.7108547"><ele>863.0</ele><time>2026-05-02T18:04:52.936Z</time></trkpt><trkpt lat="42.3536315" lon="-3.7109138"><ele>862.5999999999999</ele><time>2026-05-02T18:04:53.933Z</time></trkpt><trkpt lat="42.3535266" lon="-3.7109606"><ele>862.1999999999999</ele><time>2026-05-02T18:04:54.959Z</time></trkpt><trkpt lat="42.3534341" lon="-3.7110044"><ele>861.8</ele><time>2026-05-02T18:04:55.936Z</time></trkpt><trkpt lat="42.3533484" lon="-3.7110494"><ele>861.4</ele><time>2026-05-02T18:04:56.936Z</time></trkpt><trkpt lat="42.3532714" lon="-3.7110919"><ele>861.0</ele><time>2026-05-02T18:04:57.93Z</time></trkpt><trkpt lat="42.3532098" lon="-3.7111353"><ele>861.0</ele><time>2026-05-02T18:04:58.931Z</time></trkpt><trkpt lat="42.3531328" lon="-3.7112165"><ele>861.0</ele><time>2026-05-02T18:05:00.936Z</time></trkpt><trkpt lat="42.3530982" lon="-3.7113023"><ele>861.0</ele><time>2026-05-02T18:05:02.935Z</time></trkpt><trkpt lat="42.3530498" lon="-3.7113947"><ele>861.0</ele><time>2026-05-02T18:05:04.934Z</time></trkpt><trkpt lat="42.3529485" lon="-3.7114944"><ele>861.0</ele><time>2026-05-02T18:05:06.925Z</time></trkpt><trkpt lat="42.3528844" lon="-3.7115311"><ele>861.0</ele><time>2026-05-02T18:05:07.924Z</time></trkpt><trkpt lat="42.3528077" lon="-3.7115509"><ele>861.1999999999999</ele><time>2026-05-02T18:05:08.926Z</time></trkpt><trkpt lat="42.3527264" lon="-3.7115409"><ele>861.3999999999999</ele><time>2026-05-02T18:05:09.925Z</time></trkpt><trkpt lat="42.352641" lon="-3.7115065"><ele>861.6</ele><time>2026-05-02T18:05:10.928Z</time></trkpt><trkpt lat="42.3525489" lon="-3.7114763"><ele>861.8</ele><time>2026-05-02T18:05:11.93Z</time></trkpt><trkpt lat="42.3524498" lon="-3.7114577"><ele>862.0</ele><time>2026-05-02T18:05:12.924Z</time></trkpt><trkpt lat="42.3523451" lon="-3.7114588"><ele>862.0</ele><time>2026-05-02T18:05:13.924Z</time></trkpt><trkpt lat="42.3522346" lon="-3.711486"><ele>862.0</ele><time>2026-05-02T18:05:14.922Z</time></trkpt><trkpt lat="42.3521179" lon="-3.7115253"><ele>862.0</ele><time>2026-05-02T18:05:15.934Z</time></trkpt><trkpt lat="42.3519987" lon="-3.7115776"><ele>862.0</ele><time>2026-05-02T18:05:16.943Z</time></trkpt><trkpt lat="42.3518783" lon="-3.7116298"><ele>862.5</ele><time>2026-05-02T18:05:17.935Z</time></trkpt><trkpt lat="42.3517566" lon="-3.7116795"><ele>863.0</ele><time>2026-05-02T18:05:18.939Z</time></trkpt><trkpt lat="42.3516329" lon="-3.7117308"><ele>863.5</ele><time>2026-05-02T18:05:19.937Z</time></trkpt><trkpt lat="42.3515085" lon="-3.7117815"><ele>864.0</ele><time>2026-05-02T18:05:20.925Z</time></trkpt><trkpt lat="42.3513813" lon="-3.7118325"><ele>864.5</ele><time>2026-05-02T18:05:21.927Z</time></trkpt><trkpt lat="42.3512519" lon="-3.71188"><ele>865.0</ele><time>2026-05-02T18:05:22.924Z</time></trkpt><trkpt lat="42.3511199" lon="-3.711928"><ele>865.5</ele><time>2026-05-02T18:05:23.925Z</time></trkpt><trkpt lat="42.3509872" lon="-3.7119731"><ele>866.0</ele><time>2026-05-02T18:05:24.94Z</time></trkpt><trkpt lat="42.3508536" lon="-3.7120173"><ele>864.5</ele><time>2026-05-02T18:05:25.921Z</time></trkpt><trkpt lat="42.3507159" lon="-3.7120594"><ele>863.0</ele><time>2026-05-02T18:05:26.921Z</time></trkpt><trkpt lat="42.3505772" lon="-3.7121121"><ele>861.5</ele><time>2026-05-02T18:05:27.925Z</time></trkpt><trkpt lat="42.3504307" lon="-3.7121557"><ele>860.0</ele><time>2026-05-02T18:05:28.922Z</time></trkpt><trkpt lat="42.3502857" lon="-3.7121961"><ele>859.25</ele><time>2026-05-02T18:05:29.924Z</time></trkpt><trkpt lat="42.3501429" lon="-3.7122373"><ele>858.5</ele><time>2026-05-02T18:05:30.93Z</time></trkpt><trkpt lat="42.3500034" lon="-3.7122817"><ele>857.75</ele><time>2026-05-02T18:05:31.933Z</time></trkpt><trkpt lat="42.349868" lon="-3.7123226"><ele>857.0</ele><time>2026-05-02T18:05:32.934Z</time></trkpt><trkpt lat="42.3497336" lon="-3.7123658"><ele>858.0</ele><time>2026-05-02T18:05:33.932Z</time></trkpt><trkpt lat="42.3495973" lon="-3.7124101"><ele>859.0</ele><time>2026-05-02T18:05:34.934Z</time></trkpt><trkpt lat="42.3494613" lon="-3.7124559"><ele>860.0</ele><time>2026-05-02T18:05:35.931Z</time></trkpt><trkpt lat="42.3493217" lon="-3.712496"><ele>861.0</ele><time>2026-05-02T18:05:36.925Z</time></trkpt><trkpt lat="42.3491849" lon="-3.7125429"><ele>861.0</ele><time>2026-05-02T18:05:37.92Z</time></trkpt><trkpt lat="42.3490589" lon="-3.7125859"><ele>861.0</ele><time>2026-05-02T18:05:38.933Z</time></trkpt><trkpt lat="42.3489323" lon="-3.7126233"><ele>861.0</ele><time>2026-05-02T18:05:39.917Z</time></trkpt><trkpt lat="42.3488158" lon="-3.7126592"><ele>861.0</ele><time>2026-05-02T18:05:40.919Z</time></trkpt><trkpt lat="42.3487071" lon="-3.7127"><ele>860.8</ele><time>2026-05-02T18:05:41.92Z</time></trkpt><trkpt lat="42.3486075" lon="-3.7127416"><ele>860.5999999999999</ele><time>2026-05-02T18:05:42.92Z</time></trkpt><trkpt lat="42.3485155" lon="-3.7127972"><ele>860.4</ele><time>2026-05-02T18:05:43.922Z</time></trkpt><trkpt lat="42.3484393" lon="-3.7128599"><ele>860.2</ele><time>2026-05-02T18:05:44.923Z</time></trkpt><trkpt lat="42.3483657" lon="-3.7129213"><ele>860.0</ele><time>2026-05-02T18:05:45.925Z</time></trkpt><trkpt lat="42.3482934" lon="-3.7129666"><ele>860.0</ele><time>2026-05-02T18:05:46.926Z</time></trkpt><trkpt lat="42.3482248" lon="-3.7130079"><ele>860.0</ele><time>2026-05-02T18:05:47.929Z</time></trkpt><trkpt lat="42.3481546" lon="-3.7130272"><ele>860.0</ele><time>2026-05-02T18:05:48.937Z</time></trkpt><trkpt lat="42.3480923" lon="-3.7130116"><ele>860.0</ele><time>2026-05-02T18:05:49.925Z</time></trkpt><trkpt lat="42.3480335" lon="-3.7129657"><ele>860.0</ele><time>2026-05-02T18:05:50.92Z</time></trkpt><trkpt lat="42.3479877" lon="-3.712897"><ele>860.0</ele><time>2026-05-02T18:05:51.934Z</time></trkpt><trkpt lat="42.3479556" lon="-3.7128038"><ele>860.0</ele><time>2026-05-02T18:05:52.925Z</time></trkpt><trkpt lat="42.3479321" lon="-3.7127001"><ele>861.3333333333334</ele><time>2026-05-02T18:05:53.929Z</time></trkpt><trkpt lat="42.3478996" lon="-3.7125999"><ele>862.6666666666667</ele><time>2026-05-02T18:05:54.927Z</time></trkpt><trkpt lat="42.3478499" lon="-3.7125255"><ele>864.0</ele><time>2026-05-02T18:05:55.94Z</time></trkpt><trkpt lat="42.347781" lon="-3.7124784"><ele>865.3333333333333</ele><time>2026-05-02T18:05:56.923Z</time></trkpt><trkpt lat="42.3477041" lon="-3.7124577"><ele>866.6666666666666</ele><time>2026-05-02T18:05:57.916Z</time></trkpt><trkpt lat="42.3476251" lon="-3.7124507"><ele>868.0</ele><time>2026-05-02T18:05:58.919Z</time></trkpt><trkpt lat="42.3475399" lon="-3.7124523"><ele>867.9999999999999</ele><time>2026-05-02T18:05:59.922Z</time></trkpt><trkpt lat="42.347452" lon="-3.7124502"><ele>868.0</ele><time>2026-05-02T18:06:00.925Z</time></trkpt><trkpt lat="42.3473681" lon="-3.7124492"><ele>868.0</ele><time>2026-05-02T18:06:01.928Z</time></trkpt><trkpt lat="42.3472822" lon="-3.7124431"><ele>868.0</ele><time>2026-05-02T18:06:02.93Z</time></trkpt><trkpt lat="42.3471937" lon="-3.7124342"><ele>867.9999999999999</ele><time>2026-05-02T18:06:03.929Z</time></trkpt><trkpt lat="42.3471077" lon="-3.7124259"><ele>868.0</ele><time>2026-05-02T18:06:04.926Z</time></trkpt><trkpt lat="42.3470164" lon="-3.7124168"><ele>868.2</ele><time>2026-05-02T18:06:05.925Z</time></trkpt><trkpt lat="42.3469241" lon="-3.7124139"><ele>868.4</ele><time>2026-05-02T18:06:06.926Z</time></trkpt><trkpt lat="42.3468302" lon="-3.7124091"><ele>868.6000000000001</ele><time>2026-05-02T18:06:07.921Z</time></trkpt><trkpt lat="42.3467333" lon="-3.7124025"><ele>868.8000000000001</ele><time>2026-05-02T18:06:08.922Z</time></trkpt><trkpt lat="42.3466336" lon="-3.7123982"><ele>869.0</ele><time>2026-05-02T18:06:09.921Z</time></trkpt><trkpt lat="42.3465296" lon="-3.7123944"><ele>869.0</ele><time>2026-05-02T18:06:10.923Z</time></trkpt><trkpt lat="42.3464259" lon="-3.7123963"><ele>869.0000000000001</ele><time>2026-05-02T18:06:11.926Z</time></trkpt><trkpt lat="42.3463193" lon="-3.712399"><ele>869.0000000000001</ele><time>2026-05-02T18:06:12.924Z</time></trkpt><trkpt lat="42.3462136" lon="-3.7123979"><ele>869.0</ele><time>2026-05-02T18:06:13.926Z</time></trkpt><trkpt lat="42.3461087" lon="-3.7123998"><ele>869.0</ele><time>2026-05-02T18:06:14.922Z</time></trkpt><trkpt lat="42.3460054" lon="-3.7123976"><ele>869.0</ele><time>2026-05-02T18:06:15.922Z</time></trkpt><trkpt lat="42.3459097" lon="-3.7123929"><ele>869.0000000000001</ele><time>2026-05-02T18:06:16.924Z</time></trkpt><trkpt lat="42.3458132" lon="-3.7123924"><ele>869.0000000000001</ele><time>2026-05-02T18:06:17.935Z</time></trkpt><trkpt lat="42.3457182" lon="-3.7123909"><ele>869.0</ele><time>2026-05-02T18:06:18.937Z</time></trkpt><trkpt lat="42.3456293" lon="-3.7123932"><ele>869.0</ele><time>2026-05-02T18:06:19.937Z</time></trkpt><trkpt lat="42.3455439" lon="-3.7124006"><ele>869.0000000000001</ele><time>2026-05-02T18:06:20.937Z</time></trkpt><trkpt lat="42.3454572" lon="-3.7124106"><ele>869.0</ele><time>2026-05-02T18:06:21.931Z</time></trkpt><trkpt lat="42.345375" lon="-3.7124187"><ele>869.0</ele><time>2026-05-02T18:06:22.936Z</time></trkpt><trkpt lat="42.3452896" lon="-3.7124305"><ele>869.0</ele><time>2026-05-02T18:06:23.933Z</time></trkpt><trkpt lat="42.3452106" lon="-3.712436"><ele>869.0000000000001</ele><time>2026-05-02T18:06:24.933Z</time></trkpt><trkpt lat="42.3451323" lon="-3.7124455"><ele>869.0</ele><time>2026-05-02T18:06:25.934Z</time></trkpt><trkpt lat="42.3450569" lon="-3.7124535"><ele>869.0000000000001</ele><time>2026-05-02T18:06:26.945Z</time></trkpt><trkpt lat="42.3449839" lon="-3.7124572"><ele>869.0</ele><time>2026-05-02T18:06:27.934Z</time></trkpt><trkpt lat="42.3449187" lon="-3.7124605"><ele>869.0</ele><time>2026-05-02T18:06:28.93Z</time></trkpt><trkpt lat="42.3448355" lon="-3.7124654"><ele>869.0</ele><time>2026-05-02T18:06:30.936Z</time></trkpt><trkpt lat="42.3447339" lon="-3.7125063"><ele>869.0000000000001</ele><time>2026-05-02T18:06:54.919Z</time></trkpt><trkpt lat="42.3446184" lon="-3.7125113"><ele>869.0</ele><time>2026-05-02T18:06:56.93Z</time></trkpt><trkpt lat="42.3445549" lon="-3.7125124"><ele>869.3333333333334</ele><time>2026-05-02T18:06:57.934Z</time></trkpt><trkpt lat="42.3444836" lon="-3.7125171"><ele>869.6666666666667</ele><time>2026-05-02T18:06:58.924Z</time></trkpt><trkpt lat="42.3444072" lon="-3.7125237"><ele>870.0</ele><time>2026-05-02T18:06:59.922Z</time></trkpt><trkpt lat="42.3443402" lon="-3.7125274"><ele>870.3333333333333</ele><time>2026-05-02T18:07:00.919Z</time></trkpt><trkpt lat="42.3442719" lon="-3.7125328"><ele>870.6666666666666</ele><time>2026-05-02T18:07:01.917Z</time></trkpt><trkpt lat="42.3441497" lon="-3.7125205"><ele>871.0</ele><time>2026-05-02T18:07:03.918Z</time></trkpt><trkpt lat="42.3440844" lon="-3.7125099"><ele>870.9999999999999</ele><time>2026-05-02T18:07:04.919Z</time></trkpt><trkpt lat="42.3440196" lon="-3.7125026"><ele>871.0</ele><time>2026-05-02T18:07:05.919Z</time></trkpt><trkpt lat="42.3439452" lon="-3.7125058"><ele>871.0</ele><time>2026-05-02T18:07:06.913Z</time></trkpt><trkpt lat="42.3438609" lon="-3.7124934"><ele>871.0</ele><time>2026-05-02T18:07:07.917Z</time></trkpt><trkpt lat="42.3437671" lon="-3.7124723"><ele>870.9999999999999</ele><time>2026-05-02T18:07:08.91Z</time></trkpt><trkpt lat="42.3436705" lon="-3.7124333"><ele>871.0</ele><time>2026-05-02T18:07:09.914Z</time></trkpt><trkpt lat="42.3435767" lon="-3.712398"><ele>871.9999999999999</ele><time>2026-05-02T18:07:10.913Z</time></trkpt><trkpt lat="42.3434848" lon="-3.7123728"><ele>873.0</ele><time>2026-05-02T18:07:11.901Z</time></trkpt><trkpt lat="42.343393" lon="-3.712355"><ele>874.0</ele><time>2026-05-02T18:07:12.907Z</time></trkpt><trkpt lat="42.3433097" lon="-3.7123438"><ele>875.0</ele><time>2026-05-02T18:07:13.91Z</time></trkpt><trkpt lat="42.3432046" lon="-3.71234"><ele>875.9999999999999</ele><time>2026-05-02T18:07:15.919Z</time></trkpt><trkpt lat="42.3431348" lon="-3.7123593"><ele>877.0</ele><time>2026-05-02T18:07:22.926Z</time></trkpt><trkpt lat="42.3431125" lon="-3.7124589"><ele>876.4999999999999</ele><time>2026-05-02T18:07:25.912Z</time></trkpt><trkpt lat="42.3430188" lon="-3.7124728"><ele>876.0</ele><time>2026-05-02T18:07:28.936Z</time></trkpt><trkpt lat="42.3429331" lon="-3.7123667"><ele>875.5</ele><time>2026-05-02T18:07:30.931Z</time></trkpt><trkpt lat="42.3428738" lon="-3.7123064"><ele>875.0</ele><time>2026-05-02T18:07:31.916Z</time></trkpt><trkpt lat="42.3428116" lon="-3.7122455"><ele>874.4999999999999</ele><time>2026-05-02T18:07:32.932Z</time></trkpt><trkpt lat="42.3427469" lon="-3.7121852"><ele>874.0</ele><time>2026-05-02T18:07:33.92Z</time></trkpt><trkpt lat="42.3426914" lon="-3.7120827"><ele>874.0</ele><time>2026-05-02T18:07:34.917Z</time></trkpt><trkpt lat="42.3426258" lon="-3.7119941"><ele>874.0000000000001</ele><time>2026-05-02T18:07:35.906Z</time></trkpt><trkpt lat="42.3425583" lon="-3.7119402"><ele>874.0000000000001</ele><time>2026-05-02T18:07:36.917Z</time></trkpt><trkpt lat="42.3424911" lon="-3.7118841"><ele>874.0</ele><time>2026-05-02T18:07:37.925Z</time></trkpt><trkpt lat="42.3423818" lon="-3.7118266"><ele>874.0</ele><time>2026-05-02T18:07:39.901Z</time></trkpt><trkpt lat="42.3422755" lon="-3.7117477"><ele>873.4999999999999</ele><time>2026-05-02T18:07:41.905Z</time></trkpt><trkpt lat="42.3422192" lon="-3.7117049"><ele>873.0</ele><time>2026-05-02T18:07:42.911Z</time></trkpt><trkpt lat="42.3421543" lon="-3.7116618"><ele>872.5</ele><time>2026-05-02T18:07:43.909Z</time></trkpt><trkpt lat="42.3420887" lon="-3.7116151"><ele>872.0</ele><time>2026-05-02T18:07:44.925Z</time></trkpt><trkpt lat="42.3420174" lon="-3.7115949"><ele>871.4999999999999</ele><time>2026-05-02T18:07:45.918Z</time></trkpt><trkpt lat="42.3419362" lon="-3.7115855"><ele>871.0</ele><time>2026-05-02T18:07:46.919Z</time></trkpt><trkpt lat="42.3418518" lon="-3.7115724"><ele>870.9999999999999</ele><time>2026-05-02T18:07:47.924Z</time></trkpt><trkpt lat="42.3417691" lon="-3.7115597"><ele>871.0</ele><time>2026-05-02T18:07:48.923Z</time></trkpt><trkpt lat="42.3416907" lon="-3.711549"><ele>871.0</ele><time>2026-05-02T18:07:49.918Z</time></trkpt><trkpt lat="42.3416133" lon="-3.7115507"><ele>871.0</ele><time>2026-05-02T18:07:50.915Z</time></trkpt><trkpt lat="42.3415335" lon="-3.7115582"><ele>870.9999999999999</ele><time>2026-05-02T18:07:51.922Z</time></trkpt><trkpt lat="42.3414476" lon="-3.7115757"><ele>871.0</ele><time>2026-05-02T18:07:52.92Z</time></trkpt><trkpt lat="42.3413664" lon="-3.7116163"><ele>870.1666666666666</ele><time>2026-05-02T18:07:53.917Z</time></trkpt><trkpt lat="42.3412858" lon="-3.711658"><ele>869.3333333333333</ele><time>2026-05-02T18:07:54.916Z</time></trkpt><trkpt lat="42.3412099" lon="-3.7117054"><ele>868.5</ele><time>2026-05-02T18:07:55.912Z</time></trkpt><trkpt lat="42.3411293" lon="-3.7117463"><ele>867.6666666666667</ele><time>2026-05-02T18:07:56.913Z</time></trkpt><trkpt lat="42.3410523" lon="-3.711784"><ele>866.8333333333334</ele><time>2026-05-02T18:07:57.91Z</time></trkpt><trkpt lat="42.3409716" lon="-3.7118139"><ele>866.0</ele><time>2026-05-02T18:07:58.91Z</time></trkpt><trkpt lat="42.3408927" lon="-3.7118439"><ele>866.0000000000001</ele><time>2026-05-02T18:07:59.929Z</time></trkpt><trkpt lat="42.3408129" lon="-3.7118762"><ele>866.0</ele><time>2026-05-02T18:08:00.918Z</time></trkpt><trkpt lat="42.340734" lon="-3.7119113"><ele>866.0</ele><time>2026-05-02T18:08:01.91Z</time></trkpt><trkpt lat="42.340664" lon="-3.7119455"><ele>866.0</ele><time>2026-05-02T18:08:02.914Z</time></trkpt><trkpt lat="42.3406012" lon="-3.7119789"><ele>866.0000000000001</ele><time>2026-05-02T18:08:03.909Z</time></trkpt><trkpt lat="42.3405025" lon="-3.7119977"><ele>866.0</ele><time>2026-05-02T18:08:05.919Z</time></trkpt><trkpt lat="42.3404141" lon="-3.7119336"><ele>864.0000000000001</ele><time>2026-05-02T18:08:07.919Z</time></trkpt><trkpt lat="42.340352" lon="-3.7118111"><ele>862.0</ele><time>2026-05-02T18:08:09.912Z</time></trkpt><trkpt lat="42.340316" lon="-3.7117337"><ele>860.0</ele><time>2026-05-02T18:08:10.909Z</time></trkpt><trkpt lat="42.3402794" lon="-3.7116295"><ele>858.0</ele><time>2026-05-02T18:08:11.915Z</time></trkpt><trkpt lat="42.3402521" lon="-3.7115323"><ele>856.0000000000001</ele><time>2026-05-02T18:08:12.901Z</time></trkpt><trkpt lat="42.3402263" lon="-3.7114292"><ele>854.0</ele><time>2026-05-02T18:08:13.917Z</time></trkpt><trkpt lat="42.3401956" lon="-3.7113168"><ele>854.0</ele><time>2026-05-02T18:08:14.914Z</time></trkpt><trkpt lat="42.3401591" lon="-3.7111928"><ele>854.0000000000001</ele><time>2026-05-02T18:08:15.916Z</time></trkpt><trkpt lat="42.3401168" lon="-3.7110605"><ele>854.0000000000001</ele><time>2026-05-02T18:08:16.915Z</time></trkpt><trkpt lat="42.3400803" lon="-3.7109191"><ele>854.0</ele><time>2026-05-02T18:08:17.913Z</time></trkpt><trkpt lat="42.3400424" lon="-3.7107709"><ele>854.0</ele><time>2026-05-02T18:08:18.914Z</time></trkpt><trkpt lat="42.3400077" lon="-3.7106138"><ele>855.0</ele><time>2026-05-02T18:08:19.923Z</time></trkpt><trkpt lat="42.3399785" lon="-3.7104537"><ele>856.0</ele><time>2026-05-02T18:08:20.918Z</time></trkpt><trkpt lat="42.3399557" lon="-3.7102866"><ele>857.0</ele><time>2026-05-02T18:08:21.924Z</time></trkpt><trkpt lat="42.3399391" lon="-3.7101244"><ele>858.0</ele><time>2026-05-02T18:08:22.917Z</time></trkpt><trkpt lat="42.3399224" lon="-3.7099722"><ele>858.8</ele><time>2026-05-02T18:08:23.911Z</time></trkpt><trkpt lat="42.339916" lon="-3.7098314"><ele>859.5999999999999</ele><time>2026-05-02T18:08:24.914Z</time></trkpt><trkpt lat="42.3399089" lon="-3.7096905"><ele>860.4000000000001</ele><time>2026-05-02T18:08:25.91Z</time></trkpt><trkpt lat="42.3399102" lon="-3.7095566"><ele>861.2</ele><time>2026-05-02T18:08:26.908Z</time></trkpt><trkpt lat="42.3399116" lon="-3.7094294"><ele>862.0</ele><time>2026-05-02T18:08:27.904Z</time></trkpt><trkpt lat="42.3399143" lon="-3.7093154"><ele>862.4285714285714</ele><time>2026-05-02T18:08:28.911Z</time></trkpt><trkpt lat="42.3399244" lon="-3.7092075"><ele>862.8571428571428</ele><time>2026-05-02T18:08:29.913Z</time></trkpt><trkpt lat="42.3399299" lon="-3.7091068"><ele>863.2857142857142</ele><time>2026-05-02T18:08:30.926Z</time></trkpt><trkpt lat="42.3399334" lon="-3.7090062"><ele>863.7142857142858</ele><time>2026-05-02T18:08:31.911Z</time></trkpt><trkpt lat="42.3399206" lon="-3.7089046"><ele>864.1428571428571</ele><time>2026-05-02T18:08:32.913Z</time></trkpt><trkpt lat="42.3399042" lon="-3.7088137"><ele>864.5714285714286</ele><time>2026-05-02T18:08:33.909Z</time></trkpt><trkpt lat="42.3398753" lon="-3.7087287"><ele>865.0</ele><time>2026-05-02T18:08:34.913Z</time></trkpt><trkpt lat="42.339835" lon="-3.7086554"><ele>865.4999999999999</ele><time>2026-05-02T18:08:35.921Z</time></trkpt><trkpt lat="42.339727" lon="-3.7085486"><ele>866.0</ele><time>2026-05-02T18:08:37.924Z</time></trkpt><trkpt lat="42.3396555" lon="-3.7085046"><ele>866.5</ele><time>2026-05-02T18:08:38.925Z</time></trkpt><trkpt lat="42.3395841" lon="-3.7084537"><ele>867.0</ele><time>2026-05-02T18:08:39.922Z</time></trkpt><trkpt lat="42.3395173" lon="-3.7084099"><ele>867.4999999999999</ele><time>2026-05-02T18:08:40.923Z</time></trkpt><trkpt lat="42.3394551" lon="-3.7083573"><ele>868.0</ele><time>2026-05-02T18:08:41.918Z</time></trkpt><trkpt lat="42.3394021" lon="-3.7082868"><ele>867.2857142857143</ele><time>2026-05-02T18:08:42.914Z</time></trkpt><trkpt lat="42.3393657" lon="-3.7082038"><ele>866.5714285714286</ele><time>2026-05-02T18:08:43.913Z</time></trkpt><trkpt lat="42.3393406" lon="-3.708107"><ele>865.8571428571429</ele><time>2026-05-02T18:08:44.919Z</time></trkpt><trkpt lat="42.3393277" lon="-3.7080108"><ele>865.1428571428571</ele><time>2026-05-02T18:08:45.929Z</time></trkpt><trkpt lat="42.3393114" lon="-3.707892"><ele>864.4285714285714</ele><time>2026-05-02T18:08:47.917Z</time></trkpt><trkpt lat="42.3393085" lon="-3.7078039"><ele>863.7142857142858</ele><time>2026-05-02T18:08:49.93Z</time></trkpt><trkpt lat="42.3393011" lon="-3.7077119"><ele>863.0</ele><time>2026-05-02T18:08:57.925Z</time></trkpt><trkpt lat="42.3393423" lon="-3.7076392"><ele>863.0000000000001</ele><time>2026-05-02T18:09:12.92Z</time></trkpt><trkpt lat="42.339286" lon="-3.7077082"><ele>863.0</ele><time>2026-05-02T18:09:19.893Z</time></trkpt><trkpt lat="42.3392511" lon="-3.7078"><ele>863.0</ele><time>2026-05-02T18:10:17.917Z</time></trkpt><trkpt lat="42.3392221" lon="-3.7078829"><ele>863.0</ele><time>2026-05-02T18:10:21.925Z</time></trkpt><trkpt lat="42.3391501" lon="-3.7078961"><ele>863.0000000000001</ele><time>2026-05-02T18:10:50.916Z</time></trkpt><trkpt lat="42.3390832" lon="-3.7079149"><ele>863.0</ele><time>2026-05-02T18:10:52.917Z</time></trkpt><trkpt lat="42.338972" lon="-3.7079708"><ele>862.2</ele><time>2026-05-02T18:10:54.916Z</time></trkpt><trkpt lat="42.3389091" lon="-3.708004"><ele>861.4</ele><time>2026-05-02T18:10:55.917Z</time></trkpt><trkpt lat="42.3388458" lon="-3.7080346"><ele>860.6000000000001</ele><time>2026-05-02T18:10:56.913Z</time></trkpt><trkpt lat="42.3387345" lon="-3.7081044"><ele>859.8000000000001</ele><time>2026-05-02T18:10:58.92Z</time></trkpt><trkpt lat="42.3386354" lon="-3.7081892"><ele>859.0</ele><time>2026-05-02T18:11:00.92Z</time></trkpt><trkpt lat="42.3385318" lon="-3.7082599"><ele>859.0</ele><time>2026-05-02T18:11:02.92Z</time></trkpt><trkpt lat="42.3384287" lon="-3.7083399"><ele>859.0</ele><time>2026-05-02T18:11:04.93Z</time></trkpt><trkpt lat="42.3383296" lon="-3.7084143"><ele>859.0</ele><time>2026-05-02T18:11:06.919Z</time></trkpt><trkpt lat="42.338236" lon="-3.7084976"><ele>859.0</ele><time>2026-05-02T18:11:08.912Z</time></trkpt><trkpt lat="42.3381437" lon="-3.7085918"><ele>858.4000000000001</ele><time>2026-05-02T18:11:10.913Z</time></trkpt><trkpt lat="42.3380451" lon="-3.7086815"><ele>857.8000000000001</ele><time>2026-05-02T18:11:12.915Z</time></trkpt><trkpt lat="42.3379544" lon="-3.7087702"><ele>857.1999999999999</ele><time>2026-05-02T18:11:14.915Z</time></trkpt><trkpt lat="42.3378913" lon="-3.7088545"><ele>856.5999999999999</ele><time>2026-05-02T18:11:16.927Z</time></trkpt><trkpt lat="42.3378452" lon="-3.7089514"><ele>856.0</ele><time>2026-05-02T18:11:18.924Z</time></trkpt><trkpt lat="42.3377741" lon="-3.7090524"><ele>856.0</ele><time>2026-05-02T18:11:20.922Z</time></trkpt><trkpt lat="42.3376847" lon="-3.7091283"><ele>855.9999999999999</ele><time>2026-05-02T18:11:22.916Z</time></trkpt><trkpt lat="42.3375793" lon="-3.7091338"><ele>855.9999999999999</ele><time>2026-05-02T18:11:24.92Z</time></trkpt><trkpt lat="42.337498" lon="-3.7090661"><ele>856.0</ele><time>2026-05-02T18:11:26.924Z</time></trkpt><trkpt lat="42.3374302" lon="-3.7089751"><ele>856.0</ele><time>2026-05-02T18:11:28.927Z</time></trkpt><trkpt lat="42.3373558" lon="-3.7088619"><ele>856.0</ele><time>2026-05-02T18:11:30.932Z</time></trkpt><trkpt lat="42.3372662" lon="-3.7087613"><ele>855.9999999999999</ele><time>2026-05-02T18:11:32.925Z</time></trkpt><trkpt lat="42.3371742" lon="-3.7087098"><ele>855.9999999999999</ele><time>2026-05-02T18:11:34.933Z</time></trkpt><trkpt lat="42.3370794" lon="-3.7086719"><ele>856.0</ele><time>2026-05-02T18:11:36.93Z</time></trkpt><trkpt lat="42.3369818" lon="-3.7086286"><ele>856.0</ele><time>2026-05-02T18:11:38.923Z</time></trkpt><trkpt lat="42.3368895" lon="-3.7086083"><ele>855.8333333333333</ele><time>2026-05-02T18:11:40.925Z</time></trkpt><trkpt lat="42.3368017" lon="-3.7085963"><ele>855.6666666666666</ele><time>2026-05-02T18:11:42.929Z</time></trkpt><trkpt lat="42.3367136" lon="-3.7085884"><ele>855.5</ele><time>2026-05-02T18:11:44.934Z</time></trkpt><trkpt lat="42.3366326" lon="-3.7085936"><ele>855.3333333333333</ele><time>2026-05-02T18:11:46.931Z</time></trkpt><trkpt lat="42.3365526" lon="-3.7085924"><ele>855.1666666666666</ele><time>2026-05-02T18:11:48.922Z</time></trkpt><trkpt lat="42.3364923" lon="-3.7085276"><ele>855.0</ele><time>2026-05-02T18:11:50.932Z</time></trkpt><trkpt lat="42.3364921" lon="-3.708422"><ele>855.0</ele><time>2026-05-02T18:11:52.93Z</time></trkpt><trkpt lat="42.3365406" lon="-3.708311"><ele>855.0</ele><time>2026-05-02T18:11:54.926Z</time></trkpt><trkpt lat="42.3366054" lon="-3.7082098"><ele>855.0</ele><time>2026-05-02T18:11:56.921Z</time></trkpt><trkpt lat="42.3366617" lon="-3.7081082"><ele>855.0</ele><time>2026-05-02T18:11:58.927Z</time></trkpt><trkpt lat="42.3367058" lon="-3.7079942"><ele>855.0</ele><time>2026-05-02T18:12:00.924Z</time></trkpt><trkpt lat="42.3367245" lon="-3.7078998"><ele>855.0</ele><time>2026-05-02T18:12:02.921Z</time></trkpt><trkpt lat="42.3367426" lon="-3.7078111"><ele>855.0</ele><time>2026-05-02T18:12:05.91Z</time></trkpt><trkpt lat="42.3368067" lon="-3.7077761"><ele>855.0</ele><time>2026-05-02T18:14:12.907Z</time></trkpt><trkpt lat="42.3368142" lon="-3.7076796"><ele>855.0</ele><time>2026-05-02T18:14:21.929Z</time></trkpt><trkpt lat="42.3368361" lon="-3.7075332"><ele>855.0</ele><time>2026-05-02T18:14:23.931Z</time></trkpt><trkpt lat="42.336879" lon="-3.707358"><ele>854.8333333333334</ele><time>2026-05-02T18:14:25.929Z</time></trkpt><trkpt lat="42.336896" lon="-3.7072622"><ele>854.6666666666667</ele><time>2026-05-02T18:14:26.924Z</time></trkpt><trkpt lat="42.3369105" lon="-3.7071575"><ele>854.5</ele><time>2026-05-02T18:14:27.925Z</time></trkpt><trkpt lat="42.3369316" lon="-3.7070467"><ele>854.3333333333334</ele><time>2026-05-02T18:14:28.918Z</time></trkpt><trkpt lat="42.3369624" lon="-3.7069367"><ele>854.1666666666667</ele><time>2026-05-02T18:14:29.925Z</time></trkpt><trkpt lat="42.3369967" lon="-3.7068139"><ele>854.0</ele><time>2026-05-02T18:14:30.93Z</time></trkpt><trkpt lat="42.3370311" lon="-3.706701"><ele>854.0</ele><time>2026-05-02T18:14:31.924Z</time></trkpt><trkpt lat="42.337064" lon="-3.7065933"><ele>854.0000000000001</ele><time>2026-05-02T18:14:32.927Z</time></trkpt><trkpt lat="42.337099" lon="-3.7064953"><ele>854.0000000000001</ele><time>2026-05-02T18:14:34.11Z</time></trkpt><trkpt lat="42.3371651" lon="-3.7063211"><ele>854.0</ele><time>2026-05-02T18:14:35.907Z</time></trkpt><trkpt lat="42.3372132" lon="-3.7062249"><ele>854.0</ele><time>2026-05-02T18:14:37.917Z</time></trkpt><trkpt lat="42.3372237" lon="-3.7061242"><ele>853.8000000000001</ele><time>2026-05-02T18:15:15.923Z</time></trkpt><trkpt lat="42.3372528" lon="-3.7060399"><ele>853.6000000000001</ele><time>2026-05-02T18:15:17.924Z</time></trkpt><trkpt lat="42.3372913" lon="-3.7059454"><ele>853.4</ele><time>2026-05-02T18:15:19.919Z</time></trkpt><trkpt lat="42.3373391" lon="-3.7058274"><ele>853.2</ele><time>2026-05-02T18:15:21.938Z</time></trkpt><trkpt lat="42.3373872" lon="-3.7056854"><ele>853.0</ele><time>2026-05-02T18:15:23.938Z</time></trkpt><trkpt lat="42.337436" lon="-3.7055364"><ele>853.0</ele><time>2026-05-02T18:15:25.931Z</time></trkpt><trkpt lat="42.3374872" lon="-3.7054251"><ele>853.0</ele><time>2026-05-02T18:15:27.937Z</time></trkpt><trkpt lat="42.3375575" lon="-3.705347"><ele>853.0</ele><time>2026-05-02T18:15:39.926Z</time></trkpt><trkpt lat="42.3376185" lon="-3.7052701"><ele>853.0</ele><time>2026-05-02T18:15:41.927Z</time></trkpt><trkpt lat="42.3376946" lon="-3.7051583"><ele>853.0</ele><time>2026-05-02T18:15:43.925Z</time></trkpt><trkpt lat="42.3377473" lon="-3.7050797"><ele>853.1666666666666</ele><time>2026-05-02T18:15:44.919Z</time></trkpt><trkpt lat="42.3377981" lon="-3.7050017"><ele>853.3333333333333</ele><time>2026-05-02T18:15:45.924Z</time></trkpt><trkpt lat="42.3378526" lon="-3.7049225"><ele>853.5</ele><time>2026-05-02T18:15:46.924Z</time></trkpt><trkpt lat="42.337907" lon="-3.7048421"><ele>853.6666666666667</ele><time>2026-05-02T18:15:47.927Z</time></trkpt><trkpt lat="42.3379553" lon="-3.7047553"><ele>853.8333333333334</ele><time>2026-05-02T18:15:48.926Z</time></trkpt><trkpt lat="42.3380132" lon="-3.7046697"><ele>854.0</ele><time>2026-05-02T18:15:49.922Z</time></trkpt><trkpt lat="42.3380714" lon="-3.7045868"><ele>854.1428571428571</ele><time>2026-05-02T18:15:50.914Z</time></trkpt><trkpt lat="42.3381263" lon="-3.7045053"><ele>854.2857142857142</ele><time>2026-05-02T18:15:51.925Z</time></trkpt><trkpt lat="42.338178" lon="-3.7044333"><ele>854.4285714285714</ele><time>2026-05-02T18:15:52.916Z</time></trkpt><trkpt lat="42.3382274" lon="-3.7043681"><ele>854.5714285714286</ele><time>2026-05-02T18:15:53.913Z</time></trkpt><trkpt lat="42.3382781" lon="-3.7043057"><ele>854.7142857142857</ele><time>2026-05-02T18:15:54.914Z</time></trkpt><trkpt lat="42.3383291" lon="-3.704247"><ele>854.8571428571429</ele><time>2026-05-02T18:15:55.914Z</time></trkpt><trkpt lat="42.3383796" lon="-3.7041896"><ele>855.0</ele><time>2026-05-02T18:15:56.927Z</time></trkpt><trkpt lat="42.3384285" lon="-3.7041309"><ele>855.1428571428572</ele><time>2026-05-02T18:15:57.928Z</time></trkpt><trkpt lat="42.3384797" lon="-3.7040778"><ele>855.2857142857142</ele><time>2026-05-02T18:15:58.929Z</time></trkpt><trkpt lat="42.3385274" lon="-3.7040191"><ele>855.4285714285714</ele><time>2026-05-02T18:15:59.924Z</time></trkpt><trkpt lat="42.3385758" lon="-3.7039495"><ele>855.5714285714287</ele><time>2026-05-02T18:16:00.93Z</time></trkpt><trkpt lat="42.3386304" lon="-3.7038893"><ele>855.7142857142858</ele><time>2026-05-02T18:16:01.924Z</time></trkpt><trkpt lat="42.3386827" lon="-3.7038204"><ele>855.8571428571429</ele><time>2026-05-02T18:16:02.93Z</time></trkpt><trkpt lat="42.3387308" lon="-3.7037464"><ele>856.0</ele><time>2026-05-02T18:16:03.926Z</time></trkpt><trkpt lat="42.3387766" lon="-3.7036748"><ele>855.9999999999999</ele><time>2026-05-02T18:16:04.926Z</time></trkpt><trkpt lat="42.3388262" lon="-3.7036009"><ele>856.0</ele><time>2026-05-02T18:16:05.928Z</time></trkpt><trkpt lat="42.3388682" lon="-3.7035255"><ele>856.0</ele><time>2026-05-02T18:16:06.935Z</time></trkpt><trkpt lat="42.3389026" lon="-3.7034426"><ele>856.0</ele><time>2026-05-02T18:16:07.929Z</time></trkpt><trkpt lat="42.3389343" lon="-3.7033629"><ele>855.9999999999999</ele><time>2026-05-02T18:16:08.928Z</time></trkpt><trkpt lat="42.3389861" lon="-3.7032266"><ele>856.0</ele><time>2026-05-02T18:16:10.926Z</time></trkpt><trkpt lat="42.3390171" lon="-3.703131"><ele>856.1666666666666</ele><time>2026-05-02T18:16:12.928Z</time></trkpt><trkpt lat="42.3390417" lon="-3.7030491"><ele>856.3333333333333</ele><time>2026-05-02T18:17:00.938Z</time></trkpt><trkpt lat="42.3390562" lon="-3.7029556"><ele>856.5</ele><time>2026-05-02T18:17:22.933Z</time></trkpt><trkpt lat="42.3390785" lon="-3.7028336"><ele>856.6666666666667</ele><time>2026-05-02T18:17:24.926Z</time></trkpt><trkpt lat="42.3391056" lon="-3.7026862"><ele>856.8333333333334</ele><time>2026-05-02T18:17:26.928Z</time></trkpt><trkpt lat="42.3391143" lon="-3.7025845"><ele>857.0</ele><time>2026-05-02T18:17:27.927Z</time></trkpt><trkpt lat="42.3391266" lon="-3.7024647"><ele>858.2</ele><time>2026-05-02T18:17:28.922Z</time></trkpt><trkpt lat="42.33915" lon="-3.702334"><ele>859.4000000000001</ele><time>2026-05-02T18:17:29.927Z</time></trkpt><trkpt lat="42.33917" lon="-3.7021974"><ele>860.5999999999999</ele><time>2026-05-02T18:17:30.936Z</time></trkpt><trkpt lat="42.3391926" lon="-3.702067"><ele>861.8</ele><time>2026-05-02T18:17:31.933Z</time></trkpt><trkpt lat="42.3392169" lon="-3.7019402"><ele>863.0</ele><time>2026-05-02T18:17:32.919Z</time></trkpt><trkpt lat="42.3392417" lon="-3.7018164"><ele>863.4</ele><time>2026-05-02T18:17:33.914Z</time></trkpt><trkpt lat="42.339262" lon="-3.70169"><ele>863.8</ele><time>2026-05-02T18:17:34.912Z</time></trkpt><trkpt lat="42.3392754" lon="-3.7015616"><ele>864.2</ele><time>2026-05-02T18:17:35.906Z</time></trkpt><trkpt lat="42.3392961" lon="-3.701441"><ele>864.6</ele><time>2026-05-02T18:17:36.911Z</time></trkpt><trkpt lat="42.3393121" lon="-3.7013255"><ele>865.0</ele><time>2026-05-02T18:17:37.918Z</time></trkpt><trkpt lat="42.33933" lon="-3.7012172"><ele>864.9999999999999</ele><time>2026-05-02T18:17:38.926Z</time></trkpt><trkpt lat="42.3393554" lon="-3.7011164"><ele>865.0</ele><time>2026-05-02T18:17:39.919Z</time></trkpt><trkpt lat="42.3393806" lon="-3.7010078"><ele>865.0</ele><time>2026-05-02T18:17:40.923Z</time></trkpt><trkpt lat="42.3394051" lon="-3.7008993"><ele>865.0</ele><time>2026-05-02T18:17:41.922Z</time></trkpt><trkpt lat="42.3394327" lon="-3.7007855"><ele>864.9999999999999</ele><time>2026-05-02T18:17:42.925Z</time></trkpt><trkpt lat="42.3394604" lon="-3.7006738"><ele>865.0</ele><time>2026-05-02T18:17:43.923Z</time></trkpt><trkpt lat="42.3394832" lon="-3.7005668"><ele>864.9999999999999</ele><time>2026-05-02T18:17:44.925Z</time></trkpt><trkpt lat="42.3395043" lon="-3.7004562"><ele>865.0</ele><time>2026-05-02T18:17:45.922Z</time></trkpt><trkpt lat="42.3395246" lon="-3.7003477"><ele>865.0</ele><time>2026-05-02T18:17:46.932Z</time></trkpt><trkpt lat="42.3395399" lon="-3.7002502"><ele>865.0</ele><time>2026-05-02T18:17:47.922Z</time></trkpt><trkpt lat="42.3395624" lon="-3.7001335"><ele>864.9999999999999</ele><time>2026-05-02T18:17:49.922Z</time></trkpt><trkpt lat="42.3395748" lon="-3.7000245"><ele>865.0</ele><time>2026-05-02T18:17:51.923Z</time></trkpt><trkpt lat="42.3395784" lon="-3.699934"><ele>865.1666666666666</ele><time>2026-05-02T18:17:53.917Z</time></trkpt><trkpt lat="42.3395835" lon="-3.6998113"><ele>865.3333333333333</ele><time>2026-05-02T18:17:56.91Z</time></trkpt><trkpt lat="42.3395977" lon="-3.6997165"><ele>865.5</ele><time>2026-05-02T18:18:00.917Z</time></trkpt><trkpt lat="42.3396257" lon="-3.6995839"><ele>865.6666666666667</ele><time>2026-05-02T18:18:03.914Z</time></trkpt><trkpt lat="42.3396383" lon="-3.6994684"><ele>865.8333333333334</ele><time>2026-05-02T18:18:05.911Z</time></trkpt><trkpt lat="42.3396649" lon="-3.6993738"><ele>866.0</ele><time>2026-05-02T18:18:07.914Z</time></trkpt><trkpt lat="42.3397016" lon="-3.6992515"><ele>864.5000000000001</ele><time>2026-05-02T18:18:46.918Z</time></trkpt><trkpt lat="42.3397218" lon="-3.6991436"><ele>863.0</ele><time>2026-05-02T18:18:48.946Z</time></trkpt><trkpt lat="42.3397724" lon="-3.699062"><ele>861.5</ele><time>2026-05-02T18:18:50.917Z</time></trkpt><trkpt lat="42.3398488" lon="-3.6990596"><ele>860.0</ele><time>2026-05-02T18:18:52.921Z</time></trkpt><trkpt lat="42.3399522" lon="-3.6991115"><ele>858.5000000000001</ele><time>2026-05-02T18:18:54.912Z</time></trkpt><trkpt lat="42.3400126" lon="-3.6991501"><ele>857.0</ele><time>2026-05-02T18:18:55.927Z</time></trkpt><trkpt lat="42.34007" lon="-3.6991954"><ele>857.0000000000001</ele><time>2026-05-02T18:18:56.928Z</time></trkpt><trkpt lat="42.3401366" lon="-3.6992401"><ele>857.0</ele><time>2026-05-02T18:18:57.928Z</time></trkpt><trkpt lat="42.340206" lon="-3.6992929"><ele>857.0</ele><time>2026-05-02T18:18:58.933Z</time></trkpt><trkpt lat="42.3402796" lon="-3.6993392"><ele>857.0</ele><time>2026-05-02T18:18:59.932Z</time></trkpt><trkpt lat="42.340356" lon="-3.6993856"><ele>857.0000000000001</ele><time>2026-05-02T18:19:00.934Z</time></trkpt><trkpt lat="42.3404311" lon="-3.6994245"><ele>857.0</ele><time>2026-05-02T18:19:01.927Z</time></trkpt><trkpt lat="42.3405069" lon="-3.6994626"><ele>858.7142857142857</ele><time>2026-05-02T18:19:02.927Z</time></trkpt><trkpt lat="42.3405719" lon="-3.6994936"><ele>860.4285714285713</ele><time>2026-05-02T18:19:03.925Z</time></trkpt><trkpt lat="42.3406404" lon="-3.6995207"><ele>862.1428571428571</ele><time>2026-05-02T18:19:04.929Z</time></trkpt><trkpt lat="42.3407042" lon="-3.6995452"><ele>863.8571428571429</ele><time>2026-05-02T18:19:05.926Z</time></trkpt><trkpt lat="42.3407674" lon="-3.6995748"><ele>865.5714285714286</ele><time>2026-05-02T18:19:06.929Z</time></trkpt><trkpt lat="42.3408307" lon="-3.699607"><ele>867.2857142857143</ele><time>2026-05-02T18:19:07.927Z</time></trkpt><trkpt lat="42.3408879" lon="-3.6996456"><ele>869.0</ele><time>2026-05-02T18:19:08.922Z</time></trkpt><trkpt lat="42.3409883" lon="-3.6997362"><ele>869.0000000000001</ele><time>2026-05-02T18:19:10.918Z</time></trkpt><trkpt lat="42.3410777" lon="-3.6998336"><ele>869.0</ele><time>2026-05-02T18:19:12.926Z</time></trkpt><trkpt lat="42.3411665" lon="-3.6999156"><ele>869.0</ele><time>2026-05-02T18:19:14.928Z</time></trkpt><trkpt lat="42.3412414" lon="-3.6999365"><ele>869.0</ele><time>2026-05-02T18:19:16.922Z</time></trkpt><trkpt lat="42.3413104" lon="-3.6999648"><ele>869.0000000000001</ele><time>2026-05-02T18:19:19.916Z</time></trkpt><trkpt lat="42.3413731" lon="-3.699975"><ele>869.0</ele><time>2026-05-02T18:19:27.917Z</time></trkpt><trkpt lat="42.3411797" lon="-3.699852"><ele>869.0</ele><time>2026-05-02T18:20:54.585Z</time></trkpt><trkpt lat="42.3413291" lon="-3.6998367"><ele>869.0</ele><time>2026-05-02T18:22:33.95Z</time></trkpt><trkpt lat="42.3403305" lon="-3.6992533"><ele>857.0</ele><time>2026-05-02T18:25:03.47Z</time></trkpt></trkseg></trk></gpx>